<?xml version='1.0' encoding='UTF-8'?><gpx version="1.1" creator="JPX - https://github.com/jenetics/jpx" xmlns="http://www.topografix.com/GPX/1/1"><trk><trkseg><trkpt lat="44.035666070586" lon="12.607100310159991"><ele>5.0</ele><time>2026-04-11T06:51:59.999Z</time></trkpt><trkpt lat="44.03561160822492" lon="12.607043737068441"><ele>5.0</ele><time>2026-04-11T06:52:00.999Z</time></trkpt><trkpt lat="44.0355703982796" lon="12.606970493772858"><ele>5.0</ele><time>2026-04-11T06:52:01.999Z</time></trkpt><trkpt lat="44.03551618684164" lon="12.606872937290653"><ele>5.0</ele><time>2026-04-11T06:52:02.999Z</time></trkpt><trkpt lat="44.03544475605426" lon="12.606777331620831"><ele>5.0</ele><time>2026-04-11T06:52:03.999Z</time></trkpt><trkpt lat="44.03540675420407" lon="12.606650944756067"><ele>5.0</ele><time>2026-04-11T06:52:04.999Z</time></trkpt><trkpt lat="44.03533518304624" lon="12.60652694318993"><ele>4.8</ele><time>2026-04-11T06:52:05.999Z</time></trkpt><trkpt lat="44.035255072112555" lon="12.60639279193591"><ele>4.6</ele><time>2026-04-11T06:52:06.999Z</time></trkpt><trkpt lat="44.03518285286218" lon="12.606277611578824"><ele>4.4</ele><time>2026-04-11T06:52:07.999Z</time></trkpt><trkpt lat="44.0351176520451" lon="12.606186419415595"><ele>4.2</ele><time>2026-04-11T06:52:08.999Z</time></trkpt><trkpt lat="44.03505525126836" lon="12.606127004836953"><ele>4.0</ele><time>2026-04-11T06:52:09.999Z</time></trkpt><trkpt lat="44.03502599298413" lon="12.606035537690886"><ele>3.6</ele><time>2026-04-11T06:52:10.999Z</time></trkpt><trkpt lat="44.03501530718487" lon="12.605911323304143"><ele>3.2</ele><time>2026-04-11T06:52:11.999Z</time></trkpt><trkpt lat="44.03503526795312" lon="12.605770458408957"><ele>2.8000000000000003</ele><time>2026-04-11T06:52:12.999Z</time></trkpt><trkpt lat="44.03508011142705" lon="12.605618177018306"><ele>2.4000000000000004</ele><time>2026-04-11T06:52:13.999Z</time></trkpt><trkpt lat="44.035145859774005" lon="12.60546920031548"><ele>2.0</ele><time>2026-04-11T06:52:14.999Z</time></trkpt><trkpt lat="44.035237694097866" lon="12.605331055612632"><ele>2.25</ele><time>2026-04-11T06:52:15.999Z</time></trkpt><trkpt lat="44.03533524079477" lon="12.6051913886678"><ele>2.5</ele><time>2026-04-11T06:52:16.999Z</time></trkpt><trkpt lat="44.035435232548" lon="12.605039982648911"><ele>2.75</ele><time>2026-04-11T06:52:17.999Z</time></trkpt><trkpt lat="44.035533393465826" lon="12.604894535163684"><ele>3.0</ele><time>2026-04-11T06:52:18.999Z</time></trkpt><trkpt lat="44.035635157253914" lon="12.604739486225801"><ele>3.0</ele><time>2026-04-11T06:52:19.999Z</time></trkpt><trkpt lat="44.03574241151873" lon="12.604583116626932"><ele>3.0</ele><time>2026-04-11T06:52:20.999Z</time></trkpt><trkpt lat="44.035854228976795" lon="12.604420484234392"><ele>3.0</ele><time>2026-04-11T06:52:21.999Z</time></trkpt><trkpt lat="44.03596082015047" lon="12.604246850457958"><ele>3.333333333333333</ele><time>2026-04-11T06:52:22.999Z</time></trkpt><trkpt lat="44.03607926224994" lon="12.60408364561526"><ele>3.6666666666666665</ele><time>2026-04-11T06:52:23.999Z</time></trkpt><trkpt lat="44.036204300774" lon="12.603921161922274"><ele>4.0</ele><time>2026-04-11T06:52:24.999Z</time></trkpt><trkpt lat="44.03633089927741" lon="12.603756346906943"><ele>3.6666666666666665</ele><time>2026-04-11T06:52:25.999Z</time></trkpt><trkpt lat="44.0364612702333" lon="12.603587710583843"><ele>3.333333333333333</ele><time>2026-04-11T06:52:26.999Z</time></trkpt><trkpt lat="44.036594263265066" lon="12.603429112477219"><ele>3.0</ele><time>2026-04-11T06:52:27.999Z</time></trkpt><trkpt lat="44.03672485844792" lon="12.603268101552947"><ele>3.0</ele><time>2026-04-11T06:52:28.999Z</time></trkpt><trkpt lat="44.03685575738718" lon="12.603102059382547"><ele>3.0</ele><time>2026-04-11T06:52:29.999Z</time></trkpt><trkpt lat="44.03699033843779" lon="12.602941763137228"><ele>3.0</ele><time>2026-04-11T06:52:30.999Z</time></trkpt><trkpt lat="44.03712879177951" lon="12.602780675927633"><ele>2.3333333333333335</ele><time>2026-04-11T06:52:31.999Z</time></trkpt><trkpt lat="44.03726440667437" lon="12.602626619234385"><ele>1.6666666666666665</ele><time>2026-04-11T06:52:32.999Z</time></trkpt><trkpt lat="44.03738724843061" lon="12.602481336632575"><ele>1.0</ele><time>2026-04-11T06:52:33.999Z</time></trkpt><trkpt lat="44.03750146190616" lon="12.602347718487112"><ele>1.0</ele><time>2026-04-11T06:52:34.999Z</time></trkpt><trkpt lat="44.037622149542045" lon="12.60220315315076"><ele>1.0</ele><time>2026-04-11T06:52:35.999Z</time></trkpt><trkpt lat="44.0377405857655" lon="12.602068959368632"><ele>1.0</ele><time>2026-04-11T06:52:36.999Z</time></trkpt><trkpt lat="44.037861346832784" lon="12.601934104673418"><ele>0.6666666666666666</ele><time>2026-04-11T06:52:37.999Z</time></trkpt><trkpt lat="44.03798065339555" lon="12.601802219347103"><ele>0.3333333333333333</ele><time>2026-04-11T06:52:38.999Z</time></trkpt><trkpt lat="44.038101181819314" lon="12.60166746621855"><ele>0.0</ele><time>2026-04-11T06:52:39.999Z</time></trkpt><trkpt lat="44.03822846758655" lon="12.601532729931067"><ele>1.0</ele><time>2026-04-11T06:52:40.999Z</time></trkpt><trkpt lat="44.03835721057011" lon="12.60139456801527"><ele>2.0</ele><time>2026-04-11T06:52:41.999Z</time></trkpt><trkpt lat="44.038498558983086" lon="12.601275272856993"><ele>3.0</ele><time>2026-04-11T06:52:42.999Z</time></trkpt><trkpt lat="44.03861690154836" lon="12.601153549794326"><ele>3.0</ele><time>2026-04-11T06:52:43.999Z</time></trkpt><trkpt lat="44.03873216485356" lon="12.601034993967323"><ele>3.0</ele><time>2026-04-11T06:52:44.999Z</time></trkpt><trkpt lat="44.038830768759894" lon="12.600933573422886"><ele>3.0</ele><time>2026-04-11T06:52:45.999Z</time></trkpt><trkpt lat="44.03890978633261" lon="12.600852298704394"><ele>3.0</ele><time>2026-04-11T06:52:46.999Z</time></trkpt><trkpt lat="44.038970547445096" lon="12.60076470007388"><ele>3.0</ele><time>2026-04-11T06:52:47.999Z</time></trkpt><trkpt lat="44.03905341237965" lon="12.600719252657663"><ele>3.0</ele><time>2026-04-11T06:52:48.999Z</time></trkpt><trkpt lat="44.03914707192432" lon="12.60071901974082"><ele>3.0</ele><time>2026-04-11T06:52:49.999Z</time></trkpt><trkpt lat="44.039205245463144" lon="12.600670070211255"><ele>3.0</ele><time>2026-04-11T06:52:50.999Z</time></trkpt><trkpt lat="44.0392364142673" lon="12.600591458099075"><ele>3.0</ele><time>2026-04-11T06:52:51.999Z</time></trkpt><trkpt lat="44.039218730615644" lon="12.600480096086057"><ele>3.0</ele><time>2026-04-11T06:52:52.999Z</time></trkpt><trkpt lat="44.0391575759984" lon="12.600384730346763"><ele>3.0</ele><time>2026-04-11T06:52:53.999Z</time></trkpt><trkpt lat="44.03907154815418" lon="12.600336002399427"><ele>3.0</ele><time>2026-04-11T06:52:54.999Z</time></trkpt><trkpt lat="44.039004454869094" lon="12.600264277524046"><ele>3.0</ele><time>2026-04-11T06:52:55.999Z</time></trkpt><trkpt lat="44.03893556344266" lon="12.600169552486793"><ele>3.0</ele><time>2026-04-11T06:52:56.999Z</time></trkpt><trkpt lat="44.03886841374249" lon="12.600059180443038"><ele>3.0</ele><time>2026-04-11T06:52:57.999Z</time></trkpt><trkpt lat="44.03880194264949" lon="12.599927736883393"><ele>3.75</ele><time>2026-04-11T06:52:58.999Z</time></trkpt><trkpt lat="44.038725951888665" lon="12.59979158474187"><ele>4.5</ele><time>2026-04-11T06:52:59.999Z</time></trkpt><trkpt lat="44.03864376140797" lon="12.59965408973628"><ele>5.25</ele><time>2026-04-11T06:53:00.999Z</time></trkpt><trkpt lat="44.038561143537684" lon="12.599513912685802"><ele>6.0</ele><time>2026-04-11T06:53:01.999Z</time></trkpt><trkpt lat="44.0384766508401" lon="12.599376324356523"><ele>6.0</ele><time>2026-04-11T06:53:02.999Z</time></trkpt><trkpt lat="44.03839018880294" lon="12.599233118564806"><ele>6.0</ele><time>2026-04-11T06:53:03.999Z</time></trkpt><trkpt lat="44.038321487149126" lon="12.599073180023092"><ele>6.0</ele><time>2026-04-11T06:53:04.999Z</time></trkpt><trkpt lat="44.03824505362885" lon="12.598940628897104"><ele>6.0</ele><time>2026-04-11T06:53:05.999Z</time></trkpt><trkpt lat="44.03818217515947" lon="12.598831572083627"><ele>5.8</ele><time>2026-04-11T06:53:06.999Z</time></trkpt><trkpt lat="44.03813024348839" lon="12.5987414647501"><ele>5.6</ele><time>2026-04-11T06:53:07.999Z</time></trkpt><trkpt lat="44.038077328661466" lon="12.598649651704582"><ele>5.4</ele><time>2026-04-11T06:53:08.999Z</time></trkpt><trkpt lat="44.03800524595573" lon="12.598561645624743"><ele>5.2</ele><time>2026-04-11T06:53:09.999Z</time></trkpt><trkpt lat="44.03794579581882" lon="12.598453810626626"><ele>5.0</ele><time>2026-04-11T06:53:10.999Z</time></trkpt><trkpt lat="44.037882276913386" lon="12.598342191528799"><ele>4.666666666666667</ele><time>2026-04-11T06:53:11.999Z</time></trkpt><trkpt lat="44.03782281852134" lon="12.598231080789535"><ele>4.333333333333334</ele><time>2026-04-11T06:53:12.999Z</time></trkpt><trkpt lat="44.03776378294611" lon="12.598133409832965"><ele>4.0</ele><time>2026-04-11T06:53:13.999Z</time></trkpt><trkpt lat="44.03770056384257" lon="12.598049276179777"><ele>3.666666666666667</ele><time>2026-04-11T06:53:14.999Z</time></trkpt><trkpt lat="44.03763122296107" lon="12.597985223158338"><ele>3.3333333333333335</ele><time>2026-04-11T06:53:15.999Z</time></trkpt><trkpt lat="44.0375648987056" lon="12.597940527784885"><ele>3.0</ele><time>2026-04-11T06:53:17Z</time></trkpt><trkpt lat="44.03748200515841" lon="12.597922115009034"><ele>3.0</ele><time>2026-04-11T06:53:19Z</time></trkpt><trkpt lat="44.03743732605482" lon="12.597847071940228"><ele>3.0</ele><time>2026-04-11T06:53:22Z</time></trkpt><trkpt lat="44.03740188098928" lon="12.597724209324292"><ele>3.0</ele><time>2026-04-11T06:53:29Z</time></trkpt><trkpt lat="44.037362828680834" lon="12.597556491812627"><ele>3.0</ele><time>2026-04-11T06:53:31Z</time></trkpt><trkpt lat="44.037383617554575" lon="12.59743492030829"><ele>3.0</ele><time>2026-04-11T06:53:32Z</time></trkpt><trkpt lat="44.03741634950847" lon="12.5973163272194"><ele>3.0</ele><time>2026-04-11T06:53:33Z</time></trkpt><trkpt lat="44.03748015274754" lon="12.597209770067206"><ele>3.0</ele><time>2026-04-11T06:53:34Z</time></trkpt><trkpt lat="44.0375538343741" lon="12.597104772433767"><ele>3.0</ele><time>2026-04-11T06:53:35Z</time></trkpt><trkpt lat="44.03763748133362" lon="12.596993245113719"><ele>3.0</ele><time>2026-04-11T06:53:36Z</time></trkpt><trkpt lat="44.03771925553613" lon="12.596863270020659"><ele>3.0</ele><time>2026-04-11T06:53:37Z</time></trkpt><trkpt lat="44.03780321893265" lon="12.5967257490772"><ele>3.0</ele><time>2026-04-11T06:53:38Z</time></trkpt><trkpt lat="44.03789328897216" lon="12.59658477713595"><ele>3.0</ele><time>2026-04-11T06:53:39Z</time></trkpt><trkpt lat="44.03798699235362" lon="12.59643924392158"><ele>3.0</ele><time>2026-04-11T06:53:40Z</time></trkpt><trkpt lat="44.038081407023874" lon="12.59629001096005"><ele>3.0</ele><time>2026-04-11T06:53:41Z</time></trkpt><trkpt lat="44.03817760867876" lon="12.596145412307141"><ele>3.0</ele><time>2026-04-11T06:53:42Z</time></trkpt><trkpt lat="44.038275382761974" lon="12.595989502796726"><ele>3.0</ele><time>2026-04-11T06:53:43Z</time></trkpt><trkpt lat="44.03837441826811" lon="12.595830194774082"><ele>3.0</ele><time>2026-04-11T06:53:44Z</time></trkpt><trkpt lat="44.03847867960866" lon="12.595669947276367"><ele>3.0</ele><time>2026-04-11T06:53:45Z</time></trkpt><trkpt lat="44.038586868853535" lon="12.595507849810637"><ele>3.0</ele><time>2026-04-11T06:53:46Z</time></trkpt><trkpt lat="44.03869627802901" lon="12.595344569645249"><ele>3.0</ele><time>2026-04-11T06:53:47Z</time></trkpt><trkpt lat="44.03880505785361" lon="12.595175771659164"><ele>3.0</ele><time>2026-04-11T06:53:48Z</time></trkpt><trkpt lat="44.038913626667444" lon="12.595002935914088"><ele>3.0</ele><time>2026-04-11T06:53:49Z</time></trkpt><trkpt lat="44.03901981098013" lon="12.594829448206967"><ele>3.0</ele><time>2026-04-11T06:53:50Z</time></trkpt><trkpt lat="44.0391248353303" lon="12.594655361603426"><ele>2.6666666666666665</ele><time>2026-04-11T06:53:51Z</time></trkpt><trkpt lat="44.03922775882303" lon="12.594487346569908"><ele>2.333333333333333</ele><time>2026-04-11T06:53:52Z</time></trkpt><trkpt lat="44.03932821074337" lon="12.59432615966335"><ele>2.0</ele><time>2026-04-11T06:53:53Z</time></trkpt><trkpt lat="44.03942300620924" lon="12.594170790498987"><ele>2.0</ele><time>2026-04-11T06:53:54Z</time></trkpt><trkpt lat="44.039514455427344" lon="12.594023001662062"><ele>2.0</ele><time>2026-04-11T06:53:55Z</time></trkpt><trkpt lat="44.03960038308722" lon="12.593879888941604"><ele>2.0</ele><time>2026-04-11T06:53:55.999Z</time></trkpt><trkpt lat="44.03968178292486" lon="12.593739282089995"><ele>2.0</ele><time>2026-04-11T06:53:56.999Z</time></trkpt><trkpt lat="44.0397592664967" lon="12.59360410309298"><ele>2.25</ele><time>2026-04-11T06:53:57.999Z</time></trkpt><trkpt lat="44.0398323364637" lon="12.593468672879743"><ele>2.5</ele><time>2026-04-11T06:53:58.999Z</time></trkpt><trkpt lat="44.03990329774836" lon="12.593331985123182"><ele>2.75</ele><time>2026-04-11T06:53:59.999Z</time></trkpt><trkpt lat="44.03997368687365" lon="12.593194633561149"><ele>3.0</ele><time>2026-04-11T06:54:00.999Z</time></trkpt><trkpt lat="44.0400424051409" lon="12.593057573878706"><ele>3.0</ele><time>2026-04-11T06:54:01.999Z</time></trkpt><trkpt lat="44.040107219203875" lon="12.592919619386715"><ele>3.0</ele><time>2026-04-11T06:54:02.999Z</time></trkpt><trkpt lat="44.04016825006181" lon="12.592775399832222"><ele>3.0</ele><time>2026-04-11T06:54:03.999Z</time></trkpt><trkpt lat="44.04022914680756" lon="12.592631185758817"><ele>3.0</ele><time>2026-04-11T06:54:04.999Z</time></trkpt><trkpt lat="44.040289946432225" lon="12.592482930588448"><ele>2.75</ele><time>2026-04-11T06:54:05.999Z</time></trkpt><trkpt lat="44.04034514876975" lon="12.592337405119705"><ele>2.5</ele><time>2026-04-11T06:54:06.999Z</time></trkpt><trkpt lat="44.04039024658931" lon="12.59219464695924"><ele>2.25</ele><time>2026-04-11T06:54:07.999Z</time></trkpt><trkpt lat="44.04042998153366" lon="12.592050380718998"><ele>2.0</ele><time>2026-04-11T06:54:08.999Z</time></trkpt><trkpt lat="44.04046486127119" lon="12.591907986322084"><ele>2.0</ele><time>2026-04-11T06:54:09.999Z</time></trkpt><trkpt lat="44.04050981546917" lon="12.591776979357467"><ele>2.0</ele><time>2026-04-11T06:54:10.999Z</time></trkpt><trkpt lat="44.04057475131894" lon="12.591679505171916"><ele>2.0</ele><time>2026-04-11T06:54:11.999Z</time></trkpt><trkpt lat="44.04066520123622" lon="12.591624131458335"><ele>2.0</ele><time>2026-04-11T06:54:12.999Z</time></trkpt><trkpt lat="44.0407635284084" lon="12.591578169752625"><ele>2.0</ele><time>2026-04-11T06:54:13.999Z</time></trkpt><trkpt lat="44.04085806983395" lon="12.59151205107636"><ele>2.75</ele><time>2026-04-11T06:54:14.999Z</time></trkpt><trkpt lat="44.04094238287825" lon="12.591412461594555"><ele>3.5</ele><time>2026-04-11T06:54:15.999Z</time></trkpt><trkpt lat="44.041011111551036" lon="12.591287699764443"><ele>4.25</ele><time>2026-04-11T06:54:16.999Z</time></trkpt><trkpt lat="44.04105644368449" lon="12.591140756724297"><ele>5.0</ele><time>2026-04-11T06:54:17.999Z</time></trkpt><trkpt lat="44.041078427134075" lon="12.590980248160482"><ele>5.0</ele><time>2026-04-11T06:54:18.999Z</time></trkpt><trkpt lat="44.04108004430102" lon="12.590817884295992"><ele>5.0</ele><time>2026-04-11T06:54:19.999Z</time></trkpt><trkpt lat="44.041053390787695" lon="12.590667027960416"><ele>5.0</ele><time>2026-04-11T06:54:20.999Z</time></trkpt><trkpt lat="44.04100343560179" lon="12.590521932472345"><ele>5.0</ele><time>2026-04-11T06:54:21.999Z</time></trkpt><trkpt lat="44.040945625711004" lon="12.59039048792685"><ele>4.6</ele><time>2026-04-11T06:54:22.999Z</time></trkpt><trkpt lat="44.04089999853726" lon="12.590259432326805"><ele>4.2</ele><time>2026-04-11T06:54:23.999Z</time></trkpt><trkpt lat="44.04088355953446" lon="12.59012346232842"><ele>3.8</ele><time>2026-04-11T06:54:24.999Z</time></trkpt><trkpt lat="44.040895632502306" lon="12.589974970938572"><ele>3.4</ele><time>2026-04-11T06:54:25.999Z</time></trkpt><trkpt lat="44.04093792199039" lon="12.589828943860516"><ele>3.0</ele><time>2026-04-11T06:54:26.999Z</time></trkpt><trkpt lat="44.040995661974236" lon="12.589686584518155"><ele>3.0</ele><time>2026-04-11T06:54:27.999Z</time></trkpt><trkpt lat="44.041049292600604" lon="12.589536512156569"><ele>3.0</ele><time>2026-04-11T06:54:28.999Z</time></trkpt><trkpt lat="44.04108805438817" lon="12.589371119735565"><ele>3.0</ele><time>2026-04-11T06:54:29.999Z</time></trkpt><trkpt lat="44.04111695885294" lon="12.589191894496041"><ele>3.0</ele><time>2026-04-11T06:54:30.999Z</time></trkpt><trkpt lat="44.04114150176116" lon="12.589002124907813"><ele>3.0</ele><time>2026-04-11T06:54:31.999Z</time></trkpt><trkpt lat="44.04116106162447" lon="12.588804544048891"><ele>3.0</ele><time>2026-04-11T06:54:32.999Z</time></trkpt><trkpt lat="44.04118285594413" lon="12.588601507369157"><ele>3.0</ele><time>2026-04-11T06:54:33.999Z</time></trkpt><trkpt lat="44.04120831292672" lon="12.588389639023276"><ele>3.0</ele><time>2026-04-11T06:54:34.999Z</time></trkpt><trkpt lat="44.04122854087895" lon="12.588172549230732"><ele>2.6666666666666665</ele><time>2026-04-11T06:54:35.999Z</time></trkpt><trkpt lat="44.0412428332642" lon="12.587947719244138"><ele>2.333333333333333</ele><time>2026-04-11T06:54:36.999Z</time></trkpt><trkpt lat="44.04125352550723" lon="12.58771591237455"><ele>2.0</ele><time>2026-04-11T06:54:37.999Z</time></trkpt><trkpt lat="44.04126122681278" lon="12.587480455051859"><ele>2.6666666666666665</ele><time>2026-04-11T06:54:38.999Z</time></trkpt><trkpt lat="44.04126926402476" lon="12.587240169713338"><ele>3.333333333333333</ele><time>2026-04-11T06:54:39.999Z</time></trkpt><trkpt lat="44.04128190424663" lon="12.586996207825187"><ele>4.0</ele><time>2026-04-11T06:54:40.999Z</time></trkpt><trkpt lat="44.04129449815958" lon="12.586749600667819"><ele>4.0</ele><time>2026-04-11T06:54:41.999Z</time></trkpt><trkpt lat="44.04130642234989" lon="12.586498218822802"><ele>4.0</ele><time>2026-04-11T06:54:42.999Z</time></trkpt><trkpt lat="44.041320283730705" lon="12.58624457232407"><ele>4.0</ele><time>2026-04-11T06:54:43.999Z</time></trkpt><trkpt lat="44.04133525907756" lon="12.585987736189203"><ele>4.0</ele><time>2026-04-11T06:54:44.999Z</time></trkpt><trkpt lat="44.04134745389133" lon="12.585726444973595"><ele>4.0</ele><time>2026-04-11T06:54:45.999Z</time></trkpt><trkpt lat="44.04136154300164" lon="12.585468888947213"><ele>4.0</ele><time>2026-04-11T06:54:46.999Z</time></trkpt><trkpt lat="44.04137364191535" lon="12.585207007634718"><ele>3.6666666666666665</ele><time>2026-04-11T06:54:47.999Z</time></trkpt><trkpt lat="44.041385246529586" lon="12.584943532566664"><ele>3.333333333333333</ele><time>2026-04-11T06:54:48.999Z</time></trkpt><trkpt lat="44.04139615274113" lon="12.584679501138428"><ele>3.0</ele><time>2026-04-11T06:54:49.999Z</time></trkpt><trkpt lat="44.04140877910467" lon="12.584414298939567"><ele>3.0</ele><time>2026-04-11T06:54:50.999Z</time></trkpt><trkpt lat="44.04142081290435" lon="12.584148150270952"><ele>3.0</ele><time>2026-04-11T06:54:51.999Z</time></trkpt><trkpt lat="44.04143379935914" lon="12.583880615623116"><ele>3.0</ele><time>2026-04-11T06:54:52.999Z</time></trkpt><trkpt lat="44.04144854852315" lon="12.583613958755215"><ele>3.666666666666667</ele><time>2026-04-11T06:54:53.999Z</time></trkpt><trkpt lat="44.04146320788947" lon="12.58334738648333"><ele>4.333333333333334</ele><time>2026-04-11T06:54:54.999Z</time></trkpt><trkpt lat="44.04147696629044" lon="12.58308105146389"><ele>5.0</ele><time>2026-04-11T06:54:55.999Z</time></trkpt><trkpt lat="44.0414900142397" lon="12.582822130725093"><ele>5.0</ele><time>2026-04-11T06:54:56.999Z</time></trkpt><trkpt lat="44.04150138590714" lon="12.582560938676286"><ele>5.0</ele><time>2026-04-11T06:54:57.999Z</time></trkpt><trkpt lat="44.041509419516515" lon="12.5823008879886"><ele>5.0</ele><time>2026-04-11T06:54:58.999Z</time></trkpt><trkpt lat="44.041520125985144" lon="12.58204045058823"><ele>4.666666666666667</ele><time>2026-04-11T06:54:59.999Z</time></trkpt><trkpt lat="44.04152881809414" lon="12.581778372593698"><ele>4.333333333333333</ele><time>2026-04-11T06:55:00.999Z</time></trkpt><trkpt lat="44.04153874188956" lon="12.581514956335951"><ele>4.0</ele><time>2026-04-11T06:55:01.999Z</time></trkpt><trkpt lat="44.04155185540756" lon="12.58125030664044"><ele>5.333333333333333</ele><time>2026-04-11T06:55:02.999Z</time></trkpt><trkpt lat="44.041566741978805" lon="12.580984548401078"><ele>6.666666666666666</ele><time>2026-04-11T06:55:03.999Z</time></trkpt><trkpt lat="44.04158392743526" lon="12.580717269827856"><ele>8.0</ele><time>2026-04-11T06:55:04.999Z</time></trkpt><trkpt lat="44.04160070791062" lon="12.580451065245457"><ele>8.0</ele><time>2026-04-11T06:55:05.999Z</time></trkpt><trkpt lat="44.0416195150959" lon="12.580185261107143"><ele>8.0</ele><time>2026-04-11T06:55:06.999Z</time></trkpt><trkpt lat="44.041637811780014" lon="12.57991974376518"><ele>8.0</ele><time>2026-04-11T06:55:07.999Z</time></trkpt><trkpt lat="44.04165417851266" lon="12.57965532058213"><ele>7.0</ele><time>2026-04-11T06:55:08.999Z</time></trkpt><trkpt lat="44.04166908873262" lon="12.579393094765356"><ele>6.0</ele><time>2026-04-11T06:55:09.999Z</time></trkpt><trkpt lat="44.04168238456119" lon="12.579147264536712"><ele>5.0</ele><time>2026-04-11T06:55:10.999Z</time></trkpt><trkpt lat="44.04169604419493" lon="12.578910632810732"><ele>4.666666666666667</ele><time>2026-04-11T06:55:11.999Z</time></trkpt><trkpt lat="44.04170901969007" lon="12.578676353596398"><ele>4.333333333333333</ele><time>2026-04-11T06:55:12.999Z</time></trkpt><trkpt lat="44.041718538732894" lon="12.578451351804162"><ele>4.0</ele><time>2026-04-11T06:55:13.999Z</time></trkpt><trkpt lat="44.04172867573855" lon="12.578239508483264"><ele>4.0</ele><time>2026-04-11T06:55:14.999Z</time></trkpt><trkpt lat="44.04174034990676" lon="12.578036922045753"><ele>4.0</ele><time>2026-04-11T06:55:15.999Z</time></trkpt><trkpt lat="44.04174954883845" lon="12.577841968327554"><ele>4.0</ele><time>2026-04-11T06:55:16.999Z</time></trkpt><trkpt lat="44.04176291275812" lon="12.577650138624621"><ele>4.0</ele><time>2026-04-11T06:55:17.999Z</time></trkpt><trkpt lat="44.04177416553002" lon="12.577466785975863"><ele>5.25</ele><time>2026-04-11T06:55:18.999Z</time></trkpt><trkpt lat="44.04178198427934" lon="12.577287643825144"><ele>6.5</ele><time>2026-04-11T06:55:19.999Z</time></trkpt><trkpt lat="44.04178880961687" lon="12.57711802226902"><ele>7.75</ele><time>2026-04-11T06:55:20.999Z</time></trkpt><trkpt lat="44.04179809221458" lon="12.576954199040358"><ele>9.0</ele><time>2026-04-11T06:55:22Z</time></trkpt><trkpt lat="44.04180660206142" lon="12.57679650766341"><ele>9.2</ele><time>2026-04-11T06:55:23Z</time></trkpt><trkpt lat="44.041818915942926" lon="12.576646062686459"><ele>9.4</ele><time>2026-04-11T06:55:24Z</time></trkpt><trkpt lat="44.04184615869646" lon="12.576507021196837"><ele>9.6</ele><time>2026-04-11T06:55:25Z</time></trkpt><trkpt lat="44.04189080062813" lon="12.576379347960618"><ele>9.8</ele><time>2026-04-11T06:55:26Z</time></trkpt><trkpt lat="44.04195613334451" lon="12.576265225111776"><ele>10.0</ele><time>2026-04-11T06:55:27Z</time></trkpt><trkpt lat="44.042018415436324" lon="12.576163614909033"><ele>10.2</ele><time>2026-04-11T06:55:28Z</time></trkpt><trkpt lat="44.04205176413538" lon="12.576047678951367"><ele>10.4</ele><time>2026-04-11T06:55:29Z</time></trkpt><trkpt lat="44.0420548294373" lon="12.575923458835948"><ele>10.600000000000001</ele><time>2026-04-11T06:55:30Z</time></trkpt><trkpt lat="44.04203585899109" lon="12.575801451124244"><ele>10.8</ele><time>2026-04-11T06:55:31Z</time></trkpt><trkpt lat="44.04198686189034" lon="12.575690068391001"><ele>11.0</ele><time>2026-04-11T06:55:32Z</time></trkpt><trkpt lat="44.04193704893807" lon="12.575587463186038"><ele>11.0</ele><time>2026-04-11T06:55:33Z</time></trkpt><trkpt lat="44.04190487754307" lon="12.575479613766905"><ele>11.0</ele><time>2026-04-11T06:55:34Z</time></trkpt><trkpt lat="44.04188926289359" lon="12.57534494592259"><ele>11.0</ele><time>2026-04-11T06:55:35Z</time></trkpt><trkpt lat="44.041888547308844" lon="12.575205118470599"><ele>11.0</ele><time>2026-04-11T06:55:36Z</time></trkpt><trkpt lat="44.04189127505371" lon="12.575056495668578"><ele>11.0</ele><time>2026-04-11T06:55:37Z</time></trkpt><trkpt lat="44.041895342433946" lon="12.574896521155981"><ele>11.25</ele><time>2026-04-11T06:55:38Z</time></trkpt><trkpt lat="44.04190128337207" lon="12.574726822093627"><ele>11.5</ele><time>2026-04-11T06:55:39Z</time></trkpt><trkpt lat="44.04190787353443" lon="12.574557258431668"><ele>11.75</ele><time>2026-04-11T06:55:40Z</time></trkpt><trkpt lat="44.04191000678906" lon="12.574379503299161"><ele>12.0</ele><time>2026-04-11T06:55:41Z</time></trkpt><trkpt lat="44.04190696516781" lon="12.574190972226017"><ele>11.5</ele><time>2026-04-11T06:55:42Z</time></trkpt><trkpt lat="44.041958254782436" lon="12.574016065665099"><ele>11.0</ele><time>2026-04-11T06:55:43Z</time></trkpt><trkpt lat="44.04189394797872" lon="12.573813976697082"><ele>10.5</ele><time>2026-04-11T06:55:44Z</time></trkpt><trkpt lat="44.04186961543857" lon="12.573615298516113"><ele>10.0</ele><time>2026-04-11T06:55:45Z</time></trkpt><trkpt lat="44.04183288872468" lon="12.573417232129941"><ele>9.666666666666668</ele><time>2026-04-11T06:55:46Z</time></trkpt><trkpt lat="44.04178015394503" lon="12.573222244969298"><ele>9.333333333333334</ele><time>2026-04-11T06:55:47Z</time></trkpt><trkpt lat="44.04171190612135" lon="12.573031869326257"><ele>9.0</ele><time>2026-04-11T06:55:48Z</time></trkpt><trkpt lat="44.041636907162264" lon="12.57284251238901"><ele>9.75</ele><time>2026-04-11T06:55:49Z</time></trkpt><trkpt lat="44.041560434884666" lon="12.572672245229688"><ele>10.5</ele><time>2026-04-11T06:55:50Z</time></trkpt><trkpt lat="44.0414908462113" lon="12.572517109725426"><ele>11.25</ele><time>2026-04-11T06:55:51Z</time></trkpt><trkpt lat="44.041432162521104" lon="12.572364129209241"><ele>12.0</ele><time>2026-04-11T06:55:52Z</time></trkpt><trkpt lat="44.04139383611062" lon="12.572216530367124"><ele>12.0</ele><time>2026-04-11T06:55:53Z</time></trkpt><trkpt lat="44.04137789480297" lon="12.572078628417309"><ele>12.0</ele><time>2026-04-11T06:55:54Z</time></trkpt><trkpt lat="44.041383325295094" lon="12.571961845143727"><ele>12.0</ele><time>2026-04-11T06:55:55Z</time></trkpt><trkpt lat="44.04141221441331" lon="12.571870094895269"><ele>12.0</ele><time>2026-04-11T06:55:56Z</time></trkpt><trkpt lat="44.04146159258496" lon="12.571798615253922"><ele>12.0</ele><time>2026-04-11T06:55:57Z</time></trkpt><trkpt lat="44.04154142322177" lon="12.571761482108693"><ele>12.0</ele><time>2026-04-11T06:55:58Z</time></trkpt><trkpt lat="44.041629000946216" lon="12.571757110351843"><ele>11.6</ele><time>2026-04-11T06:55:59Z</time></trkpt><trkpt lat="44.0417219876898" lon="12.571769010004282"><ele>11.2</ele><time>2026-04-11T06:56:00Z</time></trkpt><trkpt lat="44.04181844353818" lon="12.571761580884383"><ele>10.8</ele><time>2026-04-11T06:56:01Z</time></trkpt><trkpt lat="44.04192195625075" lon="12.571721113218402"><ele>10.4</ele><time>2026-04-11T06:56:02Z</time></trkpt><trkpt lat="44.04201953210208" lon="12.571650849172935"><ele>10.0</ele><time>2026-04-11T06:56:03Z</time></trkpt><trkpt lat="44.042104113652115" lon="12.571559352561488"><ele>10.0</ele><time>2026-04-11T06:56:03.999Z</time></trkpt><trkpt lat="44.04217337875514" lon="12.571447525327239"><ele>10.0</ele><time>2026-04-11T06:56:04.999Z</time></trkpt><trkpt lat="44.042217787620324" lon="12.571320619559712"><ele>10.0</ele><time>2026-04-11T06:56:05.999Z</time></trkpt><trkpt lat="44.04223973892607" lon="12.571178476594795"><ele>10.0</ele><time>2026-04-11T06:56:06.999Z</time></trkpt><trkpt lat="44.04223997209041" lon="12.571014030318636"><ele>10.0</ele><time>2026-04-11T06:56:07.999Z</time></trkpt><trkpt lat="44.04221770638226" lon="12.57084101040465"><ele>10.0</ele><time>2026-04-11T06:56:08.999Z</time></trkpt><trkpt lat="44.04219017479547" lon="12.570661566506622"><ele>10.0</ele><time>2026-04-11T06:56:09.999Z</time></trkpt><trkpt lat="44.04216647868675" lon="12.57048108223716"><ele>10.0</ele><time>2026-04-11T06:56:10.999Z</time></trkpt><trkpt lat="44.0421643040812" lon="12.57028522260346"><ele>10.0</ele><time>2026-04-11T06:56:11.999Z</time></trkpt><trkpt lat="44.042176959544925" lon="12.570083857443798"><ele>9.666666666666668</ele><time>2026-04-11T06:56:12.999Z</time></trkpt><trkpt lat="44.04218746259574" lon="12.56987655185286"><ele>9.333333333333334</ele><time>2026-04-11T06:56:13.999Z</time></trkpt><trkpt lat="44.04219625831327" lon="12.569666756364823"><ele>9.0</ele><time>2026-04-11T06:56:14.999Z</time></trkpt><trkpt lat="44.0422031425099" lon="12.569449490846837"><ele>9.0</ele><time>2026-04-11T06:56:15.999Z</time></trkpt><trkpt lat="44.04221451319406" lon="12.569229520800517"><ele>9.0</ele><time>2026-04-11T06:56:16.999Z</time></trkpt><trkpt lat="44.04222801343534" lon="12.569004738394936"><ele>9.0</ele><time>2026-04-11T06:56:17.999Z</time></trkpt><trkpt lat="44.0422411921043" lon="12.56877727411962"><ele>10.0</ele><time>2026-04-11T06:56:18.999Z</time></trkpt><trkpt lat="44.0422534102902" lon="12.568549091178117"><ele>11.0</ele><time>2026-04-11T06:56:19.999Z</time></trkpt><trkpt lat="44.04226126028916" lon="12.568320850393283"><ele>12.0</ele><time>2026-04-11T06:56:20.999Z</time></trkpt><trkpt lat="44.04227027292716" lon="12.568089711641933"><ele>12.0</ele><time>2026-04-11T06:56:21.999Z</time></trkpt><trkpt lat="44.042284274112795" lon="12.567855821868557"><ele>12.0</ele><time>2026-04-11T06:56:22.999Z</time></trkpt><trkpt lat="44.04230257884585" lon="12.567618946317072"><ele>12.0</ele><time>2026-04-11T06:56:23.999Z</time></trkpt><trkpt lat="44.04232702928509" lon="12.567378623361437"><ele>12.0</ele><time>2026-04-11T06:56:24.999Z</time></trkpt><trkpt lat="44.04235480545705" lon="12.567136267287292"><ele>12.0</ele><time>2026-04-11T06:56:25.999Z</time></trkpt><trkpt lat="44.04238654339981" lon="12.566890848806986"><ele>12.0</ele><time>2026-04-11T06:56:26.999Z</time></trkpt><trkpt lat="44.04242454374827" lon="12.566644259332406"><ele>11.0</ele><time>2026-04-11T06:56:27.999Z</time></trkpt><trkpt lat="44.0424678243307" lon="12.56639655113998"><ele>10.0</ele><time>2026-04-11T06:56:28.999Z</time></trkpt><trkpt lat="44.04251350690739" lon="12.566147142461427"><ele>9.0</ele><time>2026-04-11T06:56:29.999Z</time></trkpt><trkpt lat="44.04256122913736" lon="12.565897680109172"><ele>9.0</ele><time>2026-04-11T06:56:30.999Z</time></trkpt><trkpt lat="44.04261167802721" lon="12.565647216912252"><ele>9.0</ele><time>2026-04-11T06:56:31.999Z</time></trkpt><trkpt lat="44.04266560240665" lon="12.565397550949355"><ele>9.0</ele><time>2026-04-11T06:56:32.999Z</time></trkpt><trkpt lat="44.042723207168194" lon="12.565147648550841"><ele>9.0</ele><time>2026-04-11T06:56:33.999Z</time></trkpt><trkpt lat="44.04278238176586" lon="12.564898236621714"><ele>9.0</ele><time>2026-04-11T06:56:34.999Z</time></trkpt><trkpt lat="44.04284189282829" lon="12.564647734191011"><ele>9.0</ele><time>2026-04-11T06:56:35.999Z</time></trkpt><trkpt lat="44.042903274323955" lon="12.564397488916372"><ele>8.666666666666666</ele><time>2026-04-11T06:56:36.999Z</time></trkpt><trkpt lat="44.04296734421946" lon="12.564149634270695"><ele>8.333333333333332</ele><time>2026-04-11T06:56:37.999Z</time></trkpt><trkpt lat="44.04303047519611" lon="12.563901847269817"><ele>8.0</ele><time>2026-04-11T06:56:38.999Z</time></trkpt><trkpt lat="44.0430970037103" lon="12.563655456682975"><ele>8.0</ele><time>2026-04-11T06:56:39.999Z</time></trkpt><trkpt lat="44.04316129954193" lon="12.563411049581624"><ele>8.0</ele><time>2026-04-11T06:56:40.999Z</time></trkpt><trkpt lat="44.043222331262804" lon="12.56318077229837"><ele>8.0</ele><time>2026-04-11T06:56:41.999Z</time></trkpt><trkpt lat="44.04328449754122" lon="12.562954072044008"><ele>8.666666666666666</ele><time>2026-04-11T06:56:42.999Z</time></trkpt><trkpt lat="44.04334757819389" lon="12.562724939323894"><ele>9.333333333333334</ele><time>2026-04-11T06:56:43.999Z</time></trkpt><trkpt lat="44.04340901331088" lon="12.562492721833507"><ele>10.0</ele><time>2026-04-11T06:56:44.999Z</time></trkpt><trkpt lat="44.04346905355014" lon="12.562257165609907"><ele>10.666666666666668</ele><time>2026-04-11T06:56:45.999Z</time></trkpt><trkpt lat="44.04352717165555" lon="12.562022436549737"><ele>11.333333333333334</ele><time>2026-04-11T06:56:46.999Z</time></trkpt><trkpt lat="44.04358318047396" lon="12.561801604023657"><ele>12.0</ele><time>2026-04-11T06:56:47.999Z</time></trkpt><trkpt lat="44.04363709559574" lon="12.561587954299275"><ele>12.0</ele><time>2026-04-11T06:56:48.999Z</time></trkpt><trkpt lat="44.043688294474755" lon="12.561384832504535"><ele>12.0</ele><time>2026-04-11T06:56:49.999Z</time></trkpt><trkpt lat="44.043735112475815" lon="12.561198887339726"><ele>12.0</ele><time>2026-04-11T06:56:50.999Z</time></trkpt><trkpt lat="44.043779376973525" lon="12.561028069002292"><ele>12.0</ele><time>2026-04-11T06:56:51.999Z</time></trkpt><trkpt lat="44.0438202794171" lon="12.56087569895564"><ele>12.0</ele><time>2026-04-11T06:56:52.999Z</time></trkpt><trkpt lat="44.043856515084386" lon="12.560733729487508"><ele>12.0</ele><time>2026-04-11T06:56:53.999Z</time></trkpt><trkpt lat="44.04390537215908" lon="12.560619381490994"><ele>12.0</ele><time>2026-04-11T06:56:54.999Z</time></trkpt><trkpt lat="44.04393691602892" lon="12.560505603393707"><ele>12.0</ele><time>2026-04-11T06:56:55.999Z</time></trkpt><trkpt lat="44.04396117976894" lon="12.560389087959152"><ele>12.0</ele><time>2026-04-11T06:56:56.999Z</time></trkpt><trkpt lat="44.0439729500648" lon="12.560287159793035"><ele>12.0</ele><time>2026-04-11T06:56:57.999Z</time></trkpt><trkpt lat="44.04401619703629" lon="12.560158543279574"><ele>12.0</ele><time>2026-04-11T06:56:59.999Z</time></trkpt><trkpt lat="44.044086218929976" lon="12.56005394776615"><ele>12.0</ele><time>2026-04-11T06:57:01.999Z</time></trkpt><trkpt lat="44.04413902897069" lon="12.560002987160113"><ele>12.0</ele><time>2026-04-11T06:57:02.999Z</time></trkpt><trkpt lat="44.04419694416797" lon="12.559938453204765"><ele>12.0</ele><time>2026-04-11T06:57:03.999Z</time></trkpt><trkpt lat="44.04424574540322" lon="12.559858029600584"><ele>12.0</ele><time>2026-04-11T06:57:04.999Z</time></trkpt><trkpt lat="44.04426371190202" lon="12.55973633165348"><ele>12.2</ele><time>2026-04-11T06:57:05.999Z</time></trkpt><trkpt lat="44.044259141138866" lon="12.559604512885272"><ele>12.399999999999999</ele><time>2026-04-11T06:57:06.999Z</time></trkpt><trkpt lat="44.04425314092842" lon="12.559462043184599"><ele>12.600000000000001</ele><time>2026-04-11T06:57:07.999Z</time></trkpt><trkpt lat="44.04426587123587" lon="12.559304981769616"><ele>12.8</ele><time>2026-04-11T06:57:08.999Z</time></trkpt><trkpt lat="44.04429362814905" lon="12.559158006080741"><ele>13.0</ele><time>2026-04-11T06:57:09.999Z</time></trkpt><trkpt lat="44.04433073915934" lon="12.55900290625533"><ele>12.5</ele><time>2026-04-11T06:57:10.999Z</time></trkpt><trkpt lat="44.04437379024128" lon="12.558842828959671"><ele>12.0</ele><time>2026-04-11T06:57:11.999Z</time></trkpt><trkpt lat="44.04441843007194" lon="12.558674705463325"><ele>11.5</ele><time>2026-04-11T06:57:12.999Z</time></trkpt><trkpt lat="44.04446400425302" lon="12.558499902319156"><ele>11.0</ele><time>2026-04-11T06:57:13.999Z</time></trkpt><trkpt lat="44.044511596652804" lon="12.55831690286424"><ele>11.0</ele><time>2026-04-11T06:57:14.999Z</time></trkpt><trkpt lat="44.04456002059547" lon="12.558129456380078"><ele>11.0</ele><time>2026-04-11T06:57:15.999Z</time></trkpt><trkpt lat="44.04461029855284" lon="12.557937008536532"><ele>11.0</ele><time>2026-04-11T06:57:16.999Z</time></trkpt><trkpt lat="44.044662545660444" lon="12.557739574560031"><ele>11.0</ele><time>2026-04-11T06:57:17.999Z</time></trkpt><trkpt lat="44.04471727725654" lon="12.557538220531479"><ele>11.0</ele><time>2026-04-11T06:57:18.999Z</time></trkpt><trkpt lat="44.044772661004934" lon="12.557338396075764"><ele>11.0</ele><time>2026-04-11T06:57:19.999Z</time></trkpt><trkpt lat="44.044824902469436" lon="12.557145402503501"><ele>11.0</ele><time>2026-04-11T06:57:20.999Z</time></trkpt><trkpt lat="44.044877718973424" lon="12.556949264033857"><ele>10.333333333333332</ele><time>2026-04-11T06:57:21.999Z</time></trkpt><trkpt lat="44.044930238079985" lon="12.556749536523974"><ele>9.666666666666666</ele><time>2026-04-11T06:57:22.999Z</time></trkpt><trkpt lat="44.044982696736156" lon="12.556546014941603"><ele>9.0</ele><time>2026-04-11T06:57:23.999Z</time></trkpt><trkpt lat="44.04503513531218" lon="12.556342153852738"><ele>9.25</ele><time>2026-04-11T06:57:24.999Z</time></trkpt><trkpt lat="44.045086391378874" lon="12.55615094003425"><ele>9.5</ele><time>2026-04-11T06:57:25.999Z</time></trkpt><trkpt lat="44.04513462903372" lon="12.555967723328077"><ele>9.75</ele><time>2026-04-11T06:57:26.999Z</time></trkpt><trkpt lat="44.04518068059094" lon="12.555792396502438"><ele>10.0</ele><time>2026-04-11T06:57:28Z</time></trkpt><trkpt lat="44.04522661019561" lon="12.555622256693239"><ele>10.0</ele><time>2026-04-11T06:57:29Z</time></trkpt><trkpt lat="44.0452707464644" lon="12.555456319042797"><ele>10.0</ele><time>2026-04-11T06:57:30Z</time></trkpt><trkpt lat="44.045313489043416" lon="12.555294112344185"><ele>10.0</ele><time>2026-04-11T06:57:31Z</time></trkpt><trkpt lat="44.04535393345068" lon="12.555135482587966"><ele>10.0</ele><time>2026-04-11T06:57:32Z</time></trkpt><trkpt lat="44.04539190471596" lon="12.554983427595753"><ele>10.2</ele><time>2026-04-11T06:57:33Z</time></trkpt><trkpt lat="44.04544281184557" lon="12.554846719274993"><ele>10.4</ele><time>2026-04-11T06:57:34Z</time></trkpt><trkpt lat="44.04548344470356" lon="12.554709957398957"><ele>10.600000000000001</ele><time>2026-04-11T06:57:35Z</time></trkpt><trkpt lat="44.04552344021915" lon="12.554580930602464"><ele>10.8</ele><time>2026-04-11T06:57:36Z</time></trkpt><trkpt lat="44.0455632455625" lon="12.554453715375034"><ele>11.0</ele><time>2026-04-11T06:57:37Z</time></trkpt><trkpt lat="44.04560478186186" lon="12.554329704725093"><ele>11.333333333333332</ele><time>2026-04-11T06:57:38Z</time></trkpt><trkpt lat="44.04564505091179" lon="12.55420893507523"><ele>11.666666666666666</ele><time>2026-04-11T06:57:39Z</time></trkpt><trkpt lat="44.04568591780345" lon="12.55409065842553"><ele>12.0</ele><time>2026-04-11T06:57:40Z</time></trkpt><trkpt lat="44.04572707652321" lon="12.553976858242109"><ele>12.333333333333332</ele><time>2026-04-11T06:57:41Z</time></trkpt><trkpt lat="44.04576353198462" lon="12.553882792427467"><ele>12.666666666666666</ele><time>2026-04-11T06:57:42Z</time></trkpt><trkpt lat="44.045780808827566" lon="12.553792647146883"><ele>13.0</ele><time>2026-04-11T06:57:43Z</time></trkpt><trkpt lat="44.045813721157714" lon="12.553710167023747"><ele>12.333333333333332</ele><time>2026-04-11T06:57:44Z</time></trkpt><trkpt lat="44.04586145238765" lon="12.55364187920852"><ele>11.666666666666666</ele><time>2026-04-11T06:57:45Z</time></trkpt><trkpt lat="44.04588251703205" lon="12.55355148775856"><ele>11.0</ele><time>2026-04-11T06:57:46Z</time></trkpt><trkpt lat="44.045919007711376" lon="12.553472216424238"><ele>10.333333333333332</ele><time>2026-04-11T06:57:47Z</time></trkpt><trkpt lat="44.04595466614737" lon="12.553397512952904"><ele>9.666666666666666</ele><time>2026-04-11T06:57:48Z</time></trkpt><trkpt lat="44.0460266780503" lon="12.553275450114866"><ele>9.0</ele><time>2026-04-11T06:57:50Z</time></trkpt><trkpt lat="44.04607527443879" lon="12.553201139911247"><ele>9.0</ele><time>2026-04-11T06:57:52Z</time></trkpt><trkpt lat="44.0461614838598" lon="12.553147382622633"><ele>9.0</ele><time>2026-04-11T06:57:54Z</time></trkpt><trkpt lat="44.04628933079616" lon="12.553094864708466"><ele>9.0</ele><time>2026-04-11T06:57:56Z</time></trkpt><trkpt lat="44.046346064638634" lon="12.553037305441501"><ele>9.0</ele><time>2026-04-11T06:57:57Z</time></trkpt><trkpt lat="44.04638260535446" lon="12.552945059089367"><ele>9.0</ele><time>2026-04-11T06:57:58Z</time></trkpt><trkpt lat="44.04639480671719" lon="12.552842004059451"><ele>9.0</ele><time>2026-04-11T06:57:59Z</time></trkpt><trkpt lat="44.04637671463912" lon="12.552736513835839"><ele>9.5</ele><time>2026-04-11T06:58:00Z</time></trkpt><trkpt lat="44.04632882005075" lon="12.552648162567138"><ele>10.0</ele><time>2026-04-11T06:58:01Z</time></trkpt><trkpt lat="44.0462567677952" lon="12.552591670749855"><ele>10.5</ele><time>2026-04-11T06:58:02Z</time></trkpt><trkpt lat="44.04617595425451" lon="12.552563948233258"><ele>11.0</ele><time>2026-04-11T06:58:03Z</time></trkpt><trkpt lat="44.04608487994878" lon="12.552554980411548"><ele>11.5</ele><time>2026-04-11T06:58:04Z</time></trkpt><trkpt lat="44.04599466929206" lon="12.552521582497898"><ele>12.0</ele><time>2026-04-11T06:58:05Z</time></trkpt><trkpt lat="44.04591621903894" lon="12.552448710835066"><ele>12.0</ele><time>2026-04-11T06:58:06Z</time></trkpt><trkpt lat="44.04584676436075" lon="12.55235732774224"><ele>12.0</ele><time>2026-04-11T06:58:07Z</time></trkpt><trkpt lat="44.04578174873909" lon="12.552272529314358"><ele>12.0</ele><time>2026-04-11T06:58:08Z</time></trkpt><trkpt lat="44.04571845889306" lon="12.552196702744363"><ele>12.0</ele><time>2026-04-11T06:58:09Z</time></trkpt><trkpt lat="44.04565940945339" lon="12.552126741058537"><ele>12.0</ele><time>2026-04-11T06:58:09.999Z</time></trkpt><trkpt lat="44.04560047311934" lon="12.552060386329666"><ele>12.0</ele><time>2026-04-11T06:58:10.999Z</time></trkpt><trkpt lat="44.04553647823075" lon="12.551990859428344"><ele>12.833333333333334</ele><time>2026-04-11T06:58:11.999Z</time></trkpt><trkpt lat="44.045468766635146" lon="12.55192252470675"><ele>13.666666666666668</ele><time>2026-04-11T06:58:12.999Z</time></trkpt><trkpt lat="44.04540194787512" lon="12.551847363960244"><ele>14.5</ele><time>2026-04-11T06:58:13.999Z</time></trkpt><trkpt lat="44.04533352256494" lon="12.551770199754706"><ele>15.333333333333334</ele><time>2026-04-11T06:58:14.999Z</time></trkpt><trkpt lat="44.04526392048634" lon="12.55169724696878"><ele>16.166666666666668</ele><time>2026-04-11T06:58:15.999Z</time></trkpt><trkpt lat="44.04519681661644" lon="12.551629767431207"><ele>17.0</ele><time>2026-04-11T06:58:16.999Z</time></trkpt><trkpt lat="44.04513599833307" lon="12.55156667146701"><ele>17.0</ele><time>2026-04-11T06:58:17.999Z</time></trkpt><trkpt lat="44.04507602434227" lon="12.551502277317113"><ele>17.0</ele><time>2026-04-11T06:58:18.999Z</time></trkpt><trkpt lat="44.04502082871869" lon="12.551432157114792"><ele>17.0</ele><time>2026-04-11T06:58:19.999Z</time></trkpt><trkpt lat="44.044976156834" lon="12.551351054048348"><ele>17.0</ele><time>2026-04-11T06:58:20.999Z</time></trkpt><trkpt lat="44.04494127281925" lon="12.551189185791806"><ele>17.0</ele><time>2026-04-11T06:58:22.999Z</time></trkpt><trkpt lat="44.044947400002414" lon="12.551097823489725"><ele>17.0</ele><time>2026-04-11T06:58:23.999Z</time></trkpt><trkpt lat="44.04496948089803" lon="12.550998311199267"><ele>18.2</ele><time>2026-04-11T06:58:24.999Z</time></trkpt><trkpt lat="44.04499953731181" lon="12.550904932530011"><ele>19.4</ele><time>2026-04-11T06:58:25.999Z</time></trkpt><trkpt lat="44.045004340877725" lon="12.55073815703286"><ele>20.599999999999998</ele><time>2026-04-11T06:58:27.999Z</time></trkpt><trkpt lat="44.04492280390003" lon="12.550605333228718"><ele>21.799999999999997</ele><time>2026-04-11T06:58:29.999Z</time></trkpt><trkpt lat="44.044859839319386" lon="12.550566883620373"><ele>23.0</ele><time>2026-04-11T06:58:30.999Z</time></trkpt><trkpt lat="44.04484297004454" lon="12.550431730995216"><ele>22.571428571428573</ele><time>2026-04-11T06:58:31.999Z</time></trkpt><trkpt lat="44.0448187618538" lon="12.550327691390361"><ele>22.142857142857142</ele><time>2026-04-11T06:58:32.999Z</time></trkpt><trkpt lat="44.044791971266804" lon="12.550230580311956"><ele>21.714285714285715</ele><time>2026-04-11T06:58:33.999Z</time></trkpt><trkpt lat="44.04475414856635" lon="12.550149950621096"><ele>21.285714285714285</ele><time>2026-04-11T06:58:34.999Z</time></trkpt><trkpt lat="44.04470122325726" lon="12.55008685358441"><ele>20.857142857142858</ele><time>2026-04-11T06:58:35.999Z</time></trkpt><trkpt lat="44.044640239775745" lon="12.550023513311874"><ele>20.428571428571427</ele><time>2026-04-11T06:58:36.999Z</time></trkpt><trkpt lat="44.04457999204847" lon="12.549961411583334"><ele>20.0</ele><time>2026-04-11T06:58:37.999Z</time></trkpt><trkpt lat="44.0445102033776" lon="12.549899354963237"><ele>20.0</ele><time>2026-04-11T06:58:38.999Z</time></trkpt><trkpt lat="44.04443773511252" lon="12.549830860220942"><ele>20.0</ele><time>2026-04-11T06:58:39.999Z</time></trkpt><trkpt lat="44.04436398375164" lon="12.549746232843992"><ele>20.0</ele><time>2026-04-11T06:58:40.999Z</time></trkpt><trkpt lat="44.04429141407268" lon="12.549648509476597"><ele>20.0</ele><time>2026-04-11T06:58:41.999Z</time></trkpt><trkpt lat="44.044224581534095" lon="12.549531464204694"><ele>20.0</ele><time>2026-04-11T06:58:42.999Z</time></trkpt><trkpt lat="44.04416628152847" lon="12.549401075751646"><ele>19.2</ele><time>2026-04-11T06:58:43.999Z</time></trkpt><trkpt lat="44.04411082533002" lon="12.54926929456686"><ele>18.4</ele><time>2026-04-11T06:58:44.999Z</time></trkpt><trkpt lat="44.04406307586074" lon="12.549140383166371"><ele>17.6</ele><time>2026-04-11T06:58:45.999Z</time></trkpt><trkpt lat="44.044015325645915" lon="12.549014586426853"><ele>16.8</ele><time>2026-04-11T06:58:46.999Z</time></trkpt><trkpt lat="44.04397061335791" lon="12.548888394534242"><ele>16.0</ele><time>2026-04-11T06:58:47.999Z</time></trkpt><trkpt lat="44.04392967269682" lon="12.548758895683576"><ele>16.400000000000002</ele><time>2026-04-11T06:58:48.999Z</time></trkpt><trkpt lat="44.04389577496144" lon="12.548624015903574"><ele>16.8</ele><time>2026-04-11T06:58:49.999Z</time></trkpt><trkpt lat="44.043872015738444" lon="12.548479642395371"><ele>17.200000000000003</ele><time>2026-04-11T06:58:50.999Z</time></trkpt><trkpt lat="44.043855051252166" lon="12.548331872341054"><ele>17.6</ele><time>2026-04-11T06:58:51.999Z</time></trkpt><trkpt lat="44.043843119375595" lon="12.548182260179521"><ele>18.0</ele><time>2026-04-11T06:58:52.999Z</time></trkpt><trkpt lat="44.0438317318108" lon="12.548031893619992"><ele>18.0</ele><time>2026-04-11T06:58:53.999Z</time></trkpt><trkpt lat="44.04382018601099" lon="12.54787918423971"><ele>18.0</ele><time>2026-04-11T06:58:54.999Z</time></trkpt><trkpt lat="44.04380355570281" lon="12.54772765274873"><ele>18.0</ele><time>2026-04-11T06:58:55.999Z</time></trkpt><trkpt lat="44.043787022888466" lon="12.547572459949903"><ele>18.0</ele><time>2026-04-11T06:58:56.999Z</time></trkpt><trkpt lat="44.04376881270889" lon="12.547418088809886"><ele>18.0</ele><time>2026-04-11T06:58:57.999Z</time></trkpt><trkpt lat="44.04374977450208" lon="12.547265984401548"><ele>18.2</ele><time>2026-04-11T06:58:58.999Z</time></trkpt><trkpt lat="44.04373204756493" lon="12.547113168227014"><ele>18.4</ele><time>2026-04-11T06:58:59.999Z</time></trkpt><trkpt lat="44.04371119505124" lon="12.546964570426672"><ele>18.599999999999998</ele><time>2026-04-11T06:59:00.999Z</time></trkpt><trkpt lat="44.043687925273474" lon="12.546825207258648"><ele>18.8</ele><time>2026-04-11T06:59:01.999Z</time></trkpt><trkpt lat="44.04365998175429" lon="12.546689624130222"><ele>19.0</ele><time>2026-04-11T06:59:02.999Z</time></trkpt><trkpt lat="44.043627900937956" lon="12.54655747003115"><ele>19.4</ele><time>2026-04-11T06:59:03.999Z</time></trkpt><trkpt lat="44.043587921462475" lon="12.546425918792481"><ele>19.799999999999997</ele><time>2026-04-11T06:59:04.999Z</time></trkpt><trkpt lat="44.04353439814382" lon="12.546302730452535"><ele>20.200000000000003</ele><time>2026-04-11T06:59:05.999Z</time></trkpt><trkpt lat="44.04346579779965" lon="12.546189791305439"><ele>20.6</ele><time>2026-04-11T06:59:06.999Z</time></trkpt><trkpt lat="44.0433916047578" lon="12.54607971710475"><ele>21.0</ele><time>2026-04-11T06:59:07.999Z</time></trkpt><trkpt lat="44.043323666725016" lon="12.545963778661548"><ele>20.2</ele><time>2026-04-11T06:59:08.999Z</time></trkpt><trkpt lat="44.043265926345114" lon="12.545837126912765"><ele>19.400000000000002</ele><time>2026-04-11T06:59:09.999Z</time></trkpt><trkpt lat="44.043223469826046" lon="12.545701514243769"><ele>18.6</ele><time>2026-04-11T06:59:10.999Z</time></trkpt><trkpt lat="44.0432006866708" lon="12.54555652048098"><ele>17.8</ele><time>2026-04-11T06:59:11.999Z</time></trkpt><trkpt lat="44.04320528658149" lon="12.545409772321932"><ele>17.0</ele><time>2026-04-11T06:59:12.999Z</time></trkpt><trkpt lat="44.043223702116215" lon="12.545272054795802"><ele>16.4</ele><time>2026-04-11T06:59:13.999Z</time></trkpt><trkpt lat="44.04326467819339" lon="12.54513689620329"><ele>15.799999999999999</ele><time>2026-04-11T06:59:14.999Z</time></trkpt><trkpt lat="44.04331374000195" lon="12.545008296668552"><ele>15.2</ele><time>2026-04-11T06:59:15.999Z</time></trkpt><trkpt lat="44.04335892886085" lon="12.544885917272905"><ele>14.6</ele><time>2026-04-11T06:59:16.999Z</time></trkpt><trkpt lat="44.043402853903395" lon="12.544764120814865"><ele>14.0</ele><time>2026-04-11T06:59:17.999Z</time></trkpt><trkpt lat="44.04344607116684" lon="12.544647679479576"><ele>13.399999999999999</ele><time>2026-04-11T06:59:18.999Z</time></trkpt><trkpt lat="44.04348656729189" lon="12.544534590215347"><ele>12.799999999999999</ele><time>2026-04-11T06:59:19.999Z</time></trkpt><trkpt lat="44.04352725392251" lon="12.544423394958823"><ele>12.2</ele><time>2026-04-11T06:59:20.999Z</time></trkpt><trkpt lat="44.04356815006105" lon="12.544311193040189"><ele>11.600000000000001</ele><time>2026-04-11T06:59:21.999Z</time></trkpt><trkpt lat="44.04360654929749" lon="12.544193552391686"><ele>11.0</ele><time>2026-04-11T06:59:22.999Z</time></trkpt><trkpt lat="44.04364826635435" lon="12.544076519360837"><ele>11.0</ele><time>2026-04-11T06:59:23.999Z</time></trkpt><trkpt lat="44.04369096791747" lon="12.543960643363969"><ele>11.0</ele><time>2026-04-11T06:59:24.999Z</time></trkpt><trkpt lat="44.043733827031986" lon="12.543840967702785"><ele>11.0</ele><time>2026-04-11T06:59:25.999Z</time></trkpt><trkpt lat="44.043779154527215" lon="12.543721451589482"><ele>11.0</ele><time>2026-04-11T06:59:26.999Z</time></trkpt><trkpt lat="44.043831036358846" lon="12.543602732382862"><ele>11.0</ele><time>2026-04-11T06:59:27.999Z</time></trkpt><trkpt lat="44.04388539602072" lon="12.543482376391571"><ele>10.600000000000001</ele><time>2026-04-11T06:59:28.999Z</time></trkpt><trkpt lat="44.043941056619175" lon="12.543362915375118"><ele>10.200000000000001</ele><time>2026-04-11T06:59:29.999Z</time></trkpt><trkpt lat="44.04400107447473" lon="12.543243291065133"><ele>9.8</ele><time>2026-04-11T06:59:30.999Z</time></trkpt><trkpt lat="44.04406418675551" lon="12.54312536011242"><ele>9.4</ele><time>2026-04-11T06:59:31.999Z</time></trkpt><trkpt lat="44.044125842007084" lon="12.543014458568845"><ele>9.0</ele><time>2026-04-11T06:59:32.998Z</time></trkpt><trkpt lat="44.04418154681891" lon="12.54291140825085"><ele>9.333333333333334</ele><time>2026-04-11T06:59:34Z</time></trkpt><trkpt lat="44.04423433914091" lon="12.542813218433183"><ele>9.666666666666666</ele><time>2026-04-11T06:59:35Z</time></trkpt><trkpt lat="44.0442841547012" lon="12.542711918610912"><ele>10.0</ele><time>2026-04-11T06:59:36Z</time></trkpt><trkpt lat="44.04432534647498" lon="12.542605311582575"><ele>10.333333333333332</ele><time>2026-04-11T06:59:37Z</time></trkpt><trkpt lat="44.04435263286433" lon="12.542492627803886"><ele>10.666666666666666</ele><time>2026-04-11T06:59:38Z</time></trkpt><trkpt lat="44.04437512258334" lon="12.542378610602556"><ele>11.0</ele><time>2026-04-11T06:59:39Z</time></trkpt><trkpt lat="44.044389106033044" lon="12.54226146251064"><ele>11.0</ele><time>2026-04-11T06:59:40Z</time></trkpt><trkpt lat="44.044392241150796" lon="12.542139334293525"><ele>11.0</ele><time>2026-04-11T06:59:41Z</time></trkpt><trkpt lat="44.04439005494953" lon="12.542015805636415"><ele>11.0</ele><time>2026-04-11T06:59:42Z</time></trkpt><trkpt lat="44.04437805639415" lon="12.541896032374465"><ele>11.0</ele><time>2026-04-11T06:59:43Z</time></trkpt><trkpt lat="44.044366797873785" lon="12.541786377233786"><ele>11.0</ele><time>2026-04-11T06:59:44Z</time></trkpt><trkpt lat="44.04435450225276" lon="12.541669596063636"><ele>11.0</ele><time>2026-04-11T06:59:45Z</time></trkpt><trkpt lat="44.04434488438569" lon="12.541559228047138"><ele>11.0</ele><time>2026-04-11T06:59:46Z</time></trkpt><trkpt lat="44.0443261629523" lon="12.541440831910192"><ele>11.0</ele><time>2026-04-11T06:59:47Z</time></trkpt><trkpt lat="44.04430704432049" lon="12.541325254922093"><ele>11.0</ele><time>2026-04-11T06:59:48Z</time></trkpt><trkpt lat="44.04429128838022" lon="12.541202607018437"><ele>11.0</ele><time>2026-04-11T06:59:49Z</time></trkpt><trkpt lat="44.04427765935778" lon="12.541073679347809"><ele>11.0</ele><time>2026-04-11T06:59:50Z</time></trkpt><trkpt lat="44.04426309997583" lon="12.540938220746844"><ele>11.0</ele><time>2026-04-11T06:59:51Z</time></trkpt><trkpt lat="44.04425082597224" lon="12.540811758432474"><ele>11.0</ele><time>2026-04-11T06:59:52Z</time></trkpt><trkpt lat="44.044242895237325" lon="12.540688421943644"><ele>11.0</ele><time>2026-04-11T06:59:53Z</time></trkpt><trkpt lat="44.04423770506133" lon="12.540568501131027"><ele>11.0</ele><time>2026-04-11T06:59:54Z</time></trkpt><trkpt lat="44.04422829119819" lon="12.540443448108935"><ele>11.0</ele><time>2026-04-11T06:59:55Z</time></trkpt><trkpt lat="44.04421956215004" lon="12.54031451207709"><ele>11.0</ele><time>2026-04-11T06:59:56Z</time></trkpt><trkpt lat="44.04421170042723" lon="12.54018402408618"><ele>11.0</ele><time>2026-04-11T06:59:57Z</time></trkpt><trkpt lat="44.04420804845232" lon="12.540060564347941"><ele>11.0</ele><time>2026-04-11T06:59:58Z</time></trkpt><trkpt lat="44.04420739980346" lon="12.539940284485143"><ele>11.0</ele><time>2026-04-11T06:59:59Z</time></trkpt><trkpt lat="44.04420926125095" lon="12.539813517309097"><ele>11.0</ele><time>2026-04-11T07:00:00Z</time></trkpt><trkpt lat="44.04421754843883" lon="12.539685928522209"><ele>11.0</ele><time>2026-04-11T07:00:01Z</time></trkpt><trkpt lat="44.04425704144694" lon="12.539567989803563"><ele>11.0</ele><time>2026-04-11T07:00:02Z</time></trkpt><trkpt lat="44.04430138573837" lon="12.539460563085882"><ele>11.0</ele><time>2026-04-11T07:00:03Z</time></trkpt><trkpt lat="44.04436102664927" lon="12.539366021269247"><ele>11.0</ele><time>2026-04-11T07:00:04Z</time></trkpt><trkpt lat="44.0444153726999" lon="12.539267007532187"><ele>11.0</ele><time>2026-04-11T07:00:05Z</time></trkpt><trkpt lat="44.0444830274671" lon="12.539198384960944"><ele>11.0</ele><time>2026-04-11T07:00:06Z</time></trkpt><trkpt lat="44.04454430059585" lon="12.539135261882187"><ele>12.5</ele><time>2026-04-11T07:00:07Z</time></trkpt><trkpt lat="44.04459751303079" lon="12.539072403272117"><ele>14.0</ele><time>2026-04-11T07:00:08Z</time></trkpt><trkpt lat="44.04464322340707" lon="12.539009402635426"><ele>15.5</ele><time>2026-04-11T07:00:09Z</time></trkpt><trkpt lat="44.044705671531226" lon="12.538878845913098"><ele>17.0</ele><time>2026-04-11T07:00:11Z</time></trkpt><trkpt lat="44.044724956420545" lon="12.538748834147498"><ele>18.5</ele><time>2026-04-11T07:00:13Z</time></trkpt><trkpt lat="44.044675887554384" lon="12.53869209665474"><ele>20.0</ele><time>2026-04-11T07:09:48.999Z</time></trkpt><trkpt lat="44.04462950291742" lon="12.538774800463097"><ele>20.0</ele><time>2026-04-11T07:09:50.999Z</time></trkpt><trkpt lat="44.0446199305584" lon="12.53887643968144"><ele>20.0</ele><time>2026-04-11T07:09:51.999Z</time></trkpt><trkpt lat="44.044584267979424" lon="12.538985496811378"><ele>20.0</ele><time>2026-04-11T07:09:52.999Z</time></trkpt><trkpt lat="44.04451888781513" lon="12.539084963702225"><ele>20.0</ele><time>2026-04-11T07:09:53.999Z</time></trkpt><trkpt lat="44.04444802180535" lon="12.539173261886978"><ele>20.0</ele><time>2026-04-11T07:09:54.999Z</time></trkpt><trkpt lat="44.0443721816074" lon="12.539257906202995"><ele>20.0</ele><time>2026-04-11T07:09:55.999Z</time></trkpt><trkpt lat="44.04430047885388" lon="12.539368807109753"><ele>20.0</ele><time>2026-04-11T07:09:56.999Z</time></trkpt><trkpt lat="44.044231998002104" lon="12.539498700996454"><ele>20.0</ele><time>2026-04-11T07:09:57.999Z</time></trkpt><trkpt lat="44.04418213883275" lon="12.539645836047834"><ele>20.0</ele><time>2026-04-11T07:09:58.999Z</time></trkpt><trkpt lat="44.04416288104644" lon="12.539831600923835"><ele>20.0</ele><time>2026-04-11T07:09:59.999Z</time></trkpt><trkpt lat="44.04416543128653" lon="12.540021441390206"><ele>17.75</ele><time>2026-04-11T07:10:00.999Z</time></trkpt><trkpt lat="44.044177018515875" lon="12.540214008568201"><ele>15.5</ele><time>2026-04-11T07:10:01.999Z</time></trkpt><trkpt lat="44.044188919464276" lon="12.54040263399947"><ele>13.25</ele><time>2026-04-11T07:10:02.999Z</time></trkpt><trkpt lat="44.044208706088156" lon="12.540589040163548"><ele>11.0</ele><time>2026-04-11T07:10:03.999Z</time></trkpt><trkpt lat="44.044231090894854" lon="12.540783259548101"><ele>11.0</ele><time>2026-04-11T07:10:04.999Z</time></trkpt><trkpt lat="44.04424485821345" lon="12.540985815913535"><ele>11.0</ele><time>2026-04-11T07:10:05.999Z</time></trkpt><trkpt lat="44.04426009670641" lon="12.541193616692048"><ele>11.0</ele><time>2026-04-11T07:10:06.999Z</time></trkpt><trkpt lat="44.044284427660514" lon="12.54140272866085"><ele>11.0</ele><time>2026-04-11T07:10:07.999Z</time></trkpt><trkpt lat="44.044311841142445" lon="12.541605428416338"><ele>11.0</ele><time>2026-04-11T07:10:08.999Z</time></trkpt><trkpt lat="44.04433663327498" lon="12.541804173193013"><ele>11.0</ele><time>2026-04-11T07:10:09.999Z</time></trkpt><trkpt lat="44.044352996630764" lon="12.54200919169628"><ele>11.0</ele><time>2026-04-11T07:10:11Z</time></trkpt><trkpt lat="44.04435621287254" lon="12.542219757870189"><ele>11.0</ele><time>2026-04-11T07:10:12Z</time></trkpt><trkpt lat="44.04433699920254" lon="12.542430176972074"><ele>11.0</ele><time>2026-04-11T07:10:13Z</time></trkpt><trkpt lat="44.04428361625802" lon="12.542617323369658"><ele>11.0</ele><time>2026-04-11T07:10:14Z</time></trkpt><trkpt lat="44.04420878689745" lon="12.542798991248494"><ele>11.0</ele><time>2026-04-11T07:10:15Z</time></trkpt><trkpt lat="44.04411686223205" lon="12.542969114726947"><ele>11.0</ele><time>2026-04-11T07:10:16Z</time></trkpt><trkpt lat="44.04402230738745" lon="12.543143529200316"><ele>11.0</ele><time>2026-04-11T07:10:17Z</time></trkpt><trkpt lat="44.043929317677275" lon="12.543324895935024"><ele>11.0</ele><time>2026-04-11T07:10:18Z</time></trkpt><trkpt lat="44.043840647025625" lon="12.54351615405016"><ele>11.0</ele><time>2026-04-11T07:10:19Z</time></trkpt><trkpt lat="44.04375777995584" lon="12.543717338262553"><ele>11.0</ele><time>2026-04-11T07:10:20Z</time></trkpt><trkpt lat="44.043675826153425" lon="12.54392412745351"><ele>11.0</ele><time>2026-04-11T07:10:21Z</time></trkpt><trkpt lat="44.043596849495145" lon="12.544136204218935"><ele>11.0</ele><time>2026-04-11T07:10:22Z</time></trkpt><trkpt lat="44.043521963093085" lon="12.544354192937192"><ele>10.333333333333332</ele><time>2026-04-11T07:10:23Z</time></trkpt><trkpt lat="44.04344252408083" lon="12.544570094797669"><ele>9.666666666666666</ele><time>2026-04-11T07:10:24Z</time></trkpt><trkpt lat="44.043365489534885" lon="12.544782268044537"><ele>9.0</ele><time>2026-04-11T07:10:25Z</time></trkpt><trkpt lat="44.04329643807104" lon="12.544985995074908"><ele>10.25</ele><time>2026-04-11T07:10:26Z</time></trkpt><trkpt lat="44.043232578146565" lon="12.54517878027927"><ele>11.5</ele><time>2026-04-11T07:10:27Z</time></trkpt><trkpt lat="44.043185648438914" lon="12.545370882522276"><ele>12.75</ele><time>2026-04-11T07:10:28Z</time></trkpt><trkpt lat="44.043170300657486" lon="12.54557320499074"><ele>14.0</ele><time>2026-04-11T07:10:29Z</time></trkpt><trkpt lat="44.04320010051723" lon="12.545763470633718"><ele>14.75</ele><time>2026-04-11T07:10:30Z</time></trkpt><trkpt lat="44.04325826263033" lon="12.545944096767009"><ele>15.5</ele><time>2026-04-11T07:10:30.999Z</time></trkpt><trkpt lat="44.043344123089156" lon="12.546104501421997"><ele>16.25</ele><time>2026-04-11T07:10:31.999Z</time></trkpt><trkpt lat="44.04343814348219" lon="12.546249273974635"><ele>17.0</ele><time>2026-04-11T07:10:32.999Z</time></trkpt><trkpt lat="44.04351831794654" lon="12.546402541746659"><ele>17.5</ele><time>2026-04-11T07:10:33.999Z</time></trkpt><trkpt lat="44.04357700323274" lon="12.54653974945233"><ele>18.0</ele><time>2026-04-11T07:10:34.999Z</time></trkpt><trkpt lat="44.04362589335414" lon="12.54670145208609"><ele>18.5</ele><time>2026-04-11T07:10:35.999Z</time></trkpt><trkpt lat="44.04365926646258" lon="12.546877961093053"><ele>19.0</ele><time>2026-04-11T07:10:36.999Z</time></trkpt><trkpt lat="44.04369374811875" lon="12.547063901227219"><ele>19.0</ele><time>2026-04-11T07:10:37.999Z</time></trkpt><trkpt lat="44.04372168729464" lon="12.547259879428077"><ele>19.0</ele><time>2026-04-11T07:10:38.999Z</time></trkpt><trkpt lat="44.04374500243942" lon="12.547465820008833"><ele>19.0</ele><time>2026-04-11T07:10:39.999Z</time></trkpt><trkpt lat="44.04376972889745" lon="12.547680345220124"><ele>18.666666666666664</ele><time>2026-04-11T07:10:40.999Z</time></trkpt><trkpt lat="44.04379424562894" lon="12.547902098513028"><ele>18.333333333333332</ele><time>2026-04-11T07:10:41.999Z</time></trkpt><trkpt lat="44.04381574646709" lon="12.548131018736939"><ele>18.0</ele><time>2026-04-11T07:10:42.999Z</time></trkpt><trkpt lat="44.0438382529775" lon="12.548364200306974"><ele>18.0</ele><time>2026-04-11T07:10:43.999Z</time></trkpt><trkpt lat="44.04387176960799" lon="12.548598765093807"><ele>18.0</ele><time>2026-04-11T07:10:44.999Z</time></trkpt><trkpt lat="44.04392622882786" lon="12.548827921491217"><ele>18.0</ele><time>2026-04-11T07:10:45.999Z</time></trkpt><trkpt lat="44.043998354476884" lon="12.549052202674348"><ele>17.333333333333332</ele><time>2026-04-11T07:10:46.999Z</time></trkpt><trkpt lat="44.04407808451818" lon="12.549271345765181"><ele>16.666666666666664</ele><time>2026-04-11T07:10:47.999Z</time></trkpt><trkpt lat="44.04417088362478" lon="12.549480947059104"><ele>16.0</ele><time>2026-04-11T07:10:48.999Z</time></trkpt><trkpt lat="44.044275558688234" lon="12.549677525924858"><ele>17.333333333333332</ele><time>2026-04-11T07:10:49.999Z</time></trkpt><trkpt lat="44.04439238678366" lon="12.549845552596606"><ele>18.666666666666668</ele><time>2026-04-11T07:10:50.999Z</time></trkpt><trkpt lat="44.04451499519012" lon="12.549968239222068"><ele>20.0</ele><time>2026-04-11T07:10:51.999Z</time></trkpt><trkpt lat="44.04462555040669" lon="12.550078617421045"><ele>20.0</ele><time>2026-04-11T07:10:52.999Z</time></trkpt><trkpt lat="44.04472975874144" lon="12.550207504682938"><ele>20.0</ele><time>2026-04-11T07:10:53.999Z</time></trkpt><trkpt lat="44.04480790891889" lon="12.550360891159544"><ele>20.0</ele><time>2026-04-11T07:10:54.999Z</time></trkpt><trkpt lat="44.044835328575196" lon="12.550493134231969"><ele>20.0</ele><time>2026-04-11T07:10:55.999Z</time></trkpt><trkpt lat="44.04483524193096" lon="12.550604340485483"><ele>20.833333333333336</ele><time>2026-04-11T07:10:57.999Z</time></trkpt><trkpt lat="44.044825131577255" lon="12.55071339598214"><ele>21.666666666666668</ele><time>2026-04-11T07:11:00.999Z</time></trkpt><trkpt lat="44.044742766269735" lon="12.550818422540768"><ele>22.5</ele><time>2026-04-11T07:11:02.999Z</time></trkpt><trkpt lat="44.044735105595265" lon="12.550916740581945"><ele>23.333333333333336</ele><time>2026-04-11T07:11:03.999Z</time></trkpt><trkpt lat="44.04476870316607" lon="12.55101738212282"><ele>24.166666666666668</ele><time>2026-04-11T07:11:04.999Z</time></trkpt><trkpt lat="44.0448316106411" lon="12.551115583808313"><ele>25.0</ele><time>2026-04-11T07:11:05.999Z</time></trkpt><trkpt lat="44.04490044241065" lon="12.551219716572987"><ele>25.25</ele><time>2026-04-11T07:11:06.999Z</time></trkpt><trkpt lat="44.044962109820396" lon="12.551349268915693"><ele>25.5</ele><time>2026-04-11T07:11:07.999Z</time></trkpt><trkpt lat="44.04503329671864" lon="12.551477328632469"><ele>25.75</ele><time>2026-04-11T07:11:08.999Z</time></trkpt><trkpt lat="44.045123449747564" lon="12.551590622026431"><ele>26.0</ele><time>2026-04-11T07:11:09.999Z</time></trkpt><trkpt lat="44.04522435127499" lon="12.551691279209729"><ele>23.75</ele><time>2026-04-11T07:11:10.999Z</time></trkpt><trkpt lat="44.045328365366665" lon="12.551798856083543"><ele>21.5</ele><time>2026-04-11T07:11:11.999Z</time></trkpt><trkpt lat="44.045431526818106" lon="12.551909447132383"><ele>19.25</ele><time>2026-04-11T07:11:12.999Z</time></trkpt><trkpt lat="44.04553205127567" lon="12.552019384067034"><ele>17.0</ele><time>2026-04-11T07:11:13.999Z</time></trkpt><trkpt lat="44.0456296067009" lon="12.5521322617312"><ele>16.0</ele><time>2026-04-11T07:11:14.999Z</time></trkpt><trkpt lat="44.04570468407184" lon="12.552218800175709"><ele>15.0</ele><time>2026-04-11T07:11:15.999Z</time></trkpt><trkpt lat="44.04576413840996" lon="12.552287771393896"><ele>14.0</ele><time>2026-04-11T07:11:16.999Z</time></trkpt><trkpt lat="44.04584468583394" lon="12.552396929795021"><ele>13.0</ele><time>2026-04-11T07:11:18.999Z</time></trkpt><trkpt lat="44.045915671812445" lon="12.55253121816817"><ele>12.0</ele><time>2026-04-11T07:11:20.999Z</time></trkpt><trkpt lat="44.04595256575463" lon="12.55265058285454"><ele>12.0</ele><time>2026-04-11T07:11:22.999Z</time></trkpt><trkpt lat="44.045971102911686" lon="12.55277389275957"><ele>12.0</ele><time>2026-04-11T07:11:25.999Z</time></trkpt><trkpt lat="44.045971314835576" lon="12.552913626158269"><ele>12.0</ele><time>2026-04-11T07:11:27.999Z</time></trkpt><trkpt lat="44.046007687342886" lon="12.55306047534268"><ele>12.0</ele><time>2026-04-11T07:11:29.999Z</time></trkpt><trkpt lat="44.04604928651093" lon="12.553127525637462"><ele>12.0</ele><time>2026-04-11T07:11:30.999Z</time></trkpt><trkpt lat="44.0460920694157" lon="12.5531939084662"><ele>12.0</ele><time>2026-04-11T07:11:31.999Z</time></trkpt><trkpt lat="44.04618476035211" lon="12.553213391017188"><ele>11.5</ele><time>2026-04-11T07:11:32.999Z</time></trkpt><trkpt lat="44.04626791552679" lon="12.553208754990639"><ele>11.0</ele><time>2026-04-11T07:11:33.999Z</time></trkpt><trkpt lat="44.04634461099568" lon="12.553179857284526"><ele>10.5</ele><time>2026-04-11T07:11:34.999Z</time></trkpt><trkpt lat="44.04641987342063" lon="12.553150529425672"><ele>10.0</ele><time>2026-04-11T07:11:35.999Z</time></trkpt><trkpt lat="44.04652758402887" lon="12.553104640868028"><ele>9.5</ele><time>2026-04-11T07:11:37.999Z</time></trkpt><trkpt lat="44.046563006286135" lon="12.553013280617487"><ele>9.0</ele><time>2026-04-11T07:11:39.999Z</time></trkpt><trkpt lat="44.046522382298456" lon="12.552918987986248"><ele>9.6</ele><time>2026-04-11T07:11:41.999Z</time></trkpt><trkpt lat="44.04644430010344" lon="12.552752506846687"><ele>10.2</ele><time>2026-04-11T07:13:55.999Z</time></trkpt><trkpt lat="44.046442457252446" lon="12.552572913364083"><ele>10.799999999999999</ele><time>2026-04-11T07:13:57.999Z</time></trkpt><trkpt lat="44.04647766676909" lon="12.552468196036772"><ele>11.4</ele><time>2026-04-11T07:13:58.999Z</time></trkpt><trkpt lat="44.046524624133916" lon="12.552365518786107"><ele>12.0</ele><time>2026-04-11T07:13:59.999Z</time></trkpt><trkpt lat="44.046582499300406" lon="12.552258803411032"><ele>12.0</ele><time>2026-04-11T07:14:00.999Z</time></trkpt><trkpt lat="44.04664962058115" lon="12.552148360884235"><ele>12.0</ele><time>2026-04-11T07:14:01.999Z</time></trkpt><trkpt lat="44.046718968202406" lon="12.552024700050776"><ele>12.0</ele><time>2026-04-11T07:14:02.999Z</time></trkpt><trkpt lat="44.04679698100585" lon="12.551901784054095"><ele>12.0</ele><time>2026-04-11T07:14:03.999Z</time></trkpt><trkpt lat="44.046882281438606" lon="12.551771550184794"><ele>12.0</ele><time>2026-04-11T07:14:04.999Z</time></trkpt><trkpt lat="44.04697192614437" lon="12.551640566088826"><ele>12.0</ele><time>2026-04-11T07:14:05.999Z</time></trkpt><trkpt lat="44.047062486131054" lon="12.551498349752888"><ele>12.0</ele><time>2026-04-11T07:14:06.999Z</time></trkpt><trkpt lat="44.04716039364721" lon="12.551356101259406"><ele>12.0</ele><time>2026-04-11T07:14:07.999Z</time></trkpt><trkpt lat="44.04726897181417" lon="12.551218048776922"><ele>12.666666666666668</ele><time>2026-04-11T07:14:08.999Z</time></trkpt><trkpt lat="44.047383834185055" lon="12.551079242703919"><ele>13.333333333333334</ele><time>2026-04-11T07:14:09.999Z</time></trkpt><trkpt lat="44.04750202798106" lon="12.550941149193298"><ele>14.0</ele><time>2026-04-11T07:14:10.999Z</time></trkpt><trkpt lat="44.04762519590608" lon="12.550803943516831"><ele>12.666666666666668</ele><time>2026-04-11T07:14:12Z</time></trkpt><trkpt lat="44.04775043242766" lon="12.550664612312172"><ele>11.333333333333334</ele><time>2026-04-11T07:14:13Z</time></trkpt><trkpt lat="44.04788097325418" lon="12.550530324577354"><ele>10.0</ele><time>2026-04-11T07:14:14Z</time></trkpt><trkpt lat="44.04801512573494" lon="12.55039922423438"><ele>10.0</ele><time>2026-04-11T07:14:15Z</time></trkpt><trkpt lat="44.04815067015189" lon="12.550269009243973"><ele>10.0</ele><time>2026-04-11T07:14:16Z</time></trkpt><trkpt lat="44.04828757504202" lon="12.550137681181672"><ele>10.0</ele><time>2026-04-11T07:14:17Z</time></trkpt><trkpt lat="44.04842407300243" lon="12.550011999952654"><ele>8.75</ele><time>2026-04-11T07:14:18Z</time></trkpt><trkpt lat="44.04855407780536" lon="12.549898598788543"><ele>7.5</ele><time>2026-04-11T07:14:19Z</time></trkpt><trkpt lat="44.04868380268532" lon="12.54978480841986"><ele>6.25</ele><time>2026-04-11T07:14:20Z</time></trkpt><trkpt lat="44.04879795846551" lon="12.549673827009528"><ele>5.0</ele><time>2026-04-11T07:14:21Z</time></trkpt><trkpt lat="44.048903395707605" lon="12.549573029716775"><ele>5.0</ele><time>2026-04-11T07:14:22Z</time></trkpt><trkpt lat="44.04901365259066" lon="12.549468388388432"><ele>5.0</ele><time>2026-04-11T07:14:23Z</time></trkpt><trkpt lat="44.049116844478334" lon="12.549370822192898"><ele>5.0</ele><time>2026-04-11T07:14:24Z</time></trkpt><trkpt lat="44.049207317528214" lon="12.549281205884471"><ele>5.0</ele><time>2026-04-11T07:14:25Z</time></trkpt><trkpt lat="44.049293411670845" lon="12.549194135107804"><ele>5.0</ele><time>2026-04-11T07:14:26Z</time></trkpt><trkpt lat="44.04937915722803" lon="12.549113969719132"><ele>5.0</ele><time>2026-04-11T07:14:27Z</time></trkpt><trkpt lat="44.04947129947291" lon="12.549043820045508"><ele>5.0</ele><time>2026-04-11T07:14:28Z</time></trkpt><trkpt lat="44.0495644790125" lon="12.54899605400627"><ele>5.0</ele><time>2026-04-11T07:14:29Z</time></trkpt><trkpt lat="44.049661369682966" lon="12.548979265040176"><ele>5.0</ele><time>2026-04-11T07:14:30Z</time></trkpt><trkpt lat="44.04976618977989" lon="12.548988525166278"><ele>5.0</ele><time>2026-04-11T07:14:31Z</time></trkpt><trkpt lat="44.04986572938121" lon="12.54895935131071"><ele>5.0</ele><time>2026-04-11T07:14:32Z</time></trkpt><trkpt lat="44.04994756448549" lon="12.548890195763967"><ele>5.0</ele><time>2026-04-11T07:14:33Z</time></trkpt><trkpt lat="44.0500080848998" lon="12.548797583893561"><ele>5.0</ele><time>2026-04-11T07:14:34Z</time></trkpt><trkpt lat="44.0500462737124" lon="12.54871852425067"><ele>5.0</ele><time>2026-04-11T07:14:35Z</time></trkpt><trkpt lat="44.05007579209905" lon="12.548635909708107"><ele>5.0</ele><time>2026-04-11T07:14:36Z</time></trkpt><trkpt lat="44.050098479722074" lon="12.548523152454981"><ele>5.8</ele><time>2026-04-11T07:14:37Z</time></trkpt><trkpt lat="44.05014506013659" lon="12.548420794913893"><ele>6.6</ele><time>2026-04-11T07:14:38Z</time></trkpt><trkpt lat="44.050213131766434" lon="12.548314258427247"><ele>7.4</ele><time>2026-04-11T07:14:39Z</time></trkpt><trkpt lat="44.05029653253211" lon="12.548209232818882"><ele>8.2</ele><time>2026-04-11T07:14:40Z</time></trkpt><trkpt lat="44.05039105561419" lon="12.548105042143924"><ele>9.0</ele><time>2026-04-11T07:14:41Z</time></trkpt><trkpt lat="44.050494889067004" lon="12.547994777696063"><ele>9.0</ele><time>2026-04-11T07:14:42Z</time></trkpt><trkpt lat="44.05060912322015" lon="12.547886287190721"><ele>9.0</ele><time>2026-04-11T07:14:43Z</time></trkpt><trkpt lat="44.05072760731175" lon="12.547775218347057"><ele>9.0</ele><time>2026-04-11T07:14:44Z</time></trkpt><trkpt lat="44.05084493927273" lon="12.547663757649651"><ele>9.0</ele><time>2026-04-11T07:14:45Z</time></trkpt><trkpt lat="44.05096654070632" lon="12.54753967040785"><ele>9.666666666666666</ele><time>2026-04-11T07:14:46Z</time></trkpt><trkpt lat="44.051094051658716" lon="12.54741523681214"><ele>10.333333333333332</ele><time>2026-04-11T07:14:47Z</time></trkpt><trkpt lat="44.051228023580045" lon="12.547291330448473"><ele>11.0</ele><time>2026-04-11T07:14:48Z</time></trkpt><trkpt lat="44.05136327900224" lon="12.547157073230306"><ele>11.0</ele><time>2026-04-11T07:14:49Z</time></trkpt><trkpt lat="44.05150083177874" lon="12.547022547102529"><ele>11.0</ele><time>2026-04-11T07:14:50Z</time></trkpt><trkpt lat="44.051642036325276" lon="12.54688675753056"><ele>11.0</ele><time>2026-04-11T07:14:51Z</time></trkpt><trkpt lat="44.05178414903348" lon="12.546746629143518"><ele>10.666666666666666</ele><time>2026-04-11T07:14:52Z</time></trkpt><trkpt lat="44.05193026370129" lon="12.546605548961617"><ele>10.333333333333334</ele><time>2026-04-11T07:14:53Z</time></trkpt><trkpt lat="44.052079159535474" lon="12.546462267438738"><ele>10.0</ele><time>2026-04-11T07:14:54Z</time></trkpt><trkpt lat="44.05222781451122" lon="12.546316473745852"><ele>10.0</ele><time>2026-04-11T07:14:55Z</time></trkpt><trkpt lat="44.0523770350566" lon="12.546167934719378"><ele>10.0</ele><time>2026-04-11T07:14:56Z</time></trkpt><trkpt lat="44.052528948766216" lon="12.546021872953258"><ele>10.0</ele><time>2026-04-11T07:14:57Z</time></trkpt><trkpt lat="44.05268104601091" lon="12.545873990507328"><ele>9.333333333333334</ele><time>2026-04-11T07:14:58Z</time></trkpt><trkpt lat="44.0528358196768" lon="12.54572576427638"><ele>8.666666666666666</ele><time>2026-04-11T07:14:59Z</time></trkpt><trkpt lat="44.05299263159928" lon="12.545578312975259"><ele>8.0</ele><time>2026-04-11T07:15:00Z</time></trkpt><trkpt lat="44.05314732906934" lon="12.545427475261647"><ele>8.0</ele><time>2026-04-11T07:15:01Z</time></trkpt><trkpt lat="44.05330264272723" lon="12.545272392223698"><ele>8.0</ele><time>2026-04-11T07:15:02Z</time></trkpt><trkpt lat="44.053459664683785" lon="12.545115792889575"><ele>8.0</ele><time>2026-04-11T07:15:03Z</time></trkpt><trkpt lat="44.05361142130876" lon="12.544964885603317"><ele>8.0</ele><time>2026-04-11T07:15:04Z</time></trkpt><trkpt lat="44.053755178400664" lon="12.544831611609508"><ele>8.0</ele><time>2026-04-11T07:15:05Z</time></trkpt><trkpt lat="44.05388358855968" lon="12.544717124986292"><ele>8.0</ele><time>2026-04-11T07:15:06Z</time></trkpt><trkpt lat="44.05400619342673" lon="12.544609505743173"><ele>8.0</ele><time>2026-04-11T07:15:07Z</time></trkpt><trkpt lat="44.0541334145791" lon="12.544497893547831"><ele>8.0</ele><time>2026-04-11T07:15:08Z</time></trkpt><trkpt lat="44.05426630738127" lon="12.544382721138646"><ele>8.0</ele><time>2026-04-11T07:15:09Z</time></trkpt><trkpt lat="44.05440362833708" lon="12.544269513358532"><ele>8.0</ele><time>2026-04-11T07:15:10Z</time></trkpt><trkpt lat="44.054544635191085" lon="12.544150286451105"><ele>8.0</ele><time>2026-04-11T07:15:11Z</time></trkpt><trkpt lat="44.05468719344593" lon="12.544026156006264"><ele>8.0</ele><time>2026-04-11T07:15:12Z</time></trkpt><trkpt lat="44.0548191129072" lon="12.543872509654491"><ele>8.666666666666666</ele><time>2026-04-11T07:15:13Z</time></trkpt><trkpt lat="44.05495872584334" lon="12.543733294158432"><ele>9.333333333333334</ele><time>2026-04-11T07:15:14Z</time></trkpt><trkpt lat="44.05511063679405" lon="12.543614402475907"><ele>10.0</ele><time>2026-04-11T07:15:15Z</time></trkpt><trkpt lat="44.055245090142655" lon="12.543482384680384"><ele>10.333333333333334</ele><time>2026-04-11T07:15:16Z</time></trkpt><trkpt lat="44.05537655863191" lon="12.543365029707306"><ele>10.666666666666666</ele><time>2026-04-11T07:15:17Z</time></trkpt><trkpt lat="44.05551285457199" lon="12.543255792286667"><ele>11.0</ele><time>2026-04-11T07:15:18Z</time></trkpt><trkpt lat="44.05565574017855" lon="12.543161950250242"><ele>10.75</ele><time>2026-04-11T07:15:19Z</time></trkpt><trkpt lat="44.055791239052496" lon="12.543089286084955"><ele>10.5</ele><time>2026-04-11T07:15:20Z</time></trkpt><trkpt lat="44.0559191399944" lon="12.543030361830885"><ele>10.25</ele><time>2026-04-11T07:15:21Z</time></trkpt><trkpt lat="44.056031491065916" lon="12.54297779992651"><ele>10.0</ele><time>2026-04-11T07:15:22Z</time></trkpt><trkpt lat="44.056130759451236" lon="12.54292621248053"><ele>10.0</ele><time>2026-04-11T07:15:23Z</time></trkpt><trkpt lat="44.056224562432746" lon="12.542884261848872"><ele>10.0</ele><time>2026-04-11T07:15:24Z</time></trkpt><trkpt lat="44.05631113696699" lon="12.542850322271837"><ele>10.0</ele><time>2026-04-11T07:15:25Z</time></trkpt><trkpt lat="44.056396616653274" lon="12.542826924135706"><ele>10.0</ele><time>2026-04-11T07:15:26Z</time></trkpt><trkpt lat="44.05648578764357" lon="12.542822498962337"><ele>10.0</ele><time>2026-04-11T07:15:27Z</time></trkpt><trkpt lat="44.05658118309941" lon="12.542832189396352"><ele>10.166666666666668</ele><time>2026-04-11T07:15:28Z</time></trkpt><trkpt lat="44.05666733889696" lon="12.542836047482133"><ele>10.333333333333334</ele><time>2026-04-11T07:15:29Z</time></trkpt><trkpt lat="44.056747439775755" lon="12.542810770197242"><ele>10.5</ele><time>2026-04-11T07:15:30Z</time></trkpt><trkpt lat="44.05681863076039" lon="12.54276530975017"><ele>10.666666666666666</ele><time>2026-04-11T07:15:31Z</time></trkpt><trkpt lat="44.05687295899979" lon="12.542701618969659"><ele>10.833333333333332</ele><time>2026-04-11T07:15:31.999Z</time></trkpt><trkpt lat="44.05691192004548" lon="12.542603022966167"><ele>11.0</ele><time>2026-04-11T07:15:32.999Z</time></trkpt><trkpt lat="44.05690881920322" lon="12.542491611261205"><ele>11.0</ele><time>2026-04-11T07:15:33.999Z</time></trkpt><trkpt lat="44.05689756686551" lon="12.542382385579492"><ele>11.0</ele><time>2026-04-11T07:15:34.999Z</time></trkpt><trkpt lat="44.056854324261316" lon="12.542296768159684"><ele>11.0</ele><time>2026-04-11T07:15:35.999Z</time></trkpt><trkpt lat="44.05682205829295" lon="12.5422123078496"><ele>11.0</ele><time>2026-04-11T07:15:36.999Z</time></trkpt><trkpt lat="44.056792179067706" lon="12.542098687577896"><ele>11.0</ele><time>2026-04-11T07:15:37.999Z</time></trkpt><trkpt lat="44.056760135742735" lon="12.54195654931214"><ele>11.0</ele><time>2026-04-11T07:15:38.999Z</time></trkpt><trkpt lat="44.05673122667879" lon="12.541791214591607"><ele>10.75</ele><time>2026-04-11T07:15:39.999Z</time></trkpt><trkpt lat="44.05672547749513" lon="12.54162500886059"><ele>10.5</ele><time>2026-04-11T07:15:40.999Z</time></trkpt><trkpt lat="44.05672296876098" lon="12.541453229946283"><ele>10.25</ele><time>2026-04-11T07:15:41.999Z</time></trkpt><trkpt lat="44.056722602449646" lon="12.541268056957389"><ele>10.0</ele><time>2026-04-11T07:15:42.999Z</time></trkpt><trkpt lat="44.05671702348476" lon="12.54107585550027"><ele>10.0</ele><time>2026-04-11T07:15:43.999Z</time></trkpt><trkpt lat="44.056720197701985" lon="12.540875676280578"><ele>10.0</ele><time>2026-04-11T07:15:44.999Z</time></trkpt><trkpt lat="44.05672489022871" lon="12.54067349752392"><ele>10.0</ele><time>2026-04-11T07:15:45.999Z</time></trkpt><trkpt lat="44.0567237688396" lon="12.540463711464524"><ele>10.0</ele><time>2026-04-11T07:15:46.999Z</time></trkpt><trkpt lat="44.056724163492184" lon="12.54025742293131"><ele>10.333333333333334</ele><time>2026-04-11T07:15:47.999Z</time></trkpt><trkpt lat="44.05672168521234" lon="12.540041067191332"><ele>10.666666666666666</ele><time>2026-04-11T07:15:48.999Z</time></trkpt><trkpt lat="44.05671805160268" lon="12.53982319104966"><ele>11.0</ele><time>2026-04-11T07:15:49.999Z</time></trkpt><trkpt lat="44.05671567779839" lon="12.539601505281059"><ele>11.333333333333332</ele><time>2026-04-11T07:15:50.999Z</time></trkpt><trkpt lat="44.056714035801285" lon="12.53937686442779"><ele>11.666666666666666</ele><time>2026-04-11T07:15:51.999Z</time></trkpt><trkpt lat="44.05671295576626" lon="12.539145833727689"><ele>12.0</ele><time>2026-04-11T07:15:52.999Z</time></trkpt><trkpt lat="44.05671200952603" lon="12.53891323640308"><ele>12.0</ele><time>2026-04-11T07:15:53.999Z</time></trkpt><trkpt lat="44.05671122058516" lon="12.53867984057705"><ele>12.0</ele><time>2026-04-11T07:15:54.999Z</time></trkpt><trkpt lat="44.05670561074892" lon="12.538442312381193"><ele>12.0</ele><time>2026-04-11T07:15:55.999Z</time></trkpt><trkpt lat="44.05670331875006" lon="12.5382026387977"><ele>12.0</ele><time>2026-04-11T07:15:56.999Z</time></trkpt><trkpt lat="44.05671960110109" lon="12.53796285168115"><ele>12.0</ele><time>2026-04-11T07:15:57.999Z</time></trkpt><trkpt lat="44.056718192443014" lon="12.537720706247473"><ele>12.0</ele><time>2026-04-11T07:15:58.999Z</time></trkpt><trkpt lat="44.05670588396088" lon="12.537466465639353"><ele>11.666666666666666</ele><time>2026-04-11T07:15:59.999Z</time></trkpt><trkpt lat="44.05666245973666" lon="12.537226031793537"><ele>11.333333333333332</ele><time>2026-04-11T07:16:00.999Z</time></trkpt><trkpt lat="44.05662757643423" lon="12.536984993644113"><ele>11.0</ele><time>2026-04-11T07:16:01.999Z</time></trkpt><trkpt lat="44.05658686034915" lon="12.536743521874731"><ele>11.0</ele><time>2026-04-11T07:16:02.999Z</time></trkpt><trkpt lat="44.056547115904955" lon="12.536501430026691"><ele>11.0</ele><time>2026-04-11T07:16:03.999Z</time></trkpt><trkpt lat="44.05651211674119" lon="12.536258098138413"><ele>11.0</ele><time>2026-04-11T07:16:04.999Z</time></trkpt><trkpt lat="44.05647992804211" lon="12.53601226980934"><ele>11.0</ele><time>2026-04-11T07:16:05.999Z</time></trkpt><trkpt lat="44.05645352981807" lon="12.535766860925401"><ele>11.0</ele><time>2026-04-11T07:16:06.999Z</time></trkpt><trkpt lat="44.05643140127501" lon="12.535525866236103"><ele>11.0</ele><time>2026-04-11T07:16:07.999Z</time></trkpt><trkpt lat="44.05641418461162" lon="12.535297736578627"><ele>11.25</ele><time>2026-04-11T07:16:08.999Z</time></trkpt><trkpt lat="44.05642190037098" lon="12.53507810225417"><ele>11.5</ele><time>2026-04-11T07:16:09.999Z</time></trkpt><trkpt lat="44.05641807315588" lon="12.534902465341027"><ele>11.75</ele><time>2026-04-11T07:16:10.999Z</time></trkpt><trkpt lat="44.056416066481596" lon="12.534750280253235"><ele>12.0</ele><time>2026-04-11T07:16:11.999Z</time></trkpt><trkpt lat="44.056414938229" lon="12.534621659558955"><ele>12.166666666666666</ele><time>2026-04-11T07:16:12.999Z</time></trkpt><trkpt lat="44.05641566370499" lon="12.534504852686263"><ele>12.333333333333332</ele><time>2026-04-11T07:16:13.999Z</time></trkpt><trkpt lat="44.056408947206656" lon="12.534396343117805"><ele>12.5</ele><time>2026-04-11T07:16:14.999Z</time></trkpt><trkpt lat="44.05644599764109" lon="12.534299089187488"><ele>12.666666666666666</ele><time>2026-04-11T07:16:15.999Z</time></trkpt><trkpt lat="44.05648809837306" lon="12.534213776440893"><ele>12.833333333333332</ele><time>2026-04-11T07:16:16.999Z</time></trkpt><trkpt lat="44.05651048919597" lon="12.534123557055226"><ele>13.0</ele><time>2026-04-11T07:16:18Z</time></trkpt><trkpt lat="44.056502554225744" lon="12.534029458816518"><ele>13.0</ele><time>2026-04-11T07:16:19Z</time></trkpt><trkpt lat="44.056473128677865" lon="12.533928515835433"><ele>13.0</ele><time>2026-04-11T07:16:20Z</time></trkpt><trkpt lat="44.05642944555062" lon="12.533821201782974"><ele>13.0</ele><time>2026-04-11T07:16:21Z</time></trkpt><trkpt lat="44.05639232930828" lon="12.533696958003551"><ele>13.0</ele><time>2026-04-11T07:16:22Z</time></trkpt><trkpt lat="44.05636784503761" lon="12.533552037036715"><ele>13.0</ele><time>2026-04-11T07:16:23Z</time></trkpt><trkpt lat="44.05637005933892" lon="12.533396817752969"><ele>12.75</ele><time>2026-04-11T07:16:24Z</time></trkpt><trkpt lat="44.056364045554034" lon="12.533232459838159"><ele>12.5</ele><time>2026-04-11T07:16:25Z</time></trkpt><trkpt lat="44.05633601025091" lon="12.533064693665311"><ele>12.25</ele><time>2026-04-11T07:16:26Z</time></trkpt><trkpt lat="44.056329559179424" lon="12.532887767196003"><ele>12.0</ele><time>2026-04-11T07:16:27Z</time></trkpt><trkpt lat="44.05632507349431" lon="12.53270458060092"><ele>12.5</ele><time>2026-04-11T07:16:28Z</time></trkpt><trkpt lat="44.05631696503541" lon="12.532516183473847"><ele>13.0</ele><time>2026-04-11T07:16:29Z</time></trkpt><trkpt lat="44.05632848971325" lon="12.532334205251129"><ele>13.5</ele><time>2026-04-11T07:16:30Z</time></trkpt><trkpt lat="44.056323003492246" lon="12.532159025285688"><ele>14.0</ele><time>2026-04-11T07:16:31Z</time></trkpt><trkpt lat="44.05631767211756" lon="12.531996385804614"><ele>14.25</ele><time>2026-04-11T07:16:32Z</time></trkpt><trkpt lat="44.056311878200596" lon="12.531823202495275"><ele>14.5</ele><time>2026-04-11T07:16:33Z</time></trkpt><trkpt lat="44.056305364270706" lon="12.531637739864287"><ele>14.75</ele><time>2026-04-11T07:16:34Z</time></trkpt><trkpt lat="44.05629800667997" lon="12.531445253937223"><ele>15.0</ele><time>2026-04-11T07:16:35Z</time></trkpt><trkpt lat="44.05629004252381" lon="12.531245464100753"><ele>14.5</ele><time>2026-04-11T07:16:36Z</time></trkpt><trkpt lat="44.05628143456184" lon="12.531046112240958"><ele>14.0</ele><time>2026-04-11T07:16:37Z</time></trkpt><trkpt lat="44.05627512648063" lon="12.530842587399514"><ele>13.5</ele><time>2026-04-11T07:16:38Z</time></trkpt><trkpt lat="44.05626855052569" lon="12.530633579122634"><ele>13.0</ele><time>2026-04-11T07:16:39Z</time></trkpt><trkpt lat="44.05626174578671" lon="12.530422042198317"><ele>13.333333333333332</ele><time>2026-04-11T07:16:40Z</time></trkpt><trkpt lat="44.05625491913976" lon="12.53020982418985"><ele>13.666666666666668</ele><time>2026-04-11T07:16:41Z</time></trkpt><trkpt lat="44.05624757459056" lon="12.529995424118924"><ele>14.0</ele><time>2026-04-11T07:16:42Z</time></trkpt><trkpt lat="44.056221001294276" lon="12.529775343268868"><ele>14.0</ele><time>2026-04-11T07:16:43Z</time></trkpt><trkpt lat="44.05621103381498" lon="12.529553050767387"><ele>14.0</ele><time>2026-04-11T07:16:44Z</time></trkpt><trkpt lat="44.05620066811283" lon="12.52933019450902"><ele>14.0</ele><time>2026-04-11T07:16:45Z</time></trkpt><trkpt lat="44.0561930148266" lon="12.529103605713821"><ele>14.0</ele><time>2026-04-11T07:16:46Z</time></trkpt><trkpt lat="44.05620840758304" lon="12.528874062832195"><ele>14.0</ele><time>2026-04-11T07:16:47Z</time></trkpt><trkpt lat="44.05620005942087" lon="12.528643142025027"><ele>14.0</ele><time>2026-04-11T07:16:48Z</time></trkpt><trkpt lat="44.05617635407737" lon="12.528412272355128"><ele>14.666666666666668</ele><time>2026-04-11T07:16:49Z</time></trkpt><trkpt lat="44.0561719620791" lon="12.528178494849735"><ele>15.333333333333332</ele><time>2026-04-11T07:16:50Z</time></trkpt><trkpt lat="44.056166892218194" lon="12.527942322906384"><ele>16.0</ele><time>2026-04-11T07:16:51Z</time></trkpt><trkpt lat="44.05616059146941" lon="12.527706366491284"><ele>16.0</ele><time>2026-04-11T07:16:52Z</time></trkpt><trkpt lat="44.056154595721914" lon="12.527470414684984"><ele>16.0</ele><time>2026-04-11T07:16:53Z</time></trkpt><trkpt lat="44.05613223986459" lon="12.527239984292788"><ele>16.0</ele><time>2026-04-11T07:16:54Z</time></trkpt><trkpt lat="44.05608139600178" lon="12.527010227757174"><ele>16.333333333333332</ele><time>2026-04-11T07:16:55Z</time></trkpt><trkpt lat="44.056038200306645" lon="12.526777281562463"><ele>16.666666666666668</ele><time>2026-04-11T07:16:56Z</time></trkpt><trkpt lat="44.05598328563422" lon="12.526548356337557"><ele>17.0</ele><time>2026-04-11T07:16:57Z</time></trkpt><trkpt lat="44.055921837020385" lon="12.526322475728426"><ele>17.0</ele><time>2026-04-11T07:16:58Z</time></trkpt><trkpt lat="44.055857824372126" lon="12.526097358003337"><ele>17.0</ele><time>2026-04-11T07:16:59Z</time></trkpt><trkpt lat="44.055789912761185" lon="12.525872714001295"><ele>17.0</ele><time>2026-04-11T07:17:00Z</time></trkpt><trkpt lat="44.055719143078086" lon="12.525648771097787"><ele>17.0</ele><time>2026-04-11T07:17:01Z</time></trkpt><trkpt lat="44.05564492072564" lon="12.52542539681371"><ele>17.0</ele><time>2026-04-11T07:17:02Z</time></trkpt><trkpt lat="44.0555706057272" lon="12.525199806109907"><ele>17.0</ele><time>2026-04-11T07:17:03Z</time></trkpt><trkpt lat="44.05549756088356" lon="12.524970854849235"><ele>17.0</ele><time>2026-04-11T07:17:04Z</time></trkpt><trkpt lat="44.05542575254148" lon="12.524741718604554"><ele>17.0</ele><time>2026-04-11T07:17:05Z</time></trkpt><trkpt lat="44.05535896425542" lon="12.524524061328103"><ele>17.0</ele><time>2026-04-11T07:17:06Z</time></trkpt><trkpt lat="44.05529526950169" lon="12.524315461555704"><ele>17.0</ele><time>2026-04-11T07:17:07Z</time></trkpt><trkpt lat="44.05524921453658" lon="12.524108046200988"><ele>17.0</ele><time>2026-04-11T07:17:08Z</time></trkpt><trkpt lat="44.05519145866236" lon="12.523918386696606"><ele>17.0</ele><time>2026-04-11T07:17:09Z</time></trkpt><trkpt lat="44.05513619516317" lon="12.5237434794711"><ele>17.0</ele><time>2026-04-11T07:17:10Z</time></trkpt><trkpt lat="44.05506888520188" lon="12.523594878718683"><ele>17.0</ele><time>2026-04-11T07:17:11Z</time></trkpt><trkpt lat="44.05500804918717" lon="12.523442783638858"><ele>17.0</ele><time>2026-04-11T07:17:12Z</time></trkpt><trkpt lat="44.05496325782792" lon="12.523306596370638"><ele>17.0</ele><time>2026-04-11T07:17:13Z</time></trkpt><trkpt lat="44.05492809507131" lon="12.523153381404713"><ele>17.0</ele><time>2026-04-11T07:17:14Z</time></trkpt><trkpt lat="44.054890009272455" lon="12.522989489381072"><ele>17.5</ele><time>2026-04-11T07:17:15Z</time></trkpt><trkpt lat="44.054857922304855" lon="12.52280918016299"><ele>18.0</ele><time>2026-04-11T07:17:16Z</time></trkpt><trkpt lat="44.0548064881018" lon="12.522631926667819"><ele>18.5</ele><time>2026-04-11T07:17:17Z</time></trkpt><trkpt lat="44.054751286531214" lon="12.522447517459163"><ele>19.0</ele><time>2026-04-11T07:17:18Z</time></trkpt><trkpt lat="44.05469412975762" lon="12.522256680264013"><ele>19.0</ele><time>2026-04-11T07:17:19Z</time></trkpt><trkpt lat="44.054626950534754" lon="12.522074593157893"><ele>19.0</ele><time>2026-04-11T07:17:20Z</time></trkpt><trkpt lat="44.054574551199025" lon="12.521879338560396"><ele>19.0</ele><time>2026-04-11T07:17:21Z</time></trkpt><trkpt lat="44.05452023676692" lon="12.521686316902072"><ele>19.0</ele><time>2026-04-11T07:17:22Z</time></trkpt><trkpt lat="44.05446348199389" lon="12.521503963382271"><ele>18.5</ele><time>2026-04-11T07:17:23Z</time></trkpt><trkpt lat="44.054404259238794" lon="12.521320258240557"><ele>18.0</ele><time>2026-04-11T07:17:24Z</time></trkpt><trkpt lat="44.05434782903724" lon="12.521139737523432"><ele>17.5</ele><time>2026-04-11T07:17:25Z</time></trkpt><trkpt lat="44.05429337477652" lon="12.520960293793278"><ele>17.0</ele><time>2026-04-11T07:17:26Z</time></trkpt><trkpt lat="44.054242957920714" lon="12.520785633040754"><ele>17.0</ele><time>2026-04-11T07:17:27Z</time></trkpt><trkpt lat="44.05419697493253" lon="12.520618441895797"><ele>17.0</ele><time>2026-04-11T07:17:28Z</time></trkpt><trkpt lat="44.05415152864378" lon="12.520456690235168"><ele>17.0</ele><time>2026-04-11T07:17:29Z</time></trkpt><trkpt lat="44.05410573853233" lon="12.520303192692033"><ele>17.0</ele><time>2026-04-11T07:17:29.999Z</time></trkpt><trkpt lat="44.054060227173366" lon="12.520149229249354"><ele>16.75</ele><time>2026-04-11T07:17:30.999Z</time></trkpt><trkpt lat="44.05401551524845" lon="12.519999530049418"><ele>16.5</ele><time>2026-04-11T07:17:31.999Z</time></trkpt><trkpt lat="44.053969771752826" lon="12.519851550273938"><ele>16.25</ele><time>2026-04-11T07:17:32.999Z</time></trkpt><trkpt lat="44.05392417888931" lon="12.519687938442166"><ele>16.0</ele><time>2026-04-11T07:17:33.999Z</time></trkpt><trkpt lat="44.05387951388019" lon="12.519536559683019"><ele>16.0</ele><time>2026-04-11T07:17:34.999Z</time></trkpt><trkpt lat="44.05383492759702" lon="12.519388972545334"><ele>16.0</ele><time>2026-04-11T07:17:35.999Z</time></trkpt><trkpt lat="44.053790500587475" lon="12.519240243868998"><ele>16.0</ele><time>2026-04-11T07:17:36.999Z</time></trkpt><trkpt lat="44.053744736119704" lon="12.519090160710345"><ele>16.0</ele><time>2026-04-11T07:17:37.999Z</time></trkpt><trkpt lat="44.0536991614804" lon="12.518936376855274"><ele>16.0</ele><time>2026-04-11T07:17:38.999Z</time></trkpt><trkpt lat="44.05365287494128" lon="12.518782718222482"><ele>16.0</ele><time>2026-04-11T07:17:39.999Z</time></trkpt><trkpt lat="44.05360678022206" lon="12.518633827518283"><ele>16.0</ele><time>2026-04-11T07:17:40.999Z</time></trkpt><trkpt lat="44.05356467449055" lon="12.518493375161393"><ele>16.0</ele><time>2026-04-11T07:17:41.999Z</time></trkpt><trkpt lat="44.05352492054785" lon="12.518360163522296"><ele>16.0</ele><time>2026-04-11T07:17:42.999Z</time></trkpt><trkpt lat="44.053486197122545" lon="12.518232041916022"><ele>16.400000000000002</ele><time>2026-04-11T07:17:43.999Z</time></trkpt><trkpt lat="44.05344784748744" lon="12.518107552856147"><ele>16.8</ele><time>2026-04-11T07:17:44.999Z</time></trkpt><trkpt lat="44.05340864399653" lon="12.517979236487074"><ele>17.200000000000003</ele><time>2026-04-11T07:17:45.999Z</time></trkpt><trkpt lat="44.05336951615937" lon="12.5178452255623"><ele>17.6</ele><time>2026-04-11T07:17:46.999Z</time></trkpt><trkpt lat="44.053330515789526" lon="12.517713284165513"><ele>18.0</ele><time>2026-04-11T07:17:47.999Z</time></trkpt><trkpt lat="44.053296538436214" lon="12.517577293061407"><ele>18.25</ele><time>2026-04-11T07:17:48.999Z</time></trkpt><trkpt lat="44.05325969372854" lon="12.51743416458768"><ele>18.5</ele><time>2026-04-11T07:17:49.999Z</time></trkpt><trkpt lat="44.05321738125719" lon="12.5172889220391"><ele>18.75</ele><time>2026-04-11T07:17:50.999Z</time></trkpt><trkpt lat="44.05317242348212" lon="12.517143070102017"><ele>19.0</ele><time>2026-04-11T07:17:51.999Z</time></trkpt><trkpt lat="44.05312457637891" lon="12.516992433490474"><ele>19.0</ele><time>2026-04-11T07:17:52.999Z</time></trkpt><trkpt lat="44.0530760728026" lon="12.516837846075124"><ele>19.0</ele><time>2026-04-11T07:17:53.999Z</time></trkpt><trkpt lat="44.05302906155444" lon="12.516678920601112"><ele>19.0</ele><time>2026-04-11T07:17:54.999Z</time></trkpt><trkpt lat="44.052982051831876" lon="12.516517160322937"><ele>19.0</ele><time>2026-04-11T07:17:55.999Z</time></trkpt><trkpt lat="44.05293043181941" lon="12.516351180647513"><ele>19.0</ele><time>2026-04-11T07:17:56.999Z</time></trkpt><trkpt lat="44.05287779965287" lon="12.516182169112069"><ele>19.0</ele><time>2026-04-11T07:17:57.999Z</time></trkpt><trkpt lat="44.05282446842027" lon="12.516008926641549"><ele>19.0</ele><time>2026-04-11T07:17:58.999Z</time></trkpt><trkpt lat="44.05277135262008" lon="12.515829372721665"><ele>19.0</ele><time>2026-04-11T07:17:59.999Z</time></trkpt><trkpt lat="44.05271869312069" lon="12.515644958740118"><ele>19.0</ele><time>2026-04-11T07:18:00.999Z</time></trkpt><trkpt lat="44.05266332898288" lon="12.515456344093138"><ele>19.0</ele><time>2026-04-11T07:18:01.999Z</time></trkpt><trkpt lat="44.05260512397833" lon="12.515265596466676"><ele>19.0</ele><time>2026-04-11T07:18:02.999Z</time></trkpt><trkpt lat="44.05254637411244" lon="12.515071254752064"><ele>19.0</ele><time>2026-04-11T07:18:03.999Z</time></trkpt><trkpt lat="44.05248587159321" lon="12.514875295733521"><ele>19.0</ele><time>2026-04-11T07:18:04.999Z</time></trkpt><trkpt lat="44.0524269155069" lon="12.514676049286452"><ele>19.0</ele><time>2026-04-11T07:18:05.999Z</time></trkpt><trkpt lat="44.052365707612324" lon="12.514476633742825"><ele>19.0</ele><time>2026-04-11T07:18:06.999Z</time></trkpt><trkpt lat="44.05230363885499" lon="12.51427674379376"><ele>19.0</ele><time>2026-04-11T07:18:07.999Z</time></trkpt><trkpt lat="44.05224203096831" lon="12.514073293096123"><ele>19.0</ele><time>2026-04-11T07:18:08.999Z</time></trkpt><trkpt lat="44.05217984770848" lon="12.513869396769858"><ele>19.0</ele><time>2026-04-11T07:18:09.999Z</time></trkpt><trkpt lat="44.05211554569187" lon="12.513665339467048"><ele>19.0</ele><time>2026-04-11T07:18:10.999Z</time></trkpt><trkpt lat="44.05204852766335" lon="12.513460345329005"><ele>19.0</ele><time>2026-04-11T07:18:11.999Z</time></trkpt><trkpt lat="44.051984192368366" lon="12.513252070260751"><ele>19.0</ele><time>2026-04-11T07:18:12.999Z</time></trkpt><trkpt lat="44.05191992521927" lon="12.51304177539111"><ele>19.666666666666664</ele><time>2026-04-11T07:18:13.999Z</time></trkpt><trkpt lat="44.05185777342884" lon="12.512829514695655"><ele>20.333333333333332</ele><time>2026-04-11T07:18:14.999Z</time></trkpt><trkpt lat="44.051795135758155" lon="12.512617421173383"><ele>21.0</ele><time>2026-04-11T07:18:15.999Z</time></trkpt><trkpt lat="44.05173496419668" lon="12.51240245113684"><ele>21.0</ele><time>2026-04-11T07:18:16.999Z</time></trkpt><trkpt lat="44.051673362469195" lon="12.51218826370108"><ele>21.0</ele><time>2026-04-11T07:18:17.999Z</time></trkpt><trkpt lat="44.05161121582537" lon="12.511976038424786"><ele>21.0</ele><time>2026-04-11T07:18:18.999Z</time></trkpt><trkpt lat="44.05154788469423" lon="12.511762673459375"><ele>20.666666666666668</ele><time>2026-04-11T07:18:19.999Z</time></trkpt><trkpt lat="44.051486155147465" lon="12.511549081358718"><ele>20.333333333333336</ele><time>2026-04-11T07:18:20.999Z</time></trkpt><trkpt lat="44.05142403250178" lon="12.511337247246953"><ele>20.0</ele><time>2026-04-11T07:18:21.999Z</time></trkpt><trkpt lat="44.051361664136614" lon="12.511125351472911"><ele>20.0</ele><time>2026-04-11T07:18:22.999Z</time></trkpt><trkpt lat="44.05129917403644" lon="12.510915008459405"><ele>20.0</ele><time>2026-04-11T07:18:24Z</time></trkpt><trkpt lat="44.051234502583654" lon="12.510707293360225"><ele>20.0</ele><time>2026-04-11T07:18:25Z</time></trkpt><trkpt lat="44.05116961082238" lon="12.510497942975674"><ele>20.333333333333336</ele><time>2026-04-11T07:18:26Z</time></trkpt><trkpt lat="44.05110448948382" lon="12.510287696025186"><ele>20.666666666666668</ele><time>2026-04-11T07:18:27Z</time></trkpt><trkpt lat="44.05103983347598" lon="12.510076620041684"><ele>21.0</ele><time>2026-04-11T07:18:28Z</time></trkpt><trkpt lat="44.05097378446979" lon="12.509867067935264"><ele>21.0</ele><time>2026-04-11T07:18:29Z</time></trkpt><trkpt lat="44.05090645184642" lon="12.509658606903553"><ele>21.0</ele><time>2026-04-11T07:18:30Z</time></trkpt><trkpt lat="44.05084025680175" lon="12.509450408705082"><ele>21.0</ele><time>2026-04-11T07:18:31Z</time></trkpt><trkpt lat="44.05077783403678" lon="12.50925061749092"><ele>21.5</ele><time>2026-04-11T07:18:32Z</time></trkpt><trkpt lat="44.05071910368762" lon="12.509058976592499"><ele>22.0</ele><time>2026-04-11T07:18:33Z</time></trkpt><trkpt lat="44.050661320408366" lon="12.508877198177386"><ele>22.5</ele><time>2026-04-11T07:18:34Z</time></trkpt><trkpt lat="44.0506062772675" lon="12.508702844203446"><ele>23.0</ele><time>2026-04-11T07:18:35Z</time></trkpt><trkpt lat="44.05056834761407" lon="12.508525807714381"><ele>23.0</ele><time>2026-04-11T07:18:36Z</time></trkpt><trkpt lat="44.05051571301158" lon="12.508358263311854"><ele>23.0</ele><time>2026-04-11T07:18:37Z</time></trkpt><trkpt lat="44.05046239127923" lon="12.508193393930815"><ele>23.0</ele><time>2026-04-11T07:18:38Z</time></trkpt><trkpt lat="44.050412561649146" lon="12.508038472483038"><ele>23.0</ele><time>2026-04-11T07:18:39Z</time></trkpt><trkpt lat="44.0503624877824" lon="12.507888162332879"><ele>23.25</ele><time>2026-04-11T07:18:40Z</time></trkpt><trkpt lat="44.05030851667262" lon="12.507736777444665"><ele>23.5</ele><time>2026-04-11T07:18:41Z</time></trkpt><trkpt lat="44.0502485751142" lon="12.507583146649479"><ele>23.75</ele><time>2026-04-11T07:18:42Z</time></trkpt><trkpt lat="44.050184633620944" lon="12.507427557798476"><ele>24.0</ele><time>2026-04-11T07:18:43Z</time></trkpt><trkpt lat="44.0501165665345" lon="12.50726914048062"><ele>24.0</ele><time>2026-04-11T07:18:44Z</time></trkpt><trkpt lat="44.05004584030977" lon="12.507104880596172"><ele>24.0</ele><time>2026-04-11T07:18:45Z</time></trkpt><trkpt lat="44.049973264096515" lon="12.506936472841362"><ele>24.0</ele><time>2026-04-11T07:18:46Z</time></trkpt><trkpt lat="44.04990026162281" lon="12.506767075983284"><ele>24.0</ele><time>2026-04-11T07:18:47Z</time></trkpt><trkpt lat="44.04982907135185" lon="12.506601884196947"><ele>24.25</ele><time>2026-04-11T07:18:48Z</time></trkpt><trkpt lat="44.04975745976236" lon="12.506435550125026"><ele>24.5</ele><time>2026-04-11T07:18:49Z</time></trkpt><trkpt lat="44.04968416111798" lon="12.506265596606715"><ele>24.75</ele><time>2026-04-11T07:18:50Z</time></trkpt><trkpt lat="44.04961021881367" lon="12.506094251849657"><ele>25.0</ele><time>2026-04-11T07:18:51Z</time></trkpt><trkpt lat="44.049538282245095" lon="12.505927554915212"><ele>25.25</ele><time>2026-04-11T07:18:52Z</time></trkpt><trkpt lat="44.04947102671461" lon="12.505771049260268"><ele>25.5</ele><time>2026-04-11T07:18:53Z</time></trkpt><trkpt lat="44.0494072312273" lon="12.505622442094246"><ele>25.75</ele><time>2026-04-11T07:18:54Z</time></trkpt><trkpt lat="44.04934824208192" lon="12.505485030948071"><ele>26.0</ele><time>2026-04-11T07:18:55Z</time></trkpt><trkpt lat="44.04929606631082" lon="12.505363491184179"><ele>26.0</ele><time>2026-04-11T07:18:56Z</time></trkpt><trkpt lat="44.04924604703384" lon="12.505246974658286"><ele>26.0</ele><time>2026-04-11T07:18:57Z</time></trkpt><trkpt lat="44.04919538119051" lon="12.505127462825582"><ele>26.0</ele><time>2026-04-11T07:18:58Z</time></trkpt><trkpt lat="44.04914459962215" lon="12.505005760722176"><ele>26.0</ele><time>2026-04-11T07:18:59Z</time></trkpt><trkpt lat="44.04909242527788" lon="12.50488072072332"><ele>26.0</ele><time>2026-04-11T07:19:00Z</time></trkpt><trkpt lat="44.04902394466874" lon="12.504762520241497"><ele>26.5</ele><time>2026-04-11T07:19:01Z</time></trkpt><trkpt lat="44.048967248006186" lon="12.504627076442178"><ele>27.0</ele><time>2026-04-11T07:19:02Z</time></trkpt><trkpt lat="44.04891933622687" lon="12.504475147188103"><ele>27.5</ele><time>2026-04-11T07:19:03Z</time></trkpt><trkpt lat="44.04885487739031" lon="12.504327832446148"><ele>28.0</ele><time>2026-04-11T07:19:04Z</time></trkpt><trkpt lat="44.0487900626579" lon="12.504183581947888"><ele>28.0</ele><time>2026-04-11T07:19:05Z</time></trkpt><trkpt lat="44.04873000245239" lon="12.504048831496378"><ele>28.0</ele><time>2026-04-11T07:19:06Z</time></trkpt><trkpt lat="44.04867363705479" lon="12.503918223808991"><ele>28.0</ele><time>2026-04-11T07:19:07Z</time></trkpt><trkpt lat="44.048615747393896" lon="12.503783130373067"><ele>28.0</ele><time>2026-04-11T07:19:08Z</time></trkpt><trkpt lat="44.04855804016553" lon="12.503645142306477"><ele>28.0</ele><time>2026-04-11T07:19:09Z</time></trkpt><trkpt lat="44.048498063178975" lon="12.503501726860856"><ele>28.0</ele><time>2026-04-11T07:19:10Z</time></trkpt><trkpt lat="44.04842325226653" lon="12.503367144784528"><ele>28.0</ele><time>2026-04-11T07:19:11Z</time></trkpt><trkpt lat="44.04836667385602" lon="12.503227636513019"><ele>28.0</ele><time>2026-04-11T07:19:12Z</time></trkpt><trkpt lat="44.04830800305312" lon="12.503091141885012"><ele>28.25</ele><time>2026-04-11T07:19:13Z</time></trkpt><trkpt lat="44.04824721224262" lon="12.502953156220055"><ele>28.5</ele><time>2026-04-11T07:19:14Z</time></trkpt><trkpt lat="44.04818646510105" lon="12.502811868552811"><ele>28.75</ele><time>2026-04-11T07:19:15Z</time></trkpt><trkpt lat="44.048124535672535" lon="12.502670612896175"><ele>29.0</ele><time>2026-04-11T07:19:16Z</time></trkpt><trkpt lat="44.048077153904" lon="12.502515783924416"><ele>29.0</ele><time>2026-04-11T07:19:17Z</time></trkpt><trkpt lat="44.048015051998966" lon="12.502374206012423"><ele>29.0</ele><time>2026-04-11T07:19:18Z</time></trkpt><trkpt lat="44.0479526158762" lon="12.502232224088743"><ele>29.0</ele><time>2026-04-11T07:19:19Z</time></trkpt><trkpt lat="44.047888898988596" lon="12.502090124836284"><ele>29.0</ele><time>2026-04-11T07:19:20Z</time></trkpt><trkpt lat="44.0478216835749" lon="12.501952355852499"><ele>28.75</ele><time>2026-04-11T07:19:21Z</time></trkpt><trkpt lat="44.04774935196589" lon="12.501818217417052"><ele>28.5</ele><time>2026-04-11T07:19:22Z</time></trkpt><trkpt lat="44.04766907617546" lon="12.501689778759864"><ele>28.25</ele><time>2026-04-11T07:19:23Z</time></trkpt><trkpt lat="44.04758896802634" lon="12.501573834181311"><ele>28.0</ele><time>2026-04-11T07:19:24Z</time></trkpt><trkpt lat="44.047513894468814" lon="12.501474541374616"><ele>28.2</ele><time>2026-04-11T07:19:25Z</time></trkpt><trkpt lat="44.047439554123" lon="12.501379113087838"><ele>28.4</ele><time>2026-04-11T07:19:26Z</time></trkpt><trkpt lat="44.047367673416474" lon="12.501286842145532"><ele>28.599999999999998</ele><time>2026-04-11T07:19:27Z</time></trkpt><trkpt lat="44.04729775539265" lon="12.501199605413545"><ele>28.799999999999997</ele><time>2026-04-11T07:19:28Z</time></trkpt><trkpt lat="44.04723091989131" lon="12.50111644691615"><ele>29.0</ele><time>2026-04-11T07:19:29Z</time></trkpt><trkpt lat="44.04716703144619" lon="12.50103695516323"><ele>28.999999999999996</ele><time>2026-04-11T07:19:30Z</time></trkpt><trkpt lat="44.047104887965794" lon="12.50095963470005"><ele>29.0</ele><time>2026-04-11T07:19:31Z</time></trkpt><trkpt lat="44.04704060087604" lon="12.500879658273613"><ele>29.0</ele><time>2026-04-11T07:19:32Z</time></trkpt><trkpt lat="44.046975819680256" lon="12.500799067132137"><ele>29.0</ele><time>2026-04-11T07:19:33Z</time></trkpt><trkpt lat="44.0469141126338" lon="12.500722300439424"><ele>28.999999999999996</ele><time>2026-04-11T07:19:34Z</time></trkpt><trkpt lat="44.04685735119384" lon="12.500651686294141"><ele>29.0</ele><time>2026-04-11T07:19:35Z</time></trkpt><trkpt lat="44.04680984302096" lon="12.500592583565203"><ele>29.0</ele><time>2026-04-11T07:19:36Z</time></trkpt><trkpt lat="44.046761533983705" lon="12.500532483038523"><ele>29.0</ele><time>2026-04-11T07:19:37Z</time></trkpt><trkpt lat="44.046681318960665" lon="12.50043184799631"><ele>29.0</ele><time>2026-04-11T07:19:39Z</time></trkpt><trkpt lat="44.0466005263497" lon="12.500361499435444"><ele>29.0</ele><time>2026-04-11T07:19:41Z</time></trkpt><trkpt lat="44.04653537176779" lon="12.500274446345891"><ele>29.0</ele><time>2026-04-11T07:19:43Z</time></trkpt><trkpt lat="44.04644810256207" lon="12.500161484202275"><ele>29.166666666666664</ele><time>2026-04-11T07:19:45Z</time></trkpt><trkpt lat="44.04639858252581" lon="12.500092033672948"><ele>29.333333333333332</ele><time>2026-04-11T07:19:46Z</time></trkpt><trkpt lat="44.046341853508906" lon="12.50001461293658"><ele>29.5</ele><time>2026-04-11T07:19:47Z</time></trkpt><trkpt lat="44.046280533859644" lon="12.499931226817973"><ele>29.666666666666664</ele><time>2026-04-11T07:19:48Z</time></trkpt><trkpt lat="44.0462169198807" lon="12.499844398151762"><ele>29.833333333333332</ele><time>2026-04-11T07:19:49Z</time></trkpt><trkpt lat="44.046143741230495" lon="12.499757128074005"><ele>30.0</ele><time>2026-04-11T07:19:50Z</time></trkpt><trkpt lat="44.04606608830501" lon="12.499662065634768"><ele>29.5</ele><time>2026-04-11T07:19:51Z</time></trkpt><trkpt lat="44.0459843698381" lon="12.499557106389311"><ele>29.0</ele><time>2026-04-11T07:19:52Z</time></trkpt><trkpt lat="44.045900839832015" lon="12.499447557829983"><ele>28.5</ele><time>2026-04-11T07:19:53Z</time></trkpt><trkpt lat="44.045816265907305" lon="12.499336127947217"><ele>28.0</ele><time>2026-04-11T07:19:54Z</time></trkpt><trkpt lat="44.04572554163553" lon="12.49922757686573"><ele>29.0</ele><time>2026-04-11T07:19:55Z</time></trkpt><trkpt lat="44.045635060228875" lon="12.499113761791419"><ele>30.0</ele><time>2026-04-11T07:19:56Z</time></trkpt><trkpt lat="44.04554480093858" lon="12.498996808424247"><ele>31.0</ele><time>2026-04-11T07:19:57Z</time></trkpt><trkpt lat="44.04545157631489" lon="12.498878601874665"><ele>32.0</ele><time>2026-04-11T07:19:57.999Z</time></trkpt><trkpt lat="44.045356116224575" lon="12.498758726908983"><ele>31.25</ele><time>2026-04-11T07:19:58.999Z</time></trkpt><trkpt lat="44.045260783416026" lon="12.498639592842187"><ele>30.5</ele><time>2026-04-11T07:19:59.999Z</time></trkpt><trkpt lat="44.0451695488822" lon="12.49852544158611"><ele>29.75</ele><time>2026-04-11T07:20:00.999Z</time></trkpt><trkpt lat="44.045074990874106" lon="12.498405698757878"><ele>29.0</ele><time>2026-04-11T07:20:01.999Z</time></trkpt><trkpt lat="44.04497819647367" lon="12.498282208555908"><ele>29.0</ele><time>2026-04-11T07:20:02.999Z</time></trkpt><trkpt lat="44.044877730037115" lon="12.498155233839361"><ele>29.0</ele><time>2026-04-11T07:20:03.999Z</time></trkpt><trkpt lat="44.044773005424815" lon="12.498026290749548"><ele>29.0</ele><time>2026-04-11T07:20:04.999Z</time></trkpt><trkpt lat="44.044665388099425" lon="12.497894550593188"><ele>29.0</ele><time>2026-04-11T07:20:05.999Z</time></trkpt><trkpt lat="44.04455620168546" lon="12.497756022268293"><ele>29.0</ele><time>2026-04-11T07:20:06.999Z</time></trkpt><trkpt lat="44.044444070594864" lon="12.49761442283314"><ele>29.0</ele><time>2026-04-11T07:20:07.999Z</time></trkpt><trkpt lat="44.044331808624705" lon="12.49747741258613"><ele>29.0</ele><time>2026-04-11T07:20:08.999Z</time></trkpt><trkpt lat="44.04422228874222" lon="12.497342438691977"><ele>29.0</ele><time>2026-04-11T07:20:09.999Z</time></trkpt><trkpt lat="44.044111176123664" lon="12.497205220046492"><ele>29.0</ele><time>2026-04-11T07:20:10.999Z</time></trkpt><trkpt lat="44.04400138380518" lon="12.497065973075632"><ele>29.0</ele><time>2026-04-11T07:20:11.999Z</time></trkpt><trkpt lat="44.04389093518499" lon="12.496924574955662"><ele>29.0</ele><time>2026-04-11T07:20:12.999Z</time></trkpt><trkpt lat="44.04377872157624" lon="12.496780732431235"><ele>29.0</ele><time>2026-04-11T07:20:13.999Z</time></trkpt><trkpt lat="44.043662627509946" lon="12.49663825442229"><ele>29.0</ele><time>2026-04-11T07:20:14.999Z</time></trkpt><trkpt lat="44.04354661732227" lon="12.496495273297255"><ele>29.0</ele><time>2026-04-11T07:20:15.999Z</time></trkpt><trkpt lat="44.04343225065915" lon="12.496346026544105"><ele>29.333333333333332</ele><time>2026-04-11T07:20:16.999Z</time></trkpt><trkpt lat="44.043318495596154" lon="12.496193659680964"><ele>29.666666666666664</ele><time>2026-04-11T07:20:17.999Z</time></trkpt><trkpt lat="44.043209053995575" lon="12.496032754121952"><ele>30.0</ele><time>2026-04-11T07:20:18.999Z</time></trkpt><trkpt lat="44.043105825653114" lon="12.495862399112852"><ele>30.0</ele><time>2026-04-11T07:20:19.999Z</time></trkpt><trkpt lat="44.04301184876475" lon="12.495681777249816"><ele>30.0</ele><time>2026-04-11T07:20:20.999Z</time></trkpt><trkpt lat="44.04292962697876" lon="12.495491064770262"><ele>30.0</ele><time>2026-04-11T07:20:21.999Z</time></trkpt><trkpt lat="44.04285021017885" lon="12.49529907164146"><ele>29.666666666666664</ele><time>2026-04-11T07:20:22.999Z</time></trkpt><trkpt lat="44.0427738435558" lon="12.495103269224098"><ele>29.333333333333332</ele><time>2026-04-11T07:20:23.999Z</time></trkpt><trkpt lat="44.04269515837711" lon="12.494907685797491"><ele>29.0</ele><time>2026-04-11T07:20:24.999Z</time></trkpt><trkpt lat="44.042615669403986" lon="12.494709391434117"><ele>29.0</ele><time>2026-04-11T07:20:25.999Z</time></trkpt><trkpt lat="44.04253068191764" lon="12.494511952180007"><ele>29.0</ele><time>2026-04-11T07:20:26.999Z</time></trkpt><trkpt lat="44.04246542450765" lon="12.494297522578288"><ele>29.0</ele><time>2026-04-11T07:20:27.999Z</time></trkpt><trkpt lat="44.042389724318426" lon="12.49410406091281"><ele>29.0</ele><time>2026-04-11T07:20:28.999Z</time></trkpt><trkpt lat="44.04230379194781" lon="12.493884449605837"><ele>29.0</ele><time>2026-04-11T07:20:30.001Z</time></trkpt><trkpt lat="44.042220239950176" lon="12.493670921684707"><ele>29.0</ele><time>2026-04-11T07:20:31.001Z</time></trkpt><trkpt lat="44.04213748849931" lon="12.4934601111325"><ele>29.0</ele><time>2026-04-11T07:20:32.001Z</time></trkpt><trkpt lat="44.042052879356575" lon="12.49324643778842"><ele>29.0</ele><time>2026-04-11T07:20:33.001Z</time></trkpt><trkpt lat="44.04195343232209" lon="12.49304104023765"><ele>29.0</ele><time>2026-04-11T07:20:34.001Z</time></trkpt><trkpt lat="44.04186917599986" lon="12.49282203727385"><ele>29.333333333333332</ele><time>2026-04-11T07:20:35.001Z</time></trkpt><trkpt lat="44.04178283133367" lon="12.492601567357207"><ele>29.666666666666664</ele><time>2026-04-11T07:20:36.001Z</time></trkpt><trkpt lat="44.04169526140951" lon="12.492380487135888"><ele>30.0</ele><time>2026-04-11T07:20:37.001Z</time></trkpt><trkpt lat="44.04160697342851" lon="12.492160620001133"><ele>30.666666666666664</ele><time>2026-04-11T07:20:38.001Z</time></trkpt><trkpt lat="44.04152082845748" lon="12.491944348995665"><ele>31.333333333333332</ele><time>2026-04-11T07:20:39.001Z</time></trkpt><trkpt lat="44.0414364071233" lon="12.491733630122253"><ele>32.0</ele><time>2026-04-11T07:20:40.001Z</time></trkpt><trkpt lat="44.04135453222629" lon="12.491522483020505"><ele>32.0</ele><time>2026-04-11T07:20:41.001Z</time></trkpt><trkpt lat="44.04127312375845" lon="12.491312816510735"><ele>32.0</ele><time>2026-04-11T07:20:42.001Z</time></trkpt><trkpt lat="44.04119115177071" lon="12.491102566586303"><ele>32.0</ele><time>2026-04-11T07:20:43.001Z</time></trkpt><trkpt lat="44.04110870498648" lon="12.490890575917293"><ele>32.0</ele><time>2026-04-11T07:20:44.001Z</time></trkpt><trkpt lat="44.04102519533692" lon="12.490679144223321"><ele>32.0</ele><time>2026-04-11T07:20:45.001Z</time></trkpt><trkpt lat="44.04094163005623" lon="12.490467799138944"><ele>32.0</ele><time>2026-04-11T07:20:46.001Z</time></trkpt><trkpt lat="44.04085844919942" lon="12.490256962664262"><ele>32.666666666666664</ele><time>2026-04-11T07:20:47Z</time></trkpt><trkpt lat="44.04077519342467" lon="12.490047914428787"><ele>33.333333333333336</ele><time>2026-04-11T07:20:48Z</time></trkpt><trkpt lat="44.04069209939468" lon="12.489840071804961"><ele>34.0</ele><time>2026-04-11T07:20:49Z</time></trkpt><trkpt lat="44.04060864758267" lon="12.48963377371264"><ele>33.66666666666667</ele><time>2026-04-11T07:20:50Z</time></trkpt><trkpt lat="44.040526179939135" lon="12.489429574966724"><ele>33.333333333333336</ele><time>2026-04-11T07:20:51Z</time></trkpt><trkpt lat="44.04044506367566" lon="12.489225668095745"><ele>33.0</ele><time>2026-04-11T07:20:52Z</time></trkpt><trkpt lat="44.040364719531134" lon="12.489024515562022"><ele>33.0</ele><time>2026-04-11T07:20:53Z</time></trkpt><trkpt lat="44.040285286350304" lon="12.488826350791193"><ele>33.0</ele><time>2026-04-11T07:20:54Z</time></trkpt><trkpt lat="44.040207549441575" lon="12.488631136656767"><ele>33.0</ele><time>2026-04-11T07:20:55Z</time></trkpt><trkpt lat="44.04012998380228" lon="12.488439870179588"><ele>33.0</ele><time>2026-04-11T07:20:56Z</time></trkpt><trkpt lat="44.040053729863665" lon="12.488251316966746"><ele>33.0</ele><time>2026-04-11T07:20:57Z</time></trkpt><trkpt lat="44.039991329433334" lon="12.488051422582762"><ele>33.0</ele><time>2026-04-11T07:20:58Z</time></trkpt><trkpt lat="44.039915266566645" lon="12.487859864597175"><ele>33.333333333333336</ele><time>2026-04-11T07:20:59Z</time></trkpt><trkpt lat="44.039838015346675" lon="12.487665313845502"><ele>33.66666666666667</ele><time>2026-04-11T07:21:00Z</time></trkpt><trkpt lat="44.039759906745026" lon="12.487468603866171"><ele>34.0</ele><time>2026-04-11T07:21:01Z</time></trkpt><trkpt lat="44.03968250304994" lon="12.48727310169612"><ele>34.333333333333336</ele><time>2026-04-11T07:21:02Z</time></trkpt><trkpt lat="44.039606306411464" lon="12.487080655253072"><ele>34.666666666666664</ele><time>2026-04-11T07:21:03Z</time></trkpt><trkpt lat="44.03953042019553" lon="12.486888992861376"><ele>35.0</ele><time>2026-04-11T07:21:04Z</time></trkpt><trkpt lat="44.039455165159225" lon="12.48669892461048"><ele>35.0</ele><time>2026-04-11T07:21:05Z</time></trkpt><trkpt lat="44.03938017996733" lon="12.48651038192"><ele>35.0</ele><time>2026-04-11T07:21:06Z</time></trkpt><trkpt lat="44.039290619416" lon="12.486335748036186"><ele>35.0</ele><time>2026-04-11T07:21:07Z</time></trkpt><trkpt lat="44.03921725556202" lon="12.486151838382039"><ele>35.25</ele><time>2026-04-11T07:21:08Z</time></trkpt><trkpt lat="44.03915964766758" lon="12.485966432635626"><ele>35.5</ele><time>2026-04-11T07:21:09Z</time></trkpt><trkpt lat="44.039076377917645" lon="12.485810603852581"><ele>35.75</ele><time>2026-04-11T07:21:10Z</time></trkpt><trkpt lat="44.03900870337877" lon="12.485647110173351"><ele>36.0</ele><time>2026-04-11T07:21:11Z</time></trkpt><trkpt lat="44.03894465665212" lon="12.485492901870954"><ele>36.2</ele><time>2026-04-11T07:21:12Z</time></trkpt><trkpt lat="44.03888730939098" lon="12.485357825604556"><ele>36.400000000000006</ele><time>2026-04-11T07:21:13Z</time></trkpt><trkpt lat="44.03885144208415" lon="12.485224155658127"><ele>36.6</ele><time>2026-04-11T07:21:14Z</time></trkpt><trkpt lat="44.03880426908039" lon="12.485111932055176"><ele>36.800000000000004</ele><time>2026-04-11T07:21:15Z</time></trkpt><trkpt lat="44.038757479009014" lon="12.485001381418474"><ele>37.0</ele><time>2026-04-11T07:21:16Z</time></trkpt><trkpt lat="44.03869963673215" lon="12.484900106104154"><ele>37.0</ele><time>2026-04-11T07:21:17Z</time></trkpt><trkpt lat="44.03866439267521" lon="12.48479589310793"><ele>37.0</ele><time>2026-04-11T07:21:18Z</time></trkpt><trkpt lat="44.03862971650078" lon="12.484712413521612"><ele>37.0</ele><time>2026-04-11T07:21:19Z</time></trkpt><trkpt lat="44.03857088371567" lon="12.484580494944533"><ele>37.0</ele><time>2026-04-11T07:21:21Z</time></trkpt><trkpt lat="44.03851786923885" lon="12.484461896009574"><ele>37.0</ele><time>2026-04-11T07:21:23Z</time></trkpt><trkpt lat="44.03847419714677" lon="12.484370260442569"><ele>37.0</ele><time>2026-04-11T07:21:25Z</time></trkpt><trkpt lat="44.03841201617209" lon="12.484265231806608"><ele>37.16666666666667</ele><time>2026-04-11T07:21:27Z</time></trkpt><trkpt lat="44.03836526848753" lon="12.484199104442826"><ele>37.333333333333336</ele><time>2026-04-11T07:21:28Z</time></trkpt><trkpt lat="44.03833331417454" lon="12.484105774467173"><ele>37.5</ele><time>2026-04-11T07:21:29Z</time></trkpt><trkpt lat="44.03828853804457" lon="12.484001827808713"><ele>37.666666666666664</ele><time>2026-04-11T07:21:30Z</time></trkpt><trkpt lat="44.03824112014825" lon="12.483899717670488"><ele>37.83333333333333</ele><time>2026-04-11T07:21:31Z</time></trkpt><trkpt lat="44.0381886735973" lon="12.4837868274782"><ele>38.0</ele><time>2026-04-11T07:21:32Z</time></trkpt><trkpt lat="44.03813129403518" lon="12.483663359451489"><ele>38.25</ele><time>2026-04-11T07:21:33Z</time></trkpt><trkpt lat="44.03805310524078" lon="12.4835462215409"><ele>38.5</ele><time>2026-04-11T07:21:34Z</time></trkpt><trkpt lat="44.03798772499066" lon="12.483406364002951"><ele>38.75</ele><time>2026-04-11T07:21:35Z</time></trkpt><trkpt lat="44.03791871734288" lon="12.483259600129564"><ele>39.0</ele><time>2026-04-11T07:21:36Z</time></trkpt><trkpt lat="44.03785034835306" lon="12.483112994930703"><ele>39.0</ele><time>2026-04-11T07:21:37Z</time></trkpt><trkpt lat="44.03780072695861" lon="12.482954336337027"><ele>39.0</ele><time>2026-04-11T07:21:38Z</time></trkpt><trkpt lat="44.03773168510933" lon="12.482806389512024"><ele>39.0</ele><time>2026-04-11T07:21:39Z</time></trkpt><trkpt lat="44.03766100411926" lon="12.482654930248327"><ele>39.0</ele><time>2026-04-11T07:21:40Z</time></trkpt><trkpt lat="44.03757200199653" lon="12.482513315847843"><ele>38.75</ele><time>2026-04-11T07:21:41Z</time></trkpt><trkpt lat="44.03749883043406" lon="12.48235503946219"><ele>38.5</ele><time>2026-04-11T07:21:42Z</time></trkpt><trkpt lat="44.037427619846376" lon="12.482203213463197"><ele>38.25</ele><time>2026-04-11T07:21:43Z</time></trkpt><trkpt lat="44.03735983867837" lon="12.482058591144972"><ele>38.0</ele><time>2026-04-11T07:21:44Z</time></trkpt><trkpt lat="44.037294717438975" lon="12.48192064089354"><ele>38.0</ele><time>2026-04-11T07:21:45Z</time></trkpt><trkpt lat="44.03722782038208" lon="12.481779107524668"><ele>38.0</ele><time>2026-04-11T07:21:46Z</time></trkpt><trkpt lat="44.03716097744807" lon="12.481637626698609"><ele>38.0</ele><time>2026-04-11T07:21:47Z</time></trkpt><trkpt lat="44.03711317192026" lon="12.481487373767601"><ele>38.0</ele><time>2026-04-11T07:21:48Z</time></trkpt><trkpt lat="44.03704841069803" lon="12.48135013571052"><ele>38.25</ele><time>2026-04-11T07:21:49Z</time></trkpt><trkpt lat="44.036982410585104" lon="12.48121027227633"><ele>38.5</ele><time>2026-04-11T07:21:50Z</time></trkpt><trkpt lat="44.03691366922276" lon="12.481064245013867"><ele>38.75</ele><time>2026-04-11T07:21:51Z</time></trkpt><trkpt lat="44.036842672926376" lon="12.480913367590944"><ele>39.0</ele><time>2026-04-11T07:21:52Z</time></trkpt><trkpt lat="44.036768843998715" lon="12.480756470434216"><ele>39.0</ele><time>2026-04-11T07:21:53Z</time></trkpt><trkpt lat="44.03669270318746" lon="12.480594660175548"><ele>39.0</ele><time>2026-04-11T07:21:54Z</time></trkpt><trkpt lat="44.0366137308348" lon="12.480426845543672"><ele>39.0</ele><time>2026-04-11T07:21:55Z</time></trkpt><trkpt lat="44.03653195671252" lon="12.480253140978043"><ele>39.0</ele><time>2026-04-11T07:21:56Z</time></trkpt><trkpt lat="44.036448397098184" lon="12.480075643601726"><ele>39.333333333333336</ele><time>2026-04-11T07:21:57Z</time></trkpt><trkpt lat="44.03636291419696" lon="12.479894055557805"><ele>39.66666666666667</ele><time>2026-04-11T07:21:58Z</time></trkpt><trkpt lat="44.03627675617429" lon="12.479706995508796"><ele>40.0</ele><time>2026-04-11T07:21:59Z</time></trkpt><trkpt lat="44.0361750949201" lon="12.47952790656777"><ele>40.0</ele><time>2026-04-11T07:22:00Z</time></trkpt><trkpt lat="44.03608784321364" lon="12.479330976391116"><ele>40.0</ele><time>2026-04-11T07:22:01Z</time></trkpt><trkpt lat="44.03599915254557" lon="12.479130470083994"><ele>40.0</ele><time>2026-04-11T07:22:02Z</time></trkpt><trkpt lat="44.03590670352344" lon="12.478929774379868"><ele>40.0</ele><time>2026-04-11T07:22:02.999Z</time></trkpt><trkpt lat="44.03581395217184" lon="12.478727768466204"><ele>40.0</ele><time>2026-04-11T07:22:03.999Z</time></trkpt><trkpt lat="44.03571968226529" lon="12.478524812647624"><ele>40.0</ele><time>2026-04-11T07:22:04.999Z</time></trkpt><trkpt lat="44.0356242475115" lon="12.47831871506655"><ele>40.0</ele><time>2026-04-11T07:22:05.999Z</time></trkpt><trkpt lat="44.03553028881795" lon="12.478102569987133"><ele>40.0</ele><time>2026-04-11T07:22:06.999Z</time></trkpt><trkpt lat="44.0354333408297" lon="12.477900224056816"><ele>40.0</ele><time>2026-04-11T07:22:07.999Z</time></trkpt><trkpt lat="44.035337792249294" lon="12.4776958897711"><ele>40.66666666666667</ele><time>2026-04-11T07:22:08.999Z</time></trkpt><trkpt lat="44.03524205793074" lon="12.47749200797209"><ele>41.333333333333336</ele><time>2026-04-11T07:22:09.999Z</time></trkpt><trkpt lat="44.03514563719857" lon="12.477289226759368"><ele>42.0</ele><time>2026-04-11T07:22:10.999Z</time></trkpt><trkpt lat="44.03504824247199" lon="12.477088910559958"><ele>42.0</ele><time>2026-04-11T07:22:11.999Z</time></trkpt><trkpt lat="44.03495179670863" lon="12.476889164126595"><ele>42.0</ele><time>2026-04-11T07:22:12.999Z</time></trkpt><trkpt lat="44.0348573855999" lon="12.476690552669961"><ele>42.0</ele><time>2026-04-11T07:22:13.999Z</time></trkpt><trkpt lat="44.03476514725504" lon="12.476491753534308"><ele>42.0</ele><time>2026-04-11T07:22:14.999Z</time></trkpt><trkpt lat="44.034672386846445" lon="12.476294199766043"><ele>42.0</ele><time>2026-04-11T07:22:15.999Z</time></trkpt><trkpt lat="44.03457940466411" lon="12.476097711500998"><ele>42.0</ele><time>2026-04-11T07:22:16.999Z</time></trkpt><trkpt lat="44.034486977226564" lon="12.475902611045328"><ele>42.0</ele><time>2026-04-11T07:22:17.999Z</time></trkpt><trkpt lat="44.03439408551812" lon="12.475709242621074"><ele>42.0</ele><time>2026-04-11T07:22:18.999Z</time></trkpt><trkpt lat="44.034299601682946" lon="12.47551818577007"><ele>42.0</ele><time>2026-04-11T07:22:19.999Z</time></trkpt><trkpt lat="44.03420080279814" lon="12.47532645969973"><ele>42.0</ele><time>2026-04-11T07:22:20.999Z</time></trkpt><trkpt lat="44.03409656608263" lon="12.47513604727509"><ele>42.0</ele><time>2026-04-11T07:22:21.999Z</time></trkpt><trkpt lat="44.03399401867876" lon="12.474937582471384"><ele>42.0</ele><time>2026-04-11T07:22:22.999Z</time></trkpt><trkpt lat="44.0338772152352" lon="12.474750305144479"><ele>42.0</ele><time>2026-04-11T07:22:23.999Z</time></trkpt><trkpt lat="44.03375919342503" lon="12.474563024352527"><ele>42.0</ele><time>2026-04-11T07:22:24.999Z</time></trkpt><trkpt lat="44.03364042416298" lon="12.47437455748049"><ele>42.0</ele><time>2026-04-11T07:22:25.999Z</time></trkpt><trkpt lat="44.033509613632226" lon="12.474194496852837"><ele>42.0</ele><time>2026-04-11T07:22:26.999Z</time></trkpt><trkpt lat="44.03339139830024" lon="12.47400123017609"><ele>42.0</ele><time>2026-04-11T07:22:27.999Z</time></trkpt><trkpt lat="44.03326954707914" lon="12.473809285163766"><ele>42.0</ele><time>2026-04-11T07:22:28.999Z</time></trkpt><trkpt lat="44.03314506564928" lon="12.473618874426641"><ele>41.666666666666664</ele><time>2026-04-11T07:22:29.999Z</time></trkpt><trkpt lat="44.03301973021145" lon="12.473428603421905"><ele>41.33333333333333</ele><time>2026-04-11T07:22:30.999Z</time></trkpt><trkpt lat="44.03290955645048" lon="12.473222441212812"><ele>41.0</ele><time>2026-04-11T07:22:31.999Z</time></trkpt><trkpt lat="44.03277660976996" lon="12.473042382541623"><ele>41.33333333333333</ele><time>2026-04-11T07:22:32.999Z</time></trkpt><trkpt lat="44.03266273919456" lon="12.47284239610499"><ele>41.666666666666664</ele><time>2026-04-11T07:22:33.999Z</time></trkpt><trkpt lat="44.03254461527523" lon="12.472646101433359"><ele>42.0</ele><time>2026-04-11T07:22:34.999Z</time></trkpt><trkpt lat="44.03242608400073" lon="12.472449271992492"><ele>42.0</ele><time>2026-04-11T07:22:36.001Z</time></trkpt><trkpt lat="44.03230943263206" lon="12.472257739327304"><ele>42.0</ele><time>2026-04-11T07:22:37.001Z</time></trkpt><trkpt lat="44.03219640042855" lon="12.472081050583588"><ele>42.0</ele><time>2026-04-11T07:22:38.001Z</time></trkpt><trkpt lat="44.032088837781636" lon="12.471912358302328"><ele>42.5</ele><time>2026-04-11T07:22:39.001Z</time></trkpt><trkpt lat="44.03198664319328" lon="12.471749705158635"><ele>43.0</ele><time>2026-04-11T07:22:40.001Z</time></trkpt><trkpt lat="44.03188986277782" lon="12.471594889672168"><ele>43.5</ele><time>2026-04-11T07:22:41.001Z</time></trkpt><trkpt lat="44.0317972583423" lon="12.471448204197626"><ele>44.0</ele><time>2026-04-11T07:22:42.001Z</time></trkpt><trkpt lat="44.03170764783624" lon="12.47131056813557"><ele>44.0</ele><time>2026-04-11T07:22:43.001Z</time></trkpt><trkpt lat="44.03162196085675" lon="12.471178864317858"><ele>44.0</ele><time>2026-04-11T07:22:44.001Z</time></trkpt><trkpt lat="44.0315410424896" lon="12.47105469453791"><ele>44.0</ele><time>2026-04-11T07:22:45.001Z</time></trkpt><trkpt lat="44.0314623389302" lon="12.470936351260232"><ele>44.0</ele><time>2026-04-11T07:22:46.001Z</time></trkpt><trkpt lat="44.03138996077948" lon="12.470823658183331"><ele>44.0</ele><time>2026-04-11T07:22:47.001Z</time></trkpt><trkpt lat="44.03132327379954" lon="12.470712999538943"><ele>44.0</ele><time>2026-04-11T07:22:48.001Z</time></trkpt><trkpt lat="44.031261530388136" lon="12.470604572416674"><ele>44.0</ele><time>2026-04-11T07:22:49.001Z</time></trkpt><trkpt lat="44.03120068019488" lon="12.470505713909347"><ele>44.0</ele><time>2026-04-11T07:22:50.001Z</time></trkpt><trkpt lat="44.0311461146143" lon="12.470424061098692"><ele>44.0</ele><time>2026-04-11T07:22:51Z</time></trkpt><trkpt lat="44.031098219032444" lon="12.47034561711691"><ele>44.166666666666664</ele><time>2026-04-11T07:22:52Z</time></trkpt><trkpt lat="44.03105456289707" lon="12.470269582663763"><ele>44.33333333333333</ele><time>2026-04-11T07:22:53Z</time></trkpt><trkpt lat="44.03098036952206" lon="12.470147364490336"><ele>44.5</ele><time>2026-04-11T07:22:55Z</time></trkpt><trkpt lat="44.03092065858121" lon="12.470048422900568"><ele>44.666666666666664</ele><time>2026-04-11T07:22:57Z</time></trkpt><trkpt lat="44.030870131314465" lon="12.469972912379227"><ele>44.833333333333336</ele><time>2026-04-11T07:22:59Z</time></trkpt><trkpt lat="44.030812904175654" lon="12.469881186668758"><ele>45.0</ele><time>2026-04-11T07:23:02Z</time></trkpt><trkpt lat="44.030741922308856" lon="12.469759510913693"><ele>45.166666666666664</ele><time>2026-04-11T07:23:04Z</time></trkpt><trkpt lat="44.030695502869484" lon="12.469691196363128"><ele>45.333333333333336</ele><time>2026-04-11T07:23:05Z</time></trkpt><trkpt lat="44.030642170140844" lon="12.469616481142666"><ele>45.5</ele><time>2026-04-11T07:23:06Z</time></trkpt><trkpt lat="44.03058350706951" lon="12.469529247058317"><ele>45.66666666666667</ele><time>2026-04-11T07:23:07Z</time></trkpt><trkpt lat="44.03053005613419" lon="12.469437796325865"><ele>45.833333333333336</ele><time>2026-04-11T07:23:08Z</time></trkpt><trkpt lat="44.03047175440556" lon="12.469341721919694"><ele>46.0</ele><time>2026-04-11T07:23:09Z</time></trkpt><trkpt lat="44.030406948733464" lon="12.469242798944682"><ele>46.5</ele><time>2026-04-11T07:23:10Z</time></trkpt><trkpt lat="44.03033670052852" lon="12.469136052607151"><ele>47.0</ele><time>2026-04-11T07:23:11Z</time></trkpt><trkpt lat="44.03026386618188" lon="12.469020759133576"><ele>47.5</ele><time>2026-04-11T07:23:12Z</time></trkpt><trkpt lat="44.03018340333526" lon="12.468903098239975"><ele>48.0</ele><time>2026-04-11T07:23:13Z</time></trkpt><trkpt lat="44.03010171094202" lon="12.468777548616094"><ele>48.0</ele><time>2026-04-11T07:23:14Z</time></trkpt><trkpt lat="44.030019631147724" lon="12.468642036665615"><ele>48.0</ele><time>2026-04-11T07:23:15Z</time></trkpt><trkpt lat="44.0299372747584" lon="12.468510535506468"><ele>48.0</ele><time>2026-04-11T07:23:16Z</time></trkpt><trkpt lat="44.0298624054524" lon="12.468385701881965"><ele>48.0</ele><time>2026-04-11T07:23:17Z</time></trkpt><trkpt lat="44.029786605299385" lon="12.468270413321656"><ele>47.75</ele><time>2026-04-11T07:23:18Z</time></trkpt><trkpt lat="44.02971158935508" lon="12.4681541827828"><ele>47.5</ele><time>2026-04-11T07:23:19Z</time></trkpt><trkpt lat="44.02963532305228" lon="12.468032894024086"><ele>47.25</ele><time>2026-04-11T07:23:20Z</time></trkpt><trkpt lat="44.02956156173503" lon="12.467906764638029"><ele>47.0</ele><time>2026-04-11T07:23:21Z</time></trkpt><trkpt lat="44.02948782582408" lon="12.467781783648185"><ele>47.0</ele><time>2026-04-11T07:23:22Z</time></trkpt><trkpt lat="44.02940955923636" lon="12.467653171245667"><ele>47.0</ele><time>2026-04-11T07:23:23Z</time></trkpt><trkpt lat="44.02932982639602" lon="12.467519290348035"><ele>47.0</ele><time>2026-04-11T07:23:24Z</time></trkpt><trkpt lat="44.02925326791081" lon="12.467384624696608"><ele>47.0</ele><time>2026-04-11T07:23:25Z</time></trkpt><trkpt lat="44.02917947268653" lon="12.467260892540432"><ele>47.0</ele><time>2026-04-11T07:23:26Z</time></trkpt><trkpt lat="44.02911137623962" lon="12.467138320916028"><ele>47.0</ele><time>2026-04-11T07:23:27Z</time></trkpt><trkpt lat="44.029046504283556" lon="12.467021928986796"><ele>47.0</ele><time>2026-04-11T07:23:28Z</time></trkpt><trkpt lat="44.02898484110102" lon="12.466910550988258"><ele>47.0</ele><time>2026-04-11T07:23:29Z</time></trkpt><trkpt lat="44.02892999023783" lon="12.466804844498823"><ele>47.0</ele><time>2026-04-11T07:23:30Z</time></trkpt><trkpt lat="44.02888718224809" lon="12.46671428762188"><ele>47.0</ele><time>2026-04-11T07:23:31Z</time></trkpt><trkpt lat="44.0288533558303" lon="12.466634586384151"><ele>47.0</ele><time>2026-04-11T07:23:32Z</time></trkpt><trkpt lat="44.028788519084245" lon="12.466512083447652"><ele>47.0</ele><time>2026-04-11T07:23:34Z</time></trkpt><trkpt lat="44.02871418983216" lon="12.466402978926151"><ele>47.0</ele><time>2026-04-11T07:23:36Z</time></trkpt><trkpt lat="44.02867282961116" lon="12.466332640879925"><ele>47.0</ele><time>2026-04-11T07:23:37Z</time></trkpt><trkpt lat="44.028622774688024" lon="12.466250658375222"><ele>47.0</ele><time>2026-04-11T07:23:38Z</time></trkpt><trkpt lat="44.02856744469805" lon="12.466155381726328"><ele>47.0</ele><time>2026-04-11T07:23:39Z</time></trkpt><trkpt lat="44.0285131391269" lon="12.466057075398753"><ele>47.0</ele><time>2026-04-11T07:23:40Z</time></trkpt><trkpt lat="44.028452420337636" lon="12.46594983621263"><ele>47.0</ele><time>2026-04-11T07:23:41Z</time></trkpt><trkpt lat="44.02838422203167" lon="12.465833141347206"><ele>47.0</ele><time>2026-04-11T07:23:42Z</time></trkpt><trkpt lat="44.028314472612315" lon="12.465701961008081"><ele>47.0</ele><time>2026-04-11T07:23:43Z</time></trkpt><trkpt lat="44.02823990887866" lon="12.465562116357466"><ele>47.25</ele><time>2026-04-11T07:23:44Z</time></trkpt><trkpt lat="44.02816174476781" lon="12.465418756229049"><ele>47.5</ele><time>2026-04-11T07:23:45Z</time></trkpt><trkpt lat="44.02808611966386" lon="12.465281132348096"><ele>47.75</ele><time>2026-04-11T07:23:46Z</time></trkpt><trkpt lat="44.02801138173398" lon="12.465144862837734"><ele>48.0</ele><time>2026-04-11T07:23:47Z</time></trkpt><trkpt lat="44.027936679802195" lon="12.465015941087364"><ele>48.0</ele><time>2026-04-11T07:23:48Z</time></trkpt><trkpt lat="44.027862126466935" lon="12.464880786863816"><ele>48.0</ele><time>2026-04-11T07:23:49Z</time></trkpt><trkpt lat="44.027791899961784" lon="12.464749521717756"><ele>48.0</ele><time>2026-04-11T07:23:50Z</time></trkpt><trkpt lat="44.0277221804441" lon="12.464626127122358"><ele>48.0</ele><time>2026-04-11T07:23:51Z</time></trkpt><trkpt lat="44.02765576804585" lon="12.464504564786846"><ele>48.599999999999994</ele><time>2026-04-11T07:23:52Z</time></trkpt><trkpt lat="44.02759164655257" lon="12.46438120300012"><ele>49.199999999999996</ele><time>2026-04-11T07:23:53Z</time></trkpt><trkpt lat="44.027525029929585" lon="12.464252765971278"><ele>49.8</ele><time>2026-04-11T07:23:54Z</time></trkpt><trkpt lat="44.02745601682974" lon="12.46413527947795"><ele>50.4</ele><time>2026-04-11T07:23:55Z</time></trkpt><trkpt lat="44.027390936648324" lon="12.464021700650449"><ele>51.0</ele><time>2026-04-11T07:23:56Z</time></trkpt><trkpt lat="44.027334541073365" lon="12.463912889891944"><ele>51.0</ele><time>2026-04-11T07:23:57Z</time></trkpt><trkpt lat="44.027279588210156" lon="12.463810069179205"><ele>51.0</ele><time>2026-04-11T07:23:58Z</time></trkpt><trkpt lat="44.02723101840266" lon="12.46372179870458"><ele>51.0</ele><time>2026-04-11T07:23:59Z</time></trkpt><trkpt lat="44.02718747949831" lon="12.463644538284152"><ele>51.0</ele><time>2026-04-11T07:24:00Z</time></trkpt><trkpt lat="44.02713390258537" lon="12.463516219850016"><ele>51.0</ele><time>2026-04-11T07:24:02Z</time></trkpt><trkpt lat="44.02709958244376" lon="12.463426752673692"><ele>51.0</ele><time>2026-04-11T07:24:04.999Z</time></trkpt><trkpt lat="44.02703651799754" lon="12.46332819348399"><ele>51.0</ele><time>2026-04-11T07:25:24Z</time></trkpt><trkpt lat="44.026964157153365" lon="12.463200833527491"><ele>51.0</ele><time>2026-04-11T07:25:26Z</time></trkpt><trkpt lat="44.02691479324642" lon="12.46312529623549"><ele>51.0</ele><time>2026-04-11T07:25:27Z</time></trkpt><trkpt lat="44.026857571676516" lon="12.463033595952256"><ele>51.0</ele><time>2026-04-11T07:25:28Z</time></trkpt><trkpt lat="44.02679810372913" lon="12.46292891129281"><ele>51.0</ele><time>2026-04-11T07:25:29Z</time></trkpt><trkpt lat="44.02673927248717" lon="12.462821769082993"><ele>51.0</ele><time>2026-04-11T07:25:30Z</time></trkpt><trkpt lat="44.02667459283397" lon="12.462705760545967"><ele>51.0</ele><time>2026-04-11T07:25:31Z</time></trkpt><trkpt lat="44.02660414625723" lon="12.46258119074212"><ele>51.0</ele><time>2026-04-11T07:25:32Z</time></trkpt><trkpt lat="44.02653366831075" lon="12.462453947843587"><ele>51.0</ele><time>2026-04-11T07:25:33Z</time></trkpt><trkpt lat="44.026463326856124" lon="12.462323934669083"><ele>51.25</ele><time>2026-04-11T07:25:34Z</time></trkpt><trkpt lat="44.026390897132906" lon="12.462196791323896"><ele>51.5</ele><time>2026-04-11T07:25:35Z</time></trkpt><trkpt lat="44.02632358102295" lon="12.462077887272835"><ele>51.75</ele><time>2026-04-11T07:25:36Z</time></trkpt><trkpt lat="44.02625069186192" lon="12.461958807472916"><ele>52.0</ele><time>2026-04-11T07:25:37Z</time></trkpt><trkpt lat="44.02617452320375" lon="12.461837175023312"><ele>52.0</ele><time>2026-04-11T07:25:38Z</time></trkpt><trkpt lat="44.02610025585493" lon="12.461708359444417"><ele>52.0</ele><time>2026-04-11T07:25:39Z</time></trkpt><trkpt lat="44.02602127300106" lon="12.461590297695874"><ele>52.0</ele><time>2026-04-11T07:25:40Z</time></trkpt><trkpt lat="44.02593814810777" lon="12.461472683855058"><ele>52.0</ele><time>2026-04-11T07:25:41Z</time></trkpt><trkpt lat="44.02585137828746" lon="12.461350355053842"><ele>52.5</ele><time>2026-04-11T07:25:42Z</time></trkpt><trkpt lat="44.02576129057205" lon="12.461226786202225"><ele>53.0</ele><time>2026-04-11T07:25:43Z</time></trkpt><trkpt lat="44.02567189392842" lon="12.46111103133288"><ele>53.5</ele><time>2026-04-11T07:25:44Z</time></trkpt><trkpt lat="44.0255821702484" lon="12.46100440312665"><ele>54.0</ele><time>2026-04-11T07:25:45Z</time></trkpt><trkpt lat="44.0255019884816" lon="12.460901004342052"><ele>54.0</ele><time>2026-04-11T07:25:46Z</time></trkpt><trkpt lat="44.02543931816096" lon="12.460807512846666"><ele>54.0</ele><time>2026-04-11T07:25:47Z</time></trkpt><trkpt lat="44.02540229046693" lon="12.460715886978825"><ele>54.0</ele><time>2026-04-11T07:25:48Z</time></trkpt><trkpt lat="44.02539202030464" lon="12.46062736434567"><ele>54.0</ele><time>2026-04-11T07:25:49Z</time></trkpt><trkpt lat="44.02541683194273" lon="12.460453163138034"><ele>54.0</ele><time>2026-04-11T07:25:51Z</time></trkpt><trkpt lat="44.02545502490722" lon="12.460356678125407"><ele>54.0</ele><time>2026-04-11T07:25:52Z</time></trkpt><trkpt lat="44.02548708127374" lon="12.460243559114799"><ele>53.800000000000004</ele><time>2026-04-11T07:25:53Z</time></trkpt><trkpt lat="44.02550326634585" lon="12.460128829326974"><ele>53.60000000000001</ele><time>2026-04-11T07:25:54Z</time></trkpt><trkpt lat="44.0255068012447" lon="12.460013444807617"><ele>53.4</ele><time>2026-04-11T07:25:55Z</time></trkpt><trkpt lat="44.025491957737536" lon="12.459902566713735"><ele>53.2</ele><time>2026-04-11T07:25:56Z</time></trkpt><trkpt lat="44.025548556661974" lon="12.45977542221304"><ele>53.0</ele><time>2026-04-11T07:25:57Z</time></trkpt><trkpt lat="44.025622345631184" lon="12.459668565529771"><ele>53.0</ele><time>2026-04-11T07:25:58Z</time></trkpt><trkpt lat="44.02568087304217" lon="12.459532881795585"><ele>53.0</ele><time>2026-04-11T07:25:59Z</time></trkpt><trkpt lat="44.02575461044478" lon="12.459407592110155"><ele>53.0</ele><time>2026-04-11T07:26:00Z</time></trkpt><trkpt lat="44.02582157345911" lon="12.45927563322365"><ele>53.0</ele><time>2026-04-11T07:26:01Z</time></trkpt><trkpt lat="44.0258856157341" lon="12.45913454498807"><ele>53.0</ele><time>2026-04-11T07:26:02Z</time></trkpt><trkpt lat="44.025942772018645" lon="12.458977647757333"><ele>53.0</ele><time>2026-04-11T07:26:03Z</time></trkpt><trkpt lat="44.02599320948071" lon="12.458815671622004"><ele>53.0</ele><time>2026-04-11T07:26:04Z</time></trkpt><trkpt lat="44.0260300117523" lon="12.45865684487012"><ele>53.0</ele><time>2026-04-11T07:26:05Z</time></trkpt><trkpt lat="44.02604868525868" lon="12.458485481794877"><ele>53.0</ele><time>2026-04-11T07:26:06Z</time></trkpt><trkpt lat="44.026057678527025" lon="12.458305450254924"><ele>53.0</ele><time>2026-04-11T07:26:07Z</time></trkpt><trkpt lat="44.026056156041015" lon="12.458128837197254"><ele>53.0</ele><time>2026-04-11T07:26:08Z</time></trkpt><trkpt lat="44.026039351608595" lon="12.457957484829011"><ele>53.0</ele><time>2026-04-11T07:26:08.999Z</time></trkpt><trkpt lat="44.02601530799646" lon="12.457782035418823"><ele>53.25</ele><time>2026-04-11T07:26:09.999Z</time></trkpt><trkpt lat="44.02598326857729" lon="12.457609491364071"><ele>53.5</ele><time>2026-04-11T07:26:10.999Z</time></trkpt><trkpt lat="44.025936718188234" lon="12.457442089774988"><ele>53.75</ele><time>2026-04-11T07:26:11.999Z</time></trkpt><trkpt lat="44.025878469789426" lon="12.457278710490886"><ele>54.0</ele><time>2026-04-11T07:26:12.999Z</time></trkpt><trkpt lat="44.02581432503474" lon="12.457127251237809"><ele>54.0</ele><time>2026-04-11T07:26:13.999Z</time></trkpt><trkpt lat="44.02574213462173" lon="12.456985440145099"><ele>54.0</ele><time>2026-04-11T07:26:14.999Z</time></trkpt><trkpt lat="44.025664193729185" lon="12.456857531816036"><ele>54.0</ele><time>2026-04-11T07:26:15.999Z</time></trkpt><trkpt lat="44.02557927439055" lon="12.456729611517645"><ele>54.0</ele><time>2026-04-11T07:26:16.999Z</time></trkpt><trkpt lat="44.02549468823154" lon="12.456600011631336"><ele>54.0</ele><time>2026-04-11T07:26:17.999Z</time></trkpt><trkpt lat="44.0254116985605" lon="12.456473176389178"><ele>54.0</ele><time>2026-04-11T07:26:18.999Z</time></trkpt><trkpt lat="44.02533387977976" lon="12.456354792764419"><ele>54.0</ele><time>2026-04-11T07:26:19.999Z</time></trkpt><trkpt lat="44.025261472593684" lon="12.45623889721602"><ele>54.0</ele><time>2026-04-11T07:26:20.999Z</time></trkpt><trkpt lat="44.02518539123615" lon="12.45612269627218"><ele>54.400000000000006</ele><time>2026-04-11T07:26:21.999Z</time></trkpt><trkpt lat="44.025110878694974" lon="12.456007125623008"><ele>54.800000000000004</ele><time>2026-04-11T07:26:22.999Z</time></trkpt><trkpt lat="44.02503614431767" lon="12.455892708483912"><ele>55.199999999999996</ele><time>2026-04-11T07:26:23.999Z</time></trkpt><trkpt lat="44.02496330771938" lon="12.455782847866127"><ele>55.599999999999994</ele><time>2026-04-11T07:26:24.999Z</time></trkpt><trkpt lat="44.024888708013165" lon="12.455671489739746"><ele>56.0</ele><time>2026-04-11T07:26:25.999Z</time></trkpt><trkpt lat="44.02481567339758" lon="12.455559488483456"><ele>56.0</ele><time>2026-04-11T07:26:26.999Z</time></trkpt><trkpt lat="44.024744101490526" lon="12.455445793664365"><ele>55.99999999999999</ele><time>2026-04-11T07:26:27.999Z</time></trkpt><trkpt lat="44.024671234724956" lon="12.455332455143036"><ele>55.99999999999999</ele><time>2026-04-11T07:26:28.999Z</time></trkpt><trkpt lat="44.02459763414309" lon="12.455220723604535"><ele>56.0</ele><time>2026-04-11T07:26:29.999Z</time></trkpt><trkpt lat="44.024525481327444" lon="12.455108107469204"><ele>56.0</ele><time>2026-04-11T07:26:30.999Z</time></trkpt><trkpt lat="44.02445744012107" lon="12.45499587811884"><ele>56.0</ele><time>2026-04-11T07:26:31.999Z</time></trkpt><trkpt lat="44.024390372164774" lon="12.45487976867235"><ele>55.99999999999999</ele><time>2026-04-11T07:26:32.999Z</time></trkpt><trkpt lat="44.02431998308682" lon="12.454764194423346"><ele>55.99999999999999</ele><time>2026-04-11T07:26:33.999Z</time></trkpt><trkpt lat="44.0242487619302" lon="12.454647132423966"><ele>56.0</ele><time>2026-04-11T07:26:34.999Z</time></trkpt><trkpt lat="44.02417577672632" lon="12.454524609031743"><ele>56.0</ele><time>2026-04-11T07:26:35.999Z</time></trkpt><trkpt lat="44.02410209324866" lon="12.454399393622639"><ele>56.25</ele><time>2026-04-11T07:26:36.999Z</time></trkpt><trkpt lat="44.024030067498565" lon="12.454274596652665"><ele>56.5</ele><time>2026-04-11T07:26:37.999Z</time></trkpt><trkpt lat="44.023964834149815" lon="12.454141304533223"><ele>56.75</ele><time>2026-04-11T07:26:38.999Z</time></trkpt><trkpt lat="44.02389666913818" lon="12.454008052736967"><ele>57.0</ele><time>2026-04-11T07:26:39.999Z</time></trkpt><trkpt lat="44.023825732719104" lon="12.453879136679452"><ele>57.0</ele><time>2026-04-11T07:26:40.999Z</time></trkpt><trkpt lat="44.02375946386738" lon="12.453752630947058"><ele>57.0</ele><time>2026-04-11T07:26:41.999Z</time></trkpt><trkpt lat="44.02368893570444" lon="12.453630895633085"><ele>57.0</ele><time>2026-04-11T07:26:42.999Z</time></trkpt><trkpt lat="44.023624419849575" lon="12.4535163728671"><ele>57.0</ele><time>2026-04-11T07:26:43.999Z</time></trkpt><trkpt lat="44.02356386870086" lon="12.45340181081253"><ele>57.0</ele><time>2026-04-11T07:26:44.999Z</time></trkpt><trkpt lat="44.02350102067894" lon="12.453286955965165"><ele>57.0</ele><time>2026-04-11T07:26:45.999Z</time></trkpt><trkpt lat="44.02343889175679" lon="12.453172384645303"><ele>57.0</ele><time>2026-04-11T07:26:47Z</time></trkpt><trkpt lat="44.02337691252078" lon="12.453057432326677"><ele>57.0</ele><time>2026-04-11T07:26:48Z</time></trkpt><trkpt lat="44.02331583223656" lon="12.452941143293696"><ele>57.0</ele><time>2026-04-11T07:26:49Z</time></trkpt><trkpt lat="44.02325467075889" lon="12.452825094256607"><ele>57.0</ele><time>2026-04-11T07:26:50Z</time></trkpt><trkpt lat="44.02319214264527" lon="12.45270957028092"><ele>57.6</ele><time>2026-04-11T07:26:51Z</time></trkpt><trkpt lat="44.02312915317732" lon="12.452593729891843"><ele>58.2</ele><time>2026-04-11T07:26:52Z</time></trkpt><trkpt lat="44.02306508950889" lon="12.452476279168552"><ele>58.8</ele><time>2026-04-11T07:26:53Z</time></trkpt><trkpt lat="44.02300110562063" lon="12.452357218346526"><ele>59.4</ele><time>2026-04-11T07:26:54Z</time></trkpt><trkpt lat="44.02293895491847" lon="12.452241989105023"><ele>60.0</ele><time>2026-04-11T07:26:55Z</time></trkpt><trkpt lat="44.022878187570726" lon="12.452132642846234"><ele>60.0</ele><time>2026-04-11T07:26:56Z</time></trkpt><trkpt lat="44.022817319587205" lon="12.452022260903554"><ele>60.0</ele><time>2026-04-11T07:26:57Z</time></trkpt><trkpt lat="44.0227570657318" lon="12.451919284224013"><ele>60.0</ele><time>2026-04-11T07:26:58Z</time></trkpt><trkpt lat="44.02270406415444" lon="12.451822244527925"><ele>60.0</ele><time>2026-04-11T07:26:59Z</time></trkpt><trkpt lat="44.02265858673983" lon="12.451719499339031"><ele>60.0</ele><time>2026-04-11T07:27:00Z</time></trkpt><trkpt lat="44.02262243660181" lon="12.45160436615733"><ele>60.0</ele><time>2026-04-11T07:27:01Z</time></trkpt><trkpt lat="44.02260708729002" lon="12.451479445763521"><ele>60.0</ele><time>2026-04-11T07:27:02Z</time></trkpt><trkpt lat="44.02260434506048" lon="12.451355958113126"><ele>60.0</ele><time>2026-04-11T07:27:03Z</time></trkpt><trkpt lat="44.02258372207755" lon="12.451243535918895"><ele>60.0</ele><time>2026-04-11T07:27:04Z</time></trkpt><trkpt lat="44.02252336380853" lon="12.451165157691465"><ele>60.0</ele><time>2026-04-11T07:27:05Z</time></trkpt><trkpt lat="44.02243517221537" lon="12.451121909669798"><ele>60.0</ele><time>2026-04-11T07:27:06Z</time></trkpt><trkpt lat="44.02235726884897" lon="12.451076032903734"><ele>60.4</ele><time>2026-04-11T07:27:07Z</time></trkpt><trkpt lat="44.022275306211355" lon="12.451026660847225"><ele>60.8</ele><time>2026-04-11T07:27:08Z</time></trkpt><trkpt lat="44.02219460161152" lon="12.450983600195457"><ele>61.2</ele><time>2026-04-11T07:27:09Z</time></trkpt><trkpt lat="44.02213802038209" lon="12.450850152439207"><ele>61.6</ele><time>2026-04-11T07:27:10Z</time></trkpt><trkpt lat="44.022072476863435" lon="12.450737103476705"><ele>62.0</ele><time>2026-04-11T07:27:11Z</time></trkpt><trkpt lat="44.02199920063096" lon="12.450620691571842"><ele>62.0</ele><time>2026-04-11T07:27:12Z</time></trkpt><trkpt lat="44.02191850135524" lon="12.450498418645761"><ele>62.0</ele><time>2026-04-11T07:27:13Z</time></trkpt><trkpt lat="44.02183257612478" lon="12.450375324725261"><ele>62.0</ele><time>2026-04-11T07:27:14Z</time></trkpt><trkpt lat="44.0217420880296" lon="12.450247662239397"><ele>62.0</ele><time>2026-04-11T07:27:15Z</time></trkpt><trkpt lat="44.02164738593783" lon="12.450119307574608"><ele>62.5</ele><time>2026-04-11T07:27:16Z</time></trkpt><trkpt lat="44.02154927693431" lon="12.449992012817782"><ele>63.0</ele><time>2026-04-11T07:27:17Z</time></trkpt><trkpt lat="44.021454461059385" lon="12.449868003555483"><ele>63.5</ele><time>2026-04-11T07:27:18Z</time></trkpt><trkpt lat="44.02135965458467" lon="12.449747025207078"><ele>64.0</ele><time>2026-04-11T07:27:19Z</time></trkpt><trkpt lat="44.02126927237578" lon="12.449633229960506"><ele>63.5</ele><time>2026-04-11T07:27:20Z</time></trkpt><trkpt lat="44.021182274390846" lon="12.449519224499548"><ele>63.0</ele><time>2026-04-11T07:27:21Z</time></trkpt><trkpt lat="44.02109991432232" lon="12.44940887827993"><ele>62.5</ele><time>2026-04-11T07:27:22Z</time></trkpt><trkpt lat="44.021019637349596" lon="12.449303778312077"><ele>62.0</ele><time>2026-04-11T07:27:23Z</time></trkpt><trkpt lat="44.020937012224" lon="12.449193953116048"><ele>62.0</ele><time>2026-04-11T07:27:24Z</time></trkpt><trkpt lat="44.02085241765706" lon="12.449083296629551"><ele>62.0</ele><time>2026-04-11T07:27:25Z</time></trkpt><trkpt lat="44.02076567237876" lon="12.448971626932547"><ele>62.0</ele><time>2026-04-11T07:27:26Z</time></trkpt><trkpt lat="44.02067854204799" lon="12.448854596540047"><ele>62.0</ele><time>2026-04-11T07:27:27Z</time></trkpt><trkpt lat="44.020590176348506" lon="12.448737402863516"><ele>62.75</ele><time>2026-04-11T07:27:28Z</time></trkpt><trkpt lat="44.02050106638197" lon="12.448619333824672"><ele>63.5</ele><time>2026-04-11T07:27:29Z</time></trkpt><trkpt lat="44.02041501493268" lon="12.44850244430067"><ele>64.25</ele><time>2026-04-11T07:27:30Z</time></trkpt><trkpt lat="44.020326480075845" lon="12.448387531925095"><ele>65.0</ele><time>2026-04-11T07:27:31Z</time></trkpt><trkpt lat="44.020237131710864" lon="12.448271497978222"><ele>65.0</ele><time>2026-04-11T07:27:32Z</time></trkpt><trkpt lat="44.020145456290244" lon="12.448154543379466"><ele>65.0</ele><time>2026-04-11T07:27:33Z</time></trkpt><trkpt lat="44.020051660002025" lon="12.448042744349742"><ele>65.0</ele><time>2026-04-11T07:27:34Z</time></trkpt><trkpt lat="44.01995428130924" lon="12.447937132798174"><ele>65.0</ele><time>2026-04-11T07:27:35Z</time></trkpt><trkpt lat="44.01985649157099" lon="12.447843391734649"><ele>64.75</ele><time>2026-04-11T07:27:36Z</time></trkpt><trkpt lat="44.019755930774004" lon="12.447750551802649"><ele>64.5</ele><time>2026-04-11T07:27:37Z</time></trkpt><trkpt lat="44.01965227544941" lon="12.44765715823658"><ele>64.25</ele><time>2026-04-11T07:27:38Z</time></trkpt><trkpt lat="44.01955293361313" lon="12.447574609925072"><ele>64.0</ele><time>2026-04-11T07:27:39Z</time></trkpt><trkpt lat="44.019456555038445" lon="12.447500363061168"><ele>64.0</ele><time>2026-04-11T07:27:40Z</time></trkpt><trkpt lat="44.019359238093585" lon="12.4474282009244"><ele>64.0</ele><time>2026-04-11T07:27:41Z</time></trkpt><trkpt lat="44.01926223908439" lon="12.447359587240237"><ele>64.0</ele><time>2026-04-11T07:27:42Z</time></trkpt><trkpt lat="44.01916760887797" lon="12.447296518941183"><ele>64.0</ele><time>2026-04-11T07:27:43Z</time></trkpt><trkpt lat="44.01907069924369" lon="12.447235873125106"><ele>64.0</ele><time>2026-04-11T07:27:44Z</time></trkpt><trkpt lat="44.01897283315819" lon="12.44717951188918"><ele>64.2</ele><time>2026-04-11T07:27:45Z</time></trkpt><trkpt lat="44.018876769500295" lon="12.447128077082574"><ele>64.4</ele><time>2026-04-11T07:27:46Z</time></trkpt><trkpt lat="44.018783481547196" lon="12.447082120680525"><ele>64.6</ele><time>2026-04-11T07:27:47Z</time></trkpt><trkpt lat="44.01869423802002" lon="12.447038004736193"><ele>64.8</ele><time>2026-04-11T07:27:48Z</time></trkpt><trkpt lat="44.01860897299852" lon="12.446995243272854"><ele>65.0</ele><time>2026-04-11T07:27:49Z</time></trkpt><trkpt lat="44.01852710909687" lon="12.446958349688895"><ele>65.0</ele><time>2026-04-11T07:27:50Z</time></trkpt><trkpt lat="44.01844550061555" lon="12.446919013718794"><ele>65.0</ele><time>2026-04-11T07:27:51Z</time></trkpt><trkpt lat="44.01836323308751" lon="12.44688445535799"><ele>65.0</ele><time>2026-04-11T07:27:52Z</time></trkpt><trkpt lat="44.01830353131814" lon="12.446775793421452"><ele>65.0</ele><time>2026-04-11T07:27:53Z</time></trkpt><trkpt lat="44.01823941684926" lon="12.446685216592096"><ele>65.0</ele><time>2026-04-11T07:27:54Z</time></trkpt><trkpt lat="44.01816140302343" lon="12.44660565843042"><ele>65.2</ele><time>2026-04-11T07:27:55Z</time></trkpt><trkpt lat="44.01806870540984" lon="12.446578094082243"><ele>65.4</ele><time>2026-04-11T07:27:56Z</time></trkpt><trkpt lat="44.01796614964403" lon="12.446585634047418"><ele>65.6</ele><time>2026-04-11T07:27:57Z</time></trkpt><trkpt lat="44.01786339302406" lon="12.446606816175123"><ele>65.8</ele><time>2026-04-11T07:27:58Z</time></trkpt><trkpt lat="44.017754421455514" lon="12.446596464645301"><ele>66.0</ele><time>2026-04-11T07:27:59Z</time></trkpt><trkpt lat="44.0176435886922" lon="12.446554116606594"><ele>66.0</ele><time>2026-04-11T07:28:00Z</time></trkpt><trkpt lat="44.01753378883887" lon="12.44650066532486"><ele>66.0</ele><time>2026-04-11T07:28:01Z</time></trkpt><trkpt lat="44.01742116365509" lon="12.446448104308251"><ele>66.0</ele><time>2026-04-11T07:28:02Z</time></trkpt><trkpt lat="44.01730967241101" lon="12.44639165142088"><ele>66.0</ele><time>2026-04-11T07:28:03Z</time></trkpt><trkpt lat="44.01719776608236" lon="12.446336629644051"><ele>66.0</ele><time>2026-04-11T07:28:04Z</time></trkpt><trkpt lat="44.01708339761657" lon="12.446284249710944"><ele>66.0</ele><time>2026-04-11T07:28:05Z</time></trkpt><trkpt lat="44.01696937586449" lon="12.44623092487569"><ele>66.0</ele><time>2026-04-11T07:28:06Z</time></trkpt><trkpt lat="44.016853860980284" lon="12.446178355594093"><ele>66.0</ele><time>2026-04-11T07:28:07Z</time></trkpt><trkpt lat="44.016736322644775" lon="12.446121867836478"><ele>66.75</ele><time>2026-04-11T07:28:08Z</time></trkpt><trkpt lat="44.01661556141276" lon="12.446063449335075"><ele>67.5</ele><time>2026-04-11T07:28:09Z</time></trkpt><trkpt lat="44.01649552260862" lon="12.446007664322368"><ele>68.25</ele><time>2026-04-11T07:28:10Z</time></trkpt><trkpt lat="44.01638038430009" lon="12.445959572412903"><ele>69.0</ele><time>2026-04-11T07:28:11Z</time></trkpt><trkpt lat="44.01627031535499" lon="12.445916256598714"><ele>69.0</ele><time>2026-04-11T07:28:12Z</time></trkpt><trkpt lat="44.01616315680355" lon="12.445876328389598"><ele>69.0</ele><time>2026-04-11T07:28:13Z</time></trkpt><trkpt lat="44.01605207178242" lon="12.445838213066645"><ele>69.0</ele><time>2026-04-11T07:28:14Z</time></trkpt><trkpt lat="44.01593914403907" lon="12.445800990984832"><ele>69.0</ele><time>2026-04-11T07:28:14.999Z</time></trkpt><trkpt lat="44.015823302168236" lon="12.445768516173052"><ele>69.25</ele><time>2026-04-11T07:28:15.999Z</time></trkpt><trkpt lat="44.015703826417244" lon="12.44574078809519"><ele>69.5</ele><time>2026-04-11T07:28:16.999Z</time></trkpt><trkpt lat="44.015577006199585" lon="12.445723317889557"><ele>69.75</ele><time>2026-04-11T07:28:17.999Z</time></trkpt><trkpt lat="44.0154489550937" lon="12.44571182659683"><ele>70.0</ele><time>2026-04-11T07:28:18.999Z</time></trkpt><trkpt lat="44.015317073764976" lon="12.445708385812383"><ele>70.0</ele><time>2026-04-11T07:28:19.999Z</time></trkpt><trkpt lat="44.015186284540924" lon="12.445713620239188"><ele>70.0</ele><time>2026-04-11T07:28:20.999Z</time></trkpt><trkpt lat="44.01506366850138" lon="12.445720668118778"><ele>70.0</ele><time>2026-04-11T07:28:21.999Z</time></trkpt><trkpt lat="44.014946049686706" lon="12.445732785405097"><ele>70.0</ele><time>2026-04-11T07:28:22.999Z</time></trkpt><trkpt lat="44.01482992200029" lon="12.445747383521375"><ele>70.5</ele><time>2026-04-11T07:28:23.999Z</time></trkpt><trkpt lat="44.01471473746702" lon="12.44577017904648"><ele>71.0</ele><time>2026-04-11T07:28:24.999Z</time></trkpt><trkpt lat="44.014596622974445" lon="12.445798768032004"><ele>71.5</ele><time>2026-04-11T07:28:25.999Z</time></trkpt><trkpt lat="44.014477416832186" lon="12.445832013732554"><ele>72.0</ele><time>2026-04-11T07:28:26.999Z</time></trkpt><trkpt lat="44.01435608217597" lon="12.4458695586775"><ele>72.0</ele><time>2026-04-11T07:28:27.999Z</time></trkpt><trkpt lat="44.014233676333134" lon="12.445908097478302"><ele>72.0</ele><time>2026-04-11T07:28:28.999Z</time></trkpt><trkpt lat="44.01411884677764" lon="12.445947072412528"><ele>72.0</ele><time>2026-04-11T07:28:29.999Z</time></trkpt><trkpt lat="44.01401242714685" lon="12.445987824281966"><ele>72.0</ele><time>2026-04-11T07:28:30.999Z</time></trkpt><trkpt lat="44.0139078879744" lon="12.446026134742445"><ele>71.8</ele><time>2026-04-11T07:28:31.999Z</time></trkpt><trkpt lat="44.01380235776961" lon="12.446064286720864"><ele>71.6</ele><time>2026-04-11T07:28:32.999Z</time></trkpt><trkpt lat="44.01369718010461" lon="12.446102411399043"><ele>71.39999999999999</ele><time>2026-04-11T07:28:33.999Z</time></trkpt><trkpt lat="44.0135954437794" lon="12.446141582354942"><ele>71.2</ele><time>2026-04-11T07:28:34.999Z</time></trkpt><trkpt lat="44.01349910105004" lon="12.446180329688099"><ele>71.0</ele><time>2026-04-11T07:28:35.999Z</time></trkpt><trkpt lat="44.01340906383836" lon="12.446215747427356"><ele>71.0</ele><time>2026-04-11T07:28:36.999Z</time></trkpt><trkpt lat="44.01332881174081" lon="12.446243491499029"><ele>71.0</ele><time>2026-04-11T07:28:37.999Z</time></trkpt><trkpt lat="44.013251323726486" lon="12.4462630295109"><ele>71.0</ele><time>2026-04-11T07:28:38.999Z</time></trkpt><trkpt lat="44.01315314488499" lon="12.446308819111994"><ele>71.0</ele><time>2026-04-11T07:28:40.999Z</time></trkpt><trkpt lat="44.01309600127649" lon="12.446195862545812"><ele>71.0</ele><time>2026-04-11T07:28:41.999Z</time></trkpt><trkpt lat="44.012993458064685" lon="12.446119224587585"><ele>71.16666666666667</ele><time>2026-04-11T07:28:43.999Z</time></trkpt><trkpt lat="44.012925783617625" lon="12.446108412978525"><ele>71.33333333333334</ele><time>2026-04-11T07:28:44.999Z</time></trkpt><trkpt lat="44.01285112857395" lon="12.446123750284805"><ele>71.5</ele><time>2026-04-11T07:28:45.999Z</time></trkpt><trkpt lat="44.01277501107983" lon="12.446162720445855"><ele>71.66666666666667</ele><time>2026-04-11T07:28:46.999Z</time></trkpt><trkpt lat="44.012705650119464" lon="12.446213800827117"><ele>71.83333333333333</ele><time>2026-04-11T07:28:47.999Z</time></trkpt><trkpt lat="44.012674421867715" lon="12.446302972004137"><ele>72.0</ele><time>2026-04-11T07:28:48.999Z</time></trkpt><trkpt lat="44.01255531425282" lon="12.446254257650654"><ele>73.0</ele><time>2026-04-11T07:28:49.999Z</time></trkpt><trkpt lat="44.012473782068405" lon="12.446226236416818"><ele>74.0</ele><time>2026-04-11T07:28:50.999Z</time></trkpt><trkpt lat="44.012395333557365" lon="12.446165751636938"><ele>75.0</ele><time>2026-04-11T07:28:51.999Z</time></trkpt><trkpt lat="44.01232047222472" lon="12.446086332820572"><ele>76.0</ele><time>2026-04-11T07:28:53Z</time></trkpt><trkpt lat="44.012247723969196" lon="12.445997071556219"><ele>77.0</ele><time>2026-04-11T07:28:54Z</time></trkpt><trkpt lat="44.01217304114684" lon="12.445903528491012"><ele>77.0</ele><time>2026-04-11T07:28:55Z</time></trkpt><trkpt lat="44.01209741382325" lon="12.44580123262706"><ele>77.0</ele><time>2026-04-11T07:28:56Z</time></trkpt><trkpt lat="44.01201813552131" lon="12.445691135167607"><ele>77.0</ele><time>2026-04-11T07:28:57Z</time></trkpt><trkpt lat="44.01193830799868" lon="12.4455796958649"><ele>77.0</ele><time>2026-04-11T07:28:58Z</time></trkpt><trkpt lat="44.01185931495192" lon="12.445474640777094"><ele>77.0</ele><time>2026-04-11T07:28:59Z</time></trkpt><trkpt lat="44.01177916908016" lon="12.445370884806414"><ele>76.5</ele><time>2026-04-11T07:29:00Z</time></trkpt><trkpt lat="44.01169775075294" lon="12.445263829550308"><ele>76.0</ele><time>2026-04-11T07:29:01Z</time></trkpt><trkpt lat="44.011615430815304" lon="12.445156322389629"><ele>75.5</ele><time>2026-04-11T07:29:02Z</time></trkpt><trkpt lat="44.011535697431505" lon="12.445047061540553"><ele>75.0</ele><time>2026-04-11T07:29:03Z</time></trkpt><trkpt lat="44.011451991060326" lon="12.444932651342576"><ele>76.5</ele><time>2026-04-11T07:29:04Z</time></trkpt><trkpt lat="44.01136518064281" lon="12.444814440529232"><ele>78.0</ele><time>2026-04-11T07:29:05Z</time></trkpt><trkpt lat="44.0112751684796" lon="12.444698247090981"><ele>79.5</ele><time>2026-04-11T07:29:06Z</time></trkpt><trkpt lat="44.01118286924185" lon="12.444579003822843"><ele>81.0</ele><time>2026-04-11T07:29:07Z</time></trkpt><trkpt lat="44.01108961854544" lon="12.444456562302571"><ele>81.0</ele><time>2026-04-11T07:29:08Z</time></trkpt><trkpt lat="44.01099833346495" lon="12.444334146969975"><ele>81.0</ele><time>2026-04-11T07:29:09Z</time></trkpt><trkpt lat="44.01090535991941" lon="12.44420992421014"><ele>81.0</ele><time>2026-04-11T07:29:10Z</time></trkpt><trkpt lat="44.0108106339662" lon="12.44408400249866"><ele>81.0</ele><time>2026-04-11T07:29:11Z</time></trkpt><trkpt lat="44.01071565331492" lon="12.443954694721578"><ele>80.75</ele><time>2026-04-11T07:29:12Z</time></trkpt><trkpt lat="44.01061822377593" lon="12.44383206219331"><ele>80.5</ele><time>2026-04-11T07:29:13Z</time></trkpt><trkpt lat="44.01052365748761" lon="12.443699756319733"><ele>80.25</ele><time>2026-04-11T07:29:14Z</time></trkpt><trkpt lat="44.010426928983236" lon="12.44356752041085"><ele>80.0</ele><time>2026-04-11T07:29:15Z</time></trkpt><trkpt lat="44.01032972253652" lon="12.443435194622735"><ele>80.0</ele><time>2026-04-11T07:29:16Z</time></trkpt><trkpt lat="44.01023134976625" lon="12.443303128314845"><ele>80.0</ele><time>2026-04-11T07:29:17Z</time></trkpt><trkpt lat="44.010132874386315" lon="12.443170939272578"><ele>80.0</ele><time>2026-04-11T07:29:18Z</time></trkpt><trkpt lat="44.01003444503365" lon="12.443038319917457"><ele>80.0</ele><time>2026-04-11T07:29:19Z</time></trkpt><trkpt lat="44.00993614439999" lon="12.442907651535943"><ele>80.0</ele><time>2026-04-11T07:29:20Z</time></trkpt><trkpt lat="44.00984268378961" lon="12.442782802417833"><ele>80.0</ele><time>2026-04-11T07:29:21Z</time></trkpt><trkpt lat="44.00975263039228" lon="12.442662277345175"><ele>80.0</ele><time>2026-04-11T07:29:22Z</time></trkpt><trkpt lat="44.009667754765736" lon="12.442545880698754"><ele>80.0</ele><time>2026-04-11T07:29:23Z</time></trkpt><trkpt lat="44.009584462117424" lon="12.442435569173703"><ele>80.0</ele><time>2026-04-11T07:29:24Z</time></trkpt><trkpt lat="44.00950033099315" lon="12.442328081753551"><ele>80.0</ele><time>2026-04-11T07:29:25Z</time></trkpt><trkpt lat="44.00942208654455" lon="12.44222275704475"><ele>80.0</ele><time>2026-04-11T07:29:26Z</time></trkpt><trkpt lat="44.009345244593426" lon="12.442117394979858"><ele>80.0</ele><time>2026-04-11T07:29:27Z</time></trkpt><trkpt lat="44.009266260541445" lon="12.442013979859789"><ele>80.0</ele><time>2026-04-11T07:29:28Z</time></trkpt><trkpt lat="44.00918747580219" lon="12.441907182994285"><ele>79.75</ele><time>2026-04-11T07:29:29Z</time></trkpt><trkpt lat="44.009105874437836" lon="12.441797106416987"><ele>79.5</ele><time>2026-04-11T07:29:30Z</time></trkpt><trkpt lat="44.00902323748875" lon="12.441681781316204"><ele>79.25</ele><time>2026-04-11T07:29:31Z</time></trkpt><trkpt lat="44.008937474034546" lon="12.44156580054388"><ele>79.0</ele><time>2026-04-11T07:29:32Z</time></trkpt><trkpt lat="44.008851460082866" lon="12.441450363422758"><ele>79.0</ele><time>2026-04-11T07:29:33Z</time></trkpt><trkpt lat="44.008767318727436" lon="12.441336210158067"><ele>79.0</ele><time>2026-04-11T07:29:34Z</time></trkpt><trkpt lat="44.00868547207651" lon="12.441222406154571"><ele>79.0</ele><time>2026-04-11T07:29:35Z</time></trkpt><trkpt lat="44.008604137805364" lon="12.441111866163466"><ele>79.0</ele><time>2026-04-11T07:29:36Z</time></trkpt><trkpt lat="44.00852370616802" lon="12.44100436498268"><ele>79.2</ele><time>2026-04-11T07:29:37Z</time></trkpt><trkpt lat="44.008443871151016" lon="12.440898486197502"><ele>79.4</ele><time>2026-04-11T07:29:38Z</time></trkpt><trkpt lat="44.008367875862" lon="12.440794514803596"><ele>79.6</ele><time>2026-04-11T07:29:39Z</time></trkpt><trkpt lat="44.00829556371911" lon="12.440694293104707"><ele>79.8</ele><time>2026-04-11T07:29:40Z</time></trkpt><trkpt lat="44.00822397048701" lon="12.440595550586723"><ele>80.0</ele><time>2026-04-11T07:29:41Z</time></trkpt><trkpt lat="44.00814404769113" lon="12.44049757375199"><ele>80.4</ele><time>2026-04-11T07:29:42Z</time></trkpt><trkpt lat="44.0080669850605" lon="12.440395174101035"><ele>80.8</ele><time>2026-04-11T07:29:43Z</time></trkpt><trkpt lat="44.00798779797391" lon="12.440287921771656"><ele>81.19999999999999</ele><time>2026-04-11T07:29:44Z</time></trkpt><trkpt lat="44.00790701990563" lon="12.440179841084833"><ele>81.6</ele><time>2026-04-11T07:29:45Z</time></trkpt><trkpt lat="44.0078298517487" lon="12.440073530051245"><ele>82.0</ele><time>2026-04-11T07:29:46Z</time></trkpt><trkpt lat="44.00775778764347" lon="12.439972403927918"><ele>82.0</ele><time>2026-04-11T07:29:47Z</time></trkpt><trkpt lat="44.007678182706876" lon="12.439866948967193"><ele>82.0</ele><time>2026-04-11T07:29:48Z</time></trkpt><trkpt lat="44.00759814048172" lon="12.439759003304609"><ele>82.0</ele><time>2026-04-11T07:29:49Z</time></trkpt><trkpt lat="44.00751500661229" lon="12.439654433749837"><ele>82.0</ele><time>2026-04-11T07:29:50Z</time></trkpt><trkpt lat="44.0074342736236" lon="12.439546893631812"><ele>82.0</ele><time>2026-04-11T07:29:51Z</time></trkpt><trkpt lat="44.0073511913794" lon="12.439437373992037"><ele>82.25</ele><time>2026-04-11T07:29:52Z</time></trkpt><trkpt lat="44.0072692268213" lon="12.439327299461596"><ele>82.5</ele><time>2026-04-11T07:29:53Z</time></trkpt><trkpt lat="44.00718804765158" lon="12.43921801663791"><ele>82.75</ele><time>2026-04-11T07:29:54Z</time></trkpt><trkpt lat="44.00710736407187" lon="12.439105525040263"><ele>83.0</ele><time>2026-04-11T07:29:55Z</time></trkpt><trkpt lat="44.0070264317316" lon="12.438991976076474"><ele>83.0</ele><time>2026-04-11T07:29:56Z</time></trkpt><trkpt lat="44.006941667667625" lon="12.438877960953564"><ele>83.0</ele><time>2026-04-11T07:29:57Z</time></trkpt><trkpt lat="44.006857278715984" lon="12.438770239190616"><ele>83.0</ele><time>2026-04-11T07:29:58Z</time></trkpt><trkpt lat="44.006778834897744" lon="12.438669307624057"><ele>83.0</ele><time>2026-04-11T07:29:59Z</time></trkpt><trkpt lat="44.006712883959636" lon="12.438581981776716"><ele>83.0</ele><time>2026-04-11T07:30:00Z</time></trkpt><trkpt lat="44.00665947272938" lon="12.438510114445569"><ele>83.4</ele><time>2026-04-11T07:30:01Z</time></trkpt><trkpt lat="44.00661377192646" lon="12.438443707526847"><ele>83.80000000000001</ele><time>2026-04-11T07:30:02Z</time></trkpt><trkpt lat="44.006554558715" lon="12.438292269510336"><ele>84.2</ele><time>2026-04-11T07:30:04Z</time></trkpt><trkpt lat="44.00651672801063" lon="12.438128615071772"><ele>84.6</ele><time>2026-04-11T07:30:06Z</time></trkpt><trkpt lat="44.00642055408699" lon="12.438011667642003"><ele>85.0</ele><time>2026-04-11T07:30:08Z</time></trkpt><trkpt lat="44.00634730854858" lon="12.437972877446374"><ele>85.0</ele><time>2026-04-11T07:30:09Z</time></trkpt><trkpt lat="44.00627014332125" lon="12.437931926475844"><ele>85.0</ele><time>2026-04-11T07:30:10Z</time></trkpt><trkpt lat="44.0062003205417" lon="12.43786797572749"><ele>85.0</ele><time>2026-04-11T07:30:11Z</time></trkpt><trkpt lat="44.00612365250257" lon="12.437782676439406"><ele>85.0</ele><time>2026-04-11T07:30:12Z</time></trkpt><trkpt lat="44.0060437682666" lon="12.437684622431936"><ele>85.0</ele><time>2026-04-11T07:30:13Z</time></trkpt><trkpt lat="44.00596382201027" lon="12.437575616055671"><ele>85.0</ele><time>2026-04-11T07:30:14Z</time></trkpt><trkpt lat="44.00588345068819" lon="12.437470690478007"><ele>85.0</ele><time>2026-04-11T07:30:15Z</time></trkpt><trkpt lat="44.00580392062384" lon="12.437361571749497"><ele>85.0</ele><time>2026-04-11T07:30:16Z</time></trkpt><trkpt lat="44.005724479771395" lon="12.437250780022076"><ele>85.0</ele><time>2026-04-11T07:30:17Z</time></trkpt><trkpt lat="44.00563949412159" lon="12.437140886368377"><ele>85.4</ele><time>2026-04-11T07:30:18Z</time></trkpt><trkpt lat="44.00555031798151" lon="12.437028101563618"><ele>85.8</ele><time>2026-04-11T07:30:19Z</time></trkpt><trkpt lat="44.00546770523718" lon="12.436917377354094"><ele>86.19999999999999</ele><time>2026-04-11T07:30:20Z</time></trkpt><trkpt lat="44.00539240901655" lon="12.436808602979006"><ele>86.6</ele><time>2026-04-11T07:30:20.999Z</time></trkpt><trkpt lat="44.005320164916725" lon="12.436707790282282"><ele>87.0</ele><time>2026-04-11T07:30:21.999Z</time></trkpt><trkpt lat="44.00525669632326" lon="12.43661855847291"><ele>87.0</ele><time>2026-04-11T07:30:22.999Z</time></trkpt><trkpt lat="44.00520506626769" lon="12.436542073532486"><ele>87.0</ele><time>2026-04-11T07:30:23.999Z</time></trkpt><trkpt lat="44.00515424520534" lon="12.436471896368365"><ele>87.0</ele><time>2026-04-11T07:30:24.999Z</time></trkpt><trkpt lat="44.00508099470627" lon="12.43637072366191"><ele>87.0</ele><time>2026-04-11T07:30:26.999Z</time></trkpt><trkpt lat="44.00500782435662" lon="12.436280003546235"><ele>87.0</ele><time>2026-04-11T07:30:28.999Z</time></trkpt><trkpt lat="44.004938679617375" lon="12.43620651279891"><ele>87.0</ele><time>2026-04-11T07:30:30.999Z</time></trkpt><trkpt lat="44.00485876796924" lon="12.43611276648773"><ele>87.33333333333333</ele><time>2026-04-11T07:30:32.999Z</time></trkpt><trkpt lat="44.00476945388861" lon="12.435988546608565"><ele>87.66666666666667</ele><time>2026-04-11T07:30:34.999Z</time></trkpt><trkpt lat="44.00472269671579" lon="12.435914456577965"><ele>88.0</ele><time>2026-04-11T07:30:35.999Z</time></trkpt><trkpt lat="44.00467622353714" lon="12.435845456381118"><ele>88.33333333333334</ele><time>2026-04-11T07:30:36.999Z</time></trkpt><trkpt lat="44.004632679555165" lon="12.43576892472079"><ele>88.66666666666667</ele><time>2026-04-11T07:30:37.999Z</time></trkpt><trkpt lat="44.004584948135886" lon="12.435695798139223"><ele>89.0</ele><time>2026-04-11T07:30:38.999Z</time></trkpt><trkpt lat="44.00453925414649" lon="12.435613147749505"><ele>88.99999999999999</ele><time>2026-04-11T07:30:39.999Z</time></trkpt><trkpt lat="44.0045121359861" lon="12.435523156175394"><ele>89.0</ele><time>2026-04-11T07:30:40.999Z</time></trkpt><trkpt lat="44.00446669145522" lon="12.435450132096788"><ele>89.0</ele><time>2026-04-11T07:30:41.999Z</time></trkpt><trkpt lat="44.00442584376743" lon="12.435371616789118"><ele>89.0</ele><time>2026-04-11T07:30:42.999Z</time></trkpt><trkpt lat="44.004383667268804" lon="12.435290736479951"><ele>89.0</ele><time>2026-04-11T07:30:43.999Z</time></trkpt><trkpt lat="44.00434601423959" lon="12.43521639233038"><ele>88.99999999999999</ele><time>2026-04-11T07:30:44.999Z</time></trkpt><trkpt lat="44.00431232061686" lon="12.435138851607292"><ele>89.0</ele><time>2026-04-11T07:30:45.999Z</time></trkpt><trkpt lat="44.00425128239161" lon="12.435013873747568"><ele>89.0</ele><time>2026-04-11T07:30:47.999Z</time></trkpt><trkpt lat="44.004178686553466" lon="12.434867440942973"><ele>89.0</ele><time>2026-04-11T07:30:49.999Z</time></trkpt><trkpt lat="44.00414771981449" lon="12.434778820409765"><ele>89.0</ele><time>2026-04-11T07:30:50.999Z</time></trkpt><trkpt lat="44.00410282071427" lon="12.434707467720237"><ele>89.0</ele><time>2026-04-11T07:30:51.999Z</time></trkpt><trkpt lat="44.00405035607423" lon="12.434617242812006"><ele>89.0</ele><time>2026-04-11T07:30:52.999Z</time></trkpt><trkpt lat="44.00399887544325" lon="12.434508943433915"><ele>89.0</ele><time>2026-04-11T07:30:53.999Z</time></trkpt><trkpt lat="44.00395580512659" lon="12.434409479590366"><ele>89.0</ele><time>2026-04-11T07:30:54.999Z</time></trkpt><trkpt lat="44.00390363960499" lon="12.434290204425507"><ele>89.0</ele><time>2026-04-11T07:30:55.999Z</time></trkpt><trkpt lat="44.003845105996824" lon="12.434179749253726"><ele>89.0</ele><time>2026-04-11T07:30:56.999Z</time></trkpt><trkpt lat="44.00378482775445" lon="12.434076655907484"><ele>89.0</ele><time>2026-04-11T07:30:58Z</time></trkpt><trkpt lat="44.00373113285073" lon="12.43398151621252"><ele>89.0</ele><time>2026-04-11T07:30:59Z</time></trkpt><trkpt lat="44.00369573950623" lon="12.433906328677"><ele>89.0</ele><time>2026-04-11T07:31:00Z</time></trkpt><trkpt lat="44.00365870556259" lon="12.433832759533344"><ele>89.16666666666667</ele><time>2026-04-11T07:31:01Z</time></trkpt><trkpt lat="44.00358397127355" lon="12.43370590299323"><ele>89.33333333333334</ele><time>2026-04-11T07:31:03Z</time></trkpt><trkpt lat="44.003560798215176" lon="12.433619006832185"><ele>89.5</ele><time>2026-04-11T07:31:04Z</time></trkpt><trkpt lat="44.00350044735019" lon="12.433497522948896"><ele>89.66666666666667</ele><time>2026-04-11T07:31:06Z</time></trkpt><trkpt lat="44.00344984238958" lon="12.433434822873945"><ele>89.83333333333333</ele><time>2026-04-11T07:31:07Z</time></trkpt><trkpt lat="44.00342825968868" lon="12.433351775603349"><ele>90.0</ele><time>2026-04-11T07:31:08Z</time></trkpt><trkpt lat="44.0033503706637" lon="12.433224974911285"><ele>90.2</ele><time>2026-04-11T07:31:10Z</time></trkpt><trkpt lat="44.00329000968339" lon="12.433070926546726"><ele>90.4</ele><time>2026-04-11T07:31:12Z</time></trkpt><trkpt lat="44.00324682597367" lon="12.432985439952285"><ele>90.6</ele><time>2026-04-11T07:31:13Z</time></trkpt><trkpt lat="44.00319925888394" lon="12.432888216844432"><ele>90.8</ele><time>2026-04-11T07:31:14Z</time></trkpt><trkpt lat="44.00315109055267" lon="12.432778280009988"><ele>91.0</ele><time>2026-04-11T07:31:15Z</time></trkpt><trkpt lat="44.0030894540883" lon="12.432656640674724"><ele>91.19999999999999</ele><time>2026-04-11T07:31:16Z</time></trkpt><trkpt lat="44.003029035221275" lon="12.432536802325647"><ele>91.39999999999999</ele><time>2026-04-11T07:31:17Z</time></trkpt><trkpt lat="44.00297029342749" lon="12.432421572490815"><ele>91.6</ele><time>2026-04-11T07:31:18Z</time></trkpt><trkpt lat="44.00291271208758" lon="12.43231214857854"><ele>91.8</ele><time>2026-04-11T07:31:19Z</time></trkpt><trkpt lat="44.00285733456412" lon="12.432207057286"><ele>92.0</ele><time>2026-04-11T07:31:20Z</time></trkpt><trkpt lat="44.00279481867265" lon="12.432113841578463"><ele>92.39999999999999</ele><time>2026-04-11T07:31:21Z</time></trkpt><trkpt lat="44.002746846766705" lon="12.432007661404716"><ele>92.8</ele><time>2026-04-11T07:31:22Z</time></trkpt><trkpt lat="44.00269596803893" lon="12.431909386973631"><ele>93.2</ele><time>2026-04-11T07:31:23Z</time></trkpt><trkpt lat="44.00259907076666" lon="12.431847548899835"><ele>93.6</ele><time>2026-04-11T07:31:24Z</time></trkpt><trkpt lat="44.002595061880925" lon="12.431704462360793"><ele>94.0</ele><time>2026-04-11T07:31:25Z</time></trkpt><trkpt lat="44.00254646505425" lon="12.431605148572551"><ele>94.0</ele><time>2026-04-11T07:31:26Z</time></trkpt><trkpt lat="44.002493075542525" lon="12.431500513945041"><ele>94.0</ele><time>2026-04-11T07:31:27Z</time></trkpt><trkpt lat="44.0024415786071" lon="12.431391400086492"><ele>94.0</ele><time>2026-04-11T07:31:28Z</time></trkpt><trkpt lat="44.002388827614524" lon="12.431278957093355"><ele>94.0</ele><time>2026-04-11T07:31:29Z</time></trkpt><trkpt lat="44.00233367460377" lon="12.431161468376896"><ele>94.0</ele><time>2026-04-11T07:31:30Z</time></trkpt><trkpt lat="44.002228725520546" lon="12.431100389423229"><ele>94.0</ele><time>2026-04-11T07:31:31Z</time></trkpt><trkpt lat="44.00216975865855" lon="12.430983321887917"><ele>94.0</ele><time>2026-04-11T07:31:32Z</time></trkpt><trkpt lat="44.00211260305132" lon="12.430867907561575"><ele>94.0</ele><time>2026-04-11T07:31:33Z</time></trkpt><trkpt lat="44.002109747267205" lon="12.43069565461478"><ele>94.0</ele><time>2026-04-11T07:31:34Z</time></trkpt><trkpt lat="44.00204712900342" lon="12.430566378215241"><ele>94.0</ele><time>2026-04-11T07:31:35Z</time></trkpt><trkpt lat="44.00198344121723" lon="12.430436045708504"><ele>94.5</ele><time>2026-04-11T07:31:36Z</time></trkpt><trkpt lat="44.00191773116271" lon="12.430303384255321"><ele>95.0</ele><time>2026-04-11T07:31:37Z</time></trkpt><trkpt lat="44.001856153309056" lon="12.430166928013698"><ele>95.5</ele><time>2026-04-11T07:31:38Z</time></trkpt><trkpt lat="44.00178692804219" lon="12.43003198289024"><ele>96.0</ele><time>2026-04-11T07:31:39Z</time></trkpt><trkpt lat="44.00171814505154" lon="12.429892856239167"><ele>96.5</ele><time>2026-04-11T07:31:40Z</time></trkpt><trkpt lat="44.001647239548234" lon="12.429751128264646"><ele>97.0</ele><time>2026-04-11T07:31:41Z</time></trkpt><trkpt lat="44.00157564224172" lon="12.429604140524388"><ele>97.5</ele><time>2026-04-11T07:31:42Z</time></trkpt><trkpt lat="44.00150155756151" lon="12.429457124550483"><ele>98.0</ele><time>2026-04-11T07:31:43Z</time></trkpt><trkpt lat="44.00142515877622" lon="12.429311663127073"><ele>98.0</ele><time>2026-04-11T07:31:44Z</time></trkpt><trkpt lat="44.001353177604685" lon="12.429164343331747"><ele>98.0</ele><time>2026-04-11T07:31:45Z</time></trkpt><trkpt lat="44.00128317992079" lon="12.429020395079835"><ele>98.0</ele><time>2026-04-11T07:31:46Z</time></trkpt><trkpt lat="44.00121561001409" lon="12.428881799234635"><ele>98.0</ele><time>2026-04-11T07:31:47Z</time></trkpt><trkpt lat="44.001149681726304" lon="12.428756456011024"><ele>98.25</ele><time>2026-04-11T07:31:48Z</time></trkpt><trkpt lat="44.001086209933796" lon="12.428625875434209"><ele>98.5</ele><time>2026-04-11T07:31:49Z</time></trkpt><trkpt lat="44.00101840502295" lon="12.428498781988969"><ele>98.75</ele><time>2026-04-11T07:31:50Z</time></trkpt><trkpt lat="44.00094826804404" lon="12.428375779626816"><ele>99.0</ele><time>2026-04-11T07:31:51Z</time></trkpt><trkpt lat="44.00086804106477" lon="12.428254416861144"><ele>99.25</ele><time>2026-04-11T07:31:52Z</time></trkpt><trkpt lat="44.00078509830185" lon="12.428145441388153"><ele>99.5</ele><time>2026-04-11T07:31:53Z</time></trkpt><trkpt lat="44.00069587699888" lon="12.428039227159417"><ele>99.75</ele><time>2026-04-11T07:31:54Z</time></trkpt><trkpt lat="44.000603029947726" lon="12.427936427809755"><ele>100.0</ele><time>2026-04-11T07:31:55Z</time></trkpt><trkpt lat="44.00050670908539" lon="12.427843231133409"><ele>100.0</ele><time>2026-04-11T07:31:56Z</time></trkpt><trkpt lat="44.00041435632308" lon="12.427754201693519"><ele>100.0</ele><time>2026-04-11T07:31:57Z</time></trkpt><trkpt lat="44.00032605200373" lon="12.42766895453123"><ele>100.0</ele><time>2026-04-11T07:31:58Z</time></trkpt><trkpt lat="44.00024296589175" lon="12.42758634863342"><ele>100.0</ele><time>2026-04-11T07:31:59Z</time></trkpt><trkpt lat="44.000162832212325" lon="12.427505042221453"><ele>100.0</ele><time>2026-04-11T07:32:00Z</time></trkpt><trkpt lat="44.00008292163694" lon="12.42742266610067"><ele>100.00000000000001</ele><time>2026-04-11T07:32:01Z</time></trkpt><trkpt lat="44.000006223306706" lon="12.427344498870552"><ele>100.0</ele><time>2026-04-11T07:32:02Z</time></trkpt><trkpt lat="43.999933257856384" lon="12.427272157235477"><ele>100.0</ele><time>2026-04-11T07:32:03Z</time></trkpt><trkpt lat="43.99986657671096" lon="12.427204269577036"><ele>100.0</ele><time>2026-04-11T07:32:04Z</time></trkpt><trkpt lat="43.99980595747635" lon="12.427141767053175"><ele>100.00000000000001</ele><time>2026-04-11T07:32:05Z</time></trkpt><trkpt lat="43.999745741305695" lon="12.427082972005351"><ele>100.0</ele><time>2026-04-11T07:32:06Z</time></trkpt><trkpt lat="43.99968838603314" lon="12.427043227449213"><ele>99.6</ele><time>2026-04-11T07:32:07Z</time></trkpt><trkpt lat="43.99958440311432" lon="12.42695867221761"><ele>99.2</ele><time>2026-04-11T07:32:09Z</time></trkpt><trkpt lat="43.99953750425178" lon="12.426897663001188"><ele>98.80000000000001</ele><time>2026-04-11T07:32:10Z</time></trkpt><trkpt lat="43.999489540448344" lon="12.426834683723666"><ele>98.4</ele><time>2026-04-11T07:32:11Z</time></trkpt><trkpt lat="43.99938232091023" lon="12.426728821473437"><ele>98.0</ele><time>2026-04-11T07:32:13Z</time></trkpt><trkpt lat="43.999323360207114" lon="12.42667001660788"><ele>97.99999999999999</ele><time>2026-04-11T07:32:14Z</time></trkpt><trkpt lat="43.999264487209814" lon="12.426599496013877"><ele>98.0</ele><time>2026-04-11T07:32:15Z</time></trkpt><trkpt lat="43.999200844861875" lon="12.426528927294731"><ele>98.0</ele><time>2026-04-11T07:32:16Z</time></trkpt><trkpt lat="43.99913452180121" lon="12.426462695684748"><ele>98.0</ele><time>2026-04-11T07:32:17Z</time></trkpt><trkpt lat="43.99906384906335" lon="12.426393089700452"><ele>97.99999999999999</ele><time>2026-04-11T07:32:18Z</time></trkpt><trkpt lat="43.998991523778045" lon="12.42631392124836"><ele>98.0</ele><time>2026-04-11T07:32:19Z</time></trkpt><trkpt lat="43.99891752293892" lon="12.426235192055437"><ele>98.4</ele><time>2026-04-11T07:32:20Z</time></trkpt><trkpt lat="43.9988437162418" lon="12.42616172786745"><ele>98.80000000000001</ele><time>2026-04-11T07:32:21Z</time></trkpt><trkpt lat="43.99876775754275" lon="12.426083281473764"><ele>99.2</ele><time>2026-04-11T07:32:22Z</time></trkpt><trkpt lat="43.99868789576801" lon="12.426000419975614"><ele>99.6</ele><time>2026-04-11T07:32:23Z</time></trkpt><trkpt lat="43.998603655031424" lon="12.425916108013624"><ele>100.0</ele><time>2026-04-11T07:32:24Z</time></trkpt><trkpt lat="43.99851465196267" lon="12.425827417576212"><ele>100.0</ele><time>2026-04-11T07:32:25Z</time></trkpt><trkpt lat="43.99842780632278" lon="12.4257366854173"><ele>100.0</ele><time>2026-04-11T07:32:26Z</time></trkpt><trkpt lat="43.998341641350144" lon="12.425644012252267"><ele>100.0</ele><time>2026-04-11T07:32:27Z</time></trkpt><trkpt lat="43.998252295145214" lon="12.425553420204302"><ele>100.0</ele><time>2026-04-11T07:32:27.999Z</time></trkpt><trkpt lat="43.99815929906332" lon="12.425461436255448"><ele>100.0</ele><time>2026-04-11T07:32:28.999Z</time></trkpt><trkpt lat="43.99806642259199" lon="12.425362804525022"><ele>100.0</ele><time>2026-04-11T07:32:29.999Z</time></trkpt><trkpt lat="43.997978198671724" lon="12.425261507880387"><ele>100.0</ele><time>2026-04-11T07:32:30.999Z</time></trkpt><trkpt lat="43.99789689725895" lon="12.425161461451589"><ele>100.0</ele><time>2026-04-11T07:32:31.999Z</time></trkpt><trkpt lat="43.997819495868" lon="12.425062264907943"><ele>100.0</ele><time>2026-04-11T07:32:32.999Z</time></trkpt><trkpt lat="43.997752949678215" lon="12.42494839015984"><ele>100.0</ele><time>2026-04-11T07:32:33.999Z</time></trkpt><trkpt lat="43.99767943168853" lon="12.424849099479653"><ele>100.00000000000001</ele><time>2026-04-11T07:32:34.999Z</time></trkpt><trkpt lat="43.99761258244854" lon="12.424751914849335"><ele>100.0</ele><time>2026-04-11T07:32:35.999Z</time></trkpt><trkpt lat="43.99754873339346" lon="12.424658922562752"><ele>100.0</ele><time>2026-04-11T07:32:36.999Z</time></trkpt><trkpt lat="43.997488832323675" lon="12.424577011255517"><ele>100.0</ele><time>2026-04-11T07:32:37.999Z</time></trkpt><trkpt lat="43.99744003583148" lon="12.424507403076978"><ele>100.00000000000001</ele><time>2026-04-11T07:32:38.999Z</time></trkpt><trkpt lat="43.99739445825981" lon="12.424443301650609"><ele>100.0</ele><time>2026-04-11T07:32:39.999Z</time></trkpt><trkpt lat="43.997348804296294" lon="12.424382021511208"><ele>100.33333333333334</ele><time>2026-04-11T07:32:40.999Z</time></trkpt><trkpt lat="43.99730234956392" lon="12.4243098777663"><ele>100.66666666666667</ele><time>2026-04-11T07:32:41.999Z</time></trkpt><trkpt lat="43.9972594538386" lon="12.424226224317957"><ele>101.0</ele><time>2026-04-11T07:32:42.999Z</time></trkpt><trkpt lat="43.99721146581318" lon="12.424145798085611"><ele>101.33333333333334</ele><time>2026-04-11T07:32:43.999Z</time></trkpt><trkpt lat="43.9971470662044" lon="12.4240740503569"><ele>101.66666666666667</ele><time>2026-04-11T07:32:44.999Z</time></trkpt><trkpt lat="43.99707821095454" lon="12.423995007165136"><ele>102.0</ele><time>2026-04-11T07:32:45.999Z</time></trkpt><trkpt lat="43.99701003238847" lon="12.423900164904403"><ele>101.8</ele><time>2026-04-11T07:32:46.999Z</time></trkpt><trkpt lat="43.99694869894798" lon="12.423795439492855"><ele>101.6</ele><time>2026-04-11T07:32:47.999Z</time></trkpt><trkpt lat="43.996889199759636" lon="12.423693638219946"><ele>101.39999999999999</ele><time>2026-04-11T07:32:48.999Z</time></trkpt><trkpt lat="43.99682612525092" lon="12.423586134262353"><ele>101.19999999999999</ele><time>2026-04-11T07:32:49.999Z</time></trkpt><trkpt lat="43.99675843830049" lon="12.423484510635841"><ele>101.0</ele><time>2026-04-11T07:32:50.999Z</time></trkpt><trkpt lat="43.996688288936454" lon="12.423377519830948"><ele>101.19999999999999</ele><time>2026-04-11T07:32:51.999Z</time></trkpt><trkpt lat="43.99661716854294" lon="12.423267531276919"><ele>101.39999999999999</ele><time>2026-04-11T07:32:52.999Z</time></trkpt><trkpt lat="43.996544521048634" lon="12.423155837616061"><ele>101.6</ele><time>2026-04-11T07:32:53.999Z</time></trkpt><trkpt lat="43.99647082218868" lon="12.423042954032454"><ele>101.8</ele><time>2026-04-11T07:32:54.999Z</time></trkpt><trkpt lat="43.99639633473017" lon="12.422929094425529"><ele>102.0</ele><time>2026-04-11T07:32:55.999Z</time></trkpt><trkpt lat="43.99631938174853" lon="12.422810988404702"><ele>102.0</ele><time>2026-04-11T07:32:56.999Z</time></trkpt><trkpt lat="43.99623918514605" lon="12.422693599946964"><ele>102.0</ele><time>2026-04-11T07:32:57.999Z</time></trkpt><trkpt lat="43.99615650180396" lon="12.422573368811971"><ele>102.0</ele><time>2026-04-11T07:32:58.999Z</time></trkpt><trkpt lat="43.99607520170107" lon="12.422449309931416"><ele>102.0</ele><time>2026-04-11T07:32:59.999Z</time></trkpt><trkpt lat="43.99599576505596" lon="12.422332034820338"><ele>102.0</ele><time>2026-04-11T07:33:00.999Z</time></trkpt><trkpt lat="43.995914341916354" lon="12.422213045534274"><ele>102.0</ele><time>2026-04-11T07:33:01.999Z</time></trkpt><trkpt lat="43.99582808543384" lon="12.422093889265314"><ele>102.0</ele><time>2026-04-11T07:33:03Z</time></trkpt><trkpt lat="43.99574150205423" lon="12.421974156219544"><ele>102.0</ele><time>2026-04-11T07:33:04.001Z</time></trkpt><trkpt lat="43.99565740784498" lon="12.421854269445237"><ele>102.0</ele><time>2026-04-11T07:33:05Z</time></trkpt><trkpt lat="43.99557441250024" lon="12.421737516131952"><ele>102.0</ele><time>2026-04-11T07:33:06Z</time></trkpt><trkpt lat="43.99549339716584" lon="12.421616791484645"><ele>102.0</ele><time>2026-04-11T07:33:07.001Z</time></trkpt><trkpt lat="43.99541236870163" lon="12.421497588265073"><ele>102.0</ele><time>2026-04-11T07:33:08Z</time></trkpt><trkpt lat="43.99532983507658" lon="12.421376865112482"><ele>102.0</ele><time>2026-04-11T07:33:09Z</time></trkpt><trkpt lat="43.99524897348651" lon="12.421254787769678"><ele>102.0</ele><time>2026-04-11T07:33:10.001Z</time></trkpt><trkpt lat="43.99516599115662" lon="12.42113374214303"><ele>102.0</ele><time>2026-04-11T07:33:11.001Z</time></trkpt><trkpt lat="43.995085950582144" lon="12.421013060908468"><ele>102.0</ele><time>2026-04-11T07:33:12.001Z</time></trkpt><trkpt lat="43.99500772630714" lon="12.420896425336908"><ele>102.5</ele><time>2026-04-11T07:33:13.001Z</time></trkpt><trkpt lat="43.9949306377923" lon="12.42077739670607"><ele>103.0</ele><time>2026-04-11T07:33:14Z</time></trkpt><trkpt lat="43.99484821132865" lon="12.42066487107821"><ele>103.5</ele><time>2026-04-11T07:33:15.001Z</time></trkpt><trkpt lat="43.994768470126616" lon="12.420546005787543"><ele>104.0</ele><time>2026-04-11T07:33:16.001Z</time></trkpt><trkpt lat="43.99468398046969" lon="12.420422728010825"><ele>104.0</ele><time>2026-04-11T07:33:17.001Z</time></trkpt><trkpt lat="43.99460129759743" lon="12.420300067448464"><ele>104.0</ele><time>2026-04-11T07:33:18Z</time></trkpt><trkpt lat="43.99451880098349" lon="12.420177116988077"><ele>104.0</ele><time>2026-04-11T07:33:19Z</time></trkpt><trkpt lat="43.99443860897033" lon="12.420057090346479"><ele>104.0</ele><time>2026-04-11T07:33:20Z</time></trkpt><trkpt lat="43.994360329070425" lon="12.419939311696263"><ele>104.0</ele><time>2026-04-11T07:33:21Z</time></trkpt><trkpt lat="43.99428710957648" lon="12.41983064092323"><ele>104.0</ele><time>2026-04-11T07:33:22Z</time></trkpt><trkpt lat="43.99420656824899" lon="12.419739553991194"><ele>104.0</ele><time>2026-04-11T07:33:23Z</time></trkpt><trkpt lat="43.994158323314835" lon="12.419645525514706"><ele>104.0</ele><time>2026-04-11T07:33:24Z</time></trkpt><trkpt lat="43.99410142975754" lon="12.419554424872226"><ele>104.0</ele><time>2026-04-11T07:33:25Z</time></trkpt><trkpt lat="43.99404508725807" lon="12.419472726002848"><ele>104.0</ele><time>2026-04-11T07:33:26Z</time></trkpt><trkpt lat="43.99399107364811" lon="12.41938899539065"><ele>104.0</ele><time>2026-04-11T07:33:27Z</time></trkpt><trkpt lat="43.993949043506696" lon="12.419302027651895"><ele>104.0</ele><time>2026-04-11T07:33:28Z</time></trkpt><trkpt lat="43.993922511685525" lon="12.419204988501074"><ele>104.0</ele><time>2026-04-11T07:33:29Z</time></trkpt><trkpt lat="43.993911812643454" lon="12.419103632062214"><ele>104.0</ele><time>2026-04-11T07:33:30Z</time></trkpt><trkpt lat="43.99390885320914" lon="12.419004153371652"><ele>104.0</ele><time>2026-04-11T07:33:31Z</time></trkpt><trkpt lat="43.993900510034166" lon="12.418906433958728"><ele>104.0</ele><time>2026-04-11T07:33:31.999Z</time></trkpt><trkpt lat="43.99387155260979" lon="12.418819145498261"><ele>103.83333333333333</ele><time>2026-04-11T07:33:32.999Z</time></trkpt><trkpt lat="43.99382799368129" lon="12.418746685429195"><ele>103.66666666666666</ele><time>2026-04-11T07:33:33.999Z</time></trkpt><trkpt lat="43.993756668076756" lon="12.418698854493352"><ele>103.5</ele><time>2026-04-11T07:33:34.999Z</time></trkpt><trkpt lat="43.99368187352518" lon="12.418680686173607"><ele>103.33333333333334</ele><time>2026-04-11T07:33:35.999Z</time></trkpt><trkpt lat="43.993607718650225" lon="12.418653922176215"><ele>103.16666666666667</ele><time>2026-04-11T07:33:36.999Z</time></trkpt><trkpt lat="43.99353124624197" lon="12.41860076007647"><ele>103.0</ele><time>2026-04-11T07:33:37.999Z</time></trkpt><trkpt lat="43.99345508583616" lon="12.418524557864469"><ele>103.0</ele><time>2026-04-11T07:33:38.999Z</time></trkpt><trkpt lat="43.99337527206484" lon="12.418431332415429"><ele>103.0</ele><time>2026-04-11T07:33:39.999Z</time></trkpt><trkpt lat="43.993294815637896" lon="12.418327820326768"><ele>103.0</ele><time>2026-04-11T07:33:40.999Z</time></trkpt><trkpt lat="43.993207935298784" lon="12.418221160768363"><ele>103.0</ele><time>2026-04-11T07:33:41.999Z</time></trkpt><trkpt lat="43.99311897633839" lon="12.418101274266393"><ele>103.0</ele><time>2026-04-11T07:33:42.999Z</time></trkpt><trkpt lat="43.993029741270284" lon="12.41796543755355"><ele>103.0</ele><time>2026-04-11T07:33:43.999Z</time></trkpt><trkpt lat="43.992943268138774" lon="12.417835377408137"><ele>103.0</ele><time>2026-04-11T07:33:44.999Z</time></trkpt><trkpt lat="43.992851598168336" lon="12.417700194752987"><ele>103.0</ele><time>2026-04-11T07:33:45.999Z</time></trkpt><trkpt lat="43.992756332809115" lon="12.417566972723172"><ele>103.0</ele><time>2026-04-11T07:33:46.999Z</time></trkpt><trkpt lat="43.99266303269362" lon="12.417435771157454"><ele>103.0</ele><time>2026-04-11T07:33:47.999Z</time></trkpt><trkpt lat="43.99257183345321" lon="12.417316078720253"><ele>103.0</ele><time>2026-04-11T07:33:48.999Z</time></trkpt><trkpt lat="43.99248014995259" lon="12.417196133436562"><ele>103.0</ele><time>2026-04-11T07:33:49.999Z</time></trkpt><trkpt lat="43.992384912276535" lon="12.417079201705532"><ele>103.25</ele><time>2026-04-11T07:33:50.999Z</time></trkpt><trkpt lat="43.99230598186301" lon="12.416961257130747"><ele>103.5</ele><time>2026-04-11T07:33:51.999Z</time></trkpt><trkpt lat="43.992208310393416" lon="12.41686132985102"><ele>103.75</ele><time>2026-04-11T07:33:52.999Z</time></trkpt><trkpt lat="43.99212500790324" lon="12.416758653510033"><ele>104.0</ele><time>2026-04-11T07:33:53.999Z</time></trkpt><trkpt lat="43.99203468965485" lon="12.416662220171407"><ele>104.0</ele><time>2026-04-11T07:33:54.999Z</time></trkpt><trkpt lat="43.9919533872873" lon="12.416572415277093"><ele>104.0</ele><time>2026-04-11T07:33:55.999Z</time></trkpt><trkpt lat="43.99187687142218" lon="12.416483583501243"><ele>104.0</ele><time>2026-04-11T07:33:56.999Z</time></trkpt><trkpt lat="43.991803915238" lon="12.416398418288068"><ele>104.0</ele><time>2026-04-11T07:33:57.999Z</time></trkpt><trkpt lat="43.991734928035655" lon="12.416314947574655"><ele>104.0</ele><time>2026-04-11T07:33:58.999Z</time></trkpt><trkpt lat="43.99167728684674" lon="12.416231879196086"><ele>104.0</ele><time>2026-04-11T07:33:59.999Z</time></trkpt><trkpt lat="43.99161936221075" lon="12.416139491168444"><ele>104.0</ele><time>2026-04-11T07:34:00.999Z</time></trkpt><trkpt lat="43.99154873351653" lon="12.416063748886488"><ele>104.0</ele><time>2026-04-11T07:34:01.999Z</time></trkpt><trkpt lat="43.99147008534484" lon="12.415996977360537"><ele>104.0</ele><time>2026-04-11T07:34:02.999Z</time></trkpt><trkpt lat="43.99137107451927" lon="12.415936579722302"><ele>104.0</ele><time>2026-04-11T07:34:03.999Z</time></trkpt><trkpt lat="43.99127109018764" lon="12.415867532946484"><ele>104.0</ele><time>2026-04-11T07:34:04.999Z</time></trkpt><trkpt lat="43.99117258967324" lon="12.415781193229659"><ele>104.0</ele><time>2026-04-11T07:34:05.999Z</time></trkpt><trkpt lat="43.99107348780371" lon="12.41568700418559"><ele>104.0</ele><time>2026-04-11T07:34:06.999Z</time></trkpt><trkpt lat="43.99097282451059" lon="12.415589304433396"><ele>104.0</ele><time>2026-04-11T07:34:07.999Z</time></trkpt><trkpt lat="43.990871076173924" lon="12.415485049141557"><ele>104.5</ele><time>2026-04-11T07:34:08.999Z</time></trkpt><trkpt lat="43.990775025714974" lon="12.415380005027933"><ele>105.0</ele><time>2026-04-11T07:34:09.999Z</time></trkpt><trkpt lat="43.99067556732033" lon="12.415272819292657"><ele>105.5</ele><time>2026-04-11T07:34:10.999Z</time></trkpt><trkpt lat="43.99057545165281" lon="12.415168171680953"><ele>106.0</ele><time>2026-04-11T07:34:11.999Z</time></trkpt><trkpt lat="43.99047153930632" lon="12.415061701792585"><ele>106.0</ele><time>2026-04-11T07:34:12.999Z</time></trkpt><trkpt lat="43.99036562866641" lon="12.414954219249108"><ele>106.0</ele><time>2026-04-11T07:34:13.999Z</time></trkpt><trkpt lat="43.99025849311045" lon="12.414848700831136"><ele>106.0</ele><time>2026-04-11T07:34:14.999Z</time></trkpt><trkpt lat="43.990147452272986" lon="12.414744203244574"><ele>106.0</ele><time>2026-04-11T07:34:15.999Z</time></trkpt><trkpt lat="43.9900370321544" lon="12.414640591590917"><ele>106.5</ele><time>2026-04-11T07:34:16.999Z</time></trkpt><trkpt lat="43.98992800001423" lon="12.414543141500328"><ele>107.0</ele><time>2026-04-11T07:34:17.999Z</time></trkpt><trkpt lat="43.989816453497" lon="12.414452340366084"><ele>107.5</ele><time>2026-04-11T07:34:18.999Z</time></trkpt><trkpt lat="43.989703244302554" lon="12.41436799441999"><ele>108.0</ele><time>2026-04-11T07:34:19.999Z</time></trkpt><trkpt lat="43.98958938491137" lon="12.414291534467417"><ele>108.0</ele><time>2026-04-11T07:34:20.999Z</time></trkpt><trkpt lat="43.98947578465187" lon="12.414224884592564"><ele>108.0</ele><time>2026-04-11T07:34:21.999Z</time></trkpt><trkpt lat="43.989363461632976" lon="12.414159036147828"><ele>108.0</ele><time>2026-04-11T07:34:22.999Z</time></trkpt><trkpt lat="43.98925100178207" lon="12.414092248771192"><ele>108.0</ele><time>2026-04-11T07:34:23.999Z</time></trkpt><trkpt lat="43.989138649479294" lon="12.414024499563594"><ele>108.5</ele><time>2026-04-11T07:34:24.999Z</time></trkpt><trkpt lat="43.9890270947489" lon="12.413958949326512"><ele>109.0</ele><time>2026-04-11T07:34:25.999Z</time></trkpt><trkpt lat="43.988914823777534" lon="12.413894417868592"><ele>109.5</ele><time>2026-04-11T07:34:26.999Z</time></trkpt><trkpt lat="43.988805311249884" lon="12.413825557464403"><ele>110.0</ele><time>2026-04-11T07:34:27.999Z</time></trkpt><trkpt lat="43.98869835988571" lon="12.413748822164335"><ele>110.0</ele><time>2026-04-11T07:34:28.999Z</time></trkpt><trkpt lat="43.988594434622364" lon="12.413668366310029"><ele>110.0</ele><time>2026-04-11T07:34:29.999Z</time></trkpt><trkpt lat="43.98849644066915" lon="12.41358477068797"><ele>110.0</ele><time>2026-04-11T07:34:30.999Z</time></trkpt><trkpt lat="43.988403224067085" lon="12.413494304413302"><ele>110.0</ele><time>2026-04-11T07:34:31.999Z</time></trkpt><trkpt lat="43.988311498889004" lon="12.413400179005782"><ele>110.25</ele><time>2026-04-11T07:34:32.999Z</time></trkpt><trkpt lat="43.98822011812566" lon="12.413296415107164"><ele>110.5</ele><time>2026-04-11T07:34:33.999Z</time></trkpt><trkpt lat="43.988131901089886" lon="12.41318690021694"><ele>110.75</ele><time>2026-04-11T07:34:34.999Z</time></trkpt><trkpt lat="43.988048890037696" lon="12.413078734221699"><ele>111.0</ele><time>2026-04-11T07:34:35.999Z</time></trkpt><trkpt lat="43.98796945375149" lon="12.412967309640576"><ele>111.0</ele><time>2026-04-11T07:34:36.999Z</time></trkpt><trkpt lat="43.98789257285765" lon="12.412852388248824"><ele>111.0</ele><time>2026-04-11T07:34:37.999Z</time></trkpt><trkpt lat="43.98781541940263" lon="12.41273825754241"><ele>111.0</ele><time>2026-04-11T07:34:38.998Z</time></trkpt><trkpt lat="43.98774094319736" lon="12.412619974228308"><ele>111.0</ele><time>2026-04-11T07:34:39.998Z</time></trkpt><trkpt lat="43.98766696043078" lon="12.412498696365876"><ele>111.0</ele><time>2026-04-11T07:34:40.998Z</time></trkpt><trkpt lat="43.98759428031637" lon="12.412373498615574"><ele>111.0</ele><time>2026-04-11T07:34:41.998Z</time></trkpt><trkpt lat="43.98751979627517" lon="12.41225001152928"><ele>111.0</ele><time>2026-04-11T07:34:42.998Z</time></trkpt><trkpt lat="43.98744205318014" lon="12.41212834065005"><ele>111.0</ele><time>2026-04-11T07:34:43.998Z</time></trkpt><trkpt lat="43.987364706956825" lon="12.412004395628436"><ele>112.75</ele><time>2026-04-11T07:34:44.998Z</time></trkpt><trkpt lat="43.987287621905544" lon="12.411879646637988"><ele>114.5</ele><time>2026-04-11T07:34:45.998Z</time></trkpt><trkpt lat="43.98721017408593" lon="12.411754138128831"><ele>116.25</ele><time>2026-04-11T07:34:46.998Z</time></trkpt><trkpt lat="43.987133372704356" lon="12.41162927111585"><ele>118.0</ele><time>2026-04-11T07:34:47.998Z</time></trkpt><trkpt lat="43.987063412549695" lon="12.41151316952015"><ele>118.0</ele><time>2026-04-11T07:34:48.998Z</time></trkpt><trkpt lat="43.98699049562361" lon="12.411396278613681"><ele>118.0</ele><time>2026-04-11T07:34:49.998Z</time></trkpt><trkpt lat="43.98691381378955" lon="12.411281395171292"><ele>118.0</ele><time>2026-04-11T07:34:50.998Z</time></trkpt><trkpt lat="43.986832107892525" lon="12.411169853886683"><ele>118.0</ele><time>2026-04-11T07:34:51.998Z</time></trkpt><trkpt lat="43.98674203032313" lon="12.411059991490301"><ele>119.0</ele><time>2026-04-11T07:34:52.998Z</time></trkpt><trkpt lat="43.986647369405574" lon="12.410961913829045"><ele>120.0</ele><time>2026-04-11T07:34:53.998Z</time></trkpt><trkpt lat="43.98654766360454" lon="12.410865559820738"><ele>121.0</ele><time>2026-04-11T07:34:54.998Z</time></trkpt><trkpt lat="43.98644453034969" lon="12.410773013345073"><ele>122.0</ele><time>2026-04-11T07:34:55.998Z</time></trkpt><trkpt lat="43.98633814746759" lon="12.410685298990032"><ele>122.0</ele><time>2026-04-11T07:34:56.998Z</time></trkpt><trkpt lat="43.986225803311" lon="12.410606981026117"><ele>122.0</ele><time>2026-04-11T07:34:57.998Z</time></trkpt><trkpt lat="43.98611534240467" lon="12.410537095180391"><ele>122.0</ele><time>2026-04-11T07:34:58.998Z</time></trkpt><trkpt lat="43.98600525180066" lon="12.410475280361792"><ele>122.0</ele><time>2026-04-11T07:34:59.998Z</time></trkpt><trkpt lat="43.985893156090256" lon="12.410423647192005"><ele>122.0</ele><time>2026-04-11T07:35:00.998Z</time></trkpt><trkpt lat="43.98577496507273" lon="12.410382658387142"><ele>122.0</ele><time>2026-04-11T07:35:01.998Z</time></trkpt><trkpt lat="43.98565520512196" lon="12.41034399539987"><ele>122.0</ele><time>2026-04-11T07:35:02.998Z</time></trkpt><trkpt lat="43.98553337540214" lon="12.410316822695442"><ele>122.0</ele><time>2026-04-11T07:35:03.998Z</time></trkpt><trkpt lat="43.98541103793471" lon="12.410308826882959"><ele>122.0</ele><time>2026-04-11T07:35:04.998Z</time></trkpt><trkpt lat="43.98528887840536" lon="12.410307327965171"><ele>122.0</ele><time>2026-04-11T07:35:05.998Z</time></trkpt><trkpt lat="43.98517339512853" lon="12.410312599540317"><ele>122.0</ele><time>2026-04-11T07:35:06.998Z</time></trkpt><trkpt lat="43.985061032578706" lon="12.410327762515946"><ele>122.0</ele><time>2026-04-11T07:35:07.998Z</time></trkpt><trkpt lat="43.98494660359757" lon="12.410347110753792"><ele>123.0</ele><time>2026-04-11T07:35:09Z</time></trkpt><trkpt lat="43.984828980993896" lon="12.410356000002997"><ele>124.0</ele><time>2026-04-11T07:35:10Z</time></trkpt><trkpt lat="43.98471075770566" lon="12.410368319352868"><ele>125.0</ele><time>2026-04-11T07:35:11Z</time></trkpt><trkpt lat="43.98458932514663" lon="12.410377512810765"><ele>126.0</ele><time>2026-04-11T07:35:12Z</time></trkpt><trkpt lat="43.98446753129805" lon="12.410387443763385"><ele>126.0</ele><time>2026-04-11T07:35:13Z</time></trkpt><trkpt lat="43.98434427099799" lon="12.410400733809448"><ele>126.0</ele><time>2026-04-11T07:35:14Z</time></trkpt><trkpt lat="43.98422307851758" lon="12.410411675231238"><ele>126.0</ele><time>2026-04-11T07:35:15Z</time></trkpt><trkpt lat="43.98410523220808" lon="12.41042453434445"><ele>126.0</ele><time>2026-04-11T07:35:16Z</time></trkpt><trkpt lat="43.983987358061455" lon="12.410432984812443"><ele>126.6</ele><time>2026-04-11T07:35:17Z</time></trkpt><trkpt lat="43.98387210493517" lon="12.410431541789658"><ele>127.19999999999999</ele><time>2026-04-11T07:35:18Z</time></trkpt><trkpt lat="43.98375881309077" lon="12.41042532203714"><ele>127.80000000000001</ele><time>2026-04-11T07:35:19Z</time></trkpt><trkpt lat="43.98364980823521" lon="12.410421054939897"><ele>128.4</ele><time>2026-04-11T07:35:20Z</time></trkpt><trkpt lat="43.983539117511846" lon="12.410414348706496"><ele>129.0</ele><time>2026-04-11T07:35:21Z</time></trkpt><trkpt lat="43.98342946745505" lon="12.410407928092523"><ele>129.6</ele><time>2026-04-11T07:35:22Z</time></trkpt><trkpt lat="43.983322130591226" lon="12.41040250667169"><ele>130.2</ele><time>2026-04-11T07:35:23Z</time></trkpt><trkpt lat="43.98321706484553" lon="12.410397049269049"><ele>130.79999999999998</ele><time>2026-04-11T07:35:24Z</time></trkpt><trkpt lat="43.98311242754964" lon="12.41039272027639"><ele>131.4</ele><time>2026-04-11T07:35:25Z</time></trkpt><trkpt lat="43.98300590053195" lon="12.410389267348332"><ele>132.0</ele><time>2026-04-11T07:35:26Z</time></trkpt><trkpt lat="43.982899146005536" lon="12.410388474050166"><ele>132.0</ele><time>2026-04-11T07:35:27Z</time></trkpt><trkpt lat="43.98279155959447" lon="12.41038411460414"><ele>132.0</ele><time>2026-04-11T07:35:27.999Z</time></trkpt><trkpt lat="43.98268403876556" lon="12.410382150323688"><ele>132.0</ele><time>2026-04-11T07:35:28.999Z</time></trkpt><trkpt lat="43.98257422494112" lon="12.410378122034908"><ele>132.0</ele><time>2026-04-11T07:35:29.999Z</time></trkpt><trkpt lat="43.982462299031596" lon="12.410373856287556"><ele>132.0</ele><time>2026-04-11T07:35:30.999Z</time></trkpt><trkpt lat="43.982350797028175" lon="12.410368623758524"><ele>134.0</ele><time>2026-04-11T07:35:31.999Z</time></trkpt><trkpt lat="43.9822388314043" lon="12.410366219976153"><ele>136.0</ele><time>2026-04-11T07:35:32.999Z</time></trkpt><trkpt lat="43.9821301159954" lon="12.410360991426574"><ele>138.0</ele><time>2026-04-11T07:35:33.999Z</time></trkpt><trkpt lat="43.98202568737017" lon="12.410352466765197"><ele>140.0</ele><time>2026-04-11T07:35:34.999Z</time></trkpt><trkpt lat="43.98192321141459" lon="12.410344998933995"><ele>142.0</ele><time>2026-04-11T07:35:35.999Z</time></trkpt><trkpt lat="43.98182151065032" lon="12.410340927211225"><ele>142.0</ele><time>2026-04-11T07:35:36.999Z</time></trkpt><trkpt lat="43.98171827737666" lon="12.41033738054129"><ele>142.0</ele><time>2026-04-11T07:35:37.999Z</time></trkpt><trkpt lat="43.98161314239749" lon="12.410334413881593"><ele>142.0</ele><time>2026-04-11T07:35:38.999Z</time></trkpt><trkpt lat="43.98150647925093" lon="12.410329797093965"><ele>142.0</ele><time>2026-04-11T07:35:39.999Z</time></trkpt><trkpt lat="43.98139843656443" lon="12.410324287186324"><ele>142.0</ele><time>2026-04-11T07:35:40.999Z</time></trkpt><trkpt lat="43.98128805493576" lon="12.410317031069779"><ele>142.6</ele><time>2026-04-11T07:35:41.999Z</time></trkpt><trkpt lat="43.98118005045922" lon="12.410305812815114"><ele>143.2</ele><time>2026-04-11T07:35:42.999Z</time></trkpt><trkpt lat="43.98107062296854" lon="12.410295033660658"><ele>143.8</ele><time>2026-04-11T07:35:43.999Z</time></trkpt><trkpt lat="43.98096077568993" lon="12.410301438741408"><ele>144.4</ele><time>2026-04-11T07:35:44.999Z</time></trkpt><trkpt lat="43.98084265890444" lon="12.410289184462592"><ele>145.0</ele><time>2026-04-11T07:35:45.999Z</time></trkpt><trkpt lat="43.980721751631144" lon="12.410283706664021"><ele>145.0</ele><time>2026-04-11T07:35:46.999Z</time></trkpt><trkpt lat="43.980609727581964" lon="12.410272412670594"><ele>145.0</ele><time>2026-04-11T07:35:47.999Z</time></trkpt><trkpt lat="43.98050061210419" lon="12.410268796996586"><ele>145.0</ele><time>2026-04-11T07:35:48.999Z</time></trkpt><trkpt lat="43.98039006618838" lon="12.41026218719157"><ele>145.0</ele><time>2026-04-11T07:35:49.999Z</time></trkpt><trkpt lat="43.980274795310514" lon="12.410258477018283"><ele>145.0</ele><time>2026-04-11T07:35:50.999Z</time></trkpt><trkpt lat="43.98015590498241" lon="12.41025415149741"><ele>145.0</ele><time>2026-04-11T07:35:51.999Z</time></trkpt><trkpt lat="43.98002884855371" lon="12.410252381226242"><ele>145.0</ele><time>2026-04-11T07:35:52.999Z</time></trkpt><trkpt lat="43.979900041082665" lon="12.410232047998253"><ele>145.0</ele><time>2026-04-11T07:35:53.999Z</time></trkpt><trkpt lat="43.97976209274544" lon="12.41022939934426"><ele>145.0</ele><time>2026-04-11T07:35:54.999Z</time></trkpt><trkpt lat="43.97962840774679" lon="12.410233639503767"><ele>144.75</ele><time>2026-04-11T07:35:55.999Z</time></trkpt><trkpt lat="43.97949467549572" lon="12.410221433566551"><ele>144.5</ele><time>2026-04-11T07:35:56.999Z</time></trkpt><trkpt lat="43.97936451463678" lon="12.410214039326206"><ele>144.25</ele><time>2026-04-11T07:35:57.999Z</time></trkpt><trkpt lat="43.97923999518384" lon="12.410212382339031"><ele>144.0</ele><time>2026-04-11T07:35:58.999Z</time></trkpt><trkpt lat="43.97912134070131" lon="12.410205895069787"><ele>143.75</ele><time>2026-04-11T07:35:59.999Z</time></trkpt><trkpt lat="43.97900610303991" lon="12.410202282547544"><ele>143.5</ele><time>2026-04-11T07:36:00.999Z</time></trkpt><trkpt lat="43.978892043322155" lon="12.410196420233104"><ele>143.25</ele><time>2026-04-11T07:36:01.999Z</time></trkpt><trkpt lat="43.9787731129084" lon="12.410188626091875"><ele>143.0</ele><time>2026-04-11T07:36:02.999Z</time></trkpt><trkpt lat="43.97865218116465" lon="12.410179238882838"><ele>143.0</ele><time>2026-04-11T07:36:03.999Z</time></trkpt><trkpt lat="43.97853158031091" lon="12.41017322801131"><ele>143.0</ele><time>2026-04-11T07:36:04.999Z</time></trkpt><trkpt lat="43.97841192400082" lon="12.410170504346723"><ele>143.0</ele><time>2026-04-11T07:36:05.999Z</time></trkpt><trkpt lat="43.97829224624633" lon="12.41017069260441"><ele>143.0</ele><time>2026-04-11T07:36:06.999Z</time></trkpt><trkpt lat="43.97817207976045" lon="12.410163563355539"><ele>142.0</ele><time>2026-04-11T07:36:07.999Z</time></trkpt><trkpt lat="43.97805088412828" lon="12.41015744656382"><ele>141.0</ele><time>2026-04-11T07:36:08.999Z</time></trkpt><trkpt lat="43.977929931370696" lon="12.41014823631142"><ele>140.0</ele><time>2026-04-11T07:36:09.999Z</time></trkpt><trkpt lat="43.9778071828474" lon="12.410141740406264"><ele>139.0</ele><time>2026-04-11T07:36:10.999Z</time></trkpt><trkpt lat="43.97768301357555" lon="12.410137098912056"><ele>139.0</ele><time>2026-04-11T07:36:11.999Z</time></trkpt><trkpt lat="43.977558184794695" lon="12.41013285891083"><ele>139.0</ele><time>2026-04-11T07:36:12.999Z</time></trkpt><trkpt lat="43.97743216906096" lon="12.410134544087692"><ele>139.0</ele><time>2026-04-11T07:36:13.999Z</time></trkpt><trkpt lat="43.97730293735997" lon="12.410137362408387"><ele>139.0</ele><time>2026-04-11T07:36:14.999Z</time></trkpt><trkpt lat="43.977170592615835" lon="12.410143551831995"><ele>138.75</ele><time>2026-04-11T07:36:15.999Z</time></trkpt><trkpt lat="43.97703509292708" lon="12.41014950187169"><ele>138.5</ele><time>2026-04-11T07:36:16.999Z</time></trkpt><trkpt lat="43.976902108355944" lon="12.41016058666772"><ele>138.25</ele><time>2026-04-11T07:36:17.999Z</time></trkpt><trkpt lat="43.97676330752306" lon="12.410185233558149"><ele>138.0</ele><time>2026-04-11T07:36:18.999Z</time></trkpt><trkpt lat="43.97662906008832" lon="12.41020876901411"><ele>137.25</ele><time>2026-04-11T07:36:19.999Z</time></trkpt><trkpt lat="43.976499524766346" lon="12.410235897759009"><ele>136.5</ele><time>2026-04-11T07:36:20.999Z</time></trkpt><trkpt lat="43.97636656908024" lon="12.410272629832821"><ele>135.75</ele><time>2026-04-11T07:36:21.999Z</time></trkpt><trkpt lat="43.976232931991234" lon="12.410315195967211"><ele>135.0</ele><time>2026-04-11T07:36:22.999Z</time></trkpt><trkpt lat="43.97610301877495" lon="12.410360055045428"><ele>135.0</ele><time>2026-04-11T07:36:23.999Z</time></trkpt><trkpt lat="43.97597803490466" lon="12.410404296992732"><ele>135.0</ele><time>2026-04-11T07:36:24.999Z</time></trkpt><trkpt lat="43.97586252140087" lon="12.410450118908855"><ele>135.0</ele><time>2026-04-11T07:36:25.999Z</time></trkpt><trkpt lat="43.97575318972721" lon="12.410500362226902"><ele>135.0</ele><time>2026-04-11T07:36:26.999Z</time></trkpt><trkpt lat="43.975649386514306" lon="12.410554509821308"><ele>136.0</ele><time>2026-04-11T07:36:27.999Z</time></trkpt><trkpt lat="43.97554814187954" lon="12.410609010337327"><ele>137.0</ele><time>2026-04-11T07:36:28.999Z</time></trkpt><trkpt lat="43.975447485258776" lon="12.410662273720687"><ele>138.0</ele><time>2026-04-11T07:36:29.999Z</time></trkpt><trkpt lat="43.97534093316809" lon="12.410718124481438"><ele>139.0</ele><time>2026-04-11T07:36:30.999Z</time></trkpt><trkpt lat="43.97523395895936" lon="12.410774467079962"><ele>140.0</ele><time>2026-04-11T07:36:31.999Z</time></trkpt><trkpt lat="43.975129905367396" lon="12.41082432993391"><ele>140.0</ele><time>2026-04-11T07:36:32.999Z</time></trkpt><trkpt lat="43.975027370003104" lon="12.410879995490024"><ele>140.0</ele><time>2026-04-11T07:36:33.999Z</time></trkpt><trkpt lat="43.97492271719909" lon="12.410936031712534"><ele>140.0</ele><time>2026-04-11T07:36:34.999Z</time></trkpt><trkpt lat="43.97481644635477" lon="12.410990420738276"><ele>140.0</ele><time>2026-04-11T07:36:35.999Z</time></trkpt><trkpt lat="43.97470739578088" lon="12.411045244865093"><ele>137.5</ele><time>2026-04-11T07:36:36.999Z</time></trkpt><trkpt lat="43.97459733519626" lon="12.411099684545444"><ele>135.0</ele><time>2026-04-11T07:36:37.999Z</time></trkpt><trkpt lat="43.97448253775594" lon="12.41114859839739"><ele>132.5</ele><time>2026-04-11T07:36:38.999Z</time></trkpt><trkpt lat="43.97436506904231" lon="12.411192920132248"><ele>130.0</ele><time>2026-04-11T07:36:39.999Z</time></trkpt><trkpt lat="43.974246667905234" lon="12.411234799645058"><ele>131.25</ele><time>2026-04-11T07:36:40.999Z</time></trkpt><trkpt lat="43.97412695512007" lon="12.41127550551082"><ele>132.5</ele><time>2026-04-11T07:36:41.999Z</time></trkpt><trkpt lat="43.97400762243452" lon="12.411314788226354"><ele>133.75</ele><time>2026-04-11T07:36:42.999Z</time></trkpt><trkpt lat="43.973889169776825" lon="12.41135502589375"><ele>135.0</ele><time>2026-04-11T07:36:43.999Z</time></trkpt><trkpt lat="43.97377325512191" lon="12.411391832824838"><ele>135.0</ele><time>2026-04-11T07:36:44.999Z</time></trkpt><trkpt lat="43.97366049118229" lon="12.411427602454694"><ele>135.0</ele><time>2026-04-11T07:36:45.999Z</time></trkpt><trkpt lat="43.973552080051924" lon="12.411461873859261"><ele>135.0</ele><time>2026-04-11T07:36:46.999Z</time></trkpt><trkpt lat="43.973447623574174" lon="12.411497253294762"><ele>135.0</ele><time>2026-04-11T07:36:47.999Z</time></trkpt><trkpt lat="43.97334824121492" lon="12.411540870627315"><ele>135.0</ele><time>2026-04-11T07:36:48.998Z</time></trkpt><trkpt lat="43.9732532309236" lon="12.411587851815398"><ele>133.6</ele><time>2026-04-11T07:36:49.998Z</time></trkpt><trkpt lat="43.97316359342917" lon="12.411637412209695"><ele>132.2</ele><time>2026-04-11T07:36:50.998Z</time></trkpt><trkpt lat="43.97307676508021" lon="12.411685515152714"><ele>130.8</ele><time>2026-04-11T07:36:51.998Z</time></trkpt><trkpt lat="43.972989784036244" lon="12.411725802942014"><ele>129.4</ele><time>2026-04-11T07:36:52.998Z</time></trkpt><trkpt lat="43.97289926574842" lon="12.411738580711983"><ele>128.0</ele><time>2026-04-11T07:36:53.998Z</time></trkpt><trkpt lat="43.97280304661248" lon="12.411710558382316"><ele>128.0</ele><time>2026-04-11T07:36:54.998Z</time></trkpt><trkpt lat="43.97271313419169" lon="12.41165742710075"><ele>128.0</ele><time>2026-04-11T07:36:55.998Z</time></trkpt><trkpt lat="43.97261308949962" lon="12.411642896632756"><ele>128.0</ele><time>2026-04-11T07:36:56.998Z</time></trkpt><trkpt lat="43.972505955228606" lon="12.411658768600502"><ele>128.0</ele><time>2026-04-11T07:36:57.998Z</time></trkpt><trkpt lat="43.9723928353687" lon="12.411697294613386"><ele>128.0</ele><time>2026-04-11T07:36:58.998Z</time></trkpt><trkpt lat="43.97227601213527" lon="12.411752588994757"><ele>126.25</ele><time>2026-04-11T07:36:59.998Z</time></trkpt><trkpt lat="43.97216517370537" lon="12.411813153979143"><ele>124.5</ele><time>2026-04-11T07:37:00.998Z</time></trkpt><trkpt lat="43.97204712437039" lon="12.411873686774873"><ele>122.75</ele><time>2026-04-11T07:37:01.998Z</time></trkpt><trkpt lat="43.971922281686695" lon="12.411939625915931"><ele>121.0</ele><time>2026-04-11T07:37:02.998Z</time></trkpt><trkpt lat="43.97179818530824" lon="12.411998549488349"><ele>120.0</ele><time>2026-04-11T07:37:03.998Z</time></trkpt><trkpt lat="43.971669113591766" lon="12.412048718261596"><ele>119.0</ele><time>2026-04-11T07:37:04.998Z</time></trkpt><trkpt lat="43.97153854592688" lon="12.41209455920571"><ele>118.0</ele><time>2026-04-11T07:37:05.998Z</time></trkpt><trkpt lat="43.97141567644054" lon="12.412133121804017"><ele>117.0</ele><time>2026-04-11T07:37:06.998Z</time></trkpt><trkpt lat="43.97129540175212" lon="12.412165924143807"><ele>117.0</ele><time>2026-04-11T07:37:07.998Z</time></trkpt><trkpt lat="43.97117859069417" lon="12.41219553252479"><ele>117.0</ele><time>2026-04-11T07:37:08.998Z</time></trkpt><trkpt lat="43.97106662803931" lon="12.412220141873215"><ele>117.0</ele><time>2026-04-11T07:37:09.998Z</time></trkpt><trkpt lat="43.97095539824012" lon="12.412241129975213"><ele>117.0</ele><time>2026-04-11T07:37:10.998Z</time></trkpt><trkpt lat="43.9708446554606" lon="12.412256866765247"><ele>116.5</ele><time>2026-04-11T07:37:11.998Z</time></trkpt><trkpt lat="43.9707331947126" lon="12.41226944741725"><ele>116.0</ele><time>2026-04-11T07:37:12.998Z</time></trkpt><trkpt lat="43.97062159571209" lon="12.412274443338488"><ele>115.5</ele><time>2026-04-11T07:37:13.998Z</time></trkpt><trkpt lat="43.97050507978195" lon="12.412272451455541"><ele>115.0</ele><time>2026-04-11T07:37:15Z</time></trkpt><trkpt lat="43.97038739146573" lon="12.41226971523329"><ele>115.0</ele><time>2026-04-11T07:37:16Z</time></trkpt><trkpt lat="43.970267904100865" lon="12.412259401246297"><ele>115.0</ele><time>2026-04-11T07:37:17Z</time></trkpt><trkpt lat="43.97014585092487" lon="12.412237713113921"><ele>115.0</ele><time>2026-04-11T07:37:18Z</time></trkpt><trkpt lat="43.97003665238769" lon="12.412196559055936"><ele>115.0</ele><time>2026-04-11T07:37:19Z</time></trkpt><trkpt lat="43.969914834902625" lon="12.412173671601275"><ele>114.75</ele><time>2026-04-11T07:37:20Z</time></trkpt><trkpt lat="43.96978833161777" lon="12.41214027633991"><ele>114.5</ele><time>2026-04-11T07:37:21Z</time></trkpt><trkpt lat="43.96967004766456" lon="12.412095439592413"><ele>114.25</ele><time>2026-04-11T07:37:22Z</time></trkpt><trkpt lat="43.969552084836174" lon="12.41204118745407"><ele>114.0</ele><time>2026-04-11T07:37:23Z</time></trkpt><trkpt lat="43.969440468039586" lon="12.411988231475508"><ele>114.0</ele><time>2026-04-11T07:37:24Z</time></trkpt><trkpt lat="43.96933497343032" lon="12.411926359957363"><ele>114.0</ele><time>2026-04-11T07:37:25Z</time></trkpt><trkpt lat="43.96922829251515" lon="12.41185218609339"><ele>114.0</ele><time>2026-04-11T07:37:26Z</time></trkpt><trkpt lat="43.969121604662725" lon="12.411776818535873"><ele>114.0</ele><time>2026-04-11T07:37:27Z</time></trkpt><trkpt lat="43.969017188421745" lon="12.4116979718251"><ele>114.0</ele><time>2026-04-11T07:37:28Z</time></trkpt><trkpt lat="43.968913737818696" lon="12.411607812258646"><ele>114.0</ele><time>2026-04-11T07:37:29Z</time></trkpt><trkpt lat="43.9688108420034" lon="12.41151265765154"><ele>114.0</ele><time>2026-04-11T07:37:30Z</time></trkpt><trkpt lat="43.968710466164694" lon="12.41141519651583"><ele>114.0</ele><time>2026-04-11T07:37:31Z</time></trkpt><trkpt lat="43.96861557775751" lon="12.411310655626925"><ele>114.0</ele><time>2026-04-11T07:37:32Z</time></trkpt><trkpt lat="43.96852634682625" lon="12.41120404610332"><ele>114.0</ele><time>2026-04-11T07:37:33Z</time></trkpt><trkpt lat="43.96843961999352" lon="12.411096430532801"><ele>114.0</ele><time>2026-04-11T07:37:34Z</time></trkpt><trkpt lat="43.96835669019856" lon="12.410985695179217"><ele>114.0</ele><time>2026-04-11T07:37:35Z</time></trkpt><trkpt lat="43.96827617722968" lon="12.410867725353604"><ele>114.0</ele><time>2026-04-11T07:37:35.999Z</time></trkpt><trkpt lat="43.96819793390137" lon="12.410743794550756"><ele>114.0</ele><time>2026-04-11T07:37:36.999Z</time></trkpt><trkpt lat="43.968123567334885" lon="12.410616791245072"><ele>114.0</ele><time>2026-04-11T07:37:37.999Z</time></trkpt><trkpt lat="43.968051739934054" lon="12.410484531682528"><ele>114.0</ele><time>2026-04-11T07:37:38.999Z</time></trkpt><trkpt lat="43.96798176707055" lon="12.41034418494552"><ele>114.0</ele><time>2026-04-11T07:37:39.999Z</time></trkpt><trkpt lat="43.96791259031323" lon="12.41020403667585"><ele>114.0</ele><time>2026-04-11T07:37:40.999Z</time></trkpt><trkpt lat="43.96785040412435" lon="12.41006327483287"><ele>114.0</ele><time>2026-04-11T07:37:41.999Z</time></trkpt><trkpt lat="43.96779125779216" lon="12.409926658525043"><ele>114.0</ele><time>2026-04-11T07:37:42.999Z</time></trkpt><trkpt lat="43.96773383736817" lon="12.409785008540867"><ele>113.5</ele><time>2026-04-11T07:37:43.999Z</time></trkpt><trkpt lat="43.96767200680257" lon="12.409646605650583"><ele>113.0</ele><time>2026-04-11T07:37:44.999Z</time></trkpt><trkpt lat="43.967612217053635" lon="12.409511813000606"><ele>112.5</ele><time>2026-04-11T07:37:45.999Z</time></trkpt><trkpt lat="43.96755472201914" lon="12.409375934616401"><ele>112.0</ele><time>2026-04-11T07:37:46.999Z</time></trkpt><trkpt lat="43.9674935147671" lon="12.409242922638413"><ele>113.0</ele><time>2026-04-11T07:37:47.999Z</time></trkpt><trkpt lat="43.967431656097325" lon="12.40911049807205"><ele>113.99999999999999</ele><time>2026-04-11T07:37:48.999Z</time></trkpt><trkpt lat="43.96737570752333" lon="12.408982389684377"><ele>114.99999999999999</ele><time>2026-04-11T07:37:49.999Z</time></trkpt><trkpt lat="43.96732052720347" lon="12.408859228368467"><ele>116.0</ele><time>2026-04-11T07:37:50.999Z</time></trkpt><trkpt lat="43.967266670084435" lon="12.408737904873927"><ele>117.0</ele><time>2026-04-11T07:37:51.999Z</time></trkpt><trkpt lat="43.96721163258592" lon="12.408615022333107"><ele>117.0</ele><time>2026-04-11T07:37:52.999Z</time></trkpt><trkpt lat="43.96715413647504" lon="12.408490654318998"><ele>116.99999999999999</ele><time>2026-04-11T07:37:53.999Z</time></trkpt><trkpt lat="43.967095444652806" lon="12.408365342321723"><ele>116.99999999999999</ele><time>2026-04-11T07:37:54.999Z</time></trkpt><trkpt lat="43.96703623975856" lon="12.408237632333499"><ele>117.0</ele><time>2026-04-11T07:37:55.999Z</time></trkpt><trkpt lat="43.96697570704514" lon="12.408104224584045"><ele>117.0</ele><time>2026-04-11T07:37:56.999Z</time></trkpt><trkpt lat="43.96691764522566" lon="12.407968997454292"><ele>116.75</ele><time>2026-04-11T07:37:57.999Z</time></trkpt><trkpt lat="43.96685705973893" lon="12.407829621001282"><ele>116.5</ele><time>2026-04-11T07:37:58.999Z</time></trkpt><trkpt lat="43.966797396812986" lon="12.407688558421022"><ele>116.25</ele><time>2026-04-11T07:37:59.999Z</time></trkpt><trkpt lat="43.966735738469986" lon="12.407550706830657"><ele>116.0</ele><time>2026-04-11T07:38:00.999Z</time></trkpt><trkpt lat="43.966675550983084" lon="12.407413461831649"><ele>116.6</ele><time>2026-04-11T07:38:01.999Z</time></trkpt><trkpt lat="43.966614783222006" lon="12.407284403877552"><ele>117.19999999999999</ele><time>2026-04-11T07:38:02.999Z</time></trkpt><trkpt lat="43.96655389054215" lon="12.407160104248428"><ele>117.80000000000001</ele><time>2026-04-11T07:38:03.999Z</time></trkpt><trkpt lat="43.966492414872796" lon="12.407035969765458"><ele>118.4</ele><time>2026-04-11T07:38:04.999Z</time></trkpt><trkpt lat="43.966430605685964" lon="12.406909048778038"><ele>119.0</ele><time>2026-04-11T07:38:05.999Z</time></trkpt><trkpt lat="43.9663678758924" lon="12.40678124528075"><ele>119.0</ele><time>2026-04-11T07:38:06.999Z</time></trkpt><trkpt lat="43.966301240534236" lon="12.406653691953363"><ele>119.0</ele><time>2026-04-11T07:38:07.999Z</time></trkpt><trkpt lat="43.96622918224907" lon="12.406523410270763"><ele>119.0</ele><time>2026-04-11T07:38:08.999Z</time></trkpt><trkpt lat="43.96615542027969" lon="12.406388779173493"><ele>119.0</ele><time>2026-04-11T07:38:09.999Z</time></trkpt><trkpt lat="43.96607375312867" lon="12.406254244613333"><ele>118.75</ele><time>2026-04-11T07:38:10.999Z</time></trkpt><trkpt lat="43.965991721793394" lon="12.40611345481324"><ele>118.5</ele><time>2026-04-11T07:38:11.999Z</time></trkpt><trkpt lat="43.965912039918045" lon="12.405964090493478"><ele>118.25</ele><time>2026-04-11T07:38:12.999Z</time></trkpt><trkpt lat="43.96582474717373" lon="12.405818804198615"><ele>118.0</ele><time>2026-04-11T07:38:13.999Z</time></trkpt><trkpt lat="43.96573163395134" lon="12.405677853480427"><ele>118.5</ele><time>2026-04-11T07:38:14.999Z</time></trkpt><trkpt lat="43.965638970982376" lon="12.405545861484512"><ele>119.0</ele><time>2026-04-11T07:38:15.999Z</time></trkpt><trkpt lat="43.96554887089818" lon="12.405422380484817"><ele>119.5</ele><time>2026-04-11T07:38:16.999Z</time></trkpt><trkpt lat="43.96546373561399" lon="12.405303491421863"><ele>120.0</ele><time>2026-04-11T07:38:17.999Z</time></trkpt><trkpt lat="43.9653804602955" lon="12.405193374011303"><ele>120.0</ele><time>2026-04-11T07:38:18.999Z</time></trkpt><trkpt lat="43.965302525594836" lon="12.405086424649543"><ele>120.0</ele><time>2026-04-11T07:38:19.999Z</time></trkpt><trkpt lat="43.96522897949494" lon="12.404981929701322"><ele>120.0</ele><time>2026-04-11T07:38:20.999Z</time></trkpt><trkpt lat="43.96515299421992" lon="12.404879533952787"><ele>120.0</ele><time>2026-04-11T07:38:21.999Z</time></trkpt><trkpt lat="43.96507473068227" lon="12.404775311061504"><ele>120.0</ele><time>2026-04-11T07:38:22.999Z</time></trkpt><trkpt lat="43.96499644998386" lon="12.40466974262436"><ele>120.2</ele><time>2026-04-11T07:38:23.999Z</time></trkpt><trkpt lat="43.96491932342039" lon="12.404564011110123"><ele>120.4</ele><time>2026-04-11T07:38:24.999Z</time></trkpt><trkpt lat="43.96484144963049" lon="12.404460730362459"><ele>120.6</ele><time>2026-04-11T07:38:25.999Z</time></trkpt><trkpt lat="43.96476372918321" lon="12.404353819750586"><ele>120.8</ele><time>2026-04-11T07:38:26.999Z</time></trkpt><trkpt lat="43.96468348095717" lon="12.4042456241986"><ele>121.0</ele><time>2026-04-11T07:38:27.999Z</time></trkpt><trkpt lat="43.9646039816361" lon="12.404131670188333"><ele>121.0</ele><time>2026-04-11T07:38:28.999Z</time></trkpt><trkpt lat="43.96452008239325" lon="12.40401611230542"><ele>121.0</ele><time>2026-04-11T07:38:29.999Z</time></trkpt><trkpt lat="43.964432835885205" lon="12.403899972738138"><ele>121.0</ele><time>2026-04-11T07:38:30.999Z</time></trkpt><trkpt lat="43.96434532222998" lon="12.403780364966295"><ele>121.0</ele><time>2026-04-11T07:38:31.999Z</time></trkpt><trkpt lat="43.964255774794985" lon="12.40366402035217"><ele>123.0</ele><time>2026-04-11T07:38:32.999Z</time></trkpt><trkpt lat="43.96416120019604" lon="12.403550899190535"><ele>125.0</ele><time>2026-04-11T07:38:33.999Z</time></trkpt><trkpt lat="43.96406521994724" lon="12.40343559106261"><ele>127.0</ele><time>2026-04-11T07:38:34.999Z</time></trkpt><trkpt lat="43.96397134765122" lon="12.403328537529672"><ele>129.0</ele><time>2026-04-11T07:38:35.999Z</time></trkpt><trkpt lat="43.963879916551754" lon="12.403224990007915"><ele>129.0</ele><time>2026-04-11T07:38:36.999Z</time></trkpt><trkpt lat="43.96378355270289" lon="12.403124632529416"><ele>129.0</ele><time>2026-04-11T07:38:37.999Z</time></trkpt><trkpt lat="43.96368741488084" lon="12.403030749448428"><ele>129.0</ele><time>2026-04-11T07:38:38.999Z</time></trkpt><trkpt lat="43.96359091056518" lon="12.40294097479122"><ele>129.0</ele><time>2026-04-11T07:38:39.999Z</time></trkpt><trkpt lat="43.96349392481093" lon="12.402855188986438"><ele>129.0</ele><time>2026-04-11T07:38:40.999Z</time></trkpt><trkpt lat="43.96339243115053" lon="12.402774067870913"><ele>129.0</ele><time>2026-04-11T07:38:41.999Z</time></trkpt><trkpt lat="43.96328665379967" lon="12.402701811233431"><ele>129.0</ele><time>2026-04-11T07:38:42.999Z</time></trkpt><trkpt lat="43.96318468235165" lon="12.402628566224575"><ele>129.0</ele><time>2026-04-11T07:38:43.999Z</time></trkpt><trkpt lat="43.963085307540126" lon="12.402563322638915"><ele>129.0</ele><time>2026-04-11T07:38:44.999Z</time></trkpt><trkpt lat="43.96298808170265" lon="12.40250453935628"><ele>129.0</ele><time>2026-04-11T07:38:45.999Z</time></trkpt><trkpt lat="43.962894724310246" lon="12.402449062922573"><ele>129.0</ele><time>2026-04-11T07:38:46.999Z</time></trkpt><trkpt lat="43.96280351790575" lon="12.402391923357309"><ele>129.0</ele><time>2026-04-11T07:38:47.999Z</time></trkpt><trkpt lat="43.96271030906853" lon="12.402334722307394"><ele>129.0</ele><time>2026-04-11T07:38:48.999Z</time></trkpt><trkpt lat="43.96261363161665" lon="12.402279445732592"><ele>129.0</ele><time>2026-04-11T07:38:49.999Z</time></trkpt><trkpt lat="43.96251394877485" lon="12.402221881834391"><ele>129.0</ele><time>2026-04-11T07:38:50.999Z</time></trkpt><trkpt lat="43.96241183722288" lon="12.40216337483149"><ele>129.0</ele><time>2026-04-11T07:38:51.998Z</time></trkpt><trkpt lat="43.96231486671534" lon="12.402105691947392"><ele>129.0</ele><time>2026-04-11T07:38:52.998Z</time></trkpt><trkpt lat="43.962215431076935" lon="12.402046781994128"><ele>129.0</ele><time>2026-04-11T07:38:53.998Z</time></trkpt><trkpt lat="43.962115010880005" lon="12.401988524803404"><ele>129.0</ele><time>2026-04-11T07:38:54.998Z</time></trkpt><trkpt lat="43.96202213589482" lon="12.401931222608745"><ele>129.0</ele><time>2026-04-11T07:38:55.998Z</time></trkpt><trkpt lat="43.961938919206986" lon="12.401877170885182"><ele>129.0</ele><time>2026-04-11T07:38:56.998Z</time></trkpt><trkpt lat="43.9618648847206" lon="12.401830680053937"><ele>129.0</ele><time>2026-04-11T07:38:57.998Z</time></trkpt><trkpt lat="43.96179304300911" lon="12.40178811055713"><ele>129.0</ele><time>2026-04-11T07:38:58.998Z</time></trkpt><trkpt lat="43.96171825984121" lon="12.40174237707227"><ele>129.0</ele><time>2026-04-11T07:38:59.998Z</time></trkpt><trkpt lat="43.96164917258677" lon="12.40168922393521"><ele>129.4</ele><time>2026-04-11T07:39:00.998Z</time></trkpt><trkpt lat="43.961579192856036" lon="12.401612657402797"><ele>129.8</ele><time>2026-04-11T07:39:01.998Z</time></trkpt><trkpt lat="43.96150496438265" lon="12.401536535348738"><ele>130.2</ele><time>2026-04-11T07:39:02.998Z</time></trkpt><trkpt lat="43.96141834424761" lon="12.401467342388358"><ele>130.6</ele><time>2026-04-11T07:39:03.998Z</time></trkpt><trkpt lat="43.96132713187178" lon="12.401413445942344"><ele>131.0</ele><time>2026-04-11T07:39:04.998Z</time></trkpt><trkpt lat="43.9612335468881" lon="12.401340365241593"><ele>130.5</ele><time>2026-04-11T07:39:05.998Z</time></trkpt><trkpt lat="43.961141667108016" lon="12.401254594188861"><ele>130.0</ele><time>2026-04-11T07:39:06.998Z</time></trkpt><trkpt lat="43.96104884673128" lon="12.401161897115726"><ele>129.5</ele><time>2026-04-11T07:39:07.998Z</time></trkpt><trkpt lat="43.960953866909726" lon="12.40106310367636"><ele>129.0</ele><time>2026-04-11T07:39:08.998Z</time></trkpt><trkpt lat="43.96086404726879" lon="12.400946126304767"><ele>129.0</ele><time>2026-04-11T07:39:09.998Z</time></trkpt><trkpt lat="43.9607756970534" lon="12.400824282690795"><ele>129.0</ele><time>2026-04-11T07:39:10.998Z</time></trkpt><trkpt lat="43.96069637993952" lon="12.400703390628149"><ele>129.0</ele><time>2026-04-11T07:39:11.998Z</time></trkpt><trkpt lat="43.96061973144189" lon="12.40058067529884"><ele>129.0</ele><time>2026-04-11T07:39:12.998Z</time></trkpt><trkpt lat="43.96054643939495" lon="12.400455876699697"><ele>128.2</ele><time>2026-04-11T07:39:13.998Z</time></trkpt><trkpt lat="43.9604768231916" lon="12.400332265272635"><ele>127.4</ele><time>2026-04-11T07:39:14.998Z</time></trkpt><trkpt lat="43.96041458799132" lon="12.400210616408176"><ele>126.6</ele><time>2026-04-11T07:39:15.998Z</time></trkpt><trkpt lat="43.960357389397146" lon="12.40008710524896"><ele>125.8</ele><time>2026-04-11T07:39:16.998Z</time></trkpt><trkpt lat="43.96029612202082" lon="12.39996474897428"><ele>125.0</ele><time>2026-04-11T07:39:17.998Z</time></trkpt><trkpt lat="43.96023294495871" lon="12.39984583665733"><ele>125.0</ele><time>2026-04-11T07:39:18.998Z</time></trkpt><trkpt lat="43.96016911789761" lon="12.39972968703042"><ele>125.0</ele><time>2026-04-11T07:39:20Z</time></trkpt><trkpt lat="43.960105513680794" lon="12.39960835860672"><ele>125.0</ele><time>2026-04-11T07:39:21Z</time></trkpt><trkpt lat="43.96004207651076" lon="12.399488889196034"><ele>125.0</ele><time>2026-04-11T07:39:22Z</time></trkpt><trkpt lat="43.95997688727331" lon="12.39936595969758"><ele>125.0</ele><time>2026-04-11T07:39:23Z</time></trkpt><trkpt lat="43.959908280253586" lon="12.399241746613509"><ele>125.0</ele><time>2026-04-11T07:39:24Z</time></trkpt><trkpt lat="43.95983671127855" lon="12.399115041716286"><ele>125.0</ele><time>2026-04-11T07:39:25Z</time></trkpt><trkpt lat="43.95976593718487" lon="12.398985033125173"><ele>125.0</ele><time>2026-04-11T07:39:26Z</time></trkpt><trkpt lat="43.959695422183636" lon="12.398852730429711"><ele>125.0</ele><time>2026-04-11T07:39:27Z</time></trkpt><trkpt lat="43.95962662890303" lon="12.39871239315994"><ele>126.4</ele><time>2026-04-11T07:39:28Z</time></trkpt><trkpt lat="43.959562598442496" lon="12.398579257115617"><ele>127.8</ele><time>2026-04-11T07:39:29Z</time></trkpt><trkpt lat="43.959501467853926" lon="12.398453663189219"><ele>129.2</ele><time>2026-04-11T07:39:30Z</time></trkpt><trkpt lat="43.95944186009152" lon="12.39833267400735"><ele>130.6</ele><time>2026-04-11T07:39:31Z</time></trkpt><trkpt lat="43.95938398062047" lon="12.39821689551319"><ele>132.0</ele><time>2026-04-11T07:39:32Z</time></trkpt><trkpt lat="43.9593237989129" lon="12.398096671777987"><ele>132.0</ele><time>2026-04-11T07:39:33Z</time></trkpt><trkpt lat="43.95926403500757" lon="12.397971815020748"><ele>132.0</ele><time>2026-04-11T07:39:34Z</time></trkpt><trkpt lat="43.959204578308295" lon="12.39784419897446"><ele>132.0</ele><time>2026-04-11T07:39:35Z</time></trkpt><trkpt lat="43.95914744484966" lon="12.397708344888573"><ele>132.0</ele><time>2026-04-11T07:39:36Z</time></trkpt><trkpt lat="43.95909359420911" lon="12.397571427054759"><ele>132.0</ele><time>2026-04-11T07:39:37Z</time></trkpt><trkpt lat="43.95903947684162" lon="12.397434585444053"><ele>131.5</ele><time>2026-04-11T07:39:38Z</time></trkpt><trkpt lat="43.958982987343596" lon="12.397296827221236"><ele>131.0</ele><time>2026-04-11T07:39:39Z</time></trkpt><trkpt lat="43.95892462288881" lon="12.39716049341533"><ele>130.5</ele><time>2026-04-11T07:39:40Z</time></trkpt><trkpt lat="43.9588680187479" lon="12.397022011901127"><ele>130.0</ele><time>2026-04-11T07:39:41Z</time></trkpt><trkpt lat="43.95881211354611" lon="12.396879677247133"><ele>130.0</ele><time>2026-04-11T07:39:42Z</time></trkpt><trkpt lat="43.95875845030652" lon="12.396737533514958"><ele>130.0</ele><time>2026-04-11T07:39:43Z</time></trkpt><trkpt lat="43.95870635268037" lon="12.396593230124513"><ele>130.0</ele><time>2026-04-11T07:39:44Z</time></trkpt><trkpt lat="43.958655788324094" lon="12.396447842123175"><ele>130.0</ele><time>2026-04-11T07:39:45Z</time></trkpt><trkpt lat="43.95860400024418" lon="12.396305264248495"><ele>129.25</ele><time>2026-04-11T07:39:45.999Z</time></trkpt><trkpt lat="43.958552208287315" lon="12.396159785369813"><ele>128.5</ele><time>2026-04-11T07:39:46.999Z</time></trkpt><trkpt lat="43.958501359001936" lon="12.396011266070111"><ele>127.75</ele><time>2026-04-11T07:39:47.999Z</time></trkpt><trkpt lat="43.95845103305338" lon="12.395861879488011"><ele>127.0</ele><time>2026-04-11T07:39:48.999Z</time></trkpt><trkpt lat="43.958398242609555" lon="12.395711052439959"><ele>128.25</ele><time>2026-04-11T07:39:49.999Z</time></trkpt><trkpt lat="43.95834407763835" lon="12.39556005365597"><ele>129.5</ele><time>2026-04-11T07:39:50.999Z</time></trkpt><trkpt lat="43.95828923904082" lon="12.395409376573122"><ele>130.75</ele><time>2026-04-11T07:39:51.999Z</time></trkpt><trkpt lat="43.958237229373545" lon="12.395262964760217"><ele>132.0</ele><time>2026-04-11T07:39:52.999Z</time></trkpt><trkpt lat="43.95818692389602" lon="12.39511927706772"><ele>132.0</ele><time>2026-04-11T07:39:53.999Z</time></trkpt><trkpt lat="43.95813612646961" lon="12.394973482597418"><ele>132.0</ele><time>2026-04-11T07:39:54.999Z</time></trkpt><trkpt lat="43.95808511832863" lon="12.394827949568516"><ele>132.0</ele><time>2026-04-11T07:39:55.999Z</time></trkpt><trkpt lat="43.95803537847324" lon="12.39468192070817"><ele>132.0</ele><time>2026-04-11T07:39:56.999Z</time></trkpt><trkpt lat="43.95798521662458" lon="12.394535208948422"><ele>131.0</ele><time>2026-04-11T07:39:57.999Z</time></trkpt><trkpt lat="43.95793380029099" lon="12.394389021326331"><ele>130.0</ele><time>2026-04-11T07:39:58.999Z</time></trkpt><trkpt lat="43.95788062257051" lon="12.394240008947849"><ele>129.0</ele><time>2026-04-11T07:39:59.999Z</time></trkpt><trkpt lat="43.95782726227289" lon="12.394088527277702"><ele>128.0</ele><time>2026-04-11T07:40:00.999Z</time></trkpt><trkpt lat="43.95777266065438" lon="12.393938385054142"><ele>127.75</ele><time>2026-04-11T07:40:01.999Z</time></trkpt><trkpt lat="43.957719345783275" lon="12.393784806365966"><ele>127.5</ele><time>2026-04-11T07:40:02.999Z</time></trkpt><trkpt lat="43.9576654067621" lon="12.39363061102252"><ele>127.25</ele><time>2026-04-11T07:40:03.999Z</time></trkpt><trkpt lat="43.95761063392094" lon="12.393476154840982"><ele>127.0</ele><time>2026-04-11T07:40:04.999Z</time></trkpt><trkpt lat="43.957558025267765" lon="12.393325516316123"><ele>127.8</ele><time>2026-04-11T07:40:05.999Z</time></trkpt><trkpt lat="43.95750704210269" lon="12.393183561174867"><ele>128.6</ele><time>2026-04-11T07:40:06.999Z</time></trkpt><trkpt lat="43.95745494803872" lon="12.39304357233405"><ele>129.39999999999998</ele><time>2026-04-11T07:40:07.999Z</time></trkpt><trkpt lat="43.957408059464" lon="12.392903049584445"><ele>130.2</ele><time>2026-04-11T07:40:08.999Z</time></trkpt><trkpt lat="43.95736254145052" lon="12.392763608777235"><ele>131.0</ele><time>2026-04-11T07:40:09.999Z</time></trkpt><trkpt lat="43.95731829655002" lon="12.392626631306957"><ele>131.0</ele><time>2026-04-11T07:40:10.999Z</time></trkpt><trkpt lat="43.95727397670413" lon="12.392484907291017"><ele>131.0</ele><time>2026-04-11T07:40:11.999Z</time></trkpt><trkpt lat="43.957231390733014" lon="12.392336324893096"><ele>131.0</ele><time>2026-04-11T07:40:12.999Z</time></trkpt><trkpt lat="43.95718867514743" lon="12.392185741157212"><ele>131.0</ele><time>2026-04-11T07:40:13.999Z</time></trkpt><trkpt lat="43.95714851336462" lon="12.39202765855398"><ele>130.75</ele><time>2026-04-11T07:40:14.999Z</time></trkpt><trkpt lat="43.95710945475373" lon="12.391862089186084"><ele>130.5</ele><time>2026-04-11T07:40:15.999Z</time></trkpt><trkpt lat="43.957076990174166" lon="12.391691627560176"><ele>130.25</ele><time>2026-04-11T07:40:16.999Z</time></trkpt><trkpt lat="43.95704890409964" lon="12.391511633948133"><ele>130.0</ele><time>2026-04-11T07:40:17.999Z</time></trkpt><trkpt lat="43.95702612589088" lon="12.391326860799493"><ele>130.0</ele><time>2026-04-11T07:40:18.999Z</time></trkpt><trkpt lat="43.95701079190957" lon="12.39113494323754"><ele>130.0</ele><time>2026-04-11T07:40:19.999Z</time></trkpt><trkpt lat="43.957001333891405" lon="12.390940706373321"><ele>130.0</ele><time>2026-04-11T07:40:20.999Z</time></trkpt><trkpt lat="43.956994279233285" lon="12.390742580860552"><ele>130.0</ele><time>2026-04-11T07:40:21.999Z</time></trkpt><trkpt lat="43.95699348104061" lon="12.390547025774188"><ele>130.25</ele><time>2026-04-11T07:40:22.999Z</time></trkpt><trkpt lat="43.95699805395928" lon="12.390354436100095"><ele>130.5</ele><time>2026-04-11T07:40:23.999Z</time></trkpt><trkpt lat="43.95700802303828" lon="12.390166193305676"><ele>130.75</ele><time>2026-04-11T07:40:24.999Z</time></trkpt><trkpt lat="43.95702177647748" lon="12.38998490833539"><ele>131.0</ele><time>2026-04-11T07:40:25.999Z</time></trkpt><trkpt lat="43.9570394623968" lon="12.389811862396051"><ele>130.75</ele><time>2026-04-11T07:40:26.999Z</time></trkpt><trkpt lat="43.957060805434075" lon="12.389646943339812"><ele>130.5</ele><time>2026-04-11T07:40:27.999Z</time></trkpt><trkpt lat="43.957085909752145" lon="12.389488359257204"><ele>130.25</ele><time>2026-04-11T07:40:28.999Z</time></trkpt><trkpt lat="43.957113829304475" lon="12.389336205568487"><ele>130.0</ele><time>2026-04-11T07:40:29.999Z</time></trkpt><trkpt lat="43.95714410912147" lon="12.389184042496098"><ele>130.0</ele><time>2026-04-11T07:40:30.999Z</time></trkpt><trkpt lat="43.95717562566645" lon="12.389032802739282"><ele>130.0</ele><time>2026-04-11T07:40:31.999Z</time></trkpt><trkpt lat="43.9572101547902" lon="12.388880258357473"><ele>130.0</ele><time>2026-04-11T07:40:32.999Z</time></trkpt><trkpt lat="43.95725141600998" lon="12.38873069103044"><ele>130.0</ele><time>2026-04-11T07:40:33.999Z</time></trkpt><trkpt lat="43.95729251233916" lon="12.388581018773303"><ele>131.0</ele><time>2026-04-11T07:40:34.999Z</time></trkpt><trkpt lat="43.95733058446585" lon="12.388430477939488"><ele>132.0</ele><time>2026-04-11T07:40:35.999Z</time></trkpt><trkpt lat="43.957369112067376" lon="12.388282131304518"><ele>133.0</ele><time>2026-04-11T07:40:36.999Z</time></trkpt><trkpt lat="43.95740967642959" lon="12.388132468336314"><ele>134.0</ele><time>2026-04-11T07:40:37.999Z</time></trkpt><trkpt lat="43.9574507995054" lon="12.387982564892514"><ele>135.0</ele><time>2026-04-11T07:40:38.999Z</time></trkpt><trkpt lat="43.957490712474275" lon="12.387831050380344"><ele>136.0</ele><time>2026-04-11T07:40:39.999Z</time></trkpt><trkpt lat="43.957530927477556" lon="12.387678867475017"><ele>137.0</ele><time>2026-04-11T07:40:40.999Z</time></trkpt><trkpt lat="43.95757132068887" lon="12.387526133456154"><ele>138.0</ele><time>2026-04-11T07:40:41.999Z</time></trkpt><trkpt lat="43.9576121065887" lon="12.387373458623923"><ele>137.0</ele><time>2026-04-11T07:40:42.999Z</time></trkpt><trkpt lat="43.95765329489806" lon="12.387219888626335"><ele>136.0</ele><time>2026-04-11T07:40:43.999Z</time></trkpt><trkpt lat="43.95769441565663" lon="12.387063745023447"><ele>135.0</ele><time>2026-04-11T07:40:44.999Z</time></trkpt><trkpt lat="43.95773548759518" lon="12.386908466892354"><ele>134.0</ele><time>2026-04-11T07:40:45.999Z</time></trkpt><trkpt lat="43.9577735479914" lon="12.386752763161619"><ele>134.0</ele><time>2026-04-11T07:40:46.999Z</time></trkpt><trkpt lat="43.95780562259795" lon="12.38660260659417"><ele>134.0</ele><time>2026-04-11T07:40:47.999Z</time></trkpt><trkpt lat="43.95783657398132" lon="12.386457737884946"><ele>134.0</ele><time>2026-04-11T07:40:48.999Z</time></trkpt><trkpt lat="43.957861055625735" lon="12.386309794183454"><ele>134.0</ele><time>2026-04-11T07:40:49.999Z</time></trkpt><trkpt lat="43.95787991631955" lon="12.386157530332847"><ele>134.0</ele><time>2026-04-11T07:40:50.999Z</time></trkpt><trkpt lat="43.95789430154815" lon="12.385998182309992"><ele>134.25</ele><time>2026-04-11T07:40:51.999Z</time></trkpt><trkpt lat="43.95790085445354" lon="12.385836366554727"><ele>134.5</ele><time>2026-04-11T07:40:52.999Z</time></trkpt><trkpt lat="43.9579016529393" lon="12.38566805456811"><ele>134.75</ele><time>2026-04-11T07:40:53.999Z</time></trkpt><trkpt lat="43.957896018967254" lon="12.385498856582313"><ele>135.0</ele><time>2026-04-11T07:40:54.999Z</time></trkpt><trkpt lat="43.95788209700242" lon="12.385325882210095"><ele>134.75</ele><time>2026-04-11T07:40:55.999Z</time></trkpt><trkpt lat="43.957861961155444" lon="12.385152657098757"><ele>134.5</ele><time>2026-04-11T07:40:56.999Z</time></trkpt><trkpt lat="43.95783788279788" lon="12.384979674530987"><ele>134.25</ele><time>2026-04-11T07:40:57.999Z</time></trkpt><trkpt lat="43.95779901629254" lon="12.384803862775787"><ele>134.0</ele><time>2026-04-11T07:40:58.999Z</time></trkpt><trkpt lat="43.95775504028417" lon="12.384631639680139"><ele>134.0</ele><time>2026-04-11T07:40:59.999Z</time></trkpt><trkpt lat="43.957714794744696" lon="12.384467460479202"><ele>134.0</ele><time>2026-04-11T07:41:00.999Z</time></trkpt><trkpt lat="43.957670470192134" lon="12.384293209445561"><ele>134.0</ele><time>2026-04-11T07:41:01.999Z</time></trkpt><trkpt lat="43.95761198826061" lon="12.384125780350832"><ele>134.0</ele><time>2026-04-11T07:41:02.999Z</time></trkpt><trkpt lat="43.957548385656246" lon="12.38396178094539"><ele>137.25</ele><time>2026-04-11T07:41:03.999Z</time></trkpt><trkpt lat="43.95748777366808" lon="12.383806622447707"><ele>140.5</ele><time>2026-04-11T07:41:04.999Z</time></trkpt><trkpt lat="43.95742524737914" lon="12.383655148499281"><ele>143.75</ele><time>2026-04-11T07:41:05.999Z</time></trkpt><trkpt lat="43.9573634412379" lon="12.383507107626487"><ele>147.0</ele><time>2026-04-11T07:41:06.998Z</time></trkpt><trkpt lat="43.95730341077507" lon="12.383366990827462"><ele>147.0</ele><time>2026-04-11T07:41:07.998Z</time></trkpt><trkpt lat="43.95724082296736" lon="12.38322730972873"><ele>147.0</ele><time>2026-04-11T07:41:08.998Z</time></trkpt><trkpt lat="43.957178469293005" lon="12.383087535745394"><ele>147.0</ele><time>2026-04-11T07:41:09.998Z</time></trkpt><trkpt lat="43.95711704363914" lon="12.382946720319223"><ele>147.0</ele><time>2026-04-11T07:41:10.998Z</time></trkpt><trkpt lat="43.95705714359889" lon="12.38280214767112"><ele>145.25</ele><time>2026-04-11T07:41:11.998Z</time></trkpt><trkpt lat="43.95699856370304" lon="12.382653841617456"><ele>143.5</ele><time>2026-04-11T07:41:12.998Z</time></trkpt><trkpt lat="43.95694185462382" lon="12.382502113682886"><ele>141.75</ele><time>2026-04-11T07:41:13.998Z</time></trkpt><trkpt lat="43.956884221534224" lon="12.38235254962883"><ele>140.0</ele><time>2026-04-11T07:41:14.998Z</time></trkpt><trkpt lat="43.956826914919866" lon="12.38221247874112"><ele>139.2</ele><time>2026-04-11T07:41:15.998Z</time></trkpt><trkpt lat="43.95677034316589" lon="12.382074024630574"><ele>138.4</ele><time>2026-04-11T07:41:16.998Z</time></trkpt><trkpt lat="43.956715583767654" lon="12.38193654464425"><ele>137.6</ele><time>2026-04-11T07:41:17.998Z</time></trkpt><trkpt lat="43.956664376889115" lon="12.381801411501243"><ele>136.8</ele><time>2026-04-11T07:41:18.998Z</time></trkpt><trkpt lat="43.9566026176978" lon="12.381672705517593"><ele>136.0</ele><time>2026-04-11T07:41:19.998Z</time></trkpt><trkpt lat="43.95654638893988" lon="12.381537885291541"><ele>138.2</ele><time>2026-04-11T07:41:20.998Z</time></trkpt><trkpt lat="43.95649094914131" lon="12.381407363022271"><ele>140.39999999999998</ele><time>2026-04-11T07:41:21.998Z</time></trkpt><trkpt lat="43.95643486730451" lon="12.38127444185761"><ele>142.6</ele><time>2026-04-11T07:41:22.998Z</time></trkpt><trkpt lat="43.95637972175154" lon="12.381143437291273"><ele>144.79999999999998</ele><time>2026-04-11T07:41:23.998Z</time></trkpt><trkpt lat="43.95632830663898" lon="12.381016043367461"><ele>147.0</ele><time>2026-04-11T07:41:24.998Z</time></trkpt><trkpt lat="43.956272300807576" lon="12.380891291829853"><ele>147.0</ele><time>2026-04-11T07:41:26Z</time></trkpt><trkpt lat="43.95622217182132" lon="12.380762151807144"><ele>147.0</ele><time>2026-04-11T07:41:27Z</time></trkpt><trkpt lat="43.95616995677172" lon="12.38063288157083"><ele>147.0</ele><time>2026-04-11T07:41:28Z</time></trkpt><trkpt lat="43.95611746760106" lon="12.380505193326433"><ele>147.0</ele><time>2026-04-11T07:41:29Z</time></trkpt><trkpt lat="43.95606110204538" lon="12.380378373529778"><ele>147.0</ele><time>2026-04-11T07:41:30Z</time></trkpt><trkpt lat="43.95600661753864" lon="12.38024877391889"><ele>148.2</ele><time>2026-04-11T07:41:31Z</time></trkpt><trkpt lat="43.95595178725066" lon="12.38012402852872"><ele>149.39999999999998</ele><time>2026-04-11T07:41:32Z</time></trkpt><trkpt lat="43.95590500790926" lon="12.379995505568363"><ele>150.60000000000002</ele><time>2026-04-11T07:41:33Z</time></trkpt><trkpt lat="43.955853144997114" lon="12.379872614499284"><ele>151.8</ele><time>2026-04-11T07:41:34Z</time></trkpt><trkpt lat="43.955804943128186" lon="12.379754124499755"><ele>153.0</ele><time>2026-04-11T07:41:35Z</time></trkpt><trkpt lat="43.95575282320325" lon="12.37963190618196"><ele>153.0</ele><time>2026-04-11T07:41:36Z</time></trkpt><trkpt lat="43.95570755359892" lon="12.379511888182304"><ele>153.0</ele><time>2026-04-11T07:41:37Z</time></trkpt><trkpt lat="43.955654948932" lon="12.379388035955271"><ele>153.0</ele><time>2026-04-11T07:41:38Z</time></trkpt><trkpt lat="43.95560439961687" lon="12.379263748745041"><ele>153.0</ele><time>2026-04-11T07:41:39Z</time></trkpt><trkpt lat="43.955552350461446" lon="12.379139709520159"><ele>153.0</ele><time>2026-04-11T07:41:40Z</time></trkpt><trkpt lat="43.95549824614701" lon="12.379012737866178"><ele>153.0</ele><time>2026-04-11T07:41:41Z</time></trkpt><trkpt lat="43.955441028485374" lon="12.378889836938427"><ele>153.0</ele><time>2026-04-11T07:41:42Z</time></trkpt><trkpt lat="43.95538967662553" lon="12.378760542706198"><ele>153.0</ele><time>2026-04-11T07:41:43Z</time></trkpt><trkpt lat="43.955336985274926" lon="12.378629284802168"><ele>153.0</ele><time>2026-04-11T07:41:44Z</time></trkpt><trkpt lat="43.9552845174964" lon="12.378494889994176"><ele>153.0</ele><time>2026-04-11T07:41:45Z</time></trkpt><trkpt lat="43.95522882609761" lon="12.378360995030155"><ele>152.5</ele><time>2026-04-11T07:41:46Z</time></trkpt><trkpt lat="43.95517084453718" lon="12.378223316902867"><ele>152.0</ele><time>2026-04-11T07:41:47Z</time></trkpt><trkpt lat="43.95511069307325" lon="12.378083860059414"><ele>151.5</ele><time>2026-04-11T07:41:48Z</time></trkpt><trkpt lat="43.9550524404549" lon="12.377939681362244"><ele>151.0</ele><time>2026-04-11T07:41:49Z</time></trkpt><trkpt lat="43.9549927665857" lon="12.377796489293813"><ele>153.5</ele><time>2026-04-11T07:41:50Z</time></trkpt><trkpt lat="43.95493508087899" lon="12.377647520537131"><ele>156.0</ele><time>2026-04-11T07:41:51Z</time></trkpt><trkpt lat="43.95487615701986" lon="12.377498481627232"><ele>158.5</ele><time>2026-04-11T07:41:52Z</time></trkpt><trkpt lat="43.9548153838541" lon="12.377348977739434"><ele>161.0</ele><time>2026-04-11T07:41:53Z</time></trkpt><trkpt lat="43.95475721490998" lon="12.377198313572055"><ele>160.0</ele><time>2026-04-11T07:41:54Z</time></trkpt><trkpt lat="43.95469605175173" lon="12.377044751840915"><ele>159.0</ele><time>2026-04-11T07:41:55Z</time></trkpt><trkpt lat="43.954636007601856" lon="12.376897410994106"><ele>158.0</ele><time>2026-04-11T07:41:55.999Z</time></trkpt><trkpt lat="43.95457766343106" lon="12.376744481846101"><ele>157.0</ele><time>2026-04-11T07:41:56.999Z</time></trkpt><trkpt lat="43.954519914007015" lon="12.376594738922199"><ele>157.0</ele><time>2026-04-11T07:41:57.999Z</time></trkpt><trkpt lat="43.95446724720454" lon="12.376441461809383"><ele>157.0</ele><time>2026-04-11T07:41:58.999Z</time></trkpt><trkpt lat="43.95441914832401" lon="12.376283577567717"><ele>157.0</ele><time>2026-04-11T07:41:59.999Z</time></trkpt><trkpt lat="43.954367349745255" lon="12.376125725319975"><ele>157.0</ele><time>2026-04-11T07:42:00.999Z</time></trkpt><trkpt lat="43.95431736963866" lon="12.375965150425994"><ele>156.75</ele><time>2026-04-11T07:42:01.999Z</time></trkpt><trkpt lat="43.95426973412268" lon="12.375804740248984"><ele>156.5</ele><time>2026-04-11T07:42:02.999Z</time></trkpt><trkpt lat="43.954221217868344" lon="12.375641375263498"><ele>156.25</ele><time>2026-04-11T07:42:03.999Z</time></trkpt><trkpt lat="43.9541707808862" lon="12.375474496361822"><ele>156.0</ele><time>2026-04-11T07:42:04.999Z</time></trkpt><trkpt lat="43.95412271245673" lon="12.37530819252552"><ele>157.75</ele><time>2026-04-11T07:42:05.999Z</time></trkpt><trkpt lat="43.9540783168149" lon="12.375147960170667"><ele>159.5</ele><time>2026-04-11T07:42:06.999Z</time></trkpt><trkpt lat="43.95403469761009" lon="12.37499846108533"><ele>161.25</ele><time>2026-04-11T07:42:07.999Z</time></trkpt><trkpt lat="43.953991467848184" lon="12.374849781185283"><ele>163.0</ele><time>2026-04-11T07:42:08.999Z</time></trkpt><trkpt lat="43.95394947429277" lon="12.37470806403109"><ele>162.8</ele><time>2026-04-11T07:42:09.999Z</time></trkpt><trkpt lat="43.95390749704523" lon="12.37457119085426"><ele>162.60000000000002</ele><time>2026-04-11T07:42:10.999Z</time></trkpt><trkpt lat="43.95386636175905" lon="12.374434051786873"><ele>162.39999999999998</ele><time>2026-04-11T07:42:11.999Z</time></trkpt><trkpt lat="43.95382935871091" lon="12.374294351819882"><ele>162.2</ele><time>2026-04-11T07:42:12.999Z</time></trkpt><trkpt lat="43.953790333897246" lon="12.374164126519767"><ele>162.0</ele><time>2026-04-11T07:42:13.999Z</time></trkpt><trkpt lat="43.953754712726784" lon="12.374033943162177"><ele>162.0</ele><time>2026-04-11T07:42:14.999Z</time></trkpt><trkpt lat="43.95371657678647" lon="12.373906332257917"><ele>162.0</ele><time>2026-04-11T07:42:15.999Z</time></trkpt><trkpt lat="43.95368444449521" lon="12.37379820418176"><ele>162.0</ele><time>2026-04-11T07:42:16.999Z</time></trkpt><trkpt lat="43.953654454767666" lon="12.37369707625114"><ele>162.0</ele><time>2026-04-11T07:42:17.999Z</time></trkpt><trkpt lat="43.95362291085551" lon="12.373596213100495"><ele>162.0</ele><time>2026-04-11T07:42:18.999Z</time></trkpt><trkpt lat="43.95359252911896" lon="12.373495219189616"><ele>162.0</ele><time>2026-04-11T07:42:19.999Z</time></trkpt><trkpt lat="43.953559535128996" lon="12.37338734398767"><ele>161.8</ele><time>2026-04-11T07:42:20.999Z</time></trkpt><trkpt lat="43.953525977755184" lon="12.373276755405406"><ele>161.6</ele><time>2026-04-11T07:42:21.999Z</time></trkpt><trkpt lat="43.953487567892935" lon="12.373163695461955"><ele>161.4</ele><time>2026-04-11T07:42:22.999Z</time></trkpt><trkpt lat="43.95345016016095" lon="12.373045774990441"><ele>161.20000000000002</ele><time>2026-04-11T07:42:23.999Z</time></trkpt><trkpt lat="43.953415288970106" lon="12.372920693979992"><ele>161.0</ele><time>2026-04-11T07:42:24.999Z</time></trkpt><trkpt lat="43.953377279216376" lon="12.372796206070442"><ele>161.60000000000002</ele><time>2026-04-11T07:42:25.999Z</time></trkpt><trkpt lat="43.95333987457548" lon="12.372672403069087"><ele>162.2</ele><time>2026-04-11T07:42:26.999Z</time></trkpt><trkpt lat="43.95330340497206" lon="12.372521895541723"><ele>162.8</ele><time>2026-04-11T07:42:27.999Z</time></trkpt><trkpt lat="43.95326882298425" lon="12.372387917057731"><ele>163.39999999999998</ele><time>2026-04-11T07:42:28.999Z</time></trkpt><trkpt lat="43.95323130302802" lon="12.372257587216222"><ele>164.0</ele><time>2026-04-11T07:42:29.999Z</time></trkpt><trkpt lat="43.95319583817148" lon="12.372135426450416"><ele>164.0</ele><time>2026-04-11T07:42:30.999Z</time></trkpt><trkpt lat="43.95316171062989" lon="12.372008982959196"><ele>164.0</ele><time>2026-04-11T07:42:31.999Z</time></trkpt><trkpt lat="43.95312500351275" lon="12.371882238327457"><ele>164.0</ele><time>2026-04-11T07:42:32.999Z</time></trkpt><trkpt lat="43.95308582408079" lon="12.371758361657871"><ele>164.0</ele><time>2026-04-11T07:42:33.999Z</time></trkpt><trkpt lat="43.953045415918936" lon="12.371624889073583"><ele>164.0</ele><time>2026-04-11T07:42:34.999Z</time></trkpt><trkpt lat="43.953004838682446" lon="12.371484533926177"><ele>164.0</ele><time>2026-04-11T07:42:35.999Z</time></trkpt><trkpt lat="43.95296479185424" lon="12.371338739296705"><ele>164.0</ele><time>2026-04-11T07:42:36.999Z</time></trkpt><trkpt lat="43.95292378927352" lon="12.371202120856172"><ele>164.0</ele><time>2026-04-11T07:42:37.999Z</time></trkpt><trkpt lat="43.95288038839997" lon="12.371061311117893"><ele>164.0</ele><time>2026-04-11T07:42:38.999Z</time></trkpt><trkpt lat="43.95284079596452" lon="12.370919564667522"><ele>164.0</ele><time>2026-04-11T07:42:39.999Z</time></trkpt><trkpt lat="43.952798834295244" lon="12.370780043849406"><ele>164.0</ele><time>2026-04-11T07:42:40.999Z</time></trkpt><trkpt lat="43.95275617575915" lon="12.370639165990212"><ele>164.0</ele><time>2026-04-11T07:42:41.999Z</time></trkpt><trkpt lat="43.952714748841906" lon="12.370502970599192"><ele>164.0</ele><time>2026-04-11T07:42:42.999Z</time></trkpt><trkpt lat="43.952674347838844" lon="12.370359274713842"><ele>164.0</ele><time>2026-04-11T07:42:43.999Z</time></trkpt><trkpt lat="43.95263328118003" lon="12.370212708293787"><ele>164.0</ele><time>2026-04-11T07:42:44.999Z</time></trkpt><trkpt lat="43.95258972517527" lon="12.370068860256152"><ele>163.5</ele><time>2026-04-11T07:42:45.999Z</time></trkpt><trkpt lat="43.952544504503514" lon="12.369924700554693"><ele>163.0</ele><time>2026-04-11T07:42:46.999Z</time></trkpt><trkpt lat="43.95249783112719" lon="12.369779799119591"><ele>162.5</ele><time>2026-04-11T07:42:47.999Z</time></trkpt><trkpt lat="43.952448816791126" lon="12.36963509199823"><ele>162.0</ele><time>2026-04-11T07:42:48.999Z</time></trkpt><trkpt lat="43.95239477405737" lon="12.369491469301446"><ele>163.25</ele><time>2026-04-11T07:42:49.999Z</time></trkpt><trkpt lat="43.95233774706061" lon="12.369346646539269"><ele>164.5</ele><time>2026-04-11T07:42:50.999Z</time></trkpt><trkpt lat="43.952275344453454" lon="12.369202680224321"><ele>165.75</ele><time>2026-04-11T07:42:51.999Z</time></trkpt><trkpt lat="43.95221430837041" lon="12.369057728046132"><ele>167.0</ele><time>2026-04-11T07:42:52.999Z</time></trkpt><trkpt lat="43.95214893476254" lon="12.36891766379827"><ele>166.5</ele><time>2026-04-11T07:42:53.999Z</time></trkpt><trkpt lat="43.95207924520874" lon="12.36878307252455"><ele>166.0</ele><time>2026-04-11T07:42:54.999Z</time></trkpt><trkpt lat="43.95200719300058" lon="12.368655362639224"><ele>165.5</ele><time>2026-04-11T07:42:55.999Z</time></trkpt><trkpt lat="43.95193122197475" lon="12.368530401822726"><ele>165.0</ele><time>2026-04-11T07:42:56.999Z</time></trkpt><trkpt lat="43.951854044994846" lon="12.36841311640983"><ele>165.0</ele><time>2026-04-11T07:42:57.999Z</time></trkpt><trkpt lat="43.951775869645296" lon="12.368298629745656"><ele>165.0</ele><time>2026-04-11T07:42:58.999Z</time></trkpt><trkpt lat="43.95169942739837" lon="12.368192096892196"><ele>165.0</ele><time>2026-04-11T07:42:59.999Z</time></trkpt><trkpt lat="43.95161952103138" lon="12.3680953098838"><ele>165.0</ele><time>2026-04-11T07:43:00.999Z</time></trkpt><trkpt lat="43.95154076373141" lon="12.367999855327067"><ele>165.0</ele><time>2026-04-11T07:43:01.999Z</time></trkpt><trkpt lat="43.95146312970772" lon="12.367908621254756"><ele>164.0</ele><time>2026-04-11T07:43:02.999Z</time></trkpt><trkpt lat="43.951384380076604" lon="12.367818130135557"><ele>163.0</ele><time>2026-04-11T07:43:03.999Z</time></trkpt><trkpt lat="43.95130404985174" lon="12.367727899871413"><ele>162.0</ele><time>2026-04-11T07:43:04.999Z</time></trkpt><trkpt lat="43.95122165614389" lon="12.367633816108237"><ele>161.0</ele><time>2026-04-11T07:43:05.999Z</time></trkpt><trkpt lat="43.95113757924288" lon="12.367538364809308"><ele>160.0</ele><time>2026-04-11T07:43:06.999Z</time></trkpt><trkpt lat="43.95105078089205" lon="12.367440934250816"><ele>160.0</ele><time>2026-04-11T07:43:07.999Z</time></trkpt><trkpt lat="43.95096279196442" lon="12.367338668616535"><ele>160.0</ele><time>2026-04-11T07:43:08.999Z</time></trkpt><trkpt lat="43.950871014263186" lon="12.367232003089494"><ele>160.0</ele><time>2026-04-11T07:43:09.999Z</time></trkpt><trkpt lat="43.95077597975372" lon="12.36712749615111"><ele>160.0</ele><time>2026-04-11T07:43:10.999Z</time></trkpt><trkpt lat="43.950682106112794" lon="12.367024135748991"><ele>159.4</ele><time>2026-04-11T07:43:11.999Z</time></trkpt><trkpt lat="43.95059414034457" lon="12.366925364486578"><ele>158.8</ele><time>2026-04-11T07:43:12.999Z</time></trkpt><trkpt lat="43.95050788284671" lon="12.366828616869137"><ele>158.2</ele><time>2026-04-11T07:43:13.999Z</time></trkpt><trkpt lat="43.95042427674281" lon="12.366729693293104"><ele>157.6</ele><time>2026-04-11T07:43:14.998Z</time></trkpt><trkpt lat="43.950341358375205" lon="12.366631189595251"><ele>157.0</ele><time>2026-04-11T07:43:15.998Z</time></trkpt><trkpt lat="43.95025151715324" lon="12.366533680524373"><ele>157.0</ele><time>2026-04-11T07:43:16.998Z</time></trkpt><trkpt lat="43.950160788108704" lon="12.366433069665876"><ele>157.0</ele><time>2026-04-11T07:43:17.998Z</time></trkpt><trkpt lat="43.95007108442253" lon="12.36632464491314"><ele>157.0</ele><time>2026-04-11T07:43:18.998Z</time></trkpt><trkpt lat="43.94997836938671" lon="12.366214877544119"><ele>157.0</ele><time>2026-04-11T07:43:19.998Z</time></trkpt><trkpt lat="43.94988329285276" lon="12.366104308258707"><ele>159.5</ele><time>2026-04-11T07:43:20.998Z</time></trkpt><trkpt lat="43.94978484179444" lon="12.36599322501741"><ele>162.0</ele><time>2026-04-11T07:43:21.998Z</time></trkpt><trkpt lat="43.94968552057133" lon="12.365878525287496"><ele>164.5</ele><time>2026-04-11T07:43:22.998Z</time></trkpt><trkpt lat="43.94958725567401" lon="12.365759451917"><ele>167.0</ele><time>2026-04-11T07:43:23.998Z</time></trkpt><trkpt lat="43.94949714844144" lon="12.365643137094905"><ele>167.0</ele><time>2026-04-11T07:43:24.998Z</time></trkpt><trkpt lat="43.949410976498" lon="12.365521721478727"><ele>167.0</ele><time>2026-04-11T07:43:25.998Z</time></trkpt><trkpt lat="43.94932291724848" lon="12.36539844331506"><ele>167.0</ele><time>2026-04-11T07:43:26.998Z</time></trkpt><trkpt lat="43.9492269258655" lon="12.365265739008084"><ele>167.0</ele><time>2026-04-11T07:43:27.998Z</time></trkpt><trkpt lat="43.949140615739154" lon="12.365122515896761"><ele>167.0</ele><time>2026-04-11T07:43:28.998Z</time></trkpt><trkpt lat="43.949064053603685" lon="12.36498029063054"><ele>167.0</ele><time>2026-04-11T07:43:29.998Z</time></trkpt><trkpt lat="43.94898995411596" lon="12.364837010245076"><ele>167.0</ele><time>2026-04-11T07:43:31Z</time></trkpt><trkpt lat="43.94891725876132" lon="12.364690605609685"><ele>167.0</ele><time>2026-04-11T07:43:32Z</time></trkpt><trkpt lat="43.94885172028228" lon="12.364534372806052"><ele>165.5</ele><time>2026-04-11T07:43:33Z</time></trkpt><trkpt lat="43.94878800123068" lon="12.364375812272375"><ele>164.0</ele><time>2026-04-11T07:43:34Z</time></trkpt><trkpt lat="43.94872540416037" lon="12.364213747454794"><ele>162.5</ele><time>2026-04-11T07:43:35Z</time></trkpt><trkpt lat="43.94866382462097" lon="12.364049755193507"><ele>161.0</ele><time>2026-04-11T07:43:36Z</time></trkpt><trkpt lat="43.948600582387456" lon="12.363878488507607"><ele>161.0</ele><time>2026-04-11T07:43:37Z</time></trkpt><trkpt lat="43.948534049831665" lon="12.363704366771811"><ele>161.0</ele><time>2026-04-11T07:43:38Z</time></trkpt><trkpt lat="43.948466865663455" lon="12.363534275540824"><ele>161.0</ele><time>2026-04-11T07:43:39Z</time></trkpt><trkpt lat="43.94840092275844" lon="12.363375333933933"><ele>161.0</ele><time>2026-04-11T07:43:40Z</time></trkpt><trkpt lat="43.948336186954755" lon="12.363217565781177"><ele>161.5</ele><time>2026-04-11T07:43:41Z</time></trkpt><trkpt lat="43.948273102572664" lon="12.363064303329422"><ele>162.0</ele><time>2026-04-11T07:43:42Z</time></trkpt><trkpt lat="43.94820700274203" lon="12.362920963672712"><ele>162.5</ele><time>2026-04-11T07:43:43Z</time></trkpt><trkpt lat="43.94813599090288" lon="12.362781086182512"><ele>163.0</ele><time>2026-04-11T07:43:44Z</time></trkpt><trkpt lat="43.94806008049577" lon="12.362647080698464"><ele>163.0</ele><time>2026-04-11T07:43:45Z</time></trkpt><trkpt lat="43.947973356920855" lon="12.362523812593755"><ele>163.0</ele><time>2026-04-11T07:43:46Z</time></trkpt><trkpt lat="43.947885634815" lon="12.362400735578014"><ele>163.0</ele><time>2026-04-11T07:43:47Z</time></trkpt><trkpt lat="43.94779489384097" lon="12.362278932719919"><ele>163.0</ele><time>2026-04-11T07:43:48Z</time></trkpt><trkpt lat="43.94769959471585" lon="12.362159509263009"><ele>163.0</ele><time>2026-04-11T07:43:49Z</time></trkpt><trkpt lat="43.947601561653016" lon="12.362046696753472"><ele>163.0</ele><time>2026-04-11T07:43:50Z</time></trkpt><trkpt lat="43.947500588006285" lon="12.36193597432334"><ele>163.0</ele><time>2026-04-11T07:43:51Z</time></trkpt><trkpt lat="43.947398197816185" lon="12.361829928457748"><ele>163.0</ele><time>2026-04-11T07:43:52Z</time></trkpt><trkpt lat="43.947297740297465" lon="12.361727878629495"><ele>163.0</ele><time>2026-04-11T07:43:53Z</time></trkpt><trkpt lat="43.947200171572874" lon="12.361627152357284"><ele>163.0</ele><time>2026-04-11T07:43:54Z</time></trkpt><trkpt lat="43.94710461607515" lon="12.361530374725037"><ele>163.0</ele><time>2026-04-11T07:43:55Z</time></trkpt><trkpt lat="43.947011615748586" lon="12.36143721157712"><ele>163.0</ele><time>2026-04-11T07:43:56Z</time></trkpt><trkpt lat="43.9469189353755" lon="12.361345538223768"><ele>162.5</ele><time>2026-04-11T07:43:57Z</time></trkpt><trkpt lat="43.94682563412001" lon="12.361255115907042"><ele>162.0</ele><time>2026-04-11T07:43:58Z</time></trkpt><trkpt lat="43.946727775910354" lon="12.36116870132726"><ele>161.5</ele><time>2026-04-11T07:43:59Z</time></trkpt><trkpt lat="43.94662666662451" lon="12.361088566211675"><ele>161.0</ele><time>2026-04-11T07:44:00Z</time></trkpt><trkpt lat="43.94652602571052" lon="12.36101053105293"><ele>161.0</ele><time>2026-04-11T07:44:01Z</time></trkpt><trkpt lat="43.946423120002216" lon="12.360928791050805"><ele>161.0</ele><time>2026-04-11T07:44:02Z</time></trkpt><trkpt lat="43.94631582768316" lon="12.360848221974722"><ele>161.0</ele><time>2026-04-11T07:44:03Z</time></trkpt><trkpt lat="43.94620417137024" lon="12.360763482264485"><ele>161.0</ele><time>2026-04-11T07:44:04Z</time></trkpt><trkpt lat="43.946089742396495" lon="12.360676246662088"><ele>161.0</ele><time>2026-04-11T07:44:04.999Z</time></trkpt><trkpt lat="43.94597490449499" lon="12.360590250612626"><ele>161.0</ele><time>2026-04-11T07:44:05.999Z</time></trkpt><trkpt lat="43.94585929204189" lon="12.36050280962781"><ele>161.0</ele><time>2026-04-11T07:44:06.999Z</time></trkpt><trkpt lat="43.94574454024622" lon="12.360411576076908"><ele>161.0</ele><time>2026-04-11T07:44:07.999Z</time></trkpt><trkpt lat="43.94563167404397" lon="12.360317436531455"><ele>160.75</ele><time>2026-04-11T07:44:08.999Z</time></trkpt><trkpt lat="43.94552557518648" lon="12.360213531736647"><ele>160.5</ele><time>2026-04-11T07:44:09.999Z</time></trkpt><trkpt lat="43.945430743048455" lon="12.360098291205661"><ele>160.25</ele><time>2026-04-11T07:44:10.999Z</time></trkpt><trkpt lat="43.945342229759774" lon="12.35997639283246"><ele>160.0</ele><time>2026-04-11T07:44:11.999Z</time></trkpt><trkpt lat="43.94525731494525" lon="12.359854628953569"><ele>160.0</ele><time>2026-04-11T07:44:12.999Z</time></trkpt><trkpt lat="43.945173657268846" lon="12.359728212518993"><ele>160.0</ele><time>2026-04-11T07:44:13.999Z</time></trkpt><trkpt lat="43.945091640737935" lon="12.359593938719927"><ele>160.0</ele><time>2026-04-11T07:44:14.999Z</time></trkpt><trkpt lat="43.945006672843625" lon="12.35945847883005"><ele>160.0</ele><time>2026-04-11T07:44:15.999Z</time></trkpt><trkpt lat="43.94492081152512" lon="12.359321069703585"><ele>160.0</ele><time>2026-04-11T07:44:16.999Z</time></trkpt><trkpt lat="43.944834924440684" lon="12.359183927683363"><ele>160.0</ele><time>2026-04-11T07:44:17.999Z</time></trkpt><trkpt lat="43.94475182346771" lon="12.35905275759221"><ele>160.0</ele><time>2026-04-11T07:44:18.999Z</time></trkpt><trkpt lat="43.944666641202545" lon="12.358921911052573"><ele>160.0</ele><time>2026-04-11T07:44:19.999Z</time></trkpt><trkpt lat="43.944585168926224" lon="12.358787136235184"><ele>159.5</ele><time>2026-04-11T07:44:20.999Z</time></trkpt><trkpt lat="43.94450699032535" lon="12.358650258291412"><ele>159.0</ele><time>2026-04-11T07:44:21.999Z</time></trkpt><trkpt lat="43.944430935635715" lon="12.358521020774516"><ele>158.5</ele><time>2026-04-11T07:44:22.999Z</time></trkpt><trkpt lat="43.944351501356806" lon="12.35839396580525"><ele>158.0</ele><time>2026-04-11T07:44:23.999Z</time></trkpt><trkpt lat="43.944272451900424" lon="12.358267209249938"><ele>158.5</ele><time>2026-04-11T07:44:24.999Z</time></trkpt><trkpt lat="43.94419438254313" lon="12.358142208669147"><ele>159.0</ele><time>2026-04-11T07:44:25.999Z</time></trkpt><trkpt lat="43.94411866623001" lon="12.358019237503921"><ele>159.5</ele><time>2026-04-11T07:44:26.999Z</time></trkpt><trkpt lat="43.94404443876049" lon="12.357896499227351"><ele>160.0</ele><time>2026-04-11T07:44:27.999Z</time></trkpt><trkpt lat="43.94396679121405" lon="12.35777222012277"><ele>160.0</ele><time>2026-04-11T07:44:28.999Z</time></trkpt><trkpt lat="43.943892297862725" lon="12.357648209288206"><ele>160.0</ele><time>2026-04-11T07:44:29.999Z</time></trkpt><trkpt lat="43.94381608636903" lon="12.35752448489655"><ele>160.0</ele><time>2026-04-11T07:44:30.999Z</time></trkpt><trkpt lat="43.94373973971669" lon="12.357397504372319"><ele>160.0</ele><time>2026-04-11T07:44:31.999Z</time></trkpt><trkpt lat="43.94366243709768" lon="12.35726979747057"><ele>160.25</ele><time>2026-04-11T07:44:32.999Z</time></trkpt><trkpt lat="43.94358225123498" lon="12.357142458618982"><ele>160.5</ele><time>2026-04-11T07:44:33.999Z</time></trkpt><trkpt lat="43.943498505690265" lon="12.357014100375142"><ele>160.75</ele><time>2026-04-11T07:44:34.999Z</time></trkpt><trkpt lat="43.943411101079626" lon="12.356887869116454"><ele>161.0</ele><time>2026-04-11T07:44:35.999Z</time></trkpt><trkpt lat="43.94332246552161" lon="12.356764654056525"><ele>161.0</ele><time>2026-04-11T07:44:36.999Z</time></trkpt><trkpt lat="43.94323095789511" lon="12.356642722529623"><ele>161.0</ele><time>2026-04-11T07:44:37.999Z</time></trkpt><trkpt lat="43.94313486045849" lon="12.356522193538106"><ele>161.0</ele><time>2026-04-11T07:44:38.999Z</time></trkpt><trkpt lat="43.943032645607815" lon="12.356409863167805"><ele>161.0</ele><time>2026-04-11T07:44:39.999Z</time></trkpt><trkpt lat="43.942923096496315" lon="12.356301517285257"><ele>161.0</ele><time>2026-04-11T07:44:40.999Z</time></trkpt><trkpt lat="43.9428118728409" lon="12.356194824206424"><ele>161.0</ele><time>2026-04-11T07:44:41.999Z</time></trkpt><trkpt lat="43.94270576432132" lon="12.356093663925554"><ele>161.0</ele><time>2026-04-11T07:44:42.999Z</time></trkpt><trkpt lat="43.942601979903706" lon="12.355998741939844"><ele>161.0</ele><time>2026-04-11T07:44:43.999Z</time></trkpt><trkpt lat="43.942497417956304" lon="12.35590988285884"><ele>160.75</ele><time>2026-04-11T07:44:44.999Z</time></trkpt><trkpt lat="43.942396864538445" lon="12.355816886115834"><ele>160.5</ele><time>2026-04-11T07:44:45.999Z</time></trkpt><trkpt lat="43.94230133812529" lon="12.355731180536507"><ele>160.25</ele><time>2026-04-11T07:44:46.999Z</time></trkpt><trkpt lat="43.94220836554862" lon="12.355648786438694"><ele>160.0</ele><time>2026-04-11T07:44:47.999Z</time></trkpt><trkpt lat="43.9421159873895" lon="12.355566574033153"><ele>160.2</ele><time>2026-04-11T07:44:48.999Z</time></trkpt><trkpt lat="43.94202589916478" lon="12.355489184336491"><ele>160.4</ele><time>2026-04-11T07:44:49.999Z</time></trkpt><trkpt lat="43.94193578762649" lon="12.355405592269111"><ele>160.60000000000002</ele><time>2026-04-11T07:44:50.999Z</time></trkpt><trkpt lat="43.94184154473933" lon="12.355318970459727"><ele>160.8</ele><time>2026-04-11T07:44:51.999Z</time></trkpt><trkpt lat="43.9417458177744" lon="12.355231478559297"><ele>161.0</ele><time>2026-04-11T07:44:52.999Z</time></trkpt><trkpt lat="43.941647534300806" lon="12.355142309286556"><ele>161.5</ele><time>2026-04-11T07:44:53.999Z</time></trkpt><trkpt lat="43.941545022861504" lon="12.35505233513935"><ele>162.0</ele><time>2026-04-11T07:44:54.999Z</time></trkpt><trkpt lat="43.9414396410515" lon="12.35495995703908"><ele>162.5</ele><time>2026-04-11T07:44:55.999Z</time></trkpt><trkpt lat="43.94133244992598" lon="12.35486284457192"><ele>163.0</ele><time>2026-04-11T07:44:56.999Z</time></trkpt><trkpt lat="43.941223363807765" lon="12.354762863069746"><ele>163.0</ele><time>2026-04-11T07:44:57.999Z</time></trkpt><trkpt lat="43.94111365173453" lon="12.354661801708675"><ele>163.0</ele><time>2026-04-11T07:44:58.999Z</time></trkpt><trkpt lat="43.94100634849105" lon="12.35455743168068"><ele>163.0</ele><time>2026-04-11T07:44:59.999Z</time></trkpt><trkpt lat="43.940901295235435" lon="12.3544619674752"><ele>163.0</ele><time>2026-04-11T07:45:00.999Z</time></trkpt><trkpt lat="43.9408009415244" lon="12.354373446663958"><ele>163.0</ele><time>2026-04-11T07:45:01.999Z</time></trkpt><trkpt lat="43.94070520464676" lon="12.354288446246487"><ele>163.0</ele><time>2026-04-11T07:45:02.999Z</time></trkpt><trkpt lat="43.940614243412334" lon="12.354206007423047"><ele>163.0</ele><time>2026-04-11T07:45:03.999Z</time></trkpt><trkpt lat="43.94052892882298" lon="12.354126038164832"><ele>163.0</ele><time>2026-04-11T07:45:04.999Z</time></trkpt><trkpt lat="43.94044558511853" lon="12.354053784716372"><ele>163.0</ele><time>2026-04-11T07:45:05.999Z</time></trkpt><trkpt lat="43.940358995784514" lon="12.35397331427094"><ele>163.0</ele><time>2026-04-11T07:45:06.999Z</time></trkpt><trkpt lat="43.940272175772535" lon="12.353890494145077"><ele>163.0</ele><time>2026-04-11T07:45:07.999Z</time></trkpt><trkpt lat="43.94018319000106" lon="12.353806129936661"><ele>163.0</ele><time>2026-04-11T07:45:08.999Z</time></trkpt><trkpt lat="43.94009072049587" lon="12.353724689566484"><ele>163.0</ele><time>2026-04-11T07:45:09.999Z</time></trkpt><trkpt lat="43.939998519214846" lon="12.353639046906652"><ele>163.0</ele><time>2026-04-11T07:45:10.999Z</time></trkpt><trkpt lat="43.93990539783493" lon="12.353550696738864"><ele>163.75</ele><time>2026-04-11T07:45:11.999Z</time></trkpt><trkpt lat="43.93981271664363" lon="12.353456214911995"><ele>164.5</ele><time>2026-04-11T07:45:12.999Z</time></trkpt><trkpt lat="43.939719883547724" lon="12.353358848916784"><ele>165.25</ele><time>2026-04-11T07:45:13.999Z</time></trkpt><trkpt lat="43.93962647440178" lon="12.353257094649837"><ele>166.0</ele><time>2026-04-11T07:45:14.999Z</time></trkpt><trkpt lat="43.93953502960992" lon="12.35315100788437"><ele>165.25</ele><time>2026-04-11T07:45:15.999Z</time></trkpt><trkpt lat="43.93944478891622" lon="12.353039183900604"><ele>164.5</ele><time>2026-04-11T07:45:16.999Z</time></trkpt><trkpt lat="43.939356863838434" lon="12.352924491383693"><ele>163.75</ele><time>2026-04-11T07:45:17.999Z</time></trkpt><trkpt lat="43.93926993526004" lon="12.352808754344402"><ele>163.0</ele><time>2026-04-11T07:45:18.999Z</time></trkpt><trkpt lat="43.939185008595736" lon="12.352686013805918"><ele>164.0</ele><time>2026-04-11T07:45:19.999Z</time></trkpt><trkpt lat="43.93909967078338" lon="12.352561542252245"><ele>165.0</ele><time>2026-04-11T07:45:20.999Z</time></trkpt><trkpt lat="43.93901396851826" lon="12.352435295333745"><ele>166.0</ele><time>2026-04-11T07:45:21.999Z</time></trkpt><trkpt lat="43.93892822659092" lon="12.352309369821047"><ele>167.0</ele><time>2026-04-11T07:45:22.999Z</time></trkpt><trkpt lat="43.938844846374614" lon="12.352181359737088"><ele>167.0</ele><time>2026-04-11T07:45:23.999Z</time></trkpt><trkpt lat="43.938760523764806" lon="12.352054364147316"><ele>167.0</ele><time>2026-04-11T07:45:24.998Z</time></trkpt><trkpt lat="43.93867399258111" lon="12.351928940827536"><ele>167.0</ele><time>2026-04-11T07:45:25.998Z</time></trkpt><trkpt lat="43.93858770966851" lon="12.351800384832776"><ele>167.0</ele><time>2026-04-11T07:45:26.998Z</time></trkpt><trkpt lat="43.93850362006887" lon="12.3516713699709"><ele>167.0</ele><time>2026-04-11T07:45:27.998Z</time></trkpt><trkpt lat="43.93842533301263" lon="12.351547364710498"><ele>167.0</ele><time>2026-04-11T07:45:28.998Z</time></trkpt><trkpt lat="43.93835502968763" lon="12.351423224688967"><ele>167.0</ele><time>2026-04-11T07:45:29.998Z</time></trkpt><trkpt lat="43.93829639563157" lon="12.351292396312298"><ele>167.0</ele><time>2026-04-11T07:45:30.998Z</time></trkpt><trkpt lat="43.93825065447849" lon="12.351151474535621"><ele>169.25</ele><time>2026-04-11T07:45:31.998Z</time></trkpt><trkpt lat="43.93821513859317" lon="12.351006708454875"><ele>171.5</ele><time>2026-04-11T07:45:32.998Z</time></trkpt><trkpt lat="43.93819506423954" lon="12.350853400235513"><ele>173.75</ele><time>2026-04-11T07:45:33.998Z</time></trkpt><trkpt lat="43.93818991845275" lon="12.350695358018886"><ele>176.0</ele><time>2026-04-11T07:45:34.998Z</time></trkpt><trkpt lat="43.93820081852057" lon="12.350534674658007"><ele>176.75</ele><time>2026-04-11T07:45:35.998Z</time></trkpt><trkpt lat="43.93821428613276" lon="12.350372257248308"><ele>177.5</ele><time>2026-04-11T07:45:37Z</time></trkpt><trkpt lat="43.938229605492324" lon="12.350204521501507"><ele>178.25</ele><time>2026-04-11T07:45:38Z</time></trkpt><trkpt lat="43.93824905249131" lon="12.350038229713892"><ele>179.0</ele><time>2026-04-11T07:45:39Z</time></trkpt><trkpt lat="43.93826830052738" lon="12.349880615480947"><ele>179.0</ele><time>2026-04-11T07:45:40Z</time></trkpt><trkpt lat="43.93828603686939" lon="12.349732266181565"><ele>179.0</ele><time>2026-04-11T07:45:41Z</time></trkpt><trkpt lat="43.93830166453458" lon="12.349589477438492"><ele>179.0</ele><time>2026-04-11T07:45:42Z</time></trkpt><trkpt lat="43.93831890051178" lon="12.349446454840338"><ele>179.0</ele><time>2026-04-11T07:45:43Z</time></trkpt><trkpt lat="43.938333124101746" lon="12.349304423007029"><ele>179.0</ele><time>2026-04-11T07:45:44Z</time></trkpt><trkpt lat="43.93834880491664" lon="12.349168420305016"><ele>179.6</ele><time>2026-04-11T07:45:45Z</time></trkpt><trkpt lat="43.93834934514744" lon="12.349022458571623"><ele>180.2</ele><time>2026-04-11T07:45:46Z</time></trkpt><trkpt lat="43.93834719198449" lon="12.348879702349068"><ele>180.79999999999998</ele><time>2026-04-11T07:45:47Z</time></trkpt><trkpt lat="43.938338131577616" lon="12.34873219900297"><ele>181.39999999999998</ele><time>2026-04-11T07:45:48Z</time></trkpt><trkpt lat="43.9383050561371" lon="12.348579172859916"><ele>182.0</ele><time>2026-04-11T07:45:49Z</time></trkpt><trkpt lat="43.938266635816895" lon="12.348426848725541"><ele>182.0</ele><time>2026-04-11T07:45:50Z</time></trkpt><trkpt lat="43.93821365483044" lon="12.348278901246179"><ele>182.0</ele><time>2026-04-11T07:45:51Z</time></trkpt><trkpt lat="43.93813910704868" lon="12.348142327130617"><ele>182.0</ele><time>2026-04-11T07:45:52Z</time></trkpt><trkpt lat="43.938055030760495" lon="12.348011914929469"><ele>182.0</ele><time>2026-04-11T07:45:53Z</time></trkpt><trkpt lat="43.93796642586821" lon="12.34789440887738"><ele>180.0</ele><time>2026-04-11T07:45:54Z</time></trkpt><trkpt lat="43.93787245829132" lon="12.347787544282053"><ele>178.0</ele><time>2026-04-11T07:45:55Z</time></trkpt><trkpt lat="43.93777296446324" lon="12.34768111733199"><ele>176.0</ele><time>2026-04-11T07:45:56Z</time></trkpt><trkpt lat="43.937670269250766" lon="12.347574383132766"><ele>174.0</ele><time>2026-04-11T07:45:57Z</time></trkpt><trkpt lat="43.93756100379477" lon="12.347462885277396"><ele>174.0</ele><time>2026-04-11T07:45:58Z</time></trkpt><trkpt lat="43.93745658330594" lon="12.34735782579162"><ele>174.0</ele><time>2026-04-11T07:45:59Z</time></trkpt><trkpt lat="43.937353633518605" lon="12.34725895561056"><ele>174.0</ele><time>2026-04-11T07:46:00Z</time></trkpt><trkpt lat="43.93724781251234" lon="12.347161395592096"><ele>174.0</ele><time>2026-04-11T07:46:01Z</time></trkpt><trkpt lat="43.93713948149552" lon="12.347066793139534"><ele>174.0</ele><time>2026-04-11T07:46:02Z</time></trkpt><trkpt lat="43.93702456593295" lon="12.346980153019876"><ele>174.0</ele><time>2026-04-11T07:46:03Z</time></trkpt><trkpt lat="43.93690298269096" lon="12.346903032178512"><ele>174.0</ele><time>2026-04-11T07:46:04Z</time></trkpt><trkpt lat="43.93677552188981" lon="12.346833296569"><ele>174.0</ele><time>2026-04-11T07:46:05Z</time></trkpt><trkpt lat="43.93664380221179" lon="12.346766971269432"><ele>176.25</ele><time>2026-04-11T07:46:06Z</time></trkpt><trkpt lat="43.93651944980111" lon="12.346705051118043"><ele>178.5</ele><time>2026-04-11T07:46:07Z</time></trkpt><trkpt lat="43.93639714554976" lon="12.346645348889847"><ele>180.75</ele><time>2026-04-11T07:46:08Z</time></trkpt><trkpt lat="43.93627866526766" lon="12.346588769146456"><ele>183.0</ele><time>2026-04-11T07:46:09Z</time></trkpt><trkpt lat="43.93616399683821" lon="12.34653464053066"><ele>183.0</ele><time>2026-04-11T07:46:10Z</time></trkpt><trkpt lat="43.936053027867466" lon="12.346482213284746"><ele>183.0</ele><time>2026-04-11T07:46:11Z</time></trkpt><trkpt lat="43.93594637036604" lon="12.346429879149188"><ele>183.0</ele><time>2026-04-11T07:46:12Z</time></trkpt><trkpt lat="43.935843810613434" lon="12.346377997043065"><ele>183.0</ele><time>2026-04-11T07:46:13Z</time></trkpt><trkpt lat="43.9357399439893" lon="12.34632385835892"><ele>181.75</ele><time>2026-04-11T07:46:14Z</time></trkpt><trkpt lat="43.935634015591724" lon="12.346267247606239"><ele>180.5</ele><time>2026-04-11T07:46:15Z</time></trkpt><trkpt lat="43.93552383062355" lon="12.346209046539462"><ele>179.25</ele><time>2026-04-11T07:46:16Z</time></trkpt><trkpt lat="43.93541399500277" lon="12.346144043877361"><ele>178.0</ele><time>2026-04-11T07:46:17Z</time></trkpt><trkpt lat="43.93530120264617" lon="12.346067169925144"><ele>178.0</ele><time>2026-04-11T07:46:17.999Z</time></trkpt><trkpt lat="43.93519400242594" lon="12.345967330777253"><ele>178.0</ele><time>2026-04-11T07:46:18.999Z</time></trkpt><trkpt lat="43.935107048123044" lon="12.345838936303386"><ele>178.0</ele><time>2026-04-11T07:46:19.999Z</time></trkpt><trkpt lat="43.93502989754945" lon="12.34571690196431"><ele>178.0</ele><time>2026-04-11T07:46:20.999Z</time></trkpt><trkpt lat="43.93496499725531" lon="12.345603066867858"><ele>179.0</ele><time>2026-04-11T07:46:21.999Z</time></trkpt><trkpt lat="43.93491148643011" lon="12.345462076188173"><ele>180.0</ele><time>2026-04-11T07:46:22.999Z</time></trkpt><trkpt lat="43.93484862669998" lon="12.345326838892193"><ele>181.0</ele><time>2026-04-11T07:46:23.999Z</time></trkpt><trkpt lat="43.93478471527404" lon="12.34519602501703"><ele>182.0</ele><time>2026-04-11T07:46:24.999Z</time></trkpt><trkpt lat="43.93472242821912" lon="12.345060087715284"><ele>182.0</ele><time>2026-04-11T07:46:25.999Z</time></trkpt><trkpt lat="43.93466124769951" lon="12.344926757620597"><ele>182.0</ele><time>2026-04-11T07:46:26.999Z</time></trkpt><trkpt lat="43.93460323090319" lon="12.344787678352082"><ele>182.0</ele><time>2026-04-11T07:46:27.999Z</time></trkpt><trkpt lat="43.93455276776559" lon="12.344635780637816"><ele>182.0</ele><time>2026-04-11T07:46:28.999Z</time></trkpt><trkpt lat="43.934528489336515" lon="12.34446520031678"><ele>181.25</ele><time>2026-04-11T07:46:29.999Z</time></trkpt><trkpt lat="43.93452074548669" lon="12.344289354573146"><ele>180.5</ele><time>2026-04-11T07:46:30.999Z</time></trkpt><trkpt lat="43.93453044683709" lon="12.344119801633422"><ele>179.75</ele><time>2026-04-11T07:46:31.999Z</time></trkpt><trkpt lat="43.93455396429753" lon="12.343965124669147"><ele>179.0</ele><time>2026-04-11T07:46:32.999Z</time></trkpt><trkpt lat="43.93458029321019" lon="12.343820032860753"><ele>179.0</ele><time>2026-04-11T07:46:33.999Z</time></trkpt><trkpt lat="43.93461245891887" lon="12.343684637790785"><ele>179.0</ele><time>2026-04-11T07:46:34.999Z</time></trkpt><trkpt lat="43.93465462372412" lon="12.343551043162321"><ele>179.0</ele><time>2026-04-11T07:46:35.999Z</time></trkpt><trkpt lat="43.93470705071613" lon="12.343437292694716"><ele>179.0</ele><time>2026-04-11T07:46:36.999Z</time></trkpt><trkpt lat="43.93477872626591" lon="12.343330469303089"><ele>179.0</ele><time>2026-04-11T07:46:37.999Z</time></trkpt><trkpt lat="43.934882023618464" lon="12.343268628936288"><ele>179.0</ele><time>2026-04-11T07:46:38.999Z</time></trkpt><trkpt lat="43.93498430182567" lon="12.343194717527064"><ele>179.0</ele><time>2026-04-11T07:46:39.999Z</time></trkpt><trkpt lat="43.9350870230157" lon="12.343125970581916"><ele>179.0</ele><time>2026-04-11T07:46:40.999Z</time></trkpt><trkpt lat="43.93519344105459" lon="12.343058715692631"><ele>179.0</ele><time>2026-04-11T07:46:41.999Z</time></trkpt><trkpt lat="43.93529872285835" lon="12.342991574251863"><ele>179.75</ele><time>2026-04-11T07:46:42.999Z</time></trkpt><trkpt lat="43.935405352449834" lon="12.342923061618444"><ele>180.5</ele><time>2026-04-11T07:46:43.999Z</time></trkpt><trkpt lat="43.93551162652771" lon="12.34285581101809"><ele>181.25</ele><time>2026-04-11T07:46:44.999Z</time></trkpt><trkpt lat="43.93560976302843" lon="12.342768997034852"><ele>182.0</ele><time>2026-04-11T07:46:45.999Z</time></trkpt><trkpt lat="43.935712692553174" lon="12.342714525780966"><ele>182.0</ele><time>2026-04-11T07:46:46.999Z</time></trkpt><trkpt lat="43.93581152317901" lon="12.342658094101628"><ele>182.0</ele><time>2026-04-11T07:46:47.999Z</time></trkpt><trkpt lat="43.935901643176685" lon="12.342584956961698"><ele>182.0</ele><time>2026-04-11T07:46:48.999Z</time></trkpt><trkpt lat="43.935990476511805" lon="12.34248425243256"><ele>182.0</ele><time>2026-04-11T07:46:49.999Z</time></trkpt><trkpt lat="43.93607075320246" lon="12.342353221476557"><ele>185.0</ele><time>2026-04-11T07:46:50.999Z</time></trkpt><trkpt lat="43.93612901940968" lon="12.342210736735236"><ele>188.0</ele><time>2026-04-11T07:46:51.999Z</time></trkpt><trkpt lat="43.93617234117064" lon="12.342057298389447"><ele>191.0</ele><time>2026-04-11T07:46:52.999Z</time></trkpt><trkpt lat="43.93620366124815" lon="12.34189409116744"><ele>194.0</ele><time>2026-04-11T07:46:53.999Z</time></trkpt><trkpt lat="43.93621640761457" lon="12.34171904429403"><ele>194.0</ele><time>2026-04-11T07:46:54.999Z</time></trkpt><trkpt lat="43.93619594456531" lon="12.341540587448538"><ele>194.0</ele><time>2026-04-11T07:46:55.999Z</time></trkpt><trkpt lat="43.93616356883279" lon="12.341358480043937"><ele>194.0</ele><time>2026-04-11T07:46:56.999Z</time></trkpt><trkpt lat="43.93613122553119" lon="12.341175448351008"><ele>194.0</ele><time>2026-04-11T07:46:57.999Z</time></trkpt><trkpt lat="43.93609800583516" lon="12.341015505803643"><ele>194.5</ele><time>2026-04-11T07:46:58.999Z</time></trkpt><trkpt lat="43.936060435527324" lon="12.340843361464014"><ele>195.0</ele><time>2026-04-11T07:46:59.999Z</time></trkpt><trkpt lat="43.936024430576616" lon="12.340678182815275"><ele>195.5</ele><time>2026-04-11T07:47:00.999Z</time></trkpt><trkpt lat="43.93599193786821" lon="12.34051576519282"><ele>196.0</ele><time>2026-04-11T07:47:01.999Z</time></trkpt><trkpt lat="43.935958184646616" lon="12.340355167367461"><ele>194.0</ele><time>2026-04-11T07:47:02.999Z</time></trkpt><trkpt lat="43.93592416288707" lon="12.340197871503841"><ele>192.0</ele><time>2026-04-11T07:47:03.999Z</time></trkpt><trkpt lat="43.93589019052776" lon="12.340044930497365"><ele>190.0</ele><time>2026-04-11T07:47:04.999Z</time></trkpt><trkpt lat="43.93585992899732" lon="12.33989787764468"><ele>188.0</ele><time>2026-04-11T07:47:05.999Z</time></trkpt><trkpt lat="43.935830155131114" lon="12.339750905435466"><ele>187.5</ele><time>2026-04-11T07:47:06.999Z</time></trkpt><trkpt lat="43.93580394593195" lon="12.339601763711212"><ele>187.0</ele><time>2026-04-11T07:47:07.999Z</time></trkpt><trkpt lat="43.93578471990458" lon="12.339446542633091"><ele>186.5</ele><time>2026-04-11T07:47:08.999Z</time></trkpt><trkpt lat="43.93577761190026" lon="12.339287188593838"><ele>186.0</ele><time>2026-04-11T07:47:09.999Z</time></trkpt><trkpt lat="43.93577691056276" lon="12.339124286732332"><ele>186.0</ele><time>2026-04-11T07:47:10.999Z</time></trkpt><trkpt lat="43.9357892957612" lon="12.338959638215439"><ele>186.0</ele><time>2026-04-11T07:47:11.999Z</time></trkpt><trkpt lat="43.93579983922945" lon="12.338798723698531"><ele>186.0</ele><time>2026-04-11T07:47:12.999Z</time></trkpt><trkpt lat="43.93580995187114" lon="12.338638556617783"><ele>186.0</ele><time>2026-04-11T07:47:13.999Z</time></trkpt><trkpt lat="43.935820023480986" lon="12.338469878723156"><ele>185.75</ele><time>2026-04-11T07:47:14.999Z</time></trkpt><trkpt lat="43.93582746350432" lon="12.338297674691818"><ele>185.5</ele><time>2026-04-11T07:47:15.999Z</time></trkpt><trkpt lat="43.93583905971535" lon="12.338122339580334"><ele>185.25</ele><time>2026-04-11T07:47:16.999Z</time></trkpt><trkpt lat="43.935812074680086" lon="12.337936313107287"><ele>185.0</ele><time>2026-04-11T07:47:17.999Z</time></trkpt><trkpt lat="43.93577779418299" lon="12.337751138511834"><ele>186.0</ele><time>2026-04-11T07:47:18.999Z</time></trkpt><trkpt lat="43.935732286226965" lon="12.337565651400942"><ele>187.0</ele><time>2026-04-11T07:47:19.999Z</time></trkpt><trkpt lat="43.93567506782976" lon="12.337386653112446"><ele>188.0</ele><time>2026-04-11T07:47:20.999Z</time></trkpt><trkpt lat="43.9356064307726" lon="12.337222728557611"><ele>189.0</ele><time>2026-04-11T07:47:21.999Z</time></trkpt><trkpt lat="43.93552482447688" lon="12.33707494292202"><ele>190.75</ele><time>2026-04-11T07:47:22.999Z</time></trkpt><trkpt lat="43.93544092567253" lon="12.336938267138995"><ele>192.5</ele><time>2026-04-11T07:47:23.999Z</time></trkpt><trkpt lat="43.9353578874056" lon="12.336810298410684"><ele>194.25</ele><time>2026-04-11T07:47:24.999Z</time></trkpt><trkpt lat="43.93527417550795" lon="12.336686657773035"><ele>196.0</ele><time>2026-04-11T07:47:25.999Z</time></trkpt><trkpt lat="43.93519061631111" lon="12.336562277600317"><ele>196.0</ele><time>2026-04-11T07:47:26.999Z</time></trkpt><trkpt lat="43.93510548104595" lon="12.336435771167057"><ele>196.0</ele><time>2026-04-11T07:47:27.999Z</time></trkpt><trkpt lat="43.93501894664496" lon="12.336310918924196"><ele>196.0</ele><time>2026-04-11T07:47:28.999Z</time></trkpt><trkpt lat="43.934932915691896" lon="12.336187610332384"><ele>196.0</ele><time>2026-04-11T07:47:29.999Z</time></trkpt><trkpt lat="43.934849153328436" lon="12.33606807017262"><ele>193.5</ele><time>2026-04-11T07:47:30.999Z</time></trkpt><trkpt lat="43.93476764961396" lon="12.335951344058147"><ele>191.0</ele><time>2026-04-11T07:47:31.999Z</time></trkpt><trkpt lat="43.93468720991074" lon="12.33583584883226"><ele>188.5</ele><time>2026-04-11T07:47:32.999Z</time></trkpt><trkpt lat="43.93460678175218" lon="12.335721423131272"><ele>186.0</ele><time>2026-04-11T07:47:33.999Z</time></trkpt><trkpt lat="43.934527311854815" lon="12.335600875768893"><ele>186.25</ele><time>2026-04-11T07:47:34.999Z</time></trkpt><trkpt lat="43.93444591428866" lon="12.335473697376216"><ele>186.5</ele><time>2026-04-11T07:47:35.999Z</time></trkpt><trkpt lat="43.93436239548231" lon="12.335366484246924"><ele>186.75</ele><time>2026-04-11T07:47:36.999Z</time></trkpt><trkpt lat="43.934282889035686" lon="12.335253229176393"><ele>187.0</ele><time>2026-04-11T07:47:37.998Z</time></trkpt><trkpt lat="43.93420465699928" lon="12.335141117103072"><ele>186.0</ele><time>2026-04-11T07:47:38.998Z</time></trkpt><trkpt lat="43.93412913074611" lon="12.335032848292565"><ele>185.0</ele><time>2026-04-11T07:47:39.998Z</time></trkpt><trkpt lat="43.93405720923146" lon="12.334927911784009"><ele>184.0</ele><time>2026-04-11T07:47:40.998Z</time></trkpt><trkpt lat="43.93398397580025" lon="12.334822245168217"><ele>183.0</ele><time>2026-04-11T07:47:42Z</time></trkpt><trkpt lat="43.93390934694386" lon="12.3347177682399"><ele>182.0</ele><time>2026-04-11T07:47:43Z</time></trkpt><trkpt lat="43.933837354277834" lon="12.334602493761487"><ele>182.0</ele><time>2026-04-11T07:47:44Z</time></trkpt><trkpt lat="43.933767271455565" lon="12.334480577950874"><ele>182.0</ele><time>2026-04-11T07:47:45Z</time></trkpt><trkpt lat="43.93369135035081" lon="12.334356621249375"><ele>182.0</ele><time>2026-04-11T07:47:46Z</time></trkpt><trkpt lat="43.93360809150549" lon="12.33423423085619"><ele>182.0</ele><time>2026-04-11T07:47:47Z</time></trkpt><trkpt lat="43.93351987802128" lon="12.334110240362575"><ele>182.0</ele><time>2026-04-11T07:47:48Z</time></trkpt><trkpt lat="43.93343484643642" lon="12.333987311548714"><ele>182.0</ele><time>2026-04-11T07:47:49Z</time></trkpt><trkpt lat="43.93334992618969" lon="12.333860990373068"><ele>182.0</ele><time>2026-04-11T07:47:50Z</time></trkpt><trkpt lat="43.933265347442365" lon="12.333740190711513"><ele>182.0</ele><time>2026-04-11T07:47:51Z</time></trkpt><trkpt lat="43.93318066122333" lon="12.333620537866837"><ele>183.0</ele><time>2026-04-11T07:47:52Z</time></trkpt><trkpt lat="43.9330977886029" lon="12.333500416495623"><ele>184.0</ele><time>2026-04-11T07:47:53Z</time></trkpt><trkpt lat="43.93301580390414" lon="12.333380209138175"><ele>185.0</ele><time>2026-04-11T07:47:54Z</time></trkpt><trkpt lat="43.93293017198002" lon="12.33326035845021"><ele>186.0</ele><time>2026-04-11T07:47:55Z</time></trkpt><trkpt lat="43.93284585057274" lon="12.333143733024666"><ele>185.75</ele><time>2026-04-11T07:47:56Z</time></trkpt><trkpt lat="43.93275933945131" lon="12.333027824509431"><ele>185.5</ele><time>2026-04-11T07:47:57Z</time></trkpt><trkpt lat="43.93267357293619" lon="12.3329125460094"><ele>185.25</ele><time>2026-04-11T07:47:58Z</time></trkpt><trkpt lat="43.93258492337154" lon="12.332797680554282"><ele>185.0</ele><time>2026-04-11T07:47:59Z</time></trkpt><trkpt lat="43.93249470809025" lon="12.332679354573207"><ele>184.5</ele><time>2026-04-11T07:48:00Z</time></trkpt><trkpt lat="43.932415737545426" lon="12.332559802232648"><ele>184.0</ele><time>2026-04-11T07:48:01Z</time></trkpt><trkpt lat="43.932329394564306" lon="12.332443852508083"><ele>183.5</ele><time>2026-04-11T07:48:02Z</time></trkpt><trkpt lat="43.93225042301493" lon="12.332333799154918"><ele>183.0</ele><time>2026-04-11T07:48:03Z</time></trkpt><trkpt lat="43.93217555263309" lon="12.33222625223026"><ele>183.0</ele><time>2026-04-11T07:48:04Z</time></trkpt><trkpt lat="43.93210065216838" lon="12.332120447208895"><ele>183.0</ele><time>2026-04-11T07:48:05Z</time></trkpt><trkpt lat="43.93202546170769" lon="12.332012851905988"><ele>183.0</ele><time>2026-04-11T07:48:06Z</time></trkpt><trkpt lat="43.931956232484055" lon="12.331898384769362"><ele>183.0</ele><time>2026-04-11T07:48:07Z</time></trkpt><trkpt lat="43.93189065038389" lon="12.331774029194124"><ele>183.0</ele><time>2026-04-11T07:48:08Z</time></trkpt><trkpt lat="43.93183454687125" lon="12.331636822913717"><ele>183.0</ele><time>2026-04-11T07:48:09Z</time></trkpt><trkpt lat="43.931785002838865" lon="12.331496215637728"><ele>183.0</ele><time>2026-04-11T07:48:10Z</time></trkpt><trkpt lat="43.93174767691021" lon="12.331344757837332"><ele>183.0</ele><time>2026-04-11T07:48:11Z</time></trkpt><trkpt lat="43.93172035408249" lon="12.331188908532427"><ele>183.0</ele><time>2026-04-11T07:48:12Z</time></trkpt><trkpt lat="43.93169466405382" lon="12.331028078542273"><ele>184.0</ele><time>2026-04-11T07:48:13Z</time></trkpt><trkpt lat="43.9316680342437" lon="12.330866508407551"><ele>185.0</ele><time>2026-04-11T07:48:14Z</time></trkpt><trkpt lat="43.931640270786005" lon="12.330701072825233"><ele>186.0</ele><time>2026-04-11T07:48:15Z</time></trkpt><trkpt lat="43.931610716223034" lon="12.330531304340914"><ele>187.0</ele><time>2026-04-11T07:48:16Z</time></trkpt><trkpt lat="43.93158377837418" lon="12.33036221449014"><ele>188.25</ele><time>2026-04-11T07:48:17Z</time></trkpt><trkpt lat="43.93155674368649" lon="12.330187796672105"><ele>189.5</ele><time>2026-04-11T07:48:18Z</time></trkpt><trkpt lat="43.93152732974036" lon="12.33000854725342"><ele>190.75</ele><time>2026-04-11T07:48:19Z</time></trkpt><trkpt lat="43.93149750550565" lon="12.329836371887678"><ele>192.0</ele><time>2026-04-11T07:48:20Z</time></trkpt><trkpt lat="43.93146856544096" lon="12.329672676174551"><ele>192.5</ele><time>2026-04-11T07:48:21Z</time></trkpt><trkpt lat="43.93144231527724" lon="12.329515161545096"><ele>193.0</ele><time>2026-04-11T07:48:22Z</time></trkpt><trkpt lat="43.93141400104541" lon="12.329360852089518"><ele>193.5</ele><time>2026-04-11T07:48:23Z</time></trkpt><trkpt lat="43.93138752370579" lon="12.32921347898961"><ele>194.0</ele><time>2026-04-11T07:48:24Z</time></trkpt><trkpt lat="43.93136058273288" lon="12.329065008566744"><ele>194.0</ele><time>2026-04-11T07:48:25Z</time></trkpt><trkpt lat="43.931334039446305" lon="12.328916170275692"><ele>194.0</ele><time>2026-04-11T07:48:26Z</time></trkpt><trkpt lat="43.93130915180485" lon="12.328767975512028"><ele>194.0</ele><time>2026-04-11T07:48:27Z</time></trkpt><trkpt lat="43.93128580276252" lon="12.328617343011393"><ele>194.0</ele><time>2026-04-11T07:48:27.999Z</time></trkpt><trkpt lat="43.93126419156821" lon="12.328468410366858"><ele>194.0</ele><time>2026-04-11T07:48:28.999Z</time></trkpt><trkpt lat="43.93123881285032" lon="12.328321140812301"><ele>194.25</ele><time>2026-04-11T07:48:29.999Z</time></trkpt><trkpt lat="43.93121069867879" lon="12.328168965597241"><ele>194.5</ele><time>2026-04-11T07:48:30.999Z</time></trkpt><trkpt lat="43.93118294306273" lon="12.328015520242841"><ele>194.75</ele><time>2026-04-11T07:48:31.999Z</time></trkpt><trkpt lat="43.931157143344585" lon="12.327864295785556"><ele>195.0</ele><time>2026-04-11T07:48:32.999Z</time></trkpt><trkpt lat="43.93113045326417" lon="12.327712874149345"><ele>195.2</ele><time>2026-04-11T07:48:33.999Z</time></trkpt><trkpt lat="43.93109995557314" lon="12.327566217746371"><ele>195.4</ele><time>2026-04-11T07:48:34.999Z</time></trkpt><trkpt lat="43.93107445684394" lon="12.327412658727672"><ele>195.60000000000002</ele><time>2026-04-11T07:48:35.999Z</time></trkpt><trkpt lat="43.931049984402" lon="12.327265435843698"><ele>195.8</ele><time>2026-04-11T07:48:36.999Z</time></trkpt><trkpt lat="43.93102300837546" lon="12.327115533838304"><ele>196.0</ele><time>2026-04-11T07:48:37.999Z</time></trkpt><trkpt lat="43.93099252314516" lon="12.32696921213996"><ele>196.0</ele><time>2026-04-11T07:48:38.999Z</time></trkpt><trkpt lat="43.9309641367233" lon="12.32682981292473"><ele>196.0</ele><time>2026-04-11T07:48:39.999Z</time></trkpt><trkpt lat="43.93092465954441" lon="12.326691968805376"><ele>196.0</ele><time>2026-04-11T07:48:40.999Z</time></trkpt><trkpt lat="43.93087874418067" lon="12.326552041626552"><ele>196.0</ele><time>2026-04-11T07:48:41.999Z</time></trkpt><trkpt lat="43.93082578029307" lon="12.326410278558441"><ele>196.0</ele><time>2026-04-11T07:48:42.999Z</time></trkpt><trkpt lat="43.93076555394461" lon="12.326269906165717"><ele>196.75</ele><time>2026-04-11T07:48:43.999Z</time></trkpt><trkpt lat="43.93069405935908" lon="12.326128854572193"><ele>197.5</ele><time>2026-04-11T07:48:44.999Z</time></trkpt><trkpt lat="43.93062045755536" lon="12.325988838108058"><ele>198.25</ele><time>2026-04-11T07:48:45.999Z</time></trkpt><trkpt lat="43.93054227391434" lon="12.325844738631156"><ele>199.0</ele><time>2026-04-11T07:48:46.999Z</time></trkpt><trkpt lat="43.93046385927107" lon="12.325700040737"><ele>199.5</ele><time>2026-04-11T07:48:47.999Z</time></trkpt><trkpt lat="43.930385851436505" lon="12.325544778764474"><ele>200.0</ele><time>2026-04-11T07:48:48.999Z</time></trkpt><trkpt lat="43.930304994059846" lon="12.325393691903745"><ele>200.5</ele><time>2026-04-11T07:48:49.999Z</time></trkpt><trkpt lat="43.930226233234094" lon="12.325238520794235"><ele>201.0</ele><time>2026-04-11T07:48:50.999Z</time></trkpt><trkpt lat="43.930145950058545" lon="12.325091885137129"><ele>201.0</ele><time>2026-04-11T07:48:51.999Z</time></trkpt><trkpt lat="43.930062725081285" lon="12.324949953960655"><ele>201.0</ele><time>2026-04-11T07:48:52.999Z</time></trkpt><trkpt lat="43.92996936399211" lon="12.324812016649044"><ele>201.0</ele><time>2026-04-11T07:48:53.999Z</time></trkpt><trkpt lat="43.92986949813846" lon="12.324679944398305"><ele>201.0</ele><time>2026-04-11T07:48:54.999Z</time></trkpt><trkpt lat="43.929766506486835" lon="12.32455209214493"><ele>201.0</ele><time>2026-04-11T07:48:55.999Z</time></trkpt><trkpt lat="43.929664249182544" lon="12.324431718016077"><ele>201.0</ele><time>2026-04-11T07:48:56.999Z</time></trkpt><trkpt lat="43.92956818559263" lon="12.324317410565273"><ele>201.0</ele><time>2026-04-11T07:48:57.999Z</time></trkpt><trkpt lat="43.92947636931675" lon="12.324207481441293"><ele>201.0</ele><time>2026-04-11T07:48:58.999Z</time></trkpt><trkpt lat="43.9293886809813" lon="12.324102507226936"><ele>201.0</ele><time>2026-04-11T07:48:59.999Z</time></trkpt><trkpt lat="43.92930555916314" lon="12.323997751883798"><ele>201.0</ele><time>2026-04-11T07:49:00.999Z</time></trkpt><trkpt lat="43.929224642595806" lon="12.323896981794702"><ele>201.0</ele><time>2026-04-11T07:49:01.999Z</time></trkpt><trkpt lat="43.92914593206714" lon="12.323799208252822"><ele>201.0</ele><time>2026-04-11T07:49:02.999Z</time></trkpt><trkpt lat="43.92906629393648" lon="12.323707884522054"><ele>201.0</ele><time>2026-04-11T07:49:03.999Z</time></trkpt><trkpt lat="43.92899041967088" lon="12.323618387115435"><ele>201.33333333333334</ele><time>2026-04-11T07:49:04.999Z</time></trkpt><trkpt lat="43.9289242653186" lon="12.323529761976303"><ele>201.66666666666669</ele><time>2026-04-11T07:49:05.999Z</time></trkpt><trkpt lat="43.928861816359046" lon="12.323448633786457"><ele>202.0</ele><time>2026-04-11T07:49:06.999Z</time></trkpt><trkpt lat="43.92880879012527" lon="12.323358643116013"><ele>202.33333333333334</ele><time>2026-04-11T07:49:07.999Z</time></trkpt><trkpt lat="43.92876391384644" lon="12.3232598107083"><ele>202.66666666666669</ele><time>2026-04-11T07:49:08.999Z</time></trkpt><trkpt lat="43.92872682558177" lon="12.323154151622896"><ele>203.0</ele><time>2026-04-11T07:49:09.999Z</time></trkpt><trkpt lat="43.92867488324" lon="12.323057870900447"><ele>202.8</ele><time>2026-04-11T07:49:10.999Z</time></trkpt><trkpt lat="43.928597824034966" lon="12.322995562098402"><ele>202.60000000000002</ele><time>2026-04-11T07:49:11.999Z</time></trkpt><trkpt lat="43.92850550975423" lon="12.322959961016437"><ele>202.39999999999998</ele><time>2026-04-11T07:49:12.999Z</time></trkpt><trkpt lat="43.92841452101254" lon="12.322902153107885"><ele>202.2</ele><time>2026-04-11T07:49:13.999Z</time></trkpt><trkpt lat="43.928328822263886" lon="12.322814135706714"><ele>202.0</ele><time>2026-04-11T07:49:14.999Z</time></trkpt><trkpt lat="43.92823915507411" lon="12.3227160158276"><ele>202.0</ele><time>2026-04-11T07:49:15.999Z</time></trkpt><trkpt lat="43.92815482134118" lon="12.322616336354699"><ele>202.0</ele><time>2026-04-11T07:49:16.999Z</time></trkpt><trkpt lat="43.9280676152601" lon="12.322513742338066"><ele>202.0</ele><time>2026-04-11T07:49:17.999Z</time></trkpt><trkpt lat="43.927976415402675" lon="12.322409252526487"><ele>202.0</ele><time>2026-04-11T07:49:18.999Z</time></trkpt><trkpt lat="43.92789036956967" lon="12.322307069132357"><ele>202.5</ele><time>2026-04-11T07:49:19.999Z</time></trkpt><trkpt lat="43.92780904990308" lon="12.322195744919322"><ele>203.0</ele><time>2026-04-11T07:49:20.999Z</time></trkpt><trkpt lat="43.92772554404715" lon="12.322080045302824"><ele>203.5</ele><time>2026-04-11T07:49:21.999Z</time></trkpt><trkpt lat="43.92763821565667" lon="12.321963371138818"><ele>204.0</ele><time>2026-04-11T07:49:22.999Z</time></trkpt><trkpt lat="43.927551789418594" lon="12.321839673625345"><ele>204.39999999999998</ele><time>2026-04-11T07:49:23.999Z</time></trkpt><trkpt lat="43.927473149615174" lon="12.321723047520369"><ele>204.8</ele><time>2026-04-11T07:49:24.999Z</time></trkpt><trkpt lat="43.927399865242535" lon="12.321613138077067"><ele>205.2</ele><time>2026-04-11T07:49:25.999Z</time></trkpt><trkpt lat="43.92733364024658" lon="12.321504719228802"><ele>205.60000000000002</ele><time>2026-04-11T07:49:26.999Z</time></trkpt><trkpt lat="43.92726670204298" lon="12.321393996250945"><ele>206.0</ele><time>2026-04-11T07:49:27.999Z</time></trkpt><trkpt lat="43.9272031609628" lon="12.32128169203449"><ele>206.4</ele><time>2026-04-11T07:49:28.999Z</time></trkpt><trkpt lat="43.92713809669511" lon="12.321168632335043"><ele>206.8</ele><time>2026-04-11T07:49:29.999Z</time></trkpt><trkpt lat="43.92707027761763" lon="12.321055763415654"><ele>207.20000000000002</ele><time>2026-04-11T07:49:30.999Z</time></trkpt><trkpt lat="43.92700254510639" lon="12.32094038048912"><ele>207.60000000000002</ele><time>2026-04-11T07:49:31.999Z</time></trkpt><trkpt lat="43.92693282969929" lon="12.32082155080622"><ele>208.0</ele><time>2026-04-11T07:49:32.999Z</time></trkpt><trkpt lat="43.92686396392059" lon="12.320705393320326"><ele>208.0</ele><time>2026-04-11T07:49:33.999Z</time></trkpt><trkpt lat="43.92679659893882" lon="12.320592268644289"><ele>208.0</ele><time>2026-04-11T07:49:34.999Z</time></trkpt><trkpt lat="43.92672837927642" lon="12.32047916929345"><ele>208.0</ele><time>2026-04-11T07:49:35.999Z</time></trkpt><trkpt lat="43.92666138517847" lon="12.320362188917196"><ele>208.0</ele><time>2026-04-11T07:49:36.999Z</time></trkpt><trkpt lat="43.92659832078802" lon="12.320250960777464"><ele>208.0</ele><time>2026-04-11T07:49:37.999Z</time></trkpt><trkpt lat="43.92653704119324" lon="12.320143413017682"><ele>208.60000000000002</ele><time>2026-04-11T07:49:38.999Z</time></trkpt><trkpt lat="43.926478105139914" lon="12.32003819978081"><ele>209.20000000000002</ele><time>2026-04-11T07:49:39.999Z</time></trkpt><trkpt lat="43.926419508868285" lon="12.319934223403644"><ele>209.8</ele><time>2026-04-11T07:49:40.999Z</time></trkpt><trkpt lat="43.926358007112796" lon="12.319825743532887"><ele>210.4</ele><time>2026-04-11T07:49:41.999Z</time></trkpt><trkpt lat="43.92629564295942" lon="12.319713434156071"><ele>211.0</ele><time>2026-04-11T07:49:42.999Z</time></trkpt><trkpt lat="43.92623160080282" lon="12.319596988449401"><ele>211.0</ele><time>2026-04-11T07:49:43.999Z</time></trkpt><trkpt lat="43.92616578686682" lon="12.319478714950385"><ele>211.0</ele><time>2026-04-11T07:49:44.999Z</time></trkpt><trkpt lat="43.92609916478954" lon="12.319358475573353"><ele>211.0</ele><time>2026-04-11T07:49:45.999Z</time></trkpt><trkpt lat="43.92602942688407" lon="12.319238963052152"><ele>211.0</ele><time>2026-04-11T07:49:46.999Z</time></trkpt><trkpt lat="43.92595915615395" lon="12.319118203355629"><ele>211.0</ele><time>2026-04-11T07:49:48Z</time></trkpt><trkpt lat="43.92588607291684" lon="12.318995944327614"><ele>211.25</ele><time>2026-04-11T07:49:49Z</time></trkpt><trkpt lat="43.925812062566706" lon="12.318865968521777"><ele>211.5</ele><time>2026-04-11T07:49:50Z</time></trkpt><trkpt lat="43.92573547719615" lon="12.318735290503925"><ele>211.75</ele><time>2026-04-11T07:49:51Z</time></trkpt><trkpt lat="43.92565836968199" lon="12.318606898112364"><ele>212.0</ele><time>2026-04-11T07:49:52Z</time></trkpt><trkpt lat="43.92558395963031" lon="12.318483545502406"><ele>212.0</ele><time>2026-04-11T07:49:53Z</time></trkpt><trkpt lat="43.92550826468094" lon="12.31836401220805"><ele>212.0</ele><time>2026-04-11T07:49:54Z</time></trkpt><trkpt lat="43.925423159834935" lon="12.31825276218934"><ele>212.0</ele><time>2026-04-11T07:49:55Z</time></trkpt><trkpt lat="43.92532382306769" lon="12.318169631196694"><ele>212.0</ele><time>2026-04-11T07:49:56Z</time></trkpt><trkpt lat="43.92521560827304" lon="12.31810016144561"><ele>212.25</ele><time>2026-04-11T07:49:57Z</time></trkpt><trkpt lat="43.925100872564364" lon="12.318045403466162"><ele>212.5</ele><time>2026-04-11T07:49:58Z</time></trkpt><trkpt lat="43.92498773335742" lon="12.317994357556369"><ele>212.75</ele><time>2026-04-11T07:49:59Z</time></trkpt><trkpt lat="43.924882440783854" lon="12.317946099724667"><ele>213.0</ele><time>2026-04-11T07:50:00Z</time></trkpt><trkpt lat="43.92478148609475" lon="12.317897742880755"><ele>213.4</ele><time>2026-04-11T07:50:01Z</time></trkpt><trkpt lat="43.924683944552775" lon="12.317847735775137"><ele>213.8</ele><time>2026-04-11T07:50:02Z</time></trkpt><trkpt lat="43.924596893077144" lon="12.317792789329356"><ele>214.2</ele><time>2026-04-11T07:50:03Z</time></trkpt><trkpt lat="43.924515597005886" lon="12.317734525856235"><ele>214.6</ele><time>2026-04-11T07:50:04Z</time></trkpt><trkpt lat="43.9244355051328" lon="12.317676943630898"><ele>215.0</ele><time>2026-04-11T07:50:05Z</time></trkpt><trkpt lat="43.92435653766629" lon="12.317613159440288"><ele>215.0</ele><time>2026-04-11T07:50:06Z</time></trkpt><trkpt lat="43.92427730223344" lon="12.31753262548622"><ele>215.0</ele><time>2026-04-11T07:50:07Z</time></trkpt><trkpt lat="43.92419775253223" lon="12.317439640903556"><ele>215.0</ele><time>2026-04-11T07:50:08Z</time></trkpt><trkpt lat="43.92412062248279" lon="12.317338524579625"><ele>215.0</ele><time>2026-04-11T07:50:09Z</time></trkpt><trkpt lat="43.92404699625955" lon="12.317239355156744"><ele>215.0</ele><time>2026-04-11T07:50:10Z</time></trkpt><trkpt lat="43.923975571105416" lon="12.317146144306697"><ele>214.6</ele><time>2026-04-11T07:50:11Z</time></trkpt><trkpt lat="43.92390828000996" lon="12.317055308776407"><ele>214.2</ele><time>2026-04-11T07:50:12Z</time></trkpt><trkpt lat="43.923846685309364" lon="12.31696758918"><ele>213.8</ele><time>2026-04-11T07:50:13Z</time></trkpt><trkpt lat="43.92378498865103" lon="12.31688255331325"><ele>213.4</ele><time>2026-04-11T07:50:14Z</time></trkpt><trkpt lat="43.923719999384055" lon="12.316788096337964"><ele>213.0</ele><time>2026-04-11T07:50:15Z</time></trkpt><trkpt lat="43.923652868913464" lon="12.31669460558136"><ele>213.0</ele><time>2026-04-11T07:50:16Z</time></trkpt><trkpt lat="43.92358433010793" lon="12.31660938037662"><ele>213.0</ele><time>2026-04-11T07:50:17Z</time></trkpt><trkpt lat="43.92352635054489" lon="12.316515139341744"><ele>213.0</ele><time>2026-04-11T07:50:18Z</time></trkpt><trkpt lat="43.923454253960436" lon="12.316419677860008"><ele>213.0</ele><time>2026-04-11T07:50:19Z</time></trkpt><trkpt lat="43.92337623209208" lon="12.31632105180603"><ele>213.0</ele><time>2026-04-11T07:50:20Z</time></trkpt><trkpt lat="43.92330285602186" lon="12.316214648147229"><ele>213.8</ele><time>2026-04-11T07:50:21Z</time></trkpt><trkpt lat="43.92324057054069" lon="12.316102831767068"><ele>214.60000000000002</ele><time>2026-04-11T07:50:22Z</time></trkpt><trkpt lat="43.92318753284842" lon="12.315974956245002"><ele>215.39999999999998</ele><time>2026-04-11T07:50:23Z</time></trkpt><trkpt lat="43.923138325290324" lon="12.3158371520409"><ele>216.2</ele><time>2026-04-11T07:50:24Z</time></trkpt><trkpt lat="43.92309855284102" lon="12.315688489312016"><ele>217.0</ele><time>2026-04-11T07:50:25Z</time></trkpt><trkpt lat="43.92306210509008" lon="12.315531708305656"><ele>217.0</ele><time>2026-04-11T07:50:26Z</time></trkpt><trkpt lat="43.92301606113572" lon="12.315373566874461"><ele>217.0</ele><time>2026-04-11T07:50:27Z</time></trkpt><trkpt lat="43.92296517827835" lon="12.315222909309906"><ele>217.0</ele><time>2026-04-11T07:50:28Z</time></trkpt><trkpt lat="43.92290664217126" lon="12.31507054710665"><ele>217.0</ele><time>2026-04-11T07:50:29Z</time></trkpt><trkpt lat="43.922836943043116" lon="12.314924848002518"><ele>217.0</ele><time>2026-04-11T07:50:30Z</time></trkpt><trkpt lat="43.92275749485552" lon="12.314779413324755"><ele>217.0</ele><time>2026-04-11T07:50:31Z</time></trkpt><trkpt lat="43.92266998326796" lon="12.314632199231934"><ele>217.0</ele><time>2026-04-11T07:50:32Z</time></trkpt><trkpt lat="43.92257900750632" lon="12.31447853064567"><ele>217.0</ele><time>2026-04-11T07:50:33Z</time></trkpt><trkpt lat="43.9224864476721" lon="12.314329959633687"><ele>216.0</ele><time>2026-04-11T07:50:33.999Z</time></trkpt><trkpt lat="43.92239799572811" lon="12.314188011210419"><ele>215.0</ele><time>2026-04-11T07:50:34.999Z</time></trkpt><trkpt lat="43.92231409148124" lon="12.31404659346748"><ele>214.0</ele><time>2026-04-11T07:50:35.999Z</time></trkpt><trkpt lat="43.9222312478105" lon="12.313911461615444"><ele>213.0</ele><time>2026-04-11T07:50:36.999Z</time></trkpt><trkpt lat="43.92215097216145" lon="12.313781853493602"><ele>213.0</ele><time>2026-04-11T07:50:37.999Z</time></trkpt><trkpt lat="43.92207285173931" lon="12.3136517710521"><ele>213.0</ele><time>2026-04-11T07:50:38.999Z</time></trkpt><trkpt lat="43.92199407140575" lon="12.313525549055392"><ele>213.0</ele><time>2026-04-11T07:50:39.999Z</time></trkpt><trkpt lat="43.92191383384629" lon="12.313402890142394"><ele>213.0</ele><time>2026-04-11T07:50:40.999Z</time></trkpt><trkpt lat="43.92183140502999" lon="12.31328304016954"><ele>213.0</ele><time>2026-04-11T07:50:41.999Z</time></trkpt><trkpt lat="43.92174747576895" lon="12.313166252794588"><ele>213.0</ele><time>2026-04-11T07:50:42.999Z</time></trkpt><trkpt lat="43.92165809750098" lon="12.313061814384671"><ele>213.0</ele><time>2026-04-11T07:50:43.999Z</time></trkpt><trkpt lat="43.92156584581854" lon="12.312965886276851"><ele>213.0</ele><time>2026-04-11T07:50:44.999Z</time></trkpt><trkpt lat="43.92147034924512" lon="12.312879003137676"><ele>211.75</ele><time>2026-04-11T07:50:45.999Z</time></trkpt><trkpt lat="43.92137302263076" lon="12.312787960927452"><ele>210.5</ele><time>2026-04-11T07:50:46.999Z</time></trkpt><trkpt lat="43.92127794418022" lon="12.312691885492981"><ele>209.25</ele><time>2026-04-11T07:50:47.999Z</time></trkpt><trkpt lat="43.921175974684054" lon="12.312600105756285"><ele>208.0</ele><time>2026-04-11T07:50:48.999Z</time></trkpt><trkpt lat="43.92107779486911" lon="12.312508166716508"><ele>208.0</ele><time>2026-04-11T07:50:49.999Z</time></trkpt><trkpt lat="43.92098025632558" lon="12.312416484992086"><ele>208.0</ele><time>2026-04-11T07:50:50.999Z</time></trkpt><trkpt lat="43.92088315625313" lon="12.312328534240388"><ele>208.0</ele><time>2026-04-11T07:50:51.999Z</time></trkpt><trkpt lat="43.92078325634179" lon="12.312240355388314"><ele>208.0</ele><time>2026-04-11T07:50:52.999Z</time></trkpt><trkpt lat="43.92068549593467" lon="12.312141403824793"><ele>210.25</ele><time>2026-04-11T07:50:53.999Z</time></trkpt><trkpt lat="43.92058780439975" lon="12.31204643810156"><ele>212.5</ele><time>2026-04-11T07:50:54.999Z</time></trkpt><trkpt lat="43.920491873380946" lon="12.311950297567687"><ele>214.75</ele><time>2026-04-11T07:50:55.999Z</time></trkpt><trkpt lat="43.92039759962133" lon="12.311853388296742"><ele>217.0</ele><time>2026-04-11T07:50:56.999Z</time></trkpt><trkpt lat="43.92030981425708" lon="12.311766448947665"><ele>217.0</ele><time>2026-04-11T07:50:57.999Z</time></trkpt><trkpt lat="43.92022599990433" lon="12.311686920221765"><ele>217.0</ele><time>2026-04-11T07:50:58.999Z</time></trkpt><trkpt lat="43.9201471888853" lon="12.311602600057435"><ele>217.0</ele><time>2026-04-11T07:50:59.999Z</time></trkpt><trkpt lat="43.92007349288443" lon="12.311507623508131"><ele>217.0</ele><time>2026-04-11T07:51:00.999Z</time></trkpt><trkpt lat="43.92001735341403" lon="12.311401910102697"><ele>217.0</ele><time>2026-04-11T07:51:01.999Z</time></trkpt><trkpt lat="43.91996854253065" lon="12.311284062606928"><ele>217.2</ele><time>2026-04-11T07:51:02.999Z</time></trkpt><trkpt lat="43.919920358906225" lon="12.31115712934157"><ele>217.39999999999998</ele><time>2026-04-11T07:51:03.999Z</time></trkpt><trkpt lat="43.919867912061235" lon="12.311025679827093"><ele>217.60000000000002</ele><time>2026-04-11T07:51:04.999Z</time></trkpt><trkpt lat="43.91981417239687" lon="12.310890870618929"><ele>217.8</ele><time>2026-04-11T07:51:05.999Z</time></trkpt><trkpt lat="43.919753997974325" lon="12.31075639035254"><ele>218.0</ele><time>2026-04-11T07:51:06.999Z</time></trkpt><trkpt lat="43.91968936868631" lon="12.310622800165765"><ele>219.5</ele><time>2026-04-11T07:51:07.999Z</time></trkpt><trkpt lat="43.91961940265713" lon="12.310491744499709"><ele>221.0</ele><time>2026-04-11T07:51:08.999Z</time></trkpt><trkpt lat="43.91954776297216" lon="12.310361252096083"><ele>222.5</ele><time>2026-04-11T07:51:09.999Z</time></trkpt><trkpt lat="43.91947053163557" lon="12.310231129330045"><ele>224.0</ele><time>2026-04-11T07:51:10.999Z</time></trkpt><trkpt lat="43.91938312864789" lon="12.31010510168478"><ele>224.0</ele><time>2026-04-11T07:51:11.999Z</time></trkpt><trkpt lat="43.91929501872018" lon="12.309983821696397"><ele>224.0</ele><time>2026-04-11T07:51:12.999Z</time></trkpt><trkpt lat="43.9192087435479" lon="12.309860458041836"><ele>224.0</ele><time>2026-04-11T07:51:13.999Z</time></trkpt><trkpt lat="43.91912680337653" lon="12.309743909628374"><ele>224.0</ele><time>2026-04-11T07:51:14.999Z</time></trkpt><trkpt lat="43.919048032708766" lon="12.309631263684691"><ele>224.0</ele><time>2026-04-11T07:51:15.999Z</time></trkpt><trkpt lat="43.91896901123663" lon="12.309517998550739"><ele>224.0</ele><time>2026-04-11T07:51:16.999Z</time></trkpt><trkpt lat="43.91888724767187" lon="12.309403494428553"><ele>224.0</ele><time>2026-04-11T07:51:17.999Z</time></trkpt><trkpt lat="43.918805356463295" lon="12.309289228445886"><ele>224.0</ele><time>2026-04-11T07:51:18.999Z</time></trkpt><trkpt lat="43.91872205391084" lon="12.309177379221516"><ele>224.0</ele><time>2026-04-11T07:51:19.999Z</time></trkpt><trkpt lat="43.91864200228678" lon="12.30905755670931"><ele>224.0</ele><time>2026-04-11T07:51:20.999Z</time></trkpt><trkpt lat="43.91855902920621" lon="12.308937906186978"><ele>224.0</ele><time>2026-04-11T07:51:21.999Z</time></trkpt><trkpt lat="43.91847403113614" lon="12.30881707299536"><ele>224.0</ele><time>2026-04-11T07:51:22.999Z</time></trkpt><trkpt lat="43.91838923984352" lon="12.308693215464766"><ele>224.5</ele><time>2026-04-11T07:51:23.999Z</time></trkpt><trkpt lat="43.91830140968111" lon="12.308567562443322"><ele>225.0</ele><time>2026-04-11T07:51:24.999Z</time></trkpt><trkpt lat="43.91821386743224" lon="12.308447904562938"><ele>225.5</ele><time>2026-04-11T07:51:25.999Z</time></trkpt><trkpt lat="43.91812859399919" lon="12.308327776236196"><ele>226.0</ele><time>2026-04-11T07:51:26.999Z</time></trkpt><trkpt lat="43.918043727631506" lon="12.308210877086992"><ele>226.0</ele><time>2026-04-11T07:51:27.999Z</time></trkpt><trkpt lat="43.917959562089116" lon="12.30809355391882"><ele>226.0</ele><time>2026-04-11T07:51:28.999Z</time></trkpt><trkpt lat="43.917875629874786" lon="12.307976810494052"><ele>226.0</ele><time>2026-04-11T07:51:29.999Z</time></trkpt><trkpt lat="43.917792178599136" lon="12.307861925687872"><ele>226.0</ele><time>2026-04-11T07:51:30.999Z</time></trkpt><trkpt lat="43.917710263588425" lon="12.307746227921143"><ele>226.25</ele><time>2026-04-11T07:51:31.999Z</time></trkpt><trkpt lat="43.91762920122538" lon="12.307632982619703"><ele>226.5</ele><time>2026-04-11T07:51:32.999Z</time></trkpt><trkpt lat="43.917547790192636" lon="12.307520168655461"><ele>226.75</ele><time>2026-04-11T07:51:33.999Z</time></trkpt><trkpt lat="43.91746705656351" lon="12.307403740229034"><ele>227.0</ele><time>2026-04-11T07:51:34.999Z</time></trkpt><trkpt lat="43.91738309768421" lon="12.307288756564079"><ele>227.75</ele><time>2026-04-11T07:51:35.999Z</time></trkpt><trkpt lat="43.91729603284397" lon="12.307171874688857"><ele>228.5</ele><time>2026-04-11T07:51:36.999Z</time></trkpt><trkpt lat="43.91720939889022" lon="12.30705087838043"><ele>229.25</ele><time>2026-04-11T07:51:37.999Z</time></trkpt><trkpt lat="43.917122232194664" lon="12.30692616351253"><ele>230.0</ele><time>2026-04-11T07:51:38.999Z</time></trkpt><trkpt lat="43.91703320755733" lon="12.30680099999596"><ele>230.0</ele><time>2026-04-11T07:51:39.999Z</time></trkpt><trkpt lat="43.916945070121315" lon="12.306676307476796"><ele>230.0</ele><time>2026-04-11T07:51:40.999Z</time></trkpt><trkpt lat="43.916861224885196" lon="12.306557169926622"><ele>230.0</ele><time>2026-04-11T07:51:41.999Z</time></trkpt><trkpt lat="43.91677501467294" lon="12.306443320004274"><ele>230.0</ele><time>2026-04-11T07:51:42.999Z</time></trkpt><trkpt lat="43.91668572479182" lon="12.306337059167872"><ele>231.0</ele><time>2026-04-11T07:51:43.999Z</time></trkpt><trkpt lat="43.916584192807505" lon="12.306253525444925"><ele>232.0</ele><time>2026-04-11T07:51:44.999Z</time></trkpt><trkpt lat="43.91647783107519" lon="12.306182846987578"><ele>233.0</ele><time>2026-04-11T07:51:45.999Z</time></trkpt><trkpt lat="43.91636548271385" lon="12.30612417831401"><ele>234.0</ele><time>2026-04-11T07:51:46.999Z</time></trkpt><trkpt lat="43.91624900510076" lon="12.306073818361115"><ele>234.0</ele><time>2026-04-11T07:51:47.999Z</time></trkpt><trkpt lat="43.91613282953511" lon="12.306030939415319"><ele>234.0</ele><time>2026-04-11T07:51:48.999Z</time></trkpt><trkpt lat="43.91601896272959" lon="12.305993255402193"><ele>234.0</ele><time>2026-04-11T07:51:49.999Z</time></trkpt><trkpt lat="43.915904327261494" lon="12.305954548616908"><ele>234.0</ele><time>2026-04-11T07:51:50.999Z</time></trkpt><trkpt lat="43.9157892625588" lon="12.30591604749126"><ele>233.5</ele><time>2026-04-11T07:51:51.999Z</time></trkpt><trkpt lat="43.91567313676881" lon="12.305874431421127"><ele>233.0</ele><time>2026-04-11T07:51:52.999Z</time></trkpt><trkpt lat="43.91555672010948" lon="12.305826216307937"><ele>232.5</ele><time>2026-04-11T07:51:54Z</time></trkpt><trkpt lat="43.91544084358054" lon="12.30576794066377"><ele>232.0</ele><time>2026-04-11T07:51:55Z</time></trkpt><trkpt lat="43.91532264690795" lon="12.305705810951864"><ele>232.0</ele><time>2026-04-11T07:51:56Z</time></trkpt><trkpt lat="43.915198609630316" lon="12.305646297329742"><ele>232.0</ele><time>2026-04-11T07:51:57Z</time></trkpt><trkpt lat="43.91507062177069" lon="12.30558263493028"><ele>232.0</ele><time>2026-04-11T07:51:58Z</time></trkpt><trkpt lat="43.91494397848284" lon="12.305508040925508"><ele>232.0</ele><time>2026-04-11T07:51:59Z</time></trkpt><trkpt lat="43.914817055267804" lon="12.30544827383323"><ele>232.0</ele><time>2026-04-11T07:52:00Z</time></trkpt><trkpt lat="43.91469658071261" lon="12.305389378228071"><ele>232.0</ele><time>2026-04-11T07:52:01Z</time></trkpt><trkpt lat="43.91458335741333" lon="12.305333732705117"><ele>232.0</ele><time>2026-04-11T07:52:02Z</time></trkpt><trkpt lat="43.91447809180969" lon="12.30527800766149"><ele>232.0</ele><time>2026-04-11T07:52:03Z</time></trkpt><trkpt lat="43.914376974162714" lon="12.305222246512981"><ele>232.0</ele><time>2026-04-11T07:52:04Z</time></trkpt><trkpt lat="43.914274868336975" lon="12.305165236689644"><ele>232.0</ele><time>2026-04-11T07:52:05Z</time></trkpt><trkpt lat="43.914168456464644" lon="12.305107782328713"><ele>232.0</ele><time>2026-04-11T07:52:06Z</time></trkpt><trkpt lat="43.91406392270591" lon="12.305053065578972"><ele>232.0</ele><time>2026-04-11T07:52:07Z</time></trkpt><trkpt lat="43.913963458978905" lon="12.30500041285519"><ele>232.0</ele><time>2026-04-11T07:52:08Z</time></trkpt><trkpt lat="43.913860336354055" lon="12.304944543349938"><ele>231.75</ele><time>2026-04-11T07:52:09Z</time></trkpt><trkpt lat="43.91375416819343" lon="12.304889894757748"><ele>231.5</ele><time>2026-04-11T07:52:10Z</time></trkpt><trkpt lat="43.91364507981781" lon="12.304836746655003"><ele>231.25</ele><time>2026-04-11T07:52:11Z</time></trkpt><trkpt lat="43.913531840464444" lon="12.304781789418126"><ele>231.0</ele><time>2026-04-11T07:52:12Z</time></trkpt><trkpt lat="43.91342314639404" lon="12.304719486469361"><ele>230.25</ele><time>2026-04-11T07:52:13Z</time></trkpt><trkpt lat="43.913309234350116" lon="12.304661295419605"><ele>229.5</ele><time>2026-04-11T07:52:14Z</time></trkpt><trkpt lat="43.91319350849766" lon="12.304600526526036"><ele>228.75</ele><time>2026-04-11T07:52:15Z</time></trkpt><trkpt lat="43.91308327708258" lon="12.304543643838304"><ele>228.0</ele><time>2026-04-11T07:52:16Z</time></trkpt><trkpt lat="43.91297327400559" lon="12.304485540581364"><ele>228.0</ele><time>2026-04-11T07:52:17Z</time></trkpt><trkpt lat="43.91286435241034" lon="12.304425401779328"><ele>228.0</ele><time>2026-04-11T07:52:18Z</time></trkpt><trkpt lat="43.91275506074948" lon="12.304368479062905"><ele>228.0</ele><time>2026-04-11T07:52:19Z</time></trkpt><trkpt lat="43.91264189897178" lon="12.304317284429265"><ele>228.0</ele><time>2026-04-11T07:52:20Z</time></trkpt><trkpt lat="43.912527937202526" lon="12.304266152921949"><ele>228.75</ele><time>2026-04-11T07:52:21Z</time></trkpt><trkpt lat="43.91241139719226" lon="12.30422580699686"><ele>229.5</ele><time>2026-04-11T07:52:22Z</time></trkpt><trkpt lat="43.91229445499186" lon="12.304195766347224"><ele>230.25</ele><time>2026-04-11T07:52:23Z</time></trkpt><trkpt lat="43.912173697488946" lon="12.304168283722506"><ele>231.0</ele><time>2026-04-11T07:52:24Z</time></trkpt><trkpt lat="43.91204741786665" lon="12.304153069266643"><ele>231.0</ele><time>2026-04-11T07:52:25Z</time></trkpt><trkpt lat="43.91192784226384" lon="12.304154857061018"><ele>231.0</ele><time>2026-04-11T07:52:26Z</time></trkpt><trkpt lat="43.91180930193926" lon="12.304135006711507"><ele>231.0</ele><time>2026-04-11T07:52:27Z</time></trkpt><trkpt lat="43.91167993059907" lon="12.30412493311869"><ele>231.0</ele><time>2026-04-11T07:52:28Z</time></trkpt><trkpt lat="43.91155130318293" lon="12.304109205253352"><ele>231.0</ele><time>2026-04-11T07:52:29Z</time></trkpt><trkpt lat="43.911424641668205" lon="12.30408506457925"><ele>231.0</ele><time>2026-04-11T07:52:30Z</time></trkpt><trkpt lat="43.911294686101826" lon="12.304073838625674"><ele>231.0</ele><time>2026-04-11T07:52:31Z</time></trkpt><trkpt lat="43.91116521618722" lon="12.304051928913234"><ele>231.0</ele><time>2026-04-11T07:52:32Z</time></trkpt><trkpt lat="43.911040530075944" lon="12.30402187943308"><ele>231.0</ele><time>2026-04-11T07:52:33Z</time></trkpt><trkpt lat="43.910925435894946" lon="12.303972039030754"><ele>231.0</ele><time>2026-04-11T07:52:34Z</time></trkpt><trkpt lat="43.91081445137744" lon="12.303904292142894"><ele>231.0</ele><time>2026-04-11T07:52:35Z</time></trkpt><trkpt lat="43.91070621012529" lon="12.303818583048036"><ele>231.0</ele><time>2026-04-11T07:52:36Z</time></trkpt><trkpt lat="43.910603957335674" lon="12.303715293798533"><ele>233.5</ele><time>2026-04-11T07:52:37Z</time></trkpt><trkpt lat="43.91050418916804" lon="12.303596702392602"><ele>236.0</ele><time>2026-04-11T07:52:38Z</time></trkpt><trkpt lat="43.91040954954231" lon="12.303479687575638"><ele>238.5</ele><time>2026-04-11T07:52:39Z</time></trkpt><trkpt lat="43.91031893518178" lon="12.303367347467423"><ele>241.0</ele><time>2026-04-11T07:52:40Z</time></trkpt><trkpt lat="43.91023277005139" lon="12.303256776899017"><ele>241.0</ele><time>2026-04-11T07:52:41Z</time></trkpt><trkpt lat="43.910150896393034" lon="12.303148083978641"><ele>241.00000000000003</ele><time>2026-04-11T07:52:42Z</time></trkpt><trkpt lat="43.91008097609111" lon="12.303032363260703"><ele>241.00000000000003</ele><time>2026-04-11T07:52:43Z</time></trkpt><trkpt lat="43.910040767478584" lon="12.302900940104855"><ele>241.0</ele><time>2026-04-11T07:52:44Z</time></trkpt><trkpt lat="43.910037934663556" lon="12.302748516451311"><ele>241.0</ele><time>2026-04-11T07:52:45Z</time></trkpt><trkpt lat="43.910080083206154" lon="12.302609472884063"><ele>241.8</ele><time>2026-04-11T07:52:46Z</time></trkpt><trkpt lat="43.91014012896702" lon="12.302486774533762"><ele>242.60000000000002</ele><time>2026-04-11T07:52:47Z</time></trkpt><trkpt lat="43.91019642991431" lon="12.302366864147825"><ele>243.4</ele><time>2026-04-11T07:52:47.999Z</time></trkpt><trkpt lat="43.91024168692953" lon="12.302237075618015"><ele>244.2</ele><time>2026-04-11T07:52:48.999Z</time></trkpt><trkpt lat="43.91026723956663" lon="12.302093892531323"><ele>245.0</ele><time>2026-04-11T07:52:49.999Z</time></trkpt><trkpt lat="43.91027956367659" lon="12.301935055560987"><ele>246.0</ele><time>2026-04-11T07:52:50.999Z</time></trkpt><trkpt lat="43.910292325436835" lon="12.301768959050692"><ele>247.0</ele><time>2026-04-11T07:52:51.999Z</time></trkpt><trkpt lat="43.910313990545994" lon="12.301596573658998"><ele>248.0</ele><time>2026-04-11T07:52:52.999Z</time></trkpt><trkpt lat="43.91034921403349" lon="12.301421761156774"><ele>249.0</ele><time>2026-04-11T07:52:53.999Z</time></trkpt><trkpt lat="43.91038892945437" lon="12.301245512420197"><ele>249.0</ele><time>2026-04-11T07:52:54.999Z</time></trkpt><trkpt lat="43.91042564831102" lon="12.301074063571134"><ele>249.0</ele><time>2026-04-11T07:52:55.999Z</time></trkpt><trkpt lat="43.91045656324822" lon="12.300908395890886"><ele>249.0</ele><time>2026-04-11T07:52:56.999Z</time></trkpt><trkpt lat="43.910480738365834" lon="12.30074844065281"><ele>249.0</ele><time>2026-04-11T07:52:57.999Z</time></trkpt><trkpt lat="43.910500566627796" lon="12.300595960149359"><ele>248.39999999999998</ele><time>2026-04-11T07:52:58.999Z</time></trkpt><trkpt lat="43.910514157132724" lon="12.300450258937662"><ele>247.79999999999998</ele><time>2026-04-11T07:52:59.999Z</time></trkpt><trkpt lat="43.91053109583418" lon="12.30030848357736"><ele>247.20000000000002</ele><time>2026-04-11T07:53:00.999Z</time></trkpt><trkpt lat="43.910545543033464" lon="12.300165098202234"><ele>246.60000000000002</ele><time>2026-04-11T07:53:01.999Z</time></trkpt><trkpt lat="43.91056079141237" lon="12.300018328084926"><ele>246.0</ele><time>2026-04-11T07:53:02.999Z</time></trkpt><trkpt lat="43.910573358148575" lon="12.29986541255591"><ele>246.0</ele><time>2026-04-11T07:53:03.999Z</time></trkpt><trkpt lat="43.91058261039326" lon="12.299709017384764"><ele>246.0</ele><time>2026-04-11T07:53:04.999Z</time></trkpt><trkpt lat="43.91058745735719" lon="12.299549135568311"><ele>246.0</ele><time>2026-04-11T07:53:05.999Z</time></trkpt><trkpt lat="43.91058377161287" lon="12.299382672599732"><ele>246.0</ele><time>2026-04-11T07:53:06.999Z</time></trkpt><trkpt lat="43.91057390998542" lon="12.299218785443523"><ele>246.0</ele><time>2026-04-11T07:53:07.999Z</time></trkpt><trkpt lat="43.91056460153901" lon="12.299059799772886"><ele>246.0</ele><time>2026-04-11T07:53:08.999Z</time></trkpt><trkpt lat="43.91055348390673" lon="12.298904300415328"><ele>246.0</ele><time>2026-04-11T07:53:09.999Z</time></trkpt><trkpt lat="43.91052587490925" lon="12.298752123897463"><ele>246.0</ele><time>2026-04-11T07:53:10.999Z</time></trkpt><trkpt lat="43.91045840173251" lon="12.298623529910502"><ele>246.5</ele><time>2026-04-11T07:53:11.999Z</time></trkpt><trkpt lat="43.91038187804438" lon="12.298517567891798"><ele>247.0</ele><time>2026-04-11T07:53:12.999Z</time></trkpt><trkpt lat="43.910289688550776" lon="12.298419274882246"><ele>247.5</ele><time>2026-04-11T07:53:13.999Z</time></trkpt><trkpt lat="43.910192517665216" lon="12.298321976009339"><ele>248.0</ele><time>2026-04-11T07:53:14.999Z</time></trkpt><trkpt lat="43.91009317264006" lon="12.298233495227612"><ele>247.5</ele><time>2026-04-11T07:53:15.999Z</time></trkpt><trkpt lat="43.90998571198362" lon="12.298154012105586"><ele>247.0</ele><time>2026-04-11T07:53:16.999Z</time></trkpt><trkpt lat="43.90988041141089" lon="12.298079498719856"><ele>246.5</ele><time>2026-04-11T07:53:17.999Z</time></trkpt><trkpt lat="43.90977923622179" lon="12.297993350001068"><ele>246.0</ele><time>2026-04-11T07:53:18.999Z</time></trkpt><trkpt lat="43.90968527674786" lon="12.297894163066449"><ele>246.0</ele><time>2026-04-11T07:53:19.999Z</time></trkpt><trkpt lat="43.90960001993541" lon="12.297774659184519"><ele>246.0</ele><time>2026-04-11T07:53:20.999Z</time></trkpt><trkpt lat="43.90951896629803" lon="12.297643905470341"><ele>246.0</ele><time>2026-04-11T07:53:21.999Z</time></trkpt><trkpt lat="43.90944329694992" lon="12.297513447168173"><ele>246.0</ele><time>2026-04-11T07:53:22.999Z</time></trkpt><trkpt lat="43.90937058416411" lon="12.2973890117467"><ele>246.0</ele><time>2026-04-11T07:53:23.999Z</time></trkpt><trkpt lat="43.909301036420295" lon="12.297265299573713"><ele>246.0</ele><time>2026-04-11T07:53:24.999Z</time></trkpt><trkpt lat="43.90922707625355" lon="12.297134708960085"><ele>246.0</ele><time>2026-04-11T07:53:25.999Z</time></trkpt><trkpt lat="43.90915695027973" lon="12.297002021300921"><ele>246.0</ele><time>2026-04-11T07:53:26.999Z</time></trkpt><trkpt lat="43.909099837666375" lon="12.29685007327757"><ele>245.0</ele><time>2026-04-11T07:53:27.999Z</time></trkpt><trkpt lat="43.909063395991744" lon="12.296683817936247"><ele>244.0</ele><time>2026-04-11T07:53:28.999Z</time></trkpt><trkpt lat="43.90903694317575" lon="12.296513571606752"><ele>243.0</ele><time>2026-04-11T07:53:29.999Z</time></trkpt><trkpt lat="43.90900293336198" lon="12.296352176103323"><ele>242.0</ele><time>2026-04-11T07:53:30.999Z</time></trkpt><trkpt lat="43.908958287033386" lon="12.296201153527775"><ele>242.0</ele><time>2026-04-11T07:53:31.999Z</time></trkpt><trkpt lat="43.908910826729034" lon="12.29605191164344"><ele>242.0</ele><time>2026-04-11T07:53:32.999Z</time></trkpt><trkpt lat="43.90886483845484" lon="12.295905592555158"><ele>242.0</ele><time>2026-04-11T07:53:33.999Z</time></trkpt><trkpt lat="43.908819575517334" lon="12.295767001190562"><ele>242.0</ele><time>2026-04-11T07:53:34.999Z</time></trkpt><trkpt lat="43.90877412214853" lon="12.295628594566573"><ele>242.5</ele><time>2026-04-11T07:53:35.999Z</time></trkpt><trkpt lat="43.90872859322311" lon="12.295485964917432"><ele>243.0</ele><time>2026-04-11T07:53:36.999Z</time></trkpt><trkpt lat="43.908682125907085" lon="12.29533897743056"><ele>243.5</ele><time>2026-04-11T07:53:37.999Z</time></trkpt><trkpt lat="43.9086351071767" lon="12.295194332397225"><ele>244.0</ele><time>2026-04-11T07:53:38.999Z</time></trkpt><trkpt lat="43.908584655325775" lon="12.295053289715923"><ele>244.0</ele><time>2026-04-11T07:53:39.999Z</time></trkpt><trkpt lat="43.908535680226954" lon="12.294917988162291"><ele>243.99999999999997</ele><time>2026-04-11T07:53:40.999Z</time></trkpt><trkpt lat="43.90849184433809" lon="12.29478441052716"><ele>243.99999999999997</ele><time>2026-04-11T07:53:41.999Z</time></trkpt><trkpt lat="43.908450076383836" lon="12.294654951628214"><ele>244.0</ele><time>2026-04-11T07:53:42.999Z</time></trkpt><trkpt lat="43.90840766796554" lon="12.294525472686287"><ele>244.0</ele><time>2026-04-11T07:53:43.999Z</time></trkpt><trkpt lat="43.908361538231055" lon="12.294400307280316"><ele>243.0</ele><time>2026-04-11T07:53:44.999Z</time></trkpt><trkpt lat="43.90830095832257" lon="12.29428793741206"><ele>241.99999999999997</ele><time>2026-04-11T07:53:45.999Z</time></trkpt><trkpt lat="43.90821571719324" lon="12.294195939315633"><ele>240.99999999999997</ele><time>2026-04-11T07:53:46.999Z</time></trkpt><trkpt lat="43.90811608044359" lon="12.294125759125635"><ele>240.0</ele><time>2026-04-11T07:53:47.999Z</time></trkpt><trkpt lat="43.90801097334731" lon="12.29407050990648"><ele>239.0</ele><time>2026-04-11T07:53:48.999Z</time></trkpt><trkpt lat="43.90789617788627" lon="12.29403242849914"><ele>239.0</ele><time>2026-04-11T07:53:49.999Z</time></trkpt><trkpt lat="43.90777612902836" lon="12.293998983536794"><ele>239.0</ele><time>2026-04-11T07:53:50.999Z</time></trkpt><trkpt lat="43.90765171133087" lon="12.293970097177937"><ele>239.0</ele><time>2026-04-11T07:53:51.999Z</time></trkpt><trkpt lat="43.90752806173469" lon="12.29394082622577"><ele>239.0</ele><time>2026-04-11T07:53:52.999Z</time></trkpt><trkpt lat="43.90740354102664" lon="12.293910907634654"><ele>238.75</ele><time>2026-04-11T07:53:53.999Z</time></trkpt><trkpt lat="43.90727877623025" lon="12.293886670654562"><ele>238.5</ele><time>2026-04-11T07:53:54.999Z</time></trkpt><trkpt lat="43.907155779510205" lon="12.293859805133312"><ele>238.25</ele><time>2026-04-11T07:53:55.999Z</time></trkpt><trkpt lat="43.907038663718254" lon="12.293830525608502"><ele>238.0</ele><time>2026-04-11T07:53:56.999Z</time></trkpt><trkpt lat="43.90692405595088" lon="12.293802055200127"><ele>238.0</ele><time>2026-04-11T07:53:57.999Z</time></trkpt><trkpt lat="43.906810944760885" lon="12.293775280310982"><ele>238.0</ele><time>2026-04-11T07:53:58.999Z</time></trkpt><trkpt lat="43.90669834649111" lon="12.29374880769131"><ele>238.0</ele><time>2026-04-11T07:54:00Z</time></trkpt><trkpt lat="43.90658677726217" lon="12.293725184573802"><ele>238.0</ele><time>2026-04-11T07:54:01Z</time></trkpt><trkpt lat="43.906475462854694" lon="12.293701282442841"><ele>238.75</ele><time>2026-04-11T07:54:02Z</time></trkpt><trkpt lat="43.90636688310321" lon="12.293683851378807"><ele>239.5</ele><time>2026-04-11T07:54:03Z</time></trkpt><trkpt lat="43.906254788560204" lon="12.293664133951742"><ele>240.25</ele><time>2026-04-11T07:54:04Z</time></trkpt><trkpt lat="43.90614039324731" lon="12.293638300970674"><ele>241.0</ele><time>2026-04-11T07:54:05Z</time></trkpt><trkpt lat="43.9060217068981" lon="12.29361569936491"><ele>241.25</ele><time>2026-04-11T07:54:06Z</time></trkpt><trkpt lat="43.905897298004234" lon="12.293595599370107"><ele>241.5</ele><time>2026-04-11T07:54:07Z</time></trkpt><trkpt lat="43.90577523250284" lon="12.293583460943932"><ele>241.75</ele><time>2026-04-11T07:54:08Z</time></trkpt><trkpt lat="43.905655869018005" lon="12.293568185391171"><ele>242.0</ele><time>2026-04-11T07:54:09Z</time></trkpt><trkpt lat="43.905534579853416" lon="12.293537541533697"><ele>242.0</ele><time>2026-04-11T07:54:10Z</time></trkpt><trkpt lat="43.90541015186417" lon="12.293504569295019"><ele>242.0</ele><time>2026-04-11T07:54:11Z</time></trkpt><trkpt lat="43.905285277050005" lon="12.293462389613198"><ele>242.0</ele><time>2026-04-11T07:54:12Z</time></trkpt><trkpt lat="43.90515794654062" lon="12.293417774443066"><ele>242.0</ele><time>2026-04-11T07:54:13Z</time></trkpt><trkpt lat="43.90502805728607" lon="12.293371921106482"><ele>241.5</ele><time>2026-04-11T07:54:14Z</time></trkpt><trkpt lat="43.9049019924004" lon="12.293333401509216"><ele>241.0</ele><time>2026-04-11T07:54:15Z</time></trkpt><trkpt lat="43.904782116842" lon="12.293298404333155"><ele>240.5</ele><time>2026-04-11T07:54:16Z</time></trkpt><trkpt lat="43.90466470427881" lon="12.29327421455207"><ele>240.0</ele><time>2026-04-11T07:54:17Z</time></trkpt><trkpt lat="43.90454855379032" lon="12.293275705126488"><ele>240.0</ele><time>2026-04-11T07:54:18Z</time></trkpt><trkpt lat="43.90443678230449" lon="12.293303325392293"><ele>240.0</ele><time>2026-04-11T07:54:19Z</time></trkpt><trkpt lat="43.90433448190841" lon="12.29334416366407"><ele>240.0</ele><time>2026-04-11T07:54:20Z</time></trkpt><trkpt lat="43.90422983108421" lon="12.293404527690656"><ele>240.0</ele><time>2026-04-11T07:54:21Z</time></trkpt><trkpt lat="43.9041328654419" lon="12.29348130611006"><ele>240.0</ele><time>2026-04-11T07:54:22Z</time></trkpt><trkpt lat="43.90404205361799" lon="12.293576391540187"><ele>239.25</ele><time>2026-04-11T07:54:23Z</time></trkpt><trkpt lat="43.90394887982394" lon="12.293682408761953"><ele>238.5</ele><time>2026-04-11T07:54:24Z</time></trkpt><trkpt lat="43.903854874202224" lon="12.293796458710505"><ele>237.75</ele><time>2026-04-11T07:54:25Z</time></trkpt><trkpt lat="43.903761464990325" lon="12.293914947647185"><ele>237.0</ele><time>2026-04-11T07:54:26Z</time></trkpt><trkpt lat="43.90367100882897" lon="12.294037692539359"><ele>237.0</ele><time>2026-04-11T07:54:27Z</time></trkpt><trkpt lat="43.90358936062579" lon="12.294149802535046"><ele>237.0</ele><time>2026-04-11T07:54:28Z</time></trkpt><trkpt lat="43.90351693427201" lon="12.294270954127756"><ele>237.0</ele><time>2026-04-11T07:54:29Z</time></trkpt><trkpt lat="43.90344861311282" lon="12.29439864221398"><ele>237.0</ele><time>2026-04-11T07:54:30Z</time></trkpt><trkpt lat="43.90338531035556" lon="12.294531227518238"><ele>237.2</ele><time>2026-04-11T07:54:31Z</time></trkpt><trkpt lat="43.90332324290034" lon="12.294660638324514"><ele>237.39999999999998</ele><time>2026-04-11T07:54:32Z</time></trkpt><trkpt lat="43.90325742204153" lon="12.294786045122787"><ele>237.60000000000002</ele><time>2026-04-11T07:54:33Z</time></trkpt><trkpt lat="43.90318311671098" lon="12.29489662722349"><ele>237.8</ele><time>2026-04-11T07:54:34Z</time></trkpt><trkpt lat="43.903093707801325" lon="12.294982264667723"><ele>238.0</ele><time>2026-04-11T07:54:35Z</time></trkpt><trkpt lat="43.902986420854766" lon="12.295039049483782"><ele>238.0</ele><time>2026-04-11T07:54:36Z</time></trkpt><trkpt lat="43.90287274863866" lon="12.295069986582632"><ele>238.0</ele><time>2026-04-11T07:54:37Z</time></trkpt><trkpt lat="43.902754771228295" lon="12.29508532812603"><ele>238.0</ele><time>2026-04-11T07:54:38Z</time></trkpt><trkpt lat="43.90263667320601" lon="12.295083411434726"><ele>238.0</ele><time>2026-04-11T07:54:39Z</time></trkpt><trkpt lat="43.902519470556946" lon="12.29505838624122"><ele>238.5</ele><time>2026-04-11T07:54:40Z</time></trkpt><trkpt lat="43.90240372506682" lon="12.295023953489897"><ele>239.0</ele><time>2026-04-11T07:54:41Z</time></trkpt><trkpt lat="43.90229314736035" lon="12.294992680872692"><ele>239.5</ele><time>2026-04-11T07:54:42Z</time></trkpt><trkpt lat="43.902181402128626" lon="12.294963541253551"><ele>240.0</ele><time>2026-04-11T07:54:43Z</time></trkpt><trkpt lat="43.90206718556474" lon="12.294925448418065"><ele>240.0</ele><time>2026-04-11T07:54:44Z</time></trkpt><trkpt lat="43.90194945378883" lon="12.294891602642648"><ele>240.0</ele><time>2026-04-11T07:54:45Z</time></trkpt><trkpt lat="43.90182943718771" lon="12.294856313173813"><ele>240.0</ele><time>2026-04-11T07:54:46Z</time></trkpt><trkpt lat="43.901708789291156" lon="12.29481310838507"><ele>240.0</ele><time>2026-04-11T07:54:47Z</time></trkpt><trkpt lat="43.90158999393291" lon="12.294752165564201"><ele>241.75</ele><time>2026-04-11T07:54:48Z</time></trkpt><trkpt lat="43.90147990103299" lon="12.29466151344051"><ele>243.5</ele><time>2026-04-11T07:54:49Z</time></trkpt><trkpt lat="43.90137689957014" lon="12.294557619485213"><ele>245.25</ele><time>2026-04-11T07:54:50Z</time></trkpt><trkpt lat="43.901272904225465" lon="12.29445510395466"><ele>247.0</ele><time>2026-04-11T07:54:51Z</time></trkpt><trkpt lat="43.90117134737968" lon="12.294348179557721"><ele>247.0</ele><time>2026-04-11T07:54:52Z</time></trkpt><trkpt lat="43.90107108524389" lon="12.294238868576773"><ele>247.0</ele><time>2026-04-11T07:54:53Z</time></trkpt><trkpt lat="43.90097231106861" lon="12.294133382670626"><ele>247.0</ele><time>2026-04-11T07:54:54Z</time></trkpt><trkpt lat="43.900881740843815" lon="12.294030879826074"><ele>247.0</ele><time>2026-04-11T07:54:55Z</time></trkpt><trkpt lat="43.900794192510915" lon="12.2939391037585"><ele>248.0</ele><time>2026-04-11T07:54:56Z</time></trkpt><trkpt lat="43.90071254933517" lon="12.293849441890044"><ele>249.0</ele><time>2026-04-11T07:54:57Z</time></trkpt><trkpt lat="43.90062899342593" lon="12.293754253243893"><ele>250.0</ele><time>2026-04-11T07:54:58Z</time></trkpt><trkpt lat="43.900543728532014" lon="12.293658004958305"><ele>251.0</ele><time>2026-04-11T07:54:59Z</time></trkpt><trkpt lat="43.90046021052343" lon="12.293562259370711"><ele>252.0</ele><time>2026-04-11T07:54:59.999Z</time></trkpt><trkpt lat="43.90038171716209" lon="12.293452392675462"><ele>252.0</ele><time>2026-04-11T07:55:00.999Z</time></trkpt><trkpt lat="43.90032216611811" lon="12.293310802272416"><ele>252.0</ele><time>2026-04-11T07:55:01.999Z</time></trkpt><trkpt lat="43.900285992791915" lon="12.29315394659363"><ele>252.0</ele><time>2026-04-11T07:55:02.999Z</time></trkpt><trkpt lat="43.90026545348478" lon="12.292991421249189"><ele>252.0</ele><time>2026-04-11T07:55:03.999Z</time></trkpt><trkpt lat="43.90025686645612" lon="12.292822639397727"><ele>253.0</ele><time>2026-04-11T07:55:04.999Z</time></trkpt><trkpt lat="43.90024836205404" lon="12.29265331048779"><ele>254.0</ele><time>2026-04-11T07:55:05.999Z</time></trkpt><trkpt lat="43.90023995456162" lon="12.292480408700763"><ele>255.0</ele><time>2026-04-11T07:55:06.999Z</time></trkpt><trkpt lat="43.90023289575947" lon="12.292305821320767"><ele>256.0</ele><time>2026-04-11T07:55:07.999Z</time></trkpt><trkpt lat="43.90022259918156" lon="12.292132250790656"><ele>257.0</ele><time>2026-04-11T07:55:08.999Z</time></trkpt><trkpt lat="43.90021249966959" lon="12.291958602959573"><ele>258.0</ele><time>2026-04-11T07:55:09.999Z</time></trkpt><trkpt lat="43.90020274592848" lon="12.291795707595917"><ele>259.0</ele><time>2026-04-11T07:55:10.999Z</time></trkpt><trkpt lat="43.90019267549034" lon="12.291644460877798"><ele>260.0</ele><time>2026-04-11T07:55:11.999Z</time></trkpt><trkpt lat="43.90017793045965" lon="12.29149620810889"><ele>259.75</ele><time>2026-04-11T07:55:12.999Z</time></trkpt><trkpt lat="43.900174515463625" lon="12.291340901231885"><ele>259.5</ele><time>2026-04-11T07:55:13.999Z</time></trkpt><trkpt lat="43.90013503516" lon="12.291189793701772"><ele>259.25</ele><time>2026-04-11T07:55:14.999Z</time></trkpt><trkpt lat="43.90008351507877" lon="12.291044956423413"><ele>259.0</ele><time>2026-04-11T07:55:15.999Z</time></trkpt><trkpt lat="43.900016440608766" lon="12.290907512328692"><ele>259.0</ele><time>2026-04-11T07:55:16.999Z</time></trkpt><trkpt lat="43.89993951295649" lon="12.290772104933966"><ele>259.0</ele><time>2026-04-11T07:55:17.999Z</time></trkpt><trkpt lat="43.89986289020049" lon="12.290635724385115"><ele>259.0</ele><time>2026-04-11T07:55:18.999Z</time></trkpt><trkpt lat="43.899786947654775" lon="12.290503502349017"><ele>259.0</ele><time>2026-04-11T07:55:19.999Z</time></trkpt><trkpt lat="43.89971445297574" lon="12.290376020537092"><ele>260.0</ele><time>2026-04-11T07:55:20.999Z</time></trkpt><trkpt lat="43.89964590723455" lon="12.29026072739775"><ele>261.0</ele><time>2026-04-11T07:55:21.999Z</time></trkpt><trkpt lat="43.89958319880256" lon="12.29015026335475"><ele>262.0</ele><time>2026-04-11T07:55:22.999Z</time></trkpt><trkpt lat="43.89952012145876" lon="12.290034155990284"><ele>263.0</ele><time>2026-04-11T07:55:23.999Z</time></trkpt><trkpt lat="43.8994539793592" lon="12.289917893635902"><ele>264.0</ele><time>2026-04-11T07:55:24.999Z</time></trkpt><trkpt lat="43.8993832463844" lon="12.28980095184019"><ele>263.75</ele><time>2026-04-11T07:55:25.999Z</time></trkpt><trkpt lat="43.89931309986865" lon="12.289678763820175"><ele>263.5</ele><time>2026-04-11T07:55:26.999Z</time></trkpt><trkpt lat="43.899241370297965" lon="12.28955662323991"><ele>263.25</ele><time>2026-04-11T07:55:27.999Z</time></trkpt><trkpt lat="43.89916663846931" lon="12.28943538472719"><ele>263.0</ele><time>2026-04-11T07:55:28.999Z</time></trkpt><trkpt lat="43.89908732593515" lon="12.289316016845618"><ele>263.0</ele><time>2026-04-11T07:55:29.999Z</time></trkpt><trkpt lat="43.89899459010151" lon="12.289212835455238"><ele>263.0</ele><time>2026-04-11T07:55:30.999Z</time></trkpt><trkpt lat="43.898898253589415" lon="12.289125862661045"><ele>263.0</ele><time>2026-04-11T07:55:31.999Z</time></trkpt><trkpt lat="43.89880199324019" lon="12.289047713055469"><ele>263.0</ele><time>2026-04-11T07:55:32.999Z</time></trkpt><trkpt lat="43.89871067706072" lon="12.288976763477855"><ele>265.2</ele><time>2026-04-11T07:55:33.999Z</time></trkpt><trkpt lat="43.89861996850792" lon="12.288919184268888"><ele>267.4</ele><time>2026-04-11T07:55:34.999Z</time></trkpt><trkpt lat="43.89852432936807" lon="12.288876376156173"><ele>269.59999999999997</ele><time>2026-04-11T07:55:35.999Z</time></trkpt><trkpt lat="43.8984296945709" lon="12.288852907283546"><ele>271.8</ele><time>2026-04-11T07:55:36.999Z</time></trkpt><trkpt lat="43.898336203806046" lon="12.288845434666342"><ele>274.0</ele><time>2026-04-11T07:55:37.999Z</time></trkpt><trkpt lat="43.898248857268946" lon="12.28884683529836"><ele>274.0</ele><time>2026-04-11T07:55:38.999Z</time></trkpt><trkpt lat="43.89816506686607" lon="12.288850555275111"><ele>274.0</ele><time>2026-04-11T07:55:39.999Z</time></trkpt><trkpt lat="43.89808768016739" lon="12.28885625246031"><ele>274.0</ele><time>2026-04-11T07:55:40.999Z</time></trkpt><trkpt lat="43.898009864977155" lon="12.288867774671607"><ele>274.0</ele><time>2026-04-11T07:55:41.999Z</time></trkpt><trkpt lat="43.89793355655373" lon="12.288872075304246"><ele>274.0</ele><time>2026-04-11T07:55:42.999Z</time></trkpt><trkpt lat="43.897862497260874" lon="12.28888146639012"><ele>274.0</ele><time>2026-04-11T07:55:43.999Z</time></trkpt><trkpt lat="43.89779278513211" lon="12.288910966141046"><ele>274.66666666666663</ele><time>2026-04-11T07:55:44.999Z</time></trkpt><trkpt lat="43.89772352155629" lon="12.28896269648849"><ele>275.3333333333333</ele><time>2026-04-11T07:55:45.999Z</time></trkpt><trkpt lat="43.897643587482705" lon="12.288992128719125"><ele>276.0</ele><time>2026-04-11T07:55:46.999Z</time></trkpt><trkpt lat="43.89755551047749" lon="12.288984533945266"><ele>276.6666666666667</ele><time>2026-04-11T07:55:47.999Z</time></trkpt><trkpt lat="43.89747030347338" lon="12.288923929883412"><ele>277.33333333333337</ele><time>2026-04-11T07:55:48.999Z</time></trkpt><trkpt lat="43.897391540494276" lon="12.288853255380511"><ele>278.0</ele><time>2026-04-11T07:55:49.999Z</time></trkpt><trkpt lat="43.897312105441344" lon="12.288779885414765"><ele>278.0</ele><time>2026-04-11T07:55:50.999Z</time></trkpt><trkpt lat="43.89724150772165" lon="12.28870660573004"><ele>278.0</ele><time>2026-04-11T07:55:51.999Z</time></trkpt><trkpt lat="43.89717388621201" lon="12.288643608082369"><ele>278.0</ele><time>2026-04-11T07:55:52.999Z</time></trkpt><trkpt lat="43.89711074602268" lon="12.288578924631574"><ele>278.0</ele><time>2026-04-11T07:55:53.999Z</time></trkpt><trkpt lat="43.89704060558094" lon="12.288517911219714"><ele>278.0</ele><time>2026-04-11T07:55:54.999Z</time></trkpt><trkpt lat="43.896967366313994" lon="12.288456244911048"><ele>278.0</ele><time>2026-04-11T07:55:55.999Z</time></trkpt><trkpt lat="43.89689475882366" lon="12.288387853739437"><ele>278.0</ele><time>2026-04-11T07:55:56.999Z</time></trkpt><trkpt lat="43.89682335030365" lon="12.288321863553103"><ele>278.0</ele><time>2026-04-11T07:55:57.999Z</time></trkpt><trkpt lat="43.89674826296738" lon="12.288256993443849"><ele>278.0</ele><time>2026-04-11T07:55:58.999Z</time></trkpt><trkpt lat="43.89666891401415" lon="12.288193984445206"><ele>278.0</ele><time>2026-04-11T07:55:59.999Z</time></trkpt><trkpt lat="43.896595810752224" lon="12.288127163051938"><ele>278.0</ele><time>2026-04-11T07:56:00.999Z</time></trkpt><trkpt lat="43.896523954856775" lon="12.288062982900177"><ele>278.0</ele><time>2026-04-11T07:56:01.999Z</time></trkpt><trkpt lat="43.89644968667505" lon="12.28800326673265"><ele>278.5</ele><time>2026-04-11T07:56:02.999Z</time></trkpt><trkpt lat="43.89638096190636" lon="12.287938917832497"><ele>279.0</ele><time>2026-04-11T07:56:03.999Z</time></trkpt><trkpt lat="43.89631856143814" lon="12.287886409740457"><ele>279.5</ele><time>2026-04-11T07:56:04.999Z</time></trkpt><trkpt lat="43.89625423224085" lon="12.287831811693687"><ele>280.0</ele><time>2026-04-11T07:56:06Z</time></trkpt><trkpt lat="43.896181983044" lon="12.287788687828058"><ele>280.5</ele><time>2026-04-11T07:56:07Z</time></trkpt><trkpt lat="43.89611257382968" lon="12.28771702285824"><ele>281.0</ele><time>2026-04-11T07:56:08Z</time></trkpt><trkpt lat="43.89604553704274" lon="12.287646436592071"><ele>281.0</ele><time>2026-04-11T07:56:09Z</time></trkpt><trkpt lat="43.89597185611212" lon="12.287590158705767"><ele>281.0</ele><time>2026-04-11T07:56:10Z</time></trkpt><trkpt lat="43.89589861728272" lon="12.287544553101231"><ele>281.0</ele><time>2026-04-11T07:56:11Z</time></trkpt><trkpt lat="43.89582709668776" lon="12.287517724092561"><ele>281.0</ele><time>2026-04-11T07:56:12Z</time></trkpt><trkpt lat="43.89574744310777" lon="12.287527496118546"><ele>281.0</ele><time>2026-04-11T07:56:13Z</time></trkpt><trkpt lat="43.895664869509964" lon="12.287554620763366"><ele>281.0</ele><time>2026-04-11T07:56:14Z</time></trkpt><trkpt lat="43.89558735848093" lon="12.28760113643325"><ele>281.1666666666667</ele><time>2026-04-11T07:56:15Z</time></trkpt><trkpt lat="43.89552488759853" lon="12.287663780260992"><ele>281.33333333333337</ele><time>2026-04-11T07:56:16Z</time></trkpt><trkpt lat="43.895468029370264" lon="12.287725802274892"><ele>281.5</ele><time>2026-04-11T07:56:17Z</time></trkpt><trkpt lat="43.895369925189186" lon="12.287842620392217"><ele>281.6666666666667</ele><time>2026-04-11T07:56:19Z</time></trkpt><trkpt lat="43.89531476928293" lon="12.287904690979039"><ele>281.8333333333333</ele><time>2026-04-11T07:56:20Z</time></trkpt><trkpt lat="43.89525921677033" lon="12.287972558585803"><ele>282.0</ele><time>2026-04-11T07:56:21Z</time></trkpt><trkpt lat="43.895204792665275" lon="12.288047840342923"><ele>281.57142857142856</ele><time>2026-04-11T07:56:22Z</time></trkpt><trkpt lat="43.89516059519857" lon="12.288117507606811"><ele>281.1428571428571</ele><time>2026-04-11T07:56:23Z</time></trkpt><trkpt lat="43.89512571298958" lon="12.28820005741573"><ele>280.71428571428567</ele><time>2026-04-11T07:56:24Z</time></trkpt><trkpt lat="43.89509430280536" lon="12.288289423607592"><ele>280.2857142857143</ele><time>2026-04-11T07:56:25Z</time></trkpt><trkpt lat="43.89506647289684" lon="12.288384421679549"><ele>279.85714285714283</ele><time>2026-04-11T07:56:26Z</time></trkpt><trkpt lat="43.89504023861635" lon="12.288483452992024"><ele>279.4285714285714</ele><time>2026-04-11T07:56:27Z</time></trkpt><trkpt lat="43.89500930718488" lon="12.288585369770448"><ele>279.0</ele><time>2026-04-11T07:56:28Z</time></trkpt><trkpt lat="43.89496862254274" lon="12.2886860249755"><ele>280.3333333333333</ele><time>2026-04-11T07:56:29Z</time></trkpt><trkpt lat="43.89491794398537" lon="12.288774320799725"><ele>281.6666666666667</ele><time>2026-04-11T07:56:30Z</time></trkpt><trkpt lat="43.894863369071594" lon="12.288855088396963"><ele>283.0</ele><time>2026-04-11T07:56:31Z</time></trkpt><trkpt lat="43.89480642406155" lon="12.288934911745669"><ele>284.33333333333337</ele><time>2026-04-11T07:56:32Z</time></trkpt><trkpt lat="43.89474373185214" lon="12.289011350067417"><ele>285.6666666666667</ele><time>2026-04-11T07:56:33Z</time></trkpt><trkpt lat="43.89467280354459" lon="12.289081749514072"><ele>287.0</ele><time>2026-04-11T07:56:34Z</time></trkpt><trkpt lat="43.894598097128515" lon="12.28913456886991"><ele>287.0</ele><time>2026-04-11T07:56:35Z</time></trkpt><trkpt lat="43.89452006958879" lon="12.289176617331359"><ele>287.0</ele><time>2026-04-11T07:56:36Z</time></trkpt><trkpt lat="43.89443961384179" lon="12.289209042106782"><ele>287.0</ele><time>2026-04-11T07:56:37Z</time></trkpt><trkpt lat="43.89436109041068" lon="12.289231901590227"><ele>287.0</ele><time>2026-04-11T07:56:38Z</time></trkpt><trkpt lat="43.89427952933099" lon="12.289255279004628"><ele>287.0</ele><time>2026-04-11T07:56:39Z</time></trkpt><trkpt lat="43.894191195607405" lon="12.289275192786144"><ele>287.0</ele><time>2026-04-11T07:56:40Z</time></trkpt><trkpt lat="43.89410287095883" lon="12.289286797421102"><ele>287.5</ele><time>2026-04-11T07:56:41Z</time></trkpt><trkpt lat="43.89400849082241" lon="12.289301829175328"><ele>288.0</ele><time>2026-04-11T07:56:42Z</time></trkpt><trkpt lat="43.89392146195387" lon="12.289330075193122"><ele>288.5</ele><time>2026-04-11T07:56:43Z</time></trkpt><trkpt lat="43.89383366419501" lon="12.28935213537352"><ele>289.0</ele><time>2026-04-11T07:56:44Z</time></trkpt><trkpt lat="43.89375332264361" lon="12.289373197319911"><ele>289.5</ele><time>2026-04-11T07:56:45Z</time></trkpt><trkpt lat="43.89367977648837" lon="12.289400160804556"><ele>290.0</ele><time>2026-04-11T07:56:46Z</time></trkpt><trkpt lat="43.89360030427397" lon="12.289395462133491"><ele>290.0</ele><time>2026-04-11T07:56:47Z</time></trkpt><trkpt lat="43.89346835927775" lon="12.289429804801049"><ele>290.0</ele><time>2026-04-11T07:56:49Z</time></trkpt><trkpt lat="43.89340425643571" lon="12.289446489493953"><ele>290.0</ele><time>2026-04-11T07:56:50Z</time></trkpt><trkpt lat="43.893339587413905" lon="12.289461742806623"><ele>290.0</ele><time>2026-04-11T07:56:51Z</time></trkpt><trkpt lat="43.89327240212784" lon="12.289473940758734"><ele>290.0</ele><time>2026-04-11T07:56:52Z</time></trkpt><trkpt lat="43.89316071675171" lon="12.289487395055028"><ele>290.0</ele><time>2026-04-11T07:56:54Z</time></trkpt><trkpt lat="43.89309693125421" lon="12.289485814370074"><ele>290.6</ele><time>2026-04-11T07:56:56Z</time></trkpt><trkpt lat="43.89301275181769" lon="12.289496271534853"><ele>291.2</ele><time>2026-04-11T07:56:58Z</time></trkpt><trkpt lat="43.89292388309265" lon="12.289472551816681"><ele>291.8</ele><time>2026-04-11T07:57:00Z</time></trkpt><trkpt lat="43.892854838570884" lon="12.289443820044598"><ele>292.4</ele><time>2026-04-11T07:57:02Z</time></trkpt><trkpt lat="43.89275597574695" lon="12.289408680925789"><ele>293.0</ele><time>2026-04-11T07:57:04Z</time></trkpt><trkpt lat="43.892626187690716" lon="12.289371374087848"><ele>293.0</ele><time>2026-04-11T07:57:06Z</time></trkpt><trkpt lat="43.892545005140306" lon="12.289319887722929"><ele>293.0</ele><time>2026-04-11T07:57:07Z</time></trkpt><trkpt lat="43.89244734974901" lon="12.289286547209324"><ele>293.0</ele><time>2026-04-11T07:57:08Z</time></trkpt><trkpt lat="43.892343116169535" lon="12.289272393312713"><ele>293.0</ele><time>2026-04-11T07:57:09Z</time></trkpt><trkpt lat="43.89224744175279" lon="12.289230812027403"><ele>293.0</ele><time>2026-04-11T07:57:10Z</time></trkpt><trkpt lat="43.89215398796656" lon="12.28919029515185"><ele>293.0</ele><time>2026-04-11T07:57:10.999Z</time></trkpt><trkpt lat="43.89205833159046" lon="12.28915203992237"><ele>293.0</ele><time>2026-04-11T07:57:11.999Z</time></trkpt><trkpt lat="43.891966995869076" lon="12.289113970712078"><ele>293.0</ele><time>2026-04-11T07:57:12.999Z</time></trkpt><trkpt lat="43.89188058862415" lon="12.28908168685746"><ele>293.0</ele><time>2026-04-11T07:57:13.999Z</time></trkpt><trkpt lat="43.891790397874004" lon="12.289049048112977"><ele>293.0</ele><time>2026-04-11T07:57:14.999Z</time></trkpt><trkpt lat="43.89169888974218" lon="12.289015000180484"><ele>293.0</ele><time>2026-04-11T07:57:15.999Z</time></trkpt><trkpt lat="43.89160732935271" lon="12.288982919038105"><ele>293.0</ele><time>2026-04-11T07:57:16.999Z</time></trkpt><trkpt lat="43.89151481790163" lon="12.288948723099667"><ele>293.0</ele><time>2026-04-11T07:57:17.999Z</time></trkpt><trkpt lat="43.891418044178195" lon="12.28890310604136"><ele>293.0</ele><time>2026-04-11T07:57:18.999Z</time></trkpt><trkpt lat="43.89131833578981" lon="12.288864422857698"><ele>293.0</ele><time>2026-04-11T07:57:19.999Z</time></trkpt><trkpt lat="43.89121563600821" lon="12.288832852420576"><ele>293.4</ele><time>2026-04-11T07:57:20.999Z</time></trkpt><trkpt lat="43.89110661374501" lon="12.288791995368314"><ele>293.8</ele><time>2026-04-11T07:57:21.999Z</time></trkpt><trkpt lat="43.89099479770456" lon="12.288749612752397"><ele>294.2</ele><time>2026-04-11T07:57:22.999Z</time></trkpt><trkpt lat="43.890885739075856" lon="12.288704516566595"><ele>294.6</ele><time>2026-04-11T07:57:23.999Z</time></trkpt><trkpt lat="43.89078468971158" lon="12.288656501220323"><ele>295.0</ele><time>2026-04-11T07:57:24.999Z</time></trkpt><trkpt lat="43.89068158932306" lon="12.288613208596423"><ele>295.0</ele><time>2026-04-11T07:57:25.999Z</time></trkpt><trkpt lat="43.890575632911066" lon="12.28857034887386"><ele>295.0</ele><time>2026-04-11T07:57:26.999Z</time></trkpt><trkpt lat="43.890465849315696" lon="12.288529289148618"><ele>295.0</ele><time>2026-04-11T07:57:27.999Z</time></trkpt><trkpt lat="43.89035383072343" lon="12.288488605206275"><ele>295.0</ele><time>2026-04-11T07:57:28.999Z</time></trkpt><trkpt lat="43.89024147265863" lon="12.288450026394433"><ele>295.0</ele><time>2026-04-11T07:57:29.999Z</time></trkpt><trkpt lat="43.890130871417924" lon="12.28840941990748"><ele>295.0</ele><time>2026-04-11T07:57:30.999Z</time></trkpt><trkpt lat="43.890021216344614" lon="12.288369543552866"><ele>295.0</ele><time>2026-04-11T07:57:31.999Z</time></trkpt><trkpt lat="43.88991317549505" lon="12.288332640598945"><ele>295.0</ele><time>2026-04-11T07:57:32.999Z</time></trkpt><trkpt lat="43.88980394965286" lon="12.288291277506806"><ele>294.0</ele><time>2026-04-11T07:57:33.999Z</time></trkpt><trkpt lat="43.8896967640445" lon="12.28825049363993"><ele>293.0</ele><time>2026-04-11T07:57:34.999Z</time></trkpt><trkpt lat="43.88959200400423" lon="12.28820965210153"><ele>292.0</ele><time>2026-04-11T07:57:35.999Z</time></trkpt><trkpt lat="43.88948945126864" lon="12.28817228676564"><ele>291.0</ele><time>2026-04-11T07:57:36.999Z</time></trkpt><trkpt lat="43.8893856876101" lon="12.288133815796174"><ele>290.0</ele><time>2026-04-11T07:57:37.999Z</time></trkpt><trkpt lat="43.88928010202583" lon="12.288093499836926"><ele>290.2</ele><time>2026-04-11T07:57:38.999Z</time></trkpt><trkpt lat="43.889172673281735" lon="12.288053588399963"><ele>290.4</ele><time>2026-04-11T07:57:39.999Z</time></trkpt><trkpt lat="43.88906762517993" lon="12.288015520478549"><ele>290.6</ele><time>2026-04-11T07:57:40.999Z</time></trkpt><trkpt lat="43.888963335323915" lon="12.28797541219413"><ele>290.8</ele><time>2026-04-11T07:57:41.999Z</time></trkpt><trkpt lat="43.8888622171264" lon="12.287933268204613"><ele>291.0</ele><time>2026-04-11T07:57:42.999Z</time></trkpt><trkpt lat="43.88876733585374" lon="12.287874422364931"><ele>291.0</ele><time>2026-04-11T07:57:43.999Z</time></trkpt><trkpt lat="43.88868437160978" lon="12.28779220703746"><ele>291.0</ele><time>2026-04-11T07:57:44.999Z</time></trkpt><trkpt lat="43.88860927132949" lon="12.287708767342044"><ele>291.0</ele><time>2026-04-11T07:57:45.999Z</time></trkpt><trkpt lat="43.88854837778498" lon="12.287610303576697"><ele>291.0</ele><time>2026-04-11T07:57:46.999Z</time></trkpt><trkpt lat="43.888495211902544" lon="12.28750370543046"><ele>291.0</ele><time>2026-04-11T07:57:47.999Z</time></trkpt><trkpt lat="43.888454447016734" lon="12.287386756667711"><ele>290.0</ele><time>2026-04-11T07:57:48.999Z</time></trkpt><trkpt lat="43.888425760096624" lon="12.287262117614699"><ele>289.0</ele><time>2026-04-11T07:57:49.999Z</time></trkpt><trkpt lat="43.888411445496494" lon="12.287133401752683"><ele>288.0</ele><time>2026-04-11T07:57:50.999Z</time></trkpt><trkpt lat="43.88841331412214" lon="12.287003471279716"><ele>287.0</ele><time>2026-04-11T07:57:51.999Z</time></trkpt><trkpt lat="43.888415631714025" lon="12.2868716216001"><ele>286.0</ele><time>2026-04-11T07:57:52.999Z</time></trkpt><trkpt lat="43.8883895399057" lon="12.286740818332008"><ele>286.0</ele><time>2026-04-11T07:57:53.999Z</time></trkpt><trkpt lat="43.888353811334945" lon="12.28660090479641"><ele>286.0</ele><time>2026-04-11T07:57:54.999Z</time></trkpt><trkpt lat="43.888308794642036" lon="12.286473687531396"><ele>286.0</ele><time>2026-04-11T07:57:55.999Z</time></trkpt><trkpt lat="43.888245582826876" lon="12.286353489154015"><ele>286.0</ele><time>2026-04-11T07:57:56.999Z</time></trkpt><trkpt lat="43.88816746910279" lon="12.286235597246964"><ele>286.0</ele><time>2026-04-11T07:57:57.999Z</time></trkpt><trkpt lat="43.8880855366007" lon="12.28611495125792"><ele>286.25</ele><time>2026-04-11T07:57:58.999Z</time></trkpt><trkpt lat="43.88799481096098" lon="12.285997327622116"><ele>286.5</ele><time>2026-04-11T07:57:59.999Z</time></trkpt><trkpt lat="43.887896415780425" lon="12.28588153265536"><ele>286.75</ele><time>2026-04-11T07:58:00.999Z</time></trkpt><trkpt lat="43.88780454180937" lon="12.285762929888207"><ele>287.0</ele><time>2026-04-11T07:58:01.999Z</time></trkpt><trkpt lat="43.88771855612278" lon="12.285650104418865"><ele>287.75</ele><time>2026-04-11T07:58:02.999Z</time></trkpt><trkpt lat="43.88763353291231" lon="12.285543498288733"><ele>288.5</ele><time>2026-04-11T07:58:03.999Z</time></trkpt><trkpt lat="43.887540091610255" lon="12.285449412948141"><ele>289.25</ele><time>2026-04-11T07:58:04.999Z</time></trkpt><trkpt lat="43.88743434046518" lon="12.2853910938213"><ele>290.0</ele><time>2026-04-11T07:58:05.999Z</time></trkpt><trkpt lat="43.88731905415565" lon="12.285376927541648"><ele>290.5</ele><time>2026-04-11T07:58:06.999Z</time></trkpt><trkpt lat="43.887200355503815" lon="12.285381554017489"><ele>291.0</ele><time>2026-04-11T07:58:07.999Z</time></trkpt><trkpt lat="43.88708177857572" lon="12.285399567704802"><ele>291.5</ele><time>2026-04-11T07:58:08.999Z</time></trkpt><trkpt lat="43.88696229402382" lon="12.285424036560608"><ele>292.0</ele><time>2026-04-11T07:58:09.999Z</time></trkpt><trkpt lat="43.88683966651154" lon="12.28543103162242"><ele>292.25</ele><time>2026-04-11T07:58:10.999Z</time></trkpt><trkpt lat="43.886717037599084" lon="12.285410807236271"><ele>292.5</ele><time>2026-04-11T07:58:12Z</time></trkpt><trkpt lat="43.88660666924104" lon="12.285363836060183"><ele>292.75</ele><time>2026-04-11T07:58:13Z</time></trkpt><trkpt lat="43.88649941798677" lon="12.285291241889661"><ele>293.0</ele><time>2026-04-11T07:58:14Z</time></trkpt><trkpt lat="43.88640533156016" lon="12.285202557970287"><ele>293.0</ele><time>2026-04-11T07:58:15Z</time></trkpt><trkpt lat="43.886319325033355" lon="12.28510012085831"><ele>293.0</ele><time>2026-04-11T07:58:16Z</time></trkpt><trkpt lat="43.88623645972852" lon="12.284986651907587"><ele>293.0</ele><time>2026-04-11T07:58:17Z</time></trkpt><trkpt lat="43.88615703012788" lon="12.28487199333488"><ele>293.0</ele><time>2026-04-11T07:58:18Z</time></trkpt><trkpt lat="43.88607275191321" lon="12.284769550678002"><ele>294.4</ele><time>2026-04-11T07:58:19Z</time></trkpt><trkpt lat="43.885984378722874" lon="12.284687062563705"><ele>295.8</ele><time>2026-04-11T07:58:20Z</time></trkpt><trkpt lat="43.88589082090371" lon="12.284622870921954"><ele>297.2</ele><time>2026-04-11T07:58:21Z</time></trkpt><trkpt lat="43.88579056180118" lon="12.284580089427784"><ele>298.6</ele><time>2026-04-11T07:58:22Z</time></trkpt><trkpt lat="43.88569306930048" lon="12.284561441383516"><ele>300.0</ele><time>2026-04-11T07:58:23Z</time></trkpt><trkpt lat="43.885599520488675" lon="12.284552329703374"><ele>300.2</ele><time>2026-04-11T07:58:24Z</time></trkpt><trkpt lat="43.88551333087864" lon="12.284540703742753"><ele>300.4</ele><time>2026-04-11T07:58:25Z</time></trkpt><trkpt lat="43.88542648508527" lon="12.284526300660048"><ele>300.6</ele><time>2026-04-11T07:58:26Z</time></trkpt><trkpt lat="43.88533519983669" lon="12.284503227337277"><ele>300.8</ele><time>2026-04-11T07:58:27Z</time></trkpt><trkpt lat="43.88524523357481" lon="12.284458157508114"><ele>301.0</ele><time>2026-04-11T07:58:28Z</time></trkpt><trkpt lat="43.88517063851153" lon="12.284363931514939"><ele>301.0</ele><time>2026-04-11T07:58:29Z</time></trkpt><trkpt lat="43.88511902532412" lon="12.284238236648703"><ele>301.0</ele><time>2026-04-11T07:58:30Z</time></trkpt><trkpt lat="43.88507999120654" lon="12.284096727451189"><ele>301.0</ele><time>2026-04-11T07:58:31Z</time></trkpt><trkpt lat="43.88504974466648" lon="12.283952793404652"><ele>301.0</ele><time>2026-04-11T07:58:32Z</time></trkpt><trkpt lat="43.88500838823687" lon="12.28381507804011"><ele>301.0</ele><time>2026-04-11T07:58:33Z</time></trkpt><trkpt lat="43.88494840182242" lon="12.28368191653107"><ele>303.2</ele><time>2026-04-11T07:58:34Z</time></trkpt><trkpt lat="43.884877918392654" lon="12.283557982255505"><ele>305.40000000000003</ele><time>2026-04-11T07:58:35Z</time></trkpt><trkpt lat="43.88479478386527" lon="12.28345483151916"><ele>307.6</ele><time>2026-04-11T07:58:36Z</time></trkpt><trkpt lat="43.88469470722199" lon="12.283380629039577"><ele>309.8</ele><time>2026-04-11T07:58:37Z</time></trkpt><trkpt lat="43.88459693637483" lon="12.283314137812313"><ele>312.0</ele><time>2026-04-11T07:58:38Z</time></trkpt><trkpt lat="43.88449815285004" lon="12.283267109928687"><ele>312.0</ele><time>2026-04-11T07:58:39Z</time></trkpt><trkpt lat="43.88440085481891" lon="12.283223794717738"><ele>312.0</ele><time>2026-04-11T07:58:40Z</time></trkpt><trkpt lat="43.8843038851765" lon="12.283180930393778"><ele>312.0</ele><time>2026-04-11T07:58:41Z</time></trkpt><trkpt lat="43.884208097418274" lon="12.283136439181533"><ele>312.0</ele><time>2026-04-11T07:58:42Z</time></trkpt><trkpt lat="43.884112357727446" lon="12.283101483058422"><ele>312.0</ele><time>2026-04-11T07:58:43Z</time></trkpt><trkpt lat="43.884014933552315" lon="12.283072872786828"><ele>311.8</ele><time>2026-04-11T07:58:44Z</time></trkpt><trkpt lat="43.88391953297385" lon="12.283046548602899"><ele>311.6</ele><time>2026-04-11T07:58:45Z</time></trkpt><trkpt lat="43.88382047521605" lon="12.28302864790444"><ele>311.40000000000003</ele><time>2026-04-11T07:58:46Z</time></trkpt><trkpt lat="43.883717909859655" lon="12.283041649879298"><ele>311.2</ele><time>2026-04-11T07:58:47Z</time></trkpt><trkpt lat="43.88361180566523" lon="12.283090157901976"><ele>311.0</ele><time>2026-04-11T07:58:48Z</time></trkpt><trkpt lat="43.883508635001895" lon="12.283151733284157"><ele>313.0</ele><time>2026-04-11T07:58:49Z</time></trkpt><trkpt lat="43.88340661269734" lon="12.283229399289553"><ele>315.0</ele><time>2026-04-11T07:58:50Z</time></trkpt><trkpt lat="43.88330580053414" lon="12.283313923853335"><ele>317.0</ele><time>2026-04-11T07:58:51Z</time></trkpt><trkpt lat="43.883203044033344" lon="12.28339106405711"><ele>319.0</ele><time>2026-04-11T07:58:52Z</time></trkpt><trkpt lat="43.8831055453897" lon="12.28346148891923"><ele>319.0</ele><time>2026-04-11T07:58:53Z</time></trkpt><trkpt lat="43.88301543297868" lon="12.283521186568203"><ele>319.0</ele><time>2026-04-11T07:58:54Z</time></trkpt><trkpt lat="43.88292601567822" lon="12.283569162490275"><ele>319.0</ele><time>2026-04-11T07:58:55Z</time></trkpt><trkpt lat="43.88283942240438" lon="12.283649207780293"><ele>319.0</ele><time>2026-04-11T07:58:56Z</time></trkpt><trkpt lat="43.882748637951394" lon="12.28371152038002"><ele>319.0</ele><time>2026-04-11T07:58:57Z</time></trkpt><trkpt lat="43.88265615015055" lon="12.283767896238192"><ele>321.2</ele><time>2026-04-11T07:58:58Z</time></trkpt><trkpt lat="43.88255699563223" lon="12.283804822737414"><ele>323.4</ele><time>2026-04-11T07:58:59Z</time></trkpt><trkpt lat="43.88245329932882" lon="12.283831407547801"><ele>325.6</ele><time>2026-04-11T07:59:00Z</time></trkpt><trkpt lat="43.88234455461651" lon="12.283851150178347"><ele>327.8</ele><time>2026-04-11T07:59:01Z</time></trkpt><trkpt lat="43.88223222216473" lon="12.28385315553043"><ele>330.0</ele><time>2026-04-11T07:59:02Z</time></trkpt><trkpt lat="43.88211820981707" lon="12.283843014710369"><ele>330.0</ele><time>2026-04-11T07:59:03Z</time></trkpt><trkpt lat="43.88200038984807" lon="12.283824788176979"><ele>330.0</ele><time>2026-04-11T07:59:04Z</time></trkpt><trkpt lat="43.8818910104396" lon="12.28379121659556"><ele>330.0</ele><time>2026-04-11T07:59:05Z</time></trkpt><trkpt lat="43.88177621850823" lon="12.283739229228917"><ele>330.0</ele><time>2026-04-11T07:59:06Z</time></trkpt><trkpt lat="43.88166694149243" lon="12.283658494969952"><ele>329.25</ele><time>2026-04-11T07:59:07Z</time></trkpt><trkpt lat="43.88156631564268" lon="12.283545197411158"><ele>328.5</ele><time>2026-04-11T07:59:08Z</time></trkpt><trkpt lat="43.881480166316855" lon="12.283413279957468"><ele>327.75</ele><time>2026-04-11T07:59:09Z</time></trkpt><trkpt lat="43.88138703476142" lon="12.283281608841387"><ele>327.0</ele><time>2026-04-11T07:59:10Z</time></trkpt><trkpt lat="43.88129573381145" lon="12.283147079952126"><ele>329.5</ele><time>2026-04-11T07:59:11Z</time></trkpt><trkpt lat="43.88122014648361" lon="12.283013527655935"><ele>332.0</ele><time>2026-04-11T07:59:12Z</time></trkpt><trkpt lat="43.8811418841122" lon="12.282881118078365"><ele>334.5</ele><time>2026-04-11T07:59:13Z</time></trkpt><trkpt lat="43.88106475750123" lon="12.282752098080335"><ele>337.0</ele><time>2026-04-11T07:59:14Z</time></trkpt><trkpt lat="43.88098529174226" lon="12.282625213272043"><ele>337.5</ele><time>2026-04-11T07:59:15Z</time></trkpt><trkpt lat="43.88090230931648" lon="12.28249633060197"><ele>338.0</ele><time>2026-04-11T07:59:16Z</time></trkpt><trkpt lat="43.88082250606193" lon="12.282372829235166"><ele>338.5</ele><time>2026-04-11T07:59:17Z</time></trkpt><trkpt lat="43.88074662857156" lon="12.282249774943587"><ele>339.0</ele><time>2026-04-11T07:59:18Z</time></trkpt><trkpt lat="43.88067161993117" lon="12.282127407306623"><ele>339.0</ele><time>2026-04-11T07:59:19Z</time></trkpt><trkpt lat="43.88058623697408" lon="12.282012302097215"><ele>339.0</ele><time>2026-04-11T07:59:20Z</time></trkpt><trkpt lat="43.880494986068754" lon="12.281903863063663"><ele>339.0</ele><time>2026-04-11T07:59:20.999Z</time></trkpt><trkpt lat="43.88038923679501" lon="12.281810784631041"><ele>339.0</ele><time>2026-04-11T07:59:21.999Z</time></trkpt><trkpt lat="43.88027013975955" lon="12.281741403694403"><ele>339.0</ele><time>2026-04-11T07:59:22.999Z</time></trkpt><trkpt lat="43.88014075470798" lon="12.281672617251392"><ele>339.0</ele><time>2026-04-11T07:59:23.999Z</time></trkpt><trkpt lat="43.880007656383306" lon="12.281621373662109"><ele>339.0</ele><time>2026-04-11T07:59:24.999Z</time></trkpt><trkpt lat="43.87987867202465" lon="12.281565434869043"><ele>339.0</ele><time>2026-04-11T07:59:25.999Z</time></trkpt><trkpt lat="43.87975213300273" lon="12.281508259945143"><ele>340.0</ele><time>2026-04-11T07:59:26.999Z</time></trkpt><trkpt lat="43.879626919883364" lon="12.281455674659012"><ele>341.0</ele><time>2026-04-11T07:59:27.999Z</time></trkpt><trkpt lat="43.87950498337978" lon="12.281407904280321"><ele>342.0</ele><time>2026-04-11T07:59:28.999Z</time></trkpt><trkpt lat="43.87938545244627" lon="12.281358885790805"><ele>343.0</ele><time>2026-04-11T07:59:29.999Z</time></trkpt><trkpt lat="43.87926483764206" lon="12.281316103398634"><ele>340.5</ele><time>2026-04-11T07:59:30.999Z</time></trkpt><trkpt lat="43.87914612452131" lon="12.281266151620331"><ele>338.0</ele><time>2026-04-11T07:59:31.999Z</time></trkpt><trkpt lat="43.87902903287214" lon="12.281217503226149"><ele>335.5</ele><time>2026-04-11T07:59:32.999Z</time></trkpt><trkpt lat="43.87890987744633" lon="12.281172101681772"><ele>333.0</ele><time>2026-04-11T07:59:33.999Z</time></trkpt><trkpt lat="43.878791159677895" lon="12.281125923175036"><ele>333.0</ele><time>2026-04-11T07:59:34.999Z</time></trkpt><trkpt lat="43.87866880372331" lon="12.281072372452323"><ele>333.0</ele><time>2026-04-11T07:59:35.999Z</time></trkpt><trkpt lat="43.87855435105613" lon="12.28100550856453"><ele>333.0</ele><time>2026-04-11T07:59:36.999Z</time></trkpt><trkpt lat="43.878443119679176" lon="12.280927745208842"><ele>333.0</ele><time>2026-04-11T07:59:37.999Z</time></trkpt><trkpt lat="43.87833399816661" lon="12.28085035888675"><ele>334.5</ele><time>2026-04-11T07:59:38.999Z</time></trkpt><trkpt lat="43.878227804584164" lon="12.280771793400415"><ele>336.0</ele><time>2026-04-11T07:59:39.999Z</time></trkpt><trkpt lat="43.87812207752458" lon="12.280697812893303"><ele>337.5</ele><time>2026-04-11T07:59:40.999Z</time></trkpt><trkpt lat="43.87801863151019" lon="12.28062490452076"><ele>339.0</ele><time>2026-04-11T07:59:41.999Z</time></trkpt><trkpt lat="43.877913007200576" lon="12.280554401762604"><ele>339.0</ele><time>2026-04-11T07:59:42.999Z</time></trkpt><trkpt lat="43.87780703466563" lon="12.280478485991576"><ele>339.0</ele><time>2026-04-11T07:59:43.999Z</time></trkpt><trkpt lat="43.87769213787882" lon="12.280415994906393"><ele>339.0</ele><time>2026-04-11T07:59:44.999Z</time></trkpt><trkpt lat="43.87757185732793" lon="12.280374555420963"><ele>339.0</ele><time>2026-04-11T07:59:45.999Z</time></trkpt><trkpt lat="43.8774501278305" lon="12.280355612985618"><ele>333.75</ele><time>2026-04-11T07:59:46.999Z</time></trkpt><trkpt lat="43.87732715500923" lon="12.280363115397332"><ele>328.5</ele><time>2026-04-11T07:59:47.999Z</time></trkpt><trkpt lat="43.87721108400864" lon="12.280405364045498"><ele>323.25</ele><time>2026-04-11T07:59:48.999Z</time></trkpt><trkpt lat="43.87711002914322" lon="12.280475091844682"><ele>318.0</ele><time>2026-04-11T07:59:49.999Z</time></trkpt><trkpt lat="43.87702661839529" lon="12.280582658100982"><ele>315.0</ele><time>2026-04-11T07:59:50.999Z</time></trkpt><trkpt lat="43.87696500575785" lon="12.280718966630921"><ele>312.0</ele><time>2026-04-11T07:59:51.999Z</time></trkpt><trkpt lat="43.87694071237094" lon="12.280879110460814"><ele>309.0</ele><time>2026-04-11T07:59:52.999Z</time></trkpt><trkpt lat="43.87693102203698" lon="12.28103360656342"><ele>306.0</ele><time>2026-04-11T07:59:53.999Z</time></trkpt><trkpt lat="43.876923835304886" lon="12.281191577935617"><ele>306.0</ele><time>2026-04-11T07:59:54.999Z</time></trkpt><trkpt lat="43.87687808746092" lon="12.281346224156952"><ele>306.0</ele><time>2026-04-11T07:59:55.999Z</time></trkpt><trkpt lat="43.87680136138676" lon="12.281482301292824"><ele>306.0</ele><time>2026-04-11T07:59:56.999Z</time></trkpt><trkpt lat="43.8767098376439" lon="12.281595812241537"><ele>306.0</ele><time>2026-04-11T07:59:57.999Z</time></trkpt><trkpt lat="43.87661565782042" lon="12.281694390010339"><ele>305.25</ele><time>2026-04-11T07:59:58.999Z</time></trkpt><trkpt lat="43.87651951964828" lon="12.281795660153913"><ele>304.5</ele><time>2026-04-11T07:59:59.999Z</time></trkpt><trkpt lat="43.87642104344219" lon="12.281893774320563"><ele>303.75</ele><time>2026-04-11T08:00:00.999Z</time></trkpt><trkpt lat="43.87632587831607" lon="12.28200281450199"><ele>303.0</ele><time>2026-04-11T08:00:01.999Z</time></trkpt><trkpt lat="43.87624112959683" lon="12.282130094456027"><ele>302.75</ele><time>2026-04-11T08:00:02.999Z</time></trkpt><trkpt lat="43.87617279129833" lon="12.28228121262569"><ele>302.5</ele><time>2026-04-11T08:00:03.999Z</time></trkpt><trkpt lat="43.87611040396614" lon="12.282439114443463"><ele>302.25</ele><time>2026-04-11T08:00:04.999Z</time></trkpt><trkpt lat="43.87605336873859" lon="12.282597429485735"><ele>302.0</ele><time>2026-04-11T08:00:05.999Z</time></trkpt><trkpt lat="43.87600137250218" lon="12.28275085932656"><ele>302.0</ele><time>2026-04-11T08:00:06.999Z</time></trkpt><trkpt lat="43.87595058026556" lon="12.282891015759624"><ele>302.0</ele><time>2026-04-11T08:00:07.999Z</time></trkpt><trkpt lat="43.8758798530091" lon="12.28300440577435"><ele>302.0</ele><time>2026-04-11T08:00:08.999Z</time></trkpt><trkpt lat="43.87578933995859" lon="12.283071064679012"><ele>302.0</ele><time>2026-04-11T08:00:09.999Z</time></trkpt><trkpt lat="43.87568448269463" lon="12.283098648926597"><ele>302.0</ele><time>2026-04-11T08:00:10.999Z</time></trkpt><trkpt lat="43.87557682830025" lon="12.28307507096743"><ele>303.0</ele><time>2026-04-11T08:00:11.999Z</time></trkpt><trkpt lat="43.87548576466427" lon="12.282968146506265"><ele>304.0</ele><time>2026-04-11T08:00:12.999Z</time></trkpt><trkpt lat="43.87537493009459" lon="12.282868601218885"><ele>305.0</ele><time>2026-04-11T08:00:13.999Z</time></trkpt><trkpt lat="43.87529073249017" lon="12.282749943588197"><ele>306.0</ele><time>2026-04-11T08:00:14.999Z</time></trkpt><trkpt lat="43.87518915212666" lon="12.28265029623133"><ele>306.0</ele><time>2026-04-11T08:00:15.999Z</time></trkpt><trkpt lat="43.87510707899673" lon="12.28258685585492"><ele>306.0</ele><time>2026-04-11T08:00:16.999Z</time></trkpt><trkpt lat="43.874986176577515" lon="12.282532766199251"><ele>306.0</ele><time>2026-04-11T08:00:18Z</time></trkpt><trkpt lat="43.8748655095958" lon="12.282497616865731"><ele>306.0</ele><time>2026-04-11T08:00:19Z</time></trkpt><trkpt lat="43.87475388033191" lon="12.282435646103467"><ele>306.25</ele><time>2026-04-11T08:00:20Z</time></trkpt><trkpt lat="43.874573432567246" lon="12.282473655440862"><ele>306.5</ele><time>2026-04-11T08:00:21Z</time></trkpt><trkpt lat="43.87443695457908" lon="12.282497297948055"><ele>306.75</ele><time>2026-04-11T08:00:22Z</time></trkpt><trkpt lat="43.874309958695406" lon="12.282503908456032"><ele>307.0</ele><time>2026-04-11T08:00:23Z</time></trkpt><trkpt lat="43.87417300244751" lon="12.282521478552109"><ele>305.5</ele><time>2026-04-11T08:00:24Z</time></trkpt><trkpt lat="43.87404411245617" lon="12.282536332075885"><ele>304.0</ele><time>2026-04-11T08:00:25Z</time></trkpt><trkpt lat="43.87391491614678" lon="12.28254783135103"><ele>302.5</ele><time>2026-04-11T08:00:26Z</time></trkpt><trkpt lat="43.8737842439879" lon="12.282580481258009"><ele>301.0</ele><time>2026-04-11T08:00:27Z</time></trkpt><trkpt lat="43.87364830788784" lon="12.28265547823009"><ele>301.0</ele><time>2026-04-11T08:00:28Z</time></trkpt><trkpt lat="43.873524213063554" lon="12.282746358137109"><ele>301.0</ele><time>2026-04-11T08:00:29Z</time></trkpt><trkpt lat="43.87340522456303" lon="12.282838649086418"><ele>301.0</ele><time>2026-04-11T08:00:30Z</time></trkpt><trkpt lat="43.87328603175118" lon="12.282932329133969"><ele>301.0</ele><time>2026-04-11T08:00:31Z</time></trkpt><trkpt lat="43.87316543933243" lon="12.283019990694742"><ele>298.25</ele><time>2026-04-11T08:00:32Z</time></trkpt><trkpt lat="43.87304189819898" lon="12.283098038739338"><ele>295.5</ele><time>2026-04-11T08:00:33Z</time></trkpt><trkpt lat="43.87291572135482" lon="12.283167669689972"><ele>292.75</ele><time>2026-04-11T08:00:34Z</time></trkpt><trkpt lat="43.87278612190233" lon="12.283235607828434"><ele>290.0</ele><time>2026-04-11T08:00:35Z</time></trkpt><trkpt lat="43.87265862516867" lon="12.283299716922391"><ele>290.0</ele><time>2026-04-11T08:00:36Z</time></trkpt><trkpt lat="43.872531016184226" lon="12.28335347444623"><ele>290.0</ele><time>2026-04-11T08:00:37Z</time></trkpt><trkpt lat="43.8724049611866" lon="12.283407320980192"><ele>290.0</ele><time>2026-04-11T08:00:38Z</time></trkpt><trkpt lat="43.87228477013992" lon="12.283456884990759"><ele>290.0</ele><time>2026-04-11T08:00:39Z</time></trkpt><trkpt lat="43.872169169696456" lon="12.283506216572592"><ele>290.0</ele><time>2026-04-11T08:00:40Z</time></trkpt><trkpt lat="43.87204912763676" lon="12.283550916434598"><ele>290.0</ele><time>2026-04-11T08:00:41Z</time></trkpt><trkpt lat="43.87193198810913" lon="12.283592521187343"><ele>290.0</ele><time>2026-04-11T08:00:42Z</time></trkpt><trkpt lat="43.87181713468049" lon="12.283638444757479"><ele>290.0</ele><time>2026-04-11T08:00:43Z</time></trkpt><trkpt lat="43.87170432084997" lon="12.28368337227255"><ele>291.0</ele><time>2026-04-11T08:00:44Z</time></trkpt><trkpt lat="43.871583422535814" lon="12.2837224758184"><ele>292.0</ele><time>2026-04-11T08:00:45Z</time></trkpt><trkpt lat="43.87145991655004" lon="12.283754710108932"><ele>293.0</ele><time>2026-04-11T08:00:46Z</time></trkpt><trkpt lat="43.8713324942333" lon="12.283788058262212"><ele>294.0</ele><time>2026-04-11T08:00:47Z</time></trkpt><trkpt lat="43.8712030170948" lon="12.283823581626114"><ele>294.0</ele><time>2026-04-11T08:00:48Z</time></trkpt><trkpt lat="43.87106925397687" lon="12.283863503567625"><ele>294.0</ele><time>2026-04-11T08:00:49Z</time></trkpt><trkpt lat="43.8709357661535" lon="12.28390020144845"><ele>294.0</ele><time>2026-04-11T08:00:50Z</time></trkpt><trkpt lat="43.87080353524497" lon="12.283938143656643"><ele>294.0</ele><time>2026-04-11T08:00:51Z</time></trkpt><trkpt lat="43.87067238666931" lon="12.283967799038631"><ele>291.5</ele><time>2026-04-11T08:00:52Z</time></trkpt><trkpt lat="43.87054086982019" lon="12.28399445948819"><ele>289.0</ele><time>2026-04-11T08:00:53Z</time></trkpt><trkpt lat="43.870410916899324" lon="12.284014923160479"><ele>286.5</ele><time>2026-04-11T08:00:54Z</time></trkpt><trkpt lat="43.87028068741853" lon="12.28402759090166"><ele>284.0</ele><time>2026-04-11T08:00:55Z</time></trkpt><trkpt lat="43.87014953480047" lon="12.284039454603215"><ele>284.75</ele><time>2026-04-11T08:00:56Z</time></trkpt><trkpt lat="43.8700176938212" lon="12.284048243606593"><ele>285.5</ele><time>2026-04-11T08:00:57Z</time></trkpt><trkpt lat="43.86988365200709" lon="12.284052532863493"><ele>286.25</ele><time>2026-04-11T08:00:58Z</time></trkpt><trkpt lat="43.86975471736026" lon="12.284054414438671"><ele>287.0</ele><time>2026-04-11T08:00:59Z</time></trkpt><trkpt lat="43.869628087650185" lon="12.28405744247372"><ele>287.0</ele><time>2026-04-11T08:01:00Z</time></trkpt><trkpt lat="43.869502558820315" lon="12.28406387770946"><ele>287.0</ele><time>2026-04-11T08:01:01Z</time></trkpt><trkpt lat="43.86938080796989" lon="12.284073991643105"><ele>287.0</ele><time>2026-04-11T08:01:02Z</time></trkpt><trkpt lat="43.869257792005236" lon="12.284087036914364"><ele>287.0</ele><time>2026-04-11T08:01:03Z</time></trkpt><trkpt lat="43.869133031170236" lon="12.28411318080499"><ele>286.75</ele><time>2026-04-11T08:01:04Z</time></trkpt><trkpt lat="43.86900783313151" lon="12.284156347676399"><ele>286.5</ele><time>2026-04-11T08:01:05Z</time></trkpt><trkpt lat="43.86888518531416" lon="12.284222055415569"><ele>286.25</ele><time>2026-04-11T08:01:06Z</time></trkpt><trkpt lat="43.868765594957246" lon="12.284293292861754"><ele>286.0</ele><time>2026-04-11T08:01:07Z</time></trkpt><trkpt lat="43.86864985596968" lon="12.284368497731586"><ele>286.0</ele><time>2026-04-11T08:01:08Z</time></trkpt><trkpt lat="43.86853617859247" lon="12.284446337047347"><ele>286.0</ele><time>2026-04-11T08:01:09Z</time></trkpt><trkpt lat="43.868430939768956" lon="12.284522132249231"><ele>286.0</ele><time>2026-04-11T08:01:10Z</time></trkpt><trkpt lat="43.86832235106777" lon="12.28459800457968"><ele>286.0</ele><time>2026-04-11T08:01:11Z</time></trkpt><trkpt lat="43.868218766115696" lon="12.284667473506174"><ele>284.6</ele><time>2026-04-11T08:01:12Z</time></trkpt><trkpt lat="43.86811773402634" lon="12.284735840909333"><ele>283.20000000000005</ele><time>2026-04-11T08:01:13Z</time></trkpt><trkpt lat="43.868019719808345" lon="12.284800594136437"><ele>281.79999999999995</ele><time>2026-04-11T08:01:14Z</time></trkpt><trkpt lat="43.86792249888153" lon="12.284862546413617"><ele>280.4</ele><time>2026-04-11T08:01:15Z</time></trkpt><trkpt lat="43.86782165185783" lon="12.28492668805729"><ele>279.0</ele><time>2026-04-11T08:01:16Z</time></trkpt><trkpt lat="43.86772216645736" lon="12.284990684926129"><ele>278.59999999999997</ele><time>2026-04-11T08:01:17Z</time></trkpt><trkpt lat="43.86762637679182" lon="12.285050831237"><ele>278.2</ele><time>2026-04-11T08:01:18Z</time></trkpt><trkpt lat="43.867529224227425" lon="12.285109185842959"><ele>277.79999999999995</ele><time>2026-04-11T08:01:19Z</time></trkpt><trkpt lat="43.867425627292626" lon="12.285153117781427"><ele>277.4</ele><time>2026-04-11T08:01:20Z</time></trkpt><trkpt lat="43.86731367737506" lon="12.285156482425995"><ele>277.0</ele><time>2026-04-11T08:01:21Z</time></trkpt><trkpt lat="43.8672009822408" lon="12.285104247112312"><ele>277.75</ele><time>2026-04-11T08:01:22Z</time></trkpt><trkpt lat="43.8670966272342" lon="12.285014313510333"><ele>278.5</ele><time>2026-04-11T08:01:23Z</time></trkpt><trkpt lat="43.8670030583293" lon="12.284907229550381"><ele>279.25</ele><time>2026-04-11T08:01:24Z</time></trkpt><trkpt lat="43.86692824114709" lon="12.28477106928228"><ele>280.0</ele><time>2026-04-11T08:01:25Z</time></trkpt><trkpt lat="43.8668543212765" lon="12.284646536152836"><ele>280.0</ele><time>2026-04-11T08:01:26Z</time></trkpt><trkpt lat="43.86677968032806" lon="12.284524014954435"><ele>280.0</ele><time>2026-04-11T08:01:27Z</time></trkpt><trkpt lat="43.86670840395015" lon="12.284403983234268"><ele>280.0</ele><time>2026-04-11T08:01:28Z</time></trkpt><trkpt lat="43.86663756517339" lon="12.284289376886127"><ele>280.0</ele><time>2026-04-11T08:01:29Z</time></trkpt><trkpt lat="43.86656717693758" lon="12.28417504520006"><ele>280.0</ele><time>2026-04-11T08:01:30Z</time></trkpt><trkpt lat="43.866498397646765" lon="12.28406322497404"><ele>280.6</ele><time>2026-04-11T08:01:31Z</time></trkpt><trkpt lat="43.86642780087965" lon="12.283954845175165"><ele>281.2</ele><time>2026-04-11T08:01:32Z</time></trkpt><trkpt lat="43.86635955095381" lon="12.28384322485364"><ele>281.8</ele><time>2026-04-11T08:01:32.999Z</time></trkpt><trkpt lat="43.8662864803169" lon="12.283734110199074"><ele>282.4</ele><time>2026-04-11T08:01:33.999Z</time></trkpt><trkpt lat="43.866206254670836" lon="12.283635187378291"><ele>283.0</ele><time>2026-04-11T08:01:34.999Z</time></trkpt><trkpt lat="43.86611116676742" lon="12.283561219770858"><ele>283.0</ele><time>2026-04-11T08:01:35.999Z</time></trkpt><trkpt lat="43.866012059006266" lon="12.283515555391416"><ele>283.0</ele><time>2026-04-11T08:01:36.999Z</time></trkpt><trkpt lat="43.86591108735396" lon="12.283498675331534"><ele>283.0</ele><time>2026-04-11T08:01:37.999Z</time></trkpt><trkpt lat="43.86581709933169" lon="12.283511036884903"><ele>283.0</ele><time>2026-04-11T08:01:38.999Z</time></trkpt><trkpt lat="43.865713031677856" lon="12.28353538488242"><ele>283.0</ele><time>2026-04-11T08:01:39.999Z</time></trkpt><trkpt lat="43.865609344308524" lon="12.283576581057199"><ele>284.75</ele><time>2026-04-11T08:01:40.999Z</time></trkpt><trkpt lat="43.865504946698536" lon="12.28362961437788"><ele>286.5</ele><time>2026-04-11T08:01:41.999Z</time></trkpt><trkpt lat="43.865398880662084" lon="12.283678778292211"><ele>288.25</ele><time>2026-04-11T08:01:42.999Z</time></trkpt><trkpt lat="43.86528615593046" lon="12.283717635607147"><ele>290.0</ele><time>2026-04-11T08:01:43.999Z</time></trkpt><trkpt lat="43.86516937501936" lon="12.283729786283601"><ele>292.25</ele><time>2026-04-11T08:01:44.999Z</time></trkpt><trkpt lat="43.865054055848255" lon="12.283703958277568"><ele>294.5</ele><time>2026-04-11T08:01:45.999Z</time></trkpt><trkpt lat="43.8649385533777" lon="12.283642679341204"><ele>296.75</ele><time>2026-04-11T08:01:46.999Z</time></trkpt><trkpt lat="43.864848670939935" lon="12.283545744361907"><ele>299.0</ele><time>2026-04-11T08:01:47.999Z</time></trkpt><trkpt lat="43.86475631496337" lon="12.283462935888654"><ele>299.0</ele><time>2026-04-11T08:01:48.999Z</time></trkpt><trkpt lat="43.86465398747722" lon="12.2833862597647"><ele>299.0</ele><time>2026-04-11T08:01:49.999Z</time></trkpt><trkpt lat="43.86454283451625" lon="12.283352504678186"><ele>299.0</ele><time>2026-04-11T08:01:50.999Z</time></trkpt><trkpt lat="43.86443072356337" lon="12.283329648131783"><ele>299.0</ele><time>2026-04-11T08:01:51.999Z</time></trkpt><trkpt lat="43.864328500657614" lon="12.283354805795899"><ele>299.0</ele><time>2026-04-11T08:01:52.999Z</time></trkpt><trkpt lat="43.86422368923554" lon="12.283414559852373"><ele>301.0</ele><time>2026-04-11T08:01:53.999Z</time></trkpt><trkpt lat="43.86414499344033" lon="12.283513002764947"><ele>303.0</ele><time>2026-04-11T08:01:54.999Z</time></trkpt><trkpt lat="43.864065252497376" lon="12.283608651919526"><ele>305.0</ele><time>2026-04-11T08:01:55.999Z</time></trkpt><trkpt lat="43.8639820769345" lon="12.283691334858938"><ele>307.0</ele><time>2026-04-11T08:01:56.999Z</time></trkpt><trkpt lat="43.8638900179882" lon="12.283757117651506"><ele>309.0</ele><time>2026-04-11T08:01:57.999Z</time></trkpt><trkpt lat="43.86378519180739" lon="12.283768215192943"><ele>309.0</ele><time>2026-04-11T08:01:58.999Z</time></trkpt><trkpt lat="43.86367866263547" lon="12.283734700384231"><ele>309.0</ele><time>2026-04-11T08:01:59.999Z</time></trkpt><trkpt lat="43.86358984064099" lon="12.283657749781842"><ele>309.0</ele><time>2026-04-11T08:02:00.999Z</time></trkpt><trkpt lat="43.863509735676615" lon="12.283561301494762"><ele>309.0</ele><time>2026-04-11T08:02:01.999Z</time></trkpt><trkpt lat="43.863433806832816" lon="12.283458158519235"><ele>309.0</ele><time>2026-04-11T08:02:02.999Z</time></trkpt><trkpt lat="43.86335151845401" lon="12.283362486614767"><ele>310.2</ele><time>2026-04-11T08:02:03.999Z</time></trkpt><trkpt lat="43.86327924803774" lon="12.283271799667638"><ele>311.4</ele><time>2026-04-11T08:02:04.999Z</time></trkpt><trkpt lat="43.86320376207473" lon="12.283191225788041"><ele>312.6</ele><time>2026-04-11T08:02:05.999Z</time></trkpt><trkpt lat="43.86312099444703" lon="12.28313927311448"><ele>313.8</ele><time>2026-04-11T08:02:06.999Z</time></trkpt><trkpt lat="43.863025988486385" lon="12.283108215317215"><ele>315.0</ele><time>2026-04-11T08:02:07.999Z</time></trkpt><trkpt lat="43.862922859586725" lon="12.283105120758158"><ele>315.0</ele><time>2026-04-11T08:02:08.999Z</time></trkpt><trkpt lat="43.86281491735822" lon="12.283114463790136"><ele>315.0</ele><time>2026-04-11T08:02:09.999Z</time></trkpt><trkpt lat="43.86270777478189" lon="12.283132132769044"><ele>315.0</ele><time>2026-04-11T08:02:10.999Z</time></trkpt><trkpt lat="43.86261533385686" lon="12.283155902408096"><ele>315.0</ele><time>2026-04-11T08:02:11.999Z</time></trkpt><trkpt lat="43.862522415122214" lon="12.283189573416488"><ele>315.0</ele><time>2026-04-11T08:02:12.999Z</time></trkpt><trkpt lat="43.86243329431535" lon="12.283266905096554"><ele>315.25</ele><time>2026-04-11T08:02:13.999Z</time></trkpt><trkpt lat="43.862344802698516" lon="12.283376842501172"><ele>315.5</ele><time>2026-04-11T08:02:14.999Z</time></trkpt><trkpt lat="43.862250135826905" lon="12.283457135744712"><ele>315.75</ele><time>2026-04-11T08:02:15.999Z</time></trkpt><trkpt lat="43.86215118336331" lon="12.283527244860396"><ele>316.0</ele><time>2026-04-11T08:02:16.999Z</time></trkpt><trkpt lat="43.86204134851923" lon="12.283580809077312"><ele>316.0</ele><time>2026-04-11T08:02:17.999Z</time></trkpt><trkpt lat="43.86191905466501" lon="12.28361562688811"><ele>316.0</ele><time>2026-04-11T08:02:18.999Z</time></trkpt><trkpt lat="43.86180551327144" lon="12.283639016467607"><ele>316.0</ele><time>2026-04-11T08:02:19.999Z</time></trkpt><trkpt lat="43.86168182802213" lon="12.283624256576326"><ele>316.0</ele><time>2026-04-11T08:02:20.999Z</time></trkpt><trkpt lat="43.8615628889383" lon="12.283556640857483"><ele>315.25</ele><time>2026-04-11T08:02:21.999Z</time></trkpt><trkpt lat="43.86144416466007" lon="12.283469574840641"><ele>314.5</ele><time>2026-04-11T08:02:23Z</time></trkpt><trkpt lat="43.86133714607248" lon="12.283361720320356"><ele>313.75</ele><time>2026-04-11T08:02:24Z</time></trkpt><trkpt lat="43.86123436085617" lon="12.283248450447019"><ele>313.0</ele><time>2026-04-11T08:02:25Z</time></trkpt><trkpt lat="43.86113878104458" lon="12.283137626559517"><ele>312.25</ele><time>2026-04-11T08:02:26Z</time></trkpt><trkpt lat="43.861046276616975" lon="12.283031055287815"><ele>311.5</ele><time>2026-04-11T08:02:27Z</time></trkpt><trkpt lat="43.86095464367279" lon="12.28293151365093"><ele>310.75</ele><time>2026-04-11T08:02:28Z</time></trkpt><trkpt lat="43.86086076865021" lon="12.282834008306933"><ele>310.0</ele><time>2026-04-11T08:02:29Z</time></trkpt><trkpt lat="43.8607553147461" lon="12.282744964723296"><ele>310.0</ele><time>2026-04-11T08:02:30Z</time></trkpt><trkpt lat="43.86064752043521" lon="12.282658353141759"><ele>310.0</ele><time>2026-04-11T08:02:31Z</time></trkpt><trkpt lat="43.86053751051231" lon="12.282571070958573"><ele>310.0</ele><time>2026-04-11T08:02:32Z</time></trkpt><trkpt lat="43.8604188189569" lon="12.282484015835204"><ele>310.0</ele><time>2026-04-11T08:02:33Z</time></trkpt><trkpt lat="43.86030525775883" lon="12.282403931412645"><ele>310.0</ele><time>2026-04-11T08:02:34Z</time></trkpt><trkpt lat="43.86019273093151" lon="12.282327206400078"><ele>310.0</ele><time>2026-04-11T08:02:35Z</time></trkpt><trkpt lat="43.86008226006784" lon="12.282247742416281"><ele>310.0</ele><time>2026-04-11T08:02:36Z</time></trkpt><trkpt lat="43.85997615083036" lon="12.28216251130604"><ele>310.0</ele><time>2026-04-11T08:02:37Z</time></trkpt><trkpt lat="43.85987250012176" lon="12.282067862780762"><ele>310.75</ele><time>2026-04-11T08:02:38Z</time></trkpt><trkpt lat="43.859775081734675" lon="12.281959734939871"><ele>311.5</ele><time>2026-04-11T08:02:39Z</time></trkpt><trkpt lat="43.85968183629418" lon="12.281837174948423"><ele>312.25</ele><time>2026-04-11T08:02:40Z</time></trkpt><trkpt lat="43.85958859034407" lon="12.281704309792783"><ele>313.0</ele><time>2026-04-11T08:02:41Z</time></trkpt><trkpt lat="43.85949846802499" lon="12.281563189051374"><ele>315.25</ele><time>2026-04-11T08:02:42Z</time></trkpt><trkpt lat="43.85941320512821" lon="12.281414459786992"><ele>317.5</ele><time>2026-04-11T08:02:43Z</time></trkpt><trkpt lat="43.85933619177515" lon="12.281259936875978"><ele>319.75</ele><time>2026-04-11T08:02:44Z</time></trkpt><trkpt lat="43.85926731662166" lon="12.281113711282892"><ele>322.0</ele><time>2026-04-11T08:02:45Z</time></trkpt><trkpt lat="43.85920326856761" lon="12.280971536046902"><ele>322.0</ele><time>2026-04-11T08:02:46Z</time></trkpt><trkpt lat="43.859140216155616" lon="12.280832096327225"><ele>322.0</ele><time>2026-04-11T08:02:47Z</time></trkpt><trkpt lat="43.85907229293239" lon="12.280689342176428"><ele>322.0</ele><time>2026-04-11T08:02:48Z</time></trkpt><trkpt lat="43.859003179940515" lon="12.280550727996888"><ele>322.0</ele><time>2026-04-11T08:02:49Z</time></trkpt><trkpt lat="43.858933669983095" lon="12.280415748552008"><ele>319.75</ele><time>2026-04-11T08:02:50Z</time></trkpt><trkpt lat="43.85885900482949" lon="12.280285984152899"><ele>317.5</ele><time>2026-04-11T08:02:51Z</time></trkpt><trkpt lat="43.858768331722295" lon="12.2801648664475"><ele>315.25</ele><time>2026-04-11T08:02:52Z</time></trkpt><trkpt lat="43.85866769038975" lon="12.280062099431623"><ele>313.0</ele><time>2026-04-11T08:02:53Z</time></trkpt><trkpt lat="43.85855794249179" lon="12.27998207776389"><ele>315.0</ele><time>2026-04-11T08:02:54Z</time></trkpt><trkpt lat="43.858438840466384" lon="12.27992181457306"><ele>317.0</ele><time>2026-04-11T08:02:55Z</time></trkpt><trkpt lat="43.85830683601577" lon="12.27988667175681"><ele>319.0</ele><time>2026-04-11T08:02:56Z</time></trkpt><trkpt lat="43.858169981564195" lon="12.279883531728686"><ele>321.0</ele><time>2026-04-11T08:02:57Z</time></trkpt><trkpt lat="43.85803884839555" lon="12.279903201415436"><ele>321.0</ele><time>2026-04-11T08:02:58Z</time></trkpt><trkpt lat="43.85791368037839" lon="12.279938260187421"><ele>321.0</ele><time>2026-04-11T08:02:59Z</time></trkpt><trkpt lat="43.85779403054176" lon="12.279983084906277"><ele>321.0</ele><time>2026-04-11T08:03:00Z</time></trkpt><trkpt lat="43.85767555160792" lon="12.280037809006037"><ele>321.0</ele><time>2026-04-11T08:03:01Z</time></trkpt><trkpt lat="43.85755667738909" lon="12.280096674343417"><ele>320.25</ele><time>2026-04-11T08:03:02Z</time></trkpt><trkpt lat="43.857443396724825" lon="12.280158138829352"><ele>319.5</ele><time>2026-04-11T08:03:03Z</time></trkpt><trkpt lat="43.8573277980488" lon="12.28021961672449"><ele>318.75</ele><time>2026-04-11T08:03:04Z</time></trkpt><trkpt lat="43.857215737214474" lon="12.280275110256646"><ele>318.0</ele><time>2026-04-11T08:03:05Z</time></trkpt><trkpt lat="43.857108615849654" lon="12.280324997087687"><ele>318.0</ele><time>2026-04-11T08:03:06Z</time></trkpt><trkpt lat="43.85700335394818" lon="12.280370091232022"><ele>318.0</ele><time>2026-04-11T08:03:07Z</time></trkpt><trkpt lat="43.85689956490437" lon="12.280416273856813"><ele>318.0</ele><time>2026-04-11T08:03:08Z</time></trkpt><trkpt lat="43.85679626427387" lon="12.280457379714154"><ele>318.0</ele><time>2026-04-11T08:03:09Z</time></trkpt><trkpt lat="43.85669013357292" lon="12.280496058323186"><ele>318.0</ele><time>2026-04-11T08:03:10Z</time></trkpt><trkpt lat="43.856580516973224" lon="12.280536673889932"><ele>317.75</ele><time>2026-04-11T08:03:11Z</time></trkpt><trkpt lat="43.8564700923074" lon="12.2805786534204"><ele>317.5</ele><time>2026-04-11T08:03:12Z</time></trkpt><trkpt lat="43.85636109676305" lon="12.280628579787788"><ele>317.25</ele><time>2026-04-11T08:03:13Z</time></trkpt><trkpt lat="43.85625962835458" lon="12.280699236365217"><ele>317.0</ele><time>2026-04-11T08:03:14Z</time></trkpt><trkpt lat="43.856172632037115" lon="12.280797005582734"><ele>319.8</ele><time>2026-04-11T08:03:15Z</time></trkpt><trkpt lat="43.85610870838003" lon="12.280926951185046"><ele>322.6</ele><time>2026-04-11T08:03:16Z</time></trkpt><trkpt lat="43.85606574300407" lon="12.281069645698102"><ele>325.40000000000003</ele><time>2026-04-11T08:03:17Z</time></trkpt><trkpt lat="43.8560331357693" lon="12.281213148171632"><ele>328.2</ele><time>2026-04-11T08:03:18Z</time></trkpt><trkpt lat="43.856002054371814" lon="12.28135499952985"><ele>331.0</ele><time>2026-04-11T08:03:19Z</time></trkpt><trkpt lat="43.85596981637261" lon="12.281494258293673"><ele>331.0</ele><time>2026-04-11T08:03:20Z</time></trkpt><trkpt lat="43.85592738953335" lon="12.281629066417501"><ele>331.0</ele><time>2026-04-11T08:03:21Z</time></trkpt><trkpt lat="43.85586926041683" lon="12.281749759473369"><ele>331.0</ele><time>2026-04-11T08:03:22Z</time></trkpt><trkpt lat="43.8557834858397" lon="12.281840972369263"><ele>331.0</ele><time>2026-04-11T08:03:23Z</time></trkpt><trkpt lat="43.85568570998751" lon="12.28190736576625"><ele>331.0</ele><time>2026-04-11T08:03:24Z</time></trkpt><trkpt lat="43.8555728235216" lon="12.28195188489901"><ele>331.0</ele><time>2026-04-11T08:03:25Z</time></trkpt><trkpt lat="43.85545423115419" lon="12.281980838378926"><ele>331.0</ele><time>2026-04-11T08:03:26Z</time></trkpt><trkpt lat="43.855342153891954" lon="12.281998587438007"><ele>331.0</ele><time>2026-04-11T08:03:27Z</time></trkpt><trkpt lat="43.85522956576992" lon="12.282015894913705"><ele>331.0</ele><time>2026-04-11T08:03:28Z</time></trkpt><trkpt lat="43.85511514080348" lon="12.282034426935812"><ele>328.25</ele><time>2026-04-11T08:03:29Z</time></trkpt><trkpt lat="43.85499785760824" lon="12.282063669553711"><ele>325.5</ele><time>2026-04-11T08:03:30Z</time></trkpt><trkpt lat="43.8548770338762" lon="12.282103530939727"><ele>322.75</ele><time>2026-04-11T08:03:31Z</time></trkpt><trkpt lat="43.854759362191736" lon="12.282147986914644"><ele>320.0</ele><time>2026-04-11T08:03:32Z</time></trkpt><trkpt lat="43.854646700064706" lon="12.282204563740612"><ele>320.4</ele><time>2026-04-11T08:03:33Z</time></trkpt><trkpt lat="43.85454180657015" lon="12.282265901856352"><ele>320.8</ele><time>2026-04-11T08:03:34Z</time></trkpt><trkpt lat="43.85443927780112" lon="12.282305609590118"><ele>321.20000000000005</ele><time>2026-04-11T08:03:35Z</time></trkpt><trkpt lat="43.85433557097709" lon="12.282325157924753"><ele>321.6</ele><time>2026-04-11T08:03:36Z</time></trkpt><trkpt lat="43.85423198918312" lon="12.282295831258448"><ele>322.0</ele><time>2026-04-11T08:03:37Z</time></trkpt><trkpt lat="43.85413305917649" lon="12.282208933531372"><ele>322.0</ele><time>2026-04-11T08:03:38Z</time></trkpt><trkpt lat="43.85405162364924" lon="12.282084298084643"><ele>322.0</ele><time>2026-04-11T08:03:39Z</time></trkpt><trkpt lat="43.853974119804015" lon="12.281968265244277"><ele>322.0</ele><time>2026-04-11T08:03:40Z</time></trkpt><trkpt lat="43.853909254741495" lon="12.281846837177097"><ele>322.0</ele><time>2026-04-11T08:03:41Z</time></trkpt><trkpt lat="43.85385675347192" lon="12.281719654174001"><ele>322.0</ele><time>2026-04-11T08:03:41.999Z</time></trkpt><trkpt lat="43.853835835290894" lon="12.281558396663137"><ele>322.0</ele><time>2026-04-11T08:03:42.999Z</time></trkpt><trkpt lat="43.85387943497933" lon="12.281387053136127"><ele>322.0</ele><time>2026-04-11T08:03:43.999Z</time></trkpt><trkpt lat="43.85388670139775" lon="12.281208044926489"><ele>322.0</ele><time>2026-04-11T08:03:44.999Z</time></trkpt><trkpt lat="43.85391505196147" lon="12.281035669308412"><ele>321.75</ele><time>2026-04-11T08:03:45.999Z</time></trkpt><trkpt lat="43.853935249492785" lon="12.280872415581674"><ele>321.5</ele><time>2026-04-11T08:03:46.999Z</time></trkpt><trkpt lat="43.8539597220679" lon="12.280707683928588"><ele>321.25</ele><time>2026-04-11T08:03:47.999Z</time></trkpt><trkpt lat="43.85399120653097" lon="12.280552141265257"><ele>321.0</ele><time>2026-04-11T08:03:48.999Z</time></trkpt><trkpt lat="43.85402702874497" lon="12.280398622208933"><ele>320.2</ele><time>2026-04-11T08:03:49.999Z</time></trkpt><trkpt lat="43.85407933914078" lon="12.280258774682075"><ele>319.40000000000003</ele><time>2026-04-11T08:03:50.999Z</time></trkpt><trkpt lat="43.85416816669422" lon="12.28016026946182"><ele>318.6</ele><time>2026-04-11T08:03:51.999Z</time></trkpt><trkpt lat="43.85425100310523" lon="12.28006073514913"><ele>317.8</ele><time>2026-04-11T08:03:52.999Z</time></trkpt><trkpt lat="43.85433193086218" lon="12.279967628992503"><ele>317.0</ele><time>2026-04-11T08:03:53.999Z</time></trkpt><trkpt lat="43.854399645025545" lon="12.279861131227129"><ele>317.0</ele><time>2026-04-11T08:03:54.999Z</time></trkpt><trkpt lat="43.85447631790146" lon="12.279776961794294"><ele>317.0</ele><time>2026-04-11T08:03:55.999Z</time></trkpt><trkpt lat="43.854554801869185" lon="12.2796959484476"><ele>317.0</ele><time>2026-04-11T08:03:56.999Z</time></trkpt><trkpt lat="43.85462520279876" lon="12.279622740912815"><ele>317.0</ele><time>2026-04-11T08:03:57.999Z</time></trkpt><trkpt lat="43.8546940054079" lon="12.279555734137404"><ele>317.0</ele><time>2026-04-11T08:03:58.999Z</time></trkpt><trkpt lat="43.85475583456933" lon="12.27949478809935"><ele>317.0</ele><time>2026-04-11T08:03:59.999Z</time></trkpt><trkpt lat="43.85480309270222" lon="12.279422804597862"><ele>318.0</ele><time>2026-04-11T08:04:00.999Z</time></trkpt><trkpt lat="43.85481370044619" lon="12.279324286081206"><ele>319.0</ele><time>2026-04-11T08:04:01.999Z</time></trkpt><trkpt lat="43.85479778616565" lon="12.279223053620456"><ele>320.0</ele><time>2026-04-11T08:04:02.999Z</time></trkpt><trkpt lat="43.854754693731145" lon="12.279119770367613"><ele>321.0</ele><time>2026-04-11T08:04:03.999Z</time></trkpt><trkpt lat="43.85470674669883" lon="12.279017158648145"><ele>322.0</ele><time>2026-04-11T08:04:04.999Z</time></trkpt><trkpt lat="43.85463718777706" lon="12.278915769873134"><ele>323.0</ele><time>2026-04-11T08:04:05.999Z</time></trkpt><trkpt lat="43.854627569544135" lon="12.278747604002223"><ele>323.0</ele><time>2026-04-11T08:04:06.999Z</time></trkpt><trkpt lat="43.85459970891345" lon="12.278598545457255"><ele>323.0</ele><time>2026-04-11T08:04:07.999Z</time></trkpt><trkpt lat="43.85457762143022" lon="12.278459816201632"><ele>323.0</ele><time>2026-04-11T08:04:08.999Z</time></trkpt><trkpt lat="43.85454451002113" lon="12.278323503901698"><ele>323.0</ele><time>2026-04-11T08:04:09.999Z</time></trkpt><trkpt lat="43.854497460016084" lon="12.27819331448787"><ele>323.0</ele><time>2026-04-11T08:04:10.999Z</time></trkpt><trkpt lat="43.85443597510133" lon="12.27806973209092"><ele>323.75</ele><time>2026-04-11T08:04:11.999Z</time></trkpt><trkpt lat="43.85436070157112" lon="12.277963963765275"><ele>324.5</ele><time>2026-04-11T08:04:12.999Z</time></trkpt><trkpt lat="43.85427080021873" lon="12.2778699943264"><ele>325.25</ele><time>2026-04-11T08:04:13.999Z</time></trkpt><trkpt lat="43.85416860563888" lon="12.277782553363995"><ele>326.0</ele><time>2026-04-11T08:04:14.999Z</time></trkpt><trkpt lat="43.854063495694774" lon="12.277694199700697"><ele>326.0</ele><time>2026-04-11T08:04:15.999Z</time></trkpt><trkpt lat="43.85395396531102" lon="12.27760730673454"><ele>326.0</ele><time>2026-04-11T08:04:16.999Z</time></trkpt><trkpt lat="43.85384410341445" lon="12.277513342594911"><ele>326.0</ele><time>2026-04-11T08:04:17.999Z</time></trkpt><trkpt lat="43.85373158537311" lon="12.277417548963147"><ele>326.0</ele><time>2026-04-11T08:04:18.999Z</time></trkpt><trkpt lat="43.85361597820121" lon="12.277317982564954"><ele>326.5</ele><time>2026-04-11T08:04:19.999Z</time></trkpt><trkpt lat="43.853500728074046" lon="12.277216209394478"><ele>327.0</ele><time>2026-04-11T08:04:20.999Z</time></trkpt><trkpt lat="43.85338922516562" lon="12.277117877139691"><ele>327.5</ele><time>2026-04-11T08:04:21.999Z</time></trkpt><trkpt lat="43.85328195640845" lon="12.27702546174115"><ele>328.0</ele><time>2026-04-11T08:04:22.999Z</time></trkpt><trkpt lat="43.85317952339236" lon="12.276935069067646"><ele>328.0</ele><time>2026-04-11T08:04:23.999Z</time></trkpt><trkpt lat="43.85308210930452" lon="12.276851274506143"><ele>328.0</ele><time>2026-04-11T08:04:24.999Z</time></trkpt><trkpt lat="43.8529842139205" lon="12.276766885521093"><ele>328.0</ele><time>2026-04-11T08:04:25.999Z</time></trkpt><trkpt lat="43.852885476354274" lon="12.276680122134488"><ele>328.0</ele><time>2026-04-11T08:04:26.999Z</time></trkpt><trkpt lat="43.8527843917629" lon="12.27659184998916"><ele>328.0</ele><time>2026-04-11T08:04:27.999Z</time></trkpt><trkpt lat="43.85268355739727" lon="12.276503735343013"><ele>328.0</ele><time>2026-04-11T08:04:29Z</time></trkpt><trkpt lat="43.8525811341471" lon="12.276413953431424"><ele>328.0</ele><time>2026-04-11T08:04:30Z</time></trkpt><trkpt lat="43.852479902084" lon="12.276324439090176"><ele>328.0</ele><time>2026-04-11T08:04:31Z</time></trkpt><trkpt lat="43.85238492164457" lon="12.276242578801622"><ele>327.79999999999995</ele><time>2026-04-11T08:04:32Z</time></trkpt><trkpt lat="43.852293216951956" lon="12.276157535020925"><ele>327.6</ele><time>2026-04-11T08:04:33Z</time></trkpt><trkpt lat="43.852198106192155" lon="12.276072982808943"><ele>327.4</ele><time>2026-04-11T08:04:34Z</time></trkpt><trkpt lat="43.85210213707263" lon="12.275994044375096"><ele>327.20000000000005</ele><time>2026-04-11T08:04:35Z</time></trkpt><trkpt lat="43.85200137460031" lon="12.275921364139062"><ele>327.0</ele><time>2026-04-11T08:04:36Z</time></trkpt><trkpt lat="43.85189379546372" lon="12.275865305289773"><ele>329.25</ele><time>2026-04-11T08:04:37Z</time></trkpt><trkpt lat="43.85177527571214" lon="12.275837921404875"><ele>331.5</ele><time>2026-04-11T08:04:38Z</time></trkpt><trkpt lat="43.85165174470482" lon="12.275847684135737"><ele>333.75</ele><time>2026-04-11T08:04:39Z</time></trkpt><trkpt lat="43.85152639070391" lon="12.275873196766758"><ele>336.0</ele><time>2026-04-11T08:04:40Z</time></trkpt><trkpt lat="43.85140346955679" lon="12.275936450549217"><ele>336.0</ele><time>2026-04-11T08:04:41Z</time></trkpt><trkpt lat="43.851285210185445" lon="12.27601686165975"><ele>336.0</ele><time>2026-04-11T08:04:42Z</time></trkpt><trkpt lat="43.851176100396245" lon="12.2761041847658"><ele>336.0</ele><time>2026-04-11T08:04:43Z</time></trkpt><trkpt lat="43.8510727168881" lon="12.27618586787461"><ele>336.0</ele><time>2026-04-11T08:04:44Z</time></trkpt><trkpt lat="43.85097192053454" lon="12.276269610827375"><ele>337.20000000000005</ele><time>2026-04-11T08:04:45Z</time></trkpt><trkpt lat="43.85087362183125" lon="12.276345643426444"><ele>338.40000000000003</ele><time>2026-04-11T08:04:46Z</time></trkpt><trkpt lat="43.85077526182982" lon="12.276420896063666"><ele>339.6</ele><time>2026-04-11T08:04:47Z</time></trkpt><trkpt lat="43.850677473183104" lon="12.27649292863572"><ele>340.8</ele><time>2026-04-11T08:04:48Z</time></trkpt><trkpt lat="43.85058066333695" lon="12.276570841117021"><ele>342.0</ele><time>2026-04-11T08:04:49Z</time></trkpt><trkpt lat="43.85048324946402" lon="12.276650292054724"><ele>342.0</ele><time>2026-04-11T08:04:50Z</time></trkpt><trkpt lat="43.85038344629458" lon="12.276725795155022"><ele>342.0</ele><time>2026-04-11T08:04:51Z</time></trkpt><trkpt lat="43.850280992760666" lon="12.276797983046007"><ele>342.0</ele><time>2026-04-11T08:04:52Z</time></trkpt><trkpt lat="43.850176037740056" lon="12.2768676468661"><ele>342.0</ele><time>2026-04-11T08:04:53Z</time></trkpt><trkpt lat="43.85006487391105" lon="12.276923219875634"><ele>340.5</ele><time>2026-04-11T08:04:54Z</time></trkpt><trkpt lat="43.84994380388594" lon="12.276958226446585"><ele>339.0</ele><time>2026-04-11T08:04:55Z</time></trkpt><trkpt lat="43.84982033202859" lon="12.276972296802162"><ele>337.5</ele><time>2026-04-11T08:04:56Z</time></trkpt><trkpt lat="43.849692412543185" lon="12.276979242917173"><ele>336.0</ele><time>2026-04-11T08:04:57Z</time></trkpt><trkpt lat="43.84956147176" lon="12.276987848361104"><ele>336.0</ele><time>2026-04-11T08:04:58Z</time></trkpt><trkpt lat="43.849430513487" lon="12.27699721180644"><ele>336.0</ele><time>2026-04-11T08:04:59Z</time></trkpt><trkpt lat="43.84929945035695" lon="12.277002577557754"><ele>336.0</ele><time>2026-04-11T08:05:00Z</time></trkpt><trkpt lat="43.849170699936984" lon="12.277005897915567"><ele>336.0</ele><time>2026-04-11T08:05:01Z</time></trkpt><trkpt lat="43.84904591736633" lon="12.277003900599171"><ele>334.25</ele><time>2026-04-11T08:05:02Z</time></trkpt><trkpt lat="43.84892166098184" lon="12.277004751821464"><ele>332.5</ele><time>2026-04-11T08:05:03Z</time></trkpt><trkpt lat="43.8487975638133" lon="12.27700751702211"><ele>330.75</ele><time>2026-04-11T08:05:04Z</time></trkpt><trkpt lat="43.848673111069274" lon="12.277009943675372"><ele>329.0</ele><time>2026-04-11T08:05:05Z</time></trkpt><trkpt lat="43.84854632734496" lon="12.277025318715262"><ele>329.5</ele><time>2026-04-11T08:05:06Z</time></trkpt><trkpt lat="43.8484254564339" lon="12.277065891282218"><ele>330.0</ele><time>2026-04-11T08:05:07Z</time></trkpt><trkpt lat="43.84831478755224" lon="12.27712646540414"><ele>330.5</ele><time>2026-04-11T08:05:08Z</time></trkpt><trkpt lat="43.84821662908544" lon="12.27719705087696"><ele>331.0</ele><time>2026-04-11T08:05:09Z</time></trkpt><trkpt lat="43.84812565761887" lon="12.277285779058925"><ele>334.25</ele><time>2026-04-11T08:05:10Z</time></trkpt><trkpt lat="43.84803400266758" lon="12.27738255886241"><ele>337.5</ele><time>2026-04-11T08:05:11Z</time></trkpt><trkpt lat="43.84794189648567" lon="12.277489935091284"><ele>340.75</ele><time>2026-04-11T08:05:12Z</time></trkpt><trkpt lat="43.847856915206975" lon="12.277596833924667"><ele>344.0</ele><time>2026-04-11T08:05:13Z</time></trkpt><trkpt lat="43.84777308997649" lon="12.277701638133253"><ele>344.0</ele><time>2026-04-11T08:05:14Z</time></trkpt><trkpt lat="43.84768765640347" lon="12.277810706276693"><ele>344.0</ele><time>2026-04-11T08:05:15Z</time></trkpt><trkpt lat="43.84759665621675" lon="12.27791493097542"><ele>344.0</ele><time>2026-04-11T08:05:16Z</time></trkpt><trkpt lat="43.84749606316287" lon="12.278006265890616"><ele>344.0</ele><time>2026-04-11T08:05:17Z</time></trkpt><trkpt lat="43.84738275770154" lon="12.278084588810206"><ele>344.75</ele><time>2026-04-11T08:05:18Z</time></trkpt><trkpt lat="43.84726151862711" lon="12.278145326553743"><ele>345.5</ele><time>2026-04-11T08:05:19Z</time></trkpt><trkpt lat="43.847131212022916" lon="12.278189394998922"><ele>346.25</ele><time>2026-04-11T08:05:20Z</time></trkpt><trkpt lat="43.84699583513793" lon="12.278215264103505"><ele>347.0</ele><time>2026-04-11T08:05:21Z</time></trkpt><trkpt lat="43.84685734421566" lon="12.278228161091954"><ele>346.25</ele><time>2026-04-11T08:05:22Z</time></trkpt><trkpt lat="43.84672406068564" lon="12.278237241857642"><ele>345.5</ele><time>2026-04-11T08:05:23Z</time></trkpt><trkpt lat="43.84659669338446" lon="12.27824266404242"><ele>344.75</ele><time>2026-04-11T08:05:24Z</time></trkpt><trkpt lat="43.846470870702426" lon="12.278248963918603"><ele>344.0</ele><time>2026-04-11T08:05:25Z</time></trkpt><trkpt lat="43.84634301319314" lon="12.278253572148628"><ele>344.0</ele><time>2026-04-11T08:05:26Z</time></trkpt><trkpt lat="43.8462129875048" lon="12.278258622858127"><ele>344.0</ele><time>2026-04-11T08:05:27Z</time></trkpt><trkpt lat="43.84608596428705" lon="12.278260655810358"><ele>344.0</ele><time>2026-04-11T08:05:28Z</time></trkpt><trkpt lat="43.845967587248445" lon="12.278253399818333"><ele>344.0</ele><time>2026-04-11T08:05:29Z</time></trkpt><trkpt lat="43.84585135994766" lon="12.278232423260043"><ele>343.75</ele><time>2026-04-11T08:05:30Z</time></trkpt><trkpt lat="43.845739106267345" lon="12.278184893324003"><ele>343.5</ele><time>2026-04-11T08:05:31Z</time></trkpt><trkpt lat="43.84563070241035" lon="12.278111969633327"><ele>343.25</ele><time>2026-04-11T08:05:32Z</time></trkpt><trkpt lat="43.845534792352545" lon="12.27800146646504"><ele>343.0</ele><time>2026-04-11T08:05:33Z</time></trkpt><trkpt lat="43.84544322353501" lon="12.27786563945647"><ele>341.75</ele><time>2026-04-11T08:05:34Z</time></trkpt><trkpt lat="43.84536795306122" lon="12.277706403455195"><ele>340.5</ele><time>2026-04-11T08:05:35Z</time></trkpt><trkpt lat="43.84530715249497" lon="12.277537542395505"><ele>339.25</ele><time>2026-04-11T08:05:36Z</time></trkpt><trkpt lat="43.845255289106234" lon="12.277381338000296"><ele>338.0</ele><time>2026-04-11T08:05:37Z</time></trkpt><trkpt lat="43.84520860992908" lon="12.277227177543544"><ele>337.25</ele><time>2026-04-11T08:05:38Z</time></trkpt><trkpt lat="43.84514715057064" lon="12.277077527613296"><ele>336.5</ele><time>2026-04-11T08:05:39Z</time></trkpt><trkpt lat="43.84507987589204" lon="12.27692643838333"><ele>335.75</ele><time>2026-04-11T08:05:40Z</time></trkpt><trkpt lat="43.84500187715733" lon="12.276783226233288"><ele>335.0</ele><time>2026-04-11T08:05:41Z</time></trkpt><trkpt lat="43.844912478486705" lon="12.276655633097166"><ele>337.75</ele><time>2026-04-11T08:05:42Z</time></trkpt><trkpt lat="43.844811194639206" lon="12.276543111133314"><ele>340.5</ele><time>2026-04-11T08:05:43Z</time></trkpt><trkpt lat="43.844701974527396" lon="12.276456418479633"><ele>343.25</ele><time>2026-04-11T08:05:44Z</time></trkpt><trkpt lat="43.84458500132112" lon="12.276386431689106"><ele>346.0</ele><time>2026-04-11T08:05:45Z</time></trkpt><trkpt lat="43.84447103045055" lon="12.276323302049825"><ele>346.0</ele><time>2026-04-11T08:05:46Z</time></trkpt><trkpt lat="43.844349323245396" lon="12.276268822924305"><ele>346.0</ele><time>2026-04-11T08:05:47Z</time></trkpt><trkpt lat="43.844221722537895" lon="12.27622000094801"><ele>346.0</ele><time>2026-04-11T08:05:48Z</time></trkpt><trkpt lat="43.84409106627278" lon="12.276165871885555"><ele>346.0</ele><time>2026-04-11T08:05:49Z</time></trkpt><trkpt lat="43.84395868900597" lon="12.276114102589801"><ele>346.5</ele><time>2026-04-11T08:05:50Z</time></trkpt><trkpt lat="43.843826964163284" lon="12.276062005291283"><ele>347.0</ele><time>2026-04-11T08:05:51Z</time></trkpt><trkpt lat="43.843705648301295" lon="12.27601020591657"><ele>347.5</ele><time>2026-04-11T08:05:52Z</time></trkpt><trkpt lat="43.84358862231522" lon="12.275950897896248"><ele>348.0</ele><time>2026-04-11T08:05:53Z</time></trkpt><trkpt lat="43.84347628559779" lon="12.27587738613916"><ele>349.0</ele><time>2026-04-11T08:05:53.999Z</time></trkpt><trkpt lat="43.84337398475661" lon="12.275781623362098"><ele>350.0</ele><time>2026-04-11T08:05:54.999Z</time></trkpt><trkpt lat="43.843281862267325" lon="12.275666400068555"><ele>351.0</ele><time>2026-04-11T08:05:55.999Z</time></trkpt><trkpt lat="43.843198044943705" lon="12.275542066923077"><ele>352.0</ele><time>2026-04-11T08:05:56.999Z</time></trkpt><trkpt lat="43.84311641814978" lon="12.275427010144242"><ele>352.25</ele><time>2026-04-11T08:05:57.999Z</time></trkpt><trkpt lat="43.84303020740235" lon="12.27530817559681"><ele>352.5</ele><time>2026-04-11T08:05:58.999Z</time></trkpt><trkpt lat="43.84294323523623" lon="12.27518757434265"><ele>352.75</ele><time>2026-04-11T08:05:59.999Z</time></trkpt><trkpt lat="43.84285849674734" lon="12.275070230176048"><ele>353.0</ele><time>2026-04-11T08:06:00.999Z</time></trkpt><trkpt lat="43.84277365292586" lon="12.274957378946164"><ele>353.0</ele><time>2026-04-11T08:06:01.999Z</time></trkpt><trkpt lat="43.84269116461935" lon="12.274849170704831"><ele>353.0</ele><time>2026-04-11T08:06:02.999Z</time></trkpt><trkpt lat="43.84260688257873" lon="12.274731950730601"><ele>353.0</ele><time>2026-04-11T08:06:03.999Z</time></trkpt><trkpt lat="43.84252332351171" lon="12.274618860433728"><ele>353.0</ele><time>2026-04-11T08:06:04.999Z</time></trkpt><trkpt lat="43.84243686833927" lon="12.274501234546705"><ele>352.5</ele><time>2026-04-11T08:06:05.999Z</time></trkpt><trkpt lat="43.84234990337069" lon="12.2743772366493"><ele>352.0</ele><time>2026-04-11T08:06:06.999Z</time></trkpt><trkpt lat="43.84227165810674" lon="12.274254721598695"><ele>351.5</ele><time>2026-04-11T08:06:07.999Z</time></trkpt><trkpt lat="43.84219795730652" lon="12.274121697969726"><ele>351.0</ele><time>2026-04-11T08:06:08.999Z</time></trkpt><trkpt lat="43.842133489388026" lon="12.273975725702286"><ele>350.0</ele><time>2026-04-11T08:06:09.999Z</time></trkpt><trkpt lat="43.84207682429055" lon="12.27381592975279"><ele>349.0</ele><time>2026-04-11T08:06:10.999Z</time></trkpt><trkpt lat="43.84203791807431" lon="12.273647633804707"><ele>348.0</ele><time>2026-04-11T08:06:11.999Z</time></trkpt><trkpt lat="43.84201827447046" lon="12.273471753163834"><ele>347.0</ele><time>2026-04-11T08:06:12.999Z</time></trkpt><trkpt lat="43.842031027076224" lon="12.273290150860936"><ele>347.0</ele><time>2026-04-11T08:06:13.999Z</time></trkpt><trkpt lat="43.84205051536613" lon="12.27311968057909"><ele>347.0</ele><time>2026-04-11T08:06:14.999Z</time></trkpt><trkpt lat="43.842071235272094" lon="12.272952853712749"><ele>347.0</ele><time>2026-04-11T08:06:15.999Z</time></trkpt><trkpt lat="43.842089113274376" lon="12.272791598915001"><ele>347.0</ele><time>2026-04-11T08:06:16.999Z</time></trkpt><trkpt lat="43.84210758211518" lon="12.272634067086594"><ele>347.0</ele><time>2026-04-11T08:06:17.999Z</time></trkpt><trkpt lat="43.84212440821156" lon="12.272478763909874"><ele>347.0</ele><time>2026-04-11T08:06:18.999Z</time></trkpt><trkpt lat="43.84214092604067" lon="12.272313506483691"><ele>347.0</ele><time>2026-04-11T08:06:19.999Z</time></trkpt><trkpt lat="43.842160897938236" lon="12.272143507360289"><ele>347.0</ele><time>2026-04-11T08:06:20.999Z</time></trkpt><trkpt lat="43.84218015566923" lon="12.271969894976332"><ele>347.5</ele><time>2026-04-11T08:06:21.999Z</time></trkpt><trkpt lat="43.84220151557676" lon="12.2717987376946"><ele>348.0</ele><time>2026-04-11T08:06:22.999Z</time></trkpt><trkpt lat="43.84222421791653" lon="12.271634756252748"><ele>348.5</ele><time>2026-04-11T08:06:23.999Z</time></trkpt><trkpt lat="43.84224985463597" lon="12.27146964387658"><ele>349.0</ele><time>2026-04-11T08:06:24.999Z</time></trkpt><trkpt lat="43.842272654312396" lon="12.27130051760892"><ele>351.25</ele><time>2026-04-11T08:06:25.999Z</time></trkpt><trkpt lat="43.84229943220727" lon="12.271138384435574"><ele>353.5</ele><time>2026-04-11T08:06:26.999Z</time></trkpt><trkpt lat="43.84233418051011" lon="12.270984288971844"><ele>355.75</ele><time>2026-04-11T08:06:27.999Z</time></trkpt><trkpt lat="43.842389107358066" lon="12.270832612856944"><ele>358.0</ele><time>2026-04-11T08:06:28.999Z</time></trkpt><trkpt lat="43.842456466863936" lon="12.270684557837468"><ele>359.25</ele><time>2026-04-11T08:06:29.999Z</time></trkpt><trkpt lat="43.84254695677268" lon="12.270563409569633"><ele>360.5</ele><time>2026-04-11T08:06:30.999Z</time></trkpt><trkpt lat="43.84262912891595" lon="12.270440797351265"><ele>361.75</ele><time>2026-04-11T08:06:31.999Z</time></trkpt><trkpt lat="43.842707946562854" lon="12.270320637559983"><ele>363.0</ele><time>2026-04-11T08:06:32.999Z</time></trkpt><trkpt lat="43.842766622496704" lon="12.270182376485154"><ele>356.79999999999995</ele><time>2026-04-11T08:06:33.999Z</time></trkpt><trkpt lat="43.84283404750836" lon="12.270054689315543"><ele>350.6</ele><time>2026-04-11T08:06:35Z</time></trkpt><trkpt lat="43.84289137530433" lon="12.269912570725621"><ele>344.4</ele><time>2026-04-11T08:06:36Z</time></trkpt><trkpt lat="43.8429355104953" lon="12.269771984785073"><ele>338.20000000000005</ele><time>2026-04-11T08:06:37Z</time></trkpt><trkpt lat="43.84297437333988" lon="12.269634213881208"><ele>332.0</ele><time>2026-04-11T08:06:38Z</time></trkpt><trkpt lat="43.842997878643104" lon="12.26948160418707"><ele>330.75</ele><time>2026-04-11T08:06:39Z</time></trkpt><trkpt lat="43.84299544895692" lon="12.269314934750277"><ele>329.5</ele><time>2026-04-11T08:06:40Z</time></trkpt><trkpt lat="43.842968820356866" lon="12.26914504541294"><ele>328.25</ele><time>2026-04-11T08:06:41Z</time></trkpt><trkpt lat="43.84291820942995" lon="12.26898389243783"><ele>327.0</ele><time>2026-04-11T08:06:42Z</time></trkpt><trkpt lat="43.84285563624522" lon="12.26883832678722"><ele>324.0</ele><time>2026-04-11T08:06:43Z</time></trkpt><trkpt lat="43.84275907189365" lon="12.268719429815027"><ele>321.0</ele><time>2026-04-11T08:06:44Z</time></trkpt><trkpt lat="43.84264359715268" lon="12.268633280384584"><ele>318.0</ele><time>2026-04-11T08:06:45Z</time></trkpt><trkpt lat="43.84251486159049" lon="12.268574576742187"><ele>315.0</ele><time>2026-04-11T08:06:46Z</time></trkpt><trkpt lat="43.842384719117426" lon="12.268576356195162"><ele>321.75</ele><time>2026-04-11T08:06:47Z</time></trkpt><trkpt lat="43.84225070259704" lon="12.268614508739141"><ele>328.5</ele><time>2026-04-11T08:06:48Z</time></trkpt><trkpt lat="43.84212491365403" lon="12.268652972836051"><ele>335.25</ele><time>2026-04-11T08:06:49Z</time></trkpt><trkpt lat="43.84201036709098" lon="12.268700228502322"><ele>342.0</ele><time>2026-04-11T08:06:50Z</time></trkpt><trkpt lat="43.84189658531011" lon="12.268743574194257"><ele>343.0</ele><time>2026-04-11T08:06:51Z</time></trkpt><trkpt lat="43.84178452640308" lon="12.268788099648232"><ele>344.0</ele><time>2026-04-11T08:06:52Z</time></trkpt><trkpt lat="43.84166562744198" lon="12.268820355164548"><ele>345.0</ele><time>2026-04-11T08:06:53Z</time></trkpt><trkpt lat="43.84154173647721" lon="12.268835119968859"><ele>346.0</ele><time>2026-04-11T08:06:54Z</time></trkpt><trkpt lat="43.84141956801388" lon="12.268823707725458"><ele>346.0</ele><time>2026-04-11T08:06:55Z</time></trkpt><trkpt lat="43.841300786219264" lon="12.268795211313401"><ele>346.0</ele><time>2026-04-11T08:06:56Z</time></trkpt><trkpt lat="43.841180463547765" lon="12.268735891134199"><ele>346.0</ele><time>2026-04-11T08:06:57Z</time></trkpt><trkpt lat="43.841075475593584" lon="12.268635777200501"><ele>346.0</ele><time>2026-04-11T08:06:58Z</time></trkpt><trkpt lat="43.8409815808607" lon="12.268534509900379"><ele>346.5</ele><time>2026-04-11T08:06:59Z</time></trkpt><trkpt lat="43.84090076774174" lon="12.268409120334464"><ele>347.0</ele><time>2026-04-11T08:07:00Z</time></trkpt><trkpt lat="43.840833539723995" lon="12.268258983671089"><ele>347.5</ele><time>2026-04-11T08:07:01Z</time></trkpt><trkpt lat="43.84076133079189" lon="12.268087631857048"><ele>348.0</ele><time>2026-04-11T08:07:02Z</time></trkpt><trkpt lat="43.840709883608326" lon="12.267916864833648"><ele>348.0</ele><time>2026-04-11T08:07:03Z</time></trkpt><trkpt lat="43.84065722968734" lon="12.267761596069848"><ele>348.0</ele><time>2026-04-11T08:07:04Z</time></trkpt><trkpt lat="43.840607714713435" lon="12.267604424676861"><ele>348.0</ele><time>2026-04-11T08:07:05Z</time></trkpt><trkpt lat="43.840554627091095" lon="12.267444887348278"><ele>348.0</ele><time>2026-04-11T08:07:06Z</time></trkpt><trkpt lat="43.84049756222641" lon="12.267290367662726"><ele>345.75</ele><time>2026-04-11T08:07:07Z</time></trkpt><trkpt lat="43.84042874168087" lon="12.267145638738159"><ele>343.5</ele><time>2026-04-11T08:07:08Z</time></trkpt><trkpt lat="43.84034965036611" lon="12.267011370348728"><ele>341.25</ele><time>2026-04-11T08:07:09Z</time></trkpt><trkpt lat="43.84026648464563" lon="12.26687872243992"><ele>339.0</ele><time>2026-04-11T08:07:10Z</time></trkpt><trkpt lat="43.84018310196489" lon="12.266744358391655"><ele>340.5</ele><time>2026-04-11T08:07:11Z</time></trkpt><trkpt lat="43.840098810899114" lon="12.26661607401558"><ele>342.0</ele><time>2026-04-11T08:07:12Z</time></trkpt><trkpt lat="43.84001140397787" lon="12.26648998468363"><ele>343.5</ele><time>2026-04-11T08:07:13Z</time></trkpt><trkpt lat="43.839925139921526" lon="12.266369475394097"><ele>345.0</ele><time>2026-04-11T08:07:14Z</time></trkpt><trkpt lat="43.839842139576724" lon="12.266254014521069"><ele>345.0</ele><time>2026-04-11T08:07:15Z</time></trkpt><trkpt lat="43.839758717134764" lon="12.266140904071934"><ele>345.0</ele><time>2026-04-11T08:07:16Z</time></trkpt><trkpt lat="43.839678911766256" lon="12.266025822663215"><ele>345.0</ele><time>2026-04-11T08:07:17Z</time></trkpt><trkpt lat="43.83960231720238" lon="12.265906589111404"><ele>345.0</ele><time>2026-04-11T08:07:18Z</time></trkpt><trkpt lat="43.839524428866596" lon="12.265790238064513"><ele>345.0</ele><time>2026-04-11T08:07:19Z</time></trkpt><trkpt lat="43.83944089863919" lon="12.265675967296435"><ele>345.0</ele><time>2026-04-11T08:07:20Z</time></trkpt><trkpt lat="43.839356266218545" lon="12.265557957122063"><ele>345.0</ele><time>2026-04-11T08:07:21Z</time></trkpt><trkpt lat="43.83927395142196" lon="12.26543018250439"><ele>345.0</ele><time>2026-04-11T08:07:22Z</time></trkpt><trkpt lat="43.839189020362845" lon="12.265301608187944"><ele>346.25</ele><time>2026-04-11T08:07:23Z</time></trkpt><trkpt lat="43.839103692179265" lon="12.265172987036065"><ele>347.5</ele><time>2026-04-11T08:07:24Z</time></trkpt><trkpt lat="43.83901912602798" lon="12.265050756843966"><ele>348.75</ele><time>2026-04-11T08:07:25Z</time></trkpt><trkpt lat="43.83893381750904" lon="12.264928198470885"><ele>350.0</ele><time>2026-04-11T08:07:26Z</time></trkpt><trkpt lat="43.838852575977334" lon="12.264806133941919"><ele>348.0</ele><time>2026-04-11T08:07:27Z</time></trkpt><trkpt lat="43.83877057947652" lon="12.26468775290294"><ele>346.0</ele><time>2026-04-11T08:07:28Z</time></trkpt><trkpt lat="43.83868715233504" lon="12.26456814306973"><ele>344.0</ele><time>2026-04-11T08:07:29Z</time></trkpt><trkpt lat="43.838603432582715" lon="12.264449960419475"><ele>342.0</ele><time>2026-04-11T08:07:30Z</time></trkpt><trkpt lat="43.838521399417296" lon="12.264332666963984"><ele>344.75</ele><time>2026-04-11T08:07:31Z</time></trkpt><trkpt lat="43.838441378814295" lon="12.264215922312323"><ele>347.5</ele><time>2026-04-11T08:07:32Z</time></trkpt><trkpt lat="43.838361217690284" lon="12.264101054697528"><ele>350.25</ele><time>2026-04-11T08:07:33Z</time></trkpt><trkpt lat="43.838279576951685" lon="12.263987048520953"><ele>353.0</ele><time>2026-04-11T08:07:34Z</time></trkpt><trkpt lat="43.83819800123156" lon="12.263870596786633"><ele>353.0</ele><time>2026-04-11T08:07:35Z</time></trkpt><trkpt lat="43.838116702821694" lon="12.263753269923582"><ele>353.0</ele><time>2026-04-11T08:07:36Z</time></trkpt><trkpt lat="43.838035894402594" lon="12.263633578631772"><ele>353.0</ele><time>2026-04-11T08:07:37Z</time></trkpt><trkpt lat="43.837955163900666" lon="12.263512179110528"><ele>353.0</ele><time>2026-04-11T08:07:38Z</time></trkpt><trkpt lat="43.83787269080481" lon="12.263390679809866"><ele>353.0</ele><time>2026-04-11T08:07:39Z</time></trkpt><trkpt lat="43.83778842433613" lon="12.263269285918337"><ele>353.0</ele><time>2026-04-11T08:07:40Z</time></trkpt><trkpt lat="43.83770320016361" lon="12.263135435868191"><ele>353.0</ele><time>2026-04-11T08:07:41Z</time></trkpt><trkpt lat="43.83761724820994" lon="12.263009418014002"><ele>353.0</ele><time>2026-04-11T08:07:42Z</time></trkpt><trkpt lat="43.83752156690491" lon="12.262884049943025"><ele>353.0</ele><time>2026-04-11T08:07:43Z</time></trkpt><trkpt lat="43.83742689134571" lon="12.262758236820961"><ele>353.0</ele><time>2026-04-11T08:07:44Z</time></trkpt><trkpt lat="43.83732775973203" lon="12.262638394373395"><ele>353.0</ele><time>2026-04-11T08:07:45Z</time></trkpt><trkpt lat="43.83722396393343" lon="12.262526472371965"><ele>353.0</ele><time>2026-04-11T08:07:46Z</time></trkpt><trkpt lat="43.83711593849375" lon="12.262426514632356"><ele>353.0</ele><time>2026-04-11T08:07:47Z</time></trkpt><trkpt lat="43.83700611408743" lon="12.262336746272217"><ele>353.0</ele><time>2026-04-11T08:07:48Z</time></trkpt><trkpt lat="43.836890228417055" lon="12.262266699558468"><ele>353.0</ele><time>2026-04-11T08:07:49Z</time></trkpt><trkpt lat="43.83677655750194" lon="12.262201222892534"><ele>353.0</ele><time>2026-04-11T08:07:50Z</time></trkpt><trkpt lat="43.836658770670375" lon="12.262144072198486"><ele>352.75</ele><time>2026-04-11T08:07:51Z</time></trkpt><trkpt lat="43.83653949205389" lon="12.262094008188768"><ele>352.5</ele><time>2026-04-11T08:07:52Z</time></trkpt><trkpt lat="43.83641656575394" lon="12.262052109053707"><ele>352.25</ele><time>2026-04-11T08:07:53Z</time></trkpt><trkpt lat="43.83628688424151" lon="12.262018277449883"><ele>352.0</ele><time>2026-04-11T08:07:54Z</time></trkpt><trkpt lat="43.83615595405449" lon="12.261997982762574"><ele>352.0</ele><time>2026-04-11T08:07:55Z</time></trkpt><trkpt lat="43.83602017850936" lon="12.261988310198188"><ele>352.0</ele><time>2026-04-11T08:07:56Z</time></trkpt><trkpt lat="43.83588357281919" lon="12.26198725102258"><ele>352.0</ele><time>2026-04-11T08:07:57Z</time></trkpt><trkpt lat="43.83574437026679" lon="12.261998687504665"><ele>352.0</ele><time>2026-04-11T08:07:58Z</time></trkpt><trkpt lat="43.83560656219143" lon="12.262026886633366"><ele>352.0</ele><time>2026-04-11T08:07:59Z</time></trkpt><trkpt lat="43.83547359939065" lon="12.262061744415872"><ele>352.0</ele><time>2026-04-11T08:08:00Z</time></trkpt><trkpt lat="43.83535047504106" lon="12.26209386579994"><ele>352.0</ele><time>2026-04-11T08:08:01Z</time></trkpt><trkpt lat="43.83523266344844" lon="12.262125890261418"><ele>352.0</ele><time>2026-04-11T08:08:02Z</time></trkpt><trkpt lat="43.83511829242955" lon="12.262157991526369"><ele>352.0</ele><time>2026-04-11T08:08:03Z</time></trkpt><trkpt lat="43.8350045094888" lon="12.262170977331865"><ele>352.0</ele><time>2026-04-11T08:08:04Z</time></trkpt><trkpt lat="43.83489023825999" lon="12.26217194171258"><ele>352.0</ele><time>2026-04-11T08:08:04.999Z</time></trkpt><trkpt lat="43.834775313133456" lon="12.26216870885291"><ele>352.0</ele><time>2026-04-11T08:08:05.999Z</time></trkpt><trkpt lat="43.834656811766216" lon="12.262157081239184"><ele>352.0</ele><time>2026-04-11T08:08:06.999Z</time></trkpt><trkpt lat="43.83453730821387" lon="12.26213447954806"><ele>352.0</ele><time>2026-04-11T08:08:07.999Z</time></trkpt><trkpt lat="43.83441591858079" lon="12.26210545721046"><ele>352.0</ele><time>2026-04-11T08:08:08.999Z</time></trkpt><trkpt lat="43.83429336112276" lon="12.262071295101254"><ele>352.0</ele><time>2026-04-11T08:08:09.999Z</time></trkpt><trkpt lat="43.834173600613376" lon="12.26203068757835"><ele>352.25</ele><time>2026-04-11T08:08:10.999Z</time></trkpt><trkpt lat="43.834055713112654" lon="12.261997879961761"><ele>352.5</ele><time>2026-04-11T08:08:11.999Z</time></trkpt><trkpt lat="43.83393157831861" lon="12.261971691954669"><ele>352.75</ele><time>2026-04-11T08:08:12.999Z</time></trkpt><trkpt lat="43.833804706942466" lon="12.261946744433962"><ele>353.0</ele><time>2026-04-11T08:08:13.999Z</time></trkpt><trkpt lat="43.833675607872415" lon="12.261922645787461"><ele>353.0</ele><time>2026-04-11T08:08:14.999Z</time></trkpt><trkpt lat="43.833549239152994" lon="12.261895623531741"><ele>353.0</ele><time>2026-04-11T08:08:15.999Z</time></trkpt><trkpt lat="43.83342284617234" lon="12.261871441992147"><ele>353.0</ele><time>2026-04-11T08:08:16.999Z</time></trkpt><trkpt lat="43.833295949427054" lon="12.261846907691211"><ele>353.0</ele><time>2026-04-11T08:08:17.999Z</time></trkpt><trkpt lat="43.83317092981669" lon="12.26182343530627"><ele>353.0</ele><time>2026-04-11T08:08:18.999Z</time></trkpt><trkpt lat="43.833043889318894" lon="12.261801373362763"><ele>353.0</ele><time>2026-04-11T08:08:19.999Z</time></trkpt><trkpt lat="43.832918613324985" lon="12.261777718239301"><ele>353.0</ele><time>2026-04-11T08:08:20.999Z</time></trkpt><trkpt lat="43.832795674460215" lon="12.261754730846501"><ele>353.0</ele><time>2026-04-11T08:08:21.999Z</time></trkpt><trkpt lat="43.832672770454934" lon="12.261731882995136"><ele>352.75</ele><time>2026-04-11T08:08:22.999Z</time></trkpt><trkpt lat="43.832547893632025" lon="12.261714029889035"><ele>352.5</ele><time>2026-04-11T08:08:23.999Z</time></trkpt><trkpt lat="43.83242274588652" lon="12.261704417453021"><ele>352.25</ele><time>2026-04-11T08:08:24.999Z</time></trkpt><trkpt lat="43.83229388120257" lon="12.261717504956746"><ele>352.0</ele><time>2026-04-11T08:08:25.999Z</time></trkpt><trkpt lat="43.832162113194926" lon="12.261740426686977"><ele>352.0</ele><time>2026-04-11T08:08:26.999Z</time></trkpt><trkpt lat="43.832036141673775" lon="12.261780706525547"><ele>352.0</ele><time>2026-04-11T08:08:27.999Z</time></trkpt><trkpt lat="43.831913797026445" lon="12.261819809657789"><ele>352.0</ele><time>2026-04-11T08:08:28.999Z</time></trkpt><trkpt lat="43.831795854305675" lon="12.2618705722671"><ele>352.0</ele><time>2026-04-11T08:08:29.999Z</time></trkpt><trkpt lat="43.831678953089465" lon="12.261918348744318"><ele>351.5</ele><time>2026-04-11T08:08:30.999Z</time></trkpt><trkpt lat="43.831560451051054" lon="12.26197060504674"><ele>351.0</ele><time>2026-04-11T08:08:31.999Z</time></trkpt><trkpt lat="43.831442913075975" lon="12.262022893012793"><ele>350.5</ele><time>2026-04-11T08:08:32.999Z</time></trkpt><trkpt lat="43.831328364995656" lon="12.262073400437696"><ele>350.0</ele><time>2026-04-11T08:08:33.999Z</time></trkpt><trkpt lat="43.83121497378483" lon="12.262122418220505"><ele>350.0</ele><time>2026-04-11T08:08:34.999Z</time></trkpt><trkpt lat="43.83110185728559" lon="12.262169825306009"><ele>350.0</ele><time>2026-04-11T08:08:35.999Z</time></trkpt><trkpt lat="43.830988559348896" lon="12.262214736807387"><ele>350.0</ele><time>2026-04-11T08:08:36.999Z</time></trkpt><trkpt lat="43.830872290198116" lon="12.262252186697578"><ele>350.0</ele><time>2026-04-11T08:08:37.999Z</time></trkpt><trkpt lat="43.830752389449316" lon="12.262268796353727"><ele>348.25</ele><time>2026-04-11T08:08:38.999Z</time></trkpt><trkpt lat="43.83062293609456" lon="12.262248837060632"><ele>346.5</ele><time>2026-04-11T08:08:39.999Z</time></trkpt><trkpt lat="43.83050016681511" lon="12.262208484593254"><ele>344.75</ele><time>2026-04-11T08:08:41Z</time></trkpt><trkpt lat="43.830390516553194" lon="12.262141181956663"><ele>343.0</ele><time>2026-04-11T08:08:42.001Z</time></trkpt><trkpt lat="43.83028618880332" lon="12.26205151356144"><ele>343.0</ele><time>2026-04-11T08:08:43Z</time></trkpt><trkpt lat="43.830198440166825" lon="12.26193214351121"><ele>343.0</ele><time>2026-04-11T08:08:44Z</time></trkpt><trkpt lat="43.83013891246854" lon="12.26178984798842"><ele>343.0</ele><time>2026-04-11T08:08:45.001Z</time></trkpt><trkpt lat="43.83008983489294" lon="12.26162362899232"><ele>343.0</ele><time>2026-04-11T08:08:46Z</time></trkpt><trkpt lat="43.83005798233812" lon="12.261455014854963"><ele>343.5</ele><time>2026-04-11T08:08:47Z</time></trkpt><trkpt lat="43.83004086840374" lon="12.261284332756151"><ele>344.0</ele><time>2026-04-11T08:08:48Z</time></trkpt><trkpt lat="43.83003304108464" lon="12.261113801157208"><ele>344.5</ele><time>2026-04-11T08:08:49Z</time></trkpt><trkpt lat="43.830022763975734" lon="12.26093953014873"><ele>345.0</ele><time>2026-04-11T08:08:50Z</time></trkpt><trkpt lat="43.8300087247765" lon="12.260759169149123"><ele>343.75</ele><time>2026-04-11T08:08:51Z</time></trkpt><trkpt lat="43.829998048992046" lon="12.260579147419508"><ele>342.5</ele><time>2026-04-11T08:08:52Z</time></trkpt><trkpt lat="43.82998541347219" lon="12.260404000873027"><ele>341.25</ele><time>2026-04-11T08:08:53Z</time></trkpt><trkpt lat="43.829967820200785" lon="12.260233252072624"><ele>340.0</ele><time>2026-04-11T08:08:54Z</time></trkpt><trkpt lat="43.82994575403859" lon="12.260067829618672"><ele>340.0</ele><time>2026-04-11T08:08:55Z</time></trkpt><trkpt lat="43.82992086819914" lon="12.259906942631625"><ele>340.0</ele><time>2026-04-11T08:08:56Z</time></trkpt><trkpt lat="43.82989345478877" lon="12.259747920301775"><ele>340.0</ele><time>2026-04-11T08:08:57Z</time></trkpt><trkpt lat="43.8298632142615" lon="12.259589318552088"><ele>340.0</ele><time>2026-04-11T08:08:58Z</time></trkpt><trkpt lat="43.8298107050785" lon="12.259443159605045"><ele>339.25</ele><time>2026-04-11T08:08:59Z</time></trkpt><trkpt lat="43.82977630057369" lon="12.25929312869918"><ele>338.5</ele><time>2026-04-11T08:09:00Z</time></trkpt><trkpt lat="43.82974120588538" lon="12.25913052636139"><ele>337.75</ele><time>2026-04-11T08:09:01Z</time></trkpt><trkpt lat="43.8297251294873" lon="12.258960221817585"><ele>337.0</ele><time>2026-04-11T08:09:02Z</time></trkpt><trkpt lat="43.8296826017796" lon="12.25879488439546"><ele>337.0</ele><time>2026-04-11T08:09:03Z</time></trkpt><trkpt lat="43.829634345074105" lon="12.258630961456495"><ele>337.0</ele><time>2026-04-11T08:09:04Z</time></trkpt><trkpt lat="43.82958395063939" lon="12.258468139583805"><ele>337.0</ele><time>2026-04-11T08:09:05Z</time></trkpt><trkpt lat="43.829527083117064" lon="12.2583089817969"><ele>337.0</ele><time>2026-04-11T08:09:06Z</time></trkpt><trkpt lat="43.82946794261582" lon="12.2581525516135"><ele>335.75</ele><time>2026-04-11T08:09:07Z</time></trkpt><trkpt lat="43.82940605555773" lon="12.258003540964232"><ele>334.5</ele><time>2026-04-11T08:09:08Z</time></trkpt><trkpt lat="43.829341361592085" lon="12.257863836516227"><ele>333.25</ele><time>2026-04-11T08:09:09Z</time></trkpt><trkpt lat="43.82927302771203" lon="12.25772332981643"><ele>332.0</ele><time>2026-04-11T08:09:10Z</time></trkpt><trkpt lat="43.829198711834685" lon="12.257581868460019"><ele>332.75</ele><time>2026-04-11T08:09:11Z</time></trkpt><trkpt lat="43.82912367339358" lon="12.257439556348793"><ele>333.5</ele><time>2026-04-11T08:09:12Z</time></trkpt><trkpt lat="43.82904656780991" lon="12.25729412417452"><ele>334.25</ele><time>2026-04-11T08:09:13Z</time></trkpt><trkpt lat="43.82897023563231" lon="12.257149997204918"><ele>335.0</ele><time>2026-04-11T08:09:14Z</time></trkpt><trkpt lat="43.82889830312192" lon="12.257009764297461"><ele>335.0</ele><time>2026-04-11T08:09:15Z</time></trkpt><trkpt lat="43.828826688114894" lon="12.256871602543084"><ele>335.0</ele><time>2026-04-11T08:09:16Z</time></trkpt><trkpt lat="43.828756072278004" lon="12.256735891819494"><ele>335.0</ele><time>2026-04-11T08:09:17Z</time></trkpt><trkpt lat="43.82868486625336" lon="12.256600945954531"><ele>335.0</ele><time>2026-04-11T08:09:18Z</time></trkpt><trkpt lat="43.828613433819" lon="12.256463199622942"><ele>335.25</ele><time>2026-04-11T08:09:19Z</time></trkpt><trkpt lat="43.82854053787142" lon="12.25632376962027"><ele>335.5</ele><time>2026-04-11T08:09:20Z</time></trkpt><trkpt lat="43.8284672287585" lon="12.256181784417864"><ele>335.75</ele><time>2026-04-11T08:09:21Z</time></trkpt><trkpt lat="43.82839307647492" lon="12.256035660818695"><ele>336.0</ele><time>2026-04-11T08:09:22Z</time></trkpt><trkpt lat="43.828319414367726" lon="12.255892242752026"><ele>336.0</ele><time>2026-04-11T08:09:23Z</time></trkpt><trkpt lat="43.828246167019564" lon="12.255754227698912"><ele>336.0</ele><time>2026-04-11T08:09:24Z</time></trkpt><trkpt lat="43.82817479356865" lon="12.255617002897946"><ele>336.0</ele><time>2026-04-11T08:09:25Z</time></trkpt><trkpt lat="43.828102552219235" lon="12.255479799901769"><ele>336.0</ele><time>2026-04-11T08:09:26Z</time></trkpt><trkpt lat="43.82802729901609" lon="12.255339879906849"><ele>334.25</ele><time>2026-04-11T08:09:27Z</time></trkpt><trkpt lat="43.82795209688317" lon="12.255198394999328"><ele>332.5</ele><time>2026-04-11T08:09:28Z</time></trkpt><trkpt lat="43.82787646267986" lon="12.255050994176964"><ele>330.75</ele><time>2026-04-11T08:09:29Z</time></trkpt><trkpt lat="43.82780083154633" lon="12.254903707274897"><ele>329.0</ele><time>2026-04-11T08:09:30Z</time></trkpt><trkpt lat="43.827725143740885" lon="12.254758633370226"><ele>329.25</ele><time>2026-04-11T08:09:31Z</time></trkpt><trkpt lat="43.82765032904746" lon="12.254612467441806"><ele>329.5</ele><time>2026-04-11T08:09:32Z</time></trkpt><trkpt lat="43.827579456447204" lon="12.254470952553776"><ele>329.75</ele><time>2026-04-11T08:09:33Z</time></trkpt><trkpt lat="43.82750812799498" lon="12.25433684409587"><ele>330.0</ele><time>2026-04-11T08:09:34Z</time></trkpt><trkpt lat="43.82743965929429" lon="12.254202492599862"><ele>330.0</ele><time>2026-04-11T08:09:35Z</time></trkpt><trkpt lat="43.82737281734639" lon="12.25407407353145"><ele>330.0</ele><time>2026-04-11T08:09:36Z</time></trkpt><trkpt lat="43.827306981457085" lon="12.253950898611594"><ele>330.0</ele><time>2026-04-11T08:09:37Z</time></trkpt><trkpt lat="43.82724360548765" lon="12.253827601189549"><ele>330.0</ele><time>2026-04-11T08:09:38Z</time></trkpt><trkpt lat="43.82718202633016" lon="12.253705635964277"><ele>330.0</ele><time>2026-04-11T08:09:39Z</time></trkpt><trkpt lat="43.8271159512764" lon="12.253583590016722"><ele>329.25</ele><time>2026-04-11T08:09:40Z</time></trkpt><trkpt lat="43.827054001283784" lon="12.253459109396282"><ele>328.5</ele><time>2026-04-11T08:09:41Z</time></trkpt><trkpt lat="43.8269848012145" lon="12.25333534787761"><ele>327.75</ele><time>2026-04-11T08:09:42Z</time></trkpt><trkpt lat="43.82691628524296" lon="12.253209714077707"><ele>327.0</ele><time>2026-04-11T08:09:43Z</time></trkpt><trkpt lat="43.82684788675333" lon="12.253075113332262"><ele>328.25</ele><time>2026-04-11T08:09:44Z</time></trkpt><trkpt lat="43.82677758756145" lon="12.252933913937447"><ele>329.5</ele><time>2026-04-11T08:09:45Z</time></trkpt><trkpt lat="43.826701044372655" lon="12.25278778770767"><ele>330.75</ele><time>2026-04-11T08:09:46Z</time></trkpt><trkpt lat="43.82662146233891" lon="12.252639111581084"><ele>332.0</ele><time>2026-04-11T08:09:47Z</time></trkpt><trkpt lat="43.826541470764155" lon="12.252491751741324"><ele>332.0</ele><time>2026-04-11T08:09:48Z</time></trkpt><trkpt lat="43.82646238072471" lon="12.25234177865282"><ele>332.0</ele><time>2026-04-11T08:09:49Z</time></trkpt><trkpt lat="43.82638478043072" lon="12.25218922317067"><ele>332.0</ele><time>2026-04-11T08:09:50Z</time></trkpt><trkpt lat="43.82630202680071" lon="12.252036902036043"><ele>332.0</ele><time>2026-04-11T08:09:51Z</time></trkpt><trkpt lat="43.826221746496465" lon="12.25189248653526"><ele>332.5</ele><time>2026-04-11T08:09:52Z</time></trkpt><trkpt lat="43.82614755720112" lon="12.251757733964684"><ele>333.0</ele><time>2026-04-11T08:09:53Z</time></trkpt><trkpt lat="43.826074288751194" lon="12.251622261738675"><ele>333.5</ele><time>2026-04-11T08:09:54Z</time></trkpt><trkpt lat="43.825998997193665" lon="12.251483062569024"><ele>334.0</ele><time>2026-04-11T08:09:55Z</time></trkpt><trkpt lat="43.82592350896022" lon="12.251339799761794"><ele>334.0</ele><time>2026-04-11T08:09:56Z</time></trkpt><trkpt lat="43.82584655568889" lon="12.251194705987315"><ele>334.0</ele><time>2026-04-11T08:09:57Z</time></trkpt><trkpt lat="43.82576776954651" lon="12.251044851530695"><ele>334.0</ele><time>2026-04-11T08:09:58Z</time></trkpt><trkpt lat="43.82569100210805" lon="12.250893732601218"><ele>334.0</ele><time>2026-04-11T08:09:59Z</time></trkpt><trkpt lat="43.825619737207255" lon="12.250745572989535"><ele>333.75</ele><time>2026-04-11T08:10:00Z</time></trkpt><trkpt lat="43.825549323361045" lon="12.250609936100613"><ele>333.5</ele><time>2026-04-11T08:10:01Z</time></trkpt><trkpt lat="43.8254832727654" lon="12.250477896710148"><ele>333.25</ele><time>2026-04-11T08:10:02Z</time></trkpt><trkpt lat="43.82541441700769" lon="12.250346996523483"><ele>333.0</ele><time>2026-04-11T08:10:03Z</time></trkpt><trkpt lat="43.82534163614053" lon="12.250215430370952"><ele>333.0</ele><time>2026-04-11T08:10:04Z</time></trkpt><trkpt lat="43.82527167536477" lon="12.250082153923968"><ele>333.0</ele><time>2026-04-11T08:10:05Z</time></trkpt><trkpt lat="43.82520075790533" lon="12.249947047916228"><ele>333.0</ele><time>2026-04-11T08:10:06Z</time></trkpt><trkpt lat="43.825128493275706" lon="12.24981013310291"><ele>333.0</ele><time>2026-04-11T08:10:07Z</time></trkpt><trkpt lat="43.82505425997415" lon="12.249672871647084"><ele>335.25</ele><time>2026-04-11T08:10:08Z</time></trkpt><trkpt lat="43.82497895825921" lon="12.249535135669332"><ele>337.5</ele><time>2026-04-11T08:10:09Z</time></trkpt><trkpt lat="43.824903504072644" lon="12.249398895156551"><ele>339.75</ele><time>2026-04-11T08:10:10Z</time></trkpt><trkpt lat="43.82483271106591" lon="12.24926507271694"><ele>342.0</ele><time>2026-04-11T08:10:11Z</time></trkpt><trkpt lat="43.82476494377709" lon="12.24913613721127"><ele>342.0</ele><time>2026-04-11T08:10:12Z</time></trkpt><trkpt lat="43.824697909391" lon="12.249010210325604"><ele>342.0</ele><time>2026-04-11T08:10:12.999Z</time></trkpt><trkpt lat="43.82462900810795" lon="12.248884616714225"><ele>342.0</ele><time>2026-04-11T08:10:13.999Z</time></trkpt><trkpt lat="43.82455933235197" lon="12.24875751613824"><ele>342.0</ele><time>2026-04-11T08:10:14.999Z</time></trkpt><trkpt lat="43.82448945506799" lon="12.24862727184448"><ele>341.75</ele><time>2026-04-11T08:10:15.999Z</time></trkpt><trkpt lat="43.824416479278106" lon="12.248496944025295"><ele>341.5</ele><time>2026-04-11T08:10:16.999Z</time></trkpt><trkpt lat="43.82433780126854" lon="12.248370581941588"><ele>341.25</ele><time>2026-04-11T08:10:17.999Z</time></trkpt><trkpt lat="43.824249652936395" lon="12.248250914642254"><ele>341.0</ele><time>2026-04-11T08:10:18.999Z</time></trkpt><trkpt lat="43.824159337609736" lon="12.248133321197194"><ele>343.5</ele><time>2026-04-11T08:10:19.999Z</time></trkpt><trkpt lat="43.82406407827847" lon="12.248026663205968"><ele>346.0</ele><time>2026-04-11T08:10:20.998Z</time></trkpt><trkpt lat="43.82396099730983" lon="12.24793412154129"><ele>348.5</ele><time>2026-04-11T08:10:21.998Z</time></trkpt><trkpt lat="43.8238624327937" lon="12.247862026525553"><ele>351.0</ele><time>2026-04-11T08:10:22.998Z</time></trkpt><trkpt lat="43.823762353900946" lon="12.24779368195171"><ele>351.0</ele><time>2026-04-11T08:10:23.998Z</time></trkpt><trkpt lat="43.82366101246896" lon="12.247734603006291"><ele>351.0</ele><time>2026-04-11T08:10:24.998Z</time></trkpt><trkpt lat="43.823551964105214" lon="12.247685203130178"><ele>351.0</ele><time>2026-04-11T08:10:25.998Z</time></trkpt><trkpt lat="43.82343812198964" lon="12.24765208276553"><ele>351.0</ele><time>2026-04-11T08:10:26.998Z</time></trkpt><trkpt lat="43.8233216444172" lon="12.247628179232825"><ele>352.0</ele><time>2026-04-11T08:10:27.998Z</time></trkpt><trkpt lat="43.823203614891916" lon="12.247600834245098"><ele>353.0</ele><time>2026-04-11T08:10:28.998Z</time></trkpt><trkpt lat="43.82308421717261" lon="12.247575800008807"><ele>354.0</ele><time>2026-04-11T08:10:29.998Z</time></trkpt><trkpt lat="43.82296580330002" lon="12.247552697599575"><ele>355.0</ele><time>2026-04-11T08:10:30.998Z</time></trkpt><trkpt lat="43.822853242845135" lon="12.24753257369182"><ele>355.0</ele><time>2026-04-11T08:10:31.998Z</time></trkpt><trkpt lat="43.822746531924935" lon="12.247513467723312"><ele>355.0</ele><time>2026-04-11T08:10:32.998Z</time></trkpt><trkpt lat="43.82264317277969" lon="12.24749346343211"><ele>355.0</ele><time>2026-04-11T08:10:33.998Z</time></trkpt><trkpt lat="43.8225381483244" lon="12.247472625349832"><ele>355.0</ele><time>2026-04-11T08:10:34.998Z</time></trkpt><trkpt lat="43.82243238749675" lon="12.247451393394574"><ele>355.0</ele><time>2026-04-11T08:10:35.998Z</time></trkpt><trkpt lat="43.8223255570496" lon="12.24742938869068"><ele>356.4</ele><time>2026-04-11T08:10:36.998Z</time></trkpt><trkpt lat="43.82221719304322" lon="12.247406804073098"><ele>357.8</ele><time>2026-04-11T08:10:37.998Z</time></trkpt><trkpt lat="43.82210882488524" lon="12.24738525155602"><ele>359.20000000000005</ele><time>2026-04-11T08:10:38.998Z</time></trkpt><trkpt lat="43.822000623535786" lon="12.247366259407542"><ele>360.6</ele><time>2026-04-11T08:10:39.998Z</time></trkpt><trkpt lat="43.82189264117895" lon="12.24735955447513"><ele>362.0</ele><time>2026-04-11T08:10:40.998Z</time></trkpt><trkpt lat="43.821781178915934" lon="12.247362806238124"><ele>363.25</ele><time>2026-04-11T08:10:41.998Z</time></trkpt><trkpt lat="43.82166903172112" lon="12.24737269263346"><ele>364.5</ele><time>2026-04-11T08:10:42.998Z</time></trkpt><trkpt lat="43.82155739903353" lon="12.247393906204097"><ele>365.75</ele><time>2026-04-11T08:10:43.998Z</time></trkpt><trkpt lat="43.82144465130861" lon="12.247430389156792"><ele>367.0</ele><time>2026-04-11T08:10:44.998Z</time></trkpt><trkpt lat="43.821335757510134" lon="12.247480983519674"><ele>367.0</ele><time>2026-04-11T08:10:45.998Z</time></trkpt><trkpt lat="43.82123309583513" lon="12.247530539682433"><ele>367.0</ele><time>2026-04-11T08:10:47Z</time></trkpt><trkpt lat="43.82113815558505" lon="12.247583056646956"><ele>367.0</ele><time>2026-04-11T08:10:48Z</time></trkpt><trkpt lat="43.82104500029951" lon="12.247634199482993"><ele>367.0</ele><time>2026-04-11T08:10:49Z</time></trkpt><trkpt lat="43.82095310915098" lon="12.24768569544236"><ele>367.0</ele><time>2026-04-11T08:10:50Z</time></trkpt><trkpt lat="43.820862589818255" lon="12.247736161191533"><ele>366.40000000000003</ele><time>2026-04-11T08:10:51Z</time></trkpt><trkpt lat="43.82078174646588" lon="12.24778112593077"><ele>365.8</ele><time>2026-04-11T08:10:52Z</time></trkpt><trkpt lat="43.82069859768617" lon="12.247826607955407"><ele>365.2</ele><time>2026-04-11T08:10:53Z</time></trkpt><trkpt lat="43.82061476273934" lon="12.24787696566903"><ele>364.6</ele><time>2026-04-11T08:10:54Z</time></trkpt><trkpt lat="43.82052648346932" lon="12.24792573079482"><ele>364.0</ele><time>2026-04-11T08:10:55Z</time></trkpt><trkpt lat="43.820435714301695" lon="12.247975287790064"><ele>364.0</ele><time>2026-04-11T08:10:56Z</time></trkpt><trkpt lat="43.820341549452515" lon="12.248023063722735"><ele>364.0</ele><time>2026-04-11T08:10:57Z</time></trkpt><trkpt lat="43.820246302818646" lon="12.248054072081374"><ele>364.0</ele><time>2026-04-11T08:10:58Z</time></trkpt><trkpt lat="43.820150577457994" lon="12.248063763869755"><ele>364.0</ele><time>2026-04-11T08:10:59Z</time></trkpt><trkpt lat="43.82005843586169" lon="12.24802222829351"><ele>364.0</ele><time>2026-04-11T08:11:00Z</time></trkpt><trkpt lat="43.8199943824926" lon="12.247920625777134"><ele>364.2</ele><time>2026-04-11T08:11:01Z</time></trkpt><trkpt lat="43.81993491416473" lon="12.24781293318411"><ele>364.4</ele><time>2026-04-11T08:11:01.999Z</time></trkpt><trkpt lat="43.81987724095519" lon="12.247696279137445"><ele>364.6</ele><time>2026-04-11T08:11:02.999Z</time></trkpt><trkpt lat="43.81981997527472" lon="12.247578663185907"><ele>364.8</ele><time>2026-04-11T08:11:03.999Z</time></trkpt><trkpt lat="43.819746715717805" lon="12.247462492099414"><ele>365.0</ele><time>2026-04-11T08:11:04.999Z</time></trkpt><trkpt lat="43.81968066537369" lon="12.247324106287069"><ele>364.0</ele><time>2026-04-11T08:11:05.999Z</time></trkpt><trkpt lat="43.81961177847993" lon="12.247183611951453"><ele>363.0</ele><time>2026-04-11T08:11:06.999Z</time></trkpt><trkpt lat="43.819538991658334" lon="12.247042791974566"><ele>362.0</ele><time>2026-04-11T08:11:07.999Z</time></trkpt><trkpt lat="43.819470002395406" lon="12.24690288226205"><ele>361.0</ele><time>2026-04-11T08:11:08.999Z</time></trkpt><trkpt lat="43.819405633643186" lon="12.24676591331806"><ele>361.0</ele><time>2026-04-11T08:11:09.999Z</time></trkpt><trkpt lat="43.81934030172377" lon="12.246630765801578"><ele>361.0</ele><time>2026-04-11T08:11:10.999Z</time></trkpt><trkpt lat="43.81927006969663" lon="12.246499689577854"><ele>361.0</ele><time>2026-04-11T08:11:11.999Z</time></trkpt><trkpt lat="43.81920244002226" lon="12.246364758079416"><ele>361.0</ele><time>2026-04-11T08:11:12.999Z</time></trkpt><trkpt lat="43.81913590699877" lon="12.246225236856374"><ele>362.75</ele><time>2026-04-11T08:11:13.999Z</time></trkpt><trkpt lat="43.81906733909158" lon="12.246091010715801"><ele>364.5</ele><time>2026-04-11T08:11:14.999Z</time></trkpt><trkpt lat="43.81900010100136" lon="12.245953559683826"><ele>366.25</ele><time>2026-04-11T08:11:15.999Z</time></trkpt><trkpt lat="43.81893157981952" lon="12.245811464073888"><ele>368.0</ele><time>2026-04-11T08:11:16.999Z</time></trkpt><trkpt lat="43.81886217737831" lon="12.245671194189896"><ele>367.0</ele><time>2026-04-11T08:11:17.999Z</time></trkpt><trkpt lat="43.81878949114498" lon="12.245536621631354"><ele>366.0</ele><time>2026-04-11T08:11:18.999Z</time></trkpt><trkpt lat="43.81871620214" lon="12.245412076638718"><ele>365.0</ele><time>2026-04-11T08:11:19.999Z</time></trkpt><trkpt lat="43.81864423611707" lon="12.245296104761017"><ele>364.0</ele><time>2026-04-11T08:11:20.999Z</time></trkpt><trkpt lat="43.818569729561" lon="12.245186086218432"><ele>364.0</ele><time>2026-04-11T08:11:21.999Z</time></trkpt><trkpt lat="43.81849149487277" lon="12.245079801507154"><ele>364.0</ele><time>2026-04-11T08:11:22.999Z</time></trkpt><trkpt lat="43.818409172126536" lon="12.244980015859094"><ele>364.0</ele><time>2026-04-11T08:11:23.999Z</time></trkpt><trkpt lat="43.818326087818555" lon="12.244882459863067"><ele>364.0</ele><time>2026-04-11T08:11:24.999Z</time></trkpt><trkpt lat="43.818236938208464" lon="12.244792942445821"><ele>364.0</ele><time>2026-04-11T08:11:25.999Z</time></trkpt><trkpt lat="43.81813875672058" lon="12.244707452177796"><ele>364.5</ele><time>2026-04-11T08:11:26.999Z</time></trkpt><trkpt lat="43.8180362948316" lon="12.244622614978471"><ele>365.0</ele><time>2026-04-11T08:11:27.999Z</time></trkpt><trkpt lat="43.81792871542723" lon="12.24454268364059"><ele>365.5</ele><time>2026-04-11T08:11:28.999Z</time></trkpt><trkpt lat="43.81781743739542" lon="12.244469275734106"><ele>366.0</ele><time>2026-04-11T08:11:29.999Z</time></trkpt><trkpt lat="43.81770491200497" lon="12.244396274775811"><ele>367.75</ele><time>2026-04-11T08:11:30.999Z</time></trkpt><trkpt lat="43.817589209658315" lon="12.244326190677604"><ele>369.5</ele><time>2026-04-11T08:11:31.999Z</time></trkpt><trkpt lat="43.81747551647657" lon="12.244252853879694"><ele>371.25</ele><time>2026-04-11T08:11:32.999Z</time></trkpt><trkpt lat="43.817359984328" lon="12.244179135085517"><ele>373.0</ele><time>2026-04-11T08:11:33.999Z</time></trkpt><trkpt lat="43.817243245050726" lon="12.24410915544176"><ele>373.0</ele><time>2026-04-11T08:11:34.999Z</time></trkpt><trkpt lat="43.81712560421436" lon="12.244036330436384"><ele>373.0</ele><time>2026-04-11T08:11:35.999Z</time></trkpt><trkpt lat="43.81700953109564" lon="12.243959094552793"><ele>373.0</ele><time>2026-04-11T08:11:36.999Z</time></trkpt><trkpt lat="43.81689309097808" lon="12.243887094752935"><ele>373.0</ele><time>2026-04-11T08:11:37.999Z</time></trkpt><trkpt lat="43.81677650003075" lon="12.243814311485743"><ele>373.75</ele><time>2026-04-11T08:11:38.999Z</time></trkpt><trkpt lat="43.816659025586745" lon="12.24373912839382"><ele>374.5</ele><time>2026-04-11T08:11:39.999Z</time></trkpt><trkpt lat="43.81654269821831" lon="12.243666828993733"><ele>375.25</ele><time>2026-04-11T08:11:40.999Z</time></trkpt><trkpt lat="43.81642555550055" lon="12.243596138472023"><ele>376.0</ele><time>2026-04-11T08:11:41.999Z</time></trkpt><trkpt lat="43.81631028500021" lon="12.243519667635194"><ele>376.0</ele><time>2026-04-11T08:11:42.999Z</time></trkpt><trkpt lat="43.81619671050118" lon="12.243443972090667"><ele>376.0</ele><time>2026-04-11T08:11:43.999Z</time></trkpt><trkpt lat="43.8160841146573" lon="12.243372071336255"><ele>376.0</ele><time>2026-04-11T08:11:44.999Z</time></trkpt><trkpt lat="43.8159738188912" lon="12.24329950272324"><ele>376.0</ele><time>2026-04-11T08:11:45.999Z</time></trkpt><trkpt lat="43.81586430905318" lon="12.243227542570752"><ele>375.5</ele><time>2026-04-11T08:11:46.999Z</time></trkpt><trkpt lat="43.81575680599954" lon="12.24316132283712"><ele>375.0</ele><time>2026-04-11T08:11:47.999Z</time></trkpt><trkpt lat="43.815651277494936" lon="12.243092250537135"><ele>374.5</ele><time>2026-04-11T08:11:48.999Z</time></trkpt><trkpt lat="43.81554513155787" lon="12.243025375063075"><ele>374.0</ele><time>2026-04-11T08:11:49.999Z</time></trkpt><trkpt lat="43.8154377270568" lon="12.242958272153706"><ele>374.0</ele><time>2026-04-11T08:11:50.999Z</time></trkpt><trkpt lat="43.815329733963125" lon="12.242888857814"><ele>374.0</ele><time>2026-04-11T08:11:51.999Z</time></trkpt><trkpt lat="43.81522086277825" lon="12.24282157485321"><ele>374.0</ele><time>2026-04-11T08:11:52.999Z</time></trkpt><trkpt lat="43.81511106464788" lon="12.242754607738503"><ele>374.0</ele><time>2026-04-11T08:11:53.999Z</time></trkpt><trkpt lat="43.815000163710685" lon="12.242686718415541"><ele>376.0</ele><time>2026-04-11T08:11:54.999Z</time></trkpt><trkpt lat="43.81489089616567" lon="12.242611949123596"><ele>378.0</ele><time>2026-04-11T08:11:55.999Z</time></trkpt><trkpt lat="43.81478080133081" lon="12.242539365320043"><ele>380.0</ele><time>2026-04-11T08:11:56.999Z</time></trkpt><trkpt lat="43.81466964727662" lon="12.242465582291773"><ele>382.0</ele><time>2026-04-11T08:11:57.999Z</time></trkpt><trkpt lat="43.81455649965453" lon="12.242394567326274"><ele>382.0</ele><time>2026-04-11T08:11:58.999Z</time></trkpt><trkpt lat="43.81444332995972" lon="12.242322814842726"><ele>382.0</ele><time>2026-04-11T08:11:59.999Z</time></trkpt><trkpt lat="43.814329062041075" lon="12.242252953473455"><ele>382.0</ele><time>2026-04-11T08:12:00.999Z</time></trkpt><trkpt lat="43.81421569778245" lon="12.242187697601553"><ele>382.0</ele><time>2026-04-11T08:12:01.999Z</time></trkpt><trkpt lat="43.814106465365825" lon="12.24212214172188"><ele>381.6</ele><time>2026-04-11T08:12:02.999Z</time></trkpt><trkpt lat="43.81400288714388" lon="12.242051085521897"><ele>381.20000000000005</ele><time>2026-04-11T08:12:03.999Z</time></trkpt><trkpt lat="43.81389985568936" lon="12.24198306658392"><ele>380.8</ele><time>2026-04-11T08:12:04.999Z</time></trkpt><trkpt lat="43.81379803510594" lon="12.24192394003909"><ele>380.4</ele><time>2026-04-11T08:12:05.999Z</time></trkpt><trkpt lat="43.8136979826874" lon="12.241864549179537"><ele>380.0</ele><time>2026-04-11T08:12:06.999Z</time></trkpt><trkpt lat="43.81359473354366" lon="12.241817747219779"><ele>381.5</ele><time>2026-04-11T08:12:07.999Z</time></trkpt><trkpt lat="43.81348404568141" lon="12.24179035124766"><ele>383.0</ele><time>2026-04-11T08:12:08.999Z</time></trkpt><trkpt lat="43.813372472275475" lon="12.241783267679036"><ele>384.5</ele><time>2026-04-11T08:12:09.999Z</time></trkpt><trkpt lat="43.81325865561025" lon="12.241793298877612"><ele>386.0</ele><time>2026-04-11T08:12:10.999Z</time></trkpt><trkpt lat="43.813144182047935" lon="12.241811707133712"><ele>386.0</ele><time>2026-04-11T08:12:11.999Z</time></trkpt><trkpt lat="43.8130306987417" lon="12.24184844283076"><ele>386.0</ele><time>2026-04-11T08:12:12.999Z</time></trkpt><trkpt lat="43.812917632120985" lon="12.241907585144249"><ele>386.0</ele><time>2026-04-11T08:12:13.999Z</time></trkpt><trkpt lat="43.812808277276375" lon="12.241975345130438"><ele>386.0</ele><time>2026-04-11T08:12:14.999Z</time></trkpt><trkpt lat="43.81270022240175" lon="12.242053807079063"><ele>387.0</ele><time>2026-04-11T08:12:15.999Z</time></trkpt><trkpt lat="43.81259814091215" lon="12.242144139268424"><ele>388.0</ele><time>2026-04-11T08:12:16.999Z</time></trkpt><trkpt lat="43.81249761607269" lon="12.242230180453333"><ele>389.0</ele><time>2026-04-11T08:12:17.999Z</time></trkpt><trkpt lat="43.8123948762529" lon="12.242294906941218"><ele>390.0</ele><time>2026-04-11T08:12:18.999Z</time></trkpt><trkpt lat="43.812282006288804" lon="12.242342276210444"><ele>389.5</ele><time>2026-04-11T08:12:19.999Z</time></trkpt><trkpt lat="43.812160932311926" lon="12.242377930292262"><ele>389.0</ele><time>2026-04-11T08:12:20.999Z</time></trkpt><trkpt lat="43.81203382809705" lon="12.242388765878195"><ele>388.5</ele><time>2026-04-11T08:12:21.999Z</time></trkpt><trkpt lat="43.81190281890682" lon="12.242373274679476"><ele>388.0</ele><time>2026-04-11T08:12:22.999Z</time></trkpt><trkpt lat="43.81177005152351" lon="12.242339668517705"><ele>387.5</ele><time>2026-04-11T08:12:23.998Z</time></trkpt><trkpt lat="43.811640861717294" lon="12.242284730083385"><ele>387.0</ele><time>2026-04-11T08:12:24.998Z</time></trkpt><trkpt lat="43.81151295259073" lon="12.242220867327937"><ele>386.5</ele><time>2026-04-11T08:12:25.998Z</time></trkpt><trkpt lat="43.811385673080366" lon="12.242163206622315"><ele>386.0</ele><time>2026-04-11T08:12:26.998Z</time></trkpt><trkpt lat="43.81126111831065" lon="12.242105275128267"><ele>386.0</ele><time>2026-04-11T08:12:27.998Z</time></trkpt><trkpt lat="43.81114251685345" lon="12.242051597042833"><ele>386.0</ele><time>2026-04-11T08:12:28.998Z</time></trkpt><trkpt lat="43.81102939078346" lon="12.241996968711424"><ele>386.0</ele><time>2026-04-11T08:12:29.998Z</time></trkpt><trkpt lat="43.81092017451183" lon="12.24194358486647"><ele>386.0</ele><time>2026-04-11T08:12:30.998Z</time></trkpt><trkpt lat="43.81081228542629" lon="12.241894657618028"><ele>386.25</ele><time>2026-04-11T08:12:31.998Z</time></trkpt><trkpt lat="43.810701795555595" lon="12.241848170363705"><ele>386.5</ele><time>2026-04-11T08:12:32.998Z</time></trkpt><trkpt lat="43.81059066063953" lon="12.241798679867156"><ele>386.75</ele><time>2026-04-11T08:12:33.998Z</time></trkpt><trkpt lat="43.8104804063611" lon="12.241745423259538"><ele>387.0</ele><time>2026-04-11T08:12:34.998Z</time></trkpt><trkpt lat="43.810368666666456" lon="12.24169212401261"><ele>387.0</ele><time>2026-04-11T08:12:35.998Z</time></trkpt><trkpt lat="43.81025588793156" lon="12.241638732887415"><ele>387.0</ele><time>2026-04-11T08:12:36.998Z</time></trkpt><trkpt lat="43.81014065751192" lon="12.241587068194704"><ele>387.0</ele><time>2026-04-11T08:12:37.998Z</time></trkpt><trkpt lat="43.81002689251899" lon="12.24153411350397"><ele>387.0</ele><time>2026-04-11T08:12:38.998Z</time></trkpt><trkpt lat="43.80991626524441" lon="12.241483946404967"><ele>387.0</ele><time>2026-04-11T08:12:39.998Z</time></trkpt><trkpt lat="43.809809130965455" lon="12.241432520415557"><ele>387.0</ele><time>2026-04-11T08:12:40.998Z</time></trkpt><trkpt lat="43.80970107794998" lon="12.241380802866754"><ele>387.0</ele><time>2026-04-11T08:12:41.998Z</time></trkpt><trkpt lat="43.80959397708509" lon="12.241329589386767"><ele>387.0</ele><time>2026-04-11T08:12:42.998Z</time></trkpt><trkpt lat="43.80948760708844" lon="12.241263623944583"><ele>387.0</ele><time>2026-04-11T08:12:43.998Z</time></trkpt><trkpt lat="43.80939106605375" lon="12.241176938345077"><ele>387.0</ele><time>2026-04-11T08:12:44.998Z</time></trkpt><trkpt lat="43.80929631925891" lon="12.241078498041578"><ele>387.0</ele><time>2026-04-11T08:12:45.998Z</time></trkpt><trkpt lat="43.809205767053456" lon="12.240959420660039"><ele>387.0</ele><time>2026-04-11T08:12:46.998Z</time></trkpt><trkpt lat="43.80912306377125" lon="12.240825645605403"><ele>388.75</ele><time>2026-04-11T08:12:47.998Z</time></trkpt><trkpt lat="43.80905089959219" lon="12.240678702230717"><ele>390.5</ele><time>2026-04-11T08:12:48.998Z</time></trkpt><trkpt lat="43.80899481332344" lon="12.240518407625261"><ele>392.25</ele><time>2026-04-11T08:12:49.998Z</time></trkpt><trkpt lat="43.80895346397891" lon="12.240342963284261"><ele>394.0</ele><time>2026-04-11T08:12:50.998Z</time></trkpt><trkpt lat="43.80892179636702" lon="12.24017897933339"><ele>394.0</ele><time>2026-04-11T08:12:51.998Z</time></trkpt><trkpt lat="43.808907234834685" lon="12.240010548555377"><ele>394.0</ele><time>2026-04-11T08:12:53Z</time></trkpt><trkpt lat="43.808913358165256" lon="12.23983665307478"><ele>394.0</ele><time>2026-04-11T08:12:54Z</time></trkpt><trkpt lat="43.80892537320228" lon="12.239664954697357"><ele>394.0</ele><time>2026-04-11T08:12:55Z</time></trkpt><trkpt lat="43.808945563606635" lon="12.239493179991232"><ele>395.25</ele><time>2026-04-11T08:12:56Z</time></trkpt><trkpt lat="43.80897869320747" lon="12.239328722187865"><ele>396.5</ele><time>2026-04-11T08:12:57Z</time></trkpt><trkpt lat="43.809022184718614" lon="12.239182322801158"><ele>397.75</ele><time>2026-04-11T08:12:58Z</time></trkpt><trkpt lat="43.80907382256734" lon="12.239041006819845"><ele>399.0</ele><time>2026-04-11T08:12:59Z</time></trkpt><trkpt lat="43.80913841019978" lon="12.238906258554264"><ele>398.75</ele><time>2026-04-11T08:13:00Z</time></trkpt><trkpt lat="43.80921421068226" lon="12.238779843020856"><ele>398.5</ele><time>2026-04-11T08:13:01Z</time></trkpt><trkpt lat="43.809297742460856" lon="12.23865535490748"><ele>398.25</ele><time>2026-04-11T08:13:02Z</time></trkpt><trkpt lat="43.80938960344698" lon="12.23854359999736"><ele>398.0</ele><time>2026-04-11T08:13:03Z</time></trkpt><trkpt lat="43.80949617698522" lon="12.238454779598536"><ele>398.0</ele><time>2026-04-11T08:13:04Z</time></trkpt><trkpt lat="43.80959963823714" lon="12.238357001677025"><ele>398.0</ele><time>2026-04-11T08:13:05Z</time></trkpt><trkpt lat="43.809696388773666" lon="12.238250150246143"><ele>398.0</ele><time>2026-04-11T08:13:06Z</time></trkpt><trkpt lat="43.8098043452177" lon="12.238161887153069"><ele>398.0</ele><time>2026-04-11T08:13:07Z</time></trkpt><trkpt lat="43.80992029817275" lon="12.238079650160655"><ele>396.79999999999995</ele><time>2026-04-11T08:13:08Z</time></trkpt><trkpt lat="43.810026541171695" lon="12.237997187448963"><ele>395.6</ele><time>2026-04-11T08:13:09Z</time></trkpt><trkpt lat="43.810126423617646" lon="12.237914799999084"><ele>394.4</ele><time>2026-04-11T08:13:10Z</time></trkpt><trkpt lat="43.81021788021814" lon="12.237835038160004"><ele>393.20000000000005</ele><time>2026-04-11T08:13:11Z</time></trkpt><trkpt lat="43.81030283173865" lon="12.237753302537985"><ele>392.0</ele><time>2026-04-11T08:13:12Z</time></trkpt><trkpt lat="43.810383120082896" lon="12.237658486412172"><ele>392.0</ele><time>2026-04-11T08:13:12.999Z</time></trkpt><trkpt lat="43.81045256673054" lon="12.237541857791689"><ele>392.0</ele><time>2026-04-11T08:13:13.999Z</time></trkpt><trkpt lat="43.81048462748284" lon="12.237405226259114"><ele>392.0</ele><time>2026-04-11T08:13:14.999Z</time></trkpt><trkpt lat="43.81048867077973" lon="12.237247285876865"><ele>392.0</ele><time>2026-04-11T08:13:15.999Z</time></trkpt><trkpt lat="43.8104473170871" lon="12.237093045136742"><ele>392.0</ele><time>2026-04-11T08:13:16.999Z</time></trkpt><trkpt lat="43.810388971075305" lon="12.236951850075474"><ele>390.5</ele><time>2026-04-11T08:13:17.999Z</time></trkpt><trkpt lat="43.81030974962902" lon="12.236829105807258"><ele>389.0</ele><time>2026-04-11T08:13:18.999Z</time></trkpt><trkpt lat="43.810210940759845" lon="12.236727230128682"><ele>387.5</ele><time>2026-04-11T08:13:19.999Z</time></trkpt><trkpt lat="43.81010305861915" lon="12.236649153472644"><ele>386.0</ele><time>2026-04-11T08:13:20.999Z</time></trkpt><trkpt lat="43.80999985565747" lon="12.236573188282874"><ele>388.5</ele><time>2026-04-11T08:13:21.999Z</time></trkpt><trkpt lat="43.80990171929226" lon="12.236497555800483"><ele>391.0</ele><time>2026-04-11T08:13:22.999Z</time></trkpt><trkpt lat="43.809803580130584" lon="12.236412594472148"><ele>393.5</ele><time>2026-04-11T08:13:23.999Z</time></trkpt><trkpt lat="43.80971107808309" lon="12.236312797610765"><ele>396.0</ele><time>2026-04-11T08:13:24.999Z</time></trkpt><trkpt lat="43.809631949027576" lon="12.236183308521026"><ele>396.0</ele><time>2026-04-11T08:13:25.999Z</time></trkpt><trkpt lat="43.809577884669494" lon="12.236032771699673"><ele>396.0</ele><time>2026-04-11T08:13:26.999Z</time></trkpt><trkpt lat="43.809538668748395" lon="12.235870036651097"><ele>396.0</ele><time>2026-04-11T08:13:27.999Z</time></trkpt><trkpt lat="43.80951387815375" lon="12.23569845852635"><ele>396.0</ele><time>2026-04-11T08:13:28.999Z</time></trkpt><trkpt lat="43.80952431057762" lon="12.23552382952867"><ele>396.75</ele><time>2026-04-11T08:13:29.999Z</time></trkpt><trkpt lat="43.80950708592789" lon="12.235342533286541"><ele>397.5</ele><time>2026-04-11T08:13:30.999Z</time></trkpt><trkpt lat="43.80951236048188" lon="12.235165421450128"><ele>398.25</ele><time>2026-04-11T08:13:31.999Z</time></trkpt><trkpt lat="43.80951518007783" lon="12.234990234062785"><ele>399.0</ele><time>2026-04-11T08:13:32.999Z</time></trkpt><trkpt lat="43.809516804287696" lon="12.234815383514354"><ele>398.25</ele><time>2026-04-11T08:13:33.999Z</time></trkpt><trkpt lat="43.809516754578716" lon="12.234647127877892"><ele>397.5</ele><time>2026-04-11T08:13:34.999Z</time></trkpt><trkpt lat="43.8095165348771" lon="12.234489538749308"><ele>396.75</ele><time>2026-04-11T08:13:35.999Z</time></trkpt><trkpt lat="43.80951868172107" lon="12.23434008497839"><ele>396.0</ele><time>2026-04-11T08:13:36.999Z</time></trkpt><trkpt lat="43.80951568320777" lon="12.234191329243782"><ele>396.0</ele><time>2026-04-11T08:13:37.999Z</time></trkpt><trkpt lat="43.80950027090046" lon="12.234039570725173"><ele>396.0</ele><time>2026-04-11T08:13:38.999Z</time></trkpt><trkpt lat="43.80946986250597" lon="12.233890312162284"><ele>396.0</ele><time>2026-04-11T08:13:39.999Z</time></trkpt><trkpt lat="43.80941904119165" lon="12.23374985568092"><ele>396.0</ele><time>2026-04-11T08:13:40.999Z</time></trkpt><trkpt lat="43.80934960291495" lon="12.233620237396709"><ele>400.5</ele><time>2026-04-11T08:13:41.999Z</time></trkpt><trkpt lat="43.80927005988821" lon="12.233500134071607"><ele>405.0</ele><time>2026-04-11T08:13:42.999Z</time></trkpt><trkpt lat="43.80919035555105" lon="12.233379964978614"><ele>409.5</ele><time>2026-04-11T08:13:43.999Z</time></trkpt><trkpt lat="43.80911792949029" lon="12.233248888509728"><ele>414.0</ele><time>2026-04-11T08:13:44.999Z</time></trkpt><trkpt lat="43.80905983397194" lon="12.233102583048387"><ele>414.0</ele><time>2026-04-11T08:13:45.999Z</time></trkpt><trkpt lat="43.80901684529277" lon="12.232950044260939"><ele>414.0</ele><time>2026-04-11T08:13:46.999Z</time></trkpt><trkpt lat="43.808994563762454" lon="12.232793760060085"><ele>414.0</ele><time>2026-04-11T08:13:47.999Z</time></trkpt><trkpt lat="43.80898748326004" lon="12.232632860841475"><ele>414.0</ele><time>2026-04-11T08:13:48.999Z</time></trkpt><trkpt lat="43.809001460846666" lon="12.232467562079554"><ele>415.75</ele><time>2026-04-11T08:13:49.999Z</time></trkpt><trkpt lat="43.809027716485964" lon="12.232302341052597"><ele>417.5</ele><time>2026-04-11T08:13:50.999Z</time></trkpt><trkpt lat="43.809056559691946" lon="12.232134874098042"><ele>419.25</ele><time>2026-04-11T08:13:51.999Z</time></trkpt><trkpt lat="43.80908553285117" lon="12.231966080207572"><ele>421.0</ele><time>2026-04-11T08:13:52.999Z</time></trkpt><trkpt lat="43.809110661542476" lon="12.231800769889388"><ele>421.0</ele><time>2026-04-11T08:13:53.999Z</time></trkpt><trkpt lat="43.80913585836244" lon="12.231647734053993"><ele>421.0</ele><time>2026-04-11T08:13:54.999Z</time></trkpt><trkpt lat="43.80915504120207" lon="12.231498560800844"><ele>421.0</ele><time>2026-04-11T08:13:55.999Z</time></trkpt><trkpt lat="43.80917304389894" lon="12.231344683985952"><ele>421.0</ele><time>2026-04-11T08:13:56.999Z</time></trkpt><trkpt lat="43.80918745182375" lon="12.231184788632305"><ele>424.0</ele><time>2026-04-11T08:13:57.999Z</time></trkpt><trkpt lat="43.809208210782096" lon="12.231023871580048"><ele>427.0</ele><time>2026-04-11T08:13:58.999Z</time></trkpt><trkpt lat="43.80923651959656" lon="12.230862127029017"><ele>430.0</ele><time>2026-04-11T08:13:59.999Z</time></trkpt><trkpt lat="43.80927395741938" lon="12.230701458208838"><ele>433.0</ele><time>2026-04-11T08:14:00.999Z</time></trkpt><trkpt lat="43.80931843547045" lon="12.23054379210064"><ele>424.59999999999997</ele><time>2026-04-11T08:14:01.999Z</time></trkpt><trkpt lat="43.80936695241713" lon="12.230399933165476"><ele>416.19999999999993</ele><time>2026-04-11T08:14:02.999Z</time></trkpt><trkpt lat="43.80941603680281" lon="12.230265166292018"><ele>407.8</ele><time>2026-04-11T08:14:03.999Z</time></trkpt><trkpt lat="43.80946452676358" lon="12.230134551348163"><ele>399.4</ele><time>2026-04-11T08:14:04.999Z</time></trkpt><trkpt lat="43.80950476023347" lon="12.229996102344852"><ele>391.0</ele><time>2026-04-11T08:14:05.999Z</time></trkpt><trkpt lat="43.80953045140482" lon="12.229851055973809"><ele>391.4</ele><time>2026-04-11T08:14:06.999Z</time></trkpt><trkpt lat="43.80954104617252" lon="12.229702187115182"><ele>391.8</ele><time>2026-04-11T08:14:07.999Z</time></trkpt><trkpt lat="43.80953833366294" lon="12.229549884576151"><ele>392.2</ele><time>2026-04-11T08:14:08.999Z</time></trkpt><trkpt lat="43.809549375358586" lon="12.229394172056733"><ele>392.59999999999997</ele><time>2026-04-11T08:14:09.999Z</time></trkpt><trkpt lat="43.809534623057345" lon="12.229234913251062"><ele>393.0</ele><time>2026-04-11T08:14:10.999Z</time></trkpt><trkpt lat="43.80950121748434" lon="12.229087992036394"><ele>390.25</ele><time>2026-04-11T08:14:11.999Z</time></trkpt><trkpt lat="43.80942194172436" lon="12.228963045098789"><ele>387.5</ele><time>2026-04-11T08:14:12.999Z</time></trkpt><trkpt lat="43.809341386505295" lon="12.228830788962208"><ele>384.75</ele><time>2026-04-11T08:14:13.999Z</time></trkpt><trkpt lat="43.80925899378211" lon="12.228697949090376"><ele>382.0</ele><time>2026-04-11T08:14:14.999Z</time></trkpt><trkpt lat="43.80917540394318" lon="12.228574956910414"><ele>386.0</ele><time>2026-04-11T08:14:15.999Z</time></trkpt><trkpt lat="43.809097456738755" lon="12.228453099795727"><ele>390.0</ele><time>2026-04-11T08:14:16.999Z</time></trkpt><trkpt lat="43.80901776069788" lon="12.228334187284926"><ele>394.0</ele><time>2026-04-11T08:14:17.999Z</time></trkpt><trkpt lat="43.80893864020358" lon="12.228220031622271"><ele>398.0</ele><time>2026-04-11T08:14:18.999Z</time></trkpt><trkpt lat="43.80885889083444" lon="12.228105919080905"><ele>398.0</ele><time>2026-04-11T08:14:19.999Z</time></trkpt><trkpt lat="43.80878397529128" lon="12.22799095748645"><ele>398.0</ele><time>2026-04-11T08:14:20.999Z</time></trkpt><trkpt lat="43.8087072060518" lon="12.227874211821524"><ele>398.0</ele><time>2026-04-11T08:14:21.999Z</time></trkpt><trkpt lat="43.80862915364449" lon="12.227756838725707"><ele>398.0</ele><time>2026-04-11T08:14:22.999Z</time></trkpt><trkpt lat="43.80854732058928" lon="12.227643321368655"><ele>401.0</ele><time>2026-04-11T08:14:23.999Z</time></trkpt><trkpt lat="43.80845827578392" lon="12.227529995546373"><ele>404.0</ele><time>2026-04-11T08:14:24.999Z</time></trkpt><trkpt lat="43.80836793255592" lon="12.227416534335731"><ele>407.0</ele><time>2026-04-11T08:14:25.999Z</time></trkpt><trkpt lat="43.80827576148469" lon="12.227303324553946"><ele>410.0</ele><time>2026-04-11T08:14:26.999Z</time></trkpt><trkpt lat="43.80818056858756" lon="12.227187401617643"><ele>410.0</ele><time>2026-04-11T08:14:27.999Z</time></trkpt><trkpt lat="43.808077005737466" lon="12.227092075169923"><ele>410.0</ele><time>2026-04-11T08:14:28.999Z</time></trkpt><trkpt lat="43.80796655768753" lon="12.22700873437332"><ele>410.0</ele><time>2026-04-11T08:14:29.999Z</time></trkpt><trkpt lat="43.80785668352654" lon="12.226938205260028"><ele>410.0</ele><time>2026-04-11T08:14:30.998Z</time></trkpt><trkpt lat="43.80774851395888" lon="12.226880158495662"><ele>414.5</ele><time>2026-04-11T08:14:31.998Z</time></trkpt><trkpt lat="43.807643869485055" lon="12.2268260678998"><ele>419.0</ele><time>2026-04-11T08:14:32.998Z</time></trkpt><trkpt lat="43.8075391855371" lon="12.226767989002175"><ele>423.5</ele><time>2026-04-11T08:14:33.998Z</time></trkpt><trkpt lat="43.8074336154453" lon="12.226709537073948"><ele>428.0</ele><time>2026-04-11T08:14:34.998Z</time></trkpt><trkpt lat="43.807325073925824" lon="12.226655636871998"><ele>428.0</ele><time>2026-04-11T08:14:35.998Z</time></trkpt><trkpt lat="43.80721293783516" lon="12.226613299406923"><ele>428.0</ele><time>2026-04-11T08:14:36.998Z</time></trkpt><trkpt lat="43.80709558326499" lon="12.226596486893476"><ele>428.0</ele><time>2026-04-11T08:14:37.998Z</time></trkpt><trkpt lat="43.80697707267983" lon="12.226612416164912"><ele>428.0</ele><time>2026-04-11T08:14:38.998Z</time></trkpt><trkpt lat="43.80685909463503" lon="12.226654331451162"><ele>428.25</ele><time>2026-04-11T08:14:39.998Z</time></trkpt><trkpt lat="43.80674552006391" lon="12.226711609134453"><ele>428.5</ele><time>2026-04-11T08:14:40.998Z</time></trkpt><trkpt lat="43.80663246381568" lon="12.226775620194742"><ele>428.75</ele><time>2026-04-11T08:14:41.998Z</time></trkpt><trkpt lat="43.80650278863218" lon="12.226842891882347"><ele>429.0</ele><time>2026-04-11T08:14:42.998Z</time></trkpt><trkpt lat="43.8063955380168" lon="12.226910883933753"><ele>429.0</ele><time>2026-04-11T08:14:43.998Z</time></trkpt><trkpt lat="43.80630118155024" lon="12.226990548400062"><ele>429.0</ele><time>2026-04-11T08:14:44.998Z</time></trkpt><trkpt lat="43.8062032891806" lon="12.22704749885765"><ele>429.0</ele><time>2026-04-11T08:14:45.998Z</time></trkpt><trkpt lat="43.80610057284206" lon="12.227088658239412"><ele>429.0</ele><time>2026-04-11T08:14:46.998Z</time></trkpt><trkpt lat="43.8059919064719" lon="12.227124237916016"><ele>429.0</ele><time>2026-04-11T08:14:47.998Z</time></trkpt><trkpt lat="43.805881425786296" lon="12.227154695695075"><ele>429.79999999999995</ele><time>2026-04-11T08:14:48.998Z</time></trkpt><trkpt lat="43.805782932023035" lon="12.227170799635553"><ele>430.59999999999997</ele><time>2026-04-11T08:14:49.998Z</time></trkpt><trkpt lat="43.80569053671909" lon="12.227194561120847"><ele>431.4</ele><time>2026-04-11T08:14:50.998Z</time></trkpt><trkpt lat="43.805600870376765" lon="12.22721763805037"><ele>432.2</ele><time>2026-04-11T08:14:51.998Z</time></trkpt><trkpt lat="43.80550844855231" lon="12.227225839707195"><ele>433.0</ele><time>2026-04-11T08:14:52.998Z</time></trkpt><trkpt lat="43.80541807797716" lon="12.227196543217287"><ele>433.00000000000006</ele><time>2026-04-11T08:14:53.998Z</time></trkpt><trkpt lat="43.805346561431485" lon="12.227124911118379"><ele>433.0</ele><time>2026-04-11T08:14:54.998Z</time></trkpt><trkpt lat="43.80530280804929" lon="12.227024281728589"><ele>433.0</ele><time>2026-04-11T08:14:55.998Z</time></trkpt><trkpt lat="43.805292374053664" lon="12.226908070155885"><ele>433.0</ele><time>2026-04-11T08:14:56.998Z</time></trkpt><trkpt lat="43.80531447671413" lon="12.22680461020869"><ele>433.00000000000006</ele><time>2026-04-11T08:14:57.998Z</time></trkpt><trkpt lat="43.805345446238796" lon="12.226713970040652"><ele>433.0</ele><time>2026-04-11T08:14:59Z</time></trkpt><trkpt lat="43.80537796255907" lon="12.226611272753802"><ele>433.0</ele><time>2026-04-11T08:15:00Z</time></trkpt><trkpt lat="43.80540338054577" lon="12.226505470683962"><ele>432.99999999999994</ele><time>2026-04-11T08:15:01Z</time></trkpt><trkpt lat="43.80543172014357" lon="12.226388684006496"><ele>432.99999999999994</ele><time>2026-04-11T08:15:02Z</time></trkpt><trkpt lat="43.80545792968935" lon="12.226264750621164"><ele>433.0</ele><time>2026-04-11T08:15:03Z</time></trkpt><trkpt lat="43.80548156286025" lon="12.226135526560665"><ele>433.0</ele><time>2026-04-11T08:15:04Z</time></trkpt><trkpt lat="43.80549994417652" lon="12.226002171559829"><ele>431.2</ele><time>2026-04-11T08:15:05Z</time></trkpt><trkpt lat="43.80549031116571" lon="12.22586918055519"><ele>429.4</ele><time>2026-04-11T08:15:06Z</time></trkpt><trkpt lat="43.805455872874276" lon="12.225756998951427"><ele>427.59999999999997</ele><time>2026-04-11T08:15:07Z</time></trkpt><trkpt lat="43.80539355363703" lon="12.225658914958416"><ele>425.79999999999995</ele><time>2026-04-11T08:15:08Z</time></trkpt><trkpt lat="43.805318334879075" lon="12.22556596787561"><ele>424.0</ele><time>2026-04-11T08:15:09Z</time></trkpt><trkpt lat="43.8052279627066" lon="12.225487876495462"><ele>425.25</ele><time>2026-04-11T08:15:10Z</time></trkpt><trkpt lat="43.80512173679624" lon="12.225424770486"><ele>426.5</ele><time>2026-04-11T08:15:11Z</time></trkpt><trkpt lat="43.805019234533255" lon="12.225340512031105"><ele>427.75</ele><time>2026-04-11T08:15:12Z</time></trkpt><trkpt lat="43.8049239108639" lon="12.225236122773476"><ele>429.0</ele><time>2026-04-11T08:15:13Z</time></trkpt><trkpt lat="43.804827361793386" lon="12.225128929650616"><ele>429.0</ele><time>2026-04-11T08:15:14Z</time></trkpt><trkpt lat="43.804734269496194" lon="12.225029245021236"><ele>429.0</ele><time>2026-04-11T08:15:15Z</time></trkpt><trkpt lat="43.804645783065446" lon="12.224938299402377"><ele>429.0</ele><time>2026-04-11T08:15:16Z</time></trkpt><trkpt lat="43.80454646842489" lon="12.224879119386829"><ele>429.0</ele><time>2026-04-11T08:15:17Z</time></trkpt><trkpt lat="43.80443926021854" lon="12.224838052440935"><ele>429.0</ele><time>2026-04-11T08:15:18Z</time></trkpt><trkpt lat="43.80430939003802" lon="12.2249461490051"><ele>432.75</ele><time>2026-04-11T08:15:19Z</time></trkpt><trkpt lat="43.804206078285745" lon="12.225034547666388"><ele>436.5</ele><time>2026-04-11T08:15:20Z</time></trkpt><trkpt lat="43.804102392816155" lon="12.225118163321982"><ele>440.25</ele><time>2026-04-11T08:15:21Z</time></trkpt><trkpt lat="43.80399009530348" lon="12.225173389720991"><ele>444.0</ele><time>2026-04-11T08:15:22Z</time></trkpt><trkpt lat="43.80386851212072" lon="12.225204616841989"><ele>444.0</ele><time>2026-04-11T08:15:22.999Z</time></trkpt><trkpt lat="43.803752322614216" lon="12.225231372815081"><ele>444.0</ele><time>2026-04-11T08:15:23.999Z</time></trkpt><trkpt lat="43.80364245530865" lon="12.225261180948122"><ele>444.0</ele><time>2026-04-11T08:15:24.999Z</time></trkpt><trkpt lat="43.80353993732215" lon="12.22530292402952"><ele>444.0</ele><time>2026-04-11T08:15:25.999Z</time></trkpt><trkpt lat="43.80343863306603" lon="12.225346633219413"><ele>444.0</ele><time>2026-04-11T08:15:26.999Z</time></trkpt><trkpt lat="43.80333827800976" lon="12.225381039308315"><ele>443.4</ele><time>2026-04-11T08:15:27.999Z</time></trkpt><trkpt lat="43.80324143819101" lon="12.225376832251595"><ele>442.79999999999995</ele><time>2026-04-11T08:15:28.999Z</time></trkpt><trkpt lat="43.80315142057753" lon="12.225324011878724"><ele>442.20000000000005</ele><time>2026-04-11T08:15:29.999Z</time></trkpt><trkpt lat="43.80306645226412" lon="12.2252251299357"><ele>441.6</ele><time>2026-04-11T08:15:30.999Z</time></trkpt><trkpt lat="43.80300440548379" lon="12.225078565468916"><ele>441.0</ele><time>2026-04-11T08:15:31.999Z</time></trkpt><trkpt lat="43.80296611938126" lon="12.224915051061323"><ele>437.25</ele><time>2026-04-11T08:15:32.999Z</time></trkpt><trkpt lat="43.802926465833764" lon="12.224771381439774"><ele>433.5</ele><time>2026-04-11T08:15:33.999Z</time></trkpt><trkpt lat="43.80288167279039" lon="12.224629005638654"><ele>429.75</ele><time>2026-04-11T08:15:34.999Z</time></trkpt><trkpt lat="43.802834230607836" lon="12.224477853432445"><ele>426.0</ele><time>2026-04-11T08:15:35.999Z</time></trkpt><trkpt lat="43.80279585999326" lon="12.224328716177164"><ele>426.0</ele><time>2026-04-11T08:15:36.999Z</time></trkpt><trkpt lat="43.80277612461206" lon="12.224179790596985"><ele>426.0</ele><time>2026-04-11T08:15:37.999Z</time></trkpt><trkpt lat="43.80279625886513" lon="12.224026320284443"><ele>426.0</ele><time>2026-04-11T08:15:38.999Z</time></trkpt><trkpt lat="43.80283879254522" lon="12.223865809739765"><ele>426.0</ele><time>2026-04-11T08:15:39.999Z</time></trkpt><trkpt lat="43.80289730162593" lon="12.223708368854115"><ele>425.5</ele><time>2026-04-11T08:15:40.999Z</time></trkpt><trkpt lat="43.802956813829745" lon="12.223562500090742"><ele>425.0</ele><time>2026-04-11T08:15:41.999Z</time></trkpt><trkpt lat="43.80300891671462" lon="12.223418041468582"><ele>424.5</ele><time>2026-04-11T08:15:42.999Z</time></trkpt><trkpt lat="43.803048369883" lon="12.223250873692084"><ele>424.0</ele><time>2026-04-11T08:15:43.999Z</time></trkpt><trkpt lat="43.80307504987527" lon="12.223107526706945"><ele>422.75</ele><time>2026-04-11T08:15:44.999Z</time></trkpt><trkpt lat="43.80308106291296" lon="12.222944126070603"><ele>421.5</ele><time>2026-04-11T08:15:45.999Z</time></trkpt><trkpt lat="43.803066699747504" lon="12.222784515245317"><ele>420.25</ele><time>2026-04-11T08:15:46.999Z</time></trkpt><trkpt lat="43.80301972633471" lon="12.222626639035468"><ele>419.0</ele><time>2026-04-11T08:15:47.999Z</time></trkpt><trkpt lat="43.802941163971035" lon="12.222489790259559"><ele>419.0</ele><time>2026-04-11T08:15:48.999Z</time></trkpt><trkpt lat="43.80285869796568" lon="12.222364794093195"><ele>419.0</ele><time>2026-04-11T08:15:49.999Z</time></trkpt><trkpt lat="43.802777514888874" lon="12.222250762660105"><ele>419.0</ele><time>2026-04-11T08:15:50.999Z</time></trkpt><trkpt lat="43.80269385803647" lon="12.222139296740234"><ele>419.0</ele><time>2026-04-11T08:15:51.999Z</time></trkpt><trkpt lat="43.80260713456871" lon="12.2220377942822"><ele>426.0</ele><time>2026-04-11T08:15:52.999Z</time></trkpt><trkpt lat="43.802524027142745" lon="12.221933308592728"><ele>433.0</ele><time>2026-04-11T08:15:53.999Z</time></trkpt><trkpt lat="43.80246004082667" lon="12.221801643596985"><ele>440.0</ele><time>2026-04-11T08:15:54.999Z</time></trkpt><trkpt lat="43.80242383590864" lon="12.221633351379733"><ele>447.0</ele><time>2026-04-11T08:15:55.999Z</time></trkpt><trkpt lat="43.80239816227172" lon="12.221486386607193"><ele>443.20000000000005</ele><time>2026-04-11T08:15:56.999Z</time></trkpt><trkpt lat="43.80236865577287" lon="12.221341361727243"><ele>439.40000000000003</ele><time>2026-04-11T08:15:57.999Z</time></trkpt><trkpt lat="43.80232823103942" lon="12.221197109846763"><ele>435.59999999999997</ele><time>2026-04-11T08:15:58.999Z</time></trkpt><trkpt lat="43.80228674893512" lon="12.221056942090305"><ele>431.79999999999995</ele><time>2026-04-11T08:15:59.999Z</time></trkpt><trkpt lat="43.80224547507148" lon="12.220919059184993"><ele>428.0</ele><time>2026-04-11T08:16:00.999Z</time></trkpt><trkpt lat="43.802205503047276" lon="12.220779376692965"><ele>424.0</ele><time>2026-04-11T08:16:01.999Z</time></trkpt><trkpt lat="43.802162263313015" lon="12.220644150383247"><ele>420.0</ele><time>2026-04-11T08:16:02.999Z</time></trkpt><trkpt lat="43.80211407371589" lon="12.220502006121205"><ele>416.0</ele><time>2026-04-11T08:16:03.999Z</time></trkpt><trkpt lat="43.80205630213023" lon="12.220363939363322"><ele>412.0</ele><time>2026-04-11T08:16:04.999Z</time></trkpt><trkpt lat="43.80199420523516" lon="12.220230249801023"><ele>412.0</ele><time>2026-04-11T08:16:05.999Z</time></trkpt><trkpt lat="43.80192177692126" lon="12.220103092443358"><ele>412.0</ele><time>2026-04-11T08:16:06.999Z</time></trkpt><trkpt lat="43.80185267479567" lon="12.219973531609147"><ele>412.0</ele><time>2026-04-11T08:16:07.999Z</time></trkpt><trkpt lat="43.80179595045826" lon="12.219838996845237"><ele>412.0</ele><time>2026-04-11T08:16:08.999Z</time></trkpt><trkpt lat="43.801743288836114" lon="12.219715479150018"><ele>412.0</ele><time>2026-04-11T08:16:09.999Z</time></trkpt><trkpt lat="43.801691117704614" lon="12.219605175696913"><ele>416.0</ele><time>2026-04-11T08:16:10.999Z</time></trkpt><trkpt lat="43.8016217845902" lon="12.219516603378736"><ele>420.0</ele><time>2026-04-11T08:16:11.999Z</time></trkpt><trkpt lat="43.801525363703924" lon="12.219455538253966"><ele>424.00000000000006</ele><time>2026-04-11T08:16:12.999Z</time></trkpt><trkpt lat="43.80142310299789" lon="12.219427309354742"><ele>428.0</ele><time>2026-04-11T08:16:13.999Z</time></trkpt><trkpt lat="43.80133082102612" lon="12.219430153126968"><ele>432.0</ele><time>2026-04-11T08:16:14.999Z</time></trkpt><trkpt lat="43.801240916693935" lon="12.219437093810848"><ele>432.0</ele><time>2026-04-11T08:16:15.999Z</time></trkpt><trkpt lat="43.80115270453379" lon="12.219443909568113"><ele>432.0</ele><time>2026-04-11T08:16:16.999Z</time></trkpt><trkpt lat="43.80106706163606" lon="12.219418642500885"><ele>432.0</ele><time>2026-04-11T08:16:17.999Z</time></trkpt><trkpt lat="43.800997200348945" lon="12.219362676078553"><ele>432.0</ele><time>2026-04-11T08:16:18.999Z</time></trkpt><trkpt lat="43.80093736392786" lon="12.219281721374342"><ele>432.0</ele><time>2026-04-11T08:16:19.999Z</time></trkpt><trkpt lat="43.80090988923957" lon="12.219164355261174"><ele>432.0</ele><time>2026-04-11T08:16:20.999Z</time></trkpt><trkpt lat="43.80090598905502" lon="12.219021069878606"><ele>434.20000000000005</ele><time>2026-04-11T08:16:21.999Z</time></trkpt><trkpt lat="43.80091852772041" lon="12.218873157399424"><ele>436.40000000000003</ele><time>2026-04-11T08:16:22.999Z</time></trkpt><trkpt lat="43.800940100594026" lon="12.218729518386175"><ele>438.59999999999997</ele><time>2026-04-11T08:16:23.999Z</time></trkpt><trkpt lat="43.80096059115852" lon="12.218583904612805"><ele>440.79999999999995</ele><time>2026-04-11T08:16:24.999Z</time></trkpt><trkpt lat="43.80096654727235" lon="12.218425262551365"><ele>443.0</ele><time>2026-04-11T08:16:25.999Z</time></trkpt><trkpt lat="43.80094018856161" lon="12.218268694636514"><ele>437.25</ele><time>2026-04-11T08:16:26.999Z</time></trkpt><trkpt lat="43.80087652351237" lon="12.218112975985816"><ele>431.5</ele><time>2026-04-11T08:16:27.999Z</time></trkpt><trkpt lat="43.80080548921083" lon="12.217978101243"><ele>425.75</ele><time>2026-04-11T08:16:28.999Z</time></trkpt><trkpt lat="43.80073496929413" lon="12.217845677658525"><ele>420.0</ele><time>2026-04-11T08:16:29.999Z</time></trkpt><trkpt lat="43.80065813039015" lon="12.217714874964836"><ele>420.0</ele><time>2026-04-11T08:16:30.999Z</time></trkpt><trkpt lat="43.80056784810995" lon="12.217588224417293"><ele>420.0</ele><time>2026-04-11T08:16:31.999Z</time></trkpt><trkpt lat="43.80046165235735" lon="12.21747430639459"><ele>420.0</ele><time>2026-04-11T08:16:32.999Z</time></trkpt><trkpt lat="43.800354759366776" lon="12.217376103220497"><ele>420.0</ele><time>2026-04-11T08:16:33.999Z</time></trkpt><trkpt lat="43.800259531130784" lon="12.217274120475494"><ele>423.5</ele><time>2026-04-11T08:16:34.999Z</time></trkpt><trkpt lat="43.800175797605974" lon="12.217149227873248"><ele>427.0</ele><time>2026-04-11T08:16:35.999Z</time></trkpt><trkpt lat="43.800105607670304" lon="12.217011707047378"><ele>430.5</ele><time>2026-04-11T08:16:36.999Z</time></trkpt><trkpt lat="43.80003985306386" lon="12.216878846505272"><ele>434.0</ele><time>2026-04-11T08:16:37.999Z</time></trkpt><trkpt lat="43.79996478289403" lon="12.216765618368044"><ele>434.0</ele><time>2026-04-11T08:16:38.999Z</time></trkpt><trkpt lat="43.79987808416988" lon="12.216678709256634"><ele>434.0</ele><time>2026-04-11T08:16:39.999Z</time></trkpt><trkpt lat="43.79976581767204" lon="12.216603887926704"><ele>434.0</ele><time>2026-04-11T08:16:40.999Z</time></trkpt><trkpt lat="43.799651122690946" lon="12.216553986518264"><ele>434.0</ele><time>2026-04-11T08:16:41.999Z</time></trkpt><trkpt lat="43.79952426849507" lon="12.21653732180909"><ele>434.0</ele><time>2026-04-11T08:16:42.999Z</time></trkpt><trkpt lat="43.79941160043833" lon="12.216502838839382"><ele>434.0</ele><time>2026-04-11T08:16:43.998Z</time></trkpt><trkpt lat="43.79929895398976" lon="12.216468753693722"><ele>434.0</ele><time>2026-04-11T08:16:44.998Z</time></trkpt><trkpt lat="43.79918882724107" lon="12.216443811427267"><ele>434.0</ele><time>2026-04-11T08:16:45.998Z</time></trkpt><trkpt lat="43.79908443435765" lon="12.216395279978267"><ele>433.79999999999995</ele><time>2026-04-11T08:16:46.998Z</time></trkpt><trkpt lat="43.79900309343024" lon="12.21631020825346"><ele>433.59999999999997</ele><time>2026-04-11T08:16:47.998Z</time></trkpt><trkpt lat="43.798951513092895" lon="12.216164142559345"><ele>433.4</ele><time>2026-04-11T08:16:48.998Z</time></trkpt><trkpt lat="43.79893450302256" lon="12.216011386780483"><ele>433.2</ele><time>2026-04-11T08:16:49.998Z</time></trkpt><trkpt lat="43.79894780657697" lon="12.215866038392402"><ele>433.0</ele><time>2026-04-11T08:16:50.998Z</time></trkpt><trkpt lat="43.79895366502213" lon="12.215730493736856"><ele>430.0</ele><time>2026-04-11T08:16:51.998Z</time></trkpt><trkpt lat="43.79892815300187" lon="12.21560742236117"><ele>426.99999999999994</ele><time>2026-04-11T08:16:52.998Z</time></trkpt><trkpt lat="43.79887029404327" lon="12.21548398766011"><ele>424.0</ele><time>2026-04-11T08:16:53.998Z</time></trkpt><trkpt lat="43.798798648294" lon="12.215383376552648"><ele>421.0</ele><time>2026-04-11T08:16:54.998Z</time></trkpt><trkpt lat="43.798721478965454" lon="12.215274975835053"><ele>418.0</ele><time>2026-04-11T08:16:55.998Z</time></trkpt><trkpt lat="43.79864443205782" lon="12.215160146571556"><ele>418.0</ele><time>2026-04-11T08:16:56.998Z</time></trkpt><trkpt lat="43.798563475940114" lon="12.21503652824046"><ele>418.0</ele><time>2026-04-11T08:16:57.998Z</time></trkpt><trkpt lat="43.79847461176755" lon="12.21491119043286"><ele>418.0</ele><time>2026-04-11T08:16:58.998Z</time></trkpt><trkpt lat="43.798396441651605" lon="12.21478589227929"><ele>418.0</ele><time>2026-04-11T08:16:59.998Z</time></trkpt><trkpt lat="43.79832937474957" lon="12.214649364000254"><ele>422.5</ele><time>2026-04-11T08:17:00.998Z</time></trkpt><trkpt lat="43.79826969576641" lon="12.214511198734893"><ele>427.0</ele><time>2026-04-11T08:17:01.998Z</time></trkpt><trkpt lat="43.79821501551354" lon="12.214367345108977"><ele>431.5</ele><time>2026-04-11T08:17:02.998Z</time></trkpt><trkpt lat="43.79816710729122" lon="12.21422169853017"><ele>436.0</ele><time>2026-04-11T08:17:03.998Z</time></trkpt><trkpt lat="43.79812358622705" lon="12.214072495580602"><ele>433.4</ele><time>2026-04-11T08:17:05Z</time></trkpt><trkpt lat="43.79808797231232" lon="12.213921262743336"><ele>430.8</ele><time>2026-04-11T08:17:06Z</time></trkpt><trkpt lat="43.7980501014435" lon="12.213777804857514"><ele>428.2</ele><time>2026-04-11T08:17:07Z</time></trkpt><trkpt lat="43.79799656675493" lon="12.213644387426681"><ele>425.59999999999997</ele><time>2026-04-11T08:17:08Z</time></trkpt><trkpt lat="43.79791349470031" lon="12.213535879690777"><ele>423.0</ele><time>2026-04-11T08:17:09Z</time></trkpt><trkpt lat="43.79780895080648" lon="12.213443718153268"><ele>423.0</ele><time>2026-04-11T08:17:10Z</time></trkpt><trkpt lat="43.797709502526224" lon="12.213364278739965"><ele>423.0</ele><time>2026-04-11T08:17:11Z</time></trkpt><trkpt lat="43.797609726948544" lon="12.213286220993446"><ele>423.0</ele><time>2026-04-11T08:17:12Z</time></trkpt><trkpt lat="43.79751430770804" lon="12.213202480426071"><ele>423.0</ele><time>2026-04-11T08:17:13Z</time></trkpt><trkpt lat="43.7974299298372" lon="12.213097724177215"><ele>425.0</ele><time>2026-04-11T08:17:14Z</time></trkpt><trkpt lat="43.797350236165016" lon="12.212962844429006"><ele>427.0</ele><time>2026-04-11T08:17:15Z</time></trkpt><trkpt lat="43.79727787098719" lon="12.212828736893634"><ele>429.0</ele><time>2026-04-11T08:17:16Z</time></trkpt><trkpt lat="43.7972092603207" lon="12.212695833557754"><ele>431.0</ele><time>2026-04-11T08:17:17Z</time></trkpt><trkpt lat="43.79714162186091" lon="12.212561930562892"><ele>431.0</ele><time>2026-04-11T08:17:18Z</time></trkpt><trkpt lat="43.7971174691417" lon="12.212394020568762"><ele>431.0</ele><time>2026-04-11T08:17:19Z</time></trkpt><trkpt lat="43.79697226001429" lon="12.21231196352274"><ele>431.0</ele><time>2026-04-11T08:17:20Z</time></trkpt><trkpt lat="43.79687871926558" lon="12.21219827305704"><ele>431.0</ele><time>2026-04-11T08:17:21Z</time></trkpt><trkpt lat="43.79678092971153" lon="12.21208195587688"><ele>430.25</ele><time>2026-04-11T08:17:22Z</time></trkpt><trkpt lat="43.79668462099439" lon="12.211974014662818"><ele>429.5</ele><time>2026-04-11T08:17:23Z</time></trkpt><trkpt lat="43.79658864846336" lon="12.211872382426433"><ele>428.75</ele><time>2026-04-11T08:17:24Z</time></trkpt><trkpt lat="43.79649108137259" lon="12.21178001706383"><ele>428.0</ele><time>2026-04-11T08:17:25Z</time></trkpt><trkpt lat="43.79638824249335" lon="12.211696692723223"><ele>428.0</ele><time>2026-04-11T08:17:26Z</time></trkpt><trkpt lat="43.796286557428395" lon="12.211620126877271"><ele>428.0</ele><time>2026-04-11T08:17:27Z</time></trkpt><trkpt lat="43.79618300699409" lon="12.21154130186815"><ele>428.0</ele><time>2026-04-11T08:17:28Z</time></trkpt><trkpt lat="43.79607894155079" lon="12.21146299217655"><ele>428.0</ele><time>2026-04-11T08:17:29Z</time></trkpt><trkpt lat="43.79597267486209" lon="12.211393060512203"><ele>426.5</ele><time>2026-04-11T08:17:30Z</time></trkpt><trkpt lat="43.795865572936876" lon="12.211320955633395"><ele>425.0</ele><time>2026-04-11T08:17:31Z</time></trkpt><trkpt lat="43.79575625701993" lon="12.21124868365144"><ele>423.5</ele><time>2026-04-11T08:17:32Z</time></trkpt><trkpt lat="43.79564788198436" lon="12.211183699891283"><ele>422.0</ele><time>2026-04-11T08:17:33Z</time></trkpt><trkpt lat="43.79553493180475" lon="12.211122638276724"><ele>422.0</ele><time>2026-04-11T08:17:34Z</time></trkpt><trkpt lat="43.79542565882514" lon="12.211072869733599"><ele>422.0</ele><time>2026-04-11T08:17:34.999Z</time></trkpt><trkpt lat="43.795316156257556" lon="12.211024548086495"><ele>422.0</ele><time>2026-04-11T08:17:35.999Z</time></trkpt><trkpt lat="43.79519836090979" lon="12.210971371953553"><ele>422.0</ele><time>2026-04-11T08:17:36.999Z</time></trkpt><trkpt lat="43.79508744455418" lon="12.210927211210667"><ele>424.0</ele><time>2026-04-11T08:17:37.999Z</time></trkpt><trkpt lat="43.79497199693946" lon="12.210899426626082"><ele>426.0</ele><time>2026-04-11T08:17:38.999Z</time></trkpt><trkpt lat="43.79485276457919" lon="12.210886637605544"><ele>428.0</ele><time>2026-04-11T08:17:39.999Z</time></trkpt><trkpt lat="43.794737682660966" lon="12.210846164306695"><ele>430.0</ele><time>2026-04-11T08:17:40.999Z</time></trkpt><trkpt lat="43.794619006321554" lon="12.210821637912675"><ele>430.0</ele><time>2026-04-11T08:17:41.999Z</time></trkpt><trkpt lat="43.794487975779" lon="12.21092271859689"><ele>430.0</ele><time>2026-04-11T08:17:42.999Z</time></trkpt><trkpt lat="43.79436604857888" lon="12.210961089379829"><ele>430.0</ele><time>2026-04-11T08:17:43.999Z</time></trkpt><trkpt lat="43.79424406761902" lon="12.21100977976202"><ele>430.0</ele><time>2026-04-11T08:17:44.999Z</time></trkpt><trkpt lat="43.79412169843434" lon="12.211067106741478"><ele>429.5</ele><time>2026-04-11T08:17:45.999Z</time></trkpt><trkpt lat="43.7940017130011" lon="12.211139953781869"><ele>429.0</ele><time>2026-04-11T08:17:46.999Z</time></trkpt><trkpt lat="43.7938803680126" lon="12.2112141235919"><ele>428.5</ele><time>2026-04-11T08:17:47.999Z</time></trkpt><trkpt lat="43.79375975816996" lon="12.211289748606102"><ele>428.0</ele><time>2026-04-11T08:17:48.999Z</time></trkpt><trkpt lat="43.793633156933005" lon="12.211359094137315"><ele>428.0</ele><time>2026-04-11T08:17:49.999Z</time></trkpt><trkpt lat="43.79351280239779" lon="12.21142656147478"><ele>428.0</ele><time>2026-04-11T08:17:50.999Z</time></trkpt><trkpt lat="43.793395741916086" lon="12.211497689444629"><ele>428.0</ele><time>2026-04-11T08:17:51.999Z</time></trkpt><trkpt lat="43.793279253526485" lon="12.211565620045183"><ele>428.0</ele><time>2026-04-11T08:17:52.999Z</time></trkpt><trkpt lat="43.79316224783043" lon="12.211630558615429"><ele>430.25</ele><time>2026-04-11T08:17:53.999Z</time></trkpt><trkpt lat="43.79304912409652" lon="12.211695378629607"><ele>432.5</ele><time>2026-04-11T08:17:54.999Z</time></trkpt><trkpt lat="43.79293766953611" lon="12.211758901578664"><ele>434.75</ele><time>2026-04-11T08:17:55.999Z</time></trkpt><trkpt lat="43.79282604663834" lon="12.21181720303197"><ele>437.0</ele><time>2026-04-11T08:17:56.999Z</time></trkpt><trkpt lat="43.7927106421665" lon="12.211871591193935"><ele>434.0</ele><time>2026-04-11T08:17:57.999Z</time></trkpt><trkpt lat="43.79259354222546" lon="12.211914316370569"><ele>431.0</ele><time>2026-04-11T08:17:58.999Z</time></trkpt><trkpt lat="43.792477005100785" lon="12.21194040275451"><ele>428.0</ele><time>2026-04-11T08:17:59.999Z</time></trkpt><trkpt lat="43.79235764889544" lon="12.211955393419617"><ele>425.0</ele><time>2026-04-11T08:18:00.999Z</time></trkpt><trkpt lat="43.792237730496765" lon="12.211968073248151"><ele>425.0</ele><time>2026-04-11T08:18:01.999Z</time></trkpt><trkpt lat="43.79212080473292" lon="12.211978896961135"><ele>425.0</ele><time>2026-04-11T08:18:02.999Z</time></trkpt><trkpt lat="43.792005887934565" lon="12.211972326538774"><ele>425.0</ele><time>2026-04-11T08:18:03.999Z</time></trkpt><trkpt lat="43.79189862047626" lon="12.211936793597733"><ele>425.0</ele><time>2026-04-11T08:18:04.999Z</time></trkpt><trkpt lat="43.79180615972107" lon="12.211857233620965"><ele>426.2</ele><time>2026-04-11T08:18:05.999Z</time></trkpt><trkpt lat="43.79173196091304" lon="12.2117540972239"><ele>427.4</ele><time>2026-04-11T08:18:06.999Z</time></trkpt><trkpt lat="43.79168745308723" lon="12.211625160909643"><ele>428.6</ele><time>2026-04-11T08:18:07.999Z</time></trkpt><trkpt lat="43.79167426776355" lon="12.21147547300774"><ele>429.8</ele><time>2026-04-11T08:18:08.999Z</time></trkpt><trkpt lat="43.79167439502031" lon="12.211323442061444"><ele>431.0</ele><time>2026-04-11T08:18:09.999Z</time></trkpt><trkpt lat="43.791681721450814" lon="12.211168075465507"><ele>431.0</ele><time>2026-04-11T08:18:10.999Z</time></trkpt><trkpt lat="43.79168940179774" lon="12.211008880419232"><ele>431.0</ele><time>2026-04-11T08:18:11.999Z</time></trkpt><trkpt lat="43.79169973174825" lon="12.210855695394528"><ele>431.0</ele><time>2026-04-11T08:18:12.999Z</time></trkpt><trkpt lat="43.79171011749749" lon="12.210705639702232"><ele>431.0</ele><time>2026-04-11T08:18:13.999Z</time></trkpt><trkpt lat="43.79171561907281" lon="12.210561359581007"><ele>431.0</ele><time>2026-04-11T08:18:14.999Z</time></trkpt><trkpt lat="43.79171473384405" lon="12.210425608209142"><ele>431.0</ele><time>2026-04-11T08:18:15.999Z</time></trkpt><trkpt lat="43.791712951143005" lon="12.21029632023248"><ele>431.0</ele><time>2026-04-11T08:18:16.999Z</time></trkpt><trkpt lat="43.791712652259314" lon="12.210168549348332"><ele>431.0</ele><time>2026-04-11T08:18:17.999Z</time></trkpt><trkpt lat="43.79169831110657" lon="12.2100349957045"><ele>431.0</ele><time>2026-04-11T08:18:18.999Z</time></trkpt><trkpt lat="43.79165921226742" lon="12.209907276072817"><ele>431.0</ele><time>2026-04-11T08:18:19.999Z</time></trkpt><trkpt lat="43.79158538479831" lon="12.209801048672903"><ele>427.5</ele><time>2026-04-11T08:18:20.999Z</time></trkpt><trkpt lat="43.791487924667976" lon="12.209715854089783"><ele>424.0</ele><time>2026-04-11T08:18:21.999Z</time></trkpt><trkpt lat="43.791379663125184" lon="12.20965296497901"><ele>420.5</ele><time>2026-04-11T08:18:22.999Z</time></trkpt><trkpt lat="43.79126535752182" lon="12.209604543753992"><ele>417.0</ele><time>2026-04-11T08:18:23.999Z</time></trkpt><trkpt lat="43.791146234685336" lon="12.209578172883196"><ele>417.0</ele><time>2026-04-11T08:18:24.999Z</time></trkpt><trkpt lat="43.79102627299034" lon="12.20955862190626"><ele>417.0</ele><time>2026-04-11T08:18:25.999Z</time></trkpt><trkpt lat="43.79090714506273" lon="12.209553130885542"><ele>417.0</ele><time>2026-04-11T08:18:26.999Z</time></trkpt><trkpt lat="43.790789990881606" lon="12.209545888850426"><ele>417.0</ele><time>2026-04-11T08:18:27.999Z</time></trkpt><trkpt lat="43.7906736553504" lon="12.209533403037039"><ele>418.75</ele><time>2026-04-11T08:18:28.999Z</time></trkpt><trkpt lat="43.79055395818193" lon="12.209527602250764"><ele>420.5</ele><time>2026-04-11T08:18:29.999Z</time></trkpt><trkpt lat="43.79042952532292" lon="12.20952260906585"><ele>422.25</ele><time>2026-04-11T08:18:30.999Z</time></trkpt><trkpt lat="43.790300543933206" lon="12.20952477478676"><ele>424.0</ele><time>2026-04-11T08:18:31.999Z</time></trkpt><trkpt lat="43.79017946783117" lon="12.209533455076134"><ele>424.0</ele><time>2026-04-11T08:18:32.999Z</time></trkpt><trkpt lat="43.79006350488599" lon="12.209548912939635"><ele>424.0</ele><time>2026-04-11T08:18:33.999Z</time></trkpt><trkpt lat="43.7899504779428" lon="12.209565044297673"><ele>424.0</ele><time>2026-04-11T08:18:34.999Z</time></trkpt><trkpt lat="43.78983782955787" lon="12.209588405965233"><ele>424.0</ele><time>2026-04-11T08:18:35.999Z</time></trkpt><trkpt lat="43.7897258508081" lon="12.209618994468968"><ele>424.0</ele><time>2026-04-11T08:18:36.999Z</time></trkpt><trkpt lat="43.789612247500145" lon="12.20965075164279"><ele>424.0</ele><time>2026-04-11T08:18:37.999Z</time></trkpt><trkpt lat="43.78949609802935" lon="12.209683976029739"><ele>424.0</ele><time>2026-04-11T08:18:38.999Z</time></trkpt><trkpt lat="43.789377597016774" lon="12.209719947009003"><ele>424.0</ele><time>2026-04-11T08:18:39.999Z</time></trkpt><trkpt lat="43.78926154762956" lon="12.209773999873963"><ele>426.75</ele><time>2026-04-11T08:18:40.999Z</time></trkpt><trkpt lat="43.789152104493525" lon="12.209851111853034"><ele>429.5</ele><time>2026-04-11T08:18:41.999Z</time></trkpt><trkpt lat="43.7890429526119" lon="12.209939649947598"><ele>432.25</ele><time>2026-04-11T08:18:42.999Z</time></trkpt><trkpt lat="43.78894577520168" lon="12.210034653298818"><ele>435.0</ele><time>2026-04-11T08:18:43.999Z</time></trkpt><trkpt lat="43.788855625559776" lon="12.210131365512623"><ele>435.0</ele><time>2026-04-11T08:18:44.999Z</time></trkpt><trkpt lat="43.788766237060706" lon="12.210219072550226"><ele>435.0</ele><time>2026-04-11T08:18:45.999Z</time></trkpt><trkpt lat="43.78867090983494" lon="12.21030384830449"><ele>435.0</ele><time>2026-04-11T08:18:46.999Z</time></trkpt><trkpt lat="43.788570228380195" lon="12.210384248727125"><ele>435.0</ele><time>2026-04-11T08:18:47.999Z</time></trkpt><trkpt lat="43.7884641026593" lon="12.21045392767567"><ele>432.25</ele><time>2026-04-11T08:18:48.999Z</time></trkpt><trkpt lat="43.78835110673303" lon="12.210500108722869"><ele>429.5</ele><time>2026-04-11T08:18:49.999Z</time></trkpt><trkpt lat="43.78822972441173" lon="12.210509481660413"><ele>426.75</ele><time>2026-04-11T08:18:50.999Z</time></trkpt><trkpt lat="43.78810650713964" lon="12.21048838943321"><ele>424.0</ele><time>2026-04-11T08:18:51.999Z</time></trkpt><trkpt lat="43.78798602820927" lon="12.210437215517887"><ele>424.0</ele><time>2026-04-11T08:18:52.999Z</time></trkpt><trkpt lat="43.78787500652649" lon="12.210358533769016"><ele>424.0</ele><time>2026-04-11T08:18:53.999Z</time></trkpt><trkpt lat="43.787771392311654" lon="12.21027870716556"><ele>424.0</ele><time>2026-04-11T08:18:54.999Z</time></trkpt><trkpt lat="43.78766752165966" lon="12.210197515158338"><ele>424.0</ele><time>2026-04-11T08:18:55.999Z</time></trkpt><trkpt lat="43.787563981420206" lon="12.210116331080563"><ele>424.5</ele><time>2026-04-11T08:18:56.998Z</time></trkpt><trkpt lat="43.78746500564914" lon="12.210031424323088"><ele>425.0</ele><time>2026-04-11T08:18:57.998Z</time></trkpt><trkpt lat="43.787369889637574" lon="12.2099404012583"><ele>425.5</ele><time>2026-04-11T08:18:58.998Z</time></trkpt><trkpt lat="43.787271691008925" lon="12.209855235902623"><ele>426.0</ele><time>2026-04-11T08:18:59.998Z</time></trkpt><trkpt lat="43.78715808814652" lon="12.209801719786562"><ele>427.0</ele><time>2026-04-11T08:19:00.998Z</time></trkpt><trkpt lat="43.787032219179885" lon="12.209789482291395"><ele>428.0</ele><time>2026-04-11T08:19:01.998Z</time></trkpt><trkpt lat="43.78690986891697" lon="12.209811808983934"><ele>429.0</ele><time>2026-04-11T08:19:02.998Z</time></trkpt><trkpt lat="43.786795137016185" lon="12.209860286725915"><ele>430.0</ele><time>2026-04-11T08:19:03.998Z</time></trkpt><trkpt lat="43.78667979212471" lon="12.209910274836988"><ele>430.0</ele><time>2026-04-11T08:19:04.998Z</time></trkpt><trkpt lat="43.786567895329206" lon="12.209958606214633"><ele>430.0</ele><time>2026-04-11T08:19:05.998Z</time></trkpt><trkpt lat="43.786456207645585" lon="12.210011514390457"><ele>430.0</ele><time>2026-04-11T08:19:06.998Z</time></trkpt><trkpt lat="43.78634692668785" lon="12.210062545821811"><ele>430.0</ele><time>2026-04-11T08:19:07.998Z</time></trkpt><trkpt lat="43.78623767966362" lon="12.21009766612265"><ele>430.0</ele><time>2026-04-11T08:19:08.998Z</time></trkpt><trkpt lat="43.78612006611641" lon="12.210087168573134"><ele>430.0</ele><time>2026-04-11T08:19:09.998Z</time></trkpt><trkpt lat="43.78600387455011" lon="12.210045121120228"><ele>430.0</ele><time>2026-04-11T08:19:11Z</time></trkpt><trkpt lat="43.785892052724996" lon="12.210001103306215"><ele>430.0</ele><time>2026-04-11T08:19:12Z</time></trkpt><trkpt lat="43.785776836325844" lon="12.209977689964967"><ele>429.0</ele><time>2026-04-11T08:19:13Z</time></trkpt><trkpt lat="43.785664866042325" lon="12.2099710238875"><ele>428.0</ele><time>2026-04-11T08:19:14Z</time></trkpt><trkpt lat="43.78554981626741" lon="12.209974619653376"><ele>427.0</ele><time>2026-04-11T08:19:15Z</time></trkpt><trkpt lat="43.78543573878231" lon="12.209983347856943"><ele>426.0</ele><time>2026-04-11T08:19:16Z</time></trkpt><trkpt lat="43.785322041975704" lon="12.210001237595838"><ele>426.0</ele><time>2026-04-11T08:19:17Z</time></trkpt><trkpt lat="43.785212610891094" lon="12.210033414599835"><ele>426.0</ele><time>2026-04-11T08:19:18Z</time></trkpt><trkpt lat="43.78511046006256" lon="12.210099241326745"><ele>426.0</ele><time>2026-04-11T08:19:19Z</time></trkpt><trkpt lat="43.78502893658889" lon="12.210209768514867"><ele>426.0</ele><time>2026-04-11T08:19:20Z</time></trkpt><trkpt lat="43.7849683833808" lon="12.210352702095047"><ele>426.0</ele><time>2026-04-11T08:19:21Z</time></trkpt><trkpt lat="43.7849136140063" lon="12.210508170117349"><ele>426.0</ele><time>2026-04-11T08:19:22Z</time></trkpt><trkpt lat="43.78486606772126" lon="12.2106513346179"><ele>426.0</ele><time>2026-04-11T08:19:23Z</time></trkpt><trkpt lat="43.7848219967109" lon="12.210789280441194"><ele>426.0</ele><time>2026-04-11T08:19:24Z</time></trkpt><trkpt lat="43.78476760054671" lon="12.21091251065066"><ele>426.0</ele><time>2026-04-11T08:19:25Z</time></trkpt><trkpt lat="43.784687830372526" lon="12.211000109469285"><ele>426.0</ele><time>2026-04-11T08:19:26Z</time></trkpt><trkpt lat="43.78458795683524" lon="12.21105243494134"><ele>426.0</ele><time>2026-04-11T08:19:27Z</time></trkpt><trkpt lat="43.78448021798791" lon="12.21109648501992"><ele>426.0</ele><time>2026-04-11T08:19:28Z</time></trkpt><trkpt lat="43.78436659663868" lon="12.211130580620166"><ele>426.0</ele><time>2026-04-11T08:19:29Z</time></trkpt><trkpt lat="43.784245577436224" lon="12.211131599663647"><ele>424.75</ele><time>2026-04-11T08:19:30Z</time></trkpt><trkpt lat="43.78412105523313" lon="12.211092326225474"><ele>423.5</ele><time>2026-04-11T08:19:31Z</time></trkpt><trkpt lat="43.7839894780382" lon="12.211043118003246"><ele>422.25</ele><time>2026-04-11T08:19:32Z</time></trkpt><trkpt lat="43.78387301651788" lon="12.21099452167361"><ele>421.0</ele><time>2026-04-11T08:19:33Z</time></trkpt><trkpt lat="43.783748907294196" lon="12.210952165242311"><ele>421.0</ele><time>2026-04-11T08:19:34Z</time></trkpt><trkpt lat="43.783628906201805" lon="12.210905737931165"><ele>421.0</ele><time>2026-04-11T08:19:35Z</time></trkpt><trkpt lat="43.783513121567324" lon="12.210855777944134"><ele>421.0</ele><time>2026-04-11T08:19:36Z</time></trkpt><trkpt lat="43.78339832605584" lon="12.210804982977434"><ele>421.0</ele><time>2026-04-11T08:19:37Z</time></trkpt><trkpt lat="43.783291543850304" lon="12.210758541297867"><ele>421.8</ele><time>2026-04-11T08:19:38Z</time></trkpt><trkpt lat="43.78318781755857" lon="12.210716029655888"><ele>422.6</ele><time>2026-04-11T08:19:39Z</time></trkpt><trkpt lat="43.78309063413155" lon="12.210669393703522"><ele>423.4</ele><time>2026-04-11T08:19:40Z</time></trkpt><trkpt lat="43.78299386218766" lon="12.210633301994479"><ele>424.2</ele><time>2026-04-11T08:19:41Z</time></trkpt><trkpt lat="43.78289724893862" lon="12.210606881147646"><ele>425.0</ele><time>2026-04-11T08:19:42Z</time></trkpt><trkpt lat="43.782794096996795" lon="12.210584293741658"><ele>422.4</ele><time>2026-04-11T08:19:43Z</time></trkpt><trkpt lat="43.782688838059656" lon="12.210563728811277"><ele>419.8</ele><time>2026-04-11T08:19:44Z</time></trkpt><trkpt lat="43.782581511764164" lon="12.210549479944403"><ele>417.20000000000005</ele><time>2026-04-11T08:19:45Z</time></trkpt><trkpt lat="43.78247669543175" lon="12.21053796232288"><ele>414.6</ele><time>2026-04-11T08:19:46Z</time></trkpt><trkpt lat="43.78237704078526" lon="12.210520432869675"><ele>412.0</ele><time>2026-04-11T08:19:46.999Z</time></trkpt><trkpt lat="43.78228484744037" lon="12.210503415389644"><ele>412.0</ele><time>2026-04-11T08:19:47.999Z</time></trkpt><trkpt lat="43.78219320996683" lon="12.210492669621006"><ele>412.0</ele><time>2026-04-11T08:19:48.999Z</time></trkpt><trkpt lat="43.78210521340553" lon="12.210485128679563"><ele>412.0</ele><time>2026-04-11T08:19:49.999Z</time></trkpt><trkpt lat="43.78201688080926" lon="12.210463163599535"><ele>412.0</ele><time>2026-04-11T08:19:50.999Z</time></trkpt><trkpt lat="43.781926869619646" lon="12.210423617234122"><ele>412.0</ele><time>2026-04-11T08:19:51.999Z</time></trkpt><trkpt lat="43.78185102655472" lon="12.210345017206595"><ele>412.0</ele><time>2026-04-11T08:19:52.999Z</time></trkpt><trkpt lat="43.78179659218523" lon="12.210225970318813"><ele>412.0</ele><time>2026-04-11T08:19:53.999Z</time></trkpt><trkpt lat="43.781764946243335" lon="12.210087454605686"><ele>412.0</ele><time>2026-04-11T08:19:54.999Z</time></trkpt><trkpt lat="43.78174468418523" lon="12.209949911324038"><ele>412.0</ele><time>2026-04-11T08:19:55.999Z</time></trkpt><trkpt lat="43.78172771859011" lon="12.209814362254134"><ele>412.0</ele><time>2026-04-11T08:19:56.999Z</time></trkpt><trkpt lat="43.78171005267222" lon="12.209673864074064"><ele>412.0</ele><time>2026-04-11T08:19:57.999Z</time></trkpt><trkpt lat="43.781687366250715" lon="12.209526917234475"><ele>412.0</ele><time>2026-04-11T08:19:58.999Z</time></trkpt><trkpt lat="43.781665751448315" lon="12.20937930921424"><ele>412.0</ele><time>2026-04-11T08:19:59.999Z</time></trkpt><trkpt lat="43.78164282885115" lon="12.20922518332781"><ele>412.0</ele><time>2026-04-11T08:20:00.999Z</time></trkpt><trkpt lat="43.7816199818443" lon="12.209068979613109"><ele>412.0</ele><time>2026-04-11T08:20:01.999Z</time></trkpt><trkpt lat="43.78159478875734" lon="12.208908167133984"><ele>412.25</ele><time>2026-04-11T08:20:02.999Z</time></trkpt><trkpt lat="43.78156938260315" lon="12.20874304217367"><ele>412.5</ele><time>2026-04-11T08:20:03.999Z</time></trkpt><trkpt lat="43.78153710054462" lon="12.20858464743978"><ele>412.75</ele><time>2026-04-11T08:20:04.999Z</time></trkpt><trkpt lat="43.781492159572764" lon="12.208429471720876"><ele>413.0</ele><time>2026-04-11T08:20:05.999Z</time></trkpt><trkpt lat="43.781431932654634" lon="12.208290127846842"><ele>411.0</ele><time>2026-04-11T08:20:06.999Z</time></trkpt><trkpt lat="43.78136123659985" lon="12.208156200880527"><ele>409.0</ele><time>2026-04-11T08:20:07.999Z</time></trkpt><trkpt lat="43.78128577827522" lon="12.208024472724748"><ele>407.0</ele><time>2026-04-11T08:20:08.999Z</time></trkpt><trkpt lat="43.78120578114901" lon="12.207897294872636"><ele>405.0</ele><time>2026-04-11T08:20:09.999Z</time></trkpt><trkpt lat="43.781128367312085" lon="12.207769575211547"><ele>405.0</ele><time>2026-04-11T08:20:10.999Z</time></trkpt><trkpt lat="43.78104510940962" lon="12.207645472274715"><ele>405.0</ele><time>2026-04-11T08:20:11.999Z</time></trkpt><trkpt lat="43.78096595090873" lon="12.207525897203332"><ele>405.0</ele><time>2026-04-11T08:20:12.999Z</time></trkpt><trkpt lat="43.780888335856964" lon="12.207409614653669"><ele>405.0</ele><time>2026-04-11T08:20:13.999Z</time></trkpt><trkpt lat="43.78081376987252" lon="12.20728931401132"><ele>408.0</ele><time>2026-04-11T08:20:14.999Z</time></trkpt><trkpt lat="43.78074344775046" lon="12.207167093520356"><ele>411.0</ele><time>2026-04-11T08:20:15.999Z</time></trkpt><trkpt lat="43.78067457838997" lon="12.207039942731441"><ele>414.0</ele><time>2026-04-11T08:20:16.999Z</time></trkpt><trkpt lat="43.780606693421205" lon="12.206908933256791"><ele>417.0</ele><time>2026-04-11T08:20:17.999Z</time></trkpt><trkpt lat="43.78054093621192" lon="12.206775052697273"><ele>417.0</ele><time>2026-04-11T08:20:18.999Z</time></trkpt><trkpt lat="43.780476409001146" lon="12.20663985062189"><ele>417.0</ele><time>2026-04-11T08:20:19.999Z</time></trkpt><trkpt lat="43.7804078777222" lon="12.206504024777416"><ele>417.0</ele><time>2026-04-11T08:20:20.999Z</time></trkpt><trkpt lat="43.78033576526594" lon="12.206360669359482"><ele>417.0</ele><time>2026-04-11T08:20:21.999Z</time></trkpt><trkpt lat="43.78026999891366" lon="12.206201908727818"><ele>417.25</ele><time>2026-04-11T08:20:22.999Z</time></trkpt><trkpt lat="43.78021816807054" lon="12.206038287892882"><ele>417.5</ele><time>2026-04-11T08:20:23.999Z</time></trkpt><trkpt lat="43.78018470436705" lon="12.205880846271942"><ele>417.75</ele><time>2026-04-11T08:20:24.999Z</time></trkpt><trkpt lat="43.78015988675768" lon="12.20572352469906"><ele>418.0</ele><time>2026-04-11T08:20:25.999Z</time></trkpt><trkpt lat="43.78013744274113" lon="12.205576265850416"><ele>418.0</ele><time>2026-04-11T08:20:26.999Z</time></trkpt><trkpt lat="43.78009094807678" lon="12.20543917057462"><ele>418.0</ele><time>2026-04-11T08:20:27.999Z</time></trkpt><trkpt lat="43.780010255879105" lon="12.205317819185943"><ele>418.0</ele><time>2026-04-11T08:20:28.999Z</time></trkpt><trkpt lat="43.77991374563169" lon="12.20522477112336"><ele>418.0</ele><time>2026-04-11T08:20:29.999Z</time></trkpt><trkpt lat="43.77980009166202" lon="12.205160417718037"><ele>418.0</ele><time>2026-04-11T08:20:30.999Z</time></trkpt><trkpt lat="43.779691172920835" lon="12.205099044037315"><ele>418.0</ele><time>2026-04-11T08:20:31.999Z</time></trkpt><trkpt lat="43.77958802944105" lon="12.20504768881805"><ele>418.0</ele><time>2026-04-11T08:20:32.999Z</time></trkpt><trkpt lat="43.779480631472005" lon="12.204992421241164"><ele>418.0</ele><time>2026-04-11T08:20:33.999Z</time></trkpt><trkpt lat="43.77936380481543" lon="12.20495375342748"><ele>421.25</ele><time>2026-04-11T08:20:34.999Z</time></trkpt><trkpt lat="43.77924146465184" lon="12.20495425484416"><ele>424.5</ele><time>2026-04-11T08:20:35.999Z</time></trkpt><trkpt lat="43.77911606021263" lon="12.204975675640938"><ele>427.75</ele><time>2026-04-11T08:20:36.999Z</time></trkpt><trkpt lat="43.77899184695635" lon="12.205007290299164"><ele>431.0</ele><time>2026-04-11T08:20:37.999Z</time></trkpt><trkpt lat="43.77887367949854" lon="12.205037373333438"><ele>431.0</ele><time>2026-04-11T08:20:38.999Z</time></trkpt><trkpt lat="43.77876147132523" lon="12.205070201628015"><ele>431.0</ele><time>2026-04-11T08:20:39.999Z</time></trkpt><trkpt lat="43.77865203317823" lon="12.205101715594143"><ele>431.0</ele><time>2026-04-11T08:20:40.999Z</time></trkpt><trkpt lat="43.77854349056526" lon="12.205089617976782"><ele>431.0</ele><time>2026-04-11T08:20:41.999Z</time></trkpt><trkpt lat="43.77843799051309" lon="12.205038474824905"><ele>431.0</ele><time>2026-04-11T08:20:42.999Z</time></trkpt><trkpt lat="43.77833605483191" lon="12.20497233139696"><ele>432.0</ele><time>2026-04-11T08:20:43.999Z</time></trkpt><trkpt lat="43.778225793274764" lon="12.204905350600496"><ele>433.0</ele><time>2026-04-11T08:20:44.999Z</time></trkpt><trkpt lat="43.77812001148779" lon="12.204838929114764"><ele>434.0</ele><time>2026-04-11T08:20:45.999Z</time></trkpt><trkpt lat="43.778016657185" lon="12.204764683314421"><ele>435.0</ele><time>2026-04-11T08:20:46.999Z</time></trkpt><trkpt lat="43.77790764162306" lon="12.204694151989806"><ele>433.75</ele><time>2026-04-11T08:20:47.999Z</time></trkpt><trkpt lat="43.77779732779513" lon="12.204615757975626"><ele>432.5</ele><time>2026-04-11T08:20:48.999Z</time></trkpt><trkpt lat="43.777689734508535" lon="12.204531805787559"><ele>431.25</ele><time>2026-04-11T08:20:49.999Z</time></trkpt><trkpt lat="43.77758294752107" lon="12.204446281520264"><ele>430.0</ele><time>2026-04-11T08:20:50.999Z</time></trkpt><trkpt lat="43.777474524381006" lon="12.204360274545744"><ele>430.0</ele><time>2026-04-11T08:20:51.999Z</time></trkpt><trkpt lat="43.77736221757502" lon="12.204272516946505"><ele>430.0</ele><time>2026-04-11T08:20:52.999Z</time></trkpt><trkpt lat="43.77724931731192" lon="12.204193413984198"><ele>430.0</ele><time>2026-04-11T08:20:53.999Z</time></trkpt><trkpt lat="43.77713662448605" lon="12.204115169094251"><ele>430.0</ele><time>2026-04-11T08:20:54.999Z</time></trkpt><trkpt lat="43.77703260589271" lon="12.204034411938988"><ele>429.4</ele><time>2026-04-11T08:20:55.999Z</time></trkpt><trkpt lat="43.77693636925658" lon="12.203953513905612"><ele>428.8</ele><time>2026-04-11T08:20:56.999Z</time></trkpt><trkpt lat="43.77684459515157" lon="12.203876252149763"><ele>428.20000000000005</ele><time>2026-04-11T08:20:57.999Z</time></trkpt><trkpt lat="43.77674582356878" lon="12.203802763021782"><ele>427.6</ele><time>2026-04-11T08:20:58.999Z</time></trkpt><trkpt lat="43.77664934731138" lon="12.203730526887695"><ele>427.0</ele><time>2026-04-11T08:20:59.999Z</time></trkpt><trkpt lat="43.77654912326531" lon="12.20365517937506"><ele>427.0</ele><time>2026-04-11T08:21:00.999Z</time></trkpt><trkpt lat="43.77644952188589" lon="12.20357845147564"><ele>427.0</ele><time>2026-04-11T08:21:01.999Z</time></trkpt><trkpt lat="43.77634807972582" lon="12.203500558380961"><ele>427.0</ele><time>2026-04-11T08:21:02.999Z</time></trkpt><trkpt lat="43.77624406489374" lon="12.203423135570874"><ele>427.0</ele><time>2026-04-11T08:21:03.999Z</time></trkpt><trkpt lat="43.77613709607097" lon="12.203343178850131"><ele>427.0</ele><time>2026-04-11T08:21:04.999Z</time></trkpt><trkpt lat="43.77603040338424" lon="12.203259438062537"><ele>427.0</ele><time>2026-04-11T08:21:05.999Z</time></trkpt><trkpt lat="43.77592144709832" lon="12.203174492470357"><ele>427.0</ele><time>2026-04-11T08:21:06.999Z</time></trkpt><trkpt lat="43.775810517577824" lon="12.20309031467515"><ele>427.0</ele><time>2026-04-11T08:21:07.998Z</time></trkpt><trkpt lat="43.775714052227684" lon="12.20298699743246"><ele>426.0</ele><time>2026-04-11T08:21:08.998Z</time></trkpt><trkpt lat="43.77560369966099" lon="12.202925858004733"><ele>425.0</ele><time>2026-04-11T08:21:09.998Z</time></trkpt><trkpt lat="43.77550693898647" lon="12.202844684569374"><ele>424.0</ele><time>2026-04-11T08:21:10.998Z</time></trkpt><trkpt lat="43.775415952690565" lon="12.202760717938204"><ele>423.0</ele><time>2026-04-11T08:21:11.998Z</time></trkpt><trkpt lat="43.77532882544229" lon="12.202663486919894"><ele>423.0</ele><time>2026-04-11T08:21:12.998Z</time></trkpt><trkpt lat="43.77524169467019" lon="12.202554330976868"><ele>423.0</ele><time>2026-04-11T08:21:13.998Z</time></trkpt><trkpt lat="43.7751544336907" lon="12.20244292063308"><ele>423.0</ele><time>2026-04-11T08:21:14.998Z</time></trkpt><trkpt lat="43.77506420860463" lon="12.20233087029937"><ele>423.0</ele><time>2026-04-11T08:21:15.998Z</time></trkpt><trkpt lat="43.77496300784769" lon="12.202233230456564"><ele>424.25</ele><time>2026-04-11T08:21:17Z</time></trkpt><trkpt lat="43.77485773988032" lon="12.202133282244015"><ele>425.5</ele><time>2026-04-11T08:21:18Z</time></trkpt><trkpt lat="43.77473067216418" lon="12.202072139850706"><ele>426.75</ele><time>2026-04-11T08:21:19Z</time></trkpt><trkpt lat="43.77460009921533" lon="12.202044305741445"><ele>428.0</ele><time>2026-04-11T08:21:20Z</time></trkpt><trkpt lat="43.77448191965788" lon="12.202020929564421"><ele>428.0</ele><time>2026-04-11T08:21:21Z</time></trkpt><trkpt lat="43.774366282994414" lon="12.201998056382786"><ele>428.0</ele><time>2026-04-11T08:21:22Z</time></trkpt><trkpt lat="43.774251864363315" lon="12.201990863879063"><ele>428.0</ele><time>2026-04-11T08:21:23Z</time></trkpt><trkpt lat="43.77413933946409" lon="12.201936713439654"><ele>428.0</ele><time>2026-04-11T08:21:24Z</time></trkpt><trkpt lat="43.77403118555925" lon="12.20186388608714"><ele>428.5</ele><time>2026-04-11T08:21:25Z</time></trkpt><trkpt lat="43.77392108032431" lon="12.20178662076844"><ele>429.0</ele><time>2026-04-11T08:21:26Z</time></trkpt><trkpt lat="43.773809159579876" lon="12.20170033524111"><ele>429.5</ele><time>2026-04-11T08:21:27Z</time></trkpt><trkpt lat="43.773697153537206" lon="12.20161660157087"><ele>430.0</ele><time>2026-04-11T08:21:28Z</time></trkpt><trkpt lat="43.77358342927352" lon="12.201550334670689"><ele>428.0</ele><time>2026-04-11T08:21:29Z</time></trkpt><trkpt lat="43.773463154115824" lon="12.201494791280277"><ele>426.0</ele><time>2026-04-11T08:21:30Z</time></trkpt><trkpt lat="43.77333970220123" lon="12.201455827611095"><ele>424.0</ele><time>2026-04-11T08:21:31Z</time></trkpt><trkpt lat="43.77321330270974" lon="12.201416314592864"><ele>422.0</ele><time>2026-04-11T08:21:32Z</time></trkpt><trkpt lat="43.77308547116598" lon="12.201375337702183"><ele>422.0</ele><time>2026-04-11T08:21:33Z</time></trkpt><trkpt lat="43.77295815126493" lon="12.201345739378441"><ele>422.0</ele><time>2026-04-11T08:21:34Z</time></trkpt><trkpt lat="43.77283475617622" lon="12.201327410180054"><ele>422.0</ele><time>2026-04-11T08:21:35Z</time></trkpt><trkpt lat="43.77271291223812" lon="12.201303389391946"><ele>422.0</ele><time>2026-04-11T08:21:36Z</time></trkpt><trkpt lat="43.772590467808506" lon="12.201340663135944"><ele>423.0</ele><time>2026-04-11T08:21:37Z</time></trkpt><trkpt lat="43.772463817207495" lon="12.201361392427842"><ele>424.0</ele><time>2026-04-11T08:21:38Z</time></trkpt><trkpt lat="43.77233933566571" lon="12.201378300445075"><ele>425.0</ele><time>2026-04-11T08:21:39Z</time></trkpt><trkpt lat="43.772220573529964" lon="12.20139133678784"><ele>426.0</ele><time>2026-04-11T08:21:40Z</time></trkpt><trkpt lat="43.77210525765988" lon="12.201399033007464"><ele>426.0</ele><time>2026-04-11T08:21:41Z</time></trkpt><trkpt lat="43.77199166700871" lon="12.20138939682507"><ele>426.0</ele><time>2026-04-11T08:21:42Z</time></trkpt><trkpt lat="43.77188526741993" lon="12.201362449230706"><ele>426.0</ele><time>2026-04-11T08:21:43Z</time></trkpt><trkpt lat="43.77177687470446" lon="12.20131283550551"><ele>426.0</ele><time>2026-04-11T08:21:44Z</time></trkpt><trkpt lat="43.771669359532105" lon="12.201256556830982"><ele>426.0</ele><time>2026-04-11T08:21:45Z</time></trkpt><trkpt lat="43.771569083256324" lon="12.201196055917613"><ele>426.0</ele><time>2026-04-11T08:21:46Z</time></trkpt><trkpt lat="43.77148482818799" lon="12.201110065431177"><ele>426.0</ele><time>2026-04-11T08:21:47Z</time></trkpt><trkpt lat="43.77138580187791" lon="12.201055528251464"><ele>426.0</ele><time>2026-04-11T08:21:48Z</time></trkpt><trkpt lat="43.77129211692644" lon="12.200976290839481"><ele>426.0</ele><time>2026-04-11T08:21:49Z</time></trkpt><trkpt lat="43.771197956380256" lon="12.200890213698267"><ele>426.0</ele><time>2026-04-11T08:21:50Z</time></trkpt><trkpt lat="43.771101954519196" lon="12.20080444956838"><ele>426.0</ele><time>2026-04-11T08:21:51Z</time></trkpt><trkpt lat="43.77100007942573" lon="12.200729276507971"><ele>426.0</ele><time>2026-04-11T08:21:52Z</time></trkpt><trkpt lat="43.770889770809916" lon="12.200679716382208"><ele>426.0</ele><time>2026-04-11T08:21:53Z</time></trkpt><trkpt lat="43.77077258336851" lon="12.200647417842587"><ele>424.75</ele><time>2026-04-11T08:21:54Z</time></trkpt><trkpt lat="43.77064997804713" lon="12.200633384447222"><ele>423.5</ele><time>2026-04-11T08:21:55Z</time></trkpt><trkpt lat="43.77053850005266" lon="12.20062984675932"><ele>422.25</ele><time>2026-04-11T08:21:56Z</time></trkpt><trkpt lat="43.770425564465974" lon="12.200631692890244"><ele>421.0</ele><time>2026-04-11T08:21:56.999Z</time></trkpt><trkpt lat="43.77030781543686" lon="12.200641262568098"><ele>422.0</ele><time>2026-04-11T08:21:57.999Z</time></trkpt><trkpt lat="43.770191184290645" lon="12.200655080611366"><ele>423.0</ele><time>2026-04-11T08:21:58.999Z</time></trkpt><trkpt lat="43.77007479364928" lon="12.20066850862664"><ele>424.0</ele><time>2026-04-11T08:21:59.999Z</time></trkpt><trkpt lat="43.76995807997274" lon="12.200686704984752"><ele>425.0</ele><time>2026-04-11T08:22:00.999Z</time></trkpt><trkpt lat="43.769840954447616" lon="12.200713757781458"><ele>425.0</ele><time>2026-04-11T08:22:01.999Z</time></trkpt><trkpt lat="43.76972055056083" lon="12.200726071361984"><ele>425.0</ele><time>2026-04-11T08:22:02.999Z</time></trkpt><trkpt lat="43.76960050680626" lon="12.20074081864557"><ele>425.0</ele><time>2026-04-11T08:22:03.999Z</time></trkpt><trkpt lat="43.76948005745112" lon="12.200714745110725"><ele>425.0</ele><time>2026-04-11T08:22:04.999Z</time></trkpt><trkpt lat="43.769362174949286" lon="12.200663782041952"><ele>425.5</ele><time>2026-04-11T08:22:05.999Z</time></trkpt><trkpt lat="43.76925605305272" lon="12.2005970287904"><ele>426.0</ele><time>2026-04-11T08:22:06.999Z</time></trkpt><trkpt lat="43.76915870412256" lon="12.200521770252553"><ele>426.5</ele><time>2026-04-11T08:22:07.999Z</time></trkpt><trkpt lat="43.769059686084795" lon="12.200455272936509"><ele>427.0</ele><time>2026-04-11T08:22:08.999Z</time></trkpt><trkpt lat="43.768960601527446" lon="12.200380730849886"><ele>427.0</ele><time>2026-04-11T08:22:09.999Z</time></trkpt><trkpt lat="43.76885910827784" lon="12.200304426153783"><ele>427.0</ele><time>2026-04-11T08:22:10.999Z</time></trkpt><trkpt lat="43.76875352599166" lon="12.200240689957234"><ele>427.0</ele><time>2026-04-11T08:22:11.999Z</time></trkpt><trkpt lat="43.76863471967842" lon="12.200196506065026"><ele>427.0</ele><time>2026-04-11T08:22:12.999Z</time></trkpt><trkpt lat="43.76850802782451" lon="12.200157080073671"><ele>428.75</ele><time>2026-04-11T08:22:13.999Z</time></trkpt><trkpt lat="43.768377253697786" lon="12.200124639243965"><ele>430.5</ele><time>2026-04-11T08:22:14.999Z</time></trkpt><trkpt lat="43.768244870905875" lon="12.200108671464132"><ele>432.25</ele><time>2026-04-11T08:22:15.999Z</time></trkpt><trkpt lat="43.768106275849696" lon="12.200081339581455"><ele>434.0</ele><time>2026-04-11T08:22:16.999Z</time></trkpt><trkpt lat="43.7679643174919" lon="12.200111488846701"><ele>434.0</ele><time>2026-04-11T08:22:17.999Z</time></trkpt><trkpt lat="43.767831844664634" lon="12.200167221246584"><ele>434.0</ele><time>2026-04-11T08:22:18.999Z</time></trkpt><trkpt lat="43.767710206525685" lon="12.20022879856076"><ele>434.0</ele><time>2026-04-11T08:22:19.999Z</time></trkpt><trkpt lat="43.7675920952846" lon="12.200288629341227"><ele>434.0</ele><time>2026-04-11T08:22:20.999Z</time></trkpt><trkpt lat="43.76747789365317" lon="12.200347573424636"><ele>433.5</ele><time>2026-04-11T08:22:21.999Z</time></trkpt><trkpt lat="43.767367747840595" lon="12.200393583681139"><ele>433.0</ele><time>2026-04-11T08:22:22.999Z</time></trkpt><trkpt lat="43.76725855020572" lon="12.200430376845432"><ele>432.5</ele><time>2026-04-11T08:22:23.999Z</time></trkpt><trkpt lat="43.76714692139517" lon="12.200453124718162"><ele>432.0</ele><time>2026-04-11T08:22:24.999Z</time></trkpt><trkpt lat="43.7670370456838" lon="12.20045872556776"><ele>432.0</ele><time>2026-04-11T08:22:25.999Z</time></trkpt><trkpt lat="43.766929725660354" lon="12.200450884892627"><ele>432.0</ele><time>2026-04-11T08:22:26.999Z</time></trkpt><trkpt lat="43.76683013143809" lon="12.200437847832625"><ele>432.0</ele><time>2026-04-11T08:22:27.999Z</time></trkpt><trkpt lat="43.766756922627415" lon="12.200425363478692"><ele>432.0</ele><time>2026-04-11T08:22:28.999Z</time></trkpt><trkpt lat="43.76669048068673" lon="12.200413515838266"><ele>432.0</ele><time>2026-04-11T08:22:29.999Z</time></trkpt><trkpt lat="43.76661863416845" lon="12.200419765605455"><ele>432.0</ele><time>2026-04-11T08:22:31.999Z</time></trkpt><trkpt lat="43.76658309196096" lon="12.200324130055812"><ele>431.0</ele><time>2026-04-11T08:22:38.999Z</time></trkpt><trkpt lat="43.7665161886279" lon="12.200317375481077"><ele>431.0</ele><time>2026-04-11T08:22:53.999Z</time></trkpt><trkpt lat="43.76645086960598" lon="12.200314191597933"><ele>431.0</ele><time>2026-04-11T08:24:35.999Z</time></trkpt><trkpt lat="43.766390635848296" lon="12.200273622923394"><ele>431.0</ele><time>2026-04-11T08:27:23.999Z</time></trkpt><trkpt lat="43.76642257627581" lon="12.200355921613022"><ele>431.0</ele><time>2026-04-11T08:28:18Z</time></trkpt></trkseg><trkseg><trkpt lat="43.76636303251003" lon="12.20036312268625"><ele>431.0</ele><time>2026-04-11T08:57:23Z</time></trkpt><trkpt lat="43.76629719882445" lon="12.200337128680339"><ele>431.0</ele><time>2026-04-11T08:57:25Z</time></trkpt><trkpt lat="43.76620210575741" lon="12.200253405871148"><ele>431.0</ele><time>2026-04-11T08:57:27Z</time></trkpt><trkpt lat="43.76611543160677" lon="12.200158809415722"><ele>431.0</ele><time>2026-04-11T08:57:29Z</time></trkpt><trkpt lat="43.76604258641918" lon="12.19998780943959"><ele>431.0</ele><time>2026-04-11T08:57:31Z</time></trkpt><trkpt lat="43.7659977387237" lon="12.199895959691238"><ele>431.16666666666663</ele><time>2026-04-11T08:57:32Z</time></trkpt><trkpt lat="43.765955128327356" lon="12.199810906221144"><ele>431.3333333333333</ele><time>2026-04-11T08:57:33Z</time></trkpt><trkpt lat="43.76591188257283" lon="12.199725775732162"><ele>431.5</ele><time>2026-04-11T08:57:34Z</time></trkpt><trkpt lat="43.76587093064973" lon="12.199636938319792"><ele>431.66666666666663</ele><time>2026-04-11T08:57:35Z</time></trkpt><trkpt lat="43.76582964187219" lon="12.199543119525202"><ele>431.8333333333333</ele><time>2026-04-11T08:57:36Z</time></trkpt><trkpt lat="43.76580813322578" lon="12.19942976766983"><ele>432.0</ele><time>2026-04-11T08:57:37Z</time></trkpt><trkpt lat="43.76576050116096" lon="12.199335499363965"><ele>432.0</ele><time>2026-04-11T08:57:38Z</time></trkpt><trkpt lat="43.765711423879026" lon="12.19924009624744"><ele>432.0</ele><time>2026-04-11T08:57:39Z</time></trkpt><trkpt lat="43.76564474889448" lon="12.199159311329067"><ele>432.0</ele><time>2026-04-11T08:57:40Z</time></trkpt><trkpt lat="43.765590741295526" lon="12.199070431731435"><ele>432.0</ele><time>2026-04-11T08:57:41Z</time></trkpt><trkpt lat="43.765539554409706" lon="12.198971003512135"><ele>432.0</ele><time>2026-04-11T08:57:42Z</time></trkpt><trkpt lat="43.76546000113829" lon="12.19889646926746"><ele>432.0</ele><time>2026-04-11T08:57:43Z</time></trkpt><trkpt lat="43.76536259430817" lon="12.19884409132141"><ele>431.40000000000003</ele><time>2026-04-11T08:57:44Z</time></trkpt><trkpt lat="43.765264358022826" lon="12.198798315500785"><ele>430.80000000000007</ele><time>2026-04-11T08:57:45Z</time></trkpt><trkpt lat="43.76516618326095" lon="12.198754233857262"><ele>430.2</ele><time>2026-04-11T08:57:46Z</time></trkpt><trkpt lat="43.76508201754414" lon="12.198716442408724"><ele>429.6</ele><time>2026-04-11T08:57:47Z</time></trkpt><trkpt lat="43.765000288567585" lon="12.198679745101241"><ele>429.0</ele><time>2026-04-11T08:57:48Z</time></trkpt><trkpt lat="43.76491636687349" lon="12.198642135416986"><ele>430.6</ele><time>2026-04-11T08:57:49Z</time></trkpt><trkpt lat="43.76482828393429" lon="12.19860266048818"><ele>432.2</ele><time>2026-04-11T08:57:50Z</time></trkpt><trkpt lat="43.76473840892954" lon="12.198562382405862"><ele>433.80000000000007</ele><time>2026-04-11T08:57:51Z</time></trkpt><trkpt lat="43.764649606948566" lon="12.198522585198324"><ele>435.40000000000003</ele><time>2026-04-11T08:57:52Z</time></trkpt><trkpt lat="43.764558860495335" lon="12.198481916507339"><ele>437.0</ele><time>2026-04-11T08:57:53Z</time></trkpt><trkpt lat="43.76446639621734" lon="12.19844047734848"><ele>437.0</ele><time>2026-04-11T08:57:54Z</time></trkpt><trkpt lat="43.764374950187786" lon="12.198407595242221"><ele>437.00000000000006</ele><time>2026-04-11T08:57:55Z</time></trkpt><trkpt lat="43.764279901605676" lon="12.198416089073252"><ele>437.00000000000006</ele><time>2026-04-11T08:57:56Z</time></trkpt><trkpt lat="43.76418662846059" lon="12.198400976729257"><ele>437.0</ele><time>2026-04-11T08:57:57Z</time></trkpt><trkpt lat="43.76409407836184" lon="12.19840343464735"><ele>437.0</ele><time>2026-04-11T08:57:58Z</time></trkpt><trkpt lat="43.76400180846788" lon="12.198420612753932"><ele>438.40000000000003</ele><time>2026-04-11T08:57:59Z</time></trkpt><trkpt lat="43.76389940863769" lon="12.198447073782756"><ele>439.80000000000007</ele><time>2026-04-11T08:58:00Z</time></trkpt><trkpt lat="43.76381938501117" lon="12.198533366732327"><ele>441.2</ele><time>2026-04-11T08:58:01Z</time></trkpt><trkpt lat="43.76374793287926" lon="12.198609625963838"><ele>442.6</ele><time>2026-04-11T08:58:02Z</time></trkpt><trkpt lat="43.76367332514299" lon="12.19869697303297"><ele>444.0</ele><time>2026-04-11T08:58:03Z</time></trkpt><trkpt lat="43.763599671566" lon="12.198774076454757"><ele>444.79999999999995</ele><time>2026-04-11T08:58:04Z</time></trkpt><trkpt lat="43.7635237168214" lon="12.198856555644209"><ele>445.59999999999997</ele><time>2026-04-11T08:58:05Z</time></trkpt><trkpt lat="43.76344895471087" lon="12.198945112939086"><ele>446.4</ele><time>2026-04-11T08:58:06Z</time></trkpt><trkpt lat="43.763374610123456" lon="12.199033220401363"><ele>447.2</ele><time>2026-04-11T08:58:07Z</time></trkpt><trkpt lat="43.763299413442354" lon="12.199124984363836"><ele>448.0</ele><time>2026-04-11T08:58:08Z</time></trkpt><trkpt lat="43.76322270574703" lon="12.199213356109436"><ele>448.0</ele><time>2026-04-11T08:58:09Z</time></trkpt><trkpt lat="43.76314192999758" lon="12.199293091218225"><ele>447.99999999999994</ele><time>2026-04-11T08:58:10Z</time></trkpt><trkpt lat="43.76305725640214" lon="12.19936623473449"><ele>447.99999999999994</ele><time>2026-04-11T08:58:11Z</time></trkpt><trkpt lat="43.762966369932315" lon="12.19942441545822"><ele>448.0</ele><time>2026-04-11T08:58:12Z</time></trkpt><trkpt lat="43.762872349998304" lon="12.19947011250272"><ele>448.0</ele><time>2026-04-11T08:58:13Z</time></trkpt><trkpt lat="43.762774116151625" lon="12.199509285675461"><ele>447.59999999999997</ele><time>2026-04-11T08:58:14Z</time></trkpt><trkpt lat="43.76267419670583" lon="12.199540100568168"><ele>447.19999999999993</ele><time>2026-04-11T08:58:15Z</time></trkpt><trkpt lat="43.76257354781824" lon="12.199562683208894"><ele>446.8</ele><time>2026-04-11T08:58:16Z</time></trkpt><trkpt lat="43.762471780383784" lon="12.199565856740401"><ele>446.4</ele><time>2026-04-11T08:58:17Z</time></trkpt><trkpt lat="43.762370460636056" lon="12.199541187172763"><ele>446.0</ele><time>2026-04-11T08:58:18Z</time></trkpt><trkpt lat="43.76226286842842" lon="12.19954979943641"><ele>446.0</ele><time>2026-04-11T08:58:19Z</time></trkpt><trkpt lat="43.76216001743821" lon="12.199521525450153"><ele>446.0</ele><time>2026-04-11T08:58:20Z</time></trkpt><trkpt lat="43.76205963158143" lon="12.19950765400347"><ele>446.0</ele><time>2026-04-11T08:58:21Z</time></trkpt><trkpt lat="43.761962027326476" lon="12.199478022368456"><ele>446.0</ele><time>2026-04-11T08:58:22Z</time></trkpt><trkpt lat="43.7618567069442" lon="12.199466978163237"><ele>446.0</ele><time>2026-04-11T08:58:23Z</time></trkpt><trkpt lat="43.76174703329768" lon="12.199474382004503"><ele>445.25</ele><time>2026-04-11T08:58:24Z</time></trkpt><trkpt lat="43.761638120675514" lon="12.19948804923495"><ele>444.5</ele><time>2026-04-11T08:58:25Z</time></trkpt><trkpt lat="43.76152485459822" lon="12.199534277439676"><ele>443.75</ele><time>2026-04-11T08:58:26Z</time></trkpt><trkpt lat="43.76142180507001" lon="12.19960232755145"><ele>443.0</ele><time>2026-04-11T08:58:27Z</time></trkpt><trkpt lat="43.7613360779458" lon="12.19970934244991"><ele>443.0</ele><time>2026-04-11T08:58:28Z</time></trkpt><trkpt lat="43.761256042931045" lon="12.199799154384092"><ele>442.99999999999994</ele><time>2026-04-11T08:58:29Z</time></trkpt><trkpt lat="43.76118184330987" lon="12.199889993592159"><ele>442.99999999999994</ele><time>2026-04-11T08:58:30Z</time></trkpt><trkpt lat="43.76110200468132" lon="12.19998044867377"><ele>443.0</ele><time>2026-04-11T08:58:31Z</time></trkpt><trkpt lat="43.76101541131233" lon="12.200055548353326"><ele>443.0</ele><time>2026-04-11T08:58:32Z</time></trkpt><trkpt lat="43.760917736083286" lon="12.200107731251984"><ele>446.0</ele><time>2026-04-11T08:58:33Z</time></trkpt><trkpt lat="43.7608150230923" lon="12.200141782804902"><ele>448.99999999999994</ele><time>2026-04-11T08:58:34Z</time></trkpt><trkpt lat="43.76071063179049" lon="12.200157043034467"><ele>451.99999999999994</ele><time>2026-04-11T08:58:35Z</time></trkpt><trkpt lat="43.76060373319055" lon="12.200148509762705"><ele>455.0</ele><time>2026-04-11T08:58:36Z</time></trkpt><trkpt lat="43.76049588096671" lon="12.200128989346002"><ele>458.0</ele><time>2026-04-11T08:58:37Z</time></trkpt><trkpt lat="43.7603865690886" lon="12.200112086757255"><ele>458.0</ele><time>2026-04-11T08:58:38Z</time></trkpt><trkpt lat="43.76027570314724" lon="12.200094613222184"><ele>457.99999999999994</ele><time>2026-04-11T08:58:39Z</time></trkpt><trkpt lat="43.76016502888536" lon="12.200073612574656"><ele>457.99999999999994</ele><time>2026-04-11T08:58:40Z</time></trkpt><trkpt lat="43.76005506798495" lon="12.200049000162988"><ele>458.0</ele><time>2026-04-11T08:58:41Z</time></trkpt><trkpt lat="43.759946847467624" lon="12.200024931732997"><ele>458.0</ele><time>2026-04-11T08:58:41.999Z</time></trkpt><trkpt lat="43.75983959059654" lon="12.200005222593514"><ele>459.0</ele><time>2026-04-11T08:58:42.999Z</time></trkpt><trkpt lat="43.75973431208587" lon="12.199978771223076"><ele>459.99999999999994</ele><time>2026-04-11T08:58:43.999Z</time></trkpt><trkpt lat="43.75963273769732" lon="12.199951831826663"><ele>460.99999999999994</ele><time>2026-04-11T08:58:44.999Z</time></trkpt><trkpt lat="43.75953508234543" lon="12.199907499761393"><ele>462.0</ele><time>2026-04-11T08:58:45.999Z</time></trkpt><trkpt lat="43.75944917525284" lon="12.199831135002427"><ele>463.0</ele><time>2026-04-11T08:58:46.999Z</time></trkpt><trkpt lat="43.75935794067472" lon="12.199771109509356"><ele>463.0</ele><time>2026-04-11T08:58:47.999Z</time></trkpt><trkpt lat="43.75926846849151" lon="12.199708996720346"><ele>462.99999999999994</ele><time>2026-04-11T08:58:48.999Z</time></trkpt><trkpt lat="43.75918753163487" lon="12.199639042144778"><ele>462.99999999999994</ele><time>2026-04-11T08:58:49.999Z</time></trkpt><trkpt lat="43.759114958473944" lon="12.199553743630586"><ele>463.0</ele><time>2026-04-11T08:58:50.999Z</time></trkpt><trkpt lat="43.75904649179986" lon="12.199460634898175"><ele>463.0</ele><time>2026-04-11T08:58:51.999Z</time></trkpt><trkpt lat="43.7589790991281" lon="12.199358643999464"><ele>463.0</ele><time>2026-04-11T08:58:52.999Z</time></trkpt><trkpt lat="43.758914634972726" lon="12.199255043362424"><ele>462.99999999999994</ele><time>2026-04-11T08:58:53.999Z</time></trkpt><trkpt lat="43.75884918392342" lon="12.19914082183565"><ele>462.99999999999994</ele><time>2026-04-11T08:58:54.999Z</time></trkpt><trkpt lat="43.75878476257816" lon="12.199028358654893"><ele>463.0</ele><time>2026-04-11T08:58:55.999Z</time></trkpt><trkpt lat="43.75872141012193" lon="12.198916553742405"><ele>463.0</ele><time>2026-04-11T08:58:56.999Z</time></trkpt><trkpt lat="43.75865867718549" lon="12.198800274360176"><ele>460.4</ele><time>2026-04-11T08:58:57.999Z</time></trkpt><trkpt lat="43.758595792825375" lon="12.198683714310349"><ele>457.79999999999995</ele><time>2026-04-11T08:58:58.999Z</time></trkpt><trkpt lat="43.75853245397851" lon="12.198566311829138"><ele>455.2</ele><time>2026-04-11T08:58:59.999Z</time></trkpt><trkpt lat="43.758468298580134" lon="12.198447395819425"><ele>452.6</ele><time>2026-04-11T08:59:00.999Z</time></trkpt><trkpt lat="43.75840286441666" lon="12.198326849357434"><ele>450.0</ele><time>2026-04-11T08:59:01.999Z</time></trkpt><trkpt lat="43.75832366449951" lon="12.198220093663991"><ele>454.4</ele><time>2026-04-11T08:59:03Z</time></trkpt><trkpt lat="43.75825750358168" lon="12.198096925533784"><ele>458.8</ele><time>2026-04-11T08:59:04Z</time></trkpt><trkpt lat="43.75818985496799" lon="12.19797424612355"><ele>463.20000000000005</ele><time>2026-04-11T08:59:05Z</time></trkpt><trkpt lat="43.75813444617608" lon="12.197836769611417"><ele>467.6</ele><time>2026-04-11T08:59:06Z</time></trkpt><trkpt lat="43.758057847549445" lon="12.197724830006479"><ele>472.0</ele><time>2026-04-11T08:59:07Z</time></trkpt><trkpt lat="43.757989850172976" lon="12.197605370606238"><ele>472.0</ele><time>2026-04-11T08:59:08Z</time></trkpt><trkpt lat="43.7579111990485" lon="12.197494641678333"><ele>472.00000000000006</ele><time>2026-04-11T08:59:09Z</time></trkpt><trkpt lat="43.757823039252585" lon="12.197398959702426"><ele>472.00000000000006</ele><time>2026-04-11T08:59:10Z</time></trkpt><trkpt lat="43.75772697308625" lon="12.197321105785877"><ele>472.0</ele><time>2026-04-11T08:59:11Z</time></trkpt><trkpt lat="43.75762221375929" lon="12.197267393611579"><ele>472.0</ele><time>2026-04-11T08:59:12Z</time></trkpt><trkpt lat="43.75751703546479" lon="12.197215357384128"><ele>473.8</ele><time>2026-04-11T08:59:13Z</time></trkpt><trkpt lat="43.75741838446248" lon="12.197150330476124"><ele>475.6</ele><time>2026-04-11T08:59:14Z</time></trkpt><trkpt lat="43.757334902770644" lon="12.197072817117494"><ele>477.40000000000003</ele><time>2026-04-11T08:59:15Z</time></trkpt><trkpt lat="43.75726883543513" lon="12.196982677929029"><ele>479.20000000000005</ele><time>2026-04-11T08:59:16Z</time></trkpt><trkpt lat="43.75720561879738" lon="12.196880343308415"><ele>481.0</ele><time>2026-04-11T08:59:17Z</time></trkpt><trkpt lat="43.75715521246392" lon="12.196754085437103"><ele>481.0</ele><time>2026-04-11T08:59:18Z</time></trkpt><trkpt lat="43.75711075203646" lon="12.196621233994392"><ele>481.0</ele><time>2026-04-11T08:59:19Z</time></trkpt><trkpt lat="43.75707091085074" lon="12.196483101173065"><ele>481.0</ele><time>2026-04-11T08:59:20Z</time></trkpt><trkpt lat="43.75703600196661" lon="12.196342759339945"><ele>481.0</ele><time>2026-04-11T08:59:21Z</time></trkpt><trkpt lat="43.75699823047921" lon="12.196205174113931"><ele>481.0</ele><time>2026-04-11T08:59:22Z</time></trkpt><trkpt lat="43.7569528546267" lon="12.196070841357502"><ele>479.4</ele><time>2026-04-11T08:59:23Z</time></trkpt><trkpt lat="43.75690498535657" lon="12.195940555123702"><ele>477.8</ele><time>2026-04-11T08:59:24Z</time></trkpt><trkpt lat="43.75684844628473" lon="12.195820780384052"><ele>476.19999999999993</ele><time>2026-04-11T08:59:25Z</time></trkpt><trkpt lat="43.756789270017904" lon="12.195704589724237"><ele>474.59999999999997</ele><time>2026-04-11T08:59:26Z</time></trkpt><trkpt lat="43.75669934371849" lon="12.195622534848079"><ele>473.0</ele><time>2026-04-11T08:59:27Z</time></trkpt><trkpt lat="43.75659154762327" lon="12.195562853697108"><ele>470.75</ele><time>2026-04-11T08:59:28Z</time></trkpt><trkpt lat="43.756473653287074" lon="12.195540719005368"><ele>468.5</ele><time>2026-04-11T08:59:29Z</time></trkpt><trkpt lat="43.7563498849917" lon="12.195562302799244"><ele>466.25</ele><time>2026-04-11T08:59:30Z</time></trkpt><trkpt lat="43.756234741525326" lon="12.195618316014848"><ele>464.0</ele><time>2026-04-11T08:59:31Z</time></trkpt><trkpt lat="43.756130400295696" lon="12.195715224370314"><ele>468.25</ele><time>2026-04-11T08:59:32Z</time></trkpt><trkpt lat="43.75604085346701" lon="12.19581944534198"><ele>472.5</ele><time>2026-04-11T08:59:33Z</time></trkpt><trkpt lat="43.75595649494969" lon="12.195932235122818"><ele>476.75</ele><time>2026-04-11T08:59:34Z</time></trkpt><trkpt lat="43.755879905432494" lon="12.1960649753695"><ele>481.0</ele><time>2026-04-11T08:59:35Z</time></trkpt><trkpt lat="43.75578907105815" lon="12.196180913841383"><ele>481.0</ele><time>2026-04-11T08:59:36Z</time></trkpt><trkpt lat="43.75569943657112" lon="12.1963045239868"><ele>481.0</ele><time>2026-04-11T08:59:37Z</time></trkpt><trkpt lat="43.75561128371716" lon="12.196422509324188"><ele>481.0</ele><time>2026-04-11T08:59:38Z</time></trkpt><trkpt lat="43.755523292622215" lon="12.196540749724765"><ele>481.0</ele><time>2026-04-11T08:59:39Z</time></trkpt><trkpt lat="43.75543414937329" lon="12.196660789361568"><ele>482.75</ele><time>2026-04-11T08:59:40Z</time></trkpt><trkpt lat="43.755346749107396" lon="12.196786037512746"><ele>484.5</ele><time>2026-04-11T08:59:41Z</time></trkpt><trkpt lat="43.755254980894925" lon="12.196908480929125"><ele>486.25</ele><time>2026-04-11T08:59:42Z</time></trkpt><trkpt lat="43.755161746131925" lon="12.197027732092565"><ele>488.0</ele><time>2026-04-11T08:59:43Z</time></trkpt><trkpt lat="43.75506065704323" lon="12.19713265702328"><ele>488.0</ele><time>2026-04-11T08:59:44Z</time></trkpt><trkpt lat="43.75495682804771" lon="12.1972210058614"><ele>488.0</ele><time>2026-04-11T08:59:45Z</time></trkpt><trkpt lat="43.754843704433554" lon="12.197264227270523"><ele>488.0</ele><time>2026-04-11T08:59:46Z</time></trkpt><trkpt lat="43.75473022300579" lon="12.197293044556655"><ele>488.0</ele><time>2026-04-11T08:59:47Z</time></trkpt><trkpt lat="43.75460835480719" lon="12.197294088026915"><ele>488.0</ele><time>2026-04-11T08:59:48Z</time></trkpt><trkpt lat="43.754483099173" lon="12.197270509766456"><ele>488.0</ele><time>2026-04-11T08:59:49Z</time></trkpt><trkpt lat="43.75436462013501" lon="12.197224875866274"><ele>488.0</ele><time>2026-04-11T08:59:50Z</time></trkpt><trkpt lat="43.75422585290414" lon="12.197163976399075"><ele>488.0</ele><time>2026-04-11T08:59:51Z</time></trkpt><trkpt lat="43.75410142787911" lon="12.197108907316995"><ele>485.75</ele><time>2026-04-11T08:59:52Z</time></trkpt><trkpt lat="43.75397006928779" lon="12.197061958444458"><ele>483.5</ele><time>2026-04-11T08:59:53Z</time></trkpt><trkpt lat="43.75383355066263" lon="12.197043190120638"><ele>481.25</ele><time>2026-04-11T08:59:54Z</time></trkpt><trkpt lat="43.753691300201325" lon="12.197053669616158"><ele>479.0</ele><time>2026-04-11T08:59:55Z</time></trkpt><trkpt lat="43.753556783445966" lon="12.197090050491871"><ele>478.0</ele><time>2026-04-11T08:59:56Z</time></trkpt><trkpt lat="43.75342117282322" lon="12.197163816832783"><ele>477.0</ele><time>2026-04-11T08:59:57Z</time></trkpt><trkpt lat="43.75329737736208" lon="12.197251247007898"><ele>476.0</ele><time>2026-04-11T08:59:58Z</time></trkpt><trkpt lat="43.75319452659934" lon="12.19737943610311"><ele>475.0</ele><time>2026-04-11T08:59:59Z</time></trkpt><trkpt lat="43.75309461876687" lon="12.19748768887851"><ele>481.25</ele><time>2026-04-11T09:00:00Z</time></trkpt><trkpt lat="43.75300322079051" lon="12.197598726512766"><ele>487.5</ele><time>2026-04-11T09:00:01Z</time></trkpt><trkpt lat="43.752915938151105" lon="12.197704308427854"><ele>493.75</ele><time>2026-04-11T09:00:02Z</time></trkpt><trkpt lat="43.75281790380096" lon="12.197781690281243"><ele>500.0</ele><time>2026-04-11T09:00:03Z</time></trkpt><trkpt lat="43.752727906440384" lon="12.197842501069491"><ele>498.2</ele><time>2026-04-11T09:00:04Z</time></trkpt><trkpt lat="43.7526349037393" lon="12.197882696822104"><ele>496.4</ele><time>2026-04-11T09:00:05Z</time></trkpt><trkpt lat="43.752535381742426" lon="12.197908868675947"><ele>494.6</ele><time>2026-04-11T09:00:06Z</time></trkpt><trkpt lat="43.75243119489177" lon="12.19792933211012"><ele>492.8</ele><time>2026-04-11T09:00:07Z</time></trkpt><trkpt lat="43.752324203526385" lon="12.197925665031862"><ele>491.0</ele><time>2026-04-11T09:00:08Z</time></trkpt><trkpt lat="43.75220966252616" lon="12.197900827966407"><ele>491.0</ele><time>2026-04-11T09:00:09Z</time></trkpt><trkpt lat="43.75208741486762" lon="12.197898312794617"><ele>491.0</ele><time>2026-04-11T09:00:10Z</time></trkpt><trkpt lat="43.75196950635092" lon="12.197856631455753"><ele>491.0</ele><time>2026-04-11T09:00:11Z</time></trkpt><trkpt lat="43.75184931599157" lon="12.197848446971848"><ele>491.0</ele><time>2026-04-11T09:00:12Z</time></trkpt><trkpt lat="43.75172778507048" lon="12.197853744056411"><ele>490.0</ele><time>2026-04-11T09:00:13Z</time></trkpt><trkpt lat="43.75161301139631" lon="12.197903404804576"><ele>489.0</ele><time>2026-04-11T09:00:14Z</time></trkpt><trkpt lat="43.75149908844774" lon="12.197942807329063"><ele>488.0</ele><time>2026-04-11T09:00:15Z</time></trkpt><trkpt lat="43.75138609360995" lon="12.198007991853741"><ele>487.0</ele><time>2026-04-11T09:00:16Z</time></trkpt><trkpt lat="43.75127901302689" lon="12.198096105848727"><ele>487.0</ele><time>2026-04-11T09:00:17Z</time></trkpt><trkpt lat="43.7511750360426" lon="12.198201170766371"><ele>487.0</ele><time>2026-04-11T09:00:18Z</time></trkpt><trkpt lat="43.751082085682654" lon="12.198314804000745"><ele>487.0</ele><time>2026-04-11T09:00:19Z</time></trkpt><trkpt lat="43.75099912496035" lon="12.198427894711706"><ele>487.0</ele><time>2026-04-11T09:00:20Z</time></trkpt><trkpt lat="43.75092354505084" lon="12.198543558538525"><ele>487.0</ele><time>2026-04-11T09:00:21Z</time></trkpt><trkpt lat="43.750846890933936" lon="12.19866206633663"><ele>487.00000000000006</ele><time>2026-04-11T09:00:22Z</time></trkpt><trkpt lat="43.7507741039336" lon="12.198769806644364"><ele>487.00000000000006</ele><time>2026-04-11T09:00:23Z</time></trkpt><trkpt lat="43.75069577210473" lon="12.198863788256306"><ele>487.0</ele><time>2026-04-11T09:00:24Z</time></trkpt><trkpt lat="43.750592436094344" lon="12.198921268587693"><ele>487.0</ele><time>2026-04-11T09:00:25Z</time></trkpt><trkpt lat="43.750483762411754" lon="12.19896144138672"><ele>489.75</ele><time>2026-04-11T09:00:26Z</time></trkpt><trkpt lat="43.75037264094343" lon="12.1990097019498"><ele>492.5</ele><time>2026-04-11T09:00:26.999Z</time></trkpt><trkpt lat="43.7502570477427" lon="12.199056116577589"><ele>495.25</ele><time>2026-04-11T09:00:27.999Z</time></trkpt><trkpt lat="43.750140108109065" lon="12.199102393312407"><ele>498.0</ele><time>2026-04-11T09:00:28.999Z</time></trkpt><trkpt lat="43.750019264120084" lon="12.199146483007592"><ele>498.0</ele><time>2026-04-11T09:00:29.999Z</time></trkpt><trkpt lat="43.749892679715956" lon="12.199172903904106"><ele>498.0</ele><time>2026-04-11T09:00:30.999Z</time></trkpt><trkpt lat="43.74976361641581" lon="12.199186112129205"><ele>498.0</ele><time>2026-04-11T09:00:31.999Z</time></trkpt><trkpt lat="43.74963485396346" lon="12.199194582885857"><ele>498.0</ele><time>2026-04-11T09:00:32.999Z</time></trkpt><trkpt lat="43.74950643052627" lon="12.19921044960377"><ele>498.0</ele><time>2026-04-11T09:00:33.999Z</time></trkpt><trkpt lat="43.74938037794394" lon="12.199229494739555"><ele>498.0</ele><time>2026-04-11T09:00:34.999Z</time></trkpt><trkpt lat="43.74925647583361" lon="12.1992455705183"><ele>498.0</ele><time>2026-04-11T09:00:35.999Z</time></trkpt><trkpt lat="43.74913041068323" lon="12.199241661460748"><ele>498.0</ele><time>2026-04-11T09:00:36.999Z</time></trkpt><trkpt lat="43.74900306369425" lon="12.19922433490373"><ele>499.0</ele><time>2026-04-11T09:00:37.999Z</time></trkpt><trkpt lat="43.74887335592038" lon="12.199200446427731"><ele>500.0</ele><time>2026-04-11T09:00:38.999Z</time></trkpt><trkpt lat="43.748742978637075" lon="12.19916130929025"><ele>501.0</ele><time>2026-04-11T09:00:39.999Z</time></trkpt><trkpt lat="43.74861830291242" lon="12.199102834548365"><ele>502.0</ele><time>2026-04-11T09:00:40.999Z</time></trkpt><trkpt lat="43.74851844966848" lon="12.198975677808601"><ele>498.5</ele><time>2026-04-11T09:00:41.999Z</time></trkpt><trkpt lat="43.74842233275286" lon="12.198843181623342"><ele>495.0</ele><time>2026-04-11T09:00:42.999Z</time></trkpt><trkpt lat="43.748329613309224" lon="12.198707730242063"><ele>491.5</ele><time>2026-04-11T09:00:43.999Z</time></trkpt><trkpt lat="43.748237562500044" lon="12.19857283457938"><ele>488.0</ele><time>2026-04-11T09:00:44.999Z</time></trkpt><trkpt lat="43.748149238336815" lon="12.19844171672722"><ele>488.0</ele><time>2026-04-11T09:00:45.999Z</time></trkpt><trkpt lat="43.74806410502744" lon="12.198315334533833"><ele>488.0</ele><time>2026-04-11T09:00:46.999Z</time></trkpt><trkpt lat="43.74797109752834" lon="12.198195329244744"><ele>488.0</ele><time>2026-04-11T09:00:47.999Z</time></trkpt><trkpt lat="43.7478547467694" lon="12.198100198710874"><ele>488.0</ele><time>2026-04-11T09:00:48.999Z</time></trkpt><trkpt lat="43.747726336388254" lon="12.198023897408836"><ele>485.5</ele><time>2026-04-11T09:00:49.999Z</time></trkpt><trkpt lat="43.74759357325804" lon="12.197964054799858"><ele>483.0</ele><time>2026-04-11T09:00:50.999Z</time></trkpt><trkpt lat="43.74745880847564" lon="12.19791113389183"><ele>480.5</ele><time>2026-04-11T09:00:51.999Z</time></trkpt><trkpt lat="43.74732761720507" lon="12.197861422951917"><ele>478.0</ele><time>2026-04-11T09:00:52.999Z</time></trkpt><trkpt lat="43.74719991343519" lon="12.197813033761323"><ele>478.0</ele><time>2026-04-11T09:00:53.999Z</time></trkpt><trkpt lat="43.74706176020132" lon="12.197837548830165"><ele>478.0</ele><time>2026-04-11T09:00:54.999Z</time></trkpt><trkpt lat="43.74692467347685" lon="12.197858394115194"><ele>478.0</ele><time>2026-04-11T09:00:55.999Z</time></trkpt><trkpt lat="43.74679081855081" lon="12.197919364365438"><ele>478.0</ele><time>2026-04-11T09:00:56.999Z</time></trkpt><trkpt lat="43.74666258163872" lon="12.198003602483562"><ele>478.0</ele><time>2026-04-11T09:00:57.999Z</time></trkpt><trkpt lat="43.746542634681056" lon="12.19807830786983"><ele>478.0</ele><time>2026-04-11T09:00:58.999Z</time></trkpt><trkpt lat="43.74642203278025" lon="12.198155393494712"><ele>478.0</ele><time>2026-04-11T09:00:59.999Z</time></trkpt><trkpt lat="43.74630022808719" lon="12.198233415538125"><ele>478.0</ele><time>2026-04-11T09:01:00.999Z</time></trkpt><trkpt lat="43.74617744751096" lon="12.198310584457827"><ele>479.25</ele><time>2026-04-11T09:01:01.999Z</time></trkpt><trkpt lat="43.746054021922255" lon="12.19839404986056"><ele>480.5</ele><time>2026-04-11T09:01:02.999Z</time></trkpt><trkpt lat="43.74593516122477" lon="12.198487468664297"><ele>481.75</ele><time>2026-04-11T09:01:03.999Z</time></trkpt><trkpt lat="43.745821210234446" lon="12.198593552799217"><ele>483.0</ele><time>2026-04-11T09:01:04.999Z</time></trkpt><trkpt lat="43.74571453850818" lon="12.198710634547053"><ele>483.0</ele><time>2026-04-11T09:01:05.999Z</time></trkpt><trkpt lat="43.74561482882219" lon="12.19883746330535"><ele>483.0</ele><time>2026-04-11T09:01:06.999Z</time></trkpt><trkpt lat="43.74551486560791" lon="12.198964514346873"><ele>483.0</ele><time>2026-04-11T09:01:07.999Z</time></trkpt><trkpt lat="43.745417798019375" lon="12.199095136196545"><ele>483.0</ele><time>2026-04-11T09:01:09Z</time></trkpt><trkpt lat="43.74531865480448" lon="12.199223880819282"><ele>482.5</ele><time>2026-04-11T09:01:10Z</time></trkpt><trkpt lat="43.74522128317846" lon="12.199353290339445"><ele>482.0</ele><time>2026-04-11T09:01:11Z</time></trkpt><trkpt lat="43.745130559938026" lon="12.19948316757392"><ele>481.5</ele><time>2026-04-11T09:01:12Z</time></trkpt><trkpt lat="43.74504323868647" lon="12.199614853028098"><ele>481.0</ele><time>2026-04-11T09:01:13Z</time></trkpt><trkpt lat="43.744959654616686" lon="12.199745733938876"><ele>484.25</ele><time>2026-04-11T09:01:14Z</time></trkpt><trkpt lat="43.74487779576433" lon="12.19987829495998"><ele>487.5</ele><time>2026-04-11T09:01:15Z</time></trkpt><trkpt lat="43.74479589027863" lon="12.200015579350087"><ele>490.75</ele><time>2026-04-11T09:01:16Z</time></trkpt><trkpt lat="43.74472173120862" lon="12.200157124090037"><ele>494.0</ele><time>2026-04-11T09:01:17Z</time></trkpt><trkpt lat="43.74465132129404" lon="12.200299588331802"><ele>494.0</ele><time>2026-04-11T09:01:18Z</time></trkpt><trkpt lat="43.74459233359517" lon="12.200454600700889"><ele>494.0</ele><time>2026-04-11T09:01:19Z</time></trkpt><trkpt lat="43.74453960048955" lon="12.200617622282545"><ele>494.0</ele><time>2026-04-11T09:01:20Z</time></trkpt><trkpt lat="43.7444855410324" lon="12.200781809775581"><ele>494.0</ele><time>2026-04-11T09:01:21Z</time></trkpt><trkpt lat="43.74443043143434" lon="12.200947143620029"><ele>490.75</ele><time>2026-04-11T09:01:22Z</time></trkpt><trkpt lat="43.74436143767609" lon="12.201103107202165"><ele>487.5</ele><time>2026-04-11T09:01:23Z</time></trkpt><trkpt lat="43.7442790167769" lon="12.201240804180209"><ele>484.25</ele><time>2026-04-11T09:01:24Z</time></trkpt><trkpt lat="43.74418832183148" lon="12.201364324452031"><ele>481.0</ele><time>2026-04-11T09:01:25Z</time></trkpt><trkpt lat="43.744099538428905" lon="12.201492526356517"><ele>483.5</ele><time>2026-04-11T09:01:26Z</time></trkpt><trkpt lat="43.744009450635296" lon="12.2016206758284"><ele>486.0</ele><time>2026-04-11T09:01:27Z</time></trkpt><trkpt lat="43.74392367956254" lon="12.201745973663193"><ele>488.5</ele><time>2026-04-11T09:01:28Z</time></trkpt><trkpt lat="43.743840832050154" lon="12.201863174589587"><ele>491.0</ele><time>2026-04-11T09:01:29Z</time></trkpt><trkpt lat="43.74374611841094" lon="12.20195824324636"><ele>491.0</ele><time>2026-04-11T09:01:30Z</time></trkpt><trkpt lat="43.74362835202896" lon="12.202019186016232"><ele>491.0</ele><time>2026-04-11T09:01:31Z</time></trkpt><trkpt lat="43.74350207400802" lon="12.202052641603725"><ele>491.0</ele><time>2026-04-11T09:01:32Z</time></trkpt><trkpt lat="43.74337151764611" lon="12.20206892040971"><ele>491.0</ele><time>2026-04-11T09:01:33Z</time></trkpt><trkpt lat="43.74324060127868" lon="12.202069433823612"><ele>489.25</ele><time>2026-04-11T09:01:34Z</time></trkpt><trkpt lat="43.74310779435917" lon="12.202054483301636"><ele>487.5</ele><time>2026-04-11T09:01:35Z</time></trkpt><trkpt lat="43.74298024421721" lon="12.202046754354141"><ele>485.75</ele><time>2026-04-11T09:01:36Z</time></trkpt><trkpt lat="43.742851229014306" lon="12.202032533710073"><ele>484.0</ele><time>2026-04-11T09:01:37Z</time></trkpt><trkpt lat="43.742724396287485" lon="12.202009687480007"><ele>485.0</ele><time>2026-04-11T09:01:38Z</time></trkpt><trkpt lat="43.742603814554855" lon="12.201957640502574"><ele>486.0</ele><time>2026-04-11T09:01:39Z</time></trkpt><trkpt lat="43.74249389105836" lon="12.201897699770507"><ele>487.0</ele><time>2026-04-11T09:01:40Z</time></trkpt><trkpt lat="43.74238870415157" lon="12.201847725215664"><ele>488.0</ele><time>2026-04-11T09:01:41Z</time></trkpt><trkpt lat="43.74228103560107" lon="12.20183395545749"><ele>488.0</ele><time>2026-04-11T09:01:42Z</time></trkpt><trkpt lat="43.74217679070335" lon="12.201882712863839"><ele>487.99999999999994</ele><time>2026-04-11T09:01:43Z</time></trkpt><trkpt lat="43.74209978683622" lon="12.2019865342689"><ele>487.99999999999994</ele><time>2026-04-11T09:01:44Z</time></trkpt><trkpt lat="43.74205806919405" lon="12.202117571826292"><ele>488.0</ele><time>2026-04-11T09:01:45Z</time></trkpt><trkpt lat="43.74203661807903" lon="12.202241626482456"><ele>488.0</ele><time>2026-04-11T09:01:46Z</time></trkpt><trkpt lat="43.74200337990641" lon="12.202374214217016"><ele>490.4</ele><time>2026-04-11T09:01:47Z</time></trkpt><trkpt lat="43.74196534986034" lon="12.202507270926363"><ele>492.79999999999995</ele><time>2026-04-11T09:01:48Z</time></trkpt><trkpt lat="43.74193562196879" lon="12.202645588348453"><ele>495.2</ele><time>2026-04-11T09:01:49Z</time></trkpt><trkpt lat="43.74189477651481" lon="12.20276070138938"><ele>497.6</ele><time>2026-04-11T09:01:50Z</time></trkpt><trkpt lat="43.741825506640026" lon="12.202825086573192"><ele>500.0</ele><time>2026-04-11T09:01:51Z</time></trkpt><trkpt lat="43.74173575022936" lon="12.202819733097623"><ele>500.0</ele><time>2026-04-11T09:01:52Z</time></trkpt><trkpt lat="43.741656900444" lon="12.202767597433247"><ele>500.0</ele><time>2026-04-11T09:01:53Z</time></trkpt><trkpt lat="43.74157151907307" lon="12.20272567291768"><ele>500.0</ele><time>2026-04-11T09:01:54Z</time></trkpt><trkpt lat="43.74148331204158" lon="12.202659848638357"><ele>500.0</ele><time>2026-04-11T09:01:55Z</time></trkpt><trkpt lat="43.7414099417633" lon="12.202559354150385"><ele>500.0</ele><time>2026-04-11T09:01:56Z</time></trkpt><trkpt lat="43.74135684544091" lon="12.2024392873789"><ele>497.8</ele><time>2026-04-11T09:01:57Z</time></trkpt><trkpt lat="43.74131530527042" lon="12.202307876324328"><ele>495.6</ele><time>2026-04-11T09:01:58Z</time></trkpt><trkpt lat="43.74126692997432" lon="12.202167800233525"><ele>493.4</ele><time>2026-04-11T09:01:59Z</time></trkpt><trkpt lat="43.74124223268196" lon="12.202019244612522"><ele>491.2</ele><time>2026-04-11T09:02:00Z</time></trkpt><trkpt lat="43.741222429300954" lon="12.201868907950233"><ele>489.0</ele><time>2026-04-11T09:02:01Z</time></trkpt><trkpt lat="43.741195337074" lon="12.201728326863089"><ele>489.0</ele><time>2026-04-11T09:02:02Z</time></trkpt><trkpt lat="43.74113408971753" lon="12.201610236010959"><ele>489.0</ele><time>2026-04-11T09:02:03Z</time></trkpt><trkpt lat="43.741055483844995" lon="12.201498974268056"><ele>489.0</ele><time>2026-04-11T09:02:04Z</time></trkpt><trkpt lat="43.74090752726261" lon="12.201491038743951"><ele>489.0</ele><time>2026-04-11T09:02:05Z</time></trkpt><trkpt lat="43.74078743623169" lon="12.20150415210845"><ele>493.75</ele><time>2026-04-11T09:02:06Z</time></trkpt><trkpt lat="43.740670768407405" lon="12.201515883610053"><ele>498.5</ele><time>2026-04-11T09:02:07Z</time></trkpt><trkpt lat="43.74055389228686" lon="12.201527315944393"><ele>503.25</ele><time>2026-04-11T09:02:08Z</time></trkpt><trkpt lat="43.74043682162243" lon="12.201538767301708"><ele>508.0</ele><time>2026-04-11T09:02:09Z</time></trkpt><trkpt lat="43.740319644497895" lon="12.20155327909721"><ele>510.25</ele><time>2026-04-11T09:02:10Z</time></trkpt><trkpt lat="43.74020525280247" lon="12.201568594808704"><ele>512.5</ele><time>2026-04-11T09:02:11Z</time></trkpt><trkpt lat="43.74009043001487" lon="12.201589429602294"><ele>514.75</ele><time>2026-04-11T09:02:12Z</time></trkpt><trkpt lat="43.73997737736073" lon="12.20161893293782"><ele>517.0</ele><time>2026-04-11T09:02:13Z</time></trkpt><trkpt lat="43.739866635937574" lon="12.201646941910953"><ele>517.0</ele><time>2026-04-11T09:02:14Z</time></trkpt><trkpt lat="43.73976053024694" lon="12.201672241105857"><ele>517.0</ele><time>2026-04-11T09:02:15Z</time></trkpt><trkpt lat="43.739653031010135" lon="12.201689947974469"><ele>517.0</ele><time>2026-04-11T09:02:16Z</time></trkpt><trkpt lat="43.73954055971378" lon="12.201709459925766"><ele>517.0</ele><time>2026-04-11T09:02:17Z</time></trkpt><trkpt lat="43.7394301992058" lon="12.201728605678724"><ele>517.0</ele><time>2026-04-11T09:02:18Z</time></trkpt><trkpt lat="43.73931945194038" lon="12.201749230602667"><ele>519.0</ele><time>2026-04-11T09:02:19Z</time></trkpt><trkpt lat="43.73921967392906" lon="12.201769874170033"><ele>521.0</ele><time>2026-04-11T09:02:20Z</time></trkpt><trkpt lat="43.739125469521774" lon="12.201781022214504"><ele>523.0</ele><time>2026-04-11T09:02:21Z</time></trkpt><trkpt lat="43.73902671456964" lon="12.2017839355683"><ele>525.0</ele><time>2026-04-11T09:02:22Z</time></trkpt><trkpt lat="43.738935792155615" lon="12.201754698303395"><ele>527.0</ele><time>2026-04-11T09:02:23Z</time></trkpt><trkpt lat="43.73885802236607" lon="12.20169489315893"><ele>527.0</ele><time>2026-04-11T09:02:24Z</time></trkpt><trkpt lat="43.738810975732925" lon="12.201583304628098"><ele>527.0</ele><time>2026-04-11T09:02:25Z</time></trkpt><trkpt lat="43.73878974686902" lon="12.201452564240036"><ele>527.0</ele><time>2026-04-11T09:02:26Z</time></trkpt><trkpt lat="43.73877331384674" lon="12.201308021683149"><ele>527.0</ele><time>2026-04-11T09:02:27Z</time></trkpt><trkpt lat="43.73873828844412" lon="12.201165729328181"><ele>527.0</ele><time>2026-04-11T09:02:28Z</time></trkpt><trkpt lat="43.738717439424036" lon="12.201011612423848"><ele>520.5</ele><time>2026-04-11T09:02:29Z</time></trkpt><trkpt lat="43.73866525785919" lon="12.200856772672802"><ele>514.0</ele><time>2026-04-11T09:02:30Z</time></trkpt><trkpt lat="43.73858412534393" lon="12.200723484304659"><ele>507.5</ele><time>2026-04-11T09:02:30.999Z</time></trkpt><trkpt lat="43.73847719777722" lon="12.200615179417744"><ele>501.0</ele><time>2026-04-11T09:02:31.999Z</time></trkpt><trkpt lat="43.73837057804881" lon="12.200534598713414"><ele>498.25</ele><time>2026-04-11T09:02:32.999Z</time></trkpt><trkpt lat="43.73825156800396" lon="12.200472331243295"><ele>495.5</ele><time>2026-04-11T09:02:33.999Z</time></trkpt><trkpt lat="43.73812521382566" lon="12.20047086157509"><ele>492.75</ele><time>2026-04-11T09:02:34.999Z</time></trkpt><trkpt lat="43.73800456659558" lon="12.200569718578116"><ele>490.0</ele><time>2026-04-11T09:02:35.999Z</time></trkpt><trkpt lat="43.73791141591154" lon="12.20068470399481"><ele>497.5</ele><time>2026-04-11T09:02:36.999Z</time></trkpt><trkpt lat="43.737826317958486" lon="12.200789277358929"><ele>505.0</ele><time>2026-04-11T09:02:37.999Z</time></trkpt><trkpt lat="43.737738098503506" lon="12.200882630126356"><ele>512.5</ele><time>2026-04-11T09:02:38.999Z</time></trkpt><trkpt lat="43.73764116907967" lon="12.200963397842076"><ele>520.0</ele><time>2026-04-11T09:02:39.999Z</time></trkpt><trkpt lat="43.737529057593434" lon="12.201047294027612"><ele>520.0</ele><time>2026-04-11T09:02:40.999Z</time></trkpt><trkpt lat="43.737421943689604" lon="12.201118626136857"><ele>520.0</ele><time>2026-04-11T09:02:41.999Z</time></trkpt><trkpt lat="43.737308055578666" lon="12.201193604784633"><ele>520.0</ele><time>2026-04-11T09:02:42.999Z</time></trkpt><trkpt lat="43.737193482837185" lon="12.201266972593103"><ele>520.0</ele><time>2026-04-11T09:02:43.999Z</time></trkpt><trkpt lat="43.737078666149216" lon="12.201340496613671"><ele>520.0</ele><time>2026-04-11T09:02:44.999Z</time></trkpt><trkpt lat="43.73696703385407" lon="12.201411981476957"><ele>520.0</ele><time>2026-04-11T09:02:45.999Z</time></trkpt><trkpt lat="43.73686046722132" lon="12.201480222497564"><ele>520.0</ele><time>2026-04-11T09:02:46.999Z</time></trkpt><trkpt lat="43.73675236510602" lon="12.201545004954644"><ele>520.0</ele><time>2026-04-11T09:02:47.999Z</time></trkpt><trkpt lat="43.73664459993922" lon="12.201595882381334"><ele>524.0</ele><time>2026-04-11T09:02:48.999Z</time></trkpt><trkpt lat="43.73653149743872" lon="12.201625208344879"><ele>528.0</ele><time>2026-04-11T09:02:49.999Z</time></trkpt><trkpt lat="43.736419169421445" lon="12.201659241661718"><ele>532.0</ele><time>2026-04-11T09:02:50.999Z</time></trkpt><trkpt lat="43.73631001327566" lon="12.20168544573073"><ele>536.0</ele><time>2026-04-11T09:02:51.999Z</time></trkpt><trkpt lat="43.73620328716353" lon="12.201688408901996"><ele>540.0</ele><time>2026-04-11T09:02:52.999Z</time></trkpt><trkpt lat="43.73609670071782" lon="12.201660219711759"><ele>540.2</ele><time>2026-04-11T09:02:53.999Z</time></trkpt><trkpt lat="43.73599934797828" lon="12.201595790922877"><ele>540.4</ele><time>2026-04-11T09:02:54.999Z</time></trkpt><trkpt lat="43.73591746032398" lon="12.201503341969449"><ele>540.6</ele><time>2026-04-11T09:02:55.999Z</time></trkpt><trkpt lat="43.73585004455998" lon="12.20139600095821"><ele>540.8</ele><time>2026-04-11T09:02:56.999Z</time></trkpt><trkpt lat="43.73585343913845" lon="12.201236487041502"><ele>541.0</ele><time>2026-04-11T09:02:57.999Z</time></trkpt><trkpt lat="43.73583870059447" lon="12.201084124762781"><ele>540.0</ele><time>2026-04-11T09:02:58.999Z</time></trkpt><trkpt lat="43.73585155544489" lon="12.200935602735537"><ele>539.0</ele><time>2026-04-11T09:02:59.999Z</time></trkpt><trkpt lat="43.7358364528341" lon="12.200793568526692"><ele>538.0</ele><time>2026-04-11T09:03:00.999Z</time></trkpt><trkpt lat="43.735797319185224" lon="12.20064476539259"><ele>537.0</ele><time>2026-04-11T09:03:01.999Z</time></trkpt><trkpt lat="43.735731030847724" lon="12.20051195818325"><ele>536.0</ele><time>2026-04-11T09:03:02.999Z</time></trkpt><trkpt lat="43.73563549236778" lon="12.200401119808056"><ele>537.5</ele><time>2026-04-11T09:03:03.999Z</time></trkpt><trkpt lat="43.7355314629714" lon="12.200316999239222"><ele>539.0</ele><time>2026-04-11T09:03:04.999Z</time></trkpt><trkpt lat="43.73542953241953" lon="12.200239333753984"><ele>540.5</ele><time>2026-04-11T09:03:05.999Z</time></trkpt><trkpt lat="43.73532508287619" lon="12.200159748933078"><ele>542.0</ele><time>2026-04-11T09:03:06.999Z</time></trkpt><trkpt lat="43.735213970274074" lon="12.200075087230369"><ele>542.0</ele><time>2026-04-11T09:03:07.999Z</time></trkpt><trkpt lat="43.73510052710943" lon="12.19999053294803"><ele>542.0</ele><time>2026-04-11T09:03:08.999Z</time></trkpt><trkpt lat="43.73499153086379" lon="12.199909467136633"><ele>542.0</ele><time>2026-04-11T09:03:09.999Z</time></trkpt><trkpt lat="43.73488686986961" lon="12.199831608911516"><ele>542.0</ele><time>2026-04-11T09:03:10.999Z</time></trkpt><trkpt lat="43.73478528261471" lon="12.199758540701964"><ele>537.5</ele><time>2026-04-11T09:03:11.999Z</time></trkpt><trkpt lat="43.73467470792827" lon="12.19968830092221"><ele>533.0</ele><time>2026-04-11T09:03:12.999Z</time></trkpt><trkpt lat="43.73455584219641" lon="12.199630168510339"><ele>528.5</ele><time>2026-04-11T09:03:13.999Z</time></trkpt><trkpt lat="43.734428943955635" lon="12.199587881833502"><ele>524.0</ele><time>2026-04-11T09:03:15Z</time></trkpt><trkpt lat="43.73429296349907" lon="12.199565283310415"><ele>524.0</ele><time>2026-04-11T09:03:16Z</time></trkpt><trkpt lat="43.73416718871053" lon="12.19956275822953"><ele>524.0</ele><time>2026-04-11T09:03:17Z</time></trkpt><trkpt lat="43.734042744505054" lon="12.199569437444145"><ele>524.0</ele><time>2026-04-11T09:03:18Z</time></trkpt><trkpt lat="43.73391971938692" lon="12.199561162651413"><ele>524.0</ele><time>2026-04-11T09:03:19Z</time></trkpt><trkpt lat="43.73379215170872" lon="12.199532184571712"><ele>524.0</ele><time>2026-04-11T09:03:20Z</time></trkpt><trkpt lat="43.733671197980534" lon="12.199473873249616"><ele>524.0</ele><time>2026-04-11T09:03:21Z</time></trkpt><trkpt lat="43.73355219418559" lon="12.199388978784505"><ele>524.0</ele><time>2026-04-11T09:03:22Z</time></trkpt><trkpt lat="43.733434762438804" lon="12.199303830354369"><ele>524.0</ele><time>2026-04-11T09:03:23Z</time></trkpt><trkpt lat="43.73332017108397" lon="12.19922074145645"><ele>528.25</ele><time>2026-04-11T09:03:24Z</time></trkpt><trkpt lat="43.733205545169355" lon="12.199140912186326"><ele>532.5</ele><time>2026-04-11T09:03:25Z</time></trkpt><trkpt lat="43.73308996981367" lon="12.199063672684623"><ele>536.75</ele><time>2026-04-11T09:03:26Z</time></trkpt><trkpt lat="43.73296459501202" lon="12.199001489722345"><ele>541.0</ele><time>2026-04-11T09:03:27Z</time></trkpt><trkpt lat="43.732825897165256" lon="12.198983441954466"><ele>542.75</ele><time>2026-04-11T09:03:28Z</time></trkpt><trkpt lat="43.73268886040159" lon="12.199000925463581"><ele>544.5</ele><time>2026-04-11T09:03:29Z</time></trkpt><trkpt lat="43.73254970739569" lon="12.199049280188804"><ele>546.25</ele><time>2026-04-11T09:03:30Z</time></trkpt><trkpt lat="43.73242544984142" lon="12.199106419592583"><ele>548.0</ele><time>2026-04-11T09:03:31Z</time></trkpt><trkpt lat="43.7323184115384" lon="12.199134780074312"><ele>548.0</ele><time>2026-04-11T09:03:32Z</time></trkpt><trkpt lat="43.73220957984118" lon="12.199128734187344"><ele>548.0</ele><time>2026-04-11T09:03:33Z</time></trkpt><trkpt lat="43.73210518441812" lon="12.19907319692942"><ele>548.0</ele><time>2026-04-11T09:03:34Z</time></trkpt><trkpt lat="43.73200653291509" lon="12.198989816581628"><ele>548.0</ele><time>2026-04-11T09:03:35Z</time></trkpt><trkpt lat="43.731923229323826" lon="12.198870516197484"><ele>545.0</ele><time>2026-04-11T09:03:36Z</time></trkpt><trkpt lat="43.73184126499169" lon="12.198742455758243"><ele>542.0</ele><time>2026-04-11T09:03:37Z</time></trkpt><trkpt lat="43.73175484848447" lon="12.198623188392263"><ele>539.0</ele><time>2026-04-11T09:03:38Z</time></trkpt><trkpt lat="43.73164644715867" lon="12.198528901984044"><ele>536.0</ele><time>2026-04-11T09:03:39Z</time></trkpt><trkpt lat="43.73150555973473" lon="12.198492900199998"><ele>536.0</ele><time>2026-04-11T09:03:40Z</time></trkpt><trkpt lat="43.73136211108022" lon="12.198517170131606"><ele>536.0</ele><time>2026-04-11T09:03:41Z</time></trkpt><trkpt lat="43.73122630912057" lon="12.198556650035885"><ele>536.0</ele><time>2026-04-11T09:03:42Z</time></trkpt><trkpt lat="43.73108997940734" lon="12.19859584240899"><ele>536.0</ele><time>2026-04-11T09:03:43Z</time></trkpt><trkpt lat="43.730958253707854" lon="12.198631714113972"><ele>537.0</ele><time>2026-04-11T09:03:44Z</time></trkpt><trkpt lat="43.73083425010518" lon="12.198653743797783"><ele>538.0</ele><time>2026-04-11T09:03:45Z</time></trkpt><trkpt lat="43.7307062575525" lon="12.198643195005456"><ele>539.0</ele><time>2026-04-11T09:03:46Z</time></trkpt><trkpt lat="43.73058079639797" lon="12.198583928412761"><ele>540.0</ele><time>2026-04-11T09:03:47Z</time></trkpt><trkpt lat="43.73045767356752" lon="12.198498570730518"><ele>540.0</ele><time>2026-04-11T09:03:48Z</time></trkpt><trkpt lat="43.73032762879613" lon="12.198410818814088"><ele>540.0</ele><time>2026-04-11T09:03:49Z</time></trkpt><trkpt lat="43.73020126461783" lon="12.198328113564237"><ele>540.0</ele><time>2026-04-11T09:03:50Z</time></trkpt><trkpt lat="43.730075523246576" lon="12.198243690104105"><ele>540.0</ele><time>2026-04-11T09:03:51Z</time></trkpt><trkpt lat="43.72995840550519" lon="12.198157913333366"><ele>539.75</ele><time>2026-04-11T09:03:52Z</time></trkpt><trkpt lat="43.72986056165699" lon="12.198049657818524"><ele>539.5</ele><time>2026-04-11T09:03:53Z</time></trkpt><trkpt lat="43.7297759689742" lon="12.197914162465073"><ele>539.25</ele><time>2026-04-11T09:03:54Z</time></trkpt><trkpt lat="43.729709536435536" lon="12.197758850594427"><ele>539.0</ele><time>2026-04-11T09:03:55Z</time></trkpt><trkpt lat="43.729631500756554" lon="12.197595153152555"><ele>539.0</ele><time>2026-04-11T09:03:56Z</time></trkpt><trkpt lat="43.729534832198645" lon="12.1974472970772"><ele>539.0</ele><time>2026-04-11T09:03:57Z</time></trkpt><trkpt lat="43.72942957440525" lon="12.197314048206678"><ele>539.0</ele><time>2026-04-11T09:03:58Z</time></trkpt><trkpt lat="43.72931865236363" lon="12.197186651535974"><ele>539.0</ele><time>2026-04-11T09:03:59Z</time></trkpt><trkpt lat="43.7292037258133" lon="12.197064042415095"><ele>540.5</ele><time>2026-04-11T09:04:00Z</time></trkpt><trkpt lat="43.7290858136871" lon="12.196944784646519"><ele>542.0</ele><time>2026-04-11T09:04:01Z</time></trkpt><trkpt lat="43.728969581224106" lon="12.196834274064695"><ele>543.5</ele><time>2026-04-11T09:04:02Z</time></trkpt><trkpt lat="43.72884150902349" lon="12.196729599993915"><ele>545.0</ele><time>2026-04-11T09:04:03Z</time></trkpt><trkpt lat="43.72870515026803" lon="12.19664804926606"><ele>545.0</ele><time>2026-04-11T09:04:04Z</time></trkpt><trkpt lat="43.728562967957984" lon="12.196595161894376"><ele>545.0</ele><time>2026-04-11T09:04:05Z</time></trkpt><trkpt lat="43.72842028517522" lon="12.196558376152762"><ele>545.0</ele><time>2026-04-11T09:04:06Z</time></trkpt><trkpt lat="43.728288641483154" lon="12.196521477274212"><ele>545.0</ele><time>2026-04-11T09:04:07Z</time></trkpt><trkpt lat="43.72816246033328" lon="12.196478086500894"><ele>543.5</ele><time>2026-04-11T09:04:08Z</time></trkpt><trkpt lat="43.72804394500293" lon="12.196431738367924"><ele>542.0</ele><time>2026-04-11T09:04:09Z</time></trkpt><trkpt lat="43.72792690426281" lon="12.196374641515083"><ele>540.5</ele><time>2026-04-11T09:04:10Z</time></trkpt><trkpt lat="43.72781520574748" lon="12.196303195759837"><ele>539.0</ele><time>2026-04-11T09:04:11Z</time></trkpt><trkpt lat="43.727703409896975" lon="12.196228289219334"><ele>543.25</ele><time>2026-04-11T09:04:12Z</time></trkpt><trkpt lat="43.72759142611737" lon="12.196153191018"><ele>547.5</ele><time>2026-04-11T09:04:13Z</time></trkpt><trkpt lat="43.727483218938545" lon="12.196082312097715"><ele>551.75</ele><time>2026-04-11T09:04:14Z</time></trkpt><trkpt lat="43.727376899644206" lon="12.196012670319181"><ele>556.0</ele><time>2026-04-11T09:04:15Z</time></trkpt><trkpt lat="43.72726829326395" lon="12.195941530071599"><ele>556.0</ele><time>2026-04-11T09:04:16Z</time></trkpt><trkpt lat="43.72715914310552" lon="12.195871436047648"><ele>556.0</ele><time>2026-04-11T09:04:17Z</time></trkpt><trkpt lat="43.72704958906967" lon="12.195804023313643"><ele>556.0</ele><time>2026-04-11T09:04:18Z</time></trkpt><trkpt lat="43.72693912654638" lon="12.19574034811365"><ele>556.0</ele><time>2026-04-11T09:04:19Z</time></trkpt><trkpt lat="43.726827988813405" lon="12.195677929678705"><ele>559.0</ele><time>2026-04-11T09:04:20Z</time></trkpt><trkpt lat="43.72671683618705" lon="12.19561732664202"><ele>562.0</ele><time>2026-04-11T09:04:21Z</time></trkpt><trkpt lat="43.726606530869866" lon="12.19555827056104"><ele>565.0</ele><time>2026-04-11T09:04:22Z</time></trkpt><trkpt lat="43.72649100440823" lon="12.195497537325183"><ele>568.0</ele><time>2026-04-11T09:04:23Z</time></trkpt><trkpt lat="43.726377885567764" lon="12.195438069827265"><ele>568.0</ele><time>2026-04-11T09:04:24Z</time></trkpt><trkpt lat="43.72626534109486" lon="12.195376817132457"><ele>568.0</ele><time>2026-04-11T09:04:25Z</time></trkpt><trkpt lat="43.726153181041305" lon="12.195311830158555"><ele>568.0</ele><time>2026-04-11T09:04:26Z</time></trkpt><trkpt lat="43.72603282797242" lon="12.195255778590072"><ele>568.0</ele><time>2026-04-11T09:04:27Z</time></trkpt><trkpt lat="43.725918996700614" lon="12.195170922921955"><ele>568.0</ele><time>2026-04-11T09:04:27.999Z</time></trkpt><trkpt lat="43.72582190612347" lon="12.195044264153864"><ele>568.0</ele><time>2026-04-11T09:04:28.999Z</time></trkpt><trkpt lat="43.725712512535175" lon="12.194929799837793"><ele>568.0</ele><time>2026-04-11T09:04:29.999Z</time></trkpt><trkpt lat="43.725638222071886" lon="12.194773458561022"><ele>568.0</ele><time>2026-04-11T09:04:30.999Z</time></trkpt><trkpt lat="43.72556323118553" lon="12.194629141465645"><ele>566.0</ele><time>2026-04-11T09:04:31.999Z</time></trkpt><trkpt lat="43.72548901265075" lon="12.194480765184743"><ele>564.0</ele><time>2026-04-11T09:04:32.999Z</time></trkpt><trkpt lat="43.7254059608511" lon="12.194346407830166"><ele>562.0</ele><time>2026-04-11T09:04:33.999Z</time></trkpt><trkpt lat="43.72533432107748" lon="12.194202225786634"><ele>560.0</ele><time>2026-04-11T09:04:34.999Z</time></trkpt><trkpt lat="43.725267233320764" lon="12.19405949164392"><ele>558.75</ele><time>2026-04-11T09:04:35.999Z</time></trkpt><trkpt lat="43.72517309943666" lon="12.193942123025248"><ele>557.5</ele><time>2026-04-11T09:04:36.999Z</time></trkpt><trkpt lat="43.725053850702004" lon="12.19388949923955"><ele>556.25</ele><time>2026-04-11T09:04:37.999Z</time></trkpt><trkpt lat="43.724942558135105" lon="12.193909500586264"><ele>555.0</ele><time>2026-04-11T09:04:38.999Z</time></trkpt><trkpt lat="43.724848675309744" lon="12.19401043085423"><ele>555.0</ele><time>2026-04-11T09:04:39.999Z</time></trkpt><trkpt lat="43.72478384010246" lon="12.194152918503853"><ele>555.0</ele><time>2026-04-11T09:04:40.999Z</time></trkpt><trkpt lat="43.724722034075235" lon="12.194288636944352"><ele>555.0</ele><time>2026-04-11T09:04:41.999Z</time></trkpt><trkpt lat="43.72465558535557" lon="12.194423316738275"><ele>555.0</ele><time>2026-04-11T09:04:42.999Z</time></trkpt><trkpt lat="43.724574717758706" lon="12.19453884535588"><ele>555.0</ele><time>2026-04-11T09:04:43.999Z</time></trkpt><trkpt lat="43.724467648944525" lon="12.194638968093734"><ele>555.0</ele><time>2026-04-11T09:04:44.999Z</time></trkpt><trkpt lat="43.724342176757155" lon="12.194715961192207"><ele>555.0</ele><time>2026-04-11T09:04:45.999Z</time></trkpt><trkpt lat="43.72420228348507" lon="12.194774442423267"><ele>555.0</ele><time>2026-04-11T09:04:46.999Z</time></trkpt><trkpt lat="43.724062626079885" lon="12.194826475963016"><ele>555.75</ele><time>2026-04-11T09:04:47.999Z</time></trkpt><trkpt lat="43.72392741069903" lon="12.194877037285634"><ele>556.5</ele><time>2026-04-11T09:04:48.999Z</time></trkpt><trkpt lat="43.7237963478412" lon="12.194922521588053"><ele>557.25</ele><time>2026-04-11T09:04:49.999Z</time></trkpt><trkpt lat="43.72367140544404" lon="12.194952902054395"><ele>558.0</ele><time>2026-04-11T09:04:50.999Z</time></trkpt><trkpt lat="43.723548331979195" lon="12.19496084121718"><ele>555.75</ele><time>2026-04-11T09:04:51.999Z</time></trkpt><trkpt lat="43.72342448642525" lon="12.194938635547876"><ele>553.5</ele><time>2026-04-11T09:04:52.999Z</time></trkpt><trkpt lat="43.72329903112299" lon="12.194897757600774"><ele>551.25</ele><time>2026-04-11T09:04:53.999Z</time></trkpt><trkpt lat="43.723178560556185" lon="12.194856168648771"><ele>549.0</ele><time>2026-04-11T09:04:54.999Z</time></trkpt><trkpt lat="43.72305887446453" lon="12.19481485055027"><ele>549.25</ele><time>2026-04-11T09:04:55.999Z</time></trkpt><trkpt lat="43.72294044929572" lon="12.194774178376337"><ele>549.5</ele><time>2026-04-11T09:04:56.999Z</time></trkpt><trkpt lat="43.722821767562365" lon="12.194739709613632"><ele>549.75</ele><time>2026-04-11T09:04:57.999Z</time></trkpt><trkpt lat="43.722708873677256" lon="12.19469217287799"><ele>550.0</ele><time>2026-04-11T09:04:58.999Z</time></trkpt><trkpt lat="43.72260246610088" lon="12.194595634133025"><ele>550.0</ele><time>2026-04-11T09:04:59.999Z</time></trkpt><trkpt lat="43.722519136723314" lon="12.194463080647667"><ele>550.0</ele><time>2026-04-11T09:05:00.999Z</time></trkpt><trkpt lat="43.722438992704355" lon="12.194343327976563"><ele>550.0</ele><time>2026-04-11T09:05:01.999Z</time></trkpt><trkpt lat="43.72235557100105" lon="12.194231466012145"><ele>550.0</ele><time>2026-04-11T09:05:02.999Z</time></trkpt><trkpt lat="43.72227050720177" lon="12.19414008990212"><ele>550.0</ele><time>2026-04-11T09:05:03.999Z</time></trkpt><trkpt lat="43.72218056136134" lon="12.194052980374343"><ele>550.0</ele><time>2026-04-11T09:05:04.999Z</time></trkpt><trkpt lat="43.72206268957339" lon="12.194029777570488"><ele>550.0</ele><time>2026-04-11T09:05:05.999Z</time></trkpt><trkpt lat="43.721944358052745" lon="12.194036638975371"><ele>550.0</ele><time>2026-04-11T09:05:06.999Z</time></trkpt><trkpt lat="43.72183775849251" lon="12.194065141423208"><ele>551.25</ele><time>2026-04-11T09:05:07.999Z</time></trkpt><trkpt lat="43.72172231683909" lon="12.194072999320499"><ele>552.5</ele><time>2026-04-11T09:05:08.999Z</time></trkpt><trkpt lat="43.72160173744799" lon="12.194079910807249"><ele>553.75</ele><time>2026-04-11T09:05:09.999Z</time></trkpt><trkpt lat="43.721479149801596" lon="12.19408687463379"><ele>555.0</ele><time>2026-04-11T09:05:10.999Z</time></trkpt><trkpt lat="43.72135646011083" lon="12.194092939880775"><ele>555.0</ele><time>2026-04-11T09:05:11.999Z</time></trkpt><trkpt lat="43.72124258098905" lon="12.19410085180455"><ele>555.0</ele><time>2026-04-11T09:05:12.999Z</time></trkpt><trkpt lat="43.72112649630264" lon="12.194107200441167"><ele>555.0</ele><time>2026-04-11T09:05:13.999Z</time></trkpt><trkpt lat="43.721006914164256" lon="12.194111181332145"><ele>555.0</ele><time>2026-04-11T09:05:14.999Z</time></trkpt><trkpt lat="43.72088946193579" lon="12.194113041197983"><ele>555.5</ele><time>2026-04-11T09:05:15.999Z</time></trkpt><trkpt lat="43.72077173496073" lon="12.194147411697488"><ele>556.0</ele><time>2026-04-11T09:05:16.999Z</time></trkpt><trkpt lat="43.72065929591453" lon="12.1941916018857"><ele>556.5</ele><time>2026-04-11T09:05:17.999Z</time></trkpt><trkpt lat="43.72055120490728" lon="12.194260095558175"><ele>557.0</ele><time>2026-04-11T09:05:18.999Z</time></trkpt><trkpt lat="43.720440612214354" lon="12.194333030080795"><ele>557.0</ele><time>2026-04-11T09:05:19.999Z</time></trkpt><trkpt lat="43.72033306390735" lon="12.19439821973348"><ele>557.0</ele><time>2026-04-11T09:05:21Z</time></trkpt><trkpt lat="43.72022763905045" lon="12.194461507826977"><ele>557.0</ele><time>2026-04-11T09:05:22Z</time></trkpt><trkpt lat="43.72012109720085" lon="12.194528090915346"><ele>557.0</ele><time>2026-04-11T09:05:23Z</time></trkpt><trkpt lat="43.72001677561529" lon="12.194594379709427"><ele>556.0</ele><time>2026-04-11T09:05:24Z</time></trkpt><trkpt lat="43.71991435543871" lon="12.194660471257116"><ele>555.0</ele><time>2026-04-11T09:05:25Z</time></trkpt><trkpt lat="43.71981150584859" lon="12.194723255710462"><ele>554.0</ele><time>2026-04-11T09:05:26Z</time></trkpt><trkpt lat="43.719707687294516" lon="12.19478186279606"><ele>553.0</ele><time>2026-04-11T09:05:27Z</time></trkpt><trkpt lat="43.71960058405044" lon="12.194835869001361"><ele>554.1999999999999</ele><time>2026-04-11T09:05:28Z</time></trkpt><trkpt lat="43.71949717783216" lon="12.194884042855907"><ele>555.4</ele><time>2026-04-11T09:05:29Z</time></trkpt><trkpt lat="43.71939282584596" lon="12.194928248660407"><ele>556.5999999999999</ele><time>2026-04-11T09:05:30Z</time></trkpt><trkpt lat="43.719283976176385" lon="12.194972002459009"><ele>557.8</ele><time>2026-04-11T09:05:31Z</time></trkpt><trkpt lat="43.719176989544174" lon="12.195016951257097"><ele>559.0</ele><time>2026-04-11T09:05:32Z</time></trkpt><trkpt lat="43.719069690851846" lon="12.195060913417159"><ele>559.0</ele><time>2026-04-11T09:05:33Z</time></trkpt><trkpt lat="43.71896285197622" lon="12.19510650244866"><ele>559.0</ele><time>2026-04-11T09:05:34Z</time></trkpt><trkpt lat="43.71885532432634" lon="12.19515244072665"><ele>559.0</ele><time>2026-04-11T09:05:35Z</time></trkpt><trkpt lat="43.71874650535135" lon="12.195194424131156"><ele>559.0</ele><time>2026-04-11T09:05:36Z</time></trkpt><trkpt lat="43.71864023495604" lon="12.195239525891276"><ele>559.0</ele><time>2026-04-11T09:05:37Z</time></trkpt><trkpt lat="43.71853341970669" lon="12.195285261295775"><ele>558.0</ele><time>2026-04-11T09:05:38Z</time></trkpt><trkpt lat="43.71843015155921" lon="12.195324828137045"><ele>557.0</ele><time>2026-04-11T09:05:39Z</time></trkpt><trkpt lat="43.71832921470925" lon="12.195363158243165"><ele>556.0</ele><time>2026-04-11T09:05:40Z</time></trkpt><trkpt lat="43.71822643515375" lon="12.195405058243665"><ele>555.0</ele><time>2026-04-11T09:05:41Z</time></trkpt><trkpt lat="43.71812319760273" lon="12.195447814271999"><ele>554.0</ele><time>2026-04-11T09:05:42Z</time></trkpt><trkpt lat="43.71802132154978" lon="12.195491938317536"><ele>554.0</ele><time>2026-04-11T09:05:43Z</time></trkpt><trkpt lat="43.71791696835364" lon="12.195532932675349"><ele>554.0</ele><time>2026-04-11T09:05:44Z</time></trkpt><trkpt lat="43.71781269132268" lon="12.19557697710114"><ele>554.0</ele><time>2026-04-11T09:05:45Z</time></trkpt><trkpt lat="43.71770900820327" lon="12.19562116528559"><ele>554.0</ele><time>2026-04-11T09:05:46Z</time></trkpt><trkpt lat="43.71760934833263" lon="12.195657785433019"><ele>554.0</ele><time>2026-04-11T09:05:47Z</time></trkpt><trkpt lat="43.71751354557872" lon="12.195695284855951"><ele>555.0</ele><time>2026-04-11T09:05:48Z</time></trkpt><trkpt lat="43.7174174663819" lon="12.195733019996387"><ele>556.0</ele><time>2026-04-11T09:05:49Z</time></trkpt><trkpt lat="43.71732275490568" lon="12.195771330040476"><ele>557.0</ele><time>2026-04-11T09:05:50Z</time></trkpt><trkpt lat="43.717231802778784" lon="12.195809696708217"><ele>558.0</ele><time>2026-04-11T09:05:51Z</time></trkpt><trkpt lat="43.71714414903936" lon="12.195846417823573"><ele>559.0</ele><time>2026-04-11T09:05:52Z</time></trkpt><trkpt lat="43.71705770803123" lon="12.19588355977521"><ele>559.0</ele><time>2026-04-11T09:05:53Z</time></trkpt><trkpt lat="43.71697822121148" lon="12.19591792884115"><ele>559.0</ele><time>2026-04-11T09:05:54Z</time></trkpt><trkpt lat="43.71690780276473" lon="12.195947332271375"><ele>559.0</ele><time>2026-04-11T09:05:55Z</time></trkpt><trkpt lat="43.71683858639145" lon="12.19597740954745"><ele>559.0</ele><time>2026-04-11T09:05:56Z</time></trkpt><trkpt lat="43.71677492828059" lon="12.196000859827349"><ele>559.0</ele><time>2026-04-11T09:05:57Z</time></trkpt><trkpt lat="43.71671357596156" lon="12.19602487837695"><ele>559.0</ele><time>2026-04-11T09:05:58Z</time></trkpt><trkpt lat="43.716601427496734" lon="12.19607302433708"><ele>557.8</ele><time>2026-04-11T09:06:00Z</time></trkpt><trkpt lat="43.71649813451353" lon="12.196134983919075"><ele>556.5999999999999</ele><time>2026-04-11T09:06:02Z</time></trkpt><trkpt lat="43.7164051096741" lon="12.19619606909223"><ele>555.4</ele><time>2026-04-11T09:06:04Z</time></trkpt><trkpt lat="43.716336252965625" lon="12.196252470514471"><ele>554.1999999999999</ele><time>2026-04-11T09:06:06Z</time></trkpt><trkpt lat="43.716279955865474" lon="12.196296152430964"><ele>553.0</ele><time>2026-04-11T09:07:59Z</time></trkpt><trkpt lat="43.71617395038846" lon="12.196367179658711"><ele>553.0</ele><time>2026-04-11T09:08:01Z</time></trkpt><trkpt lat="43.716101881778066" lon="12.196411698694615"><ele>553.0</ele><time>2026-04-11T09:08:02Z</time></trkpt><trkpt lat="43.71602416589766" lon="12.196462167035634"><ele>553.0</ele><time>2026-04-11T09:08:03Z</time></trkpt><trkpt lat="43.715928728792896" lon="12.196493003371733"><ele>553.0</ele><time>2026-04-11T09:08:04Z</time></trkpt><trkpt lat="43.71583169331496" lon="12.196543767669498"><ele>553.0</ele><time>2026-04-11T09:08:05Z</time></trkpt><trkpt lat="43.71572155350015" lon="12.19658495558335"><ele>552.25</ele><time>2026-04-11T09:08:06Z</time></trkpt><trkpt lat="43.71560209258654" lon="12.19660489141783"><ele>551.5</ele><time>2026-04-11T09:08:07Z</time></trkpt><trkpt lat="43.71547879585345" lon="12.196606901697178"><ele>550.75</ele><time>2026-04-11T09:08:08Z</time></trkpt><trkpt lat="43.7153552798611" lon="12.196588812453307"><ele>550.0</ele><time>2026-04-11T09:08:09Z</time></trkpt><trkpt lat="43.715213633585336" lon="12.196553535927128"><ele>544.0</ele><time>2026-04-11T09:08:10Z</time></trkpt><trkpt lat="43.715073084738854" lon="12.196493086146317"><ele>538.0</ele><time>2026-04-11T09:08:11Z</time></trkpt><trkpt lat="43.71494007152071" lon="12.196397597564985"><ele>532.0</ele><time>2026-04-11T09:08:12Z</time></trkpt><trkpt lat="43.71481562024829" lon="12.196271988769887"><ele>532.0</ele><time>2026-04-11T09:08:13Z</time></trkpt><trkpt lat="43.714699559294644" lon="12.196122065427017"><ele>532.0</ele><time>2026-04-11T09:08:14Z</time></trkpt><trkpt lat="43.71458026892159" lon="12.195963191248415"><ele>532.0</ele><time>2026-04-11T09:08:15Z</time></trkpt><trkpt lat="43.71446012281118" lon="12.195803177155971"><ele>532.6666666666667</ele><time>2026-04-11T09:08:16Z</time></trkpt><trkpt lat="43.714335624904265" lon="12.195637367412571"><ele>533.3333333333334</ele><time>2026-04-11T09:08:17Z</time></trkpt><trkpt lat="43.71421767446987" lon="12.195480830902882"><ele>534.0</ele><time>2026-04-11T09:08:18Z</time></trkpt><trkpt lat="43.71410924145446" lon="12.195337573350342"><ele>534.0</ele><time>2026-04-11T09:08:19Z</time></trkpt><trkpt lat="43.71400095778371" lon="12.195194513260908"><ele>534.0</ele><time>2026-04-11T09:08:20Z</time></trkpt><trkpt lat="43.713899614766774" lon="12.19506062283079"><ele>534.0</ele><time>2026-04-11T09:08:21Z</time></trkpt><trkpt lat="43.71380464252211" lon="12.194935149008927"><ele>534.0</ele><time>2026-04-11T09:08:22Z</time></trkpt><trkpt lat="43.71371637336193" lon="12.194818531214823"><ele>534.6</ele><time>2026-04-11T09:08:23Z</time></trkpt><trkpt lat="43.71363185102937" lon="12.194707020406364"><ele>535.2</ele><time>2026-04-11T09:08:24Z</time></trkpt><trkpt lat="43.71354973432318" lon="12.194598700083933"><ele>535.8000000000001</ele><time>2026-04-11T09:08:25Z</time></trkpt><trkpt lat="43.713470962264" lon="12.19449479138302"><ele>536.4</ele><time>2026-04-11T09:08:26Z</time></trkpt><trkpt lat="43.71339320436556" lon="12.194392220605888"><ele>537.0</ele><time>2026-04-11T09:08:27Z</time></trkpt><trkpt lat="43.71331688623936" lon="12.194291548977477"><ele>540.8000000000001</ele><time>2026-04-11T09:08:28Z</time></trkpt><trkpt lat="43.71324210481713" lon="12.19419290453103"><ele>544.6</ele><time>2026-04-11T09:08:29Z</time></trkpt><trkpt lat="43.71316761372105" lon="12.194092943756994"><ele>548.4000000000001</ele><time>2026-04-11T09:08:30Z</time></trkpt><trkpt lat="43.71309632988023" lon="12.19399608240623"><ele>552.2</ele><time>2026-04-11T09:08:31Z</time></trkpt><trkpt lat="43.71302855085035" lon="12.193904436103457"><ele>556.0</ele><time>2026-04-11T09:08:32Z</time></trkpt><trkpt lat="43.712965849456765" lon="12.193820103551186"><ele>556.4</ele><time>2026-04-11T09:08:33Z</time></trkpt><trkpt lat="43.712904757791655" lon="12.193737789269086"><ele>556.8</ele><time>2026-04-11T09:08:33.999Z</time></trkpt><trkpt lat="43.712840165077935" lon="12.193647986534224"><ele>557.1999999999999</ele><time>2026-04-11T09:08:34.999Z</time></trkpt><trkpt lat="43.71277596928416" lon="12.193553766563138"><ele>557.6</ele><time>2026-04-11T09:08:35.999Z</time></trkpt><trkpt lat="43.71271169197376" lon="12.193454811113181"><ele>558.0</ele><time>2026-04-11T09:08:36.999Z</time></trkpt><trkpt lat="43.712648233015045" lon="12.193351993270813"><ele>560.0</ele><time>2026-04-11T09:08:37.999Z</time></trkpt><trkpt lat="43.71258159564577" lon="12.193244786527021"><ele>562.0</ele><time>2026-04-11T09:08:38.999Z</time></trkpt><trkpt lat="43.71251433142809" lon="12.193136833929934"><ele>564.0</ele><time>2026-04-11T09:08:39.999Z</time></trkpt><trkpt lat="43.71242866404149" lon="12.193049546918605"><ele>566.0</ele><time>2026-04-11T09:08:40.999Z</time></trkpt><trkpt lat="43.712356030504864" lon="12.192944875641267"><ele>568.0</ele><time>2026-04-11T09:08:41.999Z</time></trkpt><trkpt lat="43.71228238456587" lon="12.192838390813383"><ele>569.4</ele><time>2026-04-11T09:08:42.999Z</time></trkpt><trkpt lat="43.71221185372887" lon="12.192734051892186"><ele>570.8</ele><time>2026-04-11T09:08:43.999Z</time></trkpt><trkpt lat="43.712155980808525" lon="12.192602849577218"><ele>572.2</ele><time>2026-04-11T09:08:44.999Z</time></trkpt><trkpt lat="43.712073955972755" lon="12.192506483823085"><ele>573.6</ele><time>2026-04-11T09:08:45.999Z</time></trkpt><trkpt lat="43.71199189734392" lon="12.192427155554197"><ele>575.0</ele><time>2026-04-11T09:08:46.999Z</time></trkpt><trkpt lat="43.711910308020656" lon="12.192357069793536"><ele>578.2</ele><time>2026-04-11T09:08:47.999Z</time></trkpt><trkpt lat="43.711823344596425" lon="12.19229650836291"><ele>581.4</ele><time>2026-04-11T09:08:48.999Z</time></trkpt><trkpt lat="43.71173341882439" lon="12.19225167457691"><ele>584.6</ele><time>2026-04-11T09:08:49.999Z</time></trkpt><trkpt lat="43.71163840936726" lon="12.192220466938824"><ele>587.8</ele><time>2026-04-11T09:08:50.999Z</time></trkpt><trkpt lat="43.711540440521034" lon="12.192203663566474"><ele>591.0</ele><time>2026-04-11T09:08:51.999Z</time></trkpt><trkpt lat="43.71143965067454" lon="12.192204983569088"><ele>591.0</ele><time>2026-04-11T09:08:52.999Z</time></trkpt><trkpt lat="43.71133533991718" lon="12.192222426043802"><ele>591.0</ele><time>2026-04-11T09:08:53.999Z</time></trkpt><trkpt lat="43.71123131372216" lon="12.192252210313947"><ele>591.0</ele><time>2026-04-11T09:08:54.999Z</time></trkpt><trkpt lat="43.711128909376285" lon="12.192292550177978"><ele>591.0</ele><time>2026-04-11T09:08:55.999Z</time></trkpt><trkpt lat="43.71102418485475" lon="12.192344356851695"><ele>591.0</ele><time>2026-04-11T09:08:56.999Z</time></trkpt><trkpt lat="43.71091775654888" lon="12.192407802025048"><ele>591.0</ele><time>2026-04-11T09:08:57.999Z</time></trkpt><trkpt lat="43.710809795852434" lon="12.192473831508561"><ele>591.0</ele><time>2026-04-11T09:08:58.999Z</time></trkpt><trkpt lat="43.71070200791271" lon="12.192543106927713"><ele>591.0</ele><time>2026-04-11T09:08:59.999Z</time></trkpt><trkpt lat="43.71059304105134" lon="12.19262007458891"><ele>591.0</ele><time>2026-04-11T09:09:00.999Z</time></trkpt><trkpt lat="43.7104897755372" lon="12.19270010542257"><ele>591.0</ele><time>2026-04-11T09:09:01.999Z</time></trkpt><trkpt lat="43.710408309952044" lon="12.192802995997473"><ele>591.0</ele><time>2026-04-11T09:09:02.999Z</time></trkpt><trkpt lat="43.710322635891906" lon="12.192892068312974"><ele>591.0</ele><time>2026-04-11T09:09:03.999Z</time></trkpt><trkpt lat="43.71024268939404" lon="12.192993689068475"><ele>591.0</ele><time>2026-04-11T09:09:04.999Z</time></trkpt><trkpt lat="43.710168305470866" lon="12.193105836158383"><ele>591.0</ele><time>2026-04-11T09:09:05.999Z</time></trkpt><trkpt lat="43.710099580104504" lon="12.193228284017492"><ele>593.25</ele><time>2026-04-11T09:09:06.999Z</time></trkpt><trkpt lat="43.71003837958619" lon="12.193361212460257"><ele>595.5</ele><time>2026-04-11T09:09:07.999Z</time></trkpt><trkpt lat="43.70998380459216" lon="12.19349744545012"><ele>597.75</ele><time>2026-04-11T09:09:08.999Z</time></trkpt><trkpt lat="43.709937616998936" lon="12.193637754661186"><ele>600.0</ele><time>2026-04-11T09:09:09.999Z</time></trkpt><trkpt lat="43.709893083679816" lon="12.193784031972992"><ele>600.0</ele><time>2026-04-11T09:09:10.999Z</time></trkpt><trkpt lat="43.709848103470705" lon="12.193933064841255"><ele>600.0</ele><time>2026-04-11T09:09:11.999Z</time></trkpt><trkpt lat="43.70980148758508" lon="12.194083584352567"><ele>600.0</ele><time>2026-04-11T09:09:12.999Z</time></trkpt><trkpt lat="43.709754699913276" lon="12.19423011532903"><ele>600.0</ele><time>2026-04-11T09:09:13.999Z</time></trkpt><trkpt lat="43.70971385722964" lon="12.194376234513273"><ele>598.5</ele><time>2026-04-11T09:09:14.999Z</time></trkpt><trkpt lat="43.70966810394964" lon="12.194517445579141"><ele>597.0</ele><time>2026-04-11T09:09:15.999Z</time></trkpt><trkpt lat="43.70961978558238" lon="12.19465923999991"><ele>595.5</ele><time>2026-04-11T09:09:16.999Z</time></trkpt><trkpt lat="43.70956473368524" lon="12.194797801722203"><ele>594.0</ele><time>2026-04-11T09:09:17.999Z</time></trkpt><trkpt lat="43.70950184638423" lon="12.194930892491918"><ele>592.5</ele><time>2026-04-11T09:09:18.999Z</time></trkpt><trkpt lat="43.7094286945613" lon="12.19505581356724"><ele>591.0</ele><time>2026-04-11T09:09:19.999Z</time></trkpt><trkpt lat="43.70933220212521" lon="12.195152322263109"><ele>589.5</ele><time>2026-04-11T09:09:20.999Z</time></trkpt><trkpt lat="43.7092415844389" lon="12.195255579185124"><ele>588.0</ele><time>2026-04-11T09:09:21.999Z</time></trkpt><trkpt lat="43.70914348942441" lon="12.195346366507724"><ele>593.5</ele><time>2026-04-11T09:09:22.999Z</time></trkpt><trkpt lat="43.70904202072528" lon="12.195420218699763"><ele>599.0</ele><time>2026-04-11T09:09:23.999Z</time></trkpt><trkpt lat="43.70893615138253" lon="12.195484419203257"><ele>604.5</ele><time>2026-04-11T09:09:24.999Z</time></trkpt><trkpt lat="43.70882920174273" lon="12.195533855407973"><ele>610.0</ele><time>2026-04-11T09:09:25.999Z</time></trkpt><trkpt lat="43.708719121077074" lon="12.195568959178948"><ele>610.0</ele><time>2026-04-11T09:09:26.999Z</time></trkpt><trkpt lat="43.708606985483044" lon="12.195594227292252"><ele>610.0</ele><time>2026-04-11T09:09:27.999Z</time></trkpt><trkpt lat="43.7084940510654" lon="12.195607911579087"><ele>610.0</ele><time>2026-04-11T09:09:28.999Z</time></trkpt><trkpt lat="43.70837756044912" lon="12.195608993775052"><ele>610.0</ele><time>2026-04-11T09:09:29.999Z</time></trkpt><trkpt lat="43.70826129898061" lon="12.195597168398372"><ele>612.0</ele><time>2026-04-11T09:09:30.999Z</time></trkpt><trkpt lat="43.708148272617635" lon="12.195569677670951"><ele>614.0</ele><time>2026-04-11T09:09:31.999Z</time></trkpt><trkpt lat="43.7080342855018" lon="12.195529175415853"><ele>616.0</ele><time>2026-04-11T09:09:33Z</time></trkpt><trkpt lat="43.707923855315926" lon="12.195476330684675"><ele>618.0</ele><time>2026-04-11T09:09:34Z</time></trkpt><trkpt lat="43.7078191417946" lon="12.195407512804994"><ele>619.5</ele><time>2026-04-11T09:09:35Z</time></trkpt><trkpt lat="43.70771902256542" lon="12.195321941030963"><ele>621.0</ele><time>2026-04-11T09:09:36Z</time></trkpt><trkpt lat="43.7076212388133" lon="12.195225717315457"><ele>622.5</ele><time>2026-04-11T09:09:37Z</time></trkpt><trkpt lat="43.707521331173794" lon="12.195126260146226"><ele>624.0</ele><time>2026-04-11T09:09:38Z</time></trkpt><trkpt lat="43.70742125918768" lon="12.195026411518366"><ele>624.0</ele><time>2026-04-11T09:09:39Z</time></trkpt><trkpt lat="43.70731866222042" lon="12.19492404342178"><ele>624.0</ele><time>2026-04-11T09:09:40Z</time></trkpt><trkpt lat="43.70721644368865" lon="12.194822053086268"><ele>624.0</ele><time>2026-04-11T09:09:41Z</time></trkpt><trkpt lat="43.70711728282229" lon="12.194722964804258"><ele>624.0</ele><time>2026-04-11T09:09:42Z</time></trkpt><trkpt lat="43.70701630175718" lon="12.194622027391176"><ele>625.75</ele><time>2026-04-11T09:09:43Z</time></trkpt><trkpt lat="43.70691426847268" lon="12.194519779158924"><ele>627.5</ele><time>2026-04-11T09:09:44Z</time></trkpt><trkpt lat="43.70681133047629" lon="12.194416400033129"><ele>629.25</ele><time>2026-04-11T09:09:45Z</time></trkpt><trkpt lat="43.7067079510543" lon="12.194312577479907"><ele>631.0</ele><time>2026-04-11T09:09:46Z</time></trkpt><trkpt lat="43.70660477376377" lon="12.194208957855246"><ele>631.0</ele><time>2026-04-11T09:09:47Z</time></trkpt><trkpt lat="43.70650418809003" lon="12.194108951224042"><ele>631.0</ele><time>2026-04-11T09:09:48Z</time></trkpt><trkpt lat="43.70640668075695" lon="12.194012466830578"><ele>631.0</ele><time>2026-04-11T09:09:49Z</time></trkpt><trkpt lat="43.7063105592359" lon="12.193917353441005"><ele>631.0</ele><time>2026-04-11T09:09:50Z</time></trkpt><trkpt lat="43.70621617998358" lon="12.193822224265807"><ele>633.75</ele><time>2026-04-11T09:09:51Z</time></trkpt><trkpt lat="43.70612035075329" lon="12.19372754126041"><ele>636.5</ele><time>2026-04-11T09:09:52Z</time></trkpt><trkpt lat="43.706021947660524" lon="12.193638096034448"><ele>639.25</ele><time>2026-04-11T09:09:53Z</time></trkpt><trkpt lat="43.70592142087365" lon="12.193558940839983"><ele>642.0</ele><time>2026-04-11T09:09:54Z</time></trkpt><trkpt lat="43.70581609751387" lon="12.193498461041678"><ele>642.0</ele><time>2026-04-11T09:09:55Z</time></trkpt><trkpt lat="43.705707450646045" lon="12.193458838952719"><ele>642.0</ele><time>2026-04-11T09:09:56Z</time></trkpt><trkpt lat="43.70560173565659" lon="12.193430642235644"><ele>642.0</ele><time>2026-04-11T09:09:57Z</time></trkpt><trkpt lat="43.70549165811987" lon="12.193423501139376"><ele>642.0</ele><time>2026-04-11T09:09:58Z</time></trkpt><trkpt lat="43.70538574417564" lon="12.193415465319623"><ele>642.0</ele><time>2026-04-11T09:09:59Z</time></trkpt><trkpt lat="43.705286419615966" lon="12.193409282536114"><ele>642.6</ele><time>2026-04-11T09:10:00Z</time></trkpt><trkpt lat="43.70518697423862" lon="12.19340309222443"><ele>643.2</ele><time>2026-04-11T09:10:01Z</time></trkpt><trkpt lat="43.705082908899904" lon="12.193396614260392"><ele>643.8</ele><time>2026-04-11T09:10:02Z</time></trkpt><trkpt lat="43.70497698366159" lon="12.193390273236048"><ele>644.4</ele><time>2026-04-11T09:10:03Z</time></trkpt><trkpt lat="43.70486717536997" lon="12.19338364459236"><ele>645.0</ele><time>2026-04-11T09:10:04Z</time></trkpt><trkpt lat="43.70475488893399" lon="12.193373377401825"><ele>645.0</ele><time>2026-04-11T09:10:05Z</time></trkpt><trkpt lat="43.704640190669366" lon="12.193360191173719"><ele>645.0</ele><time>2026-04-11T09:10:06Z</time></trkpt><trkpt lat="43.704532691543086" lon="12.19335634746074"><ele>645.0</ele><time>2026-04-11T09:10:07Z</time></trkpt><trkpt lat="43.70444108290727" lon="12.193269135704995"><ele>645.0</ele><time>2026-04-11T09:10:08Z</time></trkpt><trkpt lat="43.70434690866697" lon="12.193180480927534"><ele>645.0</ele><time>2026-04-11T09:10:09Z</time></trkpt><trkpt lat="43.70429310161113" lon="12.193037420255118"><ele>646.5</ele><time>2026-04-11T09:10:10Z</time></trkpt><trkpt lat="43.70427139606106" lon="12.19287624723226"><ele>648.0</ele><time>2026-04-11T09:10:11Z</time></trkpt><trkpt lat="43.70428115315839" lon="12.192716571244143"><ele>649.5</ele><time>2026-04-11T09:10:12Z</time></trkpt><trkpt lat="43.70432845508559" lon="12.192565263940955"><ele>651.0</ele><time>2026-04-11T09:10:13Z</time></trkpt><trkpt lat="43.704414992554014" lon="12.192440276711794"><ele>652.25</ele><time>2026-04-11T09:10:14Z</time></trkpt><trkpt lat="43.70452802793867" lon="12.192351866504302"><ele>653.5</ele><time>2026-04-11T09:10:15Z</time></trkpt><trkpt lat="43.704649415670055" lon="12.192301713402033"><ele>654.75</ele><time>2026-04-11T09:10:16Z</time></trkpt><trkpt lat="43.704778214807284" lon="12.192267313458354"><ele>656.0</ele><time>2026-04-11T09:10:17Z</time></trkpt><trkpt lat="43.704908772893695" lon="12.192233916399598"><ele>657.25</ele><time>2026-04-11T09:10:18Z</time></trkpt><trkpt lat="43.70504340421853" lon="12.1922015175819"><ele>658.5</ele><time>2026-04-11T09:10:19Z</time></trkpt><trkpt lat="43.70517764931021" lon="12.192165237482694"><ele>659.75</ele><time>2026-04-11T09:10:20Z</time></trkpt><trkpt lat="43.7053082038636" lon="12.19212390670728"><ele>661.0</ele><time>2026-04-11T09:10:21Z</time></trkpt><trkpt lat="43.705424079142084" lon="12.192082316638281"><ele>661.0</ele><time>2026-04-11T09:10:22Z</time></trkpt><trkpt lat="43.70554055341753" lon="12.19204117365698"><ele>661.0</ele><time>2026-04-11T09:10:23Z</time></trkpt><trkpt lat="43.70565927666888" lon="12.191998322354399"><ele>661.0</ele><time>2026-04-11T09:10:24Z</time></trkpt><trkpt lat="43.70575849639786" lon="12.191928495205893"><ele>661.0</ele><time>2026-04-11T09:10:25Z</time></trkpt><trkpt lat="43.70584062558086" lon="12.191824557901013"><ele>661.0</ele><time>2026-04-11T09:10:26Z</time></trkpt><trkpt lat="43.70590495420493" lon="12.191692195449289"><ele>661.0</ele><time>2026-04-11T09:10:27Z</time></trkpt><trkpt lat="43.70593542934551" lon="12.19153636174983"><ele>661.0</ele><time>2026-04-11T09:10:28Z</time></trkpt><trkpt lat="43.70594192545704" lon="12.191367013964113"><ele>661.0</ele><time>2026-04-11T09:10:29Z</time></trkpt><trkpt lat="43.70591128523993" lon="12.191201085773168"><ele>664.75</ele><time>2026-04-11T09:10:30Z</time></trkpt><trkpt lat="43.705847440351604" lon="12.191046723156497"><ele>668.5</ele><time>2026-04-11T09:10:31Z</time></trkpt><trkpt lat="43.705735066218544" lon="12.19092732577857"><ele>672.25</ele><time>2026-04-11T09:10:32Z</time></trkpt><trkpt lat="43.70559639738001" lon="12.190875488723167"><ele>676.0</ele><time>2026-04-11T09:10:33Z</time></trkpt><trkpt lat="43.70546327452666" lon="12.190878751824272"><ele>676.0</ele><time>2026-04-11T09:10:34Z</time></trkpt><trkpt lat="43.7053367199037" lon="12.190914593698292"><ele>676.0</ele><time>2026-04-11T09:10:35Z</time></trkpt><trkpt lat="43.70520590034005" lon="12.190904621794058"><ele>676.0</ele><time>2026-04-11T09:10:36Z</time></trkpt><trkpt lat="43.70507038062988" lon="12.190917706460446"><ele>676.0</ele><time>2026-04-11T09:10:36.999Z</time></trkpt><trkpt lat="43.704932066346295" lon="12.190931060941915"><ele>676.0</ele><time>2026-04-11T09:10:37.999Z</time></trkpt><trkpt lat="43.70479528702634" lon="12.190943408211686"><ele>676.0</ele><time>2026-04-11T09:10:38.999Z</time></trkpt><trkpt lat="43.70466223340175" lon="12.190945012643148"><ele>676.0</ele><time>2026-04-11T09:10:39.999Z</time></trkpt><trkpt lat="43.704530599933996" lon="12.190927652472089"><ele>676.0</ele><time>2026-04-11T09:10:40.999Z</time></trkpt><trkpt lat="43.70440354085461" lon="12.190874968016129"><ele>675.75</ele><time>2026-04-11T09:10:41.999Z</time></trkpt><trkpt lat="43.70427879729885" lon="12.190822877786392"><ele>675.5</ele><time>2026-04-11T09:10:42.999Z</time></trkpt><trkpt lat="43.70415557621304" lon="12.190766905971588"><ele>675.25</ele><time>2026-04-11T09:10:43.999Z</time></trkpt><trkpt lat="43.704030751862376" lon="12.190710570144988"><ele>675.0</ele><time>2026-04-11T09:10:44.999Z</time></trkpt><trkpt lat="43.70390879653618" lon="12.190653517494209"><ele>677.75</ele><time>2026-04-11T09:10:45.999Z</time></trkpt><trkpt lat="43.70379753185636" lon="12.190600349796254"><ele>680.5</ele><time>2026-04-11T09:10:46.999Z</time></trkpt><trkpt lat="43.70368829804438" lon="12.190547825550048"><ele>683.25</ele><time>2026-04-11T09:10:47.999Z</time></trkpt><trkpt lat="43.70357702541333" lon="12.190494319305314"><ele>686.0</ele><time>2026-04-11T09:10:48.999Z</time></trkpt><trkpt lat="43.70346622236447" lon="12.190441044544842"><ele>686.0</ele><time>2026-04-11T09:10:49.999Z</time></trkpt><trkpt lat="43.70335875188243" lon="12.19038455151328"><ele>686.0</ele><time>2026-04-11T09:10:50.999Z</time></trkpt><trkpt lat="43.703250336024674" lon="12.19033584607223"><ele>686.0</ele><time>2026-04-11T09:10:51.999Z</time></trkpt><trkpt lat="43.703158791287365" lon="12.190238099480773"><ele>686.0</ele><time>2026-04-11T09:10:52.999Z</time></trkpt><trkpt lat="43.70307719144017" lon="12.190120505998031"><ele>686.0</ele><time>2026-04-11T09:10:53.999Z</time></trkpt><trkpt lat="43.703011393339125" lon="12.189990251133802"><ele>686.0</ele><time>2026-04-11T09:10:54.999Z</time></trkpt><trkpt lat="43.70295816377531" lon="12.189847984572486"><ele>686.0</ele><time>2026-04-11T09:10:55.999Z</time></trkpt><trkpt lat="43.702928348728776" lon="12.189689775445737"><ele>686.0</ele><time>2026-04-11T09:10:56.999Z</time></trkpt><trkpt lat="43.70291053182635" lon="12.189531999961595"><ele>686.75</ele><time>2026-04-11T09:10:57.999Z</time></trkpt><trkpt lat="43.70291474696441" lon="12.189361203287646"><ele>687.5</ele><time>2026-04-11T09:10:58.999Z</time></trkpt><trkpt lat="43.70293146177836" lon="12.189195657981784"><ele>688.25</ele><time>2026-04-11T09:10:59.999Z</time></trkpt><trkpt lat="43.70296633738678" lon="12.189037185956183"><ele>689.0</ele><time>2026-04-11T09:11:00.999Z</time></trkpt><trkpt lat="43.70302365323614" lon="12.188892020711611"><ele>689.0</ele><time>2026-04-11T09:11:01.999Z</time></trkpt><trkpt lat="43.703109328654286" lon="12.188767041830948"><ele>689.0</ele><time>2026-04-11T09:11:02.999Z</time></trkpt><trkpt lat="43.703207654356625" lon="12.188666118502988"><ele>689.0</ele><time>2026-04-11T09:11:03.999Z</time></trkpt><trkpt lat="43.70330281719197" lon="12.188563340292074"><ele>689.0</ele><time>2026-04-11T09:11:04.999Z</time></trkpt><trkpt lat="43.703399366839186" lon="12.188457046928967"><ele>689.0</ele><time>2026-04-11T09:11:05.999Z</time></trkpt><trkpt lat="43.70349579578555" lon="12.188356580456201"><ele>689.0</ele><time>2026-04-11T09:11:06.999Z</time></trkpt><trkpt lat="43.703589306556275" lon="12.18825567325446"><ele>689.0</ele><time>2026-04-11T09:11:07.999Z</time></trkpt><trkpt lat="43.70368297920637" lon="12.188155204047298"><ele>689.0</ele><time>2026-04-11T09:11:08.999Z</time></trkpt><trkpt lat="43.70377729378087" lon="12.188061165893142"><ele>689.75</ele><time>2026-04-11T09:11:09.999Z</time></trkpt><trkpt lat="43.70386888460018" lon="12.187961906154914"><ele>690.5</ele><time>2026-04-11T09:11:10.999Z</time></trkpt><trkpt lat="43.70396231831058" lon="12.18785949356181"><ele>691.25</ele><time>2026-04-11T09:11:11.999Z</time></trkpt><trkpt lat="43.70405760367084" lon="12.187760115843083"><ele>692.0</ele><time>2026-04-11T09:11:12.999Z</time></trkpt><trkpt lat="43.7041560511707" lon="12.187661529806613"><ele>692.0</ele><time>2026-04-11T09:11:13.999Z</time></trkpt><trkpt lat="43.704254215090536" lon="12.18756223675632"><ele>692.0</ele><time>2026-04-11T09:11:14.999Z</time></trkpt><trkpt lat="43.70435417133797" lon="12.187459818554757"><ele>692.0</ele><time>2026-04-11T09:11:15.999Z</time></trkpt><trkpt lat="43.70445312522911" lon="12.187355185251004"><ele>692.0</ele><time>2026-04-11T09:11:16.999Z</time></trkpt><trkpt lat="43.704549101774994" lon="12.187249145787021"><ele>692.0</ele><time>2026-04-11T09:11:17.999Z</time></trkpt><trkpt lat="43.70464644092135" lon="12.187153384080977"><ele>692.0</ele><time>2026-04-11T09:11:18.999Z</time></trkpt><trkpt lat="43.70474413798943" lon="12.18705550771222"><ele>692.0</ele><time>2026-04-11T09:11:19.999Z</time></trkpt><trkpt lat="43.704841457762015" lon="12.186954967554797"><ele>692.0</ele><time>2026-04-11T09:11:20.999Z</time></trkpt><trkpt lat="43.70494112213691" lon="12.186854121690585"><ele>692.0</ele><time>2026-04-11T09:11:21.999Z</time></trkpt><trkpt lat="43.705039768521594" lon="12.186748199170959"><ele>692.0</ele><time>2026-04-11T09:11:22.999Z</time></trkpt><trkpt lat="43.70513656673751" lon="12.186636843218132"><ele>692.0</ele><time>2026-04-11T09:11:23.999Z</time></trkpt><trkpt lat="43.705226434898" lon="12.186518654618688"><ele>692.0</ele><time>2026-04-11T09:11:24.999Z</time></trkpt><trkpt lat="43.70531812497428" lon="12.186401605538727"><ele>693.75</ele><time>2026-04-11T09:11:25.999Z</time></trkpt><trkpt lat="43.70540707751913" lon="12.186282643284825"><ele>695.5</ele><time>2026-04-11T09:11:26.999Z</time></trkpt><trkpt lat="43.70549347615121" lon="12.186170447921928"><ele>697.25</ele><time>2026-04-11T09:11:27.999Z</time></trkpt><trkpt lat="43.705580371258364" lon="12.186048879085181"><ele>699.0</ele><time>2026-04-11T09:11:28.999Z</time></trkpt><trkpt lat="43.705664024797436" lon="12.1859325395952"><ele>699.0</ele><time>2026-04-11T09:11:29.999Z</time></trkpt><trkpt lat="43.70574478184165" lon="12.185823944495006"><ele>699.0</ele><time>2026-04-11T09:11:30.999Z</time></trkpt><trkpt lat="43.70582567375706" lon="12.185712651751889"><ele>699.0</ele><time>2026-04-11T09:11:31.999Z</time></trkpt><trkpt lat="43.70591024315381" lon="12.185604540055692"><ele>699.0</ele><time>2026-04-11T09:11:32.999Z</time></trkpt><trkpt lat="43.70599700468549" lon="12.185492528801687"><ele>699.0</ele><time>2026-04-11T09:11:33.999Z</time></trkpt><trkpt lat="43.70608259365478" lon="12.185376407876408"><ele>699.0</ele><time>2026-04-11T09:11:34.999Z</time></trkpt><trkpt lat="43.7061640209086" lon="12.185266489539158"><ele>699.0</ele><time>2026-04-11T09:11:35.999Z</time></trkpt><trkpt lat="43.70624678453308" lon="12.185159101521084"><ele>699.0</ele><time>2026-04-11T09:11:36.999Z</time></trkpt><trkpt lat="43.70632835060721" lon="12.18504552032569"><ele>699.0</ele><time>2026-04-11T09:11:37.999Z</time></trkpt><trkpt lat="43.706410403024734" lon="12.184924550313925"><ele>699.0</ele><time>2026-04-11T09:11:39Z</time></trkpt><trkpt lat="43.70649553203286" lon="12.184812342887696"><ele>699.0</ele><time>2026-04-11T09:11:40Z</time></trkpt><trkpt lat="43.70658324102968" lon="12.18469739152434"><ele>699.0</ele><time>2026-04-11T09:11:41Z</time></trkpt><trkpt lat="43.70666856362304" lon="12.184587282976382"><ele>697.5</ele><time>2026-04-11T09:11:42Z</time></trkpt><trkpt lat="43.70676171102837" lon="12.184490406399759"><ele>696.0</ele><time>2026-04-11T09:11:43Z</time></trkpt><trkpt lat="43.706869125257285" lon="12.184419135859418"><ele>694.5</ele><time>2026-04-11T09:11:44Z</time></trkpt><trkpt lat="43.70698187359494" lon="12.184362035409873"><ele>693.0</ele><time>2026-04-11T09:11:45Z</time></trkpt><trkpt lat="43.707099733564334" lon="12.184327399810641"><ele>692.5</ele><time>2026-04-11T09:11:46Z</time></trkpt><trkpt lat="43.707219600890284" lon="12.184315628401126"><ele>692.0</ele><time>2026-04-11T09:11:47Z</time></trkpt><trkpt lat="43.707343487448775" lon="12.184319479941065"><ele>691.5</ele><time>2026-04-11T09:11:48Z</time></trkpt><trkpt lat="43.70746587359208" lon="12.18433231776773"><ele>691.0</ele><time>2026-04-11T09:11:49Z</time></trkpt><trkpt lat="43.707589291578685" lon="12.184346389863434"><ele>691.0</ele><time>2026-04-11T09:11:50Z</time></trkpt><trkpt lat="43.70771492117178" lon="12.18435546242363"><ele>691.0</ele><time>2026-04-11T09:11:51Z</time></trkpt><trkpt lat="43.70783879146051" lon="12.184361789823095"><ele>691.0</ele><time>2026-04-11T09:11:52Z</time></trkpt><trkpt lat="43.707958626392276" lon="12.184369231730674"><ele>691.0</ele><time>2026-04-11T09:11:53Z</time></trkpt><trkpt lat="43.70807569620833" lon="12.184371588808034"><ele>691.25</ele><time>2026-04-11T09:11:54Z</time></trkpt><trkpt lat="43.70818998362309" lon="12.18436047921823"><ele>691.5</ele><time>2026-04-11T09:11:55Z</time></trkpt><trkpt lat="43.70830645427606" lon="12.18432646555782"><ele>691.75</ele><time>2026-04-11T09:11:56Z</time></trkpt><trkpt lat="43.708419700364914" lon="12.184274118330727"><ele>692.0</ele><time>2026-04-11T09:11:57Z</time></trkpt><trkpt lat="43.7085277379061" lon="12.18420294632553"><ele>693.25</ele><time>2026-04-11T09:11:58Z</time></trkpt><trkpt lat="43.708627109092085" lon="12.184116615852762"><ele>694.5</ele><time>2026-04-11T09:11:59Z</time></trkpt><trkpt lat="43.70871742144952" lon="12.184019730604689"><ele>695.75</ele><time>2026-04-11T09:12:00Z</time></trkpt><trkpt lat="43.70879740611905" lon="12.183906885954231"><ele>697.0</ele><time>2026-04-11T09:12:01Z</time></trkpt><trkpt lat="43.708866977850064" lon="12.18379385382555"><ele>697.0</ele><time>2026-04-11T09:12:02Z</time></trkpt><trkpt lat="43.7089310420981" lon="12.183663478451926"><ele>697.0</ele><time>2026-04-11T09:12:03Z</time></trkpt><trkpt lat="43.708992461539296" lon="12.183527738419954"><ele>697.0</ele><time>2026-04-11T09:12:04Z</time></trkpt><trkpt lat="43.70905405317553" lon="12.183403462629517"><ele>697.0</ele><time>2026-04-11T09:12:05Z</time></trkpt><trkpt lat="43.70911198124035" lon="12.183284475002097"><ele>697.0</ele><time>2026-04-11T09:12:06Z</time></trkpt><trkpt lat="43.70916840383443" lon="12.183168203897432"><ele>696.2</ele><time>2026-04-11T09:12:07Z</time></trkpt><trkpt lat="43.70922422388677" lon="12.183056629759365"><ele>695.4000000000001</ele><time>2026-04-11T09:12:08Z</time></trkpt><trkpt lat="43.709280265048186" lon="12.182941386847718"><ele>694.5999999999999</ele><time>2026-04-11T09:12:09Z</time></trkpt><trkpt lat="43.709335582602215" lon="12.182826364913161"><ele>693.8</ele><time>2026-04-11T09:12:10Z</time></trkpt><trkpt lat="43.70938699888498" lon="12.182706732107917"><ele>693.0</ele><time>2026-04-11T09:12:11Z</time></trkpt><trkpt lat="43.70943526422225" lon="12.182581469564255"><ele>695.2</ele><time>2026-04-11T09:12:12Z</time></trkpt><trkpt lat="43.70948050617646" lon="12.182452511104913"><ele>697.4</ele><time>2026-04-11T09:12:13Z</time></trkpt><trkpt lat="43.70952419335618" lon="12.182320443520084"><ele>699.6</ele><time>2026-04-11T09:12:14Z</time></trkpt><trkpt lat="43.70956922048604" lon="12.18218755934421"><ele>701.8000000000001</ele><time>2026-04-11T09:12:15Z</time></trkpt><trkpt lat="43.70961582400641" lon="12.182056715620666"><ele>704.0</ele><time>2026-04-11T09:12:16Z</time></trkpt><trkpt lat="43.709660820020474" lon="12.181922586413094"><ele>704.8000000000001</ele><time>2026-04-11T09:12:17Z</time></trkpt><trkpt lat="43.709708967668504" lon="12.18178685097275"><ele>705.6</ele><time>2026-04-11T09:12:18Z</time></trkpt><trkpt lat="43.70975648144967" lon="12.181648016337602"><ele>706.4</ele><time>2026-04-11T09:12:19Z</time></trkpt><trkpt lat="43.70980487165641" lon="12.18150754385941"><ele>707.2</ele><time>2026-04-11T09:12:20Z</time></trkpt><trkpt lat="43.70985434949162" lon="12.181363269683642"><ele>708.0</ele><time>2026-04-11T09:12:21Z</time></trkpt><trkpt lat="43.70990320708962" lon="12.181219922217247"><ele>708.75</ele><time>2026-04-11T09:12:22Z</time></trkpt><trkpt lat="43.70995475626812" lon="12.181073637942928"><ele>709.5</ele><time>2026-04-11T09:12:23Z</time></trkpt><trkpt lat="43.71000492149506" lon="12.180927418165505"><ele>710.25</ele><time>2026-04-11T09:12:24Z</time></trkpt><trkpt lat="43.710051644065175" lon="12.180780884667202"><ele>711.0</ele><time>2026-04-11T09:12:25Z</time></trkpt><trkpt lat="43.710099273986565" lon="12.180631571955939"><ele>711.75</ele><time>2026-04-11T09:12:26Z</time></trkpt><trkpt lat="43.71014910592056" lon="12.180485719238138"><ele>712.5</ele><time>2026-04-11T09:12:27Z</time></trkpt><trkpt lat="43.71019196637294" lon="12.180340359360956"><ele>713.25</ele><time>2026-04-11T09:12:28Z</time></trkpt><trkpt lat="43.71023244151973" lon="12.180193393960122"><ele>714.0</ele><time>2026-04-11T09:12:29Z</time></trkpt><trkpt lat="43.710269549408835" lon="12.180045136544166"><ele>715.8000000000001</ele><time>2026-04-11T09:12:30Z</time></trkpt><trkpt lat="43.710293520151296" lon="12.179895621487924"><ele>717.6</ele><time>2026-04-11T09:12:31Z</time></trkpt><trkpt lat="43.71030241019474" lon="12.17974039710637"><ele>719.4</ele><time>2026-04-11T09:12:32Z</time></trkpt><trkpt lat="43.71030381523293" lon="12.179583552304535"><ele>721.2</ele><time>2026-04-11T09:12:33Z</time></trkpt><trkpt lat="43.71029496475827" lon="12.179429929312121"><ele>723.0</ele><time>2026-04-11T09:12:34Z</time></trkpt><trkpt lat="43.71028124340207" lon="12.17927428841306"><ele>722.5</ele><time>2026-04-11T09:12:35Z</time></trkpt><trkpt lat="43.71026576391459" lon="12.179117269797418"><ele>722.0</ele><time>2026-04-11T09:12:36Z</time></trkpt><trkpt lat="43.71025023150983" lon="12.178961752069803"><ele>721.5</ele><time>2026-04-11T09:12:36.999Z</time></trkpt><trkpt lat="43.71023396242876" lon="12.178808913802476"><ele>721.0</ele><time>2026-04-11T09:12:37.999Z</time></trkpt><trkpt lat="43.71022179378677" lon="12.178653346219324"><ele>721.0</ele><time>2026-04-11T09:12:38.999Z</time></trkpt><trkpt lat="43.710218384655946" lon="12.17849855433155"><ele>721.0</ele><time>2026-04-11T09:12:39.999Z</time></trkpt><trkpt lat="43.71022030236337" lon="12.17834089390569"><ele>721.0</ele><time>2026-04-11T09:12:40.999Z</time></trkpt><trkpt lat="43.710235420524185" lon="12.178182614280523"><ele>721.0</ele><time>2026-04-11T09:12:41.999Z</time></trkpt><trkpt lat="43.710263551033755" lon="12.17802730477677"><ele>726.75</ele><time>2026-04-11T09:12:42.999Z</time></trkpt><trkpt lat="43.710302488442025" lon="12.177872786875408"><ele>732.5</ele><time>2026-04-11T09:12:43.999Z</time></trkpt><trkpt lat="43.710357047650604" lon="12.177722661634805"><ele>738.25</ele><time>2026-04-11T09:12:44.999Z</time></trkpt><trkpt lat="43.710417785562356" lon="12.17757506460188"><ele>744.0</ele><time>2026-04-11T09:12:45.999Z</time></trkpt><trkpt lat="43.71047994006749" lon="12.177427577114281"><ele>745.0</ele><time>2026-04-11T09:12:46.999Z</time></trkpt><trkpt lat="43.71053884216683" lon="12.17727842251324"><ele>746.0</ele><time>2026-04-11T09:12:47.999Z</time></trkpt><trkpt lat="43.710589073168116" lon="12.17712589817144"><ele>747.0</ele><time>2026-04-11T09:12:48.999Z</time></trkpt><trkpt lat="43.71063502832846" lon="12.17697374403363"><ele>748.0</ele><time>2026-04-11T09:12:49.999Z</time></trkpt><trkpt lat="43.71067483677792" lon="12.176820662406481"><ele>748.0</ele><time>2026-04-11T09:12:50.999Z</time></trkpt><trkpt lat="43.710703152603486" lon="12.17666731562589"><ele>748.0</ele><time>2026-04-11T09:12:51.999Z</time></trkpt><trkpt lat="43.710715470861125" lon="12.176507938780764"><ele>748.0</ele><time>2026-04-11T09:12:52.999Z</time></trkpt><trkpt lat="43.71071806586692" lon="12.176346824027846"><ele>748.0</ele><time>2026-04-11T09:12:53.999Z</time></trkpt><trkpt lat="43.71070956645485" lon="12.176186143587813"><ele>750.5</ele><time>2026-04-11T09:12:54.999Z</time></trkpt><trkpt lat="43.710694547520994" lon="12.176018982241265"><ele>753.0</ele><time>2026-04-11T09:12:55.999Z</time></trkpt><trkpt lat="43.7106832606012" lon="12.175852740647427"><ele>755.5</ele><time>2026-04-11T09:12:56.999Z</time></trkpt><trkpt lat="43.710675171443505" lon="12.17568688642173"><ele>758.0</ele><time>2026-04-11T09:12:57.999Z</time></trkpt><trkpt lat="43.71066613999847" lon="12.175515750223173"><ele>759.25</ele><time>2026-04-11T09:12:58.999Z</time></trkpt><trkpt lat="43.71064955988855" lon="12.175349195407753"><ele>760.5</ele><time>2026-04-11T09:12:59.999Z</time></trkpt><trkpt lat="43.71063029921741" lon="12.17517889716153"><ele>761.75</ele><time>2026-04-11T09:13:00.999Z</time></trkpt><trkpt lat="43.71061256485656" lon="12.175014321414533"><ele>763.0</ele><time>2026-04-11T09:13:01.999Z</time></trkpt><trkpt lat="43.71059852839136" lon="12.174854642658861"><ele>763.8</ele><time>2026-04-11T09:13:02.999Z</time></trkpt><trkpt lat="43.71058602783102" lon="12.174707123366847"><ele>764.5999999999999</ele><time>2026-04-11T09:13:03.999Z</time></trkpt><trkpt lat="43.71057215640936" lon="12.174556142646301"><ele>765.4000000000001</ele><time>2026-04-11T09:13:04.999Z</time></trkpt><trkpt lat="43.71055615438895" lon="12.174405192943553"><ele>766.2</ele><time>2026-04-11T09:13:05.999Z</time></trkpt><trkpt lat="43.71054473087785" lon="12.174255888926844"><ele>767.0</ele><time>2026-04-11T09:13:06.999Z</time></trkpt><trkpt lat="43.71052915234678" lon="12.174099225860848"><ele>771.25</ele><time>2026-04-11T09:13:07.999Z</time></trkpt><trkpt lat="43.710511845365694" lon="12.17394229035758"><ele>775.5</ele><time>2026-04-11T09:13:08.999Z</time></trkpt><trkpt lat="43.7104818394198" lon="12.173789863288803"><ele>779.75</ele><time>2026-04-11T09:13:09.999Z</time></trkpt><trkpt lat="43.71043854640115" lon="12.173642827962238"><ele>784.0</ele><time>2026-04-11T09:13:10.999Z</time></trkpt><trkpt lat="43.710382613373746" lon="12.173503167427615"><ele>784.0</ele><time>2026-04-11T09:13:11.999Z</time></trkpt><trkpt lat="43.710316971937104" lon="12.173373357698098"><ele>784.0</ele><time>2026-04-11T09:13:12.999Z</time></trkpt><trkpt lat="43.71025215758394" lon="12.173242238694444"><ele>784.0</ele><time>2026-04-11T09:13:13.999Z</time></trkpt><trkpt lat="43.71019340256003" lon="12.17310323725245"><ele>784.0</ele><time>2026-04-11T09:13:14.999Z</time></trkpt><trkpt lat="43.71014402877008" lon="12.172957775835979"><ele>781.0</ele><time>2026-04-11T09:13:15.999Z</time></trkpt><trkpt lat="43.7101080029172" lon="12.172803144571438"><ele>778.0</ele><time>2026-04-11T09:13:16.999Z</time></trkpt><trkpt lat="43.71008818585244" lon="12.17264082519942"><ele>775.0</ele><time>2026-04-11T09:13:17.999Z</time></trkpt><trkpt lat="43.7100864165549" lon="12.172476250149602"><ele>772.0</ele><time>2026-04-11T09:13:18.999Z</time></trkpt><trkpt lat="43.71009635545297" lon="12.172310797110972"><ele>772.0</ele><time>2026-04-11T09:13:19.999Z</time></trkpt><trkpt lat="43.71012383593019" lon="12.17214867441748"><ele>772.0</ele><time>2026-04-11T09:13:20.999Z</time></trkpt><trkpt lat="43.710168753936514" lon="12.171993090669849"><ele>772.0</ele><time>2026-04-11T09:13:21.999Z</time></trkpt><trkpt lat="43.71022065956755" lon="12.171837907533657"><ele>772.0</ele><time>2026-04-11T09:13:22.999Z</time></trkpt><trkpt lat="43.71026326385606" lon="12.171680197373712"><ele>777.75</ele><time>2026-04-11T09:13:23.999Z</time></trkpt><trkpt lat="43.71030093361622" lon="12.171520571544727"><ele>783.5</ele><time>2026-04-11T09:13:24.999Z</time></trkpt><trkpt lat="43.71033599405187" lon="12.17135933023582"><ele>789.25</ele><time>2026-04-11T09:13:25.999Z</time></trkpt><trkpt lat="43.710363308953156" lon="12.17119992453375"><ele>795.0</ele><time>2026-04-11T09:13:26.999Z</time></trkpt><trkpt lat="43.71037984616123" lon="12.17104814325739"><ele>795.0</ele><time>2026-04-11T09:13:27.999Z</time></trkpt><trkpt lat="43.71038528706309" lon="12.170885411149756"><ele>795.0</ele><time>2026-04-11T09:13:28.999Z</time></trkpt><trkpt lat="43.7103818415955" lon="12.170725989483683"><ele>795.0</ele><time>2026-04-11T09:13:29.999Z</time></trkpt><trkpt lat="43.7103731358613" lon="12.17056094972792"><ele>795.0</ele><time>2026-04-11T09:13:30.999Z</time></trkpt><trkpt lat="43.71035787930588" lon="12.170390421296771"><ele>797.25</ele><time>2026-04-11T09:13:31.999Z</time></trkpt><trkpt lat="43.710335275321825" lon="12.170213296001021"><ele>799.5</ele><time>2026-04-11T09:13:32.999Z</time></trkpt><trkpt lat="43.71031438067124" lon="12.170030232050442"><ele>801.75</ele><time>2026-04-11T09:13:33.999Z</time></trkpt><trkpt lat="43.7102910778294" lon="12.169845524465623"><ele>804.0</ele><time>2026-04-11T09:13:34.999Z</time></trkpt><trkpt lat="43.71027104923366" lon="12.169646491189555"><ele>803.25</ele><time>2026-04-11T09:13:36.061Z</time></trkpt><trkpt lat="43.710247666506625" lon="12.16945780356433"><ele>802.5</ele><time>2026-04-11T09:13:37.051Z</time></trkpt><trkpt lat="43.71022624894658" lon="12.16926822687446"><ele>801.75</ele><time>2026-04-11T09:13:38.052Z</time></trkpt><trkpt lat="43.71020665692757" lon="12.169082798838344"><ele>801.0</ele><time>2026-04-11T09:13:39.043Z</time></trkpt><trkpt lat="43.71061144080862" lon="12.167036433736477"><ele>796.0</ele><time>2026-04-11T09:13:50.999Z</time></trkpt><trkpt lat="43.71061841645931" lon="12.166869943049853"><ele>791.0</ele><time>2026-04-11T09:13:51.999Z</time></trkpt><trkpt lat="43.71077329218819" lon="12.166675346601897"><ele>786.0</ele><time>2026-04-11T09:13:52.999Z</time></trkpt><trkpt lat="43.71082056559196" lon="12.16648121061496"><ele>783.4</ele><time>2026-04-11T09:13:53.999Z</time></trkpt><trkpt lat="43.710888373057514" lon="12.166329215464229"><ele>780.8</ele><time>2026-04-11T09:13:54.999Z</time></trkpt><trkpt lat="43.71093364040288" lon="12.166208866494486"><ele>778.1999999999999</ele><time>2026-04-11T09:13:55.999Z</time></trkpt><trkpt lat="43.710986212494646" lon="12.166097365845289"><ele>775.5999999999999</ele><time>2026-04-11T09:13:57Z</time></trkpt><trkpt lat="43.711046394110156" lon="12.165947193479347"><ele>773.0</ele><time>2026-04-11T09:13:58Z</time></trkpt><trkpt lat="43.71110062436231" lon="12.165805783978804"><ele>776.5</ele><time>2026-04-11T09:13:59Z</time></trkpt><trkpt lat="43.71114953213225" lon="12.165661181463435"><ele>780.0</ele><time>2026-04-11T09:14:00Z</time></trkpt><trkpt lat="43.71119827719584" lon="12.165519803502503"><ele>783.5</ele><time>2026-04-11T09:14:01Z</time></trkpt><trkpt lat="43.71124969578931" lon="12.16537798226348"><ele>787.0</ele><time>2026-04-11T09:14:02Z</time></trkpt><trkpt lat="43.71130046723579" lon="12.165236461262198"><ele>787.0</ele><time>2026-04-11T09:14:03Z</time></trkpt><trkpt lat="43.71135204259708" lon="12.16508967980329"><ele>787.0</ele><time>2026-04-11T09:14:04Z</time></trkpt><trkpt lat="43.71141499895916" lon="12.164943930935308"><ele>787.0</ele><time>2026-04-11T09:14:05Z</time></trkpt><trkpt lat="43.71144006678519" lon="12.164844993143427"><ele>787.0</ele><time>2026-04-11T09:14:06Z</time></trkpt><trkpt lat="43.71150738235424" lon="12.164696788359018"><ele>787.0</ele><time>2026-04-11T09:14:07Z</time></trkpt><trkpt lat="43.71157575047889" lon="12.164555777408307"><ele>785.0</ele><time>2026-04-11T09:14:08Z</time></trkpt><trkpt lat="43.71164166919308" lon="12.164418114152697"><ele>783.0</ele><time>2026-04-11T09:14:09Z</time></trkpt><trkpt lat="43.711706607051475" lon="12.164280172667011"><ele>781.0</ele><time>2026-04-11T09:14:10Z</time></trkpt><trkpt lat="43.711768819861526" lon="12.164145745541722"><ele>779.0</ele><time>2026-04-11T09:14:11Z</time></trkpt><trkpt lat="43.711832680117425" lon="12.164002613143142"><ele>780.0</ele><time>2026-04-11T09:14:12Z</time></trkpt><trkpt lat="43.71189454470027" lon="12.163868823054028"><ele>781.0</ele><time>2026-04-11T09:14:13Z</time></trkpt><trkpt lat="43.711962523805084" lon="12.163746606744347"><ele>782.0</ele><time>2026-04-11T09:14:14Z</time></trkpt><trkpt lat="43.71204164063476" lon="12.163626679612888"><ele>783.0</ele><time>2026-04-11T09:14:15Z</time></trkpt><trkpt lat="43.71213121384452" lon="12.163521716655028"><ele>783.0</ele><time>2026-04-11T09:14:16Z</time></trkpt><trkpt lat="43.712222837059855" lon="12.16345193307184"><ele>783.0</ele><time>2026-04-11T09:14:17Z</time></trkpt><trkpt lat="43.71231638430928" lon="12.163352372392488"><ele>783.0</ele><time>2026-04-11T09:14:18Z</time></trkpt><trkpt lat="43.7123981569458" lon="12.16324035087737"><ele>783.0</ele><time>2026-04-11T09:14:19Z</time></trkpt><trkpt lat="43.71245585069842" lon="12.163107317785743"><ele>782.5</ele><time>2026-04-11T09:14:20Z</time></trkpt><trkpt lat="43.71248511828399" lon="12.16295879193726"><ele>782.0</ele><time>2026-04-11T09:14:21Z</time></trkpt><trkpt lat="43.7124766231921" lon="12.162782641383226"><ele>781.5</ele><time>2026-04-11T09:14:22Z</time></trkpt><trkpt lat="43.71244369667682" lon="12.16261341715745"><ele>781.0</ele><time>2026-04-11T09:14:23Z</time></trkpt><trkpt lat="43.71239273414103" lon="12.162451714399921"><ele>784.0</ele><time>2026-04-11T09:14:24Z</time></trkpt><trkpt lat="43.71231950223173" lon="12.162298532982138"><ele>787.0</ele><time>2026-04-11T09:14:25Z</time></trkpt><trkpt lat="43.712232729225136" lon="12.162150706463683"><ele>790.0</ele><time>2026-04-11T09:14:26Z</time></trkpt><trkpt lat="43.71214314104052" lon="12.162023628216216"><ele>793.0</ele><time>2026-04-11T09:14:27Z</time></trkpt><trkpt lat="43.71205521497007" lon="12.161905517054242"><ele>793.0</ele><time>2026-04-11T09:14:28Z</time></trkpt><trkpt lat="43.71193158071111" lon="12.161864923162875"><ele>793.0</ele><time>2026-04-11T09:14:29Z</time></trkpt><trkpt lat="43.71179951789231" lon="12.161854352494712"><ele>793.0</ele><time>2026-04-11T09:14:30Z</time></trkpt><trkpt lat="43.711672363295136" lon="12.161870026513824"><ele>793.0</ele><time>2026-04-11T09:14:31Z</time></trkpt><trkpt lat="43.7115559334984" lon="12.16188981076396"><ele>790.0</ele><time>2026-04-11T09:14:32Z</time></trkpt><trkpt lat="43.71144656257272" lon="12.16189410809806"><ele>787.0</ele><time>2026-04-11T09:14:33Z</time></trkpt><trkpt lat="43.71133988627753" lon="12.161865915686336"><ele>784.0</ele><time>2026-04-11T09:14:34Z</time></trkpt><trkpt lat="43.71123808412369" lon="12.16179375769468"><ele>781.0</ele><time>2026-04-11T09:14:35Z</time></trkpt><trkpt lat="43.711144565885974" lon="12.16168480141422"><ele>781.0</ele><time>2026-04-11T09:14:36Z</time></trkpt><trkpt lat="43.71107910852263" lon="12.161539731198099"><ele>781.0</ele><time>2026-04-11T09:14:37Z</time></trkpt><trkpt lat="43.711015100363355" lon="12.161397801342899"><ele>781.0</ele><time>2026-04-11T09:14:38Z</time></trkpt><trkpt lat="43.71096250491503" lon="12.161242554017086"><ele>781.0</ele><time>2026-04-11T09:14:39Z</time></trkpt><trkpt lat="43.71090924463076" lon="12.161084285525694"><ele>780.0</ele><time>2026-04-11T09:14:40Z</time></trkpt><trkpt lat="43.71085798989451" lon="12.160932701378558"><ele>779.0</ele><time>2026-04-11T09:14:41Z</time></trkpt><trkpt lat="43.71080041701333" lon="12.1607950914318"><ele>778.0</ele><time>2026-04-11T09:14:42Z</time></trkpt><trkpt lat="43.71071349136786" lon="12.1606926069236"><ele>777.0</ele><time>2026-04-11T09:14:43Z</time></trkpt><trkpt lat="43.710640522877604" lon="12.160588973049155"><ele>778.5</ele><time>2026-04-11T09:14:44Z</time></trkpt><trkpt lat="43.71053918310788" lon="12.160525219640583"><ele>780.0</ele><time>2026-04-11T09:14:45Z</time></trkpt><trkpt lat="43.710421502631355" lon="12.160521599451654"><ele>781.5</ele><time>2026-04-11T09:14:46Z</time></trkpt><trkpt lat="43.71030838209446" lon="12.160506509796042"><ele>783.0</ele><time>2026-04-11T09:14:47Z</time></trkpt><trkpt lat="43.71019522749674" lon="12.160496472772673"><ele>783.0</ele><time>2026-04-11T09:14:48Z</time></trkpt><trkpt lat="43.710085382809915" lon="12.160448578810326"><ele>783.0</ele><time>2026-04-11T09:14:49Z</time></trkpt><trkpt lat="43.70997576194857" lon="12.160386059608584"><ele>783.0</ele><time>2026-04-11T09:14:50Z</time></trkpt><trkpt lat="43.709870612271665" lon="12.160308367537061"><ele>783.0</ele><time>2026-04-11T09:14:51Z</time></trkpt><trkpt lat="43.709770439239044" lon="12.160225072622481"><ele>783.0</ele><time>2026-04-11T09:14:52Z</time></trkpt><trkpt lat="43.70966942063201" lon="12.160133219030397"><ele>783.0</ele><time>2026-04-11T09:14:53Z</time></trkpt><trkpt lat="43.70957633586437" lon="12.160033642844727"><ele>783.0</ele><time>2026-04-11T09:14:54Z</time></trkpt><trkpt lat="43.70950652873198" lon="12.159918378045527"><ele>783.0</ele><time>2026-04-11T09:14:55Z</time></trkpt><trkpt lat="43.7094724454255" lon="12.159769150529003"><ele>784.75</ele><time>2026-04-11T09:14:56Z</time></trkpt><trkpt lat="43.70949694864872" lon="12.159596235387358"><ele>786.5</ele><time>2026-04-11T09:14:57Z</time></trkpt><trkpt lat="43.70949677911836" lon="12.159426056790204"><ele>788.25</ele><time>2026-04-11T09:14:57.999Z</time></trkpt><trkpt lat="43.70950966854807" lon="12.159261252864171"><ele>790.0</ele><time>2026-04-11T09:14:58.999Z</time></trkpt><trkpt lat="43.709518684607396" lon="12.159093858487699"><ele>791.25</ele><time>2026-04-11T09:14:59.999Z</time></trkpt><trkpt lat="43.70952455581019" lon="12.158923147933667"><ele>792.5</ele><time>2026-04-11T09:15:00.999Z</time></trkpt><trkpt lat="43.7095328711323" lon="12.158755669080138"><ele>793.75</ele><time>2026-04-11T09:15:01.999Z</time></trkpt><trkpt lat="43.70953705903836" lon="12.158589986988984"><ele>795.0</ele><time>2026-04-11T09:15:02.999Z</time></trkpt><trkpt lat="43.70954179478119" lon="12.158432144050185"><ele>795.0</ele><time>2026-04-11T09:15:03.999Z</time></trkpt><trkpt lat="43.70954750745305" lon="12.158268121498466"><ele>795.0</ele><time>2026-04-11T09:15:04.999Z</time></trkpt><trkpt lat="43.709556491551126" lon="12.158099863737316"><ele>795.0</ele><time>2026-04-11T09:15:05.999Z</time></trkpt><trkpt lat="43.70957441326804" lon="12.15793099547787"><ele>795.0</ele><time>2026-04-11T09:15:06.999Z</time></trkpt><trkpt lat="43.70959901559185" lon="12.157760534939188"><ele>797.0</ele><time>2026-04-11T09:15:07.999Z</time></trkpt><trkpt lat="43.709626167917136" lon="12.157594308717389"><ele>799.0</ele><time>2026-04-11T09:15:08.999Z</time></trkpt><trkpt lat="43.70965220439792" lon="12.157427020270543"><ele>801.0</ele><time>2026-04-11T09:15:09.999Z</time></trkpt><trkpt lat="43.70966975463892" lon="12.15725882857615"><ele>803.0</ele><time>2026-04-11T09:15:10.999Z</time></trkpt><trkpt lat="43.70965886983334" lon="12.157087786118648"><ele>804.0</ele><time>2026-04-11T09:15:11.999Z</time></trkpt><trkpt lat="43.70962350170528" lon="12.156917188441867"><ele>805.0</ele><time>2026-04-11T09:15:12.999Z</time></trkpt><trkpt lat="43.709570396477915" lon="12.156752646185515"><ele>806.0</ele><time>2026-04-11T09:15:13.999Z</time></trkpt><trkpt lat="43.70952846782825" lon="12.156579748554028"><ele>807.0</ele><time>2026-04-11T09:15:14.999Z</time></trkpt><trkpt lat="43.70945727369838" lon="12.156427610756715"><ele>809.5</ele><time>2026-04-11T09:15:15.999Z</time></trkpt><trkpt lat="43.70942084552617" lon="12.156254196821385"><ele>812.0</ele><time>2026-04-11T09:15:16.999Z</time></trkpt><trkpt lat="43.70939528434638" lon="12.15607845110173"><ele>814.5</ele><time>2026-04-11T09:15:17.999Z</time></trkpt><trkpt lat="43.70936744047947" lon="12.155903027962442"><ele>817.0</ele><time>2026-04-11T09:15:18.999Z</time></trkpt><trkpt lat="43.709352888530134" lon="12.155727597744903"><ele>810.5</ele><time>2026-04-11T09:15:19.999Z</time></trkpt><trkpt lat="43.70932284024117" lon="12.155560370240579"><ele>804.0</ele><time>2026-04-11T09:15:20.999Z</time></trkpt><trkpt lat="43.70929241989756" lon="12.155391072144116"><ele>797.5</ele><time>2026-04-11T09:15:21.999Z</time></trkpt><trkpt lat="43.709251611738985" lon="12.15522656644885"><ele>791.0</ele><time>2026-04-11T09:15:22.999Z</time></trkpt><trkpt lat="43.70922222460056" lon="12.15506653543765"><ele>791.0</ele><time>2026-04-11T09:15:23.999Z</time></trkpt><trkpt lat="43.70919500397379" lon="12.15490836045141"><ele>791.0</ele><time>2026-04-11T09:15:24.999Z</time></trkpt><trkpt lat="43.70917048023929" lon="12.154749522229293"><ele>791.0</ele><time>2026-04-11T09:15:25.999Z</time></trkpt><trkpt lat="43.70914351818291" lon="12.154595644254554"><ele>791.0</ele><time>2026-04-11T09:15:26.999Z</time></trkpt><trkpt lat="43.709108301615885" lon="12.154443248076841"><ele>793.25</ele><time>2026-04-11T09:15:27.999Z</time></trkpt><trkpt lat="43.70906061605407" lon="12.154296111377578"><ele>795.5</ele><time>2026-04-11T09:15:28.999Z</time></trkpt><trkpt lat="43.708984787260704" lon="12.154164801541132"><ele>797.75</ele><time>2026-04-11T09:15:29.999Z</time></trkpt><trkpt lat="43.70890433314195" lon="12.154054293684476"><ele>800.0</ele><time>2026-04-11T09:15:30.999Z</time></trkpt><trkpt lat="43.70882120945334" lon="12.153950407476078"><ele>801.4</ele><time>2026-04-11T09:15:31.999Z</time></trkpt><trkpt lat="43.70874364610555" lon="12.153842817499047"><ele>802.8</ele><time>2026-04-11T09:15:32.999Z</time></trkpt><trkpt lat="43.70867762217528" lon="12.153731740245599"><ele>804.2</ele><time>2026-04-11T09:15:33.999Z</time></trkpt><trkpt lat="43.708644729689446" lon="12.153598770724363"><ele>805.6</ele><time>2026-04-11T09:15:34.999Z</time></trkpt><trkpt lat="43.70864567501863" lon="12.153455962155942"><ele>807.0</ele><time>2026-04-11T09:15:35.999Z</time></trkpt><trkpt lat="43.70868617803233" lon="12.153321164612567"><ele>807.0</ele><time>2026-04-11T09:15:36.999Z</time></trkpt><trkpt lat="43.708753631037354" lon="12.15320685473001"><ele>807.0</ele><time>2026-04-11T09:15:37.999Z</time></trkpt><trkpt lat="43.70882134787358" lon="12.153102935498396"><ele>807.0</ele><time>2026-04-11T09:15:38.999Z</time></trkpt><trkpt lat="43.70887580561746" lon="12.152988798719194"><ele>807.0</ele><time>2026-04-11T09:15:39.999Z</time></trkpt><trkpt lat="43.70891346533817" lon="12.152867799508122"><ele>807.0</ele><time>2026-04-11T09:15:40.999Z</time></trkpt><trkpt lat="43.70893063356338" lon="12.152734461797253"><ele>807.0</ele><time>2026-04-11T09:15:41.999Z</time></trkpt><trkpt lat="43.708928859545246" lon="12.152589198997376"><ele>807.0</ele><time>2026-04-11T09:15:42.999Z</time></trkpt><trkpt lat="43.708911395217704" lon="12.152437014212376"><ele>807.0</ele><time>2026-04-11T09:15:43.999Z</time></trkpt><trkpt lat="43.70889094313845" lon="12.152285652788116"><ele>807.0</ele><time>2026-04-11T09:15:44.999Z</time></trkpt><trkpt lat="43.70887414266381" lon="12.152145020155652"><ele>807.0</ele><time>2026-04-11T09:15:45.999Z</time></trkpt><trkpt lat="43.70885642245835" lon="12.152000469771275"><ele>809.0</ele><time>2026-04-11T09:15:46.999Z</time></trkpt><trkpt lat="43.70883085067343" lon="12.15185656618382"><ele>811.0</ele><time>2026-04-11T09:15:47.999Z</time></trkpt><trkpt lat="43.708802466215516" lon="12.151713689420047"><ele>813.0</ele><time>2026-04-11T09:15:48.999Z</time></trkpt><trkpt lat="43.70870520078604" lon="12.15161076045244"><ele>815.0</ele><time>2026-04-11T09:15:49.999Z</time></trkpt><trkpt lat="43.70860920868033" lon="12.151502028132722"><ele>814.75</ele><time>2026-04-11T09:15:50.999Z</time></trkpt><trkpt lat="43.70848954449698" lon="12.15143060191401"><ele>814.5</ele><time>2026-04-11T09:15:51.999Z</time></trkpt><trkpt lat="43.70836632713308" lon="12.151366492965717"><ele>814.25</ele><time>2026-04-11T09:15:52.999Z</time></trkpt><trkpt lat="43.70823543676421" lon="12.151328418782892"><ele>814.0</ele><time>2026-04-11T09:15:53.999Z</time></trkpt><trkpt lat="43.708094709223545" lon="12.151364166360986"><ele>814.0</ele><time>2026-04-11T09:15:54.999Z</time></trkpt><trkpt lat="43.707959836539786" lon="12.15140414665877"><ele>814.0</ele><time>2026-04-11T09:15:55.999Z</time></trkpt><trkpt lat="43.70782545083048" lon="12.151413166019486"><ele>814.0</ele><time>2026-04-11T09:15:56.999Z</time></trkpt><trkpt lat="43.7077060267646" lon="12.151398594538872"><ele>814.0</ele><time>2026-04-11T09:15:57.999Z</time></trkpt><trkpt lat="43.70759457170683" lon="12.151332419715578"><ele>811.0</ele><time>2026-04-11T09:15:58.999Z</time></trkpt><trkpt lat="43.70751249675068" lon="12.15121587803107"><ele>808.0</ele><time>2026-04-11T09:15:59.999Z</time></trkpt><trkpt lat="43.70745557921319" lon="12.151076226461306"><ele>805.0</ele><time>2026-04-11T09:16:00.999Z</time></trkpt><trkpt lat="43.70741364519417" lon="12.150915748825891"><ele>802.0</ele><time>2026-04-11T09:16:02Z</time></trkpt><trkpt lat="43.70738753503341" lon="12.150755836182562"><ele>804.5</ele><time>2026-04-11T09:16:03Z</time></trkpt><trkpt lat="43.7073604709638" lon="12.150588478878328"><ele>807.0</ele><time>2026-04-11T09:16:04Z</time></trkpt><trkpt lat="43.70731864762404" lon="12.150437289331713"><ele>809.5</ele><time>2026-04-11T09:16:05Z</time></trkpt><trkpt lat="43.70729970486763" lon="12.150284387276155"><ele>812.0</ele><time>2026-04-11T09:16:06Z</time></trkpt><trkpt lat="43.707224833639074" lon="12.150157325572334"><ele>812.0</ele><time>2026-04-11T09:16:07Z</time></trkpt><trkpt lat="43.70713310983651" lon="12.15003902507228"><ele>812.0</ele><time>2026-04-11T09:16:08Z</time></trkpt><trkpt lat="43.70702545172715" lon="12.149945795130071"><ele>812.0</ele><time>2026-04-11T09:16:09Z</time></trkpt><trkpt lat="43.706915441567126" lon="12.149867745026558"><ele>812.0</ele><time>2026-04-11T09:16:10Z</time></trkpt><trkpt lat="43.7067844768547" lon="12.149891342273314"><ele>812.0</ele><time>2026-04-11T09:16:11Z</time></trkpt><trkpt lat="43.70666461221093" lon="12.149954247071463"><ele>812.0</ele><time>2026-04-11T09:16:12Z</time></trkpt><trkpt lat="43.70655455414252" lon="12.150060460478368"><ele>812.0</ele><time>2026-04-11T09:16:13Z</time></trkpt><trkpt lat="43.7064710503723" lon="12.150187539003964"><ele>812.0</ele><time>2026-04-11T09:16:14Z</time></trkpt><trkpt lat="43.70640269560987" lon="12.150313351371716"><ele>812.0</ele><time>2026-04-11T09:16:15Z</time></trkpt><trkpt lat="43.70633133698064" lon="12.150408376345046"><ele>812.0</ele><time>2026-04-11T09:16:16Z</time></trkpt><trkpt lat="43.70623735519631" lon="12.150474973659952"><ele>812.0</ele><time>2026-04-11T09:16:17Z</time></trkpt><trkpt lat="43.70613377230325" lon="12.150462674566967"><ele>812.0</ele><time>2026-04-11T09:16:18Z</time></trkpt><trkpt lat="43.70604283652046" lon="12.15039807167166"><ele>812.0</ele><time>2026-04-11T09:16:19Z</time></trkpt><trkpt lat="43.70595803906856" lon="12.150307202547246"><ele>812.75</ele><time>2026-04-11T09:16:20Z</time></trkpt><trkpt lat="43.70586944387895" lon="12.150201416845322"><ele>813.5</ele><time>2026-04-11T09:16:21Z</time></trkpt><trkpt lat="43.70577653317949" lon="12.150096417172975"><ele>814.25</ele><time>2026-04-11T09:16:22Z</time></trkpt><trkpt lat="43.70567258510724" lon="12.149999727000722"><ele>815.0</ele><time>2026-04-11T09:16:23Z</time></trkpt><trkpt lat="43.705546261556286" lon="12.149941415110668"><ele>815.0</ele><time>2026-04-11T09:16:24Z</time></trkpt><trkpt lat="43.7054176564701" lon="12.149885911337993"><ele>815.0</ele><time>2026-04-11T09:16:25Z</time></trkpt><trkpt lat="43.70529098109605" lon="12.149856206755205"><ele>815.0</ele><time>2026-04-11T09:16:26Z</time></trkpt><trkpt lat="43.70518572859382" lon="12.149804934377695"><ele>815.0</ele><time>2026-04-11T09:16:27Z</time></trkpt><trkpt lat="43.70511367595921" lon="12.149729480695907"><ele>816.0000000000001</ele><time>2026-04-11T09:16:28Z</time></trkpt><trkpt lat="43.70507218752335" lon="12.149609760561676"><ele>817.0</ele><time>2026-04-11T09:16:29Z</time></trkpt><trkpt lat="43.705069047908694" lon="12.149497169879295"><ele>818.0</ele><time>2026-04-11T09:16:30Z</time></trkpt><trkpt lat="43.705095112247356" lon="12.149390918583405"><ele>819.0</ele><time>2026-04-11T09:16:31Z</time></trkpt><trkpt lat="43.70514845551175" lon="12.149307833290473"><ele>820.0000000000001</ele><time>2026-04-11T09:16:32Z</time></trkpt><trkpt lat="43.7052270278848" lon="12.149235240731858"><ele>821.0</ele><time>2026-04-11T09:16:33Z</time></trkpt><trkpt lat="43.70530505818039" lon="12.149171611873767"><ele>821.0</ele><time>2026-04-11T09:16:34Z</time></trkpt><trkpt lat="43.70538157745185" lon="12.149092923939744"><ele>821.0</ele><time>2026-04-11T09:16:35Z</time></trkpt><trkpt lat="43.70545812414905" lon="12.14900173802395"><ele>821.0</ele><time>2026-04-11T09:16:36Z</time></trkpt><trkpt lat="43.70552608704325" lon="12.14889435865762"><ele>821.0</ele><time>2026-04-11T09:16:37Z</time></trkpt><trkpt lat="43.70556778155256" lon="12.148753209301107"><ele>821.0</ele><time>2026-04-11T09:16:38Z</time></trkpt><trkpt lat="43.705575024534895" lon="12.148588668105283"><ele>822.0</ele><time>2026-04-11T09:16:39Z</time></trkpt><trkpt lat="43.70555171033016" lon="12.14842611010013"><ele>823.0</ele><time>2026-04-11T09:16:40Z</time></trkpt><trkpt lat="43.70548865579149" lon="12.148278195826759"><ele>824.0</ele><time>2026-04-11T09:16:41Z</time></trkpt><trkpt lat="43.705396834414344" lon="12.148180522163793"><ele>825.0</ele><time>2026-04-11T09:16:42Z</time></trkpt><trkpt lat="43.705306184356" lon="12.148074462903761"><ele>825.4</ele><time>2026-04-11T09:16:43Z</time></trkpt><trkpt lat="43.70522804306891" lon="12.147972065593674"><ele>825.8</ele><time>2026-04-11T09:16:44Z</time></trkpt><trkpt lat="43.70519104171934" lon="12.147851822213816"><ele>826.2</ele><time>2026-04-11T09:16:45Z</time></trkpt><trkpt lat="43.70518075794071" lon="12.147700017008265"><ele>826.6</ele><time>2026-04-11T09:16:46Z</time></trkpt><trkpt lat="43.70519347780092" lon="12.14753636067789"><ele>827.0</ele><time>2026-04-11T09:16:47Z</time></trkpt><trkpt lat="43.70519606530248" lon="12.147368160306195"><ele>827.0</ele><time>2026-04-11T09:16:48Z</time></trkpt><trkpt lat="43.70518790348933" lon="12.14720542031683"><ele>827.0</ele><time>2026-04-11T09:16:49Z</time></trkpt><trkpt lat="43.7051394919169" lon="12.147051705694432"><ele>827.0</ele><time>2026-04-11T09:16:50Z</time></trkpt><trkpt lat="43.70506842848693" lon="12.146911102765365"><ele>827.0</ele><time>2026-04-11T09:16:51Z</time></trkpt><trkpt lat="43.70500227592451" lon="12.146791580491378"><ele>827.0</ele><time>2026-04-11T09:16:52Z</time></trkpt><trkpt lat="43.70494788275675" lon="12.14665579626653"><ele>827.0</ele><time>2026-04-11T09:16:53Z</time></trkpt><trkpt lat="43.70488747928815" lon="12.146527559851325"><ele>827.0</ele><time>2026-04-11T09:16:54Z</time></trkpt><trkpt lat="43.70483200032596" lon="12.146397934974335"><ele>827.0</ele><time>2026-04-11T09:16:55Z</time></trkpt><trkpt lat="43.7047934032448" lon="12.14625510966445"><ele>827.0</ele><time>2026-04-11T09:16:56Z</time></trkpt><trkpt lat="43.704760394023275" lon="12.146099097210742"><ele>829.75</ele><time>2026-04-11T09:16:57Z</time></trkpt><trkpt lat="43.70476619248392" lon="12.145930862349786"><ele>832.5</ele><time>2026-04-11T09:16:58Z</time></trkpt><trkpt lat="43.704776461068064" lon="12.145763190307367"><ele>835.25</ele><time>2026-04-11T09:16:59Z</time></trkpt><trkpt lat="43.704782772981346" lon="12.145595695218459"><ele>838.0</ele><time>2026-04-11T09:17:00Z</time></trkpt><trkpt lat="43.70478547952021" lon="12.145437043143628"><ele>839.5</ele><time>2026-04-11T09:17:01Z</time></trkpt><trkpt lat="43.70478640233594" lon="12.145276204731458"><ele>841.0</ele><time>2026-04-11T09:17:02Z</time></trkpt><trkpt lat="43.7047856506981" lon="12.145114516689876"><ele>842.5</ele><time>2026-04-11T09:17:03Z</time></trkpt><trkpt lat="43.70478718338476" lon="12.144953539812695"><ele>844.0</ele><time>2026-04-11T09:17:04Z</time></trkpt><trkpt lat="43.70478888423355" lon="12.14479314902955"><ele>844.2</ele><time>2026-04-11T09:17:05Z</time></trkpt><trkpt lat="43.70479417707279" lon="12.144636750712985"><ele>844.4000000000001</ele><time>2026-04-11T09:17:06Z</time></trkpt><trkpt lat="43.704797703623925" lon="12.144475637150455"><ele>844.6</ele><time>2026-04-11T09:17:06.999Z</time></trkpt><trkpt lat="43.704798420240735" lon="12.144323403855614"><ele>844.8</ele><time>2026-04-11T09:17:07.999Z</time></trkpt><trkpt lat="43.70480553172625" lon="12.144177011248457"><ele>845.0</ele><time>2026-04-11T09:17:08.999Z</time></trkpt><trkpt lat="43.70479356362823" lon="12.14402778877843"><ele>847.0</ele><time>2026-04-11T09:17:09.999Z</time></trkpt><trkpt lat="43.70474568248477" lon="12.143884225566303"><ele>849.0</ele><time>2026-04-11T09:17:10.999Z</time></trkpt><trkpt lat="43.70465596089801" lon="12.143765568947554"><ele>851.0</ele><time>2026-04-11T09:17:11.999Z</time></trkpt><trkpt lat="43.70453768275339" lon="12.143664758693236"><ele>853.0</ele><time>2026-04-11T09:17:12.999Z</time></trkpt><trkpt lat="43.70442446298828" lon="12.143579781134955"><ele>847.4</ele><time>2026-04-11T09:17:13.999Z</time></trkpt><trkpt lat="43.704325413388545" lon="12.143500045381446"><ele>841.8</ele><time>2026-04-11T09:17:14.999Z</time></trkpt><trkpt lat="43.70424867746496" lon="12.143425890355767"><ele>836.2</ele><time>2026-04-11T09:17:15.999Z</time></trkpt><trkpt lat="43.70422146866772" lon="12.143301804215273"><ele>830.6</ele><time>2026-04-11T09:17:16.999Z</time></trkpt><trkpt lat="43.704237353941735" lon="12.143156439401983"><ele>825.0</ele><time>2026-04-11T09:17:17.999Z</time></trkpt><trkpt lat="43.704281471881075" lon="12.143013091190749"><ele>823.75</ele><time>2026-04-11T09:17:18.999Z</time></trkpt><trkpt lat="43.70434587388695" lon="12.14287602937849"><ele>822.5</ele><time>2026-04-11T09:17:19.999Z</time></trkpt><trkpt lat="43.70441648664323" lon="12.142739338558417"><ele>821.25</ele><time>2026-04-11T09:17:20.999Z</time></trkpt><trkpt lat="43.704488715834046" lon="12.142598217634632"><ele>820.0</ele><time>2026-04-11T09:17:21.999Z</time></trkpt><trkpt lat="43.704571990411196" lon="12.142472087492195"><ele>827.75</ele><time>2026-04-11T09:17:22.999Z</time></trkpt><trkpt lat="43.70465714299936" lon="12.142371036434367"><ele>835.5</ele><time>2026-04-11T09:17:23.999Z</time></trkpt><trkpt lat="43.70471873920486" lon="12.142256147238355"><ele>843.25</ele><time>2026-04-11T09:17:24.999Z</time></trkpt><trkpt lat="43.70475961919117" lon="12.14211502773968"><ele>851.0</ele><time>2026-04-11T09:17:25.999Z</time></trkpt><trkpt lat="43.70474288547907" lon="12.141932880627127"><ele>851.0</ele><time>2026-04-11T09:17:26.999Z</time></trkpt><trkpt lat="43.7046625382008" lon="12.141784058353137"><ele>851.0</ele><time>2026-04-11T09:17:27.999Z</time></trkpt><trkpt lat="43.704580485952654" lon="12.141647192605815"><ele>851.0</ele><time>2026-04-11T09:17:28.999Z</time></trkpt><trkpt lat="43.704484419213664" lon="12.14151599719656"><ele>851.0</ele><time>2026-04-11T09:17:29.999Z</time></trkpt><trkpt lat="43.70438738524431" lon="12.141389132190012"><ele>847.5</ele><time>2026-04-11T09:17:30.999Z</time></trkpt><trkpt lat="43.70429166636814" lon="12.14127916540649"><ele>844.0</ele><time>2026-04-11T09:17:31.999Z</time></trkpt><trkpt lat="43.70418831877222" lon="12.141192217917359"><ele>840.5</ele><time>2026-04-11T09:17:32.999Z</time></trkpt><trkpt lat="43.70411454973843" lon="12.141079082010346"><ele>837.0</ele><time>2026-04-11T09:17:33.999Z</time></trkpt><trkpt lat="43.70404823818513" lon="12.14097185962181"><ele>837.0</ele><time>2026-04-11T09:17:34.999Z</time></trkpt><trkpt lat="43.70400582696384" lon="12.140815596391581"><ele>837.0</ele><time>2026-04-11T09:17:35.999Z</time></trkpt><trkpt lat="43.70398150846181" lon="12.140658587423664"><ele>837.0</ele><time>2026-04-11T09:17:36.999Z</time></trkpt><trkpt lat="43.704016952893824" lon="12.14050929278622"><ele>837.0</ele><time>2026-04-11T09:17:37.999Z</time></trkpt><trkpt lat="43.70409514918564" lon="12.140386386355125"><ele>834.75</ele><time>2026-04-11T09:17:38.999Z</time></trkpt><trkpt lat="43.704204201690516" lon="12.140290085609054"><ele>832.5</ele><time>2026-04-11T09:17:39.999Z</time></trkpt><trkpt lat="43.70431160732261" lon="12.140190449483182"><ele>830.25</ele><time>2026-04-11T09:17:40.999Z</time></trkpt><trkpt lat="43.70442935819214" lon="12.140131539229138"><ele>828.0</ele><time>2026-04-11T09:17:41.999Z</time></trkpt><trkpt lat="43.704552156982935" lon="12.140103396405099"><ele>832.75</ele><time>2026-04-11T09:17:42.999Z</time></trkpt><trkpt lat="43.704677030899255" lon="12.140086397804648"><ele>837.5</ele><time>2026-04-11T09:17:43.999Z</time></trkpt><trkpt lat="43.704791515732815" lon="12.140089078849979"><ele>842.25</ele><time>2026-04-11T09:17:44.999Z</time></trkpt><trkpt lat="43.704901365983126" lon="12.14006387042784"><ele>847.0</ele><time>2026-04-11T09:17:45.999Z</time></trkpt><trkpt lat="43.70500428908364" lon="12.140002050341288"><ele>847.0</ele><time>2026-04-11T09:17:46.999Z</time></trkpt><trkpt lat="43.7051010134708" lon="12.13989505804702"><ele>847.0</ele><time>2026-04-11T09:17:47.999Z</time></trkpt><trkpt lat="43.705191568195076" lon="12.139798147661818"><ele>847.0</ele><time>2026-04-11T09:17:48.999Z</time></trkpt><trkpt lat="43.70526275033958" lon="12.139688137927216"><ele>847.0</ele><time>2026-04-11T09:17:49.999Z</time></trkpt><trkpt lat="43.705292790847146" lon="12.139554200031812"><ele>847.0</ele><time>2026-04-11T09:17:50.999Z</time></trkpt><trkpt lat="43.70527967382516" lon="12.139391023556744"><ele>847.25</ele><time>2026-04-11T09:17:51.999Z</time></trkpt><trkpt lat="43.7052255665837" lon="12.139249197713427"><ele>847.5</ele><time>2026-04-11T09:17:52.999Z</time></trkpt><trkpt lat="43.705143546478205" lon="12.139118782070865"><ele>847.75</ele><time>2026-04-11T09:17:53.999Z</time></trkpt><trkpt lat="43.705030086439585" lon="12.139024774597523"><ele>848.0</ele><time>2026-04-11T09:17:54.999Z</time></trkpt><trkpt lat="43.704932592168" lon="12.138943497422469"><ele>848.0</ele><time>2026-04-11T09:17:55.999Z</time></trkpt><trkpt lat="43.70484603472501" lon="12.138852094910167"><ele>848.0</ele><time>2026-04-11T09:17:56.999Z</time></trkpt><trkpt lat="43.70475726866535" lon="12.138747254975156"><ele>848.0</ele><time>2026-04-11T09:17:57.999Z</time></trkpt><trkpt lat="43.704650807227445" lon="12.1386573228691"><ele>848.0</ele><time>2026-04-11T09:17:58.999Z</time></trkpt><trkpt lat="43.70452815438707" lon="12.138607182546131"><ele>843.75</ele><time>2026-04-11T09:17:59.999Z</time></trkpt><trkpt lat="43.70440107844829" lon="12.138608008429653"><ele>839.5</ele><time>2026-04-11T09:18:00.999Z</time></trkpt><trkpt lat="43.70429032461229" lon="12.13860787072201"><ele>835.25</ele><time>2026-04-11T09:18:01.999Z</time></trkpt><trkpt lat="43.70418292661932" lon="12.138604964194924"><ele>831.0</ele><time>2026-04-11T09:18:02.999Z</time></trkpt><trkpt lat="43.7040740330675" lon="12.138598259864988"><ele>831.0</ele><time>2026-04-11T09:18:03.999Z</time></trkpt><trkpt lat="43.70396586137486" lon="12.138596961840395"><ele>831.0</ele><time>2026-04-11T09:18:04.999Z</time></trkpt><trkpt lat="43.703854581092315" lon="12.138594725246493"><ele>831.0</ele><time>2026-04-11T09:18:05.999Z</time></trkpt><trkpt lat="43.703737952811125" lon="12.138565839857236"><ele>831.0</ele><time>2026-04-11T09:18:06.999Z</time></trkpt><trkpt lat="43.70361506583931" lon="12.138559434881373"><ele>832.0</ele><time>2026-04-11T09:18:08Z</time></trkpt><trkpt lat="43.70348394690946" lon="12.138553547030304"><ele>833.0</ele><time>2026-04-11T09:18:09Z</time></trkpt><trkpt lat="43.70334563161253" lon="12.138556949617957"><ele>834.0</ele><time>2026-04-11T09:18:10Z</time></trkpt><trkpt lat="43.70320204886018" lon="12.138576343007882"><ele>835.0</ele><time>2026-04-11T09:18:11Z</time></trkpt><trkpt lat="43.70305339504063" lon="12.138635848667464"><ele>835.0</ele><time>2026-04-11T09:18:12Z</time></trkpt><trkpt lat="43.70290541007108" lon="12.138638381233449"><ele>835.0</ele><time>2026-04-11T09:18:13Z</time></trkpt><trkpt lat="43.70275760087452" lon="12.138635929311612"><ele>835.0</ele><time>2026-04-11T09:18:14Z</time></trkpt><trkpt lat="43.70259917575992" lon="12.138621839544182"><ele>836.5</ele><time>2026-04-11T09:18:15Z</time></trkpt><trkpt lat="43.702447256904286" lon="12.138607778140232"><ele>838.0</ele><time>2026-04-11T09:18:16Z</time></trkpt><trkpt lat="43.702308707347" lon="12.138594954197163"><ele>839.5</ele><time>2026-04-11T09:18:17Z</time></trkpt><trkpt lat="43.70216980205711" lon="12.138586881418624"><ele>841.0</ele><time>2026-04-11T09:18:18Z</time></trkpt><trkpt lat="43.70204165054085" lon="12.138584651839256"><ele>840.0</ele><time>2026-04-11T09:18:19Z</time></trkpt><trkpt lat="43.701909671168664" lon="12.138591264197462"><ele>839.0</ele><time>2026-04-11T09:18:20Z</time></trkpt><trkpt lat="43.70178709015379" lon="12.138620761834323"><ele>838.0</ele><time>2026-04-11T09:18:21Z</time></trkpt><trkpt lat="43.70167036137759" lon="12.138625802335108"><ele>837.0</ele><time>2026-04-11T09:18:22Z</time></trkpt><trkpt lat="43.70155557335146" lon="12.138637622321971"><ele>837.0</ele><time>2026-04-11T09:18:23Z</time></trkpt><trkpt lat="43.7014416844837" lon="12.13865105124817"><ele>837.0</ele><time>2026-04-11T09:18:24Z</time></trkpt><trkpt lat="43.701322647361664" lon="12.138663018281738"><ele>837.0</ele><time>2026-04-11T09:18:25Z</time></trkpt><trkpt lat="43.701210391991815" lon="12.1386691575722"><ele>837.0</ele><time>2026-04-11T09:18:26Z</time></trkpt><trkpt lat="43.70109562528326" lon="12.138678573845244"><ele>835.75</ele><time>2026-04-11T09:18:27Z</time></trkpt><trkpt lat="43.70097775632847" lon="12.138692081124683"><ele>834.5</ele><time>2026-04-11T09:18:28Z</time></trkpt><trkpt lat="43.70086004163624" lon="12.138699562432368"><ele>833.25</ele><time>2026-04-11T09:18:29Z</time></trkpt><trkpt lat="43.70074947655866" lon="12.138711263893068"><ele>832.0</ele><time>2026-04-11T09:18:30Z</time></trkpt><trkpt lat="43.700631499393495" lon="12.138718280262486"><ele>832.0</ele><time>2026-04-11T09:18:31Z</time></trkpt><trkpt lat="43.7005115660087" lon="12.13873309791278"><ele>832.0</ele><time>2026-04-11T09:18:32Z</time></trkpt><trkpt lat="43.700388790089676" lon="12.138748804917114"><ele>832.0</ele><time>2026-04-11T09:18:33Z</time></trkpt><trkpt lat="43.70026689374088" lon="12.138751978756094"><ele>832.0</ele><time>2026-04-11T09:18:34Z</time></trkpt><trkpt lat="43.7001444447781" lon="12.138727045837015"><ele>833.0</ele><time>2026-04-11T09:18:35Z</time></trkpt><trkpt lat="43.70002025106899" lon="12.138710942777431"><ele>834.0</ele><time>2026-04-11T09:18:36Z</time></trkpt><trkpt lat="43.699900578900255" lon="12.138690888995345"><ele>835.0</ele><time>2026-04-11T09:18:37Z</time></trkpt><trkpt lat="43.69978399577052" lon="12.138673111016368"><ele>836.0</ele><time>2026-04-11T09:18:38Z</time></trkpt><trkpt lat="43.69966615778127" lon="12.138692782699437"><ele>836.0</ele><time>2026-04-11T09:18:39Z</time></trkpt><trkpt lat="43.69954775033852" lon="12.138705143447389"><ele>836.0</ele><time>2026-04-11T09:18:40Z</time></trkpt><trkpt lat="43.69943281353414" lon="12.13871854446109"><ele>836.0</ele><time>2026-04-11T09:18:41Z</time></trkpt><trkpt lat="43.6993183728957" lon="12.138725023491185"><ele>836.0</ele><time>2026-04-11T09:18:42Z</time></trkpt><trkpt lat="43.699207190136114" lon="12.138733802423568"><ele>836.25</ele><time>2026-04-11T09:18:43Z</time></trkpt><trkpt lat="43.69909610415092" lon="12.13869332836668"><ele>836.5</ele><time>2026-04-11T09:18:44Z</time></trkpt><trkpt lat="43.69899955623878" lon="12.13861153975797"><ele>836.75</ele><time>2026-04-11T09:18:45Z</time></trkpt><trkpt lat="43.69892033057462" lon="12.138492092396122"><ele>837.0</ele><time>2026-04-11T09:18:46Z</time></trkpt><trkpt lat="43.698868744068285" lon="12.138341487851399"><ele>837.25</ele><time>2026-04-11T09:18:47Z</time></trkpt><trkpt lat="43.69884072066139" lon="12.1381814687278"><ele>837.5</ele><time>2026-04-11T09:18:48Z</time></trkpt><trkpt lat="43.6988305829082" lon="12.13802315950726"><ele>837.75</ele><time>2026-04-11T09:18:49Z</time></trkpt><trkpt lat="43.69881422822905" lon="12.137862125114117"><ele>838.0</ele><time>2026-04-11T09:18:50Z</time></trkpt><trkpt lat="43.69877608183453" lon="12.137708398460052"><ele>838.0</ele><time>2026-04-11T09:18:51Z</time></trkpt><trkpt lat="43.69872223855703" lon="12.137575452378531"><ele>838.0</ele><time>2026-04-11T09:18:52Z</time></trkpt><trkpt lat="43.69866890200698" lon="12.137451146170937"><ele>838.0</ele><time>2026-04-11T09:18:53Z</time></trkpt><trkpt lat="43.69860857433542" lon="12.137323397090707"><ele>838.0</ele><time>2026-04-11T09:18:54Z</time></trkpt><trkpt lat="43.69853423198174" lon="12.137203563648669"><ele>838.0</ele><time>2026-04-11T09:18:55Z</time></trkpt><trkpt lat="43.69844269461432" lon="12.137096409685842"><ele>835.25</ele><time>2026-04-11T09:18:56Z</time></trkpt><trkpt lat="43.69833873774786" lon="12.137004091026297"><ele>832.5</ele><time>2026-04-11T09:18:57Z</time></trkpt><trkpt lat="43.69821742755406" lon="12.136934932893022"><ele>829.75</ele><time>2026-04-11T09:18:58Z</time></trkpt><trkpt lat="43.69808453048531" lon="12.136896298143723"><ele>827.0</ele><time>2026-04-11T09:18:59Z</time></trkpt><trkpt lat="43.697947732365634" lon="12.136886587193992"><ele>827.0</ele><time>2026-04-11T09:19:00Z</time></trkpt><trkpt lat="43.69781243633897" lon="12.136892197225285"><ele>827.0</ele><time>2026-04-11T09:19:01Z</time></trkpt><trkpt lat="43.69768337733999" lon="12.13690042801581"><ele>827.0</ele><time>2026-04-11T09:19:02Z</time></trkpt><trkpt lat="43.697562094736114" lon="12.136913567872682"><ele>827.0</ele><time>2026-04-11T09:19:03Z</time></trkpt><trkpt lat="43.697445173971715" lon="12.136931970937233"><ele>828.5</ele><time>2026-04-11T09:19:04Z</time></trkpt><trkpt lat="43.69732605309462" lon="12.136928228534211"><ele>830.0</ele><time>2026-04-11T09:19:05Z</time></trkpt><trkpt lat="43.697208667150356" lon="12.136944043044975"><ele>831.5</ele><time>2026-04-11T09:19:06Z</time></trkpt><trkpt lat="43.69709218168877" lon="12.136955318694207"><ele>833.0</ele><time>2026-04-11T09:19:07Z</time></trkpt><trkpt lat="43.69697636897906" lon="12.136949108525561"><ele>834.75</ele><time>2026-04-11T09:19:08Z</time></trkpt><trkpt lat="43.69686024594409" lon="12.136928483227063"><ele>836.5</ele><time>2026-04-11T09:19:09Z</time></trkpt><trkpt lat="43.696754518368415" lon="12.136842569207635"><ele>838.25</ele><time>2026-04-11T09:19:10Z</time></trkpt><trkpt lat="43.6966489967177" lon="12.136768656499992"><ele>840.0</ele><time>2026-04-11T09:19:11Z</time></trkpt><trkpt lat="43.696549183007164" lon="12.136699356062294"><ele>840.0</ele><time>2026-04-11T09:19:12Z</time></trkpt><trkpt lat="43.69644075297177" lon="12.136660055559531"><ele>840.0</ele><time>2026-04-11T09:19:12.999Z</time></trkpt><trkpt lat="43.69632986511573" lon="12.136615437453578"><ele>840.0</ele><time>2026-04-11T09:19:13.999Z</time></trkpt><trkpt lat="43.69622051586728" lon="12.136589902828206"><ele>840.0</ele><time>2026-04-11T09:19:14.999Z</time></trkpt><trkpt lat="43.69611868734632" lon="12.136568124870386"><ele>840.0</ele><time>2026-04-11T09:19:15.999Z</time></trkpt><trkpt lat="43.69601739680131" lon="12.136548689150132"><ele>839.4</ele><time>2026-04-11T09:19:16.999Z</time></trkpt><trkpt lat="43.69591494324358" lon="12.136535952209899"><ele>838.8</ele><time>2026-04-11T09:19:17.999Z</time></trkpt><trkpt lat="43.69580502407394" lon="12.136511907000907"><ele>838.2</ele><time>2026-04-11T09:19:18.999Z</time></trkpt><trkpt lat="43.695699340456116" lon="12.136486694689285"><ele>837.6</ele><time>2026-04-11T09:19:19.999Z</time></trkpt><trkpt lat="43.69559072989525" lon="12.136470786509895"><ele>837.0</ele><time>2026-04-11T09:19:20.999Z</time></trkpt><trkpt lat="43.695480953978354" lon="12.136456046250279"><ele>837.0</ele><time>2026-04-11T09:19:21.999Z</time></trkpt><trkpt lat="43.695369699592305" lon="12.13643301804759"><ele>837.0</ele><time>2026-04-11T09:19:22.999Z</time></trkpt><trkpt lat="43.69525683973788" lon="12.13640746979012"><ele>837.0</ele><time>2026-04-11T09:19:23.999Z</time></trkpt><trkpt lat="43.69514600036706" lon="12.136384370664459"><ele>837.0</ele><time>2026-04-11T09:19:24.999Z</time></trkpt><trkpt lat="43.69503577785975" lon="12.136365986166297"><ele>839.0</ele><time>2026-04-11T09:19:25.999Z</time></trkpt><trkpt lat="43.694921378743565" lon="12.136322557796152"><ele>841.0</ele><time>2026-04-11T09:19:26.999Z</time></trkpt><trkpt lat="43.69482011649394" lon="12.136252557761958"><ele>843.0</ele><time>2026-04-11T09:19:27.999Z</time></trkpt><trkpt lat="43.694723512709345" lon="12.136158877763785"><ele>845.0</ele><time>2026-04-11T09:19:28.999Z</time></trkpt><trkpt lat="43.69462769008845" lon="12.136058306255373"><ele>845.0</ele><time>2026-04-11T09:19:29.999Z</time></trkpt><trkpt lat="43.69452333302726" lon="12.135970897164865"><ele>845.0</ele><time>2026-04-11T09:19:30.999Z</time></trkpt><trkpt lat="43.69440815516234" lon="12.135918860779682"><ele>845.0</ele><time>2026-04-11T09:19:31.999Z</time></trkpt><trkpt lat="43.69429083998493" lon="12.13589244942088"><ele>845.0</ele><time>2026-04-11T09:19:32.999Z</time></trkpt><trkpt lat="43.69418486820826" lon="12.135893589223343"><ele>844.2</ele><time>2026-04-11T09:19:33.999Z</time></trkpt><trkpt lat="43.69408225400593" lon="12.135900792857923"><ele>843.4</ele><time>2026-04-11T09:19:34.999Z</time></trkpt><trkpt lat="43.69397824290786" lon="12.135896194640136"><ele>842.5999999999999</ele><time>2026-04-11T09:19:35.999Z</time></trkpt><trkpt lat="43.69387970619467" lon="12.135851988965863"><ele>841.8</ele><time>2026-04-11T09:19:36.999Z</time></trkpt><trkpt lat="43.6937943492025" lon="12.135764410256911"><ele>841.0</ele><time>2026-04-11T09:19:37.999Z</time></trkpt><trkpt lat="43.69373273479647" lon="12.135658194023852"><ele>841.0</ele><time>2026-04-11T09:19:38.999Z</time></trkpt><trkpt lat="43.69368004963881" lon="12.135544771741163"><ele>841.0</ele><time>2026-04-11T09:19:39.999Z</time></trkpt><trkpt lat="43.69361223212564" lon="12.135442313428609"><ele>841.0</ele><time>2026-04-11T09:19:40.999Z</time></trkpt><trkpt lat="43.693530021742355" lon="12.135336879878418"><ele>841.0</ele><time>2026-04-11T09:19:41.999Z</time></trkpt><trkpt lat="43.69341667611671" lon="12.135289474844537"><ele>841.0</ele><time>2026-04-11T09:19:42.999Z</time></trkpt><trkpt lat="43.69330474955365" lon="12.135250167518619"><ele>845.25</ele><time>2026-04-11T09:19:43.999Z</time></trkpt><trkpt lat="43.69319115526827" lon="12.1352073538529"><ele>849.5</ele><time>2026-04-11T09:19:44.999Z</time></trkpt><trkpt lat="43.69307789324884" lon="12.135148108867611"><ele>853.75</ele><time>2026-04-11T09:19:45.999Z</time></trkpt><trkpt lat="43.69297017428355" lon="12.135073269715779"><ele>858.0</ele><time>2026-04-11T09:19:46.999Z</time></trkpt><trkpt lat="43.692857177990795" lon="12.13499349063901"><ele>860.0</ele><time>2026-04-11T09:19:47.999Z</time></trkpt><trkpt lat="43.69274427145275" lon="12.134914961052257"><ele>862.0</ele><time>2026-04-11T09:19:48.999Z</time></trkpt><trkpt lat="43.69263669174991" lon="12.134848722995805"><ele>864.0</ele><time>2026-04-11T09:19:49.999Z</time></trkpt><trkpt lat="43.69253635789192" lon="12.13479035714317"><ele>866.0</ele><time>2026-04-11T09:19:50.999Z</time></trkpt><trkpt lat="43.692445691613486" lon="12.134734615168883"><ele>866.0</ele><time>2026-04-11T09:19:51.999Z</time></trkpt><trkpt lat="43.69235162289254" lon="12.134668354595478"><ele>866.0</ele><time>2026-04-11T09:19:52.999Z</time></trkpt><trkpt lat="43.6922879863987" lon="12.134559336607095"><ele>866.0</ele><time>2026-04-11T09:19:53.999Z</time></trkpt><trkpt lat="43.692233638872644" lon="12.134418794702897"><ele>866.0</ele><time>2026-04-11T09:19:54.999Z</time></trkpt><trkpt lat="43.692175997182844" lon="12.134257200127454"><ele>866.0</ele><time>2026-04-11T09:19:55.999Z</time></trkpt><trkpt lat="43.69212137740632" lon="12.134074146907192"><ele>866.0</ele><time>2026-04-11T09:19:56.999Z</time></trkpt><trkpt lat="43.69205903547288" lon="12.133903837340084"><ele>866.0</ele><time>2026-04-11T09:19:57.999Z</time></trkpt><trkpt lat="43.69197098192687" lon="12.133732966280629"><ele>866.0</ele><time>2026-04-11T09:19:58.999Z</time></trkpt><trkpt lat="43.69188712514866" lon="12.133556435222488"><ele>866.0</ele><time>2026-04-11T09:19:59.999Z</time></trkpt><trkpt lat="43.69181634395705" lon="12.133385470286408"><ele>866.0</ele><time>2026-04-11T09:20:00.999Z</time></trkpt><trkpt lat="43.69175296321899" lon="12.133190045015679"><ele>866.0</ele><time>2026-04-11T09:20:01.999Z</time></trkpt><trkpt lat="43.69171368756218" lon="12.132987186526185"><ele>866.0</ele><time>2026-04-11T09:20:02.999Z</time></trkpt><trkpt lat="43.69164928531029" lon="12.132775185324743"><ele>866.0</ele><time>2026-04-11T09:20:03.999Z</time></trkpt><trkpt lat="43.69159943284408" lon="12.132559580298816"><ele>866.0</ele><time>2026-04-11T09:20:04.999Z</time></trkpt><trkpt lat="43.691547884674506" lon="12.13234633705212"><ele>866.0</ele><time>2026-04-11T09:20:05.999Z</time></trkpt><trkpt lat="43.6914992982853" lon="12.13214218169286"><ele>866.25</ele><time>2026-04-11T09:20:06.999Z</time></trkpt><trkpt lat="43.691470713892095" lon="12.131945232001915"><ele>866.5</ele><time>2026-04-11T09:20:07.999Z</time></trkpt><trkpt lat="43.691436129611404" lon="12.131789426790137"><ele>866.75</ele><time>2026-04-11T09:20:08.999Z</time></trkpt><trkpt lat="43.69139544475008" lon="12.131668008869463"><ele>867.0</ele><time>2026-04-11T09:20:09.999Z</time></trkpt><trkpt lat="43.69137700331994" lon="12.131534903403944"><ele>866.2</ele><time>2026-04-11T09:20:10.999Z</time></trkpt><trkpt lat="43.69135519387892" lon="12.131401456265946"><ele>865.4000000000001</ele><time>2026-04-11T09:20:11.999Z</time></trkpt><trkpt lat="43.69132646873508" lon="12.131264918965584"><ele>864.5999999999999</ele><time>2026-04-11T09:20:12.999Z</time></trkpt><trkpt lat="43.691284468856274" lon="12.131132073526866"><ele>863.8</ele><time>2026-04-11T09:20:14Z</time></trkpt><trkpt lat="43.69122861789488" lon="12.13100873805203"><ele>863.0</ele><time>2026-04-11T09:20:15Z</time></trkpt><trkpt lat="43.69115743418372" lon="12.130895448573654"><ele>867.8</ele><time>2026-04-11T09:20:16Z</time></trkpt><trkpt lat="43.691076689671945" lon="12.130785488497732"><ele>872.5999999999999</ele><time>2026-04-11T09:20:17Z</time></trkpt><trkpt lat="43.6909965135706" lon="12.13067556747796"><ele>877.4000000000001</ele><time>2026-04-11T09:20:18Z</time></trkpt><trkpt lat="43.69093367422124" lon="12.130555867826933"><ele>882.2</ele><time>2026-04-11T09:20:19Z</time></trkpt><trkpt lat="43.69090262455307" lon="12.130408082841132"><ele>887.0</ele><time>2026-04-11T09:20:20Z</time></trkpt><trkpt lat="43.6908922823327" lon="12.130257338859572"><ele>887.0</ele><time>2026-04-11T09:20:21Z</time></trkpt><trkpt lat="43.69089583332986" lon="12.130108983506847"><ele>887.0</ele><time>2026-04-11T09:20:22Z</time></trkpt><trkpt lat="43.69091413305994" lon="12.12994029381068"><ele>887.0</ele><time>2026-04-11T09:20:23Z</time></trkpt><trkpt lat="43.690927505158356" lon="12.129766463796635"><ele>887.0</ele><time>2026-04-11T09:20:24Z</time></trkpt><trkpt lat="43.69094285038684" lon="12.129609634330075"><ele>885.25</ele><time>2026-04-11T09:20:25Z</time></trkpt><trkpt lat="43.690930718256865" lon="12.12946267474972"><ele>883.5</ele><time>2026-04-11T09:20:26Z</time></trkpt><trkpt lat="43.69089395169696" lon="12.129318161315018"><ele>881.75</ele><time>2026-04-11T09:20:27Z</time></trkpt><trkpt lat="43.69076987024218" lon="12.129199075223747"><ele>880.0</ele><time>2026-04-11T09:20:28Z</time></trkpt><trkpt lat="43.6906561486849" lon="12.12913846113707"><ele>880.0</ele><time>2026-04-11T09:20:29Z</time></trkpt><trkpt lat="43.690524492307176" lon="12.12909460520588"><ele>880.0</ele><time>2026-04-11T09:20:30Z</time></trkpt><trkpt lat="43.690411920370885" lon="12.129040329336966"><ele>880.0</ele><time>2026-04-11T09:20:31Z</time></trkpt><trkpt lat="43.69029812517145" lon="12.129015574643145"><ele>880.0</ele><time>2026-04-11T09:20:32Z</time></trkpt><trkpt lat="43.69018960630715" lon="12.12899012155098"><ele>879.0</ele><time>2026-04-11T09:20:33Z</time></trkpt><trkpt lat="43.69007412871602" lon="12.128963386025735"><ele>878.0</ele><time>2026-04-11T09:20:34Z</time></trkpt><trkpt lat="43.68996025496628" lon="12.128939191288586"><ele>877.0</ele><time>2026-04-11T09:20:35Z</time></trkpt><trkpt lat="43.68984879347572" lon="12.12891391274407"><ele>876.0</ele><time>2026-04-11T09:20:36Z</time></trkpt><trkpt lat="43.68974138217106" lon="12.128881836247704"><ele>876.0</ele><time>2026-04-11T09:20:37Z</time></trkpt><trkpt lat="43.6896279328057" lon="12.128837635335351"><ele>876.0</ele><time>2026-04-11T09:20:38Z</time></trkpt><trkpt lat="43.68952468797389" lon="12.128785755802344"><ele>876.0</ele><time>2026-04-11T09:20:39Z</time></trkpt><trkpt lat="43.689420994724486" lon="12.128724928412764"><ele>876.0</ele><time>2026-04-11T09:20:40Z</time></trkpt><trkpt lat="43.68931824457814" lon="12.12865771098555"><ele>879.8</ele><time>2026-04-11T09:20:41Z</time></trkpt><trkpt lat="43.68923178791735" lon="12.128594295346547"><ele>883.5999999999999</ele><time>2026-04-11T09:20:42Z</time></trkpt><trkpt lat="43.68914052836679" lon="12.128522300515792"><ele>887.4</ele><time>2026-04-11T09:20:43Z</time></trkpt><trkpt lat="43.68905427473515" lon="12.128440488904824"><ele>891.2</ele><time>2026-04-11T09:20:44Z</time></trkpt><trkpt lat="43.688982143651515" lon="12.128345930031541"><ele>895.0</ele><time>2026-04-11T09:20:45Z</time></trkpt><trkpt lat="43.688914900469236" lon="12.128235446835346"><ele>896.2</ele><time>2026-04-11T09:20:46Z</time></trkpt><trkpt lat="43.688852031857536" lon="12.128122090933703"><ele>897.4</ele><time>2026-04-11T09:20:47Z</time></trkpt><trkpt lat="43.688791473384406" lon="12.128012900391973"><ele>898.5999999999999</ele><time>2026-04-11T09:20:48Z</time></trkpt><trkpt lat="43.68872491887658" lon="12.127904364706891"><ele>899.8</ele><time>2026-04-11T09:20:49Z</time></trkpt><trkpt lat="43.688644223701374" lon="12.12781764302171"><ele>901.0</ele><time>2026-04-11T09:20:50Z</time></trkpt><trkpt lat="43.688533402869645" lon="12.127773044487952"><ele>901.0</ele><time>2026-04-11T09:20:51Z</time></trkpt><trkpt lat="43.688428676181374" lon="12.127748664282164"><ele>900.9999999999999</ele><time>2026-04-11T09:20:52Z</time></trkpt><trkpt lat="43.68831638938762" lon="12.127729179219283"><ele>900.9999999999999</ele><time>2026-04-11T09:20:53Z</time></trkpt><trkpt lat="43.68820720946557" lon="12.127709535805204"><ele>901.0</ele><time>2026-04-11T09:20:54Z</time></trkpt><trkpt lat="43.68809703644556" lon="12.127687762899411"><ele>901.0</ele><time>2026-04-11T09:20:55Z</time></trkpt><trkpt lat="43.68798826067353" lon="12.127663989633913"><ele>901.0</ele><time>2026-04-11T09:20:56Z</time></trkpt><trkpt lat="43.68789149722968" lon="12.127613421332377"><ele>900.9999999999999</ele><time>2026-04-11T09:20:57Z</time></trkpt><trkpt lat="43.687813716779274" lon="12.127513392283896"><ele>900.9999999999999</ele><time>2026-04-11T09:20:58Z</time></trkpt><trkpt lat="43.68773703805333" lon="12.127395175677448"><ele>901.0</ele><time>2026-04-11T09:20:59Z</time></trkpt><trkpt lat="43.68765699389947" lon="12.127271488658161"><ele>901.0</ele><time>2026-04-11T09:21:00Z</time></trkpt><trkpt lat="43.68757230823684" lon="12.127148909322909"><ele>902.25</ele><time>2026-04-11T09:21:01Z</time></trkpt><trkpt lat="43.68748123324009" lon="12.12703682187193"><ele>903.5</ele><time>2026-04-11T09:21:02Z</time></trkpt><trkpt lat="43.68738955555198" lon="12.126934099716134"><ele>904.75</ele><time>2026-04-11T09:21:03Z</time></trkpt><trkpt lat="43.687297779630455" lon="12.126842485257585"><ele>906.0</ele><time>2026-04-11T09:21:04Z</time></trkpt><trkpt lat="43.68720072936163" lon="12.126763731830566"><ele>906.0</ele><time>2026-04-11T09:21:05Z</time></trkpt><trkpt lat="43.68710368372997" lon="12.126698861582145"><ele>905.9999999999999</ele><time>2026-04-11T09:21:06Z</time></trkpt><trkpt lat="43.68700907030004" lon="12.126641955359913"><ele>905.9999999999999</ele><time>2026-04-11T09:21:07Z</time></trkpt><trkpt lat="43.686912514943096" lon="12.126587187933271"><ele>906.0</ele><time>2026-04-11T09:21:08Z</time></trkpt><trkpt lat="43.68680754910633" lon="12.126549717506263"><ele>906.0</ele><time>2026-04-11T09:21:09Z</time></trkpt><trkpt lat="43.68670853657572" lon="12.12647238689272"><ele>906.0</ele><time>2026-04-11T09:21:10Z</time></trkpt><trkpt lat="43.68662822072276" lon="12.126356309453257"><ele>905.9999999999999</ele><time>2026-04-11T09:21:11Z</time></trkpt><trkpt lat="43.686546975153334" lon="12.126245880072414"><ele>905.9999999999999</ele><time>2026-04-11T09:21:12Z</time></trkpt><trkpt lat="43.68647000188976" lon="12.126137419017775"><ele>906.0</ele><time>2026-04-11T09:21:13Z</time></trkpt><trkpt lat="43.686395204626635" lon="12.126031074640764"><ele>906.0</ele><time>2026-04-11T09:21:14Z</time></trkpt><trkpt lat="43.6863217999274" lon="12.125924380237095"><ele>906.0</ele><time>2026-04-11T09:21:15Z</time></trkpt><trkpt lat="43.68625381945269" lon="12.125825290179176"><ele>905.9999999999999</ele><time>2026-04-11T09:21:16Z</time></trkpt><trkpt lat="43.68618485598375" lon="12.125724909710357"><ele>905.9999999999999</ele><time>2026-04-11T09:21:17Z</time></trkpt><trkpt lat="43.686114983844064" lon="12.125623206686138"><ele>906.0</ele><time>2026-04-11T09:21:18Z</time></trkpt><trkpt lat="43.68604479289406" lon="12.12552103954015"><ele>906.0</ele><time>2026-04-11T09:21:19Z</time></trkpt><trkpt lat="43.685975611416964" lon="12.125418084322238"><ele>908.1999999999999</ele><time>2026-04-11T09:21:20Z</time></trkpt><trkpt lat="43.685907257314845" lon="12.125310894531493"><ele>910.3999999999999</ele><time>2026-04-11T09:21:21Z</time></trkpt><trkpt lat="43.68584328321367" lon="12.125200720878714"><ele>912.6</ele><time>2026-04-11T09:21:22Z</time></trkpt><trkpt lat="43.685771315015984" lon="12.125096927338259"><ele>914.8</ele><time>2026-04-11T09:21:23Z</time></trkpt><trkpt lat="43.68570631558121" lon="12.124986394411039"><ele>917.0</ele><time>2026-04-11T09:21:24Z</time></trkpt><trkpt lat="43.685655564645394" lon="12.124865131496684"><ele>917.0</ele><time>2026-04-11T09:21:25Z</time></trkpt><trkpt lat="43.685609632793415" lon="12.124739723866467"><ele>917.0</ele><time>2026-04-11T09:21:26Z</time></trkpt><trkpt lat="43.68557431155067" lon="12.124606672189232"><ele>917.0</ele><time>2026-04-11T09:21:26.999Z</time></trkpt><trkpt lat="43.68555097351603" lon="12.124468076626613"><ele>917.0</ele><time>2026-04-11T09:21:27.999Z</time></trkpt><trkpt lat="43.685523807752" lon="12.124332555192472"><ele>917.0</ele><time>2026-04-11T09:21:28.999Z</time></trkpt><trkpt lat="43.68549138029918" lon="12.12419630125141"><ele>917.0</ele><time>2026-04-11T09:21:29.999Z</time></trkpt><trkpt lat="43.68542311878522" lon="12.12407987813779"><ele>917.0</ele><time>2026-04-11T09:21:30.999Z</time></trkpt><trkpt lat="43.68533986711262" lon="12.123989563789353"><ele>917.0</ele><time>2026-04-11T09:21:31.999Z</time></trkpt><trkpt lat="43.68525120525486" lon="12.123913555608649"><ele>917.0</ele><time>2026-04-11T09:21:32.999Z</time></trkpt><trkpt lat="43.68516072095874" lon="12.123843512019253"><ele>917.0</ele><time>2026-04-11T09:21:33.999Z</time></trkpt><trkpt lat="43.685068650522545" lon="12.123772733284612"><ele>919.8</ele><time>2026-04-11T09:21:34.999Z</time></trkpt><trkpt lat="43.68500145366139" lon="12.1236603865506"><ele>922.6</ele><time>2026-04-11T09:21:35.999Z</time></trkpt><trkpt lat="43.68495524808508" lon="12.123519642583341"><ele>925.3999999999999</ele><time>2026-04-11T09:21:36.999Z</time></trkpt><trkpt lat="43.68491681703172" lon="12.123374084498609"><ele>928.1999999999999</ele><time>2026-04-11T09:21:37.999Z</time></trkpt><trkpt lat="43.68489665539205" lon="12.123215386416819"><ele>931.0</ele><time>2026-04-11T09:21:38.999Z</time></trkpt><trkpt lat="43.68488182621472" lon="12.12305355388364"><ele>931.1999999999999</ele><time>2026-04-11T09:21:39.999Z</time></trkpt><trkpt lat="43.684863107284016" lon="12.122897435570529"><ele>931.3999999999999</ele><time>2026-04-11T09:21:40.999Z</time></trkpt><trkpt lat="43.684842605039265" lon="12.12276485836056"><ele>931.6</ele><time>2026-04-11T09:21:41.999Z</time></trkpt><trkpt lat="43.68482293480768" lon="12.122633133211224"><ele>931.8</ele><time>2026-04-11T09:21:42.999Z</time></trkpt><trkpt lat="43.68480319797662" lon="12.122494701347449"><ele>932.0</ele><time>2026-04-11T09:21:43.999Z</time></trkpt><trkpt lat="43.6847894009052" lon="12.122347906740861"><ele>932.4000000000001</ele><time>2026-04-11T09:21:44.999Z</time></trkpt><trkpt lat="43.684781673265164" lon="12.12219629947526"><ele>932.8000000000001</ele><time>2026-04-11T09:21:45.999Z</time></trkpt><trkpt lat="43.684780683438085" lon="12.12204279091004"><ele>933.2</ele><time>2026-04-11T09:21:46.999Z</time></trkpt><trkpt lat="43.684792727344174" lon="12.121891633479152"><ele>933.6</ele><time>2026-04-11T09:21:47.999Z</time></trkpt><trkpt lat="43.68482072414067" lon="12.121742863162059"><ele>934.0</ele><time>2026-04-11T09:21:48.999Z</time></trkpt><trkpt lat="43.68485678201571" lon="12.121595729831082"><ele>935.8000000000001</ele><time>2026-04-11T09:21:49.999Z</time></trkpt><trkpt lat="43.68489316632887" lon="12.121461355514882"><ele>937.6000000000001</ele><time>2026-04-11T09:21:50.999Z</time></trkpt><trkpt lat="43.68492573887079" lon="12.121339147661244"><ele>939.4</ele><time>2026-04-11T09:21:51.999Z</time></trkpt><trkpt lat="43.68494592118797" lon="12.121209831625654"><ele>941.2</ele><time>2026-04-11T09:21:52.999Z</time></trkpt><trkpt lat="43.684947112165496" lon="12.121077429001474"><ele>943.0</ele><time>2026-04-11T09:21:53.999Z</time></trkpt><trkpt lat="43.68493114463746" lon="12.12094406062676"><ele>943.0</ele><time>2026-04-11T09:21:54.999Z</time></trkpt><trkpt lat="43.68490456201475" lon="12.12081476401357"><ele>943.0</ele><time>2026-04-11T09:21:55.999Z</time></trkpt><trkpt lat="43.684853941371166" lon="12.120693770860447"><ele>943.0</ele><time>2026-04-11T09:21:56.999Z</time></trkpt><trkpt lat="43.684783879454855" lon="12.120585598466812"><ele>943.0</ele><time>2026-04-11T09:21:57.999Z</time></trkpt><trkpt lat="43.68469568948297" lon="12.120496613853504"><ele>943.0</ele><time>2026-04-11T09:21:58.999Z</time></trkpt><trkpt lat="43.684609214269116" lon="12.120434434895746"><ele>944.5999999999999</ele><time>2026-04-11T09:21:59.999Z</time></trkpt><trkpt lat="43.68450929049737" lon="12.120411673438525"><ele>946.1999999999999</ele><time>2026-04-11T09:22:00.999Z</time></trkpt><trkpt lat="43.68441614491814" lon="12.120402435893869"><ele>947.8</ele><time>2026-04-11T09:22:01.999Z</time></trkpt><trkpt lat="43.68432429719107" lon="12.120400807780237"><ele>949.4</ele><time>2026-04-11T09:22:02.999Z</time></trkpt><trkpt lat="43.6842321427045" lon="12.120406161813195"><ele>951.0</ele><time>2026-04-11T09:22:03.999Z</time></trkpt><trkpt lat="43.6841423452109" lon="12.120418988199104"><ele>951.3333333333334</ele><time>2026-04-11T09:22:04.999Z</time></trkpt><trkpt lat="43.684055595804004" lon="12.1204313513184"><ele>951.6666666666667</ele><time>2026-04-11T09:22:05.999Z</time></trkpt><trkpt lat="43.68396654795726" lon="12.120438988638663"><ele>952.0</ele><time>2026-04-11T09:22:06.999Z</time></trkpt><trkpt lat="43.68387835294037" lon="12.120441945703863"><ele>952.3333333333334</ele><time>2026-04-11T09:22:07.999Z</time></trkpt><trkpt lat="43.683797068260986" lon="12.12041902120112"><ele>952.6666666666667</ele><time>2026-04-11T09:22:08.999Z</time></trkpt><trkpt lat="43.68371764478511" lon="12.120372999045006"><ele>953.0</ele><time>2026-04-11T09:22:09.999Z</time></trkpt><trkpt lat="43.68366446345268" lon="12.120269287244135"><ele>953.0</ele><time>2026-04-11T09:22:10.999Z</time></trkpt><trkpt lat="43.68364907278712" lon="12.1201439927971"><ele>953.0</ele><time>2026-04-11T09:22:11.999Z</time></trkpt><trkpt lat="43.68367528517637" lon="12.120014998823569"><ele>953.0</ele><time>2026-04-11T09:22:12.999Z</time></trkpt><trkpt lat="43.6837105011533" lon="12.119898403604953"><ele>953.0</ele><time>2026-04-11T09:22:13.999Z</time></trkpt><trkpt lat="43.68374714975426" lon="12.119782892065157"><ele>953.0</ele><time>2026-04-11T09:22:14.999Z</time></trkpt><trkpt lat="43.6837820085974" lon="12.11966463388743"><ele>954.0</ele><time>2026-04-11T09:22:15.999Z</time></trkpt><trkpt lat="43.68379175226359" lon="12.11954224713548"><ele>955.0</ele><time>2026-04-11T09:22:16.999Z</time></trkpt><trkpt lat="43.68377957111741" lon="12.119412379736207"><ele>956.0</ele><time>2026-04-11T09:22:17.999Z</time></trkpt><trkpt lat="43.68376049710532" lon="12.119283557203266"><ele>957.0</ele><time>2026-04-11T09:22:18.999Z</time></trkpt><trkpt lat="43.683728866374324" lon="12.119154737807094"><ele>958.0</ele><time>2026-04-11T09:22:20Z</time></trkpt><trkpt lat="43.68368257404967" lon="12.119030956311915"><ele>958.8</ele><time>2026-04-11T09:22:21Z</time></trkpt><trkpt lat="43.683631778864026" lon="12.11890765671763"><ele>959.5999999999999</ele><time>2026-04-11T09:22:22Z</time></trkpt><trkpt lat="43.68358334025117" lon="12.118779934960822"><ele>960.4000000000001</ele><time>2026-04-11T09:22:23Z</time></trkpt><trkpt lat="43.683529815464226" lon="12.118651604794342"><ele>961.2</ele><time>2026-04-11T09:22:24Z</time></trkpt><trkpt lat="43.683471771562495" lon="12.118523897767645"><ele>962.0</ele><time>2026-04-11T09:22:25Z</time></trkpt><trkpt lat="43.68341295495673" lon="12.118397020808699"><ele>964.75</ele><time>2026-04-11T09:22:26Z</time></trkpt><trkpt lat="43.683347347866" lon="12.118271654610714"><ele>967.5</ele><time>2026-04-11T09:22:27Z</time></trkpt><trkpt lat="43.68327689554365" lon="12.11814944821262"><ele>970.25</ele><time>2026-04-11T09:22:28Z</time></trkpt><trkpt lat="43.683204897155534" lon="12.118033725135017"><ele>973.0</ele><time>2026-04-11T09:22:29Z</time></trkpt><trkpt lat="43.68312521664925" lon="12.117916661729698"><ele>973.25</ele><time>2026-04-11T09:22:30Z</time></trkpt><trkpt lat="43.683046493332476" lon="12.117797264732106"><ele>973.5</ele><time>2026-04-11T09:22:31Z</time></trkpt><trkpt lat="43.68297574379683" lon="12.117665259046646"><ele>973.75</ele><time>2026-04-11T09:22:32Z</time></trkpt><trkpt lat="43.682925644231986" lon="12.11752088571433"><ele>974.0</ele><time>2026-04-11T09:22:33Z</time></trkpt><trkpt lat="43.682886774484665" lon="12.117369600563094"><ele>975.8000000000001</ele><time>2026-04-11T09:22:34Z</time></trkpt><trkpt lat="43.6828465647768" lon="12.117226675755004"><ele>977.6000000000001</ele><time>2026-04-11T09:22:35Z</time></trkpt><trkpt lat="43.68281597081719" lon="12.117097603564496"><ele>979.4</ele><time>2026-04-11T09:22:36Z</time></trkpt><trkpt lat="43.68278685471498" lon="12.116963203284577"><ele>981.2</ele><time>2026-04-11T09:22:37Z</time></trkpt><trkpt lat="43.68275685348022" lon="12.116827875293122"><ele>983.0</ele><time>2026-04-11T09:22:38Z</time></trkpt><trkpt lat="43.682730469980854" lon="12.116703874787312"><ele>983.142857142857</ele><time>2026-04-11T09:22:39Z</time></trkpt><trkpt lat="43.68269878443776" lon="12.116599840279621"><ele>983.2857142857142</ele><time>2026-04-11T09:22:40Z</time></trkpt><trkpt lat="43.68265450805896" lon="12.116514612377323"><ele>983.4285714285714</ele><time>2026-04-11T09:22:41Z</time></trkpt><trkpt lat="43.68261945618123" lon="12.116434357415347"><ele>983.5714285714286</ele><time>2026-04-11T09:22:42Z</time></trkpt><trkpt lat="43.682565829607434" lon="12.116378105582498"><ele>983.7142857142858</ele><time>2026-04-11T09:22:43Z</time></trkpt><trkpt lat="43.68250703261326" lon="12.116344700923351"><ele>983.857142857143</ele><time>2026-04-11T09:22:44Z</time></trkpt><trkpt lat="43.68244384968209" lon="12.116333077713534"><ele>984.0000000000001</ele><time>2026-04-11T09:22:45Z</time></trkpt><trkpt lat="43.682370928103225" lon="12.116338383617842"><ele>983.5714285714287</ele><time>2026-04-11T09:22:46Z</time></trkpt><trkpt lat="43.682301653426826" lon="12.116344223213169"><ele>983.1428571428571</ele><time>2026-04-11T09:22:47Z</time></trkpt><trkpt lat="43.6821985875815" lon="12.116378945657317"><ele>982.7142857142858</ele><time>2026-04-11T09:22:49Z</time></trkpt><trkpt lat="43.682132623529135" lon="12.116373817087403"><ele>982.2857142857143</ele><time>2026-04-11T09:22:51Z</time></trkpt><trkpt lat="43.68206615077097" lon="12.116383989831448"><ele>981.8571428571429</ele><time>2026-04-11T09:22:55Z</time></trkpt><trkpt lat="43.682112341174594" lon="12.116314934066901"><ele>981.4285714285714</ele><time>2026-04-11T09:23:53.999Z</time></trkpt><trkpt lat="43.6821669917493" lon="12.116371543790233"><ele>981.0</ele><time>2026-04-11T09:26:19.999Z</time></trkpt><trkpt lat="43.68222492429887" lon="12.116419470451639"><ele>981.0</ele><time>2026-04-11T09:26:24.999Z</time></trkpt><trkpt lat="43.682289983176354" lon="12.116427858017019"><ele>981.0</ele><time>2026-04-11T09:26:33Z</time></trkpt><trkpt lat="43.68235454433216" lon="12.116449382882644"><ele>981.0</ele><time>2026-04-11T09:26:41Z</time></trkpt><trkpt lat="43.68241815917154" lon="12.116473049348706"><ele>981.0</ele><time>2026-04-11T09:26:52Z</time></trkpt><trkpt lat="43.6824857889605" lon="12.116480901266293"><ele>981.0</ele><time>2026-04-11T09:27:01Z</time></trkpt><trkpt lat="43.68240416899305" lon="12.116484351689543"><ele>981.0</ele><time>2026-04-11T09:27:09.036Z</time></trkpt></trkseg><trkseg><trkpt lat="43.682137875588005" lon="12.116282609919343"><ele>981.0</ele><time>2026-04-11T09:57:02.932Z</time></trkpt><trkpt lat="43.682189513496304" lon="12.11614786088898"><ele>980.9999999999999</ele><time>2026-04-11T09:59:07Z</time></trkpt><trkpt lat="43.68225402254251" lon="12.11620504723832"><ele>980.9999999999999</ele><time>2026-04-11T09:59:10Z</time></trkpt><trkpt lat="43.68219794526138" lon="12.116269430157988"><ele>981.0</ele><time>2026-04-11T09:59:22Z</time></trkpt><trkpt lat="43.682253000211006" lon="12.116376958279616"><ele>981.0</ele><time>2026-04-11T09:59:55Z</time></trkpt><trkpt lat="43.68237631798905" lon="12.116374391356182"><ele>981.0</ele><time>2026-04-11T09:59:57Z</time></trkpt><trkpt lat="43.68244268778351" lon="12.116361749589785"><ele>981.0</ele><time>2026-04-11T09:59:58Z</time></trkpt><trkpt lat="43.68251276488407" lon="12.116391112257501"><ele>981.0</ele><time>2026-04-11T09:59:59Z</time></trkpt><trkpt lat="43.68258608204358" lon="12.116444140788015"><ele>981.0</ele><time>2026-04-11T10:00:00Z</time></trkpt><trkpt lat="43.682651088898986" lon="12.116543883080126"><ele>981.0</ele><time>2026-04-11T10:00:01Z</time></trkpt><trkpt lat="43.682699473174395" lon="12.11667376802654"><ele>981.0</ele><time>2026-04-11T10:00:02Z</time></trkpt><trkpt lat="43.682737860124945" lon="12.116822106349844"><ele>981.5</ele><time>2026-04-11T10:00:03Z</time></trkpt><trkpt lat="43.68277233437704" lon="12.116980683222948"><ele>982.0</ele><time>2026-04-11T10:00:04Z</time></trkpt><trkpt lat="43.68281092956624" lon="12.117155159040244"><ele>982.5</ele><time>2026-04-11T10:00:05Z</time></trkpt><trkpt lat="43.68285511514921" lon="12.117330340041335"><ele>983.0</ele><time>2026-04-11T10:00:06Z</time></trkpt><trkpt lat="43.68290056342688" lon="12.117504194655274"><ele>980.75</ele><time>2026-04-11T10:00:07Z</time></trkpt><trkpt lat="43.68295383016231" lon="12.117674698429703"><ele>978.5</ele><time>2026-04-11T10:00:08Z</time></trkpt><trkpt lat="43.68302621032328" lon="12.11783132774165"><ele>976.25</ele><time>2026-04-11T10:00:09Z</time></trkpt><trkpt lat="43.6831101870225" lon="12.117962135715763"><ele>974.0</ele><time>2026-04-11T10:00:10Z</time></trkpt><trkpt lat="43.683201866777765" lon="12.118082023650889"><ele>974.0</ele><time>2026-04-11T10:00:11Z</time></trkpt><trkpt lat="43.68329875638022" lon="12.118207668864825"><ele>974.0</ele><time>2026-04-11T10:00:12Z</time></trkpt><trkpt lat="43.68337075470433" lon="12.118344019453428"><ele>974.0</ele><time>2026-04-11T10:00:13Z</time></trkpt><trkpt lat="43.68344603548687" lon="12.118500909521915"><ele>974.0</ele><time>2026-04-11T10:00:14Z</time></trkpt><trkpt lat="43.68351616420199" lon="12.118652884696544"><ele>973.75</ele><time>2026-04-11T10:00:15Z</time></trkpt><trkpt lat="43.68358419422167" lon="12.118811398986391"><ele>973.5</ele><time>2026-04-11T10:00:16Z</time></trkpt><trkpt lat="43.68364308171031" lon="12.118972853963067"><ele>973.25</ele><time>2026-04-11T10:00:17Z</time></trkpt><trkpt lat="43.68369969686762" lon="12.119141450263987"><ele>973.0</ele><time>2026-04-11T10:00:18Z</time></trkpt><trkpt lat="43.683749435850885" lon="12.119313986137962"><ele>969.25</ele><time>2026-04-11T10:00:19Z</time></trkpt><trkpt lat="43.68375309507816" lon="12.119491691530088"><ele>965.5</ele><time>2026-04-11T10:00:20Z</time></trkpt><trkpt lat="43.68374177300296" lon="12.11967049020431"><ele>961.75</ele><time>2026-04-11T10:00:21Z</time></trkpt><trkpt lat="43.68369463275503" lon="12.119842347874464"><ele>958.0</ele><time>2026-04-11T10:00:22Z</time></trkpt><trkpt lat="43.683643888441004" lon="12.119982319924123"><ele>956.75</ele><time>2026-04-11T10:00:23Z</time></trkpt><trkpt lat="43.68361347407279" lon="12.120118240974067"><ele>955.5</ele><time>2026-04-11T10:00:24Z</time></trkpt><trkpt lat="43.68362756690856" lon="12.120273692395129"><ele>954.25</ele><time>2026-04-11T10:00:25Z</time></trkpt><trkpt lat="43.68368291873414" lon="12.120412292636495"><ele>953.0</ele><time>2026-04-11T10:00:26Z</time></trkpt><trkpt lat="43.683802767044206" lon="12.120466463465492"><ele>953.0</ele><time>2026-04-11T10:00:27Z</time></trkpt><trkpt lat="43.68391806672711" lon="12.120497394801012"><ele>953.0</ele><time>2026-04-11T10:00:28Z</time></trkpt><trkpt lat="43.68404971637383" lon="12.120479399667252"><ele>953.0</ele><time>2026-04-11T10:00:29Z</time></trkpt><trkpt lat="43.68418310930143" lon="12.120464307319887"><ele>953.0</ele><time>2026-04-11T10:00:30Z</time></trkpt><trkpt lat="43.684314317169054" lon="12.120445688198584"><ele>952.5</ele><time>2026-04-11T10:00:31Z</time></trkpt><trkpt lat="43.684456910838605" lon="12.120435406147873"><ele>952.0</ele><time>2026-04-11T10:00:32Z</time></trkpt><trkpt lat="43.684599470492216" lon="12.120481588892714"><ele>951.5</ele><time>2026-04-11T10:00:33Z</time></trkpt><trkpt lat="43.6847178038004" lon="12.12056897210882"><ele>951.0</ele><time>2026-04-11T10:00:34Z</time></trkpt><trkpt lat="43.684823315803854" lon="12.12070776616625"><ele>949.0</ele><time>2026-04-11T10:00:35Z</time></trkpt><trkpt lat="43.684892421389804" lon="12.120872635883545"><ele>947.0</ele><time>2026-04-11T10:00:35.999Z</time></trkpt><trkpt lat="43.68492347249603" lon="12.121027413092976"><ele>945.0</ele><time>2026-04-11T10:00:36.999Z</time></trkpt><trkpt lat="43.68491795276643" lon="12.1211953450175"><ele>943.0</ele><time>2026-04-11T10:00:37.999Z</time></trkpt><trkpt lat="43.68487157677995" lon="12.121365050316458"><ele>943.0</ele><time>2026-04-11T10:00:38.999Z</time></trkpt><trkpt lat="43.68483709656974" lon="12.121557511990495"><ele>943.0</ele><time>2026-04-11T10:00:39.999Z</time></trkpt><trkpt lat="43.6847956077526" lon="12.12173300099928"><ele>943.0</ele><time>2026-04-11T10:00:40.999Z</time></trkpt><trkpt lat="43.68476119885085" lon="12.121915088078788"><ele>943.0</ele><time>2026-04-11T10:00:41.999Z</time></trkpt><trkpt lat="43.684753387725884" lon="12.122097281933318"><ele>940.75</ele><time>2026-04-11T10:00:42.999Z</time></trkpt><trkpt lat="43.6847642056877" lon="12.122277434909597"><ele>938.5</ele><time>2026-04-11T10:00:43.999Z</time></trkpt><trkpt lat="43.684785978015874" lon="12.12245867622461"><ele>936.25</ele><time>2026-04-11T10:00:44.999Z</time></trkpt><trkpt lat="43.68480752028666" lon="12.122643252245256"><ele>934.0</ele><time>2026-04-11T10:00:45.999Z</time></trkpt><trkpt lat="43.684821874790494" lon="12.122833010081417"><ele>933.5</ele><time>2026-04-11T10:00:46.999Z</time></trkpt><trkpt lat="43.684845960339" lon="12.123012795446984"><ele>933.0</ele><time>2026-04-11T10:00:47.999Z</time></trkpt><trkpt lat="43.68486878668068" lon="12.12318904249388"><ele>932.5</ele><time>2026-04-11T10:00:48.999Z</time></trkpt><trkpt lat="43.68490617223189" lon="12.123367736505285"><ele>932.0</ele><time>2026-04-11T10:00:49.999Z</time></trkpt><trkpt lat="43.684926443332664" lon="12.123549343906548"><ele>931.75</ele><time>2026-04-11T10:00:50.999Z</time></trkpt><trkpt lat="43.68499081248318" lon="12.123708324620566"><ele>931.5</ele><time>2026-04-11T10:00:51.999Z</time></trkpt><trkpt lat="43.68510440244865" lon="12.12382383648557"><ele>931.25</ele><time>2026-04-11T10:00:52.999Z</time></trkpt><trkpt lat="43.6852124537727" lon="12.123930997109387"><ele>931.0</ele><time>2026-04-11T10:00:53.999Z</time></trkpt><trkpt lat="43.685326152581126" lon="12.124026250237208"><ele>927.5</ele><time>2026-04-11T10:00:54.999Z</time></trkpt><trkpt lat="43.685426094412165" lon="12.12413661757124"><ele>924.0</ele><time>2026-04-11T10:00:55.999Z</time></trkpt><trkpt lat="43.685494113905094" lon="12.124269636649013"><ele>920.5</ele><time>2026-04-11T10:00:56.999Z</time></trkpt><trkpt lat="43.68552426852068" lon="12.124446527443448"><ele>917.0</ele><time>2026-04-11T10:00:57.999Z</time></trkpt><trkpt lat="43.6855733017963" lon="12.124638859098887"><ele>917.0</ele><time>2026-04-11T10:00:58.999Z</time></trkpt><trkpt lat="43.68562854505048" lon="12.124820429825618"><ele>917.0</ele><time>2026-04-11T10:00:59.999Z</time></trkpt><trkpt lat="43.68570903229546" lon="12.124998255586997"><ele>917.0</ele><time>2026-04-11T10:01:00.999Z</time></trkpt><trkpt lat="43.685800689466326" lon="12.125166143450178"><ele>917.0</ele><time>2026-04-11T10:01:01.999Z</time></trkpt><trkpt lat="43.68589589017174" lon="12.12533616966667"><ele>913.3333333333334</ele><time>2026-04-11T10:01:02.999Z</time></trkpt><trkpt lat="43.685996191698486" lon="12.125494865100904"><ele>909.6666666666667</ele><time>2026-04-11T10:01:03.999Z</time></trkpt><trkpt lat="43.68610309904942" lon="12.125647894937725"><ele>906.0</ele><time>2026-04-11T10:01:04.999Z</time></trkpt><trkpt lat="43.68620885000531" lon="12.125794398977936"><ele>906.0</ele><time>2026-04-11T10:01:05.999Z</time></trkpt><trkpt lat="43.686298486100604" lon="12.125957188039658"><ele>906.0</ele><time>2026-04-11T10:01:06.999Z</time></trkpt><trkpt lat="43.68640135202511" lon="12.126105741604453"><ele>906.0</ele><time>2026-04-11T10:01:07.999Z</time></trkpt><trkpt lat="43.68650642147302" lon="12.126232535446023"><ele>906.0</ele><time>2026-04-11T10:01:08.999Z</time></trkpt><trkpt lat="43.6865987898123" lon="12.12635941105406"><ele>906.0</ele><time>2026-04-11T10:01:09.999Z</time></trkpt><trkpt lat="43.686700804649675" lon="12.126470393747725"><ele>906.0</ele><time>2026-04-11T10:01:10.999Z</time></trkpt><trkpt lat="43.68681410445297" lon="12.1265662934994"><ele>906.0</ele><time>2026-04-11T10:01:11.999Z</time></trkpt><trkpt lat="43.68693257853432" lon="12.126639418354236"><ele>906.0</ele><time>2026-04-11T10:01:13Z</time></trkpt><trkpt lat="43.68705387931654" lon="12.126707031378041"><ele>906.0</ele><time>2026-04-11T10:01:14Z</time></trkpt><trkpt lat="43.6871779845307" lon="12.12678748413836"><ele>906.0</ele><time>2026-04-11T10:01:15Z</time></trkpt><trkpt lat="43.68730334155568" lon="12.12688481358838"><ele>906.0</ele><time>2026-04-11T10:01:16Z</time></trkpt><trkpt lat="43.68741933142582" lon="12.127003838179233"><ele>906.0</ele><time>2026-04-11T10:01:17Z</time></trkpt><trkpt lat="43.687527801968734" lon="12.127134118173732"><ele>906.0</ele><time>2026-04-11T10:01:18Z</time></trkpt><trkpt lat="43.6876278581323" lon="12.127266920567816"><ele>906.0</ele><time>2026-04-11T10:01:19Z</time></trkpt><trkpt lat="43.687703887433415" lon="12.127412889683471"><ele>906.0</ele><time>2026-04-11T10:01:20Z</time></trkpt><trkpt lat="43.68778604744438" lon="12.127539846139"><ele>906.0</ele><time>2026-04-11T10:01:21Z</time></trkpt><trkpt lat="43.68787656695785" lon="12.12765501084017"><ele>904.75</ele><time>2026-04-11T10:01:22Z</time></trkpt><trkpt lat="43.68799790294251" lon="12.127716655911492"><ele>903.5</ele><time>2026-04-11T10:01:23Z</time></trkpt><trkpt lat="43.688121010952315" lon="12.127738855131964"><ele>902.25</ele><time>2026-04-11T10:01:24Z</time></trkpt><trkpt lat="43.68824199119112" lon="12.12776227083723"><ele>901.0</ele><time>2026-04-11T10:01:25Z</time></trkpt><trkpt lat="43.68836558921103" lon="12.127784150703155"><ele>901.0</ele><time>2026-04-11T10:01:25.999Z</time></trkpt><trkpt lat="43.6884832757636" lon="12.12780817176076"><ele>900.9999999999999</ele><time>2026-04-11T10:01:26.999Z</time></trkpt><trkpt lat="43.688592028854224" lon="12.127830837238266"><ele>900.9999999999999</ele><time>2026-04-11T10:01:27.999Z</time></trkpt><trkpt lat="43.6886857581679" lon="12.127884452722595"><ele>901.0</ele><time>2026-04-11T10:01:28.999Z</time></trkpt><trkpt lat="43.68875064435176" lon="12.12801547755342"><ele>901.0</ele><time>2026-04-11T10:01:29.999Z</time></trkpt><trkpt lat="43.688833659774055" lon="12.128137897436375"><ele>899.5</ele><time>2026-04-11T10:01:30.999Z</time></trkpt><trkpt lat="43.6889071234848" lon="12.128274039080528"><ele>898.0</ele><time>2026-04-11T10:01:31.999Z</time></trkpt><trkpt lat="43.68898730947482" lon="12.128400642949137"><ele>896.5</ele><time>2026-04-11T10:01:32.999Z</time></trkpt><trkpt lat="43.68907601252859" lon="12.128519770614083"><ele>895.0</ele><time>2026-04-11T10:01:33.999Z</time></trkpt><trkpt lat="43.68918669296613" lon="12.128617767193406"><ele>895.0</ele><time>2026-04-11T10:01:34.999Z</time></trkpt><trkpt lat="43.689300995391754" lon="12.128701359180543"><ele>895.0</ele><time>2026-04-11T10:01:35.999Z</time></trkpt><trkpt lat="43.68942829973605" lon="12.128774811979074"><ele>895.0</ele><time>2026-04-11T10:01:36.999Z</time></trkpt><trkpt lat="43.68955364162995" lon="12.128847093272935"><ele>895.0</ele><time>2026-04-11T10:01:37.999Z</time></trkpt><trkpt lat="43.68968103157454" lon="12.12889695970991"><ele>890.25</ele><time>2026-04-11T10:01:38.999Z</time></trkpt><trkpt lat="43.68981054614586" lon="12.128939198979076"><ele>885.5</ele><time>2026-04-11T10:01:39.999Z</time></trkpt><trkpt lat="43.6899437991635" lon="12.128968011583712"><ele>880.75</ele><time>2026-04-11T10:01:40.999Z</time></trkpt><trkpt lat="43.69007450748288" lon="12.128992000839618"><ele>876.0</ele><time>2026-04-11T10:01:41.999Z</time></trkpt><trkpt lat="43.69020756736614" lon="12.129040881098973"><ele>877.0</ele><time>2026-04-11T10:01:42.999Z</time></trkpt><trkpt lat="43.690341659558705" lon="12.129072332337268"><ele>878.0</ele><time>2026-04-11T10:01:43.999Z</time></trkpt><trkpt lat="43.69047400847223" lon="12.129108642586251"><ele>879.0</ele><time>2026-04-11T10:01:44.999Z</time></trkpt><trkpt lat="43.690594591905146" lon="12.129163581703096"><ele>880.0</ele><time>2026-04-11T10:01:45.999Z</time></trkpt><trkpt lat="43.69071308473186" lon="12.129233471942323"><ele>880.0</ele><time>2026-04-11T10:01:46.999Z</time></trkpt><trkpt lat="43.690819789545515" lon="12.129301431213078"><ele>880.0</ele><time>2026-04-11T10:01:47.999Z</time></trkpt><trkpt lat="43.69088259746976" lon="12.129427800987294"><ele>880.0</ele><time>2026-04-11T10:01:48.999Z</time></trkpt><trkpt lat="43.6909135846941" lon="12.129560769232775"><ele>880.0</ele><time>2026-04-11T10:01:49.999Z</time></trkpt><trkpt lat="43.690912069403765" lon="12.129704049080535"><ele>880.0</ele><time>2026-04-11T10:01:50.999Z</time></trkpt><trkpt lat="43.690894799029266" lon="12.129861014969517"><ele>881.4</ele><time>2026-04-11T10:01:51.999Z</time></trkpt><trkpt lat="43.69087885142364" lon="12.130006676502276"><ele>882.8</ele><time>2026-04-11T10:01:52.999Z</time></trkpt><trkpt lat="43.690861201815004" lon="12.130182262618943"><ele>884.2</ele><time>2026-04-11T10:01:53.999Z</time></trkpt><trkpt lat="43.6908610607499" lon="12.130329811671446"><ele>885.6</ele><time>2026-04-11T10:01:54.999Z</time></trkpt><trkpt lat="43.690874088179115" lon="12.13047715265269"><ele>887.0</ele><time>2026-04-11T10:01:55.999Z</time></trkpt><trkpt lat="43.69093574168546" lon="12.1306463585629"><ele>887.75</ele><time>2026-04-11T10:01:56.999Z</time></trkpt><trkpt lat="43.691035689410725" lon="12.130761337009561"><ele>888.5</ele><time>2026-04-11T10:01:57.999Z</time></trkpt><trkpt lat="43.69112715418306" lon="12.130887893198532"><ele>889.25</ele><time>2026-04-11T10:01:58.999Z</time></trkpt><trkpt lat="43.69120553843143" lon="12.131019873686014"><ele>890.0</ele><time>2026-04-11T10:01:59.999Z</time></trkpt><trkpt lat="43.69127510774813" lon="12.131173315755392"><ele>884.25</ele><time>2026-04-11T10:02:00.999Z</time></trkpt><trkpt lat="43.691308305246395" lon="12.131358398468763"><ele>878.5</ele><time>2026-04-11T10:02:01.999Z</time></trkpt><trkpt lat="43.69135123397187" lon="12.131555425115687"><ele>872.75</ele><time>2026-04-11T10:02:02.999Z</time></trkpt><trkpt lat="43.691393459945104" lon="12.131753739230396"><ele>867.0</ele><time>2026-04-11T10:02:03.999Z</time></trkpt><trkpt lat="43.6914357879499" lon="12.131944754336326"><ele>867.0</ele><time>2026-04-11T10:02:04.999Z</time></trkpt><trkpt lat="43.69147863564512" lon="12.13213582986181"><ele>867.0</ele><time>2026-04-11T10:02:05.999Z</time></trkpt><trkpt lat="43.691525014547636" lon="12.132325811263645"><ele>867.0</ele><time>2026-04-11T10:02:06.999Z</time></trkpt><trkpt lat="43.691568585237114" lon="12.132511639527742"><ele>867.0</ele><time>2026-04-11T10:02:07.999Z</time></trkpt><trkpt lat="43.691609951975586" lon="12.132694894735804"><ele>866.75</ele><time>2026-04-11T10:02:08.999Z</time></trkpt><trkpt lat="43.69165184493643" lon="12.13287605045401"><ele>866.5</ele><time>2026-04-11T10:02:09.999Z</time></trkpt><trkpt lat="43.69169271712" lon="12.133045793442534"><ele>866.25</ele><time>2026-04-11T10:02:10.999Z</time></trkpt><trkpt lat="43.69174022769671" lon="12.133215095716338"><ele>866.0</ele><time>2026-04-11T10:02:11.999Z</time></trkpt><trkpt lat="43.69179144275507" lon="12.133385097432948"><ele>867.0</ele><time>2026-04-11T10:02:12.999Z</time></trkpt><trkpt lat="43.69185302423252" lon="12.133546780323494"><ele>868.0</ele><time>2026-04-11T10:02:13.999Z</time></trkpt><trkpt lat="43.6919138558272" lon="12.133689601291504"><ele>869.0</ele><time>2026-04-11T10:02:14.999Z</time></trkpt><trkpt lat="43.69197480725978" lon="12.133826345637535"><ele>870.0</ele><time>2026-04-11T10:02:15.999Z</time></trkpt><trkpt lat="43.69203100047905" lon="12.133953905977314"><ele>869.2</ele><time>2026-04-11T10:02:16.999Z</time></trkpt><trkpt lat="43.692085043423376" lon="12.134078958747999"><ele>868.4</ele><time>2026-04-11T10:02:17.999Z</time></trkpt><trkpt lat="43.69213852301457" lon="12.13421084112625"><ele>867.5999999999999</ele><time>2026-04-11T10:02:18.999Z</time></trkpt><trkpt lat="43.69218188488346" lon="12.13434631621952"><ele>866.8</ele><time>2026-04-11T10:02:19.999Z</time></trkpt><trkpt lat="43.69222348462507" lon="12.134493542992834"><ele>866.0</ele><time>2026-04-11T10:02:20.999Z</time></trkpt><trkpt lat="43.692282014738225" lon="12.134628577196896"><ele>866.0</ele><time>2026-04-11T10:02:21.999Z</time></trkpt><trkpt lat="43.69237766318795" lon="12.134737975598425"><ele>866.0</ele><time>2026-04-11T10:02:22.999Z</time></trkpt><trkpt lat="43.69249385031108" lon="12.13478889722608"><ele>866.0</ele><time>2026-04-11T10:02:23.999Z</time></trkpt><trkpt lat="43.692600538880505" lon="12.134863484167848"><ele>866.0</ele><time>2026-04-11T10:02:24.999Z</time></trkpt><trkpt lat="43.69270869222384" lon="12.134931227229227"><ele>864.0</ele><time>2026-04-11T10:02:25.999Z</time></trkpt><trkpt lat="43.692822257078106" lon="12.13500801004475"><ele>862.0</ele><time>2026-04-11T10:02:26.999Z</time></trkpt><trkpt lat="43.69294038844283" lon="12.135087741100959"><ele>860.0</ele><time>2026-04-11T10:02:27.999Z</time></trkpt><trkpt lat="43.69305601346561" lon="12.13515896722418"><ele>858.0</ele><time>2026-04-11T10:02:28.999Z</time></trkpt><trkpt lat="43.69317218484244" lon="12.135224768356865"><ele>858.0</ele><time>2026-04-11T10:02:29.999Z</time></trkpt><trkpt lat="43.69329152693431" lon="12.13528210296536"><ele>858.0</ele><time>2026-04-11T10:02:30.999Z</time></trkpt><trkpt lat="43.69341244596929" lon="12.135323467867174"><ele>858.0</ele><time>2026-04-11T10:02:31.999Z</time></trkpt><trkpt lat="43.69353393574197" lon="12.135373339589767"><ele>858.0</ele><time>2026-04-11T10:02:32.999Z</time></trkpt><trkpt lat="43.69362431295793" lon="12.13549199586078"><ele>857.75</ele><time>2026-04-11T10:02:33.999Z</time></trkpt><trkpt lat="43.69370086769856" lon="12.135651832070891"><ele>857.5</ele><time>2026-04-11T10:02:34.999Z</time></trkpt><trkpt lat="43.69377511461326" lon="12.135786937662145"><ele>857.25</ele><time>2026-04-11T10:02:35.999Z</time></trkpt><trkpt lat="43.69386683952049" lon="12.135894791325427"><ele>857.0</ele><time>2026-04-11T10:02:36.999Z</time></trkpt><trkpt lat="43.69400032849793" lon="12.135930182589188"><ele>857.0</ele><time>2026-04-11T10:02:37.999Z</time></trkpt><trkpt lat="43.69414559137478" lon="12.135925334014292"><ele>857.0</ele><time>2026-04-11T10:02:38.999Z</time></trkpt><trkpt lat="43.69428558013866" lon="12.135908155631068"><ele>857.0</ele><time>2026-04-11T10:02:39.999Z</time></trkpt><trkpt lat="43.694416734844815" lon="12.135937188454797"><ele>857.0</ele><time>2026-04-11T10:02:40.999Z</time></trkpt><trkpt lat="43.69453438504528" lon="12.136035172744728"><ele>854.0</ele><time>2026-04-11T10:02:41.999Z</time></trkpt><trkpt lat="43.69465837175033" lon="12.136150040913522"><ele>851.0</ele><time>2026-04-11T10:02:42.998Z</time></trkpt><trkpt lat="43.6947880526853" lon="12.136246144613617"><ele>848.0</ele><time>2026-04-11T10:02:43.998Z</time></trkpt><trkpt lat="43.69491595758056" lon="12.136350562973584"><ele>845.0</ele><time>2026-04-11T10:02:44.998Z</time></trkpt><trkpt lat="43.69505125471998" lon="12.136429842555435"><ele>845.0</ele><time>2026-04-11T10:02:45.998Z</time></trkpt><trkpt lat="43.695211678528665" lon="12.136466846619241"><ele>845.0</ele><time>2026-04-11T10:02:46.998Z</time></trkpt><trkpt lat="43.69536880278153" lon="12.13647726866968"><ele>845.0</ele><time>2026-04-11T10:02:47.998Z</time></trkpt><trkpt lat="43.695521875913634" lon="12.1365000443511"><ele>844.0</ele><time>2026-04-11T10:02:48.998Z</time></trkpt><trkpt lat="43.69567467673853" lon="12.13652184407653"><ele>843.0</ele><time>2026-04-11T10:02:49.998Z</time></trkpt><trkpt lat="43.6958250609573" lon="12.136544649178656"><ele>842.0</ele><time>2026-04-11T10:02:50.998Z</time></trkpt><trkpt lat="43.69597352452651" lon="12.136574753725602"><ele>841.5</ele><time>2026-04-11T10:02:51.998Z</time></trkpt><trkpt lat="43.69611455779101" lon="12.136602840129779"><ele>841.0</ele><time>2026-04-11T10:02:52.998Z</time></trkpt><trkpt lat="43.69625348715156" lon="12.136629106608256"><ele>840.5</ele><time>2026-04-11T10:02:53.998Z</time></trkpt><trkpt lat="43.69638853868339" lon="12.136665502771491"><ele>840.0</ele><time>2026-04-11T10:02:54.998Z</time></trkpt><trkpt lat="43.69651760556663" lon="12.13671912764791"><ele>840.0</ele><time>2026-04-11T10:02:55.998Z</time></trkpt><trkpt lat="43.69663768319295" lon="12.136796121717481"><ele>840.0</ele><time>2026-04-11T10:02:56.998Z</time></trkpt><trkpt lat="43.696750253788764" lon="12.136881481369839"><ele>840.0</ele><time>2026-04-11T10:02:57.998Z</time></trkpt><trkpt lat="43.696864206020315" lon="12.136946377530963"><ele>840.0</ele><time>2026-04-11T10:02:58.998Z</time></trkpt><trkpt lat="43.69698702837453" lon="12.136987291758015"><ele>838.25</ele><time>2026-04-11T10:02:59.998Z</time></trkpt><trkpt lat="43.69712360694901" lon="12.137008726407544"><ele>836.5</ele><time>2026-04-11T10:03:00.998Z</time></trkpt><trkpt lat="43.69725842507944" lon="12.13700022279189"><ele>834.75</ele><time>2026-04-11T10:03:01.998Z</time></trkpt><trkpt lat="43.69739413640135" lon="12.136980549443875"><ele>833.0</ele><time>2026-04-11T10:03:02.998Z</time></trkpt><trkpt lat="43.697538939479465" lon="12.13695057226426"><ele>833.0</ele><time>2026-04-11T10:03:03.998Z</time></trkpt><trkpt lat="43.69768303819134" lon="12.136920798238378"><ele>833.0</ele><time>2026-04-11T10:03:04.998Z</time></trkpt><trkpt lat="43.69782644510714" lon="12.136899127780323"><ele>833.0</ele><time>2026-04-11T10:03:05.998Z</time></trkpt><trkpt lat="43.697966372455895" lon="12.13689614569046"><ele>833.0</ele><time>2026-04-11T10:03:06.998Z</time></trkpt><trkpt lat="43.69810272136377" lon="12.136916703169737"><ele>831.5</ele><time>2026-04-11T10:03:07.998Z</time></trkpt><trkpt lat="43.69823140193035" lon="12.136974648501"><ele>830.0</ele><time>2026-04-11T10:03:08.998Z</time></trkpt><trkpt lat="43.698345585716" lon="12.1370538919412"><ele>828.5</ele><time>2026-04-11T10:03:09.998Z</time></trkpt><trkpt lat="43.69844883116711" lon="12.137146154072319"><ele>827.0</ele><time>2026-04-11T10:03:10.998Z</time></trkpt><trkpt lat="43.69854042102366" lon="12.137257972101343"><ele>829.75</ele><time>2026-04-11T10:03:11.998Z</time></trkpt><trkpt lat="43.69861576808745" lon="12.137391125274235"><ele>832.5</ele><time>2026-04-11T10:03:12.998Z</time></trkpt><trkpt lat="43.698667438474516" lon="12.137555185491161"><ele>835.25</ele><time>2026-04-11T10:03:13.998Z</time></trkpt><trkpt lat="43.69872756101881" lon="12.13771926339429"><ele>838.0</ele><time>2026-04-11T10:03:14.998Z</time></trkpt><trkpt lat="43.69877077340269" lon="12.137897143453538"><ele>838.0</ele><time>2026-04-11T10:03:15.998Z</time></trkpt><trkpt lat="43.69881279891826" lon="12.138074470533219"><ele>838.0</ele><time>2026-04-11T10:03:16.998Z</time></trkpt><trkpt lat="43.69883254201443" lon="12.138249711979759"><ele>838.0</ele><time>2026-04-11T10:03:17.999Z</time></trkpt><trkpt lat="43.69884844548204" lon="12.13842669467881"><ele>838.0</ele><time>2026-04-11T10:03:18.999Z</time></trkpt><trkpt lat="43.69891560450111" lon="12.138584594312269"><ele>837.75</ele><time>2026-04-11T10:03:19.999Z</time></trkpt><trkpt lat="43.69903322231593" lon="12.138684961342415"><ele>837.5</ele><time>2026-04-11T10:03:20.999Z</time></trkpt><trkpt lat="43.69914340948868" lon="12.138762107784073"><ele>837.25</ele><time>2026-04-11T10:03:22Z</time></trkpt><trkpt lat="43.69926875448207" lon="12.138767194064506"><ele>837.0</ele><time>2026-04-11T10:03:22.999Z</time></trkpt><trkpt lat="43.69939868455659" lon="12.138749395646546"><ele>836.75</ele><time>2026-04-11T10:03:24Z</time></trkpt><trkpt lat="43.69951991203964" lon="12.138732017111428"><ele>836.5</ele><time>2026-04-11T10:03:25Z</time></trkpt><trkpt lat="43.69964593920871" lon="12.13872223644822"><ele>836.25</ele><time>2026-04-11T10:03:25.999Z</time></trkpt><trkpt lat="43.69977473928358" lon="12.138724115709486"><ele>836.0</ele><time>2026-04-11T10:03:27Z</time></trkpt><trkpt lat="43.699906610927144" lon="12.138726236180647"><ele>836.0</ele><time>2026-04-11T10:03:28Z</time></trkpt><trkpt lat="43.70003899004475" lon="12.138737462955133"><ele>836.0</ele><time>2026-04-11T10:03:29Z</time></trkpt><trkpt lat="43.70017917699962" lon="12.138751630280398"><ele>836.0</ele><time>2026-04-11T10:03:30Z</time></trkpt><trkpt lat="43.70032908794745" lon="12.138772304676403"><ele>836.0</ele><time>2026-04-11T10:03:31Z</time></trkpt><trkpt lat="43.70048337172485" lon="12.138779019246764"><ele>834.6666666666667</ele><time>2026-04-11T10:03:32Z</time></trkpt><trkpt lat="43.70064609078238" lon="12.138759368564854"><ele>833.3333333333333</ele><time>2026-04-11T10:03:33Z</time></trkpt><trkpt lat="43.70081224146012" lon="12.138743464743278"><ele>832.0</ele><time>2026-04-11T10:03:34Z</time></trkpt><trkpt lat="43.70097131756958" lon="12.13872211889388"><ele>833.6666666666666</ele><time>2026-04-11T10:03:34.999Z</time></trkpt><trkpt lat="43.70112676845284" lon="12.138699981154527"><ele>835.3333333333333</ele><time>2026-04-11T10:03:35.999Z</time></trkpt><trkpt lat="43.70128010525624" lon="12.138677108944286"><ele>837.0</ele><time>2026-04-11T10:03:36.999Z</time></trkpt><trkpt lat="43.701430757534006" lon="12.13866204176763"><ele>837.0</ele><time>2026-04-11T10:03:37.999Z</time></trkpt><trkpt lat="43.701577427150525" lon="12.138652649833402"><ele>837.0</ele><time>2026-04-11T10:03:38.999Z</time></trkpt><trkpt lat="43.70172152568591" lon="12.138641404525197"><ele>837.0</ele><time>2026-04-11T10:03:39.999Z</time></trkpt><trkpt lat="43.701862498863086" lon="12.138630218543591"><ele>837.0</ele><time>2026-04-11T10:03:40.999Z</time></trkpt><trkpt lat="43.702003127128144" lon="12.13862391319498"><ele>838.0</ele><time>2026-04-11T10:03:41.999Z</time></trkpt><trkpt lat="43.70214250331926" lon="12.138623147461825"><ele>839.0</ele><time>2026-04-11T10:03:42.999Z</time></trkpt><trkpt lat="43.70228290378803" lon="12.13862465982648"><ele>840.0</ele><time>2026-04-11T10:03:43.999Z</time></trkpt><trkpt lat="43.70242206419791" lon="12.13863095824906"><ele>841.0</ele><time>2026-04-11T10:03:44.999Z</time></trkpt><trkpt lat="43.70255389376466" lon="12.138640770566878"><ele>841.0</ele><time>2026-04-11T10:03:45.999Z</time></trkpt><trkpt lat="43.70267793984176" lon="12.138655758168976"><ele>841.0</ele><time>2026-04-11T10:03:46.999Z</time></trkpt><trkpt lat="43.702794710558635" lon="12.138666456568382"><ele>841.0</ele><time>2026-04-11T10:03:47.999Z</time></trkpt><trkpt lat="43.70291081646465" lon="12.138670104097136"><ele>841.0</ele><time>2026-04-11T10:03:48.999Z</time></trkpt><trkpt lat="43.70302891400525" lon="12.138655730212937"><ele>839.5</ele><time>2026-04-11T10:03:49.999Z</time></trkpt><trkpt lat="43.70314512396292" lon="12.13863487709539"><ele>838.0</ele><time>2026-04-11T10:03:50.999Z</time></trkpt><trkpt lat="43.70326397311581" lon="12.13861058341064"><ele>836.5</ele><time>2026-04-11T10:03:51.999Z</time></trkpt><trkpt lat="43.70338634684187" lon="12.138593291624339"><ele>835.0</ele><time>2026-04-11T10:03:52.999Z</time></trkpt><trkpt lat="43.70351378478684" lon="12.138586354982122"><ele>834.0</ele><time>2026-04-11T10:03:53.999Z</time></trkpt><trkpt lat="43.703644275362066" lon="12.138587324864911"><ele>833.0</ele><time>2026-04-11T10:03:54.999Z</time></trkpt><trkpt lat="43.703777832869385" lon="12.138595165718733"><ele>832.0</ele><time>2026-04-11T10:03:55.999Z</time></trkpt><trkpt lat="43.70391238129874" lon="12.138605234046741"><ele>831.0</ele><time>2026-04-11T10:03:56.999Z</time></trkpt><trkpt lat="43.704046025980574" lon="12.138610585499364"><ele>831.0</ele><time>2026-04-11T10:03:57.999Z</time></trkpt><trkpt lat="43.704178173011314" lon="12.138618811352671"><ele>831.0</ele><time>2026-04-11T10:03:58.999Z</time></trkpt><trkpt lat="43.70430854760504" lon="12.138622349074911"><ele>831.0</ele><time>2026-04-11T10:03:59.999Z</time></trkpt><trkpt lat="43.70443394854472" lon="12.13863526445966"><ele>831.0</ele><time>2026-04-11T10:04:00.999Z</time></trkpt><trkpt lat="43.7045582340178" lon="12.138669499336197"><ele>833.5</ele><time>2026-04-11T10:04:01.999Z</time></trkpt><trkpt lat="43.704680169672315" lon="12.138730782862138"><ele>836.0</ele><time>2026-04-11T10:04:02.999Z</time></trkpt><trkpt lat="43.70478335501667" lon="12.13883583698982"><ele>838.5</ele><time>2026-04-11T10:04:03.999Z</time></trkpt><trkpt lat="43.704886238561556" lon="12.138954164470555"><ele>841.0</ele><time>2026-04-11T10:04:04.999Z</time></trkpt><trkpt lat="43.704989396298295" lon="12.139073510863199"><ele>841.0</ele><time>2026-04-11T10:04:05.999Z</time></trkpt><trkpt lat="43.70508853329435" lon="12.139188460811967"><ele>841.0</ele><time>2026-04-11T10:04:06.999Z</time></trkpt><trkpt lat="43.705177250301695" lon="12.139294685914972"><ele>841.0</ele><time>2026-04-11T10:04:07.999Z</time></trkpt><trkpt lat="43.70524943892496" lon="12.139399489558118"><ele>841.0</ele><time>2026-04-11T10:04:08.999Z</time></trkpt><trkpt lat="43.70525953025623" lon="12.139529992364077"><ele>841.0</ele><time>2026-04-11T10:04:09.999Z</time></trkpt><trkpt lat="43.70522456907361" lon="12.139657583689868"><ele>841.0</ele><time>2026-04-11T10:04:10.999Z</time></trkpt><trkpt lat="43.70515767732408" lon="12.139771190066346"><ele>841.0</ele><time>2026-04-11T10:04:11.999Z</time></trkpt><trkpt lat="43.705060369341965" lon="12.139864320050243"><ele>841.0</ele><time>2026-04-11T10:04:12.999Z</time></trkpt><trkpt lat="43.7049578592909" lon="12.139948443264142"><ele>841.0</ele><time>2026-04-11T10:04:13.999Z</time></trkpt><trkpt lat="43.70484583119048" lon="12.14001218874092"><ele>842.5</ele><time>2026-04-11T10:04:14.999Z</time></trkpt><trkpt lat="43.704719480624085" lon="12.140043677163707"><ele>844.0</ele><time>2026-04-11T10:04:15.999Z</time></trkpt><trkpt lat="43.704590712480346" lon="12.140043284157183"><ele>845.5</ele><time>2026-04-11T10:04:16.999Z</time></trkpt><trkpt lat="43.70446411899875" lon="12.140060608891657"><ele>847.0</ele><time>2026-04-11T10:04:17.999Z</time></trkpt><trkpt lat="43.70433648622723" lon="12.140113642019267"><ele>842.25</ele><time>2026-04-11T10:04:18.999Z</time></trkpt><trkpt lat="43.704214585440006" lon="12.140197417553718"><ele>837.5</ele><time>2026-04-11T10:04:19.999Z</time></trkpt><trkpt lat="43.70410608654384" lon="12.140297727662839"><ele>832.75</ele><time>2026-04-11T10:04:20.999Z</time></trkpt><trkpt lat="43.70402349718776" lon="12.140415994961895"><ele>828.0</ele><time>2026-04-11T10:04:21.999Z</time></trkpt><trkpt lat="43.703977626094776" lon="12.140558916194976"><ele>828.0</ele><time>2026-04-11T10:04:22.999Z</time></trkpt><trkpt lat="43.703969969258736" lon="12.140713896307723"><ele>828.0</ele><time>2026-04-11T10:04:23.999Z</time></trkpt><trkpt lat="43.703985099544276" lon="12.140886279837552"><ele>828.0</ele><time>2026-04-11T10:04:24.999Z</time></trkpt><trkpt lat="43.704064050514596" lon="12.141043572091187"><ele>828.0</ele><time>2026-04-11T10:04:25.999Z</time></trkpt><trkpt lat="43.70415669392198" lon="12.141183584183617"><ele>830.25</ele><time>2026-04-11T10:04:26.999Z</time></trkpt><trkpt lat="43.70427477254563" lon="12.141306619008583"><ele>832.5</ele><time>2026-04-11T10:04:27.999Z</time></trkpt><trkpt lat="43.704391056913146" lon="12.141425471284313"><ele>834.75</ele><time>2026-04-11T10:04:28.999Z</time></trkpt><trkpt lat="43.704490459648355" lon="12.141538800481538"><ele>837.0</ele><time>2026-04-11T10:04:29.999Z</time></trkpt><trkpt lat="43.7045641584297" lon="12.141681992630488"><ele>839.8</ele><time>2026-04-11T10:04:30.999Z</time></trkpt><trkpt lat="43.7046421795815" lon="12.141812930406296"><ele>842.6</ele><time>2026-04-11T10:04:31.999Z</time></trkpt><trkpt lat="43.70469682075121" lon="12.141934313400096"><ele>845.4</ele><time>2026-04-11T10:04:32.999Z</time></trkpt><trkpt lat="43.70472654466186" lon="12.142057372676419"><ele>848.1999999999999</ele><time>2026-04-11T10:04:33.999Z</time></trkpt><trkpt lat="43.70471202151169" lon="12.142207540572413"><ele>851.0</ele><time>2026-04-11T10:04:34.999Z</time></trkpt><trkpt lat="43.704638772929805" lon="12.142332092486463"><ele>851.5</ele><time>2026-04-11T10:04:35.999Z</time></trkpt><trkpt lat="43.70453363803907" lon="12.142439079237015"><ele>852.0</ele><time>2026-04-11T10:04:36.999Z</time></trkpt><trkpt lat="43.70444960227185" lon="12.14257102332846"><ele>852.5</ele><time>2026-04-11T10:04:37.999Z</time></trkpt><trkpt lat="43.70436742715699" lon="12.142707921365597"><ele>853.0</ele><time>2026-04-11T10:04:38.999Z</time></trkpt><trkpt lat="43.704303104578514" lon="12.142867742522027"><ele>846.0</ele><time>2026-04-11T10:04:39.999Z</time></trkpt><trkpt lat="43.70424391432063" lon="12.143025559976397"><ele>839.0</ele><time>2026-04-11T10:04:40.999Z</time></trkpt><trkpt lat="43.70420127908273" lon="12.143177380780234"><ele>832.0</ele><time>2026-04-11T10:04:41.999Z</time></trkpt><trkpt lat="43.704194736768535" lon="12.14333554708417"><ele>825.0</ele><time>2026-04-11T10:04:42.999Z</time></trkpt><trkpt lat="43.70423506668992" lon="12.143469797766068"><ele>825.0</ele><time>2026-04-11T10:04:43.999Z</time></trkpt><trkpt lat="43.70432061006214" lon="12.143582498758338"><ele>825.0</ele><time>2026-04-11T10:04:44.999Z</time></trkpt><trkpt lat="43.70443667653787" lon="12.143652915384857"><ele>825.0</ele><time>2026-04-11T10:04:45.999Z</time></trkpt><trkpt lat="43.70455073037565" lon="12.14370199900257"><ele>825.0</ele><time>2026-04-11T10:04:46.999Z</time></trkpt><trkpt lat="43.70463508399143" lon="12.143790374101082"><ele>830.0</ele><time>2026-04-11T10:04:47.999Z</time></trkpt><trkpt lat="43.7047245130813" lon="12.143872258124055"><ele>835.0</ele><time>2026-04-11T10:04:48.999Z</time></trkpt><trkpt lat="43.70478643073723" lon="12.144024112386708"><ele>840.0</ele><time>2026-04-11T10:04:49.999Z</time></trkpt><trkpt lat="43.70477872921855" lon="12.144213440239543"><ele>845.0</ele><time>2026-04-11T10:04:50.999Z</time></trkpt><trkpt lat="43.704774460836276" lon="12.144405500622325"><ele>845.0</ele><time>2026-04-11T10:04:51.999Z</time></trkpt><trkpt lat="43.70476765520078" lon="12.144614011155772"><ele>845.0</ele><time>2026-04-11T10:04:52.999Z</time></trkpt><trkpt lat="43.704762458358424" lon="12.144829028767505"><ele>845.0</ele><time>2026-04-11T10:04:53.999Z</time></trkpt><trkpt lat="43.70475844521115" lon="12.145038007501412"><ele>844.6666666666667</ele><time>2026-04-11T10:04:54.999Z</time></trkpt><trkpt lat="43.70475454144759" lon="12.145261546955817"><ele>844.3333333333333</ele><time>2026-04-11T10:04:55.999Z</time></trkpt><trkpt lat="43.704750557944614" lon="12.145490700878614"><ele>844.0</ele><time>2026-04-11T10:04:56.999Z</time></trkpt><trkpt lat="43.704746688776645" lon="12.145719297965464"><ele>842.5</ele><time>2026-04-11T10:04:57.999Z</time></trkpt><trkpt lat="43.70474335930048" lon="12.14592156343056"><ele>841.0</ele><time>2026-04-11T10:04:58.998Z</time></trkpt><trkpt lat="43.70474320562994" lon="12.146106033198722"><ele>839.5</ele><time>2026-04-11T10:04:59.998Z</time></trkpt><trkpt lat="43.70476429515311" lon="12.146282759189255"><ele>838.0</ele><time>2026-04-11T10:05:00.998Z</time></trkpt><trkpt lat="43.70482312468735" lon="12.146473901222912"><ele>834.3333333333333</ele><time>2026-04-11T10:05:01.998Z</time></trkpt><trkpt lat="43.70492077639673" lon="12.146650476919588"><ele>830.6666666666667</ele><time>2026-04-11T10:05:02.998Z</time></trkpt><trkpt lat="43.70499917216189" lon="12.146840014696318"><ele>827.0</ele><time>2026-04-11T10:05:03.998Z</time></trkpt><trkpt lat="43.70508035478178" lon="12.147003581989253"><ele>827.0</ele><time>2026-04-11T10:05:04.998Z</time></trkpt><trkpt lat="43.70513570782724" lon="12.14715037562125"><ele>827.0</ele><time>2026-04-11T10:05:05.998Z</time></trkpt><trkpt lat="43.705167032379826" lon="12.147308757030762"><ele>827.0</ele><time>2026-04-11T10:05:06.998Z</time></trkpt><trkpt lat="43.705169351442855" lon="12.14747923501516"><ele>827.0</ele><time>2026-04-11T10:05:07.998Z</time></trkpt><trkpt lat="43.70515202485525" lon="12.147647366656349"><ele>826.5</ele><time>2026-04-11T10:05:08.998Z</time></trkpt><trkpt lat="43.705167478332676" lon="12.14781135610641"><ele>826.0</ele><time>2026-04-11T10:05:09.998Z</time></trkpt><trkpt lat="43.70518139236365" lon="12.147975256055782"><ele>825.5</ele><time>2026-04-11T10:05:10.998Z</time></trkpt><trkpt lat="43.705274216797314" lon="12.148124348562618"><ele>825.0</ele><time>2026-04-11T10:05:11.998Z</time></trkpt><trkpt lat="43.705403611525675" lon="12.148220579225107"><ele>825.0</ele><time>2026-04-11T10:05:12.998Z</time></trkpt><trkpt lat="43.70549053064817" lon="12.148336347404324"><ele>825.0</ele><time>2026-04-11T10:05:13.998Z</time></trkpt><trkpt lat="43.705542534773194" lon="12.148468734876108"><ele>825.0</ele><time>2026-04-11T10:05:14.998Z</time></trkpt><trkpt lat="43.70554114347373" lon="12.148621062125207"><ele>825.0</ele><time>2026-04-11T10:05:15.998Z</time></trkpt><trkpt lat="43.70551613096942" lon="12.148787626443527"><ele>825.0</ele><time>2026-04-11T10:05:16.998Z</time></trkpt><trkpt lat="43.70545679901806" lon="12.148936965333618"><ele>825.0</ele><time>2026-04-11T10:05:17.998Z</time></trkpt><trkpt lat="43.70535777227386" lon="12.149046200375604"><ele>825.0</ele><time>2026-04-11T10:05:18.998Z</time></trkpt><trkpt lat="43.705252055190996" lon="12.149173418624908"><ele>825.0</ele><time>2026-04-11T10:05:19.998Z</time></trkpt><trkpt lat="43.7051495352275" lon="12.149264754317016"><ele>821.0</ele><time>2026-04-11T10:05:20.998Z</time></trkpt><trkpt lat="43.705077506722404" lon="12.149358105910741"><ele>817.0</ele><time>2026-04-11T10:05:21.998Z</time></trkpt><trkpt lat="43.70503454691515" lon="12.14946186185439"><ele>813.0</ele><time>2026-04-11T10:05:22.998Z</time></trkpt><trkpt lat="43.70502039021459" lon="12.149589689359713"><ele>809.0</ele><time>2026-04-11T10:05:24Z</time></trkpt><trkpt lat="43.705066315232905" lon="12.149726328796346"><ele>805.0</ele><time>2026-04-11T10:05:25Z</time></trkpt><trkpt lat="43.70514608342322" lon="12.149831442908672"><ele>807.5</ele><time>2026-04-11T10:05:26Z</time></trkpt><trkpt lat="43.70525177159154" lon="12.149878101359745"><ele>810.0</ele><time>2026-04-11T10:05:27Z</time></trkpt><trkpt lat="43.70536769849948" lon="12.149902761752092"><ele>812.5</ele><time>2026-04-11T10:05:28Z</time></trkpt><trkpt lat="43.70548541767457" lon="12.149941118318075"><ele>815.0</ele><time>2026-04-11T10:05:29Z</time></trkpt><trkpt lat="43.70559738158787" lon="12.149994877442804"><ele>815.0</ele><time>2026-04-11T10:05:30Z</time></trkpt><trkpt lat="43.70570495675268" lon="12.150061856310119"><ele>815.0</ele><time>2026-04-11T10:05:31Z</time></trkpt><trkpt lat="43.70579651706012" lon="12.150178354047961"><ele>815.0</ele><time>2026-04-11T10:05:32Z</time></trkpt><trkpt lat="43.70589931330938" lon="12.150296763800826"><ele>815.0</ele><time>2026-04-11T10:05:33Z</time></trkpt><trkpt lat="43.70600490639307" lon="12.150398252067674"><ele>814.4</ele><time>2026-04-11T10:05:34Z</time></trkpt><trkpt lat="43.70608692950573" lon="12.150474315681597"><ele>813.8</ele><time>2026-04-11T10:05:35Z</time></trkpt><trkpt lat="43.70618306160232" lon="12.150505289886762"><ele>813.2</ele><time>2026-04-11T10:05:36Z</time></trkpt><trkpt lat="43.706288482080915" lon="12.150501200496313"><ele>812.6</ele><time>2026-04-11T10:05:37Z</time></trkpt><trkpt lat="43.706384317172414" lon="12.150458672709627"><ele>812.0</ele><time>2026-04-11T10:05:38Z</time></trkpt><trkpt lat="43.70646583245192" lon="12.150315115809725"><ele>812.0</ele><time>2026-04-11T10:05:39Z</time></trkpt><trkpt lat="43.7065406126133" lon="12.150170743017165"><ele>812.0</ele><time>2026-04-11T10:05:40Z</time></trkpt><trkpt lat="43.706609030992475" lon="12.150070339627002"><ele>812.0</ele><time>2026-04-11T10:05:41Z</time></trkpt><trkpt lat="43.70668780066391" lon="12.149978040184026"><ele>812.0</ele><time>2026-04-11T10:05:42Z</time></trkpt><trkpt lat="43.70678444831114" lon="12.149904909325805"><ele>812.0</ele><time>2026-04-11T10:05:43Z</time></trkpt><trkpt lat="43.70691047565047" lon="12.149888009050535"><ele>812.0</ele><time>2026-04-11T10:05:44Z</time></trkpt><trkpt lat="43.707029141538406" lon="12.149967525956491"><ele>812.0</ele><time>2026-04-11T10:05:45Z</time></trkpt><trkpt lat="43.70713062318521" lon="12.150074950733119"><ele>812.0</ele><time>2026-04-11T10:05:46Z</time></trkpt><trkpt lat="43.70724000861589" lon="12.150193233390256"><ele>812.0</ele><time>2026-04-11T10:05:46.999Z</time></trkpt><trkpt lat="43.70729130959301" lon="12.150377602172592"><ele>812.0</ele><time>2026-04-11T10:05:47.999Z</time></trkpt><trkpt lat="43.707324257205336" lon="12.150570342013834"><ele>812.0</ele><time>2026-04-11T10:05:48.999Z</time></trkpt><trkpt lat="43.707353711489446" lon="12.15075822810717"><ele>812.0</ele><time>2026-04-11T10:05:49.999Z</time></trkpt><trkpt lat="43.707385888313546" lon="12.15093884625388"><ele>812.0</ele><time>2026-04-11T10:05:50.999Z</time></trkpt><trkpt lat="43.70743947900448" lon="12.151106757378878"><ele>812.5</ele><time>2026-04-11T10:05:51.999Z</time></trkpt><trkpt lat="43.70750015935705" lon="12.15125392731772"><ele>813.0</ele><time>2026-04-11T10:05:52.999Z</time></trkpt><trkpt lat="43.70758924606708" lon="12.151373410603423"><ele>813.5</ele><time>2026-04-11T10:05:53.999Z</time></trkpt><trkpt lat="43.7077044662592" lon="12.151448993585785"><ele>814.0</ele><time>2026-04-11T10:05:54.999Z</time></trkpt><trkpt lat="43.7078370931024" lon="12.151476277080485"><ele>814.0</ele><time>2026-04-11T10:05:55.999Z</time></trkpt><trkpt lat="43.70796794483338" lon="12.151453590505499"><ele>814.0</ele><time>2026-04-11T10:05:56.999Z</time></trkpt><trkpt lat="43.70808557014052" lon="12.151408100110364"><ele>814.0</ele><time>2026-04-11T10:05:57.999Z</time></trkpt><trkpt lat="43.70819725682498" lon="12.151374358007944"><ele>814.0</ele><time>2026-04-11T10:05:58.999Z</time></trkpt><trkpt lat="43.7083126815993" lon="12.151372614495328"><ele>814.0</ele><time>2026-04-11T10:05:59.999Z</time></trkpt><trkpt lat="43.70842102448982" lon="12.151441799093721"><ele>814.0</ele><time>2026-04-11T10:06:00.999Z</time></trkpt><trkpt lat="43.708534554826585" lon="12.151483673791594"><ele>814.0</ele><time>2026-04-11T10:06:01.999Z</time></trkpt><trkpt lat="43.708630125282966" lon="12.15157179377482"><ele>814.0</ele><time>2026-04-11T10:06:02.999Z</time></trkpt><trkpt lat="43.70871606454357" lon="12.151659175565902"><ele>814.25</ele><time>2026-04-11T10:06:03.999Z</time></trkpt><trkpt lat="43.70879478359668" lon="12.15177517407921"><ele>814.5</ele><time>2026-04-11T10:06:04.999Z</time></trkpt><trkpt lat="43.7088206203904" lon="12.15192166648614"><ele>814.75</ele><time>2026-04-11T10:06:05.999Z</time></trkpt><trkpt lat="43.70884160125365" lon="12.15209921290965"><ele>815.0</ele><time>2026-04-11T10:06:06.999Z</time></trkpt><trkpt lat="43.708864164470846" lon="12.15230002478048"><ele>813.0</ele><time>2026-04-11T10:06:07.999Z</time></trkpt><trkpt lat="43.70888249514225" lon="12.15249567863098"><ele>811.0</ele><time>2026-04-11T10:06:08.999Z</time></trkpt><trkpt lat="43.70889034385215" lon="12.152681699382189"><ele>809.0</ele><time>2026-04-11T10:06:09.999Z</time></trkpt><trkpt lat="43.708874560317774" lon="12.152860931413688"><ele>807.0</ele><time>2026-04-11T10:06:10.999Z</time></trkpt><trkpt lat="43.70882917912267" lon="12.153028247338723"><ele>807.0</ele><time>2026-04-11T10:06:11.999Z</time></trkpt><trkpt lat="43.70874446722111" lon="12.153165793505563"><ele>807.0</ele><time>2026-04-11T10:06:12.999Z</time></trkpt><trkpt lat="43.70866819332826" lon="12.153299519873656"><ele>807.0</ele><time>2026-04-11T10:06:13.999Z</time></trkpt><trkpt lat="43.70862252368013" lon="12.153435931641924"><ele>807.0</ele><time>2026-04-11T10:06:14.999Z</time></trkpt><trkpt lat="43.70862380290288" lon="12.153580694938743"><ele>807.0</ele><time>2026-04-11T10:06:15.999Z</time></trkpt><trkpt lat="43.70866941721529" lon="12.153731462517262"><ele>807.0</ele><time>2026-04-11T10:06:16.999Z</time></trkpt><trkpt lat="43.70875057190493" lon="12.153865753388065"><ele>807.0</ele><time>2026-04-11T10:06:17.999Z</time></trkpt><trkpt lat="43.70884321039605" lon="12.154000649057672"><ele>807.0</ele><time>2026-04-11T10:06:18.999Z</time></trkpt><trkpt lat="43.70893176237133" lon="12.154116220597293"><ele>805.25</ele><time>2026-04-11T10:06:19.999Z</time></trkpt><trkpt lat="43.7089994091903" lon="12.154257297335633"><ele>803.5</ele><time>2026-04-11T10:06:20.999Z</time></trkpt><trkpt lat="43.709066342106624" lon="12.154405707657858"><ele>801.75</ele><time>2026-04-11T10:06:21.999Z</time></trkpt><trkpt lat="43.709108959111205" lon="12.154576240733139"><ele>800.0</ele><time>2026-04-11T10:06:22.999Z</time></trkpt><trkpt lat="43.709160741133815" lon="12.154757678063085"><ele>797.75</ele><time>2026-04-11T10:06:23.999Z</time></trkpt><trkpt lat="43.70918316096001" lon="12.154946751452002"><ele>795.5</ele><time>2026-04-11T10:06:24.999Z</time></trkpt><trkpt lat="43.709220841538375" lon="12.155121812639022"><ele>793.25</ele><time>2026-04-11T10:06:25.999Z</time></trkpt><trkpt lat="43.70925796431415" lon="12.155297636822688"><ele>791.0</ele><time>2026-04-11T10:06:26.999Z</time></trkpt><trkpt lat="43.7092835100109" lon="12.155490682435609"><ele>791.0</ele><time>2026-04-11T10:06:27.999Z</time></trkpt><trkpt lat="43.70931186278617" lon="12.155691177883948"><ele>791.0</ele><time>2026-04-11T10:06:28.999Z</time></trkpt><trkpt lat="43.70935213138095" lon="12.155899411208262"><ele>791.0</ele><time>2026-04-11T10:06:29.999Z</time></trkpt><trkpt lat="43.70940289626278" lon="12.156114173159805"><ele>796.3333333333334</ele><time>2026-04-11T10:06:30.999Z</time></trkpt><trkpt lat="43.709430917754105" lon="12.156334793873986"><ele>801.6666666666667</ele><time>2026-04-11T10:06:31.999Z</time></trkpt><trkpt lat="43.70949030542138" lon="12.156543680217071"><ele>807.0</ele><time>2026-04-11T10:06:32.999Z</time></trkpt><trkpt lat="43.70954362439679" lon="12.15672958420835"><ele>807.0</ele><time>2026-04-11T10:06:33.999Z</time></trkpt><trkpt lat="43.709602034543614" lon="12.15689183637835"><ele>807.0</ele><time>2026-04-11T10:06:34.999Z</time></trkpt><trkpt lat="43.7096272446853" lon="12.15705813207383"><ele>807.0</ele><time>2026-04-11T10:06:35.999Z</time></trkpt><trkpt lat="43.70963976888058" lon="12.157223366497309"><ele>807.0</ele><time>2026-04-11T10:06:36.999Z</time></trkpt><trkpt lat="43.709633914926464" lon="12.15738953511937"><ele>806.0</ele><time>2026-04-11T10:06:37.999Z</time></trkpt><trkpt lat="43.70960692414629" lon="12.157559836646275"><ele>805.0</ele><time>2026-04-11T10:06:38.999Z</time></trkpt><trkpt lat="43.709576840342585" lon="12.15774566531498"><ele>804.0</ele><time>2026-04-11T10:06:39.999Z</time></trkpt><trkpt lat="43.709551710735184" lon="12.157938863720089"><ele>803.0</ele><time>2026-04-11T10:06:40.999Z</time></trkpt><trkpt lat="43.70953281202066" lon="12.158140738676346"><ele>801.0</ele><time>2026-04-11T10:06:41.999Z</time></trkpt><trkpt lat="43.709520668253646" lon="12.158351515737886"><ele>799.0</ele><time>2026-04-11T10:06:42.999Z</time></trkpt><trkpt lat="43.70951166035241" lon="12.15853980202329"><ele>797.0</ele><time>2026-04-11T10:06:43.999Z</time></trkpt><trkpt lat="43.7095038944734" lon="12.158713479713718"><ele>795.0</ele><time>2026-04-11T10:06:44.999Z</time></trkpt><trkpt lat="43.70949621801017" lon="12.158885157750701"><ele>793.75</ele><time>2026-04-11T10:06:45.999Z</time></trkpt><trkpt lat="43.70948861359738" lon="12.159055224476294"><ele>792.5</ele><time>2026-04-11T10:06:46.999Z</time></trkpt><trkpt lat="43.70948130284444" lon="12.159218723710081"><ele>791.25</ele><time>2026-04-11T10:06:47.999Z</time></trkpt><trkpt lat="43.70948962815837" lon="12.159379299817763"><ele>790.0</ele><time>2026-04-11T10:06:48.999Z</time></trkpt><trkpt lat="43.70946679718548" lon="12.159543131077823"><ele>790.0</ele><time>2026-04-11T10:06:49.999Z</time></trkpt><trkpt lat="43.709463651345686" lon="12.159718890178606"><ele>790.0</ele><time>2026-04-11T10:06:50.999Z</time></trkpt><trkpt lat="43.70948381642688" lon="12.15989383325027"><ele>790.0</ele><time>2026-04-11T10:06:51.999Z</time></trkpt><trkpt lat="43.70954753105794" lon="12.1600581776256"><ele>790.0</ele><time>2026-04-11T10:06:52.999Z</time></trkpt><trkpt lat="43.70966153925799" lon="12.160181827980406"><ele>788.25</ele><time>2026-04-11T10:06:53.999Z</time></trkpt><trkpt lat="43.70977693831436" lon="12.160284576482805"><ele>786.5</ele><time>2026-04-11T10:06:54.999Z</time></trkpt><trkpt lat="43.70988939340537" lon="12.160374166086699"><ele>784.75</ele><time>2026-04-11T10:06:55.999Z</time></trkpt><trkpt lat="43.71000716091837" lon="12.160434920498574"><ele>783.0</ele><time>2026-04-11T10:06:56.999Z</time></trkpt><trkpt lat="43.710125940480346" lon="12.160511730031462"><ele>785.75</ele><time>2026-04-11T10:06:57.999Z</time></trkpt><trkpt lat="43.71025933486957" lon="12.160544471113628"><ele>788.5</ele><time>2026-04-11T10:06:58.999Z</time></trkpt><trkpt lat="43.71039239529587" lon="12.160528575095405"><ele>791.25</ele><time>2026-04-11T10:06:59.999Z</time></trkpt><trkpt lat="43.710510194386366" lon="12.160572401024893"><ele>794.0</ele><time>2026-04-11T10:07:00.999Z</time></trkpt><trkpt lat="43.71062315062647" lon="12.16060536325699"><ele>789.75</ele><time>2026-04-11T10:07:01.999Z</time></trkpt><trkpt lat="43.71070599291018" lon="12.160722624938801"><ele>785.5</ele><time>2026-04-11T10:07:02.999Z</time></trkpt><trkpt lat="43.710787094104575" lon="12.160838380989494"><ele>781.25</ele><time>2026-04-11T10:07:03.999Z</time></trkpt><trkpt lat="43.7108372904488" lon="12.160978387433277"><ele>777.0</ele><time>2026-04-11T10:07:04.999Z</time></trkpt><trkpt lat="43.710889719306664" lon="12.161135205069202"><ele>777.0</ele><time>2026-04-11T10:07:05.998Z</time></trkpt><trkpt lat="43.71094554817728" lon="12.161300407658892"><ele>777.0</ele><time>2026-04-11T10:07:06.998Z</time></trkpt><trkpt lat="43.71100509255858" lon="12.161465006058638"><ele>777.0</ele><time>2026-04-11T10:07:07.998Z</time></trkpt><trkpt lat="43.71107614951782" lon="12.161611606755814"><ele>777.0</ele><time>2026-04-11T10:07:08.998Z</time></trkpt><trkpt lat="43.711176774946125" lon="12.161738091716751"><ele>778.0</ele><time>2026-04-11T10:07:09.998Z</time></trkpt><trkpt lat="43.711281695013305" lon="12.161863143242485"><ele>779.0</ele><time>2026-04-11T10:07:10.998Z</time></trkpt><trkpt lat="43.71142053904289" lon="12.161921142414203"><ele>780.0</ele><time>2026-04-11T10:07:11.998Z</time></trkpt><trkpt lat="43.71155739466118" lon="12.161909550963463"><ele>781.0</ele><time>2026-04-11T10:07:12.998Z</time></trkpt><trkpt lat="43.711677801163184" lon="12.161892679154992"><ele>781.0</ele><time>2026-04-11T10:07:13.998Z</time></trkpt><trkpt lat="43.71178916897316" lon="12.161900342441916"><ele>781.0</ele><time>2026-04-11T10:07:14.998Z</time></trkpt><trkpt lat="43.71189240740426" lon="12.161879876329788"><ele>781.0</ele><time>2026-04-11T10:07:15.998Z</time></trkpt><trkpt lat="43.71199703472249" lon="12.161915365853993"><ele>781.0</ele><time>2026-04-11T10:07:16.998Z</time></trkpt><trkpt lat="43.71210073332613" lon="12.161980262264754"><ele>781.0</ele><time>2026-04-11T10:07:17.998Z</time></trkpt><trkpt lat="43.71217656680601" lon="12.162104305988374"><ele>781.0</ele><time>2026-04-11T10:07:18.998Z</time></trkpt><trkpt lat="43.712248154319845" lon="12.162231619047278"><ele>781.0</ele><time>2026-04-11T10:07:19.998Z</time></trkpt><trkpt lat="43.71231704335867" lon="12.162366459838749"><ele>781.0</ele><time>2026-04-11T10:07:20.998Z</time></trkpt><trkpt lat="43.71237707096985" lon="12.162508059752028"><ele>781.0</ele><time>2026-04-11T10:07:21.998Z</time></trkpt><trkpt lat="43.71243329423487" lon="12.16266092126406"><ele>781.0</ele><time>2026-04-11T10:07:22.998Z</time></trkpt><trkpt lat="43.71244126079198" lon="12.162833777081493"><ele>781.0</ele><time>2026-04-11T10:07:23.998Z</time></trkpt><trkpt lat="43.71242461923474" lon="12.163006965883776"><ele>781.0</ele><time>2026-04-11T10:07:24.998Z</time></trkpt><trkpt lat="43.712368460319404" lon="12.163170928192626"><ele>781.0</ele><time>2026-04-11T10:07:25.998Z</time></trkpt><trkpt lat="43.71228558482506" lon="12.163315863223792"><ele>781.5</ele><time>2026-04-11T10:07:26.998Z</time></trkpt><trkpt lat="43.71217723037698" lon="12.163427440440058"><ele>782.0</ele><time>2026-04-11T10:07:27.998Z</time></trkpt><trkpt lat="43.71206344204527" lon="12.163526089706792"><ele>782.5</ele><time>2026-04-11T10:07:28.998Z</time></trkpt><trkpt lat="43.71196771322482" lon="12.163638133250615"><ele>783.0</ele><time>2026-04-11T10:07:30Z</time></trkpt><trkpt lat="43.71188850479386" lon="12.163765202500414"><ele>782.0</ele><time>2026-04-11T10:07:31Z</time></trkpt><trkpt lat="43.711816262469455" lon="12.163905958784913"><ele>781.0</ele><time>2026-04-11T10:07:32Z</time></trkpt><trkpt lat="43.71174779160635" lon="12.164057189556193"><ele>780.0</ele><time>2026-04-11T10:07:33Z</time></trkpt><trkpt lat="43.71167942713116" lon="12.164208950632238"><ele>779.0</ele><time>2026-04-11T10:07:34Z</time></trkpt><trkpt lat="43.71161023024322" lon="12.164362502161952"><ele>779.0</ele><time>2026-04-11T10:07:35Z</time></trkpt><trkpt lat="43.71154308133086" lon="12.16451615860279"><ele>779.0</ele><time>2026-04-11T10:07:36Z</time></trkpt><trkpt lat="43.711476497585025" lon="12.164669456944111"><ele>779.0</ele><time>2026-04-11T10:07:37Z</time></trkpt><trkpt lat="43.71141221903147" lon="12.164817684660667"><ele>779.0</ele><time>2026-04-11T10:07:38Z</time></trkpt><trkpt lat="43.711349546783225" lon="12.164961062641092"><ele>781.0</ele><time>2026-04-11T10:07:39Z</time></trkpt><trkpt lat="43.7112916077299" lon="12.165102611973683"><ele>783.0</ele><time>2026-04-11T10:07:40Z</time></trkpt><trkpt lat="43.71123598163278" lon="12.165245934687103"><ele>785.0</ele><time>2026-04-11T10:07:41Z</time></trkpt><trkpt lat="43.71117807365648" lon="12.165393911743196"><ele>787.0</ele><time>2026-04-11T10:07:42Z</time></trkpt><trkpt lat="43.71111973209101" lon="12.165543751110507"><ele>783.5</ele><time>2026-04-11T10:07:43Z</time></trkpt><trkpt lat="43.71106183161413" lon="12.165693147999844"><ele>780.0</ele><time>2026-04-11T10:07:44Z</time></trkpt><trkpt lat="43.7110047198758" lon="12.165847761322157"><ele>776.5</ele><time>2026-04-11T10:07:45Z</time></trkpt><trkpt lat="43.71094297898937" lon="12.166005404050637"><ele>773.0</ele><time>2026-04-11T10:07:46Z</time></trkpt><trkpt lat="43.71088107776535" lon="12.166166874538687"><ele>773.0</ele><time>2026-04-11T10:07:47Z</time></trkpt><trkpt lat="43.71082144111941" lon="12.166327414496495"><ele>773.0</ele><time>2026-04-11T10:07:48Z</time></trkpt><trkpt lat="43.710764388762776" lon="12.166476878090585"><ele>773.0</ele><time>2026-04-11T10:07:49Z</time></trkpt><trkpt lat="43.7107071272796" lon="12.166619518323007"><ele>773.0</ele><time>2026-04-11T10:07:50Z</time></trkpt><trkpt lat="43.71064641737787" lon="12.166762205992544"><ele>776.25</ele><time>2026-04-11T10:07:51Z</time></trkpt><trkpt lat="43.71058307843284" lon="12.166904754645602"><ele>779.5</ele><time>2026-04-11T10:07:52Z</time></trkpt><trkpt lat="43.71051538898988" lon="12.167049794816526"><ele>782.75</ele><time>2026-04-11T10:07:53Z</time></trkpt><trkpt lat="43.71045021015159" lon="12.167196161265144"><ele>786.0</ele><time>2026-04-11T10:07:54Z</time></trkpt><trkpt lat="43.71037940287273" lon="12.167343765376074"><ele>786.0</ele><time>2026-04-11T10:07:55Z</time></trkpt><trkpt lat="43.710309529532324" lon="12.167487452422632"><ele>786.0</ele><time>2026-04-11T10:07:56Z</time></trkpt><trkpt lat="43.710241731614246" lon="12.167641169223867"><ele>786.0</ele><time>2026-04-11T10:07:57Z</time></trkpt><trkpt lat="43.710184908220484" lon="12.167809772079494"><ele>786.0</ele><time>2026-04-11T10:07:57.999Z</time></trkpt><trkpt lat="43.710139024329955" lon="12.167992541105406"><ele>786.0</ele><time>2026-04-11T10:07:58.999Z</time></trkpt><trkpt lat="43.710109631110384" lon="12.168187108606304"><ele>786.0</ele><time>2026-04-11T10:07:59.999Z</time></trkpt><trkpt lat="43.7100909682772" lon="12.16838963986653"><ele>786.0</ele><time>2026-04-11T10:08:00.999Z</time></trkpt><trkpt lat="43.710089035029824" lon="12.168588128171114"><ele>786.0</ele><time>2026-04-11T10:08:01.999Z</time></trkpt><trkpt lat="43.71010460526204" lon="12.168792566700116"><ele>788.25</ele><time>2026-04-11T10:08:02.999Z</time></trkpt><trkpt lat="43.710128185166546" lon="12.168989939500102"><ele>790.5</ele><time>2026-04-11T10:08:03.999Z</time></trkpt><trkpt lat="43.7101588652495" lon="12.169184254116798"><ele>792.75</ele><time>2026-04-11T10:08:04.999Z</time></trkpt><trkpt lat="43.710189497879895" lon="12.16937899045626"><ele>795.0</ele><time>2026-04-11T10:08:05.999Z</time></trkpt><trkpt lat="43.71021621092316" lon="12.169575205783357"><ele>797.25</ele><time>2026-04-11T10:08:06.999Z</time></trkpt><trkpt lat="43.71024241801623" lon="12.169773467157924"><ele>799.5</ele><time>2026-04-11T10:08:07.999Z</time></trkpt><trkpt lat="43.71027293018888" lon="12.169970175839293"><ele>801.75</ele><time>2026-04-11T10:08:08.999Z</time></trkpt><trkpt lat="43.71028607776829" lon="12.170187909959012"><ele>804.0</ele><time>2026-04-11T10:08:10.065Z</time></trkpt><trkpt lat="43.71031161126362" lon="12.17038350043873"><ele>804.0</ele><time>2026-04-11T10:08:11.057Z</time></trkpt><trkpt lat="43.710333555667546" lon="12.170573975343736"><ele>804.0</ele><time>2026-04-11T10:08:12.054Z</time></trkpt><trkpt lat="43.710159350187496" lon="12.171548615189096"><ele>796.0</ele><time>2026-04-11T10:08:16.999Z</time></trkpt><trkpt lat="43.71012720575833" lon="12.171738178241478"><ele>788.0</ele><time>2026-04-11T10:08:17.999Z</time></trkpt><trkpt lat="43.71012116335495" lon="12.171953451003757"><ele>780.0</ele><time>2026-04-11T10:08:18.999Z</time></trkpt><trkpt lat="43.710060289393226" lon="12.172100669200061"><ele>772.0</ele><time>2026-04-11T10:08:19.999Z</time></trkpt><trkpt lat="43.710023530742205" lon="12.17226783457872"><ele>770.75</ele><time>2026-04-11T10:08:20.999Z</time></trkpt><trkpt lat="43.71002370980249" lon="12.172435045980903"><ele>769.5</ele><time>2026-04-11T10:08:21.999Z</time></trkpt><trkpt lat="43.71005048399062" lon="12.172623716622123"><ele>768.25</ele><time>2026-04-11T10:08:22.999Z</time></trkpt><trkpt lat="43.71007310574935" lon="12.172808273079491"><ele>767.0</ele><time>2026-04-11T10:08:23.999Z</time></trkpt><trkpt lat="43.71012260335877" lon="12.172989376485175"><ele>767.0</ele><time>2026-04-11T10:08:24.999Z</time></trkpt><trkpt lat="43.71018579447804" lon="12.173165925733521"><ele>767.0</ele><time>2026-04-11T10:08:25.999Z</time></trkpt><trkpt lat="43.71026834767356" lon="12.17332785555803"><ele>767.0</ele><time>2026-04-11T10:08:26.999Z</time></trkpt><trkpt lat="43.710354321775604" lon="12.173483886475127"><ele>767.0</ele><time>2026-04-11T10:08:27.999Z</time></trkpt><trkpt lat="43.71042622427992" lon="12.173655440586993"><ele>767.0</ele><time>2026-04-11T10:08:28.999Z</time></trkpt><trkpt lat="43.71046001861626" lon="12.173861267287139"><ele>767.0</ele><time>2026-04-11T10:08:29.999Z</time></trkpt><trkpt lat="43.7104799302453" lon="12.174072539108518"><ele>767.0</ele><time>2026-04-11T10:08:30.999Z</time></trkpt><trkpt lat="43.71049980587393" lon="12.174283822955049"><ele>767.0</ele><time>2026-04-11T10:08:31.999Z</time></trkpt><trkpt lat="43.710518326788694" lon="12.174491520551026"><ele>767.0</ele><time>2026-04-11T10:08:32.999Z</time></trkpt><trkpt lat="43.71053825018143" lon="12.174695553322934"><ele>767.0</ele><time>2026-04-11T10:08:33.999Z</time></trkpt><trkpt lat="43.71055780200744" lon="12.174895780911644"><ele>767.0</ele><time>2026-04-11T10:08:34.999Z</time></trkpt><trkpt lat="43.71057669944584" lon="12.175086587917674"><ele>766.0</ele><time>2026-04-11T10:08:35.999Z</time></trkpt><trkpt lat="43.71061049013624" lon="12.17527573417315"><ele>765.0</ele><time>2026-04-11T10:08:36.999Z</time></trkpt><trkpt lat="43.71062790566626" lon="12.175468891664838"><ele>764.0</ele><time>2026-04-11T10:08:37.999Z</time></trkpt><trkpt lat="43.71064511814873" lon="12.175658880795101"><ele>763.0</ele><time>2026-04-11T10:08:38.999Z</time></trkpt><trkpt lat="43.710661707474245" lon="12.175848123289162"><ele>761.75</ele><time>2026-04-11T10:08:39.999Z</time></trkpt><trkpt lat="43.710673929138395" lon="12.176037169074188"><ele>760.5</ele><time>2026-04-11T10:08:40.999Z</time></trkpt><trkpt lat="43.710689523539195" lon="12.176224922751983"><ele>759.25</ele><time>2026-04-11T10:08:41.999Z</time></trkpt><trkpt lat="43.710683633481054" lon="12.17641307926861"><ele>758.0</ele><time>2026-04-11T10:08:42.999Z</time></trkpt><trkpt lat="43.71067554723687" lon="12.176607359229418"><ele>755.5</ele><time>2026-04-11T10:08:43.999Z</time></trkpt><trkpt lat="43.71064279281061" lon="12.176800774491047"><ele>753.0</ele><time>2026-04-11T10:08:44.999Z</time></trkpt><trkpt lat="43.71058817640893" lon="12.176977722872461"><ele>750.5</ele><time>2026-04-11T10:08:45.999Z</time></trkpt><trkpt lat="43.71052688967087" lon="12.177153825791747"><ele>748.0</ele><time>2026-04-11T10:08:46.999Z</time></trkpt><trkpt lat="43.71045660053709" lon="12.177326319186152"><ele>747.0</ele><time>2026-04-11T10:08:47.999Z</time></trkpt><trkpt lat="43.71038390462644" lon="12.17749768035808"><ele>746.0</ele><time>2026-04-11T10:08:48.999Z</time></trkpt><trkpt lat="43.71031244690174" lon="12.17766729755865"><ele>745.0</ele><time>2026-04-11T10:08:49.999Z</time></trkpt><trkpt lat="43.710251737092634" lon="12.177834882974706"><ele>744.0</ele><time>2026-04-11T10:08:50.999Z</time></trkpt><trkpt lat="43.71020928137779" lon="12.177994800416004"><ele>738.5</ele><time>2026-04-11T10:08:51.999Z</time></trkpt><trkpt lat="43.71018022635344" lon="12.178158836191116"><ele>733.0</ele><time>2026-04-11T10:08:52.999Z</time></trkpt><trkpt lat="43.710166127294876" lon="12.17833491813256"><ele>727.5</ele><time>2026-04-11T10:08:53.999Z</time></trkpt><trkpt lat="43.71016536245547" lon="12.178512154668773"><ele>722.0</ele><time>2026-04-11T10:08:54.999Z</time></trkpt><trkpt lat="43.71019326999892" lon="12.178681559636455"><ele>721.75</ele><time>2026-04-11T10:08:55.999Z</time></trkpt><trkpt lat="43.71020739956594" lon="12.178855167445768"><ele>721.5</ele><time>2026-04-11T10:08:56.999Z</time></trkpt><trkpt lat="43.71022084235897" lon="12.179037017858464"><ele>721.25</ele><time>2026-04-11T10:08:57.999Z</time></trkpt><trkpt lat="43.71023860901815" lon="12.179218814742486"><ele>721.0</ele><time>2026-04-11T10:08:58.999Z</time></trkpt><trkpt lat="43.710256257402406" lon="12.179400008969367"><ele>721.5</ele><time>2026-04-11T10:08:59.999Z</time></trkpt><trkpt lat="43.71026658231966" lon="12.17958393257105"><ele>722.0</ele><time>2026-04-11T10:09:00.999Z</time></trkpt><trkpt lat="43.71026556371624" lon="12.179769511983272"><ele>722.5</ele><time>2026-04-11T10:09:01.999Z</time></trkpt><trkpt lat="43.710248103236886" lon="12.179947228421234"><ele>723.0</ele><time>2026-04-11T10:09:02.999Z</time></trkpt><trkpt lat="43.71019367362681" lon="12.18011057219522"><ele>720.75</ele><time>2026-04-11T10:09:03.999Z</time></trkpt><trkpt lat="43.7101468692106" lon="12.180270492108212"><ele>718.5</ele><time>2026-04-11T10:09:04.999Z</time></trkpt><trkpt lat="43.710094778836044" lon="12.180432450782874"><ele>716.25</ele><time>2026-04-11T10:09:05.999Z</time></trkpt><trkpt lat="43.71003738602489" lon="12.180600751503196"><ele>714.0</ele><time>2026-04-11T10:09:06.999Z</time></trkpt><trkpt lat="43.70998240666693" lon="12.180761066274156"><ele>713.25</ele><time>2026-04-11T10:09:07.999Z</time></trkpt><trkpt lat="43.70992661807008" lon="12.180928077345515"><ele>712.5</ele><time>2026-04-11T10:09:08.999Z</time></trkpt><trkpt lat="43.70989058494685" lon="12.181110797190385"><ele>711.75</ele><time>2026-04-11T10:09:09.999Z</time></trkpt><trkpt lat="43.70983459513323" lon="12.181277207695706"><ele>711.0</ele><time>2026-04-11T10:09:10.999Z</time></trkpt><trkpt lat="43.70977797312356" lon="12.181441321024066"><ele>710.25</ele><time>2026-04-11T10:09:11.999Z</time></trkpt><trkpt lat="43.709721140390585" lon="12.18160147787001"><ele>709.5</ele><time>2026-04-11T10:09:12.999Z</time></trkpt><trkpt lat="43.70964556036985" lon="12.181756007979772"><ele>708.75</ele><time>2026-04-11T10:09:13.999Z</time></trkpt><trkpt lat="43.709589327888196" lon="12.181921321801992"><ele>708.0</ele><time>2026-04-11T10:09:14.999Z</time></trkpt><trkpt lat="43.70953341109196" lon="12.182085707564864"><ele>708.0</ele><time>2026-04-11T10:09:15.999Z</time></trkpt><trkpt lat="43.70947702213037" lon="12.182251481400115"><ele>708.0</ele><time>2026-04-11T10:09:16.999Z</time></trkpt><trkpt lat="43.709419818060795" lon="12.182418122101943"><ele>708.0</ele><time>2026-04-11T10:09:17.999Z</time></trkpt><trkpt lat="43.70936247308937" lon="12.18258176869862"><ele>708.0</ele><time>2026-04-11T10:09:18.998Z</time></trkpt><trkpt lat="43.70929794172223" lon="12.182740329613184"><ele>705.25</ele><time>2026-04-11T10:09:19.998Z</time></trkpt><trkpt lat="43.70923887612601" lon="12.182904035504816"><ele>702.5</ele><time>2026-04-11T10:09:20.998Z</time></trkpt><trkpt lat="43.70916476096804" lon="12.183056022600327"><ele>699.75</ele><time>2026-04-11T10:09:21.998Z</time></trkpt><trkpt lat="43.70909081715256" lon="12.183205907396676"><ele>697.0</ele><time>2026-04-11T10:09:22.998Z</time></trkpt><trkpt lat="43.70901636384273" lon="12.18335856934174"><ele>697.0</ele><time>2026-04-11T10:09:23.998Z</time></trkpt><trkpt lat="43.70892890801044" lon="12.183493146228857"><ele>697.0</ele><time>2026-04-11T10:09:24.998Z</time></trkpt><trkpt lat="43.708855318291675" lon="12.183640973879378"><ele>697.0</ele><time>2026-04-11T10:09:25.998Z</time></trkpt><trkpt lat="43.70879358316533" lon="12.183796647713875"><ele>697.0</ele><time>2026-04-11T10:09:26.998Z</time></trkpt><trkpt lat="43.70870544776085" lon="12.183922058584159"><ele>697.5</ele><time>2026-04-11T10:09:27.998Z</time></trkpt><trkpt lat="43.70861215800502" lon="12.184035155943088"><ele>698.0</ele><time>2026-04-11T10:09:28.998Z</time></trkpt><trkpt lat="43.708510345192444" lon="12.18412585192147"><ele>698.5</ele><time>2026-04-11T10:09:29.998Z</time></trkpt><trkpt lat="43.70840239955768" lon="12.184194880929741"><ele>699.0</ele><time>2026-04-11T10:09:30.998Z</time></trkpt><trkpt lat="43.70828499749287" lon="12.184248093472863"><ele>697.25</ele><time>2026-04-11T10:09:31.998Z</time></trkpt><trkpt lat="43.70815814223006" lon="12.184280273244761"><ele>695.5</ele><time>2026-04-11T10:09:32.998Z</time></trkpt><trkpt lat="43.70802748991349" lon="12.184294249795688"><ele>693.75</ele><time>2026-04-11T10:09:33.998Z</time></trkpt><trkpt lat="43.70789201522958" lon="12.184278979362295"><ele>692.0</ele><time>2026-04-11T10:09:34.998Z</time></trkpt><trkpt lat="43.70775264953098" lon="12.184252782058204"><ele>691.75</ele><time>2026-04-11T10:09:36Z</time></trkpt><trkpt lat="43.70761178709088" lon="12.184235680744582"><ele>691.5</ele><time>2026-04-11T10:09:37Z</time></trkpt><trkpt lat="43.70746993463898" lon="12.184228868395317"><ele>691.25</ele><time>2026-04-11T10:09:38Z</time></trkpt><trkpt lat="43.707337030852905" lon="12.184216353716412"><ele>691.0</ele><time>2026-04-11T10:09:39Z</time></trkpt><trkpt lat="43.70721207509234" lon="12.18420760870197"><ele>691.0</ele><time>2026-04-11T10:09:40Z</time></trkpt><trkpt lat="43.707089015840005" lon="12.184217962062368"><ele>691.0</ele><time>2026-04-11T10:09:41Z</time></trkpt><trkpt lat="43.70696468031614" lon="12.184254792426913"><ele>691.0</ele><time>2026-04-11T10:09:42Z</time></trkpt><trkpt lat="43.706843179748184" lon="12.184321185380465"><ele>691.0</ele><time>2026-04-11T10:09:43Z</time></trkpt><trkpt lat="43.706728794854314" lon="12.184421518309222"><ele>691.5</ele><time>2026-04-11T10:09:44Z</time></trkpt><trkpt lat="43.70662410080269" lon="12.184529812051663"><ele>692.0</ele><time>2026-04-11T10:09:45Z</time></trkpt><trkpt lat="43.706530154534875" lon="12.184645783738475"><ele>692.5</ele><time>2026-04-11T10:09:46Z</time></trkpt><trkpt lat="43.70644277024326" lon="12.184762562948595"><ele>693.0</ele><time>2026-04-11T10:09:47Z</time></trkpt><trkpt lat="43.7063605476406" lon="12.184878771458937"><ele>692.8</ele><time>2026-04-11T10:09:48Z</time></trkpt><trkpt lat="43.706279112908746" lon="12.184989890591254"><ele>692.5999999999999</ele><time>2026-04-11T10:09:49Z</time></trkpt><trkpt lat="43.70619930187971" lon="12.185093140415372"><ele>692.4000000000001</ele><time>2026-04-11T10:09:50Z</time></trkpt><trkpt lat="43.706121617246644" lon="12.185196964101799"><ele>692.2</ele><time>2026-04-11T10:09:51Z</time></trkpt><trkpt lat="43.706045363641856" lon="12.185308815566028"><ele>692.0</ele><time>2026-04-11T10:09:52Z</time></trkpt><trkpt lat="43.70596714758681" lon="12.185421080200245"><ele>692.0</ele><time>2026-04-11T10:09:53Z</time></trkpt><trkpt lat="43.705885539462734" lon="12.185534841744389"><ele>692.0</ele><time>2026-04-11T10:09:54Z</time></trkpt><trkpt lat="43.705799524258" lon="12.185650494322092"><ele>692.0</ele><time>2026-04-11T10:09:55Z</time></trkpt><trkpt lat="43.705710549038564" lon="12.185770690627658"><ele>692.0</ele><time>2026-04-11T10:09:56Z</time></trkpt><trkpt lat="43.70561559177104" lon="12.18589170152521"><ele>690.5</ele><time>2026-04-11T10:09:57Z</time></trkpt><trkpt lat="43.70551343284225" lon="12.186016245911464"><ele>689.0</ele><time>2026-04-11T10:09:58Z</time></trkpt><trkpt lat="43.705412726547515" lon="12.186147278901375"><ele>687.5</ele><time>2026-04-11T10:09:59Z</time></trkpt><trkpt lat="43.70531312325428" lon="12.18628477448686"><ele>686.0</ele><time>2026-04-11T10:10:00Z</time></trkpt><trkpt lat="43.70520805085837" lon="12.186419903306675"><ele>687.5</ele><time>2026-04-11T10:10:01Z</time></trkpt><trkpt lat="43.70510127671826" lon="12.186549930706835"><ele>689.0</ele><time>2026-04-11T10:10:02Z</time></trkpt><trkpt lat="43.7049925924403" lon="12.18668015361528"><ele>690.5</ele><time>2026-04-11T10:10:03Z</time></trkpt><trkpt lat="43.70488034128765" lon="12.186803318487526"><ele>692.0</ele><time>2026-04-11T10:10:04Z</time></trkpt><trkpt lat="43.70476834932417" lon="12.186925146614367"><ele>692.0</ele><time>2026-04-11T10:10:05Z</time></trkpt><trkpt lat="43.70465999265696" lon="12.18704013533502"><ele>692.0</ele><time>2026-04-11T10:10:06Z</time></trkpt><trkpt lat="43.70455353796842" lon="12.18714727871175"><ele>692.0</ele><time>2026-04-11T10:10:07Z</time></trkpt><trkpt lat="43.704452827368115" lon="12.18725450561042"><ele>692.0</ele><time>2026-04-11T10:10:08Z</time></trkpt><trkpt lat="43.70435182926281" lon="12.187356364784119"><ele>692.0</ele><time>2026-04-11T10:10:08.999Z</time></trkpt><trkpt lat="43.70425220123022" lon="12.187458415760569"><ele>692.0</ele><time>2026-04-11T10:10:09.999Z</time></trkpt><trkpt lat="43.70415304180022" lon="12.187561252360231"><ele>692.0</ele><time>2026-04-11T10:10:10.999Z</time></trkpt><trkpt lat="43.70405466115612" lon="12.187666818177044"><ele>692.0</ele><time>2026-04-11T10:10:11.999Z</time></trkpt><trkpt lat="43.70395740515397" lon="12.187776006761908"><ele>692.0</ele><time>2026-04-11T10:10:12.999Z</time></trkpt><trkpt lat="43.703864461237735" lon="12.18788232893447"><ele>692.0</ele><time>2026-04-11T10:10:13.999Z</time></trkpt><trkpt lat="43.70376906269141" lon="12.187988328197868"><ele>692.0</ele><time>2026-04-11T10:10:14.999Z</time></trkpt><trkpt lat="43.703668494282496" lon="12.188092662579933"><ele>692.0</ele><time>2026-04-11T10:10:15.999Z</time></trkpt><trkpt lat="43.70356498600247" lon="12.188196996744747"><ele>691.25</ele><time>2026-04-11T10:10:16.999Z</time></trkpt><trkpt lat="43.70345924986188" lon="12.188297376536108"><ele>690.5</ele><time>2026-04-11T10:10:17.999Z</time></trkpt><trkpt lat="43.703355705165265" lon="12.18840032685781"><ele>689.75</ele><time>2026-04-11T10:10:18.999Z</time></trkpt><trkpt lat="43.70325450136559" lon="12.188504250083803"><ele>689.0</ele><time>2026-04-11T10:10:19.999Z</time></trkpt><trkpt lat="43.703157472000186" lon="12.188609610106484"><ele>689.0</ele><time>2026-04-11T10:10:20.999Z</time></trkpt><trkpt lat="43.70306594987732" lon="12.188724270874355"><ele>689.0</ele><time>2026-04-11T10:10:21.999Z</time></trkpt><trkpt lat="43.702985471102245" lon="12.188860232569578"><ele>689.0</ele><time>2026-04-11T10:10:22.999Z</time></trkpt><trkpt lat="43.702933610166426" lon="12.189024202430364"><ele>689.0</ele><time>2026-04-11T10:10:23.999Z</time></trkpt><trkpt lat="43.70290256323417" lon="12.189211531457183"><ele>688.25</ele><time>2026-04-11T10:10:24.999Z</time></trkpt><trkpt lat="43.70289169697912" lon="12.189408941660608"><ele>687.5</ele><time>2026-04-11T10:10:25.999Z</time></trkpt><trkpt lat="43.70289929437678" lon="12.1896106145051"><ele>686.75</ele><time>2026-04-11T10:10:26.999Z</time></trkpt><trkpt lat="43.70293842160754" lon="12.189799083313346"><ele>686.0</ele><time>2026-04-11T10:10:27.999Z</time></trkpt><trkpt lat="43.702994370351284" lon="12.189975963936329"><ele>686.0</ele><time>2026-04-11T10:10:28.999Z</time></trkpt><trkpt lat="43.703075499916366" lon="12.190129419067388"><ele>686.0</ele><time>2026-04-11T10:10:29.999Z</time></trkpt><trkpt lat="43.70317184828241" lon="12.190265412776382"><ele>686.0</ele><time>2026-04-11T10:10:30.999Z</time></trkpt><trkpt lat="43.70328924600735" lon="12.190384125482431"><ele>686.0</ele><time>2026-04-11T10:10:31.999Z</time></trkpt><trkpt lat="43.7034195649964" lon="12.190468007681503"><ele>686.0</ele><time>2026-04-11T10:10:32.999Z</time></trkpt><trkpt lat="43.70355595725971" lon="12.190530358371568"><ele>686.0</ele><time>2026-04-11T10:10:33.999Z</time></trkpt><trkpt lat="43.703691501955724" lon="12.190590290071995"><ele>686.0</ele><time>2026-04-11T10:10:34.999Z</time></trkpt><trkpt lat="43.703827570247434" lon="12.190652795057593"><ele>686.0</ele><time>2026-04-11T10:10:35.999Z</time></trkpt><trkpt lat="43.703961423609925" lon="12.190719717292563"><ele>683.5</ele><time>2026-04-11T10:10:36.999Z</time></trkpt><trkpt lat="43.704094961666215" lon="12.190781333631756"><ele>681.0</ele><time>2026-04-11T10:10:37.999Z</time></trkpt><trkpt lat="43.704226058506094" lon="12.190844561532696"><ele>678.5</ele><time>2026-04-11T10:10:38.999Z</time></trkpt><trkpt lat="43.704354340111486" lon="12.190904166820456"><ele>676.0</ele><time>2026-04-11T10:10:39.999Z</time></trkpt><trkpt lat="43.704481083204236" lon="12.190955255030588"><ele>676.0</ele><time>2026-04-11T10:10:40.999Z</time></trkpt><trkpt lat="43.70461032760894" lon="12.190997590905104"><ele>676.0</ele><time>2026-04-11T10:10:41.999Z</time></trkpt><trkpt lat="43.70474387716286" lon="12.191002558522094"><ele>676.0</ele><time>2026-04-11T10:10:42.999Z</time></trkpt><trkpt lat="43.70487663481759" lon="12.19099143875685"><ele>676.0</ele><time>2026-04-11T10:10:43.999Z</time></trkpt><trkpt lat="43.70500737353927" lon="12.190979444883393"><ele>676.0</ele><time>2026-04-11T10:10:44.999Z</time></trkpt><trkpt lat="43.70513848351138" lon="12.190963904499938"><ele>676.0</ele><time>2026-04-11T10:10:45.999Z</time></trkpt><trkpt lat="43.705266218775506" lon="12.190947059350481"><ele>676.0</ele><time>2026-04-11T10:10:46.999Z</time></trkpt><trkpt lat="43.705393226001135" lon="12.190933934204667"><ele>676.0</ele><time>2026-04-11T10:10:47.999Z</time></trkpt><trkpt lat="43.70552180034477" lon="12.190924113274933"><ele>676.0</ele><time>2026-04-11T10:10:48.999Z</time></trkpt><trkpt lat="43.705649217025716" lon="12.190937083472349"><ele>676.0</ele><time>2026-04-11T10:10:49.999Z</time></trkpt><trkpt lat="43.705765569253614" lon="12.190995709040177"><ele>676.0</ele><time>2026-04-11T10:10:50.999Z</time></trkpt><trkpt lat="43.705851174821184" lon="12.191106471867949"><ele>676.0</ele><time>2026-04-11T10:10:51.999Z</time></trkpt><trkpt lat="43.70589699222683" lon="12.19125740297265"><ele>676.0</ele><time>2026-04-11T10:10:52.999Z</time></trkpt><trkpt lat="43.70591235916685" lon="12.1914283892394"><ele>676.0</ele><time>2026-04-11T10:10:53.999Z</time></trkpt><trkpt lat="43.7058904347841" lon="12.1916040082159"><ele>676.0</ele><time>2026-04-11T10:10:54.999Z</time></trkpt><trkpt lat="43.705836169065414" lon="12.191758783269176"><ele>676.0</ele><time>2026-04-11T10:10:55.999Z</time></trkpt><trkpt lat="43.705752769194184" lon="12.191866210015325"><ele>673.25</ele><time>2026-04-11T10:10:56.999Z</time></trkpt><trkpt lat="43.70564079984938" lon="12.191932187129689"><ele>670.5</ele><time>2026-04-11T10:10:57.999Z</time></trkpt><trkpt lat="43.70551049425068" lon="12.191967464199935"><ele>667.75</ele><time>2026-04-11T10:10:58.999Z</time></trkpt><trkpt lat="43.70537624663976" lon="12.192016059771056"><ele>665.0</ele><time>2026-04-11T10:10:59.999Z</time></trkpt><trkpt lat="43.705240659043355" lon="12.192061464059357"><ele>665.0</ele><time>2026-04-11T10:11:00.999Z</time></trkpt><trkpt lat="43.705109740293246" lon="12.192102491747573"><ele>665.0</ele><time>2026-04-11T10:11:01.999Z</time></trkpt><trkpt lat="43.70497913392106" lon="12.19214532701917"><ele>665.0</ele><time>2026-04-11T10:11:02.999Z</time></trkpt><trkpt lat="43.70485057290287" lon="12.192187332820367"><ele>665.0</ele><time>2026-04-11T10:11:03.999Z</time></trkpt><trkpt lat="43.70472656720214" lon="12.192226643652734"><ele>665.0</ele><time>2026-04-11T10:11:04.999Z</time></trkpt><trkpt lat="43.70460547875834" lon="12.192265267805334"><ele>665.0</ele><time>2026-04-11T10:11:05.999Z</time></trkpt><trkpt lat="43.704493663235326" lon="12.192321904154259"><ele>665.0</ele><time>2026-04-11T10:11:06.999Z</time></trkpt><trkpt lat="43.70439743012826" lon="12.192413232085418"><ele>665.0</ele><time>2026-04-11T10:11:07.999Z</time></trkpt><trkpt lat="43.70432112939161" lon="12.192538468081922"><ele>661.5</ele><time>2026-04-11T10:11:08.999Z</time></trkpt><trkpt lat="43.70425820173036" lon="12.192680049889493"><ele>658.0</ele><time>2026-04-11T10:11:09.999Z</time></trkpt><trkpt lat="43.70424435101389" lon="12.19285472102286"><ele>654.5</ele><time>2026-04-11T10:11:10.999Z</time></trkpt><trkpt lat="43.70427913223678" lon="12.19301653730841"><ele>651.0</ele><time>2026-04-11T10:11:11.999Z</time></trkpt><trkpt lat="43.70432741066498" lon="12.193172136863277"><ele>649.5</ele><time>2026-04-11T10:11:12.999Z</time></trkpt><trkpt lat="43.7044134400288" lon="12.193297929316085"><ele>648.0</ele><time>2026-04-11T10:11:13.999Z</time></trkpt><trkpt lat="43.70452961872596" lon="12.193384864665543"><ele>646.5</ele><time>2026-04-11T10:11:14.999Z</time></trkpt><trkpt lat="43.70467094415034" lon="12.193429157337496"><ele>645.0</ele><time>2026-04-11T10:11:15.999Z</time></trkpt><trkpt lat="43.704815036835846" lon="12.193444275558605"><ele>645.0</ele><time>2026-04-11T10:11:16.999Z</time></trkpt><trkpt lat="43.70495775115102" lon="12.19344404175231"><ele>645.0</ele><time>2026-04-11T10:11:17.999Z</time></trkpt><trkpt lat="43.70509373277569" lon="12.193448867435379"><ele>645.0</ele><time>2026-04-11T10:11:18.999Z</time></trkpt><trkpt lat="43.70523522989812" lon="12.19345323648912"><ele>645.0</ele><time>2026-04-11T10:11:19.999Z</time></trkpt><trkpt lat="43.70537113939779" lon="12.193458684882845"><ele>644.25</ele><time>2026-04-11T10:11:20.999Z</time></trkpt><trkpt lat="43.70550830138899" lon="12.19346347969439"><ele>643.5</ele><time>2026-04-11T10:11:21.999Z</time></trkpt><trkpt lat="43.70564067034637" lon="12.193486408970443"><ele>642.75</ele><time>2026-04-11T10:11:22.999Z</time></trkpt><trkpt lat="43.70577215053974" lon="12.19352058055186"><ele>642.0</ele><time>2026-04-11T10:11:23.999Z</time></trkpt><trkpt lat="43.705901203931845" lon="12.193579307250937"><ele>642.0</ele><time>2026-04-11T10:11:24.999Z</time></trkpt><trkpt lat="43.70602169877005" lon="12.193669484622472"><ele>642.0</ele><time>2026-04-11T10:11:25.999Z</time></trkpt><trkpt lat="43.70613011767423" lon="12.193787077437245"><ele>642.0</ele><time>2026-04-11T10:11:26.999Z</time></trkpt><trkpt lat="43.706239670935716" lon="12.193894043469678"><ele>642.0</ele><time>2026-04-11T10:11:27.999Z</time></trkpt><trkpt lat="43.706339606476654" lon="12.194003029824188"><ele>639.25</ele><time>2026-04-11T10:11:28.998Z</time></trkpt><trkpt lat="43.70644877934605" lon="12.194110192540485"><ele>636.5</ele><time>2026-04-11T10:11:29.998Z</time></trkpt><trkpt lat="43.70655394389529" lon="12.194215568544298"><ele>633.75</ele><time>2026-04-11T10:11:30.998Z</time></trkpt><trkpt lat="43.70665626213248" lon="12.194316856208534"><ele>631.0</ele><time>2026-04-11T10:11:31.998Z</time></trkpt><trkpt lat="43.706759481480795" lon="12.194419199171085"><ele>631.0</ele><time>2026-04-11T10:11:32.998Z</time></trkpt><trkpt lat="43.70685995583618" lon="12.19451550369573"><ele>631.0</ele><time>2026-04-11T10:11:33.998Z</time></trkpt><trkpt lat="43.70695894857275" lon="12.194611957401543"><ele>631.0</ele><time>2026-04-11T10:11:34.998Z</time></trkpt><trkpt lat="43.707058348475904" lon="12.194711961222866"><ele>631.0</ele><time>2026-04-11T10:11:35.998Z</time></trkpt><trkpt lat="43.70715731675436" lon="12.194808327168738"><ele>629.25</ele><time>2026-04-11T10:11:36.998Z</time></trkpt><trkpt lat="43.70725763895234" lon="12.194904352475525"><ele>627.5</ele><time>2026-04-11T10:11:37.998Z</time></trkpt><trkpt lat="43.707359618991966" lon="12.195006756134738"><ele>625.75</ele><time>2026-04-11T10:11:38.998Z</time></trkpt><trkpt lat="43.707467481845114" lon="12.195111091241767"><ele>624.0</ele><time>2026-04-11T10:11:39.998Z</time></trkpt><trkpt lat="43.707574201215245" lon="12.195218546938952"><ele>624.0</ele><time>2026-04-11T10:11:40.998Z</time></trkpt><trkpt lat="43.707682649872396" lon="12.195320398702519"><ele>624.0</ele><time>2026-04-11T10:11:42Z</time></trkpt><trkpt lat="43.707790498516566" lon="12.19541920924037"><ele>624.0</ele><time>2026-04-11T10:11:43Z</time></trkpt><trkpt lat="43.707906369846185" lon="12.195505616102414"><ele>624.0</ele><time>2026-04-11T10:11:44Z</time></trkpt><trkpt lat="43.70803980009766" lon="12.195576594576744"><ele>622.0</ele><time>2026-04-11T10:11:45Z</time></trkpt><trkpt lat="43.70818478865816" lon="12.195629449562361"><ele>620.0</ele><time>2026-04-11T10:11:46Z</time></trkpt><trkpt lat="43.70833703523391" lon="12.19566692933702"><ele>618.0</ele><time>2026-04-11T10:11:47Z</time></trkpt><trkpt lat="43.70848516249578" lon="12.195671931030821"><ele>616.0</ele><time>2026-04-11T10:11:48Z</time></trkpt><trkpt lat="43.708635159478824" lon="12.195648566375644"><ele>614.0</ele><time>2026-04-11T10:11:49Z</time></trkpt><trkpt lat="43.708777312419315" lon="12.195612992003463"><ele>612.0</ele><time>2026-04-11T10:11:50Z</time></trkpt><trkpt lat="43.708914280010006" lon="12.195557002286522"><ele>610.0</ele><time>2026-04-11T10:11:51Z</time></trkpt><trkpt lat="43.70904598170854" lon="12.19548868726835"><ele>610.0</ele><time>2026-04-11T10:11:52Z</time></trkpt><trkpt lat="43.70917213969134" lon="12.195395835004662"><ele>610.0</ele><time>2026-04-11T10:11:53Z</time></trkpt><trkpt lat="43.70929104469673" lon="12.19528480323682"><ele>610.0</ele><time>2026-04-11T10:11:54Z</time></trkpt><trkpt lat="43.70939345985694" lon="12.19516009978327"><ele>610.0</ele><time>2026-04-11T10:11:55Z</time></trkpt><trkpt lat="43.70948721223828" lon="12.19502463874273"><ele>606.0</ele><time>2026-04-11T10:11:56Z</time></trkpt><trkpt lat="43.709571032553285" lon="12.194876815003772"><ele>602.0</ele><time>2026-04-11T10:11:57Z</time></trkpt><trkpt lat="43.709641530215606" lon="12.19471487402055"><ele>598.0</ele><time>2026-04-11T10:11:58Z</time></trkpt><trkpt lat="43.70970155339849" lon="12.19454257891983"><ele>594.0</ele><time>2026-04-11T10:11:59Z</time></trkpt><trkpt lat="43.70975805791665" lon="12.194368902247891"><ele>594.0</ele><time>2026-04-11T10:12:00Z</time></trkpt><trkpt lat="43.70981677474565" lon="12.194196041296486"><ele>594.0</ele><time>2026-04-11T10:12:01Z</time></trkpt><trkpt lat="43.70987634519592" lon="12.194019118267246"><ele>594.0</ele><time>2026-04-11T10:12:02Z</time></trkpt><trkpt lat="43.70992981590664" lon="12.193842406945336"><ele>594.0</ele><time>2026-04-11T10:12:03Z</time></trkpt><trkpt lat="43.709983078110014" lon="12.193669920200344"><ele>593.25</ele><time>2026-04-11T10:12:04Z</time></trkpt><trkpt lat="43.710039170082105" lon="12.193503084621197"><ele>592.5</ele><time>2026-04-11T10:12:05Z</time></trkpt><trkpt lat="43.71010064215135" lon="12.193334694786811"><ele>591.75</ele><time>2026-04-11T10:12:06Z</time></trkpt><trkpt lat="43.710178754163735" lon="12.193170061302206"><ele>591.0</ele><time>2026-04-11T10:12:07Z</time></trkpt><trkpt lat="43.71027067904274" lon="12.193018188948239"><ele>591.0</ele><time>2026-04-11T10:12:08Z</time></trkpt><trkpt lat="43.71037277385006" lon="12.192883376738822"><ele>591.0</ele><time>2026-04-11T10:12:09Z</time></trkpt><trkpt lat="43.710483454966464" lon="12.192764130462491"><ele>591.0</ele><time>2026-04-11T10:12:10Z</time></trkpt><trkpt lat="43.710602044918154" lon="12.192665712731285"><ele>591.0</ele><time>2026-04-11T10:12:11Z</time></trkpt><trkpt lat="43.7107242054579" lon="12.192580274979056"><ele>591.0</ele><time>2026-04-11T10:12:12Z</time></trkpt><trkpt lat="43.7108481123766" lon="12.192499838855872"><ele>591.0</ele><time>2026-04-11T10:12:13Z</time></trkpt><trkpt lat="43.710972858444514" lon="12.192425986527958"><ele>591.0</ele><time>2026-04-11T10:12:14Z</time></trkpt><trkpt lat="43.71109696874787" lon="12.192359273371194"><ele>591.0</ele><time>2026-04-11T10:12:14.999Z</time></trkpt><trkpt lat="43.711225217099205" lon="12.192306731259507"><ele>591.0</ele><time>2026-04-11T10:12:15.999Z</time></trkpt><trkpt lat="43.71135771425616" lon="12.192268067905184"><ele>591.0</ele><time>2026-04-11T10:12:16.999Z</time></trkpt><trkpt lat="43.71149133665786" lon="12.192247827277388"><ele>591.0</ele><time>2026-04-11T10:12:17.999Z</time></trkpt><trkpt lat="43.71162503647747" lon="12.192246914816797"><ele>591.0</ele><time>2026-04-11T10:12:18.999Z</time></trkpt><trkpt lat="43.71175483266276" lon="12.192286473911247"><ele>589.0</ele><time>2026-04-11T10:12:19.999Z</time></trkpt><trkpt lat="43.71187813589279" lon="12.192359098025353"><ele>587.0</ele><time>2026-04-11T10:12:20.999Z</time></trkpt><trkpt lat="43.71199513910173" lon="12.192459469315475"><ele>585.0</ele><time>2026-04-11T10:12:21.999Z</time></trkpt><trkpt lat="43.71209742935822" lon="12.192591679665568"><ele>583.0</ele><time>2026-04-11T10:12:22.999Z</time></trkpt><trkpt lat="43.71219679075445" lon="12.192721683994233"><ele>581.0</ele><time>2026-04-11T10:12:23.999Z</time></trkpt><trkpt lat="43.71229270907895" lon="12.192861141906613"><ele>579.0</ele><time>2026-04-11T10:12:24.999Z</time></trkpt><trkpt lat="43.712374923513565" lon="12.192988052430652"><ele>577.0</ele><time>2026-04-11T10:12:25.999Z</time></trkpt><trkpt lat="43.712450276976135" lon="12.19310531496183"><ele>575.0</ele><time>2026-04-11T10:12:26.999Z</time></trkpt><trkpt lat="43.71251846477949" lon="12.193213917515452"><ele>573.6</ele><time>2026-04-11T10:12:27.999Z</time></trkpt><trkpt lat="43.71259445793842" lon="12.193320807024138"><ele>572.2</ele><time>2026-04-11T10:12:28.999Z</time></trkpt><trkpt lat="43.71266265876167" lon="12.193437043493248"><ele>570.8</ele><time>2026-04-11T10:12:29.999Z</time></trkpt><trkpt lat="43.71272823194049" lon="12.193549719042057"><ele>569.4</ele><time>2026-04-11T10:12:30.999Z</time></trkpt><trkpt lat="43.712792228263375" lon="12.19364496919938"><ele>568.0</ele><time>2026-04-11T10:12:31.999Z</time></trkpt><trkpt lat="43.71285310108373" lon="12.193731339972597"><ele>566.3333333333334</ele><time>2026-04-11T10:12:32.999Z</time></trkpt><trkpt lat="43.712917391698575" lon="12.193787160631842"><ele>564.6666666666667</ele><time>2026-04-11T10:12:33.999Z</time></trkpt><trkpt lat="43.712954576134834" lon="12.19386907447016"><ele>563.0</ele><time>2026-04-11T10:12:34.999Z</time></trkpt><trkpt lat="43.71303398628167" lon="12.193975879996472"><ele>561.3333333333334</ele><time>2026-04-11T10:12:36.999Z</time></trkpt><trkpt lat="43.71308463644753" lon="12.19404491676164"><ele>559.6666666666666</ele><time>2026-04-11T10:12:38.999Z</time></trkpt><trkpt lat="43.71315541479707" lon="12.194083460284501"><ele>558.0</ele><time>2026-04-11T10:13:53Z</time></trkpt><trkpt lat="43.713230367427656" lon="12.194175649170292"><ele>557.6</ele><time>2026-04-11T10:13:55Z</time></trkpt><trkpt lat="43.713322317591576" lon="12.194319626681155"><ele>557.1999999999999</ele><time>2026-04-11T10:13:57Z</time></trkpt><trkpt lat="43.713370904314495" lon="12.194426340418321"><ele>556.8</ele><time>2026-04-11T10:13:58Z</time></trkpt><trkpt lat="43.71342929760133" lon="12.194503367240198"><ele>556.4</ele><time>2026-04-11T10:13:59Z</time></trkpt><trkpt lat="43.71349088985323" lon="12.194584613867525"><ele>556.0</ele><time>2026-04-11T10:14:00Z</time></trkpt><trkpt lat="43.713555411543204" lon="12.194669724719358"><ele>552.2</ele><time>2026-04-11T10:14:01Z</time></trkpt><trkpt lat="43.71362433716175" lon="12.194760644805648"><ele>548.4000000000001</ele><time>2026-04-11T10:14:02Z</time></trkpt><trkpt lat="43.71369779418669" lon="12.1948575684379"><ele>544.6</ele><time>2026-04-11T10:14:03Z</time></trkpt><trkpt lat="43.713770968855215" lon="12.194954243966306"><ele>540.8000000000001</ele><time>2026-04-11T10:14:04Z</time></trkpt><trkpt lat="43.713848086888895" lon="12.195056129371565"><ele>537.0</ele><time>2026-04-11T10:14:05Z</time></trkpt><trkpt lat="43.71392653494" lon="12.195159771850062"><ele>536.8000000000001</ele><time>2026-04-11T10:14:06Z</time></trkpt><trkpt lat="43.71400675455821" lon="12.195265754921676"><ele>536.6</ele><time>2026-04-11T10:14:07Z</time></trkpt><trkpt lat="43.71408854664275" lon="12.195373815539872"><ele>536.4000000000001</ele><time>2026-04-11T10:14:08Z</time></trkpt><trkpt lat="43.71416550146747" lon="12.195475485256505"><ele>536.2</ele><time>2026-04-11T10:14:09Z</time></trkpt><trkpt lat="43.714239291987276" lon="12.195572974447463"><ele>536.0</ele><time>2026-04-11T10:14:10Z</time></trkpt><trkpt lat="43.7143216499164" lon="12.19568258469951"><ele>536.0</ele><time>2026-04-11T10:14:11Z</time></trkpt><trkpt lat="43.71440382639549" lon="12.195792029741787"><ele>536.0</ele><time>2026-04-11T10:14:12Z</time></trkpt><trkpt lat="43.714482332610366" lon="12.19589658653987"><ele>536.0</ele><time>2026-04-11T10:14:13Z</time></trkpt><trkpt lat="43.71456271428626" lon="12.196003641124095"><ele>536.0</ele><time>2026-04-11T10:14:14Z</time></trkpt><trkpt lat="43.71464349842939" lon="12.196111231866805"><ele>536.0</ele><time>2026-04-11T10:14:15Z</time></trkpt><trkpt lat="43.71472403285893" lon="12.196217835916961"><ele>535.2</ele><time>2026-04-11T10:14:16Z</time></trkpt><trkpt lat="43.714815561633344" lon="12.196301540713034"><ele>534.4000000000001</ele><time>2026-04-11T10:14:17Z</time></trkpt><trkpt lat="43.714899877534535" lon="12.196391319352202"><ele>533.6</ele><time>2026-04-11T10:14:18Z</time></trkpt><trkpt lat="43.71499507392862" lon="12.19647386310971"><ele>532.8000000000001</ele><time>2026-04-11T10:14:19Z</time></trkpt><trkpt lat="43.71510160706368" lon="12.196544433247206"><ele>532.0</ele><time>2026-04-11T10:14:20Z</time></trkpt><trkpt lat="43.71521708302018" lon="12.196594536792842"><ele>535.6</ele><time>2026-04-11T10:14:21Z</time></trkpt><trkpt lat="43.715334090964035" lon="12.196626957279554"><ele>539.2</ele><time>2026-04-11T10:14:22Z</time></trkpt><trkpt lat="43.71544748696788" lon="12.196648557938573"><ele>542.8</ele><time>2026-04-11T10:14:23Z</time></trkpt><trkpt lat="43.71555654830157" lon="12.196653207565541"><ele>546.4</ele><time>2026-04-11T10:14:24Z</time></trkpt><trkpt lat="43.715660243808266" lon="12.19663968395555"><ele>550.0</ele><time>2026-04-11T10:14:25Z</time></trkpt><trkpt lat="43.71576154255407" lon="12.196614508394672"><ele>550.0</ele><time>2026-04-11T10:14:26Z</time></trkpt><trkpt lat="43.715851857629" lon="12.196580846807594"><ele>550.0</ele><time>2026-04-11T10:14:27Z</time></trkpt><trkpt lat="43.715931718433055" lon="12.1965405276465"><ele>550.0</ele><time>2026-04-11T10:14:27.999Z</time></trkpt><trkpt lat="43.71600538681709" lon="12.196497257972071"><ele>550.0</ele><time>2026-04-11T10:14:28.999Z</time></trkpt><trkpt lat="43.71607290229359" lon="12.19645335362154"><ele>550.0</ele><time>2026-04-11T10:14:29.999Z</time></trkpt><trkpt lat="43.716135871592904" lon="12.196413163168346"><ele>550.0</ele><time>2026-04-11T10:14:30.999Z</time></trkpt><trkpt lat="43.71620004663081" lon="12.196388653056358"><ele>550.5</ele><time>2026-04-11T10:14:31.999Z</time></trkpt><trkpt lat="43.71626474782032" lon="12.196411392752987"><ele>551.0</ele><time>2026-04-11T10:14:32.999Z</time></trkpt><trkpt lat="43.71633813225648" lon="12.196551098150998"><ele>551.5</ele><time>2026-04-11T10:14:34.999Z</time></trkpt><trkpt lat="43.71633671654516" lon="12.196646055483283"><ele>552.0</ele><time>2026-04-11T10:14:35.999Z</time></trkpt><trkpt lat="43.71629643228556" lon="12.196731858929967"><ele>552.5</ele><time>2026-04-11T10:14:36.999Z</time></trkpt><trkpt lat="43.71622787965447" lon="12.196797665667946"><ele>553.0</ele><time>2026-04-11T10:14:37.999Z</time></trkpt><trkpt lat="43.71614712243811" lon="12.196818732247289"><ele>552.4</ele><time>2026-04-11T10:14:38.999Z</time></trkpt><trkpt lat="43.71605663646111" lon="12.196803921801628"><ele>551.8</ele><time>2026-04-11T10:14:39.999Z</time></trkpt><trkpt lat="43.7159631769298" lon="12.196791113294628"><ele>551.2</ele><time>2026-04-11T10:14:40.999Z</time></trkpt><trkpt lat="43.71585983222531" lon="12.196794391483907"><ele>550.6</ele><time>2026-04-11T10:14:41.999Z</time></trkpt><trkpt lat="43.71575037567139" lon="12.196820830571518"><ele>550.0</ele><time>2026-04-11T10:14:42.999Z</time></trkpt><trkpt lat="43.71564072820932" lon="12.196876040500674"><ele>550.0</ele><time>2026-04-11T10:14:43.999Z</time></trkpt><trkpt lat="43.71553654843184" lon="12.196952896541259"><ele>550.0</ele><time>2026-04-11T10:14:44.999Z</time></trkpt><trkpt lat="43.71543084454667" lon="12.197040515995313"><ele>550.0</ele><time>2026-04-11T10:14:45.999Z</time></trkpt><trkpt lat="43.71532573354237" lon="12.197129017342805"><ele>550.0</ele><time>2026-04-11T10:14:46.999Z</time></trkpt><trkpt lat="43.71521148276996" lon="12.197227898995894"><ele>549.25</ele><time>2026-04-11T10:14:47.999Z</time></trkpt><trkpt lat="43.71510218634138" lon="12.197328171532577"><ele>548.5</ele><time>2026-04-11T10:14:48.999Z</time></trkpt><trkpt lat="43.71499400702222" lon="12.197422271213378"><ele>547.75</ele><time>2026-04-11T10:14:49.999Z</time></trkpt><trkpt lat="43.714887951620774" lon="12.197513986420287"><ele>547.0</ele><time>2026-04-11T10:14:50.999Z</time></trkpt><trkpt lat="43.71478490044026" lon="12.197604552964991"><ele>547.0</ele><time>2026-04-11T10:14:51.999Z</time></trkpt><trkpt lat="43.71468687127909" lon="12.197693264367803"><ele>547.0</ele><time>2026-04-11T10:14:52.999Z</time></trkpt><trkpt lat="43.71459248374479" lon="12.197780236512916"><ele>547.0</ele><time>2026-04-11T10:14:53.999Z</time></trkpt><trkpt lat="43.71449620539414" lon="12.197862139145027"><ele>547.0</ele><time>2026-04-11T10:14:54.999Z</time></trkpt><trkpt lat="43.71439959490309" lon="12.197945198692794"><ele>546.75</ele><time>2026-04-11T10:14:55.999Z</time></trkpt><trkpt lat="43.714307291216016" lon="12.198028669816322"><ele>546.5</ele><time>2026-04-11T10:14:56.999Z</time></trkpt><trkpt lat="43.71421331036637" lon="12.198119778505477"><ele>546.25</ele><time>2026-04-11T10:14:57.999Z</time></trkpt><trkpt lat="43.71412319371171" lon="12.198219156629696"><ele>546.0</ele><time>2026-04-11T10:14:58.999Z</time></trkpt><trkpt lat="43.714039890638105" lon="12.19833399524248"><ele>546.0</ele><time>2026-04-11T10:14:59.999Z</time></trkpt><trkpt lat="43.71396359704058" lon="12.198460767427267"><ele>546.0</ele><time>2026-04-11T10:15:00.999Z</time></trkpt><trkpt lat="43.71388622213167" lon="12.198592133629088"><ele>546.0</ele><time>2026-04-11T10:15:01.999Z</time></trkpt><trkpt lat="43.71380511448355" lon="12.198720943087741"><ele>546.0</ele><time>2026-04-11T10:15:02.999Z</time></trkpt><trkpt lat="43.71372488607177" lon="12.198853799457428"><ele>546.0</ele><time>2026-04-11T10:15:03.999Z</time></trkpt><trkpt lat="43.713646258731956" lon="12.198986275699681"><ele>546.0</ele><time>2026-04-11T10:15:04.999Z</time></trkpt><trkpt lat="43.713572722881025" lon="12.19911586404315"><ele>546.0</ele><time>2026-04-11T10:15:05.999Z</time></trkpt><trkpt lat="43.713500665172" lon="12.199244984388573"><ele>546.0</ele><time>2026-04-11T10:15:06.999Z</time></trkpt><trkpt lat="43.7134263917295" lon="12.199371619645795"><ele>546.0</ele><time>2026-04-11T10:15:07.999Z</time></trkpt><trkpt lat="43.71335502787601" lon="12.199489735800444"><ele>546.0</ele><time>2026-04-11T10:15:08.999Z</time></trkpt><trkpt lat="43.71328271657117" lon="12.19960420534146"><ele>546.0</ele><time>2026-04-11T10:15:09.999Z</time></trkpt><trkpt lat="43.71321827216432" lon="12.199717981156484"><ele>546.0</ele><time>2026-04-11T10:15:10.999Z</time></trkpt><trkpt lat="43.713150549502984" lon="12.199825572073884"><ele>546.0</ele><time>2026-04-11T10:15:11.999Z</time></trkpt><trkpt lat="43.713072473157936" lon="12.199920536071616"><ele>546.0</ele><time>2026-04-11T10:15:12.999Z</time></trkpt><trkpt lat="43.71297710972289" lon="12.199988068911447"><ele>546.0</ele><time>2026-04-11T10:15:13.999Z</time></trkpt><trkpt lat="43.71287493299213" lon="12.200037393971837"><ele>546.0</ele><time>2026-04-11T10:15:14.999Z</time></trkpt><trkpt lat="43.712759946441274" lon="12.200030144086949"><ele>546.0</ele><time>2026-04-11T10:15:15.999Z</time></trkpt><trkpt lat="43.71265821851515" lon="12.200041349457445"><ele>546.0</ele><time>2026-04-11T10:15:16.999Z</time></trkpt><trkpt lat="43.71255378990729" lon="12.20011770630935"><ele>545.8</ele><time>2026-04-11T10:15:17.999Z</time></trkpt><trkpt lat="43.71250358773266" lon="12.200248999916427"><ele>545.6</ele><time>2026-04-11T10:15:18.999Z</time></trkpt><trkpt lat="43.71245714112874" lon="12.20037008447985"><ele>545.4</ele><time>2026-04-11T10:15:19.999Z</time></trkpt><trkpt lat="43.7123908248901" lon="12.20048779327513"><ele>545.2</ele><time>2026-04-11T10:15:20.999Z</time></trkpt><trkpt lat="43.71234080625289" lon="12.200617746940354"><ele>545.0</ele><time>2026-04-11T10:15:21.999Z</time></trkpt><trkpt lat="43.71230434762104" lon="12.200763041056682"><ele>545.0</ele><time>2026-04-11T10:15:22.999Z</time></trkpt><trkpt lat="43.71225423664943" lon="12.200891043617078"><ele>545.0</ele><time>2026-04-11T10:15:23.999Z</time></trkpt><trkpt lat="43.71221028718788" lon="12.201026148138414"><ele>545.0</ele><time>2026-04-11T10:15:24.999Z</time></trkpt><trkpt lat="43.71220147898603" lon="12.201170807830781"><ele>545.0</ele><time>2026-04-11T10:15:25.999Z</time></trkpt><trkpt lat="43.71222903253701" lon="12.201313121220865"><ele>545.0</ele><time>2026-04-11T10:15:26.999Z</time></trkpt><trkpt lat="43.71228964550882" lon="12.201443662509286"><ele>544.75</ele><time>2026-04-11T10:15:27.999Z</time></trkpt><trkpt lat="43.712379584083905" lon="12.201554555061731"><ele>544.5</ele><time>2026-04-11T10:15:28.999Z</time></trkpt><trkpt lat="43.712490571551854" lon="12.201622903717755"><ele>544.25</ele><time>2026-04-11T10:15:29.999Z</time></trkpt><trkpt lat="43.712607409445816" lon="12.201675107710651"><ele>544.0</ele><time>2026-04-11T10:15:30.999Z</time></trkpt><trkpt lat="43.71271779784729" lon="12.201735190878564"><ele>545.5</ele><time>2026-04-11T10:15:31.999Z</time></trkpt><trkpt lat="43.71281765276615" lon="12.201805343976506"><ele>547.0</ele><time>2026-04-11T10:15:32.999Z</time></trkpt><trkpt lat="43.71291082205039" lon="12.201904315355272"><ele>548.5</ele><time>2026-04-11T10:15:33.999Z</time></trkpt><trkpt lat="43.71297367283006" lon="12.2020440487972"><ele>550.0</ele><time>2026-04-11T10:15:34.999Z</time></trkpt><trkpt lat="43.71299628269776" lon="12.202201773273318"><ele>550.0</ele><time>2026-04-11T10:15:35.999Z</time></trkpt><trkpt lat="43.712986909469166" lon="12.202344512916175"><ele>550.0</ele><time>2026-04-11T10:15:36.999Z</time></trkpt><trkpt lat="43.71295541442734" lon="12.202467132825861"><ele>550.0</ele><time>2026-04-11T10:15:37.999Z</time></trkpt><trkpt lat="43.712892614763554" lon="12.20256286355974"><ele>550.0</ele><time>2026-04-11T10:15:38.999Z</time></trkpt><trkpt lat="43.71281615105208" lon="12.20260669886849"><ele>550.0</ele><time>2026-04-11T10:15:39.999Z</time></trkpt><trkpt lat="43.71272778433827" lon="12.202600699277886"><ele>549.4</ele><time>2026-04-11T10:15:40.999Z</time></trkpt><trkpt lat="43.71263203826116" lon="12.202561802552019"><ele>548.8</ele><time>2026-04-11T10:15:41.999Z</time></trkpt><trkpt lat="43.712521842180344" lon="12.202539642514713"><ele>548.2</ele><time>2026-04-11T10:15:42.999Z</time></trkpt><trkpt lat="43.712417151362466" lon="12.202506471540032"><ele>547.6</ele><time>2026-04-11T10:15:43.999Z</time></trkpt><trkpt lat="43.71229709861702" lon="12.202477412191673"><ele>547.0</ele><time>2026-04-11T10:15:44.999Z</time></trkpt><trkpt lat="43.71219933784725" lon="12.202536029970185"><ele>547.0</ele><time>2026-04-11T10:15:45.999Z</time></trkpt><trkpt lat="43.712102625556156" lon="12.20259543438106"><ele>547.0</ele><time>2026-04-11T10:15:46.999Z</time></trkpt><trkpt lat="43.712014793936376" lon="12.202690568434514"><ele>547.0</ele><time>2026-04-11T10:15:47.999Z</time></trkpt><trkpt lat="43.71193558554897" lon="12.202806543128784"><ele>547.0</ele><time>2026-04-11T10:15:48.998Z</time></trkpt><trkpt lat="43.7118637483663" lon="12.202934070302828"><ele>546.5</ele><time>2026-04-11T10:15:49.998Z</time></trkpt><trkpt lat="43.71178563399544" lon="12.203061816959043"><ele>546.0</ele><time>2026-04-11T10:15:50.998Z</time></trkpt><trkpt lat="43.71171217688716" lon="12.203190701967731"><ele>545.5</ele><time>2026-04-11T10:15:51.998Z</time></trkpt><trkpt lat="43.71164788704282" lon="12.203326636455243"><ele>545.0</ele><time>2026-04-11T10:15:52.998Z</time></trkpt><trkpt lat="43.71157957833978" lon="12.203461095489638"><ele>546.75</ele><time>2026-04-11T10:15:54Z</time></trkpt><trkpt lat="43.71157202544495" lon="12.203631849463182"><ele>548.5</ele><time>2026-04-11T10:15:55Z</time></trkpt><trkpt lat="43.711556260639455" lon="12.203791013183984"><ele>550.25</ele><time>2026-04-11T10:15:56Z</time></trkpt><trkpt lat="43.7115387088751" lon="12.203948325798764"><ele>552.0</ele><time>2026-04-11T10:15:57Z</time></trkpt><trkpt lat="43.7115251300595" lon="12.204109069164026"><ele>553.0</ele><time>2026-04-11T10:15:58Z</time></trkpt><trkpt lat="43.711512941137734" lon="12.204273228752937"><ele>554.0</ele><time>2026-04-11T10:15:59Z</time></trkpt><trkpt lat="43.71150242353308" lon="12.204441518822371"><ele>555.0</ele><time>2026-04-11T10:16:00Z</time></trkpt><trkpt lat="43.711489324685495" lon="12.204613704425181"><ele>556.0</ele><time>2026-04-11T10:16:01Z</time></trkpt><trkpt lat="43.71147523013998" lon="12.204789300159335"><ele>557.75</ele><time>2026-04-11T10:16:02Z</time></trkpt><trkpt lat="43.71146110373658" lon="12.204958835881"><ele>559.5</ele><time>2026-04-11T10:16:03Z</time></trkpt><trkpt lat="43.71145120779014" lon="12.205112666728002"><ele>561.25</ele><time>2026-04-11T10:16:04Z</time></trkpt><trkpt lat="43.71141982246415" lon="12.205259959475248"><ele>563.0</ele><time>2026-04-11T10:16:05Z</time></trkpt><trkpt lat="43.71136669616582" lon="12.205406984401568"><ele>563.0</ele><time>2026-04-11T10:16:06Z</time></trkpt><trkpt lat="43.7112894894784" lon="12.205542352523699"><ele>563.0</ele><time>2026-04-11T10:16:07Z</time></trkpt><trkpt lat="43.7112001096982" lon="12.205654651555685"><ele>563.0</ele><time>2026-04-11T10:16:08Z</time></trkpt><trkpt lat="43.71111036679033" lon="12.205767147329267"><ele>563.0</ele><time>2026-04-11T10:16:09Z</time></trkpt><trkpt lat="43.711012790360286" lon="12.205867916996587"><ele>564.25</ele><time>2026-04-11T10:16:10Z</time></trkpt><trkpt lat="43.710905873644684" lon="12.205941286826855"><ele>565.5</ele><time>2026-04-11T10:16:11Z</time></trkpt><trkpt lat="43.71078747655481" lon="12.205973407209326"><ele>566.75</ele><time>2026-04-11T10:16:12Z</time></trkpt><trkpt lat="43.71066391388359" lon="12.20598509751783"><ele>568.0</ele><time>2026-04-11T10:16:13Z</time></trkpt><trkpt lat="43.71054324944804" lon="12.205973692209296"><ele>568.0</ele><time>2026-04-11T10:16:14Z</time></trkpt><trkpt lat="43.71042710823115" lon="12.20595995972068"><ele>568.0</ele><time>2026-04-11T10:16:15Z</time></trkpt><trkpt lat="43.71032493130458" lon="12.205997111141855"><ele>568.0</ele><time>2026-04-11T10:16:16Z</time></trkpt><trkpt lat="43.710238272033614" lon="12.20609853712306"><ele>568.0</ele><time>2026-04-11T10:16:17Z</time></trkpt><trkpt lat="43.710180835976686" lon="12.206222254736248"><ele>568.0</ele><time>2026-04-11T10:16:18Z</time></trkpt><trkpt lat="43.71013098122154" lon="12.206354013796714"><ele>567.75</ele><time>2026-04-11T10:16:19Z</time></trkpt><trkpt lat="43.710086523039834" lon="12.206490936068509"><ele>567.5</ele><time>2026-04-11T10:16:20Z</time></trkpt><trkpt lat="43.71004230885051" lon="12.206636380925383"><ele>567.25</ele><time>2026-04-11T10:16:21Z</time></trkpt><trkpt lat="43.70999350285218" lon="12.206783530764925"><ele>567.0</ele><time>2026-04-11T10:16:22Z</time></trkpt><trkpt lat="43.70994684588603" lon="12.206929612890857"><ele>568.8000000000001</ele><time>2026-04-11T10:16:23Z</time></trkpt><trkpt lat="43.709903931359875" lon="12.207076807397117"><ele>570.6</ele><time>2026-04-11T10:16:24Z</time></trkpt><trkpt lat="43.709854970514705" lon="12.207219410657968"><ele>572.4000000000001</ele><time>2026-04-11T10:16:25Z</time></trkpt><trkpt lat="43.7097944587766" lon="12.207341009858103"><ele>574.2</ele><time>2026-04-11T10:16:26Z</time></trkpt><trkpt lat="43.70972100380986" lon="12.2074431401183"><ele>576.0</ele><time>2026-04-11T10:16:27Z</time></trkpt><trkpt lat="43.7096489160373" lon="12.20754494604334"><ele>576.2</ele><time>2026-04-11T10:16:28Z</time></trkpt><trkpt lat="43.70957885815115" lon="12.207656187326899"><ele>576.4000000000001</ele><time>2026-04-11T10:16:29Z</time></trkpt><trkpt lat="43.709508351906585" lon="12.207768384042858"><ele>576.6</ele><time>2026-04-11T10:16:30Z</time></trkpt><trkpt lat="43.709434774891754" lon="12.207874654084632"><ele>576.8000000000001</ele><time>2026-04-11T10:16:31Z</time></trkpt><trkpt lat="43.70936191273881" lon="12.207987220259062"><ele>577.0</ele><time>2026-04-11T10:16:32Z</time></trkpt><trkpt lat="43.70929100062625" lon="12.208100048166227"><ele>578.2</ele><time>2026-04-11T10:16:33Z</time></trkpt><trkpt lat="43.70921701853479" lon="12.208216049103697"><ele>579.4000000000001</ele><time>2026-04-11T10:16:34Z</time></trkpt><trkpt lat="43.70913665285917" lon="12.208323103496305"><ele>580.5999999999999</ele><time>2026-04-11T10:16:35Z</time></trkpt><trkpt lat="43.70905770564739" lon="12.208430652814968"><ele>581.8</ele><time>2026-04-11T10:16:36Z</time></trkpt><trkpt lat="43.70898801235082" lon="12.208536165707118"><ele>583.0</ele><time>2026-04-11T10:16:37Z</time></trkpt><trkpt lat="43.70892673234377" lon="12.208645529778979"><ele>583.0</ele><time>2026-04-11T10:16:38Z</time></trkpt><trkpt lat="43.70887733712645" lon="12.208759987376515"><ele>583.0</ele><time>2026-04-11T10:16:39Z</time></trkpt><trkpt lat="43.70884523929596" lon="12.208896221535339"><ele>583.0</ele><time>2026-04-11T10:16:40Z</time></trkpt><trkpt lat="43.70886592646968" lon="12.209044440610244"><ele>583.0</ele><time>2026-04-11T10:16:40.999Z</time></trkpt><trkpt lat="43.70892797008443" lon="12.209181228466532"><ele>583.0</ele><time>2026-04-11T10:16:41.999Z</time></trkpt><trkpt lat="43.709023600014895" lon="12.209277949172119"><ele>584.75</ele><time>2026-04-11T10:16:42.999Z</time></trkpt><trkpt lat="43.709140019679374" lon="12.209295131066092"><ele>586.5</ele><time>2026-04-11T10:16:43.999Z</time></trkpt><trkpt lat="43.7092469292939" lon="12.209332805625944"><ele>588.25</ele><time>2026-04-11T10:16:44.999Z</time></trkpt><trkpt lat="43.70935733217941" lon="12.209371930920438"><ele>590.0</ele><time>2026-04-11T10:16:45.999Z</time></trkpt><trkpt lat="43.70946811936201" lon="12.209416557235134"><ele>591.25</ele><time>2026-04-11T10:16:46.999Z</time></trkpt><trkpt lat="43.709581445136216" lon="12.209460165991779"><ele>592.5</ele><time>2026-04-11T10:16:47.999Z</time></trkpt><trkpt lat="43.70969351276967" lon="12.20950224713707"><ele>593.75</ele><time>2026-04-11T10:16:48.999Z</time></trkpt><trkpt lat="43.70979955259114" lon="12.209548417718924"><ele>595.0</ele><time>2026-04-11T10:16:49.999Z</time></trkpt><trkpt lat="43.70990396005454" lon="12.209591928872051"><ele>595.0</ele><time>2026-04-11T10:16:50.999Z</time></trkpt><trkpt lat="43.71001116240555" lon="12.2096243205011"><ele>595.0</ele><time>2026-04-11T10:16:51.999Z</time></trkpt><trkpt lat="43.710114694935946" lon="12.209687719140277"><ele>595.0</ele><time>2026-04-11T10:16:52.999Z</time></trkpt><trkpt lat="43.71022558206681" lon="12.209712912413984"><ele>595.0</ele><time>2026-04-11T10:16:53.999Z</time></trkpt><trkpt lat="43.71033582042896" lon="12.209753681647141"><ele>595.0</ele><time>2026-04-11T10:16:54.999Z</time></trkpt><trkpt lat="43.71044922495467" lon="12.209769305411571"><ele>595.5</ele><time>2026-04-11T10:16:55.999Z</time></trkpt><trkpt lat="43.71056335964077" lon="12.20977194820776"><ele>596.0</ele><time>2026-04-11T10:16:56.999Z</time></trkpt><trkpt lat="43.71067526526949" lon="12.209769540585805"><ele>596.5</ele><time>2026-04-11T10:16:57.999Z</time></trkpt><trkpt lat="43.71078746731439" lon="12.209763892507114"><ele>597.0</ele><time>2026-04-11T10:16:58.999Z</time></trkpt><trkpt lat="43.710899749437324" lon="12.20975689948721"><ele>597.0</ele><time>2026-04-11T10:16:59.999Z</time></trkpt><trkpt lat="43.711013254828124" lon="12.209758390602675"><ele>597.0</ele><time>2026-04-11T10:17:00.999Z</time></trkpt><trkpt lat="43.71112777801144" lon="12.20976921424616"><ele>597.0</ele><time>2026-04-11T10:17:01.999Z</time></trkpt><trkpt lat="43.711239075039565" lon="12.2097739545263"><ele>597.0</ele><time>2026-04-11T10:17:02.999Z</time></trkpt><trkpt lat="43.711342176364845" lon="12.209782039264764"><ele>597.0</ele><time>2026-04-11T10:17:03.999Z</time></trkpt><trkpt lat="43.71144472822922" lon="12.209740975756441"><ele>599.75</ele><time>2026-04-11T10:17:04.999Z</time></trkpt><trkpt lat="43.711542334184514" lon="12.209668010863473"><ele>602.5</ele><time>2026-04-11T10:17:05.999Z</time></trkpt><trkpt lat="43.71163078352132" lon="12.209553503478238"><ele>605.25</ele><time>2026-04-11T10:17:06.999Z</time></trkpt><trkpt lat="43.711699153369935" lon="12.209414791028324"><ele>608.0</ele><time>2026-04-11T10:17:07.999Z</time></trkpt><trkpt lat="43.71175475391419" lon="12.209260302277809"><ele>608.0</ele><time>2026-04-11T10:17:08.999Z</time></trkpt><trkpt lat="43.71180656638866" lon="12.209100546337085"><ele>608.0</ele><time>2026-04-11T10:17:09.999Z</time></trkpt><trkpt lat="43.71185863961222" lon="12.208937433426025"><ele>608.0</ele><time>2026-04-11T10:17:10.999Z</time></trkpt><trkpt lat="43.71191202815432" lon="12.208788540607213"><ele>608.0</ele><time>2026-04-11T10:17:11.999Z</time></trkpt><trkpt lat="43.71196156226106" lon="12.208639029480311"><ele>606.75</ele><time>2026-04-11T10:17:12.999Z</time></trkpt><trkpt lat="43.712015093612614" lon="12.208490773687267"><ele>605.5</ele><time>2026-04-11T10:17:13.999Z</time></trkpt><trkpt lat="43.712070305194615" lon="12.208345800283135"><ele>604.25</ele><time>2026-04-11T10:17:14.999Z</time></trkpt><trkpt lat="43.7121269603421" lon="12.208214816099886"><ele>603.0</ele><time>2026-04-11T10:17:15.999Z</time></trkpt><trkpt lat="43.71220042965619" lon="12.20811509599475"><ele>603.0</ele><time>2026-04-11T10:17:16.999Z</time></trkpt><trkpt lat="43.712290874468174" lon="12.208068769942031"><ele>603.0</ele><time>2026-04-11T10:17:17.999Z</time></trkpt><trkpt lat="43.712388804704275" lon="12.208079317038012"><ele>603.0</ele><time>2026-04-11T10:17:18.999Z</time></trkpt><trkpt lat="43.712466628457825" lon="12.208164069805122"><ele>603.0</ele><time>2026-04-11T10:17:19.999Z</time></trkpt><trkpt lat="43.712539804520055" lon="12.208252977048625"><ele>603.0</ele><time>2026-04-11T10:17:20.999Z</time></trkpt><trkpt lat="43.71261974074127" lon="12.208336459394747"><ele>603.5</ele><time>2026-04-11T10:17:21.999Z</time></trkpt><trkpt lat="43.712709261278896" lon="12.208454574427702"><ele>604.0</ele><time>2026-04-11T10:17:22.999Z</time></trkpt><trkpt lat="43.712788735862546" lon="12.208575436689465"><ele>604.5</ele><time>2026-04-11T10:17:23.999Z</time></trkpt><trkpt lat="43.712871444656145" lon="12.208689764664953"><ele>605.0</ele><time>2026-04-11T10:17:24.999Z</time></trkpt><trkpt lat="43.71295748335405" lon="12.208799323894917"><ele>605.0</ele><time>2026-04-11T10:17:25.999Z</time></trkpt><trkpt lat="43.71303825373132" lon="12.208914727006693"><ele>605.0</ele><time>2026-04-11T10:17:26.999Z</time></trkpt><trkpt lat="43.71311490283459" lon="12.209028829398894"><ele>605.0</ele><time>2026-04-11T10:17:27.999Z</time></trkpt><trkpt lat="43.71319389622032" lon="12.209136525922462"><ele>605.0</ele><time>2026-04-11T10:17:28.999Z</time></trkpt><trkpt lat="43.71327189586117" lon="12.209247007832067"><ele>608.2</ele><time>2026-04-11T10:17:29.999Z</time></trkpt><trkpt lat="43.713351775283876" lon="12.209358340034244"><ele>611.4</ele><time>2026-04-11T10:17:30.999Z</time></trkpt><trkpt lat="43.713426905936586" lon="12.209477951589669"><ele>614.6</ele><time>2026-04-11T10:17:31.999Z</time></trkpt><trkpt lat="43.71348416620685" lon="12.209592410225826"><ele>617.8</ele><time>2026-04-11T10:17:32.999Z</time></trkpt><trkpt lat="43.71352980969562" lon="12.209706487420233"><ele>621.0</ele><time>2026-04-11T10:17:33.999Z</time></trkpt><trkpt lat="43.71357043734028" lon="12.209819472856326"><ele>620.8</ele><time>2026-04-11T10:17:34.999Z</time></trkpt><trkpt lat="43.71361002061471" lon="12.209935144743845"><ele>620.6</ele><time>2026-04-11T10:17:35.999Z</time></trkpt><trkpt lat="43.7136493640454" lon="12.210057565032775"><ele>620.4</ele><time>2026-04-11T10:17:36.999Z</time></trkpt><trkpt lat="43.71368822609156" lon="12.210180513478733"><ele>620.2</ele><time>2026-04-11T10:17:37.999Z</time></trkpt><trkpt lat="43.71372756152166" lon="12.21030709654683"><ele>620.0</ele><time>2026-04-11T10:17:38.999Z</time></trkpt><trkpt lat="43.71377070863262" lon="12.210433637760499"><ele>620.0</ele><time>2026-04-11T10:17:39.999Z</time></trkpt><trkpt lat="43.713805740703066" lon="12.2105682416751"><ele>620.0</ele><time>2026-04-11T10:17:40.999Z</time></trkpt><trkpt lat="43.71384306284285" lon="12.210700387186643"><ele>620.0</ele><time>2026-04-11T10:17:41.999Z</time></trkpt><trkpt lat="43.713892006638304" lon="12.210828009112326"><ele>620.0</ele><time>2026-04-11T10:17:42.999Z</time></trkpt><trkpt lat="43.71395536753937" lon="12.210946920373608"><ele>620.0</ele><time>2026-04-11T10:17:43.999Z</time></trkpt><trkpt lat="43.714028683680986" lon="12.2110481835849"><ele>622.0</ele><time>2026-04-11T10:17:44.999Z</time></trkpt><trkpt lat="43.71410578855502" lon="12.211146912937869"><ele>624.0</ele><time>2026-04-11T10:17:45.999Z</time></trkpt><trkpt lat="43.714190444019934" lon="12.21124022041083"><ele>626.0</ele><time>2026-04-11T10:17:46.999Z</time></trkpt><trkpt lat="43.714281383334495" lon="12.211327215233194"><ele>628.0</ele><time>2026-04-11T10:17:47.999Z</time></trkpt><trkpt lat="43.7143733686743" lon="12.211412581162323"><ele>630.0</ele><time>2026-04-11T10:17:48.999Z</time></trkpt><trkpt lat="43.71446616129871" lon="12.211498174297752"><ele>631.0</ele><time>2026-04-11T10:17:49.999Z</time></trkpt><trkpt lat="43.71455814001375" lon="12.211582606929625"><ele>632.0</ele><time>2026-04-11T10:17:50.999Z</time></trkpt><trkpt lat="43.71464833951781" lon="12.211667864642445"><ele>633.0</ele><time>2026-04-11T10:17:51.999Z</time></trkpt><trkpt lat="43.71474211236796" lon="12.211746177549552"><ele>634.0</ele><time>2026-04-11T10:17:52.999Z</time></trkpt><trkpt lat="43.7148327762307" lon="12.211826496994515"><ele>635.0</ele><time>2026-04-11T10:17:53.999Z</time></trkpt><trkpt lat="43.71492194492914" lon="12.211906486149243"><ele>635.0</ele><time>2026-04-11T10:17:54.999Z</time></trkpt><trkpt lat="43.715007736549595" lon="12.211988838592186"><ele>635.0</ele><time>2026-04-11T10:17:55.999Z</time></trkpt><trkpt lat="43.71509501635293" lon="12.21206453908357"><ele>635.0</ele><time>2026-04-11T10:17:56.999Z</time></trkpt><trkpt lat="43.71518039524301" lon="12.212136614221217"><ele>635.0</ele><time>2026-04-11T10:17:57.999Z</time></trkpt><trkpt lat="43.715275547248176" lon="12.212180322527239"><ele>635.0</ele><time>2026-04-11T10:17:58.999Z</time></trkpt><trkpt lat="43.715377780037635" lon="12.212202616400113"><ele>635.0</ele><time>2026-04-11T10:18:00Z</time></trkpt><trkpt lat="43.715481850726995" lon="12.212215753384314"><ele>635.0</ele><time>2026-04-11T10:18:01Z</time></trkpt><trkpt lat="43.71558696293455" lon="12.21223164776215"><ele>635.0</ele><time>2026-04-11T10:18:02Z</time></trkpt><trkpt lat="43.71569110061672" lon="12.212243619647573"><ele>635.0</ele><time>2026-04-11T10:18:03Z</time></trkpt><trkpt lat="43.71579677035964" lon="12.212268252984256"><ele>635.0</ele><time>2026-04-11T10:18:04Z</time></trkpt><trkpt lat="43.715896510628745" lon="12.212324058951525"><ele>637.8</ele><time>2026-04-11T10:18:05Z</time></trkpt><trkpt lat="43.715988539596474" lon="12.212408288774606"><ele>640.6</ele><time>2026-04-11T10:18:06Z</time></trkpt><trkpt lat="43.71607104728977" lon="12.21249900354041"><ele>643.4000000000001</ele><time>2026-04-11T10:18:07Z</time></trkpt><trkpt lat="43.71615147002145" lon="12.2125927818926"><ele>646.2</ele><time>2026-04-11T10:18:08Z</time></trkpt><trkpt lat="43.716213240176174" lon="12.21270813619606"><ele>649.0</ele><time>2026-04-11T10:18:09Z</time></trkpt><trkpt lat="43.716294448681715" lon="12.212788139370037"><ele>649.2</ele><time>2026-04-11T10:18:10Z</time></trkpt><trkpt lat="43.716368019271926" lon="12.212883359412558"><ele>649.4000000000001</ele><time>2026-04-11T10:18:11Z</time></trkpt><trkpt lat="43.71644714192016" lon="12.212972076057818"><ele>649.6</ele><time>2026-04-11T10:18:12Z</time></trkpt><trkpt lat="43.71653768586451" lon="12.213040312526722"><ele>649.8</ele><time>2026-04-11T10:18:13Z</time></trkpt><trkpt lat="43.71663771048004" lon="12.213062300761317"><ele>650.0</ele><time>2026-04-11T10:18:14Z</time></trkpt><trkpt lat="43.7167428954146" lon="12.21304878141034"><ele>650.0</ele><time>2026-04-11T10:18:15Z</time></trkpt><trkpt lat="43.716854608400624" lon="12.213016474785269"><ele>650.0</ele><time>2026-04-11T10:18:16Z</time></trkpt><trkpt lat="43.71695093112376" lon="12.212935967132374"><ele>650.0</ele><time>2026-04-11T10:18:17Z</time></trkpt><trkpt lat="43.717027160825694" lon="12.212809272921367"><ele>650.0</ele><time>2026-04-11T10:18:18Z</time></trkpt><trkpt lat="43.71707028105555" lon="12.212656126317977"><ele>651.5</ele><time>2026-04-11T10:18:19Z</time></trkpt><trkpt lat="43.717093430961235" lon="12.212495063038993"><ele>653.0</ele><time>2026-04-11T10:18:20Z</time></trkpt><trkpt lat="43.717123715144" lon="12.212333924119074"><ele>654.5</ele><time>2026-04-11T10:18:21Z</time></trkpt><trkpt lat="43.71715860937238" lon="12.212167206743077"><ele>656.0</ele><time>2026-04-11T10:18:22Z</time></trkpt><trkpt lat="43.71718811204396" lon="12.212010675727653"><ele>656.0</ele><time>2026-04-11T10:18:23Z</time></trkpt><trkpt lat="43.71721871045418" lon="12.211873432053855"><ele>656.0</ele><time>2026-04-11T10:18:24Z</time></trkpt><trkpt lat="43.71726467205868" lon="12.211763372239599"><ele>656.0</ele><time>2026-04-11T10:18:25Z</time></trkpt><trkpt lat="43.71733018919004" lon="12.211672212849612"><ele>656.0</ele><time>2026-04-11T10:18:26Z</time></trkpt><trkpt lat="43.71741846254746" lon="12.211617101039892"><ele>656.0</ele><time>2026-04-11T10:18:27Z</time></trkpt><trkpt lat="43.71752162472969" lon="12.211603382665475"><ele>656.0</ele><time>2026-04-11T10:18:28Z</time></trkpt><trkpt lat="43.7176216302958" lon="12.211637128149647"><ele>656.0</ele><time>2026-04-11T10:18:29Z</time></trkpt><trkpt lat="43.71772168298458" lon="12.211691456373142"><ele>656.0</ele><time>2026-04-11T10:18:30Z</time></trkpt><trkpt lat="43.71782868325004" lon="12.211747439300774"><ele>656.0</ele><time>2026-04-11T10:18:31Z</time></trkpt><trkpt lat="43.71793534072082" lon="12.211805351629048"><ele>656.0</ele><time>2026-04-11T10:18:32Z</time></trkpt><trkpt lat="43.71803961100078" lon="12.211859116158946"><ele>656.5</ele><time>2026-04-11T10:18:33Z</time></trkpt><trkpt lat="43.71814632992996" lon="12.211913640973686"><ele>657.0</ele><time>2026-04-11T10:18:34Z</time></trkpt><trkpt lat="43.71825440364253" lon="12.211973547903852"><ele>657.5</ele><time>2026-04-11T10:18:35Z</time></trkpt><trkpt lat="43.71836140680941" lon="12.212030862532526"><ele>658.0</ele><time>2026-04-11T10:18:36Z</time></trkpt><trkpt lat="43.71847151907111" lon="12.212073369409293"><ele>659.75</ele><time>2026-04-11T10:18:37Z</time></trkpt><trkpt lat="43.71858226780078" lon="12.212106509080256"><ele>661.5</ele><time>2026-04-11T10:18:38Z</time></trkpt><trkpt lat="43.7186980934073" lon="12.212124323230938"><ele>663.25</ele><time>2026-04-11T10:18:39Z</time></trkpt><trkpt lat="43.71881643171141" lon="12.212120944976038"><ele>665.0</ele><time>2026-04-11T10:18:40Z</time></trkpt><trkpt lat="43.71893898049407" lon="12.212123062751376"><ele>665.0</ele><time>2026-04-11T10:18:41Z</time></trkpt><trkpt lat="43.71906305069994" lon="12.212128280637579"><ele>665.0</ele><time>2026-04-11T10:18:42Z</time></trkpt><trkpt lat="43.719184910179465" lon="12.212113207103876"><ele>665.0</ele><time>2026-04-11T10:18:43Z</time></trkpt><trkpt lat="43.71929971968558" lon="12.212062295960664"><ele>665.0</ele><time>2026-04-11T10:18:44Z</time></trkpt><trkpt lat="43.719393616091004" lon="12.211976847773302"><ele>667.0</ele><time>2026-04-11T10:18:45Z</time></trkpt><trkpt lat="43.719467561944896" lon="12.211859618582139"><ele>669.0</ele><time>2026-04-11T10:18:46Z</time></trkpt><trkpt lat="43.719534363601454" lon="12.211731200717352"><ele>671.0</ele><time>2026-04-11T10:18:47Z</time></trkpt><trkpt lat="43.71959396966263" lon="12.211593059495124"><ele>673.0</ele><time>2026-04-11T10:18:48Z</time></trkpt><trkpt lat="43.719648718720556" lon="12.211461093635616"><ele>673.0</ele><time>2026-04-11T10:18:49Z</time></trkpt><trkpt lat="43.7197174509742" lon="12.211349114319663"><ele>673.0</ele><time>2026-04-11T10:18:49.999Z</time></trkpt><trkpt lat="43.719800662860735" lon="12.211257918398356"><ele>673.0</ele><time>2026-04-11T10:18:50.999Z</time></trkpt><trkpt lat="43.71989859745197" lon="12.211186079433578"><ele>673.0</ele><time>2026-04-11T10:18:51.999Z</time></trkpt><trkpt lat="43.720002703059706" lon="12.211136007252959"><ele>673.0</ele><time>2026-04-11T10:18:52.999Z</time></trkpt><trkpt lat="43.720113536777546" lon="12.21110795926799"><ele>673.0</ele><time>2026-04-11T10:18:53.999Z</time></trkpt><trkpt lat="43.720228262239026" lon="12.211109482356656"><ele>673.0</ele><time>2026-04-11T10:18:54.999Z</time></trkpt><trkpt lat="43.720337328258786" lon="12.211166209387299"><ele>673.0</ele><time>2026-04-11T10:18:55.999Z</time></trkpt><trkpt lat="43.720426276435916" lon="12.211269415022233"><ele>673.0</ele><time>2026-04-11T10:18:56.999Z</time></trkpt><trkpt lat="43.720470434860594" lon="12.211422562871634"><ele>674.75</ele><time>2026-04-11T10:18:57.999Z</time></trkpt><trkpt lat="43.720529866949654" lon="12.211562594979675"><ele>676.5</ele><time>2026-04-11T10:18:58.999Z</time></trkpt><trkpt lat="43.72058902216709" lon="12.211705757812533"><ele>678.25</ele><time>2026-04-11T10:18:59.999Z</time></trkpt><trkpt lat="43.720649095363676" lon="12.211851743951271"><ele>680.0</ele><time>2026-04-11T10:19:00.999Z</time></trkpt><trkpt lat="43.72070912825682" lon="12.211998068721948"><ele>680.0</ele><time>2026-04-11T10:19:01.999Z</time></trkpt><trkpt lat="43.720766118154366" lon="12.212139900466067"><ele>680.0</ele><time>2026-04-11T10:19:02.999Z</time></trkpt><trkpt lat="43.72084521815728" lon="12.212262553013666"><ele>680.0</ele><time>2026-04-11T10:19:03.999Z</time></trkpt><trkpt lat="43.72090592401305" lon="12.212397264633768"><ele>680.0</ele><time>2026-04-11T10:19:04.999Z</time></trkpt><trkpt lat="43.720999530530875" lon="12.212498631760825"><ele>682.25</ele><time>2026-04-11T10:19:05.999Z</time></trkpt><trkpt lat="43.72109874726914" lon="12.212581246554212"><ele>684.5</ele><time>2026-04-11T10:19:06.999Z</time></trkpt><trkpt lat="43.72120671478727" lon="12.212643461258798"><ele>686.75</ele><time>2026-04-11T10:19:07.999Z</time></trkpt><trkpt lat="43.721307848077146" lon="12.212722682060024"><ele>689.0</ele><time>2026-04-11T10:19:08.999Z</time></trkpt><trkpt lat="43.7214139852268" lon="12.212794096161405"><ele>689.0</ele><time>2026-04-11T10:19:09.999Z</time></trkpt><trkpt lat="43.721510640584114" lon="12.212861417875917"><ele>689.0</ele><time>2026-04-11T10:19:10.999Z</time></trkpt><trkpt lat="43.72160295159379" lon="12.21292748822391"><ele>689.0</ele><time>2026-04-11T10:19:11.999Z</time></trkpt><trkpt lat="43.721694967286474" lon="12.212990227510891"><ele>689.0</ele><time>2026-04-11T10:19:12.999Z</time></trkpt><trkpt lat="43.72177610074992" lon="12.21307205993834"><ele>689.0</ele><time>2026-04-11T10:19:13.999Z</time></trkpt><trkpt lat="43.72186352117367" lon="12.213134641955298"><ele>691.2</ele><time>2026-04-11T10:19:14.999Z</time></trkpt><trkpt lat="43.72194717268089" lon="12.21319452589244"><ele>693.4000000000001</ele><time>2026-04-11T10:19:15.999Z</time></trkpt><trkpt lat="43.722029681016544" lon="12.21325343748857"><ele>695.6</ele><time>2026-04-11T10:19:16.999Z</time></trkpt><trkpt lat="43.7221172679309" lon="12.213290519786417"><ele>697.8</ele><time>2026-04-11T10:19:17.999Z</time></trkpt><trkpt lat="43.722195181126985" lon="12.213347414989428"><ele>700.0</ele><time>2026-04-11T10:19:18.999Z</time></trkpt><trkpt lat="43.72227311231512" lon="12.213402637922893"><ele>700.0</ele><time>2026-04-11T10:19:19.999Z</time></trkpt><trkpt lat="43.72235472436713" lon="12.213447284101383"><ele>700.0</ele><time>2026-04-11T10:19:20.999Z</time></trkpt><trkpt lat="43.72244336103832" lon="12.213441726686295"><ele>700.0</ele><time>2026-04-11T10:19:21.999Z</time></trkpt><trkpt lat="43.72252801037729" lon="12.213404300339887"><ele>700.0</ele><time>2026-04-11T10:19:22.999Z</time></trkpt><trkpt lat="43.72260506505659" lon="12.213324874612583"><ele>700.0</ele><time>2026-04-11T10:19:23.999Z</time></trkpt><trkpt lat="43.72267701047016" lon="12.213222904285722"><ele>699.0</ele><time>2026-04-11T10:19:24.999Z</time></trkpt><trkpt lat="43.722711894125474" lon="12.213075797371562"><ele>698.0</ele><time>2026-04-11T10:19:25.999Z</time></trkpt><trkpt lat="43.72274962207614" lon="12.212939223147782"><ele>697.0</ele><time>2026-04-11T10:19:26.999Z</time></trkpt><trkpt lat="43.72278428706988" lon="12.212796686743657"><ele>696.0</ele><time>2026-04-11T10:19:27.999Z</time></trkpt><trkpt lat="43.72282848156799" lon="12.212665856792322"><ele>695.0</ele><time>2026-04-11T10:19:28.999Z</time></trkpt><trkpt lat="43.72289547501795" lon="12.212548278307304"><ele>696.6</ele><time>2026-04-11T10:19:29.999Z</time></trkpt><trkpt lat="43.72296977160913" lon="12.212435131831812"><ele>698.2</ele><time>2026-04-11T10:19:30.999Z</time></trkpt><trkpt lat="43.723042437013106" lon="12.212318788622946"><ele>699.8</ele><time>2026-04-11T10:19:31.999Z</time></trkpt><trkpt lat="43.72312021200158" lon="12.212203952616592"><ele>701.4</ele><time>2026-04-11T10:19:32.999Z</time></trkpt><trkpt lat="43.723199240623764" lon="12.212090265217096"><ele>703.0</ele><time>2026-04-11T10:19:33.999Z</time></trkpt><trkpt lat="43.72327907356761" lon="12.211976141252357"><ele>703.0</ele><time>2026-04-11T10:19:34.999Z</time></trkpt><trkpt lat="43.723355364549526" lon="12.21186342590854"><ele>703.0</ele><time>2026-04-11T10:19:35.999Z</time></trkpt><trkpt lat="43.72344415247309" lon="12.211773124067783"><ele>703.0</ele><time>2026-04-11T10:19:36.999Z</time></trkpt><trkpt lat="43.72354744169789" lon="12.211716227512852"><ele>703.0</ele><time>2026-04-11T10:19:37.999Z</time></trkpt><trkpt lat="43.72366144606196" lon="12.21169544194037"><ele>703.0</ele><time>2026-04-11T10:19:38.999Z</time></trkpt><trkpt lat="43.72377374262049" lon="12.21172299662617"><ele>705.0</ele><time>2026-04-11T10:19:39.999Z</time></trkpt><trkpt lat="43.723875231053654" lon="12.211804888795111"><ele>707.0</ele><time>2026-04-11T10:19:40.999Z</time></trkpt><trkpt lat="43.72398507495963" lon="12.21185859330815"><ele>709.0</ele><time>2026-04-11T10:19:41.999Z</time></trkpt><trkpt lat="43.72409134815064" lon="12.211934256681337"><ele>711.0</ele><time>2026-04-11T10:19:42.999Z</time></trkpt><trkpt lat="43.72420008193463" lon="12.21200020665954"><ele>711.0</ele><time>2026-04-11T10:19:43.999Z</time></trkpt><trkpt lat="43.72430154148677" lon="12.212088994229223"><ele>711.0</ele><time>2026-04-11T10:19:44.999Z</time></trkpt><trkpt lat="43.724405971863106" lon="12.21216964496111"><ele>711.0</ele><time>2026-04-11T10:19:45.999Z</time></trkpt><trkpt lat="43.72450914266218" lon="12.21225352391668"><ele>711.0</ele><time>2026-04-11T10:19:46.999Z</time></trkpt><trkpt lat="43.72461809128789" lon="12.212326009858083"><ele>713.25</ele><time>2026-04-11T10:19:47.999Z</time></trkpt><trkpt lat="43.724718706920704" lon="12.212418720070481"><ele>715.5</ele><time>2026-04-11T10:19:48.999Z</time></trkpt><trkpt lat="43.72482058021149" lon="12.212509045987872"><ele>717.75</ele><time>2026-04-11T10:19:49.999Z</time></trkpt><trkpt lat="43.724924639050805" lon="12.21258856390581"><ele>720.0</ele><time>2026-04-11T10:19:50.999Z</time></trkpt><trkpt lat="43.72502408065398" lon="12.212680780446332"><ele>720.0</ele><time>2026-04-11T10:19:51.999Z</time></trkpt><trkpt lat="43.725118879476554" lon="12.212772414970257"><ele>720.0</ele><time>2026-04-11T10:19:52.999Z</time></trkpt><trkpt lat="43.72521586396738" lon="12.212858236825674"><ele>720.0</ele><time>2026-04-11T10:19:53.999Z</time></trkpt><trkpt lat="43.72532428700476" lon="12.212949497262581"><ele>720.0</ele><time>2026-04-11T10:19:54.999Z</time></trkpt><trkpt lat="43.72542112650465" lon="12.213056230114555"><ele>721.75</ele><time>2026-04-11T10:19:55.999Z</time></trkpt><trkpt lat="43.72550943145374" lon="12.21317702677265"><ele>723.5</ele><time>2026-04-11T10:19:56.999Z</time></trkpt><trkpt lat="43.72558338200335" lon="12.213308556944078"><ele>725.25</ele><time>2026-04-11T10:19:57.999Z</time></trkpt><trkpt lat="43.725635927858335" lon="12.213446066807277"><ele>727.0</ele><time>2026-04-11T10:19:58.999Z</time></trkpt><trkpt lat="43.72565538718279" lon="12.21360407943278"><ele>727.0</ele><time>2026-04-11T10:19:59.999Z</time></trkpt><trkpt lat="43.72564130753048" lon="12.213766265684031"><ele>727.0</ele><time>2026-04-11T10:20:00.999Z</time></trkpt><trkpt lat="43.72559337070087" lon="12.213919163442402"><ele>727.0</ele><time>2026-04-11T10:20:01.999Z</time></trkpt><trkpt lat="43.72551056971759" lon="12.21404754619451"><ele>727.0</ele><time>2026-04-11T10:20:02.999Z</time></trkpt><trkpt lat="43.725412965251174" lon="12.214154673521456"><ele>728.25</ele><time>2026-04-11T10:20:03.999Z</time></trkpt><trkpt lat="43.725306751685636" lon="12.214246678084093"><ele>729.5</ele><time>2026-04-11T10:20:04.999Z</time></trkpt><trkpt lat="43.72519970855255" lon="12.214342257782924"><ele>730.75</ele><time>2026-04-11T10:20:06Z</time></trkpt><trkpt lat="43.725090973320064" lon="12.21443562466018"><ele>732.0</ele><time>2026-04-11T10:20:07Z</time></trkpt><trkpt lat="43.72497879431381" lon="12.214526244975808"><ele>732.0</ele><time>2026-04-11T10:20:08Z</time></trkpt><trkpt lat="43.72486843584965" lon="12.214613647452667"><ele>732.0</ele><time>2026-04-11T10:20:09Z</time></trkpt><trkpt lat="43.72476030611571" lon="12.214709615579244"><ele>732.0</ele><time>2026-04-11T10:20:10Z</time></trkpt><trkpt lat="43.7246660966794" lon="12.214828465073422"><ele>732.0</ele><time>2026-04-11T10:20:11Z</time></trkpt><trkpt lat="43.724585596650634" lon="12.214965811042868"><ele>732.5</ele><time>2026-04-11T10:20:12Z</time></trkpt><trkpt lat="43.72452014723305" lon="12.215122662065097"><ele>733.0</ele><time>2026-04-11T10:20:13Z</time></trkpt><trkpt lat="43.72446522832896" lon="12.215287432780158"><ele>733.5</ele><time>2026-04-11T10:20:14Z</time></trkpt><trkpt lat="43.72440864410924" lon="12.215453510513413"><ele>734.0</ele><time>2026-04-11T10:20:15Z</time></trkpt><trkpt lat="43.72434623780623" lon="12.215616319119558"><ele>736.75</ele><time>2026-04-11T10:20:16Z</time></trkpt><trkpt lat="43.724265666203166" lon="12.215761755689439"><ele>739.5</ele><time>2026-04-11T10:20:17Z</time></trkpt><trkpt lat="43.72417069794625" lon="12.215900046720687"><ele>742.25</ele><time>2026-04-11T10:20:18Z</time></trkpt><trkpt lat="43.72407105881904" lon="12.216028560526814"><ele>745.0</ele><time>2026-04-11T10:20:19Z</time></trkpt><trkpt lat="43.72396824348913" lon="12.216149219713666"><ele>745.0</ele><time>2026-04-11T10:20:20Z</time></trkpt><trkpt lat="43.72388435189662" lon="12.21628653623932"><ele>745.0</ele><time>2026-04-11T10:20:21Z</time></trkpt><trkpt lat="43.72382236463204" lon="12.216445632624723"><ele>745.0</ele><time>2026-04-11T10:20:22Z</time></trkpt><trkpt lat="43.723767269797804" lon="12.21661616251483"><ele>745.0</ele><time>2026-04-11T10:20:23Z</time></trkpt><trkpt lat="43.723723559691365" lon="12.216788800941675"><ele>747.75</ele><time>2026-04-11T10:20:24Z</time></trkpt><trkpt lat="43.72368820271312" lon="12.216949415486633"><ele>750.5</ele><time>2026-04-11T10:20:25Z</time></trkpt><trkpt lat="43.72365428563433" lon="12.217103484735222"><ele>753.25</ele><time>2026-04-11T10:20:26Z</time></trkpt><trkpt lat="43.723611679298585" lon="12.217253661411194"><ele>756.0</ele><time>2026-04-11T10:20:27Z</time></trkpt><trkpt lat="43.72359093888153" lon="12.217417512852188"><ele>758.25</ele><time>2026-04-11T10:20:28Z</time></trkpt><trkpt lat="43.72357842674602" lon="12.217585401839662"><ele>760.5</ele><time>2026-04-11T10:20:29Z</time></trkpt><trkpt lat="43.72357302361" lon="12.217757200104673"><ele>762.75</ele><time>2026-04-11T10:20:30Z</time></trkpt><trkpt lat="43.72356451891033" lon="12.217928070038589"><ele>765.0</ele><time>2026-04-11T10:20:31Z</time></trkpt><trkpt lat="43.72355266831727" lon="12.218096525814252"><ele>762.5</ele><time>2026-04-11T10:20:32Z</time></trkpt><trkpt lat="43.7235439260827" lon="12.218258906798082"><ele>760.0</ele><time>2026-04-11T10:20:33Z</time></trkpt><trkpt lat="43.72353536470229" lon="12.21842121318268"><ele>757.5</ele><time>2026-04-11T10:20:34Z</time></trkpt><trkpt lat="43.72352569436891" lon="12.218576754164625"><ele>755.0</ele><time>2026-04-11T10:20:35Z</time></trkpt><trkpt lat="43.72349847527947" lon="12.218735617670998"><ele>755.0</ele><time>2026-04-11T10:20:36Z</time></trkpt><trkpt lat="43.72344311582307" lon="12.218884247267473"><ele>755.0</ele><time>2026-04-11T10:20:37Z</time></trkpt><trkpt lat="43.72335238348098" lon="12.218991538281152"><ele>755.0</ele><time>2026-04-11T10:20:38Z</time></trkpt><trkpt lat="43.72326185688877" lon="12.219099456267063"><ele>755.0</ele><time>2026-04-11T10:20:39Z</time></trkpt><trkpt lat="43.72316469621236" lon="12.219195668115294"><ele>758.0</ele><time>2026-04-11T10:20:40Z</time></trkpt><trkpt lat="43.7230619183341" lon="12.219282177261038"><ele>761.0</ele><time>2026-04-11T10:20:41Z</time></trkpt><trkpt lat="43.722957830581116" lon="12.219351905568825"><ele>764.0</ele><time>2026-04-11T10:20:42Z</time></trkpt><trkpt lat="43.722848066076395" lon="12.21936463330924"><ele>767.0</ele><time>2026-04-11T10:20:43Z</time></trkpt><trkpt lat="43.722726924751335" lon="12.219355436225067"><ele>767.0</ele><time>2026-04-11T10:20:44Z</time></trkpt><trkpt lat="43.72260747909312" lon="12.219327046898707"><ele>767.0</ele><time>2026-04-11T10:20:45Z</time></trkpt><trkpt lat="43.722489281931836" lon="12.21928516236045"><ele>767.0</ele><time>2026-04-11T10:20:46Z</time></trkpt><trkpt lat="43.722379016740696" lon="12.219213483178331"><ele>767.0</ele><time>2026-04-11T10:20:47Z</time></trkpt><trkpt lat="43.72228046223067" lon="12.219115415791316"><ele>767.0</ele><time>2026-04-11T10:20:48Z</time></trkpt><trkpt lat="43.72218200477304" lon="12.219016106395598"><ele>767.0</ele><time>2026-04-11T10:20:49Z</time></trkpt><trkpt lat="43.722081390446924" lon="12.218929978381594"><ele>767.0</ele><time>2026-04-11T10:20:50Z</time></trkpt><trkpt lat="43.72197382173638" lon="12.218883591058443"><ele>767.0</ele><time>2026-04-11T10:20:51Z</time></trkpt><trkpt lat="43.721854932767776" lon="12.218884887388867"><ele>767.75</ele><time>2026-04-11T10:20:52Z</time></trkpt><trkpt lat="43.72174132712766" lon="12.218945528875143"><ele>768.5</ele><time>2026-04-11T10:20:53Z</time></trkpt><trkpt lat="43.7216460706814" lon="12.219056812602902"><ele>769.25</ele><time>2026-04-11T10:20:54Z</time></trkpt><trkpt lat="43.72158822418067" lon="12.219200343874627"><ele>770.0</ele><time>2026-04-11T10:20:55Z</time></trkpt><trkpt lat="43.72152458755725" lon="12.219337109354218"><ele>770.0</ele><time>2026-04-11T10:20:55.999Z</time></trkpt><trkpt lat="43.72146283880441" lon="12.219479492739145"><ele>770.0</ele><time>2026-04-11T10:20:56.999Z</time></trkpt><trkpt lat="43.72141343425544" lon="12.219630851285565"><ele>770.0</ele><time>2026-04-11T10:20:57.999Z</time></trkpt><trkpt lat="43.72136749468106" lon="12.219775301335098"><ele>770.0</ele><time>2026-04-11T10:20:58.999Z</time></trkpt><trkpt lat="43.721397941816676" lon="12.219944259037"><ele>772.25</ele><time>2026-04-11T10:20:59.999Z</time></trkpt><trkpt lat="43.721441953705806" lon="12.220094325341686"><ele>774.5</ele><time>2026-04-11T10:21:00.999Z</time></trkpt><trkpt lat="43.72148000868342" lon="12.220244914484994"><ele>776.75</ele><time>2026-04-11T10:21:01.999Z</time></trkpt><trkpt lat="43.721512387661384" lon="12.22038939044366"><ele>779.0</ele><time>2026-04-11T10:21:02.999Z</time></trkpt><trkpt lat="43.72152285632983" lon="12.220539154759356"><ele>781.25</ele><time>2026-04-11T10:21:03.999Z</time></trkpt><trkpt lat="43.7214999230953" lon="12.220691544587437"><ele>783.5</ele><time>2026-04-11T10:21:04.999Z</time></trkpt><trkpt lat="43.72145476069062" lon="12.22083414680938"><ele>785.75</ele><time>2026-04-11T10:21:05.999Z</time></trkpt><trkpt lat="43.72137212527752" lon="12.220940513452836"><ele>788.0</ele><time>2026-04-11T10:21:06.999Z</time></trkpt><trkpt lat="43.72127939292776" lon="12.221046726201154"><ele>788.0</ele><time>2026-04-11T10:21:07.999Z</time></trkpt><trkpt lat="43.721185903622" lon="12.221145506420594"><ele>788.0</ele><time>2026-04-11T10:21:08.999Z</time></trkpt><trkpt lat="43.721077755393495" lon="12.221212435780325"><ele>788.0</ele><time>2026-04-11T10:21:09.999Z</time></trkpt><trkpt lat="43.720965151904274" lon="12.221257613361004"><ele>788.0</ele><time>2026-04-11T10:21:10.999Z</time></trkpt><trkpt lat="43.72084800352985" lon="12.221302144345112"><ele>787.75</ele><time>2026-04-11T10:21:11.999Z</time></trkpt><trkpt lat="43.720735270488134" lon="12.221348119175154"><ele>787.5</ele><time>2026-04-11T10:21:12.999Z</time></trkpt><trkpt lat="43.72062461742105" lon="12.221433016082639"><ele>787.25</ele><time>2026-04-11T10:21:13.999Z</time></trkpt><trkpt lat="43.72052173583113" lon="12.221537669604475"><ele>787.0</ele><time>2026-04-11T10:21:14.999Z</time></trkpt><trkpt lat="43.72043041252337" lon="12.221651308526972"><ele>787.0</ele><time>2026-04-11T10:21:15.999Z</time></trkpt><trkpt lat="43.72034140963491" lon="12.221762215544308"><ele>787.0</ele><time>2026-04-11T10:21:16.999Z</time></trkpt><trkpt lat="43.72025306332373" lon="12.221872011248278"><ele>787.0</ele><time>2026-04-11T10:21:17.999Z</time></trkpt><trkpt lat="43.720162916907015" lon="12.221984872747162"><ele>787.0</ele><time>2026-04-11T10:21:18.999Z</time></trkpt><trkpt lat="43.7200711124539" lon="12.222091483534637"><ele>786.6</ele><time>2026-04-11T10:21:19.999Z</time></trkpt><trkpt lat="43.7199796903389" lon="12.222188090490313"><ele>786.2</ele><time>2026-04-11T10:21:20.999Z</time></trkpt><trkpt lat="43.71989528824749" lon="12.222285315694362"><ele>785.8</ele><time>2026-04-11T10:21:21.999Z</time></trkpt><trkpt lat="43.71982073623807" lon="12.222380925914562"><ele>785.4</ele><time>2026-04-11T10:21:22.999Z</time></trkpt><trkpt lat="43.71977582826264" lon="12.222486574226593"><ele>785.0</ele><time>2026-04-11T10:21:23.999Z</time></trkpt><trkpt lat="43.719760106559725" lon="12.222605521737682"><ele>785.0000000000001</ele><time>2026-04-11T10:21:24.999Z</time></trkpt><trkpt lat="43.719770681233506" lon="12.222721798528447"><ele>785.0</ele><time>2026-04-11T10:21:25.999Z</time></trkpt><trkpt lat="43.719816814774404" lon="12.222818053352581"><ele>785.0</ele><time>2026-04-11T10:21:26.999Z</time></trkpt><trkpt lat="43.71991659792778" lon="12.222845132946732"><ele>785.0</ele><time>2026-04-11T10:21:27.999Z</time></trkpt><trkpt lat="43.72000363732856" lon="12.222845497892793"><ele>785.0000000000001</ele><time>2026-04-11T10:21:28.999Z</time></trkpt><trkpt lat="43.72008670715535" lon="12.22281978856565"><ele>785.0</ele><time>2026-04-11T10:21:29.999Z</time></trkpt><trkpt lat="43.72017022843438" lon="12.22278334307107"><ele>786.3333333333334</ele><time>2026-04-11T10:21:30.999Z</time></trkpt><trkpt lat="43.7202498990265" lon="12.222739323468245"><ele>787.6666666666667</ele><time>2026-04-11T10:21:31.999Z</time></trkpt><trkpt lat="43.72032781545787" lon="12.222685754383026"><ele>789.0</ele><time>2026-04-11T10:21:32.999Z</time></trkpt><trkpt lat="43.7204070119796" lon="12.222636442333435"><ele>790.3333333333333</ele><time>2026-04-11T10:21:33.999Z</time></trkpt><trkpt lat="43.72049282181577" lon="12.22258443483026"><ele>791.6666666666666</ele><time>2026-04-11T10:21:34.999Z</time></trkpt><trkpt lat="43.72057944341306" lon="12.222541631248319"><ele>793.0</ele><time>2026-04-11T10:21:35.999Z</time></trkpt><trkpt lat="43.72067729781117" lon="12.222524736519471"><ele>793.0</ele><time>2026-04-11T10:21:36.999Z</time></trkpt><trkpt lat="43.72077384600649" lon="12.222563700886749"><ele>793.0</ele><time>2026-04-11T10:21:37.999Z</time></trkpt><trkpt lat="43.720874194492495" lon="12.222576655369714"><ele>793.0</ele><time>2026-04-11T10:21:38.999Z</time></trkpt><trkpt lat="43.72097339322365" lon="12.222616397796028"><ele>793.0</ele><time>2026-04-11T10:21:39.999Z</time></trkpt><trkpt lat="43.72107498491549" lon="12.222641424113103"><ele>793.0</ele><time>2026-04-11T10:21:40.999Z</time></trkpt><trkpt lat="43.721177727197066" lon="12.222666863786852"><ele>794.5999999999999</ele><time>2026-04-11T10:21:41.999Z</time></trkpt><trkpt lat="43.721283636613876" lon="12.222690856289308"><ele>796.1999999999999</ele><time>2026-04-11T10:21:42.999Z</time></trkpt><trkpt lat="43.721386322434704" lon="12.222717475872953"><ele>797.8</ele><time>2026-04-11T10:21:43.999Z</time></trkpt><trkpt lat="43.72148568583384" lon="12.222742002663868"><ele>799.4</ele><time>2026-04-11T10:21:44.999Z</time></trkpt><trkpt lat="43.721583528051426" lon="12.222761406350122"><ele>801.0</ele><time>2026-04-11T10:21:45.999Z</time></trkpt><trkpt lat="43.721678466658545" lon="12.22278459455958"><ele>801.0</ele><time>2026-04-11T10:21:46.999Z</time></trkpt><trkpt lat="43.72177986210473" lon="12.22281458817771"><ele>801.0</ele><time>2026-04-11T10:21:47.999Z</time></trkpt><trkpt lat="43.72188268151322" lon="12.222846743486263"><ele>801.0</ele><time>2026-04-11T10:21:48.999Z</time></trkpt><trkpt lat="43.721983881877165" lon="12.222873195253513"><ele>801.0</ele><time>2026-04-11T10:21:49.999Z</time></trkpt><trkpt lat="43.72207925573249" lon="12.222904440905618"><ele>801.0</ele><time>2026-04-11T10:21:50.999Z</time></trkpt><trkpt lat="43.722177115938344" lon="12.222956807560108"><ele>801.4</ele><time>2026-04-11T10:21:51.999Z</time></trkpt><trkpt lat="43.72226106874193" lon="12.223022927556432"><ele>801.8</ele><time>2026-04-11T10:21:52.999Z</time></trkpt><trkpt lat="43.722331825325135" lon="12.223124055391722"><ele>802.1999999999999</ele><time>2026-04-11T10:21:53.999Z</time></trkpt><trkpt lat="43.72239997284968" lon="12.22322784592497"><ele>802.5999999999999</ele><time>2026-04-11T10:21:54.999Z</time></trkpt><trkpt lat="43.722472564382635" lon="12.223350562076094"><ele>803.0</ele><time>2026-04-11T10:21:55.999Z</time></trkpt><trkpt lat="43.72249813019911" lon="12.223497440954466"><ele>803.0</ele><time>2026-04-11T10:21:56.999Z</time></trkpt><trkpt lat="43.722532662070336" lon="12.223652073183876"><ele>803.0</ele><time>2026-04-11T10:21:57.999Z</time></trkpt><trkpt lat="43.722566588931095" lon="12.223814585562693"><ele>803.0</ele><time>2026-04-11T10:21:58.999Z</time></trkpt><trkpt lat="43.722600832223364" lon="12.223981663514834"><ele>803.0</ele><time>2026-04-11T10:21:59.999Z</time></trkpt><trkpt lat="43.72263730220538" lon="12.224156420377561"><ele>802.75</ele><time>2026-04-11T10:22:00.999Z</time></trkpt><trkpt lat="43.722674295829655" lon="12.224327087778395"><ele>802.5</ele><time>2026-04-11T10:22:01.999Z</time></trkpt><trkpt lat="43.722710613552536" lon="12.224494637205547"><ele>802.25</ele><time>2026-04-11T10:22:02.999Z</time></trkpt><trkpt lat="43.72274785617785" lon="12.224666453433139"><ele>802.0</ele><time>2026-04-11T10:22:03.999Z</time></trkpt><trkpt lat="43.72278299005594" lon="12.22483047515403"><ele>805.2</ele><time>2026-04-11T10:22:04.999Z</time></trkpt><trkpt lat="43.72281774949022" lon="12.224985873932727"><ele>808.4000000000001</ele><time>2026-04-11T10:22:05.999Z</time></trkpt><trkpt lat="43.722857492090895" lon="12.225131552109715"><ele>811.5999999999999</ele><time>2026-04-11T10:22:06.999Z</time></trkpt><trkpt lat="43.72291109992854" lon="12.225265328143992"><ele>814.8</ele><time>2026-04-11T10:22:07.999Z</time></trkpt><trkpt lat="43.722979459369085" lon="12.225373279617772"><ele>818.0</ele><time>2026-04-11T10:22:08.999Z</time></trkpt><trkpt lat="43.72306282608235" lon="12.225445833543022"><ele>818.0</ele><time>2026-04-11T10:22:09.999Z</time></trkpt><trkpt lat="43.72313031523794" lon="12.22552402188001"><ele>818.0</ele><time>2026-04-11T10:22:10.999Z</time></trkpt><trkpt lat="43.72320047402877" lon="12.22559334670288"><ele>818.0</ele><time>2026-04-11T10:22:12Z</time></trkpt><trkpt lat="43.72327011184645" lon="12.225665667879746"><ele>818.0</ele><time>2026-04-11T10:22:13Z</time></trkpt><trkpt lat="43.723346409553365" lon="12.225742230295038"><ele>818.0</ele><time>2026-04-11T10:22:14Z</time></trkpt><trkpt lat="43.7234262615057" lon="12.22581614741148"><ele>818.2</ele><time>2026-04-11T10:22:15Z</time></trkpt><trkpt lat="43.723506631028364" lon="12.225900679972971"><ele>818.4</ele><time>2026-04-11T10:22:16Z</time></trkpt><trkpt lat="43.7235858037542" lon="12.225990441209632"><ele>818.6</ele><time>2026-04-11T10:22:17Z</time></trkpt><trkpt lat="43.723666446124724" lon="12.226089239012955"><ele>818.8000000000001</ele><time>2026-04-11T10:22:18Z</time></trkpt><trkpt lat="43.72374377014898" lon="12.226204766153973"><ele>819.0</ele><time>2026-04-11T10:22:19Z</time></trkpt><trkpt lat="43.72381795106184" lon="12.226337997743862"><ele>816.0</ele><time>2026-04-11T10:22:20Z</time></trkpt><trkpt lat="43.72388565535276" lon="12.226490545366978"><ele>813.0</ele><time>2026-04-11T10:22:21Z</time></trkpt><trkpt lat="43.72395103917992" lon="12.226653438446695"><ele>810.0</ele><time>2026-04-11T10:22:22Z</time></trkpt><trkpt lat="43.72400804249391" lon="12.226830760368795"><ele>807.0</ele><time>2026-04-11T10:22:23Z</time></trkpt><trkpt lat="43.72406620212073" lon="12.227014882653396"><ele>807.0</ele><time>2026-04-11T10:22:24Z</time></trkpt><trkpt lat="43.724124186005625" lon="12.227194200464709"><ele>807.0</ele><time>2026-04-11T10:22:25Z</time></trkpt><trkpt lat="43.72417328423329" lon="12.227372032554133"><ele>807.0</ele><time>2026-04-11T10:22:26Z</time></trkpt><trkpt lat="43.72420290280191" lon="12.227557011245443"><ele>807.0</ele><time>2026-04-11T10:22:27Z</time></trkpt><trkpt lat="43.724213052306666" lon="12.227750891020774"><ele>806.25</ele><time>2026-04-11T10:22:28Z</time></trkpt><trkpt lat="43.72420462906613" lon="12.227952239580157"><ele>805.5</ele><time>2026-04-11T10:22:29Z</time></trkpt><trkpt lat="43.724191113843794" lon="12.22815163332824"><ele>804.75</ele><time>2026-04-11T10:22:30Z</time></trkpt><trkpt lat="43.72415793624011" lon="12.228348263133041"><ele>804.0</ele><time>2026-04-11T10:22:31Z</time></trkpt><trkpt lat="43.72414048731658" lon="12.22855564173095"><ele>804.0</ele><time>2026-04-11T10:22:32Z</time></trkpt><trkpt lat="43.72412396897461" lon="12.228751960370989"><ele>804.0</ele><time>2026-04-11T10:22:33Z</time></trkpt><trkpt lat="43.724108481907855" lon="12.228936022443554"><ele>804.0</ele><time>2026-04-11T10:22:34Z</time></trkpt><trkpt lat="43.72409352382857" lon="12.229113797582267"><ele>804.0</ele><time>2026-04-11T10:22:35Z</time></trkpt><trkpt lat="43.724078908992134" lon="12.229285619790694"><ele>804.25</ele><time>2026-04-11T10:22:36Z</time></trkpt><trkpt lat="43.72406360236062" lon="12.229451279720564"><ele>804.5</ele><time>2026-04-11T10:22:37Z</time></trkpt><trkpt lat="43.724047497222585" lon="12.229625581354144"><ele>804.75</ele><time>2026-04-11T10:22:38Z</time></trkpt><trkpt lat="43.72402733634876" lon="12.229806956808778"><ele>805.0</ele><time>2026-04-11T10:22:39Z</time></trkpt><trkpt lat="43.72399622572879" lon="12.229989658806682"><ele>805.0</ele><time>2026-04-11T10:22:40Z</time></trkpt><trkpt lat="43.723947535600864" lon="12.23017191129762"><ele>805.0</ele><time>2026-04-11T10:22:41Z</time></trkpt><trkpt lat="43.72386971371366" lon="12.230345161323239"><ele>805.0</ele><time>2026-04-11T10:22:42Z</time></trkpt><trkpt lat="43.72377800460422" lon="12.230512063719788"><ele>805.0</ele><time>2026-04-11T10:22:43Z</time></trkpt><trkpt lat="43.72367665388846" lon="12.230678354889125"><ele>807.0</ele><time>2026-04-11T10:22:44Z</time></trkpt><trkpt lat="43.72357787854804" lon="12.23085934945539"><ele>809.0</ele><time>2026-04-11T10:22:45Z</time></trkpt><trkpt lat="43.723481765821695" lon="12.231030308506606"><ele>811.0</ele><time>2026-04-11T10:22:46Z</time></trkpt><trkpt lat="43.72339696145389" lon="12.23117974807444"><ele>808.25</ele><time>2026-04-11T10:22:47Z</time></trkpt><trkpt lat="43.723322402536624" lon="12.231319102386395"><ele>805.5</ele><time>2026-04-11T10:22:48Z</time></trkpt><trkpt lat="43.72327890385273" lon="12.231512019484457"><ele>802.75</ele><time>2026-04-11T10:22:49Z</time></trkpt><trkpt lat="43.72328420955575" lon="12.231721344457672"><ele>800.0</ele><time>2026-04-11T10:22:50Z</time></trkpt><trkpt lat="43.72331980348203" lon="12.231921388602926"><ele>800.0</ele><time>2026-04-11T10:22:51Z</time></trkpt><trkpt lat="43.72335859062953" lon="12.232120957312116"><ele>800.0</ele><time>2026-04-11T10:22:52Z</time></trkpt><trkpt lat="43.723397776574515" lon="12.232321847383998"><ele>800.0</ele><time>2026-04-11T10:22:53Z</time></trkpt><trkpt lat="43.723422319689206" lon="12.232526158025568"><ele>800.0</ele><time>2026-04-11T10:22:54Z</time></trkpt><trkpt lat="43.72336982427999" lon="12.232722064362285"><ele>800.25</ele><time>2026-04-11T10:22:55Z</time></trkpt><trkpt lat="43.723321947668694" lon="12.23292320575364"><ele>800.5</ele><time>2026-04-11T10:22:56Z</time></trkpt><trkpt lat="43.723272688872505" lon="12.233111179515795"><ele>800.75</ele><time>2026-04-11T10:22:57Z</time></trkpt><trkpt lat="43.72322243457938" lon="12.233302521012172"><ele>801.0</ele><time>2026-04-11T10:22:58Z</time></trkpt><trkpt lat="43.72318093365667" lon="12.233466919410304"><ele>802.0</ele><time>2026-04-11T10:22:59Z</time></trkpt><trkpt lat="43.7231441971575" lon="12.233612985272355"><ele>803.0</ele><time>2026-04-11T10:23:00Z</time></trkpt><trkpt lat="43.72310819633958" lon="12.23375612704259"><ele>804.0</ele><time>2026-04-11T10:23:01Z</time></trkpt><trkpt lat="43.72307374046091" lon="12.233893125669558"><ele>805.0</ele><time>2026-04-11T10:23:02Z</time></trkpt><trkpt lat="43.723042313362015" lon="12.234018149785529"><ele>806.0</ele><time>2026-04-11T10:23:03Z</time></trkpt><trkpt lat="43.72301199274516" lon="12.234140689754947"><ele>806.5000000000001</ele><time>2026-04-11T10:23:04Z</time></trkpt><trkpt lat="43.72298265461201" lon="12.234259259666171"><ele>807.0</ele><time>2026-04-11T10:23:05Z</time></trkpt><trkpt lat="43.72295192263851" lon="12.23438346223625"><ele>807.5</ele><time>2026-04-11T10:23:06Z</time></trkpt><trkpt lat="43.72293474595155" lon="12.234504961834023"><ele>808.0</ele><time>2026-04-11T10:23:06.999Z</time></trkpt><trkpt lat="43.72290632745389" lon="12.23461038983744"><ele>808.5000000000001</ele><time>2026-04-11T10:23:07.999Z</time></trkpt><trkpt lat="43.72287772051098" lon="12.234718040861404"><ele>809.0</ele><time>2026-04-11T10:23:08.999Z</time></trkpt><trkpt lat="43.72285238390041" lon="12.234823259854997"><ele>809.3333333333334</ele><time>2026-04-11T10:23:09.999Z</time></trkpt><trkpt lat="43.72281991198687" lon="12.234917040361566"><ele>809.6666666666667</ele><time>2026-04-11T10:23:10.999Z</time></trkpt><trkpt lat="43.72278435467449" lon="12.23500925067803"><ele>810.0</ele><time>2026-04-11T10:23:11.999Z</time></trkpt><trkpt lat="43.722734714902735" lon="12.235092798440975"><ele>810.3333333333333</ele><time>2026-04-11T10:23:12.999Z</time></trkpt><trkpt lat="43.72267011191517" lon="12.23515938364717"><ele>810.6666666666666</ele><time>2026-04-11T10:23:13.999Z</time></trkpt><trkpt lat="43.7226042195929" lon="12.235208202014068"><ele>811.0</ele><time>2026-04-11T10:23:14.999Z</time></trkpt><trkpt lat="43.72253677798969" lon="12.235236464167377"><ele>809.9999999999999</ele><time>2026-04-11T10:23:15.999Z</time></trkpt><trkpt lat="43.72246713075803" lon="12.235244113327434"><ele>809.0</ele><time>2026-04-11T10:23:16.999Z</time></trkpt><trkpt lat="43.722397258830206" lon="12.23524370744935"><ele>808.0</ele><time>2026-04-11T10:23:17.999Z</time></trkpt><trkpt lat="43.72233397112117" lon="12.2352134196333"><ele>807.0</ele><time>2026-04-11T10:23:18.999Z</time></trkpt><trkpt lat="43.72227663304038" lon="12.235164362549138"><ele>805.9999999999999</ele><time>2026-04-11T10:23:19.999Z</time></trkpt><trkpt lat="43.72222958975522" lon="12.235099851547815"><ele>805.0</ele><time>2026-04-11T10:23:20.999Z</time></trkpt><trkpt lat="43.72214115175159" lon="12.234984086325579"><ele>804.9999999999999</ele><time>2026-04-11T10:23:22.999Z</time></trkpt><trkpt lat="43.722063596084695" lon="12.234886718525894"><ele>805.0</ele><time>2026-04-11T10:23:24.999Z</time></trkpt><trkpt lat="43.72200598757767" lon="12.234786798719364"><ele>805.0</ele><time>2026-04-11T10:23:26.999Z</time></trkpt><trkpt lat="43.72193623849372" lon="12.234713729739592"><ele>805.0</ele><time>2026-04-11T10:23:28.999Z</time></trkpt><trkpt lat="43.7218805986515" lon="12.23464701016601"><ele>804.9999999999999</ele><time>2026-04-11T10:23:30.999Z</time></trkpt><trkpt lat="43.72182152110258" lon="12.234613987149245"><ele>805.0</ele><time>2026-04-11T10:23:33.999Z</time></trkpt><trkpt lat="43.721753112282435" lon="12.234606001217298"><ele>803.0</ele><time>2026-04-11T10:24:03.999Z</time></trkpt><trkpt lat="43.721641446951445" lon="12.234596994592986"><ele>801.0</ele><time>2026-04-11T10:24:05.999Z</time></trkpt><trkpt lat="43.72154893566361" lon="12.234638323024265"><ele>799.0</ele><time>2026-04-11T10:24:07.999Z</time></trkpt><trkpt lat="43.72143231271605" lon="12.234684024403709"><ele>797.0</ele><time>2026-04-11T10:24:09.999Z</time></trkpt><trkpt lat="43.72132888314575" lon="12.234684063104083"><ele>795.0</ele><time>2026-04-11T10:24:11.999Z</time></trkpt><trkpt lat="43.72121321386113" lon="12.23461156279314"><ele>795.0</ele><time>2026-04-11T10:24:13.999Z</time></trkpt><trkpt lat="43.72116393374585" lon="12.234529212854028"><ele>795.0</ele><time>2026-04-11T10:24:14.999Z</time></trkpt><trkpt lat="43.721123064520356" lon="12.234450195551714"><ele>795.0</ele><time>2026-04-11T10:24:15.999Z</time></trkpt><trkpt lat="43.72107121666564" lon="12.234389107077696"><ele>795.0</ele><time>2026-04-11T10:24:16.999Z</time></trkpt><trkpt lat="43.72098491529214" lon="12.234338325169617"><ele>795.0</ele><time>2026-04-11T10:24:18Z</time></trkpt><trkpt lat="43.72090210460246" lon="12.234307119183976"><ele>795.0</ele><time>2026-04-11T10:24:19Z</time></trkpt><trkpt lat="43.720825033513016" lon="12.23429080684381"><ele>796.6666666666666</ele><time>2026-04-11T10:24:20Z</time></trkpt><trkpt lat="43.72074932141858" lon="12.234271274747652"><ele>798.3333333333333</ele><time>2026-04-11T10:24:21Z</time></trkpt><trkpt lat="43.72066867266785" lon="12.234254294408462"><ele>800.0</ele><time>2026-04-11T10:24:22Z</time></trkpt><trkpt lat="43.72058533646296" lon="12.234231315115075"><ele>801.6666666666666</ele><time>2026-04-11T10:24:23Z</time></trkpt><trkpt lat="43.72050190093974" lon="12.23420428905943"><ele>803.3333333333333</ele><time>2026-04-11T10:24:24Z</time></trkpt><trkpt lat="43.72041616829162" lon="12.234179647051718"><ele>805.0</ele><time>2026-04-11T10:24:25Z</time></trkpt><trkpt lat="43.720321110299146" lon="12.23415185447922"><ele>806.0</ele><time>2026-04-11T10:24:26Z</time></trkpt><trkpt lat="43.720226635512155" lon="12.234128122644508"><ele>807.0</ele><time>2026-04-11T10:24:27Z</time></trkpt><trkpt lat="43.720134684631205" lon="12.234096942212306"><ele>808.0</ele><time>2026-04-11T10:24:28Z</time></trkpt><trkpt lat="43.72003986104739" lon="12.234066970218542"><ele>809.0</ele><time>2026-04-11T10:24:29Z</time></trkpt><trkpt lat="43.71994126224755" lon="12.234034715152228"><ele>810.0</ele><time>2026-04-11T10:24:30Z</time></trkpt><trkpt lat="43.719839416220765" lon="12.234005957916391"><ele>810.0</ele><time>2026-04-11T10:24:31Z</time></trkpt><trkpt lat="43.71973818583594" lon="12.233973992485149"><ele>810.0</ele><time>2026-04-11T10:24:32Z</time></trkpt><trkpt lat="43.719632233546385" lon="12.233941600034145"><ele>810.0</ele><time>2026-04-11T10:24:33Z</time></trkpt><trkpt lat="43.71952280426969" lon="12.233909758127904"><ele>810.0</ele><time>2026-04-11T10:24:34Z</time></trkpt><trkpt lat="43.71941113609926" lon="12.233900395075926"><ele>810.0</ele><time>2026-04-11T10:24:35Z</time></trkpt><trkpt lat="43.719304829445996" lon="12.233922226410776"><ele>809.25</ele><time>2026-04-11T10:24:36Z</time></trkpt><trkpt lat="43.719205915353264" lon="12.233975090063042"><ele>808.5</ele><time>2026-04-11T10:24:37Z</time></trkpt><trkpt lat="43.71911331003894" lon="12.234052058880815"><ele>807.75</ele><time>2026-04-11T10:24:38Z</time></trkpt><trkpt lat="43.719023126187814" lon="12.234151804601877"><ele>807.0</ele><time>2026-04-11T10:24:39Z</time></trkpt><trkpt lat="43.718930512703174" lon="12.23425743645351"><ele>807.0</ele><time>2026-04-11T10:24:40Z</time></trkpt><trkpt lat="43.71883779777557" lon="12.234366609300478"><ele>807.0</ele><time>2026-04-11T10:24:41Z</time></trkpt><trkpt lat="43.71874478151752" lon="12.234480382759848"><ele>807.0</ele><time>2026-04-11T10:24:42Z</time></trkpt><trkpt lat="43.71865686988856" lon="12.234604006106748"><ele>807.0</ele><time>2026-04-11T10:24:43Z</time></trkpt><trkpt lat="43.71857578570774" lon="12.234739010331614"><ele>806.0</ele><time>2026-04-11T10:24:44Z</time></trkpt><trkpt lat="43.71851769781544" lon="12.234879711766217"><ele>805.0</ele><time>2026-04-11T10:24:45Z</time></trkpt><trkpt lat="43.718456246509724" lon="12.235029730766426"><ele>804.0</ele><time>2026-04-11T10:24:46Z</time></trkpt><trkpt lat="43.71841105917081" lon="12.235187288772089"><ele>803.0</ele><time>2026-04-11T10:24:47Z</time></trkpt><trkpt lat="43.71836726919327" lon="12.235349081741125"><ele>803.0</ele><time>2026-04-11T10:24:48Z</time></trkpt><trkpt lat="43.718325141788675" lon="12.235507528360538"><ele>803.0</ele><time>2026-04-11T10:24:49Z</time></trkpt><trkpt lat="43.71828056414322" lon="12.235654034843028"><ele>803.0</ele><time>2026-04-11T10:24:50Z</time></trkpt><trkpt lat="43.71822168930858" lon="12.235812941431183"><ele>803.0</ele><time>2026-04-11T10:24:51Z</time></trkpt><trkpt lat="43.71815381883305" lon="12.235958929356181"><ele>805.0</ele><time>2026-04-11T10:24:52Z</time></trkpt><trkpt lat="43.7180650268132" lon="12.236078105845403"><ele>807.0</ele><time>2026-04-11T10:24:53Z</time></trkpt><trkpt lat="43.71796089823931" lon="12.236187179212456"><ele>809.0</ele><time>2026-04-11T10:24:54Z</time></trkpt><trkpt lat="43.71785035145343" lon="12.236253494592782"><ele>811.0</ele><time>2026-04-11T10:24:55Z</time></trkpt><trkpt lat="43.71774246394118" lon="12.236332906343462"><ele>811.1999999999999</ele><time>2026-04-11T10:24:56Z</time></trkpt><trkpt lat="43.71765298619459" lon="12.236426156567616"><ele>811.4</ele><time>2026-04-11T10:24:57Z</time></trkpt><trkpt lat="43.71756853223711" lon="12.23648814665591"><ele>811.6</ele><time>2026-04-11T10:24:58Z</time></trkpt><trkpt lat="43.717493727534816" lon="12.236544419112406"><ele>811.8</ele><time>2026-04-11T10:24:59Z</time></trkpt><trkpt lat="43.71742274292693" lon="12.236594094736454"><ele>812.0</ele><time>2026-04-11T10:25:00Z</time></trkpt><trkpt lat="43.7173501212436" lon="12.236644356733606"><ele>812.0000000000001</ele><time>2026-04-11T10:25:01Z</time></trkpt><trkpt lat="43.71728000000251" lon="12.236700686928248"><ele>812.0</ele><time>2026-04-11T10:25:02Z</time></trkpt><trkpt lat="43.717213462960295" lon="12.236752659909438"><ele>812.0</ele><time>2026-04-11T10:25:03Z</time></trkpt><trkpt lat="43.71714831406469" lon="12.236806622002844"><ele>812.0</ele><time>2026-04-11T10:25:04Z</time></trkpt><trkpt lat="43.71708668247932" lon="12.236873209542548"><ele>812.0000000000001</ele><time>2026-04-11T10:25:05Z</time></trkpt><trkpt lat="43.717037112344926" lon="12.236960679140939"><ele>812.0</ele><time>2026-04-11T10:25:06Z</time></trkpt><trkpt lat="43.71699465813524" lon="12.237064985677623"><ele>812.0</ele><time>2026-04-11T10:25:07Z</time></trkpt><trkpt lat="43.716990651498165" lon="12.237199601084674"><ele>812.0</ele><time>2026-04-11T10:25:08Z</time></trkpt><trkpt lat="43.71703872253331" lon="12.237321509488973"><ele>812.0</ele><time>2026-04-11T10:25:09Z</time></trkpt><trkpt lat="43.71710024436162" lon="12.237423807124637"><ele>812.0</ele><time>2026-04-11T10:25:10Z</time></trkpt><trkpt lat="43.71718800902344" lon="12.237484991575466"><ele>812.0</ele><time>2026-04-11T10:25:11Z</time></trkpt><trkpt lat="43.71728678695682" lon="12.237497278831404"><ele>813.4000000000001</ele><time>2026-04-11T10:25:12Z</time></trkpt><trkpt lat="43.71738262913116" lon="12.23746766020633"><ele>814.8000000000001</ele><time>2026-04-11T10:25:13Z</time></trkpt><trkpt lat="43.71747551548375" lon="12.23741838525192"><ele>816.2</ele><time>2026-04-11T10:25:14Z</time></trkpt><trkpt lat="43.717566527420274" lon="12.237366776655625"><ele>817.6</ele><time>2026-04-11T10:25:15Z</time></trkpt><trkpt lat="43.717656352007324" lon="12.237315004785584"><ele>819.0</ele><time>2026-04-11T10:25:16Z</time></trkpt><trkpt lat="43.71775417433135" lon="12.237256200747519"><ele>819.0</ele><time>2026-04-11T10:25:17Z</time></trkpt><trkpt lat="43.717850178848856" lon="12.237218868780742"><ele>819.0</ele><time>2026-04-11T10:25:18Z</time></trkpt><trkpt lat="43.71794592208348" lon="12.237223195347559"><ele>819.0</ele><time>2026-04-11T10:25:19Z</time></trkpt><trkpt lat="43.7180307682832" lon="12.237274552572067"><ele>819.0</ele><time>2026-04-11T10:25:20Z</time></trkpt><trkpt lat="43.71809887637504" lon="12.237373562768589"><ele>819.0</ele><time>2026-04-11T10:25:20.999Z</time></trkpt><trkpt lat="43.71811633536079" lon="12.237491583951737"><ele>821.6</ele><time>2026-04-11T10:25:21.999Z</time></trkpt><trkpt lat="43.718073660655236" lon="12.237614305210792"><ele>824.2</ele><time>2026-04-11T10:25:22.999Z</time></trkpt><trkpt lat="43.71802872020946" lon="12.237721141182272"><ele>826.8000000000001</ele><time>2026-04-11T10:25:23.999Z</time></trkpt><trkpt lat="43.71794734509859" lon="12.2377784730618"><ele>829.4000000000001</ele><time>2026-04-11T10:25:24.999Z</time></trkpt><trkpt lat="43.717847894448376" lon="12.237785691879905"><ele>832.0</ele><time>2026-04-11T10:25:25.999Z</time></trkpt><trkpt lat="43.7177469088082" lon="12.237794559494203"><ele>830.6</ele><time>2026-04-11T10:25:26.999Z</time></trkpt><trkpt lat="43.717639901486336" lon="12.237800393694766"><ele>829.2</ele><time>2026-04-11T10:25:27.999Z</time></trkpt><trkpt lat="43.71754881603632" lon="12.237823134371352"><ele>827.8</ele><time>2026-04-11T10:25:28.999Z</time></trkpt><trkpt lat="43.717447587975236" lon="12.237872375474787"><ele>826.4</ele><time>2026-04-11T10:25:29.999Z</time></trkpt><trkpt lat="43.717352077767636" lon="12.237965786211147"><ele>825.0</ele><time>2026-04-11T10:25:30.999Z</time></trkpt><trkpt lat="43.71727852580369" lon="12.238082400986542"><ele>828.25</ele><time>2026-04-11T10:25:31.999Z</time></trkpt><trkpt lat="43.717235468968845" lon="12.23824479940227"><ele>831.5</ele><time>2026-04-11T10:25:32.999Z</time></trkpt><trkpt lat="43.717189827483516" lon="12.238399361684849"><ele>834.75</ele><time>2026-04-11T10:25:33.999Z</time></trkpt><trkpt lat="43.71713679937976" lon="12.238544470743214"><ele>838.0</ele><time>2026-04-11T10:25:34.999Z</time></trkpt><trkpt lat="43.71708083252965" lon="12.238683639035601"><ele>838.0</ele><time>2026-04-11T10:25:35.999Z</time></trkpt><trkpt lat="43.71701403151152" lon="12.238796672911013"><ele>838.0</ele><time>2026-04-11T10:25:36.999Z</time></trkpt><trkpt lat="43.71691559634924" lon="12.238858078707699"><ele>838.0</ele><time>2026-04-11T10:25:37.999Z</time></trkpt><trkpt lat="43.71681375091479" lon="12.238893925360124"><ele>838.0</ele><time>2026-04-11T10:25:38.999Z</time></trkpt><trkpt lat="43.716708189818334" lon="12.238898769087054"><ele>838.0</ele><time>2026-04-11T10:25:39.999Z</time></trkpt><trkpt lat="43.71658033090898" lon="12.238905370387473"><ele>835.5</ele><time>2026-04-11T10:25:40.999Z</time></trkpt><trkpt lat="43.71645701919426" lon="12.238926190346913"><ele>833.0</ele><time>2026-04-11T10:25:41.999Z</time></trkpt><trkpt lat="43.71633582476273" lon="12.238926841017127"><ele>830.5</ele><time>2026-04-11T10:25:42.999Z</time></trkpt><trkpt lat="43.716224862208215" lon="12.238935478535353"><ele>828.0</ele><time>2026-04-11T10:25:43.999Z</time></trkpt><trkpt lat="43.71611779484143" lon="12.238943943297816"><ele>830.5</ele><time>2026-04-11T10:25:44.999Z</time></trkpt><trkpt lat="43.71601294044566" lon="12.23897440340306"><ele>833.0</ele><time>2026-04-11T10:25:45.999Z</time></trkpt><trkpt lat="43.71592036526896" lon="12.23904938139565"><ele>835.5</ele><time>2026-04-11T10:25:46.999Z</time></trkpt><trkpt lat="43.71583947161899" lon="12.23916053570773"><ele>838.0</ele><time>2026-04-11T10:25:47.999Z</time></trkpt><trkpt lat="43.71578348428804" lon="12.239309934500906"><ele>838.0</ele><time>2026-04-11T10:25:48.999Z</time></trkpt><trkpt lat="43.71576482366321" lon="12.239469769518058"><ele>838.0</ele><time>2026-04-11T10:25:49.999Z</time></trkpt><trkpt lat="43.715770434046625" lon="12.239643951356943"><ele>838.0</ele><time>2026-04-11T10:25:50.999Z</time></trkpt><trkpt lat="43.715779930819146" lon="12.239815010926831"><ele>838.0</ele><time>2026-04-11T10:25:51.999Z</time></trkpt><trkpt lat="43.71579285066363" lon="12.239985992158855"><ele>840.25</ele><time>2026-04-11T10:25:52.999Z</time></trkpt><trkpt lat="43.7157888513139" lon="12.24015922983314"><ele>842.5</ele><time>2026-04-11T10:25:53.999Z</time></trkpt><trkpt lat="43.71579671649992" lon="12.240334230641226"><ele>844.75</ele><time>2026-04-11T10:25:54.999Z</time></trkpt><trkpt lat="43.71579600556631" lon="12.24050460077114"><ele>847.0</ele><time>2026-04-11T10:25:55.999Z</time></trkpt><trkpt lat="43.71578099853973" lon="12.240675884389395"><ele>849.75</ele><time>2026-04-11T10:25:56.999Z</time></trkpt><trkpt lat="43.715752235181654" lon="12.240843469215209"><ele>852.5</ele><time>2026-04-11T10:25:57.999Z</time></trkpt><trkpt lat="43.71572391484451" lon="12.241003389115303"><ele>855.25</ele><time>2026-04-11T10:25:58.999Z</time></trkpt><trkpt lat="43.71570897965232" lon="12.241166674647083"><ele>858.0</ele><time>2026-04-11T10:25:59.999Z</time></trkpt><trkpt lat="43.715679731056575" lon="12.24131957171564"><ele>858.0</ele><time>2026-04-11T10:26:00.999Z</time></trkpt><trkpt lat="43.715652004852984" lon="12.24146379927816"><ele>858.0</ele><time>2026-04-11T10:26:01.999Z</time></trkpt><trkpt lat="43.715623209545655" lon="12.24160515681926"><ele>858.0</ele><time>2026-04-11T10:26:02.999Z</time></trkpt><trkpt lat="43.71559871020041" lon="12.241743874320433"><ele>858.0</ele><time>2026-04-11T10:26:03.999Z</time></trkpt><trkpt lat="43.71557245148957" lon="12.241881993923021"><ele>858.0</ele><time>2026-04-11T10:26:04.999Z</time></trkpt><trkpt lat="43.71554831929151" lon="12.24202221203125"><ele>859.2</ele><time>2026-04-11T10:26:05.999Z</time></trkpt><trkpt lat="43.71552560263458" lon="12.242161849324631"><ele>860.4</ele><time>2026-04-11T10:26:06.999Z</time></trkpt><trkpt lat="43.715501655307264" lon="12.242298502274014"><ele>861.6000000000001</ele><time>2026-04-11T10:26:07.999Z</time></trkpt><trkpt lat="43.71547960368556" lon="12.242435956427094"><ele>862.8000000000001</ele><time>2026-04-11T10:26:08.999Z</time></trkpt><trkpt lat="43.71546524422743" lon="12.242572110415967"><ele>864.0</ele><time>2026-04-11T10:26:09.999Z</time></trkpt><trkpt lat="43.71547720357441" lon="12.242706432368555"><ele>865.0</ele><time>2026-04-11T10:26:10.999Z</time></trkpt><trkpt lat="43.715521298478585" lon="12.242831218188782"><ele>866.0000000000001</ele><time>2026-04-11T10:26:11.999Z</time></trkpt><trkpt lat="43.715587123889264" lon="12.2429319173167"><ele>867.0000000000001</ele><time>2026-04-11T10:26:12.999Z</time></trkpt><trkpt lat="43.71567322252209" lon="12.243002121010115"><ele>868.0</ele><time>2026-04-11T10:26:13.999Z</time></trkpt><trkpt lat="43.7157752972936" lon="12.243017445529158"><ele>869.0</ele><time>2026-04-11T10:26:14.999Z</time></trkpt><trkpt lat="43.71587940650161" lon="12.242988059673937"><ele>869.0</ele><time>2026-04-11T10:26:15.999Z</time></trkpt><trkpt lat="43.715974878041216" lon="12.242926888935909"><ele>869.0</ele><time>2026-04-11T10:26:16.999Z</time></trkpt><trkpt lat="43.71606787701176" lon="12.242824894673998"><ele>869.0</ele><time>2026-04-11T10:26:17.999Z</time></trkpt><trkpt lat="43.716164535092986" lon="12.242720614868736"><ele>869.0</ele><time>2026-04-11T10:26:18.999Z</time></trkpt><trkpt lat="43.716258305914394" lon="12.242620340522246"><ele>872.8000000000001</ele><time>2026-04-11T10:26:19.999Z</time></trkpt><trkpt lat="43.716331154516126" lon="12.24251890125067"><ele>876.6000000000001</ele><time>2026-04-11T10:26:20.999Z</time></trkpt><trkpt lat="43.716381615395626" lon="12.242388121893454"><ele>880.4</ele><time>2026-04-11T10:26:21.999Z</time></trkpt><trkpt lat="43.71639935279793" lon="12.242228747461898"><ele>884.2</ele><time>2026-04-11T10:26:22.999Z</time></trkpt><trkpt lat="43.71638766269787" lon="12.24206157337436"><ele>888.0</ele><time>2026-04-11T10:26:24Z</time></trkpt><trkpt lat="43.71635405215724" lon="12.241906913053137"><ele>888.0</ele><time>2026-04-11T10:26:25Z</time></trkpt><trkpt lat="43.716303715670676" lon="12.241754409997984"><ele>888.0</ele><time>2026-04-11T10:26:26Z</time></trkpt><trkpt lat="43.716253712147115" lon="12.241617087085647"><ele>888.0</ele><time>2026-04-11T10:26:27Z</time></trkpt><trkpt lat="43.71621711094532" lon="12.241479473563277"><ele>888.0</ele><time>2026-04-11T10:26:28Z</time></trkpt><trkpt lat="43.71621087263556" lon="12.241329895631498"><ele>888.0</ele><time>2026-04-11T10:26:29Z</time></trkpt><trkpt lat="43.71623912769578" lon="12.24117502700556"><ele>885.75</ele><time>2026-04-11T10:26:30Z</time></trkpt><trkpt lat="43.716323759540956" lon="12.241061842480455"><ele>883.5</ele><time>2026-04-11T10:26:31Z</time></trkpt><trkpt lat="43.71641823301212" lon="12.240962922164057"><ele>881.25</ele><time>2026-04-11T10:26:32Z</time></trkpt><trkpt lat="43.71653125388662" lon="12.240921839184784"><ele>879.0</ele><time>2026-04-11T10:26:33Z</time></trkpt><trkpt lat="43.71664244901131" lon="12.24086608395953"><ele>879.0</ele><time>2026-04-11T10:26:34Z</time></trkpt><trkpt lat="43.71675579042514" lon="12.240811050747599"><ele>879.0</ele><time>2026-04-11T10:26:35Z</time></trkpt><trkpt lat="43.716867151575926" lon="12.240760206166957"><ele>879.0</ele><time>2026-04-11T10:26:36Z</time></trkpt><trkpt lat="43.71697891579735" lon="12.240724466950438"><ele>879.0</ele><time>2026-04-11T10:26:37Z</time></trkpt><trkpt lat="43.717088564649536" lon="12.240714102466477"><ele>881.5</ele><time>2026-04-11T10:26:38Z</time></trkpt><trkpt lat="43.717205467206774" lon="12.240710291089595"><ele>884.0</ele><time>2026-04-11T10:26:39Z</time></trkpt><trkpt lat="43.7173221367041" lon="12.240728437596813"><ele>886.5</ele><time>2026-04-11T10:26:40Z</time></trkpt><trkpt lat="43.717439758107595" lon="12.240759394485584"><ele>889.0</ele><time>2026-04-11T10:26:41Z</time></trkpt><trkpt lat="43.71755866399207" lon="12.240794946238909"><ele>889.0</ele><time>2026-04-11T10:26:42Z</time></trkpt><trkpt lat="43.717677224235956" lon="12.240830307788285"><ele>889.0</ele><time>2026-04-11T10:26:43Z</time></trkpt><trkpt lat="43.71779571515035" lon="12.240826473852183"><ele>889.0</ele><time>2026-04-11T10:26:44Z</time></trkpt><trkpt lat="43.71791008110124" lon="12.2408169473671"><ele>889.0</ele><time>2026-04-11T10:26:45Z</time></trkpt><trkpt lat="43.7180097748012" lon="12.240801837671148"><ele>889.0</ele><time>2026-04-11T10:26:46Z</time></trkpt><trkpt lat="43.718107856891734" lon="12.240777024895243"><ele>889.0000000000001</ele><time>2026-04-11T10:26:47Z</time></trkpt><trkpt lat="43.71820746499184" lon="12.240781552638468"><ele>889.0000000000001</ele><time>2026-04-11T10:26:48Z</time></trkpt><trkpt lat="43.718303316576694" lon="12.240790210157135"><ele>889.0</ele><time>2026-04-11T10:26:49Z</time></trkpt><trkpt lat="43.718378900881525" lon="12.240859751620256"><ele>889.0</ele><time>2026-04-11T10:26:50Z</time></trkpt><trkpt lat="43.71842309382213" lon="12.240950633634444"><ele>888.9999999999999</ele><time>2026-04-11T10:26:51Z</time></trkpt><trkpt lat="43.71844717908359" lon="12.241050958235922"><ele>889.0</ele><time>2026-04-11T10:26:52Z</time></trkpt><trkpt lat="43.71840972108987" lon="12.241159263998043"><ele>889.0</ele><time>2026-04-11T10:26:53Z</time></trkpt><trkpt lat="43.71836780657446" lon="12.241231875801358"><ele>889.0</ele><time>2026-04-11T10:26:54Z</time></trkpt><trkpt lat="43.71830632374492" lon="12.241281241877514"><ele>888.9999999999999</ele><time>2026-04-11T10:26:55Z</time></trkpt><trkpt lat="43.71822913303783" lon="12.241305812833508"><ele>889.0</ele><time>2026-04-11T10:26:56Z</time></trkpt><trkpt lat="43.718141287073436" lon="12.2412935394917"><ele>889.0</ele><time>2026-04-11T10:26:57Z</time></trkpt><trkpt lat="43.71805353217466" lon="12.241272621058519"><ele>889.0000000000001</ele><time>2026-04-11T10:26:58Z</time></trkpt><trkpt lat="43.71795967278489" lon="12.241249473380961"><ele>889.0000000000001</ele><time>2026-04-11T10:26:59Z</time></trkpt><trkpt lat="43.717862007196615" lon="12.241224182532301"><ele>889.0</ele><time>2026-04-11T10:27:00Z</time></trkpt><trkpt lat="43.71776383056702" lon="12.241202623689263"><ele>889.0</ele><time>2026-04-11T10:27:01Z</time></trkpt><trkpt lat="43.717669585591636" lon="12.241190347816993"><ele>889.0</ele><time>2026-04-11T10:27:02Z</time></trkpt><trkpt lat="43.71757131055926" lon="12.24119455359624"><ele>889.0000000000001</ele><time>2026-04-11T10:27:03Z</time></trkpt><trkpt lat="43.71747258148373" lon="12.241221460198691"><ele>889.0000000000001</ele><time>2026-04-11T10:27:04Z</time></trkpt><trkpt lat="43.717376350460896" lon="12.241274800854328"><ele>889.0</ele><time>2026-04-11T10:27:05Z</time></trkpt><trkpt lat="43.717282785419336" lon="12.241352377274781"><ele>889.0</ele><time>2026-04-11T10:27:06Z</time></trkpt><trkpt lat="43.71720014809777" lon="12.241457270028487"><ele>893.5</ele><time>2026-04-11T10:27:07Z</time></trkpt><trkpt lat="43.71713794099384" lon="12.24159426852694"><ele>898.0</ele><time>2026-04-11T10:27:08Z</time></trkpt><trkpt lat="43.7170937810017" lon="12.241741717299071"><ele>902.5</ele><time>2026-04-11T10:27:09Z</time></trkpt><trkpt lat="43.71707237368188" lon="12.241905950230365"><ele>907.0</ele><time>2026-04-11T10:27:10Z</time></trkpt><trkpt lat="43.71709066208702" lon="12.2420702814152"><ele>907.0</ele><time>2026-04-11T10:27:11Z</time></trkpt><trkpt lat="43.7171095596192" lon="12.242234879416754"><ele>907.0</ele><time>2026-04-11T10:27:12Z</time></trkpt><trkpt lat="43.717180044443715" lon="12.242371785106224"><ele>907.0</ele><time>2026-04-11T10:27:13Z</time></trkpt><trkpt lat="43.717236783261804" lon="12.242500939919083"><ele>907.0</ele><time>2026-04-11T10:27:14Z</time></trkpt><trkpt lat="43.71729104671146" lon="12.24262195040613"><ele>908.6</ele><time>2026-04-11T10:27:15Z</time></trkpt><trkpt lat="43.71732258791805" lon="12.24274508639964"><ele>910.2</ele><time>2026-04-11T10:27:16Z</time></trkpt><trkpt lat="43.71732371923089" lon="12.242889737291284"><ele>911.8</ele><time>2026-04-11T10:27:17Z</time></trkpt><trkpt lat="43.717290318497255" lon="12.24303970632659"><ele>913.4</ele><time>2026-04-11T10:27:18Z</time></trkpt><trkpt lat="43.71723343077257" lon="12.243178395657639"><ele>915.0</ele><time>2026-04-11T10:27:19Z</time></trkpt><trkpt lat="43.71716109748017" lon="12.24330402107538"><ele>915.0</ele><time>2026-04-11T10:27:20Z</time></trkpt><trkpt lat="43.7171032024959" lon="12.243435841800247"><ele>915.0</ele><time>2026-04-11T10:27:21Z</time></trkpt><trkpt lat="43.71706703391918" lon="12.243583446815895"><ele>915.0</ele><time>2026-04-11T10:27:22Z</time></trkpt><trkpt lat="43.71705427754578" lon="12.243742063706042"><ele>915.0</ele><time>2026-04-11T10:27:23Z</time></trkpt><trkpt lat="43.71708087792469" lon="12.243902033269396"><ele>915.25</ele><time>2026-04-11T10:27:24Z</time></trkpt><trkpt lat="43.71713591152187" lon="12.244053975189008"><ele>915.5</ele><time>2026-04-11T10:27:25Z</time></trkpt><trkpt lat="43.71720486297884" lon="12.24418702652716"><ele>915.75</ele><time>2026-04-11T10:27:26Z</time></trkpt><trkpt lat="43.71727955041504" lon="12.244315096810777"><ele>916.0</ele><time>2026-04-11T10:27:27Z</time></trkpt><trkpt lat="43.717347660705755" lon="12.244427987573445"><ele>916.0</ele><time>2026-04-11T10:27:28Z</time></trkpt><trkpt lat="43.71741517920443" lon="12.244546020129889"><ele>915.9999999999999</ele><time>2026-04-11T10:27:29Z</time></trkpt><trkpt lat="43.71746794071055" lon="12.244670863237003"><ele>915.9999999999999</ele><time>2026-04-11T10:27:30Z</time></trkpt><trkpt lat="43.71748221773768" lon="12.244820550404405"><ele>916.0</ele><time>2026-04-11T10:27:31Z</time></trkpt><trkpt lat="43.71747874450058" lon="12.244971129018099"><ele>916.0</ele><time>2026-04-11T10:27:32Z</time></trkpt><trkpt lat="43.717463602113874" lon="12.24513665322741"><ele>916.75</ele><time>2026-04-11T10:27:32.999Z</time></trkpt><trkpt lat="43.71739538491117" lon="12.24526741713613"><ele>917.5</ele><time>2026-04-11T10:27:33.999Z</time></trkpt><trkpt lat="43.717303282588674" lon="12.245384815380868"><ele>918.25</ele><time>2026-04-11T10:27:34.999Z</time></trkpt><trkpt lat="43.717218709250204" lon="12.245502908658592"><ele>919.0</ele><time>2026-04-11T10:27:35.999Z</time></trkpt><trkpt lat="43.71712964211574" lon="12.245605495767247"><ele>919.0</ele><time>2026-04-11T10:27:36.999Z</time></trkpt><trkpt lat="43.71702694028557" lon="12.245693723767115"><ele>919.0</ele><time>2026-04-11T10:27:37.999Z</time></trkpt><trkpt lat="43.71691853864034" lon="12.24575808992284"><ele>919.0</ele><time>2026-04-11T10:27:38.999Z</time></trkpt><trkpt lat="43.71681142736833" lon="12.245799534970377"><ele>919.0</ele><time>2026-04-11T10:27:39.999Z</time></trkpt><trkpt lat="43.71670070460659" lon="12.245833449708911"><ele>919.0</ele><time>2026-04-11T10:27:40.999Z</time></trkpt><trkpt lat="43.71658964503828" lon="12.245870047057743"><ele>919.0</ele><time>2026-04-11T10:27:41.999Z</time></trkpt><trkpt lat="43.716481674983434" lon="12.245902296338775"><ele>919.0</ele><time>2026-04-11T10:27:42.999Z</time></trkpt><trkpt lat="43.716372408511816" lon="12.2459359916308"><ele>919.0</ele><time>2026-04-11T10:27:43.999Z</time></trkpt><trkpt lat="43.71626031630898" lon="12.24597080953741"><ele>919.0</ele><time>2026-04-11T10:27:44.999Z</time></trkpt><trkpt lat="43.71614529096884" lon="12.246003154935073"><ele>919.0</ele><time>2026-04-11T10:27:45.999Z</time></trkpt><trkpt lat="43.71602649170074" lon="12.246021990559369"><ele>919.0</ele><time>2026-04-11T10:27:46.999Z</time></trkpt><trkpt lat="43.71591118979065" lon="12.24602414129699"><ele>919.0</ele><time>2026-04-11T10:27:47.999Z</time></trkpt><trkpt lat="43.71580436051651" lon="12.246001929022418"><ele>918.5</ele><time>2026-04-11T10:27:48.999Z</time></trkpt><trkpt lat="43.715690926445596" lon="12.245972324088175"><ele>918.0</ele><time>2026-04-11T10:27:49.999Z</time></trkpt><trkpt lat="43.71557149735546" lon="12.24593446759785"><ele>917.5</ele><time>2026-04-11T10:27:50.999Z</time></trkpt><trkpt lat="43.71544869252272" lon="12.245898423101863"><ele>917.0</ele><time>2026-04-11T10:27:51.999Z</time></trkpt><trkpt lat="43.715324972375406" lon="12.245894294813688"><ele>917.0</ele><time>2026-04-11T10:27:52.999Z</time></trkpt><trkpt lat="43.71519263981965" lon="12.245902239483966"><ele>917.0</ele><time>2026-04-11T10:27:53.999Z</time></trkpt><trkpt lat="43.71507807033109" lon="12.245990585467537"><ele>917.0</ele><time>2026-04-11T10:27:54.999Z</time></trkpt><trkpt lat="43.71496478861012" lon="12.246074899838382"><ele>917.0</ele><time>2026-04-11T10:27:55.999Z</time></trkpt><trkpt lat="43.71484372666885" lon="12.246183331859863"><ele>917.0</ele><time>2026-04-11T10:27:56.999Z</time></trkpt><trkpt lat="43.71471196319597" lon="12.246287649885293"><ele>917.0</ele><time>2026-04-11T10:27:57.999Z</time></trkpt><trkpt lat="43.714573706616505" lon="12.246387665047404"><ele>917.0</ele><time>2026-04-11T10:27:58.999Z</time></trkpt><trkpt lat="43.71443152295701" lon="12.246488540541879"><ele>916.6666666666667</ele><time>2026-04-11T10:27:59.999Z</time></trkpt><trkpt lat="43.7142871135418" lon="12.246610786485368"><ele>916.3333333333333</ele><time>2026-04-11T10:28:00.999Z</time></trkpt><trkpt lat="43.714140243019266" lon="12.246747749927813"><ele>916.0</ele><time>2026-04-11T10:28:01.999Z</time></trkpt><trkpt lat="43.71399545851028" lon="12.246883430828747"><ele>916.0</ele><time>2026-04-11T10:28:02.999Z</time></trkpt><trkpt lat="43.71386654349604" lon="12.247004239487676"><ele>916.0</ele><time>2026-04-11T10:28:03.999Z</time></trkpt><trkpt lat="43.71374940098001" lon="12.24711401643864"><ele>916.0</ele><time>2026-04-11T10:28:04.999Z</time></trkpt><trkpt lat="43.71364379121403" lon="12.247207703049057"><ele>916.0</ele><time>2026-04-11T10:28:05.999Z</time></trkpt><trkpt lat="43.71354671893624" lon="12.2472864297792"><ele>915.1999999999999</ele><time>2026-04-11T10:28:06.999Z</time></trkpt><trkpt lat="43.713443340837934" lon="12.247339124131187"><ele>914.3999999999999</ele><time>2026-04-11T10:28:07.999Z</time></trkpt><trkpt lat="43.713337611048644" lon="12.247352986661522"><ele>913.6</ele><time>2026-04-11T10:28:08.999Z</time></trkpt><trkpt lat="43.713234301864276" lon="12.247318381534978"><ele>912.8</ele><time>2026-04-11T10:28:09.999Z</time></trkpt><trkpt lat="43.71313692657809" lon="12.24723134293282"><ele>912.0</ele><time>2026-04-11T10:28:10.999Z</time></trkpt><trkpt lat="43.71302167333895" lon="12.247140303767964"><ele>912.0</ele><time>2026-04-11T10:28:11.999Z</time></trkpt><trkpt lat="43.71291468545663" lon="12.247011496944145"><ele>912.0</ele><time>2026-04-11T10:28:12.999Z</time></trkpt><trkpt lat="43.712808275958444" lon="12.246900559058561"><ele>912.0</ele><time>2026-04-11T10:28:13.999Z</time></trkpt><trkpt lat="43.712691223591676" lon="12.246803918366199"><ele>912.0</ele><time>2026-04-11T10:28:14.999Z</time></trkpt><trkpt lat="43.71256152833515" lon="12.246709276799074"><ele>912.0</ele><time>2026-04-11T10:28:15.999Z</time></trkpt><trkpt lat="43.71242120014925" lon="12.246622175747827"><ele>912.0</ele><time>2026-04-11T10:28:16.999Z</time></trkpt><trkpt lat="43.71227979672759" lon="12.24656170567887"><ele>912.0</ele><time>2026-04-11T10:28:17.999Z</time></trkpt><trkpt lat="43.71214116003758" lon="12.246517778838621"><ele>912.0</ele><time>2026-04-11T10:28:18.999Z</time></trkpt><trkpt lat="43.71201002505926" lon="12.246485772165437"><ele>914.0</ele><time>2026-04-11T10:28:19.999Z</time></trkpt><trkpt lat="43.711878545464735" lon="12.246464652751822"><ele>916.0</ele><time>2026-04-11T10:28:20.999Z</time></trkpt><trkpt lat="43.7117502199074" lon="12.246442840897961"><ele>918.0</ele><time>2026-04-11T10:28:21.999Z</time></trkpt><trkpt lat="43.71162398345741" lon="12.246418565019367"><ele>920.0</ele><time>2026-04-11T10:28:22.999Z</time></trkpt><trkpt lat="43.71150585719079" lon="12.24639294352531"><ele>920.0</ele><time>2026-04-11T10:28:23.999Z</time></trkpt><trkpt lat="43.71138991598629" lon="12.246362933599366"><ele>920.0</ele><time>2026-04-11T10:28:24.999Z</time></trkpt><trkpt lat="43.71127384022145" lon="12.246307227056773"><ele>920.0</ele><time>2026-04-11T10:28:25.999Z</time></trkpt><trkpt lat="43.711160483843294" lon="12.246243414025429"><ele>920.0</ele><time>2026-04-11T10:28:26.999Z</time></trkpt><trkpt lat="43.71104233917366" lon="12.246179323708697"><ele>916.75</ele><time>2026-04-11T10:28:27.999Z</time></trkpt><trkpt lat="43.71091639898838" lon="12.246148487669815"><ele>913.5</ele><time>2026-04-11T10:28:28.999Z</time></trkpt><trkpt lat="43.710792878650764" lon="12.246147866431837"><ele>910.25</ele><time>2026-04-11T10:28:30Z</time></trkpt><trkpt lat="43.7106648515839" lon="12.246130976933596"><ele>907.0</ele><time>2026-04-11T10:28:31Z</time></trkpt><trkpt lat="43.71054077086447" lon="12.246148281359458"><ele>907.0</ele><time>2026-04-11T10:28:32Z</time></trkpt><trkpt lat="43.710419041985126" lon="12.2461806548781"><ele>907.0</ele><time>2026-04-11T10:28:33Z</time></trkpt><trkpt lat="43.71030085248551" lon="12.246227611226105"><ele>907.0</ele><time>2026-04-11T10:28:34Z</time></trkpt><trkpt lat="43.7101886387003" lon="12.246293508818725"><ele>907.0</ele><time>2026-04-11T10:28:35Z</time></trkpt><trkpt lat="43.71009212979741" lon="12.246396894163029"><ele>905.0</ele><time>2026-04-11T10:28:36Z</time></trkpt><trkpt lat="43.70998683117228" lon="12.24649571121226"><ele>903.0</ele><time>2026-04-11T10:28:37Z</time></trkpt><trkpt lat="43.70989885164023" lon="12.24663793222659"><ele>901.0</ele><time>2026-04-11T10:28:38Z</time></trkpt><trkpt lat="43.70981497278421" lon="12.246782867752636"><ele>899.0</ele><time>2026-04-11T10:28:39Z</time></trkpt><trkpt lat="43.709728083701904" lon="12.246925484790495"><ele>899.0</ele><time>2026-04-11T10:28:40Z</time></trkpt><trkpt lat="43.709635803358566" lon="12.247074750374003"><ele>899.0</ele><time>2026-04-11T10:28:41Z</time></trkpt><trkpt lat="43.70954539520427" lon="12.247220987714712"><ele>899.0</ele><time>2026-04-11T10:28:42Z</time></trkpt><trkpt lat="43.70946047003393" lon="12.247363640911347"><ele>899.0</ele><time>2026-04-11T10:28:43Z</time></trkpt><trkpt lat="43.709371060596446" lon="12.247520069828328"><ele>898.25</ele><time>2026-04-11T10:28:44Z</time></trkpt><trkpt lat="43.70928344281504" lon="12.2476667480108"><ele>897.5</ele><time>2026-04-11T10:28:45Z</time></trkpt><trkpt lat="43.7091969311969" lon="12.247810538777118"><ele>896.75</ele><time>2026-04-11T10:28:46Z</time></trkpt><trkpt lat="43.70911054129689" lon="12.247948923341774"><ele>896.0</ele><time>2026-04-11T10:28:47Z</time></trkpt><trkpt lat="43.7090291794431" lon="12.248079143466033"><ele>893.8</ele><time>2026-04-11T10:28:48Z</time></trkpt><trkpt lat="43.70895325843275" lon="12.248201804251634"><ele>891.5999999999999</ele><time>2026-04-11T10:28:49Z</time></trkpt><trkpt lat="43.70888336715726" lon="12.248314344291323"><ele>889.4</ele><time>2026-04-11T10:28:50Z</time></trkpt><trkpt lat="43.708812453513445" lon="12.248428971529641"><ele>887.2</ele><time>2026-04-11T10:28:51Z</time></trkpt><trkpt lat="43.70875438763687" lon="12.248563708006504"><ele>885.0</ele><time>2026-04-11T10:28:52Z</time></trkpt><trkpt lat="43.7087133500237" lon="12.24870018903659"><ele>885.0</ele><time>2026-04-11T10:28:53Z</time></trkpt><trkpt lat="43.708680914537815" lon="12.248841492361963"><ele>885.0</ele><time>2026-04-11T10:28:54Z</time></trkpt><trkpt lat="43.70864369391626" lon="12.248987086786034"><ele>885.0</ele><time>2026-04-11T10:28:55Z</time></trkpt><trkpt lat="43.708598854176536" lon="12.249119659089292"><ele>885.0</ele><time>2026-04-11T10:28:56Z</time></trkpt><trkpt lat="43.70853714918423" lon="12.249244117383272"><ele>885.0</ele><time>2026-04-11T10:28:57Z</time></trkpt><trkpt lat="43.70845133015469" lon="12.249336584333777"><ele>885.5</ele><time>2026-04-11T10:28:58Z</time></trkpt><trkpt lat="43.70832777474362" lon="12.24936510620307"><ele>886.0</ele><time>2026-04-11T10:28:59Z</time></trkpt><trkpt lat="43.70820497694488" lon="12.249411776303681"><ele>886.5</ele><time>2026-04-11T10:29:00Z</time></trkpt><trkpt lat="43.708084564122366" lon="12.249454074043607"><ele>887.0</ele><time>2026-04-11T10:29:01Z</time></trkpt><trkpt lat="43.70796642095666" lon="12.24949510935105"><ele>887.0</ele><time>2026-04-11T10:29:02Z</time></trkpt><trkpt lat="43.707850746926596" lon="12.249535915937665"><ele>887.0</ele><time>2026-04-11T10:29:03Z</time></trkpt><trkpt lat="43.70773840141826" lon="12.249563510089207"><ele>887.0</ele><time>2026-04-11T10:29:04Z</time></trkpt><trkpt lat="43.70762388334387" lon="12.249563387494685"><ele>887.0</ele><time>2026-04-11T10:29:05Z</time></trkpt><trkpt lat="43.70751065399261" lon="12.249574575019196"><ele>888.25</ele><time>2026-04-11T10:29:06Z</time></trkpt><trkpt lat="43.70739495334536" lon="12.249606889818855"><ele>889.5</ele><time>2026-04-11T10:29:07Z</time></trkpt><trkpt lat="43.70728980821878" lon="12.249689584332879"><ele>890.75</ele><time>2026-04-11T10:29:08Z</time></trkpt><trkpt lat="43.70719449415067" lon="12.249808411580837"><ele>892.0</ele><time>2026-04-11T10:29:09Z</time></trkpt><trkpt lat="43.707117517485806" lon="12.249961530206601"><ele>890.5</ele><time>2026-04-11T10:29:10Z</time></trkpt><trkpt lat="43.70704880344222" lon="12.250121029678406"><ele>889.0</ele><time>2026-04-11T10:29:11Z</time></trkpt><trkpt lat="43.70698358225506" lon="12.250282520659335"><ele>887.5</ele><time>2026-04-11T10:29:12Z</time></trkpt><trkpt lat="43.70691606792218" lon="12.25044004848524"><ele>886.0</ele><time>2026-04-11T10:29:13Z</time></trkpt><trkpt lat="43.70683222443655" lon="12.250583990115812"><ele>882.25</ele><time>2026-04-11T10:29:14Z</time></trkpt><trkpt lat="43.70672967086624" lon="12.250712171513124"><ele>878.5</ele><time>2026-04-11T10:29:15Z</time></trkpt><trkpt lat="43.70662566109978" lon="12.250834961757137"><ele>874.75</ele><time>2026-04-11T10:29:16Z</time></trkpt><trkpt lat="43.70652993470242" lon="12.250951176227295"><ele>871.0</ele><time>2026-04-11T10:29:17Z</time></trkpt><trkpt lat="43.706440408933304" lon="12.251048206561853"><ele>871.0</ele><time>2026-04-11T10:29:18Z</time></trkpt><trkpt lat="43.70636344479011" lon="12.251116950564555"><ele>870.9999999999999</ele><time>2026-04-11T10:29:19Z</time></trkpt><trkpt lat="43.70627292508525" lon="12.251153215259935"><ele>870.9999999999999</ele><time>2026-04-11T10:29:20Z</time></trkpt><trkpt lat="43.70617154788085" lon="12.251118837954044"><ele>871.0</ele><time>2026-04-11T10:29:21Z</time></trkpt><trkpt lat="43.706055315311524" lon="12.251071640224724"><ele>871.0</ele><time>2026-04-11T10:29:22Z</time></trkpt><trkpt lat="43.70591963377198" lon="12.251012068709226"><ele>872.0</ele><time>2026-04-11T10:29:23Z</time></trkpt><trkpt lat="43.70578971200373" lon="12.250961782235938"><ele>873.0</ele><time>2026-04-11T10:29:24Z</time></trkpt><trkpt lat="43.705669969462804" lon="12.250925492981278"><ele>874.0</ele><time>2026-04-11T10:29:25Z</time></trkpt><trkpt lat="43.705542099123946" lon="12.25092274763846"><ele>875.0</ele><time>2026-04-11T10:29:26Z</time></trkpt><trkpt lat="43.705414763802004" lon="12.250913360694762"><ele>875.0</ele><time>2026-04-11T10:29:27Z</time></trkpt><trkpt lat="43.705283794861685" lon="12.25090646871548"><ele>875.0</ele><time>2026-04-11T10:29:28Z</time></trkpt><trkpt lat="43.705155128228085" lon="12.250909174459345"><ele>875.0</ele><time>2026-04-11T10:29:29Z</time></trkpt><trkpt lat="43.70502349254796" lon="12.250927829102341"><ele>875.0</ele><time>2026-04-11T10:29:30Z</time></trkpt><trkpt lat="43.704892037581466" lon="12.250966864679368"><ele>872.5</ele><time>2026-04-11T10:29:31Z</time></trkpt><trkpt lat="43.70475768180973" lon="12.251031231726726"><ele>870.0</ele><time>2026-04-11T10:29:32Z</time></trkpt><trkpt lat="43.70463291495803" lon="12.251113666618178"><ele>867.5</ele><time>2026-04-11T10:29:33Z</time></trkpt><trkpt lat="43.70451494442588" lon="12.251206859319245"><ele>865.0</ele><time>2026-04-11T10:29:34Z</time></trkpt><trkpt lat="43.70439181475529" lon="12.251316589802704"><ele>862.75</ele><time>2026-04-11T10:29:35Z</time></trkpt><trkpt lat="43.70428424506338" lon="12.251438406958"><ele>860.5</ele><time>2026-04-11T10:29:36Z</time></trkpt><trkpt lat="43.70418358249281" lon="12.251553395706804"><ele>858.25</ele><time>2026-04-11T10:29:37Z</time></trkpt><trkpt lat="43.70409827688278" lon="12.251670017389106"><ele>856.0</ele><time>2026-04-11T10:29:37.999Z</time></trkpt><trkpt lat="43.70401833025878" lon="12.251780945989458"><ele>855.4</ele><time>2026-04-11T10:29:38.999Z</time></trkpt><trkpt lat="43.70397399427157" lon="12.251929634556479"><ele>854.8</ele><time>2026-04-11T10:29:39.999Z</time></trkpt><trkpt lat="43.70398553581236" lon="12.252077718004477"><ele>854.1999999999999</ele><time>2026-04-11T10:29:40.999Z</time></trkpt><trkpt lat="43.7040193040946" lon="12.252206474836623"><ele>853.5999999999999</ele><time>2026-04-11T10:29:41.999Z</time></trkpt><trkpt lat="43.704096874599195" lon="12.252299251591259"><ele>853.0</ele><time>2026-04-11T10:29:42.999Z</time></trkpt><trkpt lat="43.70419879604817" lon="12.252370236093732"><ele>851.75</ele><time>2026-04-11T10:29:43.999Z</time></trkpt><trkpt lat="43.704307776725685" lon="12.252414270046357"><ele>850.5</ele><time>2026-04-11T10:29:44.999Z</time></trkpt><trkpt lat="43.704419058864865" lon="12.252447843657945"><ele>849.25</ele><time>2026-04-11T10:29:45.999Z</time></trkpt><trkpt lat="43.70453567031088" lon="12.252459650683878"><ele>848.0</ele><time>2026-04-11T10:29:46.999Z</time></trkpt><trkpt lat="43.70464753300355" lon="12.252431375804898"><ele>849.0</ele><time>2026-04-11T10:29:47.999Z</time></trkpt><trkpt lat="43.704753246441065" lon="12.252359791488695"><ele>850.0</ele><time>2026-04-11T10:29:48.999Z</time></trkpt><trkpt lat="43.70485431804021" lon="12.252262826800493"><ele>851.0</ele><time>2026-04-11T10:29:49.999Z</time></trkpt><trkpt lat="43.704952898743485" lon="12.252164939382466"><ele>852.0</ele><time>2026-04-11T10:29:50.999Z</time></trkpt><trkpt lat="43.70506932446407" lon="12.252101652091936"><ele>852.0</ele><time>2026-04-11T10:29:51.999Z</time></trkpt><trkpt lat="43.70520273426559" lon="12.252071363354545"><ele>852.0</ele><time>2026-04-11T10:29:52.999Z</time></trkpt><trkpt lat="43.70534074773656" lon="12.252063504369117"><ele>852.0</ele><time>2026-04-11T10:29:53.999Z</time></trkpt><trkpt lat="43.70547333640165" lon="12.252083521330793"><ele>852.0</ele><time>2026-04-11T10:29:54.999Z</time></trkpt><trkpt lat="43.705601854647966" lon="12.252131253590907"><ele>852.25</ele><time>2026-04-11T10:29:55.999Z</time></trkpt><trkpt lat="43.705722182680894" lon="12.252217151496605"><ele>852.5</ele><time>2026-04-11T10:29:56.999Z</time></trkpt><trkpt lat="43.705797535514336" lon="12.252370424571478"><ele>852.75</ele><time>2026-04-11T10:29:57.999Z</time></trkpt><trkpt lat="43.705878173280205" lon="12.252520773387216"><ele>853.0</ele><time>2026-04-11T10:29:58.999Z</time></trkpt><trkpt lat="43.70595868874557" lon="12.252671256395733"><ele>851.25</ele><time>2026-04-11T10:29:59.999Z</time></trkpt><trkpt lat="43.70603436882486" lon="12.252812702004887"><ele>849.5</ele><time>2026-04-11T10:30:00.999Z</time></trkpt><trkpt lat="43.706110027715695" lon="12.252954108044717"><ele>847.75</ele><time>2026-04-11T10:30:01.999Z</time></trkpt><trkpt lat="43.70618458637659" lon="12.253090726637739"><ele>846.0</ele><time>2026-04-11T10:30:02.999Z</time></trkpt><trkpt lat="43.70626703367232" lon="12.253204301975082"><ele>842.0</ele><time>2026-04-11T10:30:03.999Z</time></trkpt><trkpt lat="43.70633479755269" lon="12.25332156675736"><ele>838.0</ele><time>2026-04-11T10:30:04.999Z</time></trkpt><trkpt lat="43.706421455979566" lon="12.253407832513728"><ele>834.0</ele><time>2026-04-11T10:30:05.999Z</time></trkpt><trkpt lat="43.70652889938477" lon="12.253459789915837"><ele>830.0</ele><time>2026-04-11T10:30:06.999Z</time></trkpt><trkpt lat="43.706655654077544" lon="12.253473337928574"><ele>830.0</ele><time>2026-04-11T10:30:07.999Z</time></trkpt><trkpt lat="43.70679083333816" lon="12.253454372310548"><ele>830.0</ele><time>2026-04-11T10:30:08.999Z</time></trkpt><trkpt lat="43.706922389393156" lon="12.253425766002545"><ele>830.0</ele><time>2026-04-11T10:30:09.999Z</time></trkpt><trkpt lat="43.707059733791866" lon="12.25339524780511"><ele>830.0</ele><time>2026-04-11T10:30:10.999Z</time></trkpt><trkpt lat="43.707192733721605" lon="12.253378760659283"><ele>829.25</ele><time>2026-04-11T10:30:11.999Z</time></trkpt><trkpt lat="43.707321720901405" lon="12.253362771526179"><ele>828.5</ele><time>2026-04-11T10:30:12.999Z</time></trkpt><trkpt lat="43.70745007711489" lon="12.253343726561997"><ele>827.75</ele><time>2026-04-11T10:30:13.999Z</time></trkpt><trkpt lat="43.7075644607903" lon="12.253348946230567"><ele>827.0</ele><time>2026-04-11T10:30:14.999Z</time></trkpt><trkpt lat="43.70767161227093" lon="12.25338010685164"><ele>827.3333333333334</ele><time>2026-04-11T10:30:15.999Z</time></trkpt><trkpt lat="43.70776215215343" lon="12.253468754861114"><ele>827.6666666666667</ele><time>2026-04-11T10:30:16.999Z</time></trkpt><trkpt lat="43.707847353271724" lon="12.25354807556308"><ele>828.0</ele><time>2026-04-11T10:30:17.999Z</time></trkpt><trkpt lat="43.707899783274335" lon="12.253631327471224"><ele>828.3333333333333</ele><time>2026-04-11T10:30:18.999Z</time></trkpt><trkpt lat="43.7079252368682" lon="12.253723651468931"><ele>828.6666666666666</ele><time>2026-04-11T10:30:19.999Z</time></trkpt><trkpt lat="43.707920859109784" lon="12.253827134812155"><ele>829.0</ele><time>2026-04-11T10:30:20.999Z</time></trkpt><trkpt lat="43.70785568708513" lon="12.253912917499498"><ele>829.0</ele><time>2026-04-11T10:30:21.999Z</time></trkpt><trkpt lat="43.707753878953554" lon="12.253942201708313"><ele>829.0</ele><time>2026-04-11T10:30:22.999Z</time></trkpt><trkpt lat="43.70764794956198" lon="12.253965792745928"><ele>829.0</ele><time>2026-04-11T10:30:23.999Z</time></trkpt><trkpt lat="43.70753094639349" lon="12.254003776835374"><ele>829.0</ele><time>2026-04-11T10:30:24.999Z</time></trkpt><trkpt lat="43.70740934057786" lon="12.254017706647073"><ele>826.0</ele><time>2026-04-11T10:30:25.999Z</time></trkpt><trkpt lat="43.707293419889545" lon="12.254032878580535"><ele>823.0</ele><time>2026-04-11T10:30:26.999Z</time></trkpt><trkpt lat="43.70717589377383" lon="12.254044019546306"><ele>820.0</ele><time>2026-04-11T10:30:27.999Z</time></trkpt><trkpt lat="43.70706236646006" lon="12.254062252758422"><ele>817.0</ele><time>2026-04-11T10:30:28.999Z</time></trkpt><trkpt lat="43.70694765903928" lon="12.25407428943404"><ele>816.8</ele><time>2026-04-11T10:30:29.999Z</time></trkpt><trkpt lat="43.7068321303384" lon="12.25408520546443"><ele>816.6</ele><time>2026-04-11T10:30:30.999Z</time></trkpt><trkpt lat="43.70671568848205" lon="12.254093519813983"><ele>816.4</ele><time>2026-04-11T10:30:31.999Z</time></trkpt><trkpt lat="43.70660427889073" lon="12.254105782179414"><ele>816.1999999999999</ele><time>2026-04-11T10:30:32.999Z</time></trkpt><trkpt lat="43.70651226512566" lon="12.254126304375083"><ele>816.0</ele><time>2026-04-11T10:30:33.999Z</time></trkpt><trkpt lat="43.70643002707566" lon="12.254154574668958"><ele>816.0</ele><time>2026-04-11T10:30:35Z</time></trkpt><trkpt lat="43.706373204196254" lon="12.254240961615567"><ele>816.0</ele><time>2026-04-11T10:30:36Z</time></trkpt><trkpt lat="43.70636005996358" lon="12.254367993191465"><ele>816.0</ele><time>2026-04-11T10:30:37Z</time></trkpt><trkpt lat="43.7064260933118" lon="12.254481818292977"><ele>816.0</ele><time>2026-04-11T10:30:38Z</time></trkpt><trkpt lat="43.7065278833762" lon="12.254518522256108"><ele>816.0</ele><time>2026-04-11T10:30:39Z</time></trkpt><trkpt lat="43.70661950149711" lon="12.254568359482182"><ele>816.0</ele><time>2026-04-11T10:30:40Z</time></trkpt><trkpt lat="43.706719928056" lon="12.254623749679512"><ele>816.0</ele><time>2026-04-11T10:30:41Z</time></trkpt><trkpt lat="43.706816355561166" lon="12.254680478774102"><ele>816.0</ele><time>2026-04-11T10:30:42Z</time></trkpt><trkpt lat="43.706916450513326" lon="12.254745133006594"><ele>816.0</ele><time>2026-04-11T10:30:43Z</time></trkpt><trkpt lat="43.707017743308924" lon="12.2548049528763"><ele>816.0</ele><time>2026-04-11T10:30:44Z</time></trkpt><trkpt lat="43.70711716585663" lon="12.254874843104352"><ele>813.25</ele><time>2026-04-11T10:30:45Z</time></trkpt><trkpt lat="43.707230277080306" lon="12.254935006810122"><ele>810.5</ele><time>2026-04-11T10:30:46Z</time></trkpt><trkpt lat="43.707349444720805" lon="12.254989945111806"><ele>807.75</ele><time>2026-04-11T10:30:47Z</time></trkpt><trkpt lat="43.70747135306212" lon="12.25502478993027"><ele>805.0</ele><time>2026-04-11T10:30:48Z</time></trkpt><trkpt lat="43.70759595556229" lon="12.255034362382188"><ele>805.0</ele><time>2026-04-11T10:30:49Z</time></trkpt><trkpt lat="43.707717762267215" lon="12.25501261240634"><ele>805.0</ele><time>2026-04-11T10:30:50Z</time></trkpt><trkpt lat="43.7078393927786" lon="12.255006366910267"><ele>805.0</ele><time>2026-04-11T10:30:51Z</time></trkpt><trkpt lat="43.7079422492413" lon="12.254979024128756"><ele>805.0</ele><time>2026-04-11T10:30:52Z</time></trkpt><trkpt lat="43.70802840843018" lon="12.254953827754251"><ele>805.0</ele><time>2026-04-11T10:30:53Z</time></trkpt><trkpt lat="43.7080969085968" lon="12.255002283550237"><ele>805.2</ele><time>2026-04-11T10:30:54Z</time></trkpt><trkpt lat="43.70812883524335" lon="12.255152529381826"><ele>805.4</ele><time>2026-04-11T10:30:56Z</time></trkpt><trkpt lat="43.708073949573865" lon="12.25522463589909"><ele>805.5999999999999</ele><time>2026-04-11T10:30:57Z</time></trkpt><trkpt lat="43.7079974298001" lon="12.255282690336687"><ele>805.8</ele><time>2026-04-11T10:30:58Z</time></trkpt><trkpt lat="43.7079178952306" lon="12.255357766950551"><ele>806.0</ele><time>2026-04-11T10:30:59Z</time></trkpt><trkpt lat="43.70782366260466" lon="12.255427427764452"><ele>805.75</ele><time>2026-04-11T10:31:00Z</time></trkpt><trkpt lat="43.707719296927564" lon="12.25550779791895"><ele>805.5</ele><time>2026-04-11T10:31:01Z</time></trkpt><trkpt lat="43.70760644260172" lon="12.255588578545165"><ele>805.25</ele><time>2026-04-11T10:31:02Z</time></trkpt><trkpt lat="43.70750173886038" lon="12.255673859410651"><ele>805.0</ele><time>2026-04-11T10:31:03Z</time></trkpt><trkpt lat="43.707397511361776" lon="12.25575560196068"><ele>802.0</ele><time>2026-04-11T10:31:04Z</time></trkpt><trkpt lat="43.70729557886736" lon="12.255834654694224"><ele>799.0</ele><time>2026-04-11T10:31:05Z</time></trkpt><trkpt lat="43.70718754244211" lon="12.255891980822998"><ele>796.0</ele><time>2026-04-11T10:31:06Z</time></trkpt><trkpt lat="43.70706772009529" lon="12.255906422528838"><ele>793.0</ele><time>2026-04-11T10:31:07Z</time></trkpt><trkpt lat="43.706932751900865" lon="12.25588810128723"><ele>792.4</ele><time>2026-04-11T10:31:08Z</time></trkpt><trkpt lat="43.70680345943203" lon="12.255858847696823"><ele>791.8</ele><time>2026-04-11T10:31:09Z</time></trkpt><trkpt lat="43.70668564717772" lon="12.255826497887755"><ele>791.2</ele><time>2026-04-11T10:31:10Z</time></trkpt><trkpt lat="43.70658151683829" lon="12.25578955843537"><ele>790.6</ele><time>2026-04-11T10:31:11Z</time></trkpt><trkpt lat="43.70649763702382" lon="12.25575821643586"><ele>790.0</ele><time>2026-04-11T10:31:12Z</time></trkpt><trkpt lat="43.70641733314506" lon="12.25574815798728"><ele>790.0</ele><time>2026-04-11T10:31:13Z</time></trkpt><trkpt lat="43.706339017076935" lon="12.255779121661144"><ele>790.0</ele><time>2026-04-11T10:31:14Z</time></trkpt><trkpt lat="43.70628687013629" lon="12.255875709144433"><ele>790.0</ele><time>2026-04-11T10:31:15Z</time></trkpt><trkpt lat="43.70627964016418" lon="12.256013432038463"><ele>790.0</ele><time>2026-04-11T10:31:16Z</time></trkpt><trkpt lat="43.70632579135281" lon="12.256140501519843"><ele>790.0</ele><time>2026-04-11T10:31:17Z</time></trkpt><trkpt lat="43.706408990218314" lon="12.256248881150439"><ele>790.0</ele><time>2026-04-11T10:31:18Z</time></trkpt><trkpt lat="43.70651297813501" lon="12.256336003507736"><ele>790.0</ele><time>2026-04-11T10:31:19Z</time></trkpt><trkpt lat="43.70662233145902" lon="12.25640812089092"><ele>790.0</ele><time>2026-04-11T10:31:20Z</time></trkpt><trkpt lat="43.70672511431565" lon="12.25648954418358"><ele>790.0</ele><time>2026-04-11T10:31:21Z</time></trkpt><trkpt lat="43.706825903081466" lon="12.25658412887112"><ele>789.0</ele><time>2026-04-11T10:31:22Z</time></trkpt><trkpt lat="43.70692075977197" lon="12.25669231061139"><ele>788.0</ele><time>2026-04-11T10:31:23Z</time></trkpt><trkpt lat="43.70699724401241" lon="12.256821108859212"><ele>787.0</ele><time>2026-04-11T10:31:24Z</time></trkpt><trkpt lat="43.707043162029635" lon="12.25698536912544"><ele>786.0</ele><time>2026-04-11T10:31:25Z</time></trkpt><trkpt lat="43.707107408350204" lon="12.257129389699728"><ele>784.5</ele><time>2026-04-11T10:31:26Z</time></trkpt><trkpt lat="43.7071657064263" lon="12.257286170106081"><ele>783.0</ele><time>2026-04-11T10:31:27Z</time></trkpt><trkpt lat="43.707224796467024" lon="12.257455265991865"><ele>781.5</ele><time>2026-04-11T10:31:28Z</time></trkpt><trkpt lat="43.707298611357075" lon="12.257624048326324"><ele>780.0</ele><time>2026-04-11T10:31:29Z</time></trkpt><trkpt lat="43.707357859111994" lon="12.25780716013068"><ele>780.0</ele><time>2026-04-11T10:31:30Z</time></trkpt><trkpt lat="43.70741219790628" lon="12.257997625963299"><ele>780.0</ele><time>2026-04-11T10:31:31Z</time></trkpt><trkpt lat="43.70746472775543" lon="12.258183105074751"><ele>780.0</ele><time>2026-04-11T10:31:32Z</time></trkpt><trkpt lat="43.70752415284196" lon="12.258357796452062"><ele>780.0</ele><time>2026-04-11T10:31:33Z</time></trkpt><trkpt lat="43.70758023858917" lon="12.258522723681011"><ele>778.25</ele><time>2026-04-11T10:31:34Z</time></trkpt><trkpt lat="43.70763632688316" lon="12.258689222134848"><ele>776.5</ele><time>2026-04-11T10:31:35Z</time></trkpt><trkpt lat="43.7076910396963" lon="12.258851637480731"><ele>774.75</ele><time>2026-04-11T10:31:36Z</time></trkpt><trkpt lat="43.707745694608114" lon="12.259013880950421"><ele>773.0</ele><time>2026-04-11T10:31:37Z</time></trkpt><trkpt lat="43.70780043259086" lon="12.259176370930476"><ele>773.0</ele><time>2026-04-11T10:31:38Z</time></trkpt><trkpt lat="43.70785565524496" lon="12.259340299780494"><ele>773.0</ele><time>2026-04-11T10:31:39Z</time></trkpt><trkpt lat="43.70791167795581" lon="12.259506603510763"><ele>773.0</ele><time>2026-04-11T10:31:40Z</time></trkpt><trkpt lat="43.707982897373086" lon="12.259663868595053"><ele>773.0</ele><time>2026-04-11T10:31:41Z</time></trkpt><trkpt lat="43.70803833857745" lon="12.25982946757991"><ele>772.0</ele><time>2026-04-11T10:31:42Z</time></trkpt><trkpt lat="43.7080889811217" lon="12.259988493851031"><ele>771.0</ele><time>2026-04-11T10:31:43Z</time></trkpt><trkpt lat="43.70813595869512" lon="12.260138768798473"><ele>770.0</ele><time>2026-04-11T10:31:44Z</time></trkpt><trkpt lat="43.708166203588746" lon="12.260291852138357"><ele>769.0</ele><time>2026-04-11T10:31:45Z</time></trkpt><trkpt lat="43.70816414229598" lon="12.260454993140263"><ele>768.5</ele><time>2026-04-11T10:31:45.999Z</time></trkpt><trkpt lat="43.70818787353048" lon="12.260618718217712"><ele>768.0</ele><time>2026-04-11T10:31:46.999Z</time></trkpt><trkpt lat="43.70819141103445" lon="12.260792244471942"><ele>767.5</ele><time>2026-04-11T10:31:47.999Z</time></trkpt><trkpt lat="43.70818033550828" lon="12.260969434158886"><ele>767.0</ele><time>2026-04-11T10:31:48.999Z</time></trkpt><trkpt lat="43.708183778021485" lon="12.26115032051357"><ele>767.0</ele><time>2026-04-11T10:31:49.999Z</time></trkpt><trkpt lat="43.7081872295106" lon="12.261331678485142"><ele>767.0</ele><time>2026-04-11T10:31:50.999Z</time></trkpt><trkpt lat="43.708190782327385" lon="12.261518360782057"><ele>767.0</ele><time>2026-04-11T10:31:51.999Z</time></trkpt><trkpt lat="43.708194264120564" lon="12.261701310759758"><ele>767.0</ele><time>2026-04-11T10:31:52.999Z</time></trkpt><trkpt lat="43.70819724833966" lon="12.261881816415437"><ele>766.0</ele><time>2026-04-11T10:31:53.999Z</time></trkpt><trkpt lat="43.70819710834098" lon="12.262054251774238"><ele>765.0</ele><time>2026-04-11T10:31:54.999Z</time></trkpt><trkpt lat="43.708193573795796" lon="12.26220932697245"><ele>764.0</ele><time>2026-04-11T10:31:55.999Z</time></trkpt><trkpt lat="43.70818563139719" lon="12.262358305482637"><ele>763.0</ele><time>2026-04-11T10:31:56.999Z</time></trkpt><trkpt lat="43.70817484251243" lon="12.26248998427557"><ele>762.0</ele><time>2026-04-11T10:31:57.999Z</time></trkpt><trkpt lat="43.708159177152595" lon="12.262587408263935"><ele>761.3333333333334</ele><time>2026-04-11T10:31:58.999Z</time></trkpt><trkpt lat="43.70809723822015" lon="12.262722772867992"><ele>760.6666666666666</ele><time>2026-04-11T10:32:00.999Z</time></trkpt><trkpt lat="43.708038829694736" lon="12.262760722647176"><ele>760.0</ele><time>2026-04-11T10:32:01.999Z</time></trkpt><trkpt lat="43.707967760621564" lon="12.262724052768949"><ele>759.3333333333333</ele><time>2026-04-11T10:32:02.999Z</time></trkpt><trkpt lat="43.70791068398702" lon="12.262637134560814"><ele>758.6666666666666</ele><time>2026-04-11T10:32:03.999Z</time></trkpt><trkpt lat="43.7078806527226" lon="12.262513737152519"><ele>758.0</ele><time>2026-04-11T10:32:04.999Z</time></trkpt><trkpt lat="43.707873957376606" lon="12.262374189674174"><ele>758.8</ele><time>2026-04-11T10:32:05.999Z</time></trkpt><trkpt lat="43.70787854751167" lon="12.262220447420198"><ele>759.5999999999999</ele><time>2026-04-11T10:32:06.999Z</time></trkpt><trkpt lat="43.70787583875966" lon="12.26206670845401"><ele>760.4000000000001</ele><time>2026-04-11T10:32:07.999Z</time></trkpt><trkpt lat="43.70786977583163" lon="12.261916183300789"><ele>761.2</ele><time>2026-04-11T10:32:08.999Z</time></trkpt><trkpt lat="43.7078644288369" lon="12.261767847653427"><ele>762.0</ele><time>2026-04-11T10:32:09.999Z</time></trkpt><trkpt lat="43.707852637407136" lon="12.261618756170433"><ele>762.0</ele><time>2026-04-11T10:32:10.999Z</time></trkpt><trkpt lat="43.70782170716522" lon="12.261463390283778"><ele>762.0</ele><time>2026-04-11T10:32:11.999Z</time></trkpt><trkpt lat="43.70778004716898" lon="12.261311663190304"><ele>762.0</ele><time>2026-04-11T10:32:12.999Z</time></trkpt><trkpt lat="43.707733805010704" lon="12.261165218931676"><ele>762.0</ele><time>2026-04-11T10:32:13.999Z</time></trkpt><trkpt lat="43.707673218008296" lon="12.261037437935183"><ele>758.75</ele><time>2026-04-11T10:32:14.999Z</time></trkpt><trkpt lat="43.70758238245235" lon="12.260971133814136"><ele>755.5</ele><time>2026-04-11T10:32:15.999Z</time></trkpt><trkpt lat="43.70748087171562" lon="12.260955998292737"><ele>752.25</ele><time>2026-04-11T10:32:16.999Z</time></trkpt><trkpt lat="43.70736197277941" lon="12.260984884909547"><ele>749.0</ele><time>2026-04-11T10:32:17.999Z</time></trkpt><trkpt lat="43.70723660468498" lon="12.261008688263791"><ele>749.0</ele><time>2026-04-11T10:32:18.999Z</time></trkpt><trkpt lat="43.70710495482566" lon="12.261023526885984"><ele>749.0</ele><time>2026-04-11T10:32:19.999Z</time></trkpt><trkpt lat="43.70697781965232" lon="12.261037848647659"><ele>749.0</ele><time>2026-04-11T10:32:20.999Z</time></trkpt><trkpt lat="43.70686924095854" lon="12.261051660450832"><ele>749.0</ele><time>2026-04-11T10:32:21.999Z</time></trkpt><trkpt lat="43.70677868053758" lon="12.261068749463202"><ele>747.25</ele><time>2026-04-11T10:32:22.999Z</time></trkpt><trkpt lat="43.70669286688567" lon="12.261157772593558"><ele>745.5</ele><time>2026-04-11T10:32:23.999Z</time></trkpt><trkpt lat="43.706628719725664" lon="12.261298492110544"><ele>743.75</ele><time>2026-04-11T10:32:24.999Z</time></trkpt><trkpt lat="43.70659626238072" lon="12.261478015401337"><ele>742.0</ele><time>2026-04-11T10:32:25.999Z</time></trkpt><trkpt lat="43.706565810233386" lon="12.261646147154254"><ele>739.75</ele><time>2026-04-11T10:32:26.999Z</time></trkpt><trkpt lat="43.70653459938359" lon="12.261827982857897"><ele>737.5</ele><time>2026-04-11T10:32:27.999Z</time></trkpt><trkpt lat="43.70650109238236" lon="12.262023195902007"><ele>735.25</ele><time>2026-04-11T10:32:28.999Z</time></trkpt><trkpt lat="43.70646612184448" lon="12.2622269346062"><ele>733.0</ele><time>2026-04-11T10:32:29.999Z</time></trkpt><trkpt lat="43.70642996043732" lon="12.26242747737497"><ele>731.75</ele><time>2026-04-11T10:32:30.999Z</time></trkpt><trkpt lat="43.706397865164114" lon="12.26259914634532"><ele>730.5</ele><time>2026-04-11T10:32:31.999Z</time></trkpt><trkpt lat="43.70636547701821" lon="12.26277238178615"><ele>729.25</ele><time>2026-04-11T10:32:32.999Z</time></trkpt><trkpt lat="43.70633266571675" lon="12.262947880550907"><ele>728.0</ele><time>2026-04-11T10:32:33.999Z</time></trkpt><trkpt lat="43.70629803884901" lon="12.263134536938752"><ele>727.0</ele><time>2026-04-11T10:32:34.999Z</time></trkpt><trkpt lat="43.706263213115285" lon="12.263326271605425"><ele>726.0</ele><time>2026-04-11T10:32:35.999Z</time></trkpt><trkpt lat="43.70623036954776" lon="12.26351724681573"><ele>725.0</ele><time>2026-04-11T10:32:36.999Z</time></trkpt><trkpt lat="43.70621303902696" lon="12.26371584883776"><ele>724.0</ele><time>2026-04-11T10:32:37.999Z</time></trkpt><trkpt lat="43.70619208277965" lon="12.263915835497855"><ele>722.25</ele><time>2026-04-11T10:32:38.999Z</time></trkpt><trkpt lat="43.70618240955763" lon="12.264121674935561"><ele>720.5</ele><time>2026-04-11T10:32:39.999Z</time></trkpt><trkpt lat="43.70618270850326" lon="12.264327294351634"><ele>718.75</ele><time>2026-04-11T10:32:41Z</time></trkpt><trkpt lat="43.706185964186474" lon="12.264533094251867"><ele>717.0</ele><time>2026-04-11T10:32:42Z</time></trkpt><trkpt lat="43.70619040748824" lon="12.26473476515223"><ele>716.0</ele><time>2026-04-11T10:32:43Z</time></trkpt><trkpt lat="43.706176704889465" lon="12.26493288023503"><ele>715.0</ele><time>2026-04-11T10:32:44Z</time></trkpt><trkpt lat="43.706198710928675" lon="12.265115328877316"><ele>714.0</ele><time>2026-04-11T10:32:45Z</time></trkpt><trkpt lat="43.706219735456806" lon="12.265275727493753"><ele>713.0</ele><time>2026-04-11T10:32:46Z</time></trkpt><trkpt lat="43.70625380454803" lon="12.26542364738772"><ele>713.0</ele><time>2026-04-11T10:32:47Z</time></trkpt><trkpt lat="43.7063005044081" lon="12.265558051364392"><ele>713.0</ele><time>2026-04-11T10:32:48Z</time></trkpt><trkpt lat="43.706346569513954" lon="12.26568409514053"><ele>713.0</ele><time>2026-04-11T10:32:49Z</time></trkpt><trkpt lat="43.70638840003628" lon="12.265807023562923"><ele>713.0</ele><time>2026-04-11T10:32:50Z</time></trkpt><trkpt lat="43.70642969704016" lon="12.265929769200625"><ele>713.0</ele><time>2026-04-11T10:32:51Z</time></trkpt><trkpt lat="43.70646279609425" lon="12.26605885692689"><ele>713.25</ele><time>2026-04-11T10:32:52Z</time></trkpt><trkpt lat="43.70646843861863" lon="12.266208886397706"><ele>713.5</ele><time>2026-04-11T10:32:53Z</time></trkpt><trkpt lat="43.70644724769727" lon="12.266375083061755"><ele>713.75</ele><time>2026-04-11T10:32:54Z</time></trkpt><trkpt lat="43.70640302740087" lon="12.266544335391032"><ele>714.0</ele><time>2026-04-11T10:32:55Z</time></trkpt><trkpt lat="43.706349146468256" lon="12.266709113820786"><ele>713.25</ele><time>2026-04-11T10:32:56Z</time></trkpt><trkpt lat="43.706293902236794" lon="12.26687365141952"><ele>712.5</ele><time>2026-04-11T10:32:57Z</time></trkpt><trkpt lat="43.70620672377554" lon="12.267014180194112"><ele>711.75</ele><time>2026-04-11T10:32:58Z</time></trkpt><trkpt lat="43.70610760926624" lon="12.267125326705253"><ele>711.0</ele><time>2026-04-11T10:32:59Z</time></trkpt><trkpt lat="43.70601204349015" lon="12.267220175168797"><ele>708.1999999999999</ele><time>2026-04-11T10:33:00Z</time></trkpt><trkpt lat="43.70593055876808" lon="12.267309502431303"><ele>705.4</ele><time>2026-04-11T10:33:01Z</time></trkpt><trkpt lat="43.705856842133784" lon="12.267410438034162"><ele>702.6</ele><time>2026-04-11T10:33:02Z</time></trkpt><trkpt lat="43.70582735118219" lon="12.26755572556718"><ele>699.8</ele><time>2026-04-11T10:33:03Z</time></trkpt><trkpt lat="43.70581727063999" lon="12.267705487833059"><ele>697.0</ele><time>2026-04-11T10:33:04Z</time></trkpt><trkpt lat="43.70584377742989" lon="12.267857427204607"><ele>697.0</ele><time>2026-04-11T10:33:05Z</time></trkpt><trkpt lat="43.70589754874518" lon="12.26799249278245"><ele>697.0</ele><time>2026-04-11T10:33:06Z</time></trkpt><trkpt lat="43.70597038369875" lon="12.268092800233772"><ele>697.0</ele><time>2026-04-11T10:33:07Z</time></trkpt><trkpt lat="43.70607897248751" lon="12.268143898154568"><ele>697.0</ele><time>2026-04-11T10:33:08Z</time></trkpt><trkpt lat="43.70620440017652" lon="12.268178693512274"><ele>695.75</ele><time>2026-04-11T10:33:09Z</time></trkpt><trkpt lat="43.70633794167546" lon="12.268214238020686"><ele>694.5</ele><time>2026-04-11T10:33:10Z</time></trkpt><trkpt lat="43.70647187650597" lon="12.268248670882725"><ele>693.25</ele><time>2026-04-11T10:33:11Z</time></trkpt><trkpt lat="43.706595765758955" lon="12.268304885797109"><ele>692.0</ele><time>2026-04-11T10:33:12Z</time></trkpt><trkpt lat="43.70672714638352" lon="12.268322558184154"><ele>692.0</ele><time>2026-04-11T10:33:13Z</time></trkpt><trkpt lat="43.70684985260245" lon="12.2683634991489"><ele>692.0</ele><time>2026-04-11T10:33:14Z</time></trkpt><trkpt lat="43.70696152675476" lon="12.268397679763135"><ele>692.0</ele><time>2026-04-11T10:33:15Z</time></trkpt><trkpt lat="43.70705976996802" lon="12.268430821009167"><ele>692.0</ele><time>2026-04-11T10:33:16Z</time></trkpt><trkpt lat="43.707150843079646" lon="12.268488504570703"><ele>692.0</ele><time>2026-04-11T10:33:17Z</time></trkpt><trkpt lat="43.70722432238749" lon="12.268588813104722"><ele>689.5</ele><time>2026-04-11T10:33:18Z</time></trkpt><trkpt lat="43.70726014203528" lon="12.268737633527293"><ele>687.0</ele><time>2026-04-11T10:33:19Z</time></trkpt><trkpt lat="43.70726901054836" lon="12.268895882775038"><ele>684.5</ele><time>2026-04-11T10:33:20Z</time></trkpt><trkpt lat="43.70723987468098" lon="12.269054401401023"><ele>682.0</ele><time>2026-04-11T10:33:21Z</time></trkpt><trkpt lat="43.707180929016616" lon="12.269197388188324"><ele>681.75</ele><time>2026-04-11T10:33:22Z</time></trkpt><trkpt lat="43.70707654027413" lon="12.26932503171628"><ele>681.5</ele><time>2026-04-11T10:33:23Z</time></trkpt><trkpt lat="43.70696353280788" lon="12.269443699042998"><ele>681.25</ele><time>2026-04-11T10:33:24Z</time></trkpt><trkpt lat="43.70684456543552" lon="12.2695600951094"><ele>681.0</ele><time>2026-04-11T10:33:25Z</time></trkpt><trkpt lat="43.70672711112604" lon="12.269679020717819"><ele>678.25</ele><time>2026-04-11T10:33:26Z</time></trkpt><trkpt lat="43.70661168325052" lon="12.269800243424715"><ele>675.5</ele><time>2026-04-11T10:33:27Z</time></trkpt><trkpt lat="43.70648214462758" lon="12.269894120888155"><ele>672.75</ele><time>2026-04-11T10:33:28Z</time></trkpt><trkpt lat="43.70637467985971" lon="12.270002830275915"><ele>670.0</ele><time>2026-04-11T10:33:29Z</time></trkpt><trkpt lat="43.70627482080836" lon="12.27009761968497"><ele>670.0</ele><time>2026-04-11T10:33:30Z</time></trkpt><trkpt lat="43.706173106262476" lon="12.27016742629244"><ele>670.0</ele><time>2026-04-11T10:33:31Z</time></trkpt><trkpt lat="43.7060643720049" lon="12.270217315726153"><ele>670.0</ele><time>2026-04-11T10:33:32Z</time></trkpt><trkpt lat="43.70594183089151" lon="12.270205815618512"><ele>670.0</ele><time>2026-04-11T10:33:33Z</time></trkpt><trkpt lat="43.70582242459937" lon="12.27015113312172"><ele>669.5</ele><time>2026-04-11T10:33:34Z</time></trkpt><trkpt lat="43.70570913534284" lon="12.270083278258632"><ele>669.0</ele><time>2026-04-11T10:33:35Z</time></trkpt><trkpt lat="43.70560077967365" lon="12.269996087897447"><ele>668.5</ele><time>2026-04-11T10:33:36Z</time></trkpt><trkpt lat="43.70550858242762" lon="12.26987940610621"><ele>668.0</ele><time>2026-04-11T10:33:37Z</time></trkpt><trkpt lat="43.70542741064432" lon="12.269741912423875"><ele>667.2</ele><time>2026-04-11T10:33:38Z</time></trkpt><trkpt lat="43.70535679525486" lon="12.269608589316771"><ele>666.4</ele><time>2026-04-11T10:33:39Z</time></trkpt><trkpt lat="43.7052864245114" lon="12.269504762408264"><ele>665.6</ele><time>2026-04-11T10:33:40Z</time></trkpt><trkpt lat="43.7051979565389" lon="12.269426152903112"><ele>664.8000000000001</ele><time>2026-04-11T10:33:41Z</time></trkpt><trkpt lat="43.7050839593959" lon="12.269413852981154"><ele>664.0</ele><time>2026-04-11T10:33:42Z</time></trkpt><trkpt lat="43.70497150032013" lon="12.269482560686749"><ele>664.0</ele><time>2026-04-11T10:33:43Z</time></trkpt><trkpt lat="43.704898157369165" lon="12.269622940026208"><ele>664.0</ele><time>2026-04-11T10:33:44Z</time></trkpt><trkpt lat="43.70486226459846" lon="12.269784604325551"><ele>664.0</ele><time>2026-04-11T10:33:45Z</time></trkpt><trkpt lat="43.70482924335332" lon="12.269936473947071"><ele>664.0</ele><time>2026-04-11T10:33:46Z</time></trkpt><trkpt lat="43.704807490090026" lon="12.270069921925892"><ele>662.0</ele><time>2026-04-11T10:33:47Z</time></trkpt><trkpt lat="43.70478062688224" lon="12.27021384804066"><ele>660.0</ele><time>2026-04-11T10:33:48Z</time></trkpt><trkpt lat="43.70474781606289" lon="12.270385729472991"><ele>658.0</ele><time>2026-04-11T10:33:49Z</time></trkpt><trkpt lat="43.70472419699576" lon="12.270541236658007"><ele>656.0</ele><time>2026-04-11T10:33:50Z</time></trkpt><trkpt lat="43.7047181987342" lon="12.270712612718054"><ele>654.25</ele><time>2026-04-11T10:33:51Z</time></trkpt><trkpt lat="43.70476072024998" lon="12.270887946845756"><ele>652.5</ele><time>2026-04-11T10:33:52Z</time></trkpt><trkpt lat="43.7048563771316" lon="12.271048839515368"><ele>650.75</ele><time>2026-04-11T10:33:53Z</time></trkpt><trkpt lat="43.70495407637108" lon="12.271199128365527"><ele>649.0</ele><time>2026-04-11T10:33:54Z</time></trkpt><trkpt lat="43.70505585891523" lon="12.271356182710775"><ele>646.0</ele><time>2026-04-11T10:33:55Z</time></trkpt><trkpt lat="43.70515714838256" lon="12.271512475365213"><ele>643.0</ele><time>2026-04-11T10:33:56Z</time></trkpt><trkpt lat="43.7052603701983" lon="12.271671362068384"><ele>640.0</ele><time>2026-04-11T10:33:57Z</time></trkpt><trkpt lat="43.705364578971775" lon="12.271831144161247"><ele>640.0</ele><time>2026-04-11T10:33:58Z</time></trkpt><trkpt lat="43.7054680848899" lon="12.271989228582111"><ele>640.0</ele><time>2026-04-11T10:33:59Z</time></trkpt><trkpt lat="43.7055705991951" lon="12.272147379558811"><ele>640.0</ele><time>2026-04-11T10:34:00Z</time></trkpt><trkpt lat="43.705685414896486" lon="12.272293762593076"><ele>638.0</ele><time>2026-04-11T10:34:01Z</time></trkpt><trkpt lat="43.70578645171307" lon="12.272454840472028"><ele>636.0</ele><time>2026-04-11T10:34:01.999Z</time></trkpt><trkpt lat="43.705876522405724" lon="12.27262817723548"><ele>634.0</ele><time>2026-04-11T10:34:02.999Z</time></trkpt><trkpt lat="43.7059782502113" lon="12.272785592981222"><ele>634.0</ele><time>2026-04-11T10:34:03.999Z</time></trkpt><trkpt lat="43.70607665407898" lon="12.27293682992583"><ele>634.0</ele><time>2026-04-11T10:34:04.999Z</time></trkpt><trkpt lat="43.70617091546481" lon="12.273080652417265"><ele>634.0</ele><time>2026-04-11T10:34:05.999Z</time></trkpt><trkpt lat="43.70627323388796" lon="12.273206843131288"><ele>634.0</ele><time>2026-04-11T10:34:06.999Z</time></trkpt><trkpt lat="43.706367397360864" lon="12.273345077712275"><ele>633.25</ele><time>2026-04-11T10:34:07.999Z</time></trkpt><trkpt lat="43.70646063255525" lon="12.273480767250147"><ele>632.5</ele><time>2026-04-11T10:34:08.999Z</time></trkpt><trkpt lat="43.706551404392535" lon="12.273612369700743"><ele>631.75</ele><time>2026-04-11T10:34:09.999Z</time></trkpt><trkpt lat="43.70664121960436" lon="12.27373940929264"><ele>631.0</ele><time>2026-04-11T10:34:10.999Z</time></trkpt><trkpt lat="43.70673526347622" lon="12.273861267253226"><ele>629.5</ele><time>2026-04-11T10:34:11.999Z</time></trkpt><trkpt lat="43.706828210391336" lon="12.273978967578126"><ele>628.0</ele><time>2026-04-11T10:34:12.999Z</time></trkpt><trkpt lat="43.70691781672894" lon="12.274098272520757"><ele>626.5</ele><time>2026-04-11T10:34:13.999Z</time></trkpt><trkpt lat="43.70700433691101" lon="12.27421002471792"><ele>625.0</ele><time>2026-04-11T10:34:14.999Z</time></trkpt><trkpt lat="43.70708141341252" lon="12.27430842760945"><ele>623.6</ele><time>2026-04-11T10:34:15.999Z</time></trkpt><trkpt lat="43.707152342765085" lon="12.274388291797301"><ele>622.2</ele><time>2026-04-11T10:34:16.999Z</time></trkpt><trkpt lat="43.70724144969352" lon="12.2744304620222"><ele>620.8</ele><time>2026-04-11T10:34:17.999Z</time></trkpt><trkpt lat="43.70733783903117" lon="12.274418552434241"><ele>619.4</ele><time>2026-04-11T10:34:18.999Z</time></trkpt><trkpt lat="43.70741860917082" lon="12.27435018343122"><ele>618.0</ele><time>2026-04-11T10:34:19.999Z</time></trkpt><trkpt lat="43.707487405588545" lon="12.27425324813173"><ele>618.0</ele><time>2026-04-11T10:34:20.999Z</time></trkpt><trkpt lat="43.70751901469191" lon="12.274110169705729"><ele>618.0</ele><time>2026-04-11T10:34:21.999Z</time></trkpt><trkpt lat="43.707515562819275" lon="12.273951113039148"><ele>618.0</ele><time>2026-04-11T10:34:22.999Z</time></trkpt><trkpt lat="43.70753301408154" lon="12.273796391552715"><ele>618.0</ele><time>2026-04-11T10:34:23.999Z</time></trkpt><trkpt lat="43.707563299261984" lon="12.27363592742105"><ele>618.8</ele><time>2026-04-11T10:34:24.999Z</time></trkpt><trkpt lat="43.70758242429747" lon="12.27348953550292"><ele>619.5999999999999</ele><time>2026-04-11T10:34:25.999Z</time></trkpt><trkpt lat="43.70762376556005" lon="12.273362387677256"><ele>620.4000000000001</ele><time>2026-04-11T10:34:26.999Z</time></trkpt><trkpt lat="43.70766694698761" lon="12.273270439979898"><ele>621.2</ele><time>2026-04-11T10:34:27.999Z</time></trkpt><trkpt lat="43.70772997768554" lon="12.273228386765197"><ele>622.0</ele><time>2026-04-11T10:34:28.999Z</time></trkpt><trkpt lat="43.70783989266034" lon="12.273318614098072"><ele>618.4</ele><time>2026-04-11T10:34:30.999Z</time></trkpt><trkpt lat="43.70787573203965" lon="12.273438299634064"><ele>614.8000000000001</ele><time>2026-04-11T10:34:31.999Z</time></trkpt><trkpt lat="43.70790721538519" lon="12.273575098425082"><ele>611.2</ele><time>2026-04-11T10:34:32.999Z</time></trkpt><trkpt lat="43.70794430758526" lon="12.273735536981786"><ele>607.6</ele><time>2026-04-11T10:34:33.999Z</time></trkpt><trkpt lat="43.70797514914012" lon="12.273909835200564"><ele>604.0</ele><time>2026-04-11T10:34:34.999Z</time></trkpt><trkpt lat="43.70795934623696" lon="12.27408941986514"><ele>602.75</ele><time>2026-04-11T10:34:35.999Z</time></trkpt><trkpt lat="43.70794367363971" lon="12.27427344104634"><ele>601.5</ele><time>2026-04-11T10:34:36.999Z</time></trkpt><trkpt lat="43.70793122152762" lon="12.274463325814649"><ele>600.25</ele><time>2026-04-11T10:34:37.999Z</time></trkpt><trkpt lat="43.70796766946143" lon="12.274630697744174"><ele>599.0</ele><time>2026-04-11T10:34:38.999Z</time></trkpt><trkpt lat="43.70802398124038" lon="12.27479494877752"><ele>597.5</ele><time>2026-04-11T10:34:39.999Z</time></trkpt><trkpt lat="43.70808553156105" lon="12.274970421725774"><ele>596.0</ele><time>2026-04-11T10:34:40.999Z</time></trkpt><trkpt lat="43.7081216470374" lon="12.275119142134429"><ele>594.5</ele><time>2026-04-11T10:34:41.999Z</time></trkpt><trkpt lat="43.70810950502604" lon="12.27529820383615"><ele>593.0</ele><time>2026-04-11T10:34:42.999Z</time></trkpt><trkpt lat="43.70807943998442" lon="12.275456673444934"><ele>590.5</ele><time>2026-04-11T10:34:43.999Z</time></trkpt><trkpt lat="43.70801789008532" lon="12.275622749900732"><ele>588.0</ele><time>2026-04-11T10:34:44.999Z</time></trkpt><trkpt lat="43.70794972536717" lon="12.275788459082829"><ele>585.5</ele><time>2026-04-11T10:34:45.999Z</time></trkpt><trkpt lat="43.70788804477056" lon="12.275965282000445"><ele>583.0</ele><time>2026-04-11T10:34:47Z</time></trkpt><trkpt lat="43.707841229827295" lon="12.276159697607945"><ele>583.0</ele><time>2026-04-11T10:34:48Z</time></trkpt><trkpt lat="43.70780970206512" lon="12.276373171860278"><ele>583.0</ele><time>2026-04-11T10:34:49Z</time></trkpt><trkpt lat="43.70776256889936" lon="12.276578831624821"><ele>583.0</ele><time>2026-04-11T10:34:50Z</time></trkpt><trkpt lat="43.70771384019267" lon="12.276786434318044"><ele>584.5</ele><time>2026-04-11T10:34:51Z</time></trkpt><trkpt lat="43.707671257255704" lon="12.27698534777811"><ele>586.0</ele><time>2026-04-11T10:34:52Z</time></trkpt><trkpt lat="43.7076267038396" lon="12.277178660344752"><ele>587.5</ele><time>2026-04-11T10:34:53Z</time></trkpt><trkpt lat="43.70758894458827" lon="12.277373433098143"><ele>589.0</ele><time>2026-04-11T10:34:54Z</time></trkpt><trkpt lat="43.70752700280574" lon="12.27755076618676"><ele>586.0</ele><time>2026-04-11T10:34:55Z</time></trkpt><trkpt lat="43.70746665206043" lon="12.277736179112631"><ele>583.0</ele><time>2026-04-11T10:34:56Z</time></trkpt><trkpt lat="43.70739024571524" lon="12.277912384531659"><ele>580.0</ele><time>2026-04-11T10:34:57Z</time></trkpt><trkpt lat="43.7073014086541" lon="12.278060398015585"><ele>577.0</ele><time>2026-04-11T10:34:58Z</time></trkpt><trkpt lat="43.707202128756904" lon="12.278207277796849"><ele>574.0</ele><time>2026-04-11T10:34:59Z</time></trkpt><trkpt lat="43.707120553238" lon="12.27833242134735"><ele>571.0</ele><time>2026-04-11T10:35:00Z</time></trkpt><trkpt lat="43.70705965325762" lon="12.278481682566264"><ele>568.0</ele><time>2026-04-11T10:35:01Z</time></trkpt><trkpt lat="43.70707567642715" lon="12.278682892156516"><ele>565.0</ele><time>2026-04-11T10:35:02Z</time></trkpt><trkpt lat="43.7071112899542" lon="12.278878965904937"><ele>562.0</ele><time>2026-04-11T10:35:03Z</time></trkpt><trkpt lat="43.70715941785683" lon="12.27904520313481"><ele>559.0</ele><time>2026-04-11T10:35:04Z</time></trkpt><trkpt lat="43.707210895008785" lon="12.279195644426823"><ele>556.0</ele><time>2026-04-11T10:35:05Z</time></trkpt><trkpt lat="43.70729354318107" lon="12.279339963860291"><ele>553.0</ele><time>2026-04-11T10:35:06Z</time></trkpt><trkpt lat="43.70742864454489" lon="12.27946369306858"><ele>553.0</ele><time>2026-04-11T10:35:07Z</time></trkpt><trkpt lat="43.70753098780004" lon="12.279572247229224"><ele>553.0</ele><time>2026-04-11T10:35:08Z</time></trkpt><trkpt lat="43.70762485766659" lon="12.279677792177251"><ele>553.0</ele><time>2026-04-11T10:35:09Z</time></trkpt><trkpt lat="43.707700740216524" lon="12.279783421476516"><ele>553.0</ele><time>2026-04-11T10:35:10Z</time></trkpt><trkpt lat="43.70774823549766" lon="12.27990384982106"><ele>551.0</ele><time>2026-04-11T10:35:11Z</time></trkpt><trkpt lat="43.70776161867989" lon="12.280046931496633"><ele>549.0</ele><time>2026-04-11T10:35:12Z</time></trkpt><trkpt lat="43.707717631869784" lon="12.280184849070446"><ele>547.0</ele><time>2026-04-11T10:35:13Z</time></trkpt><trkpt lat="43.707677557607454" lon="12.28033369957142"><ele>545.0</ele><time>2026-04-11T10:35:14Z</time></trkpt><trkpt lat="43.707647404187234" lon="12.280497830808144"><ele>543.25</ele><time>2026-04-11T10:35:15Z</time></trkpt><trkpt lat="43.70767165894316" lon="12.280686320252093"><ele>541.5</ele><time>2026-04-11T10:35:16Z</time></trkpt><trkpt lat="43.70771200202279" lon="12.280881029964469"><ele>539.75</ele><time>2026-04-11T10:35:17Z</time></trkpt><trkpt lat="43.70775446473607" lon="12.281061489111128"><ele>538.0</ele><time>2026-04-11T10:35:18Z</time></trkpt><trkpt lat="43.70774965524063" lon="12.281254994221669"><ele>538.0</ele><time>2026-04-11T10:35:19Z</time></trkpt><trkpt lat="43.70773215572602" lon="12.281414338363648"><ele>538.0</ele><time>2026-04-11T10:35:20Z</time></trkpt><trkpt lat="43.70770443403905" lon="12.281552413272149"><ele>538.0</ele><time>2026-04-11T10:35:21Z</time></trkpt><trkpt lat="43.70767585712398" lon="12.281678217792816"><ele>538.0</ele><time>2026-04-11T10:35:22Z</time></trkpt><trkpt lat="43.707658323469886" lon="12.281783620226337"><ele>538.0</ele><time>2026-04-11T10:35:23Z</time></trkpt><trkpt lat="43.70769011159242" lon="12.281881413933247"><ele>534.1999999999999</ele><time>2026-04-11T10:35:24Z</time></trkpt><trkpt lat="43.70774907450286" lon="12.281954227744986"><ele>530.4</ele><time>2026-04-11T10:35:25Z</time></trkpt><trkpt lat="43.707825601488665" lon="12.281968041252878"><ele>526.5999999999999</ele><time>2026-04-11T10:35:26Z</time></trkpt><trkpt lat="43.70790653375896" lon="12.281923022840678"><ele>522.8</ele><time>2026-04-11T10:35:27Z</time></trkpt><trkpt lat="43.707983019602146" lon="12.281825562141082"><ele>519.0</ele><time>2026-04-11T10:35:28Z</time></trkpt><trkpt lat="43.70805032642888" lon="12.281715528185886"><ele>519.0</ele><time>2026-04-11T10:35:29Z</time></trkpt><trkpt lat="43.708102046152405" lon="12.281614673259579"><ele>519.0</ele><time>2026-04-11T10:35:30Z</time></trkpt><trkpt lat="43.70816676894675" lon="12.281535365647649"><ele>519.0</ele><time>2026-04-11T10:35:31Z</time></trkpt><trkpt lat="43.70822670027495" lon="12.281423826705224"><ele>519.0</ele><time>2026-04-11T10:35:32Z</time></trkpt><trkpt lat="43.70829819996922" lon="12.281376722572054"><ele>519.0</ele><time>2026-04-11T10:35:33Z</time></trkpt><trkpt lat="43.70836929365549" lon="12.281378301701054"><ele>519.0</ele><time>2026-04-11T10:35:34Z</time></trkpt><trkpt lat="43.70843423342601" lon="12.281436171945415"><ele>519.0</ele><time>2026-04-11T10:35:35Z</time></trkpt><trkpt lat="43.70845697918481" lon="12.281695683801118"><ele>519.0</ele><time>2026-04-11T10:35:37Z</time></trkpt><trkpt lat="43.70845499170353" lon="12.281886054729142"><ele>519.0</ele><time>2026-04-11T10:35:38Z</time></trkpt><trkpt lat="43.70846199038882" lon="12.282071739846055"><ele>519.0</ele><time>2026-04-11T10:35:39Z</time></trkpt><trkpt lat="43.70845479145221" lon="12.28225678792834"><ele>519.0</ele><time>2026-04-11T10:35:40Z</time></trkpt><trkpt lat="43.70843082048216" lon="12.282446241583319"><ele>519.0</ele><time>2026-04-11T10:35:41Z</time></trkpt><trkpt lat="43.708412945166046" lon="12.282613262300611"><ele>519.0</ele><time>2026-04-11T10:35:42Z</time></trkpt><trkpt lat="43.70837505299157" lon="12.282765158570799"><ele>516.5</ele><time>2026-04-11T10:35:43Z</time></trkpt><trkpt lat="43.70829221358945" lon="12.2828911602782"><ele>514.0</ele><time>2026-04-11T10:35:44Z</time></trkpt><trkpt lat="43.708176468441366" lon="12.282973851429643"><ele>511.5</ele><time>2026-04-11T10:35:45Z</time></trkpt><trkpt lat="43.70808244193946" lon="12.283094681726498"><ele>509.0</ele><time>2026-04-11T10:35:46Z</time></trkpt><trkpt lat="43.708041925948656" lon="12.283261823324388"><ele>510.25</ele><time>2026-04-11T10:35:47Z</time></trkpt><trkpt lat="43.70802259539508" lon="12.283425979862894"><ele>511.5</ele><time>2026-04-11T10:35:48Z</time></trkpt><trkpt lat="43.708031474828715" lon="12.283649640947676"><ele>512.75</ele><time>2026-04-11T10:35:49Z</time></trkpt><trkpt lat="43.70799918422006" lon="12.283860744180819"><ele>514.0</ele><time>2026-04-11T10:35:50Z</time></trkpt><trkpt lat="43.70796286910888" lon="12.284052702425846"><ele>514.0</ele><time>2026-04-11T10:35:51Z</time></trkpt><trkpt lat="43.70791560358476" lon="12.284235298035897"><ele>514.0</ele><time>2026-04-11T10:35:52Z</time></trkpt><trkpt lat="43.70786656996124" lon="12.284407712054918"><ele>514.0</ele><time>2026-04-11T10:35:53Z</time></trkpt><trkpt lat="43.707834431438975" lon="12.284575623116664"><ele>514.0</ele><time>2026-04-11T10:35:54Z</time></trkpt><trkpt lat="43.70779272919002" lon="12.284721954923572"><ele>512.0</ele><time>2026-04-11T10:35:55Z</time></trkpt><trkpt lat="43.7077522938374" lon="12.284872771586452"><ele>510.0</ele><time>2026-04-11T10:35:56Z</time></trkpt><trkpt lat="43.70771876321022" lon="12.285021075151521"><ele>508.0</ele><time>2026-04-11T10:35:57Z</time></trkpt><trkpt lat="43.70766682490597" lon="12.285161891088178"><ele>506.0</ele><time>2026-04-11T10:35:58Z</time></trkpt><trkpt lat="43.70762808153805" lon="12.285309495908605"><ele>506.0</ele><time>2026-04-11T10:35:59Z</time></trkpt><trkpt lat="43.70760062396899" lon="12.285462387644213"><ele>506.0</ele><time>2026-04-11T10:36:00Z</time></trkpt><trkpt lat="43.70755838333613" lon="12.285600778314064"><ele>506.0</ele><time>2026-04-11T10:36:01Z</time></trkpt><trkpt lat="43.70752440928166" lon="12.285742460034058"><ele>506.0</ele><time>2026-04-11T10:36:02Z</time></trkpt><trkpt lat="43.70748784507589" lon="12.285886120882797"><ele>506.0</ele><time>2026-04-11T10:36:03Z</time></trkpt><trkpt lat="43.707452249130114" lon="12.286029007331248"><ele>506.6</ele><time>2026-04-11T10:36:04Z</time></trkpt><trkpt lat="43.70741504662683" lon="12.286170751104578"><ele>507.20000000000005</ele><time>2026-04-11T10:36:05Z</time></trkpt><trkpt lat="43.7073775535851" lon="12.286313726056889"><ele>507.79999999999995</ele><time>2026-04-11T10:36:06Z</time></trkpt><trkpt lat="43.707339634804484" lon="12.286458169013828"><ele>508.4</ele><time>2026-04-11T10:36:07Z</time></trkpt><trkpt lat="43.7073075957583" lon="12.28661197635165"><ele>509.0</ele><time>2026-04-11T10:36:08Z</time></trkpt><trkpt lat="43.70728645193933" lon="12.286774319277242"><ele>511.5</ele><time>2026-04-11T10:36:09Z</time></trkpt><trkpt lat="43.70727838709265" lon="12.286943364420845"><ele>514.0</ele><time>2026-04-11T10:36:10Z</time></trkpt><trkpt lat="43.70726660310303" lon="12.287118853170705"><ele>516.5</ele><time>2026-04-11T10:36:11Z</time></trkpt><trkpt lat="43.70723148865701" lon="12.287289908152442"><ele>519.0</ele><time>2026-04-11T10:36:11.999Z</time></trkpt><trkpt lat="43.70719849809324" lon="12.287456690059145"><ele>519.5</ele><time>2026-04-11T10:36:12.999Z</time></trkpt><trkpt lat="43.707171022469346" lon="12.287629723506967"><ele>520.0</ele><time>2026-04-11T10:36:13.999Z</time></trkpt><trkpt lat="43.70720919511988" lon="12.287804946951885"><ele>520.5</ele><time>2026-04-11T10:36:14.999Z</time></trkpt><trkpt lat="43.707258019059154" lon="12.28797603165505"><ele>521.0</ele><time>2026-04-11T10:36:15.999Z</time></trkpt><trkpt lat="43.7073022712226" lon="12.288146812247698"><ele>521.0</ele><time>2026-04-11T10:36:16.999Z</time></trkpt><trkpt lat="43.70731754710936" lon="12.288328984268349"><ele>521.0</ele><time>2026-04-11T10:36:17.999Z</time></trkpt><trkpt lat="43.707300965704384" lon="12.288517360280927"><ele>521.0</ele><time>2026-04-11T10:36:18.999Z</time></trkpt><trkpt lat="43.707223732979614" lon="12.288674967103354"><ele>521.0</ele><time>2026-04-11T10:36:19.999Z</time></trkpt><trkpt lat="43.707162260463846" lon="12.288842535976919"><ele>524.0</ele><time>2026-04-11T10:36:20.999Z</time></trkpt><trkpt lat="43.707083536502765" lon="12.288981491461566"><ele>527.0</ele><time>2026-04-11T10:36:21.999Z</time></trkpt><trkpt lat="43.707014359983916" lon="12.289132506480168"><ele>530.0</ele><time>2026-04-11T10:36:22.999Z</time></trkpt><trkpt lat="43.70694291475464" lon="12.289279313772859"><ele>533.0</ele><time>2026-04-11T10:36:23.999Z</time></trkpt><trkpt lat="43.7068727892979" lon="12.28941466581076"><ele>528.75</ele><time>2026-04-11T10:36:24.999Z</time></trkpt><trkpt lat="43.70679616521307" lon="12.289535951107451"><ele>524.5</ele><time>2026-04-11T10:36:25.999Z</time></trkpt><trkpt lat="43.70675302153585" lon="12.289684383124733"><ele>520.25</ele><time>2026-04-11T10:36:26.999Z</time></trkpt><trkpt lat="43.70671810128305" lon="12.289843437794225"><ele>516.0</ele><time>2026-04-11T10:36:27.999Z</time></trkpt><trkpt lat="43.706675946657334" lon="12.290010237274904"><ele>516.0</ele><time>2026-04-11T10:36:28.999Z</time></trkpt><trkpt lat="43.7066858209977" lon="12.29019340789279"><ele>516.0</ele><time>2026-04-11T10:36:29.999Z</time></trkpt><trkpt lat="43.70670194710385" lon="12.290368537702479"><ele>516.0</ele><time>2026-04-11T10:36:30.999Z</time></trkpt><trkpt lat="43.70671801327575" lon="12.290539894272563"><ele>516.0</ele><time>2026-04-11T10:36:31.999Z</time></trkpt><trkpt lat="43.706766088436474" lon="12.290673244881754"><ele>514.8333333333334</ele><time>2026-04-11T10:36:32.999Z</time></trkpt><trkpt lat="43.70679710515168" lon="12.290782546593254"><ele>513.6666666666666</ele><time>2026-04-11T10:36:33.999Z</time></trkpt><trkpt lat="43.70682520789324" lon="12.29086803464068"><ele>512.5</ele><time>2026-04-11T10:36:34.999Z</time></trkpt><trkpt lat="43.70687270142633" lon="12.290992168571323"><ele>511.3333333333333</ele><time>2026-04-11T10:36:36.999Z</time></trkpt><trkpt lat="43.70691351831312" lon="12.291084097656176"><ele>510.16666666666663</ele><time>2026-04-11T10:36:38.999Z</time></trkpt><trkpt lat="43.70694241982194" lon="12.291167488789027"><ele>509.0</ele><time>2026-04-11T10:37:03Z</time></trkpt><trkpt lat="43.70699468667804" lon="12.291261063951271"><ele>511.8333333333333</ele><time>2026-04-11T10:38:05Z</time></trkpt><trkpt lat="43.70702541486338" lon="12.291339049231642"><ele>514.6666666666666</ele><time>2026-04-11T10:38:07Z</time></trkpt><trkpt lat="43.70705551189943" lon="12.291442172418991"><ele>517.5</ele><time>2026-04-11T10:38:09Z</time></trkpt><trkpt lat="43.707088755429524" lon="12.291534764439767"><ele>520.3333333333334</ele><time>2026-04-11T10:38:11Z</time></trkpt><trkpt lat="43.707096162289304" lon="12.291635962750243"><ele>523.1666666666667</ele><time>2026-04-11T10:38:14Z</time></trkpt><trkpt lat="43.707135704947156" lon="12.291723579600882"><ele>526.0</ele><time>2026-04-11T10:38:34.999Z</time></trkpt><trkpt lat="43.70719435458043" lon="12.291859944624687"><ele>526.0</ele><time>2026-04-11T10:38:36.999Z</time></trkpt><trkpt lat="43.70723567941342" lon="12.29195421901368"><ele>526.0</ele><time>2026-04-11T10:38:37.999Z</time></trkpt><trkpt lat="43.7072865951864" lon="12.29204809053743"><ele>526.0</ele><time>2026-04-11T10:38:38.999Z</time></trkpt><trkpt lat="43.707340949476595" lon="12.292161814905802"><ele>526.0</ele><time>2026-04-11T10:38:39.999Z</time></trkpt><trkpt lat="43.70739007189212" lon="12.292297967055562"><ele>526.0</ele><time>2026-04-11T10:38:40.999Z</time></trkpt><trkpt lat="43.707434881946355" lon="12.29245743396601"><ele>520.5</ele><time>2026-04-11T10:38:41.999Z</time></trkpt><trkpt lat="43.707481155917" lon="12.292630673000318"><ele>515.0</ele><time>2026-04-11T10:38:42.999Z</time></trkpt><trkpt lat="43.7075157750695" lon="12.2928080939784"><ele>509.5</ele><time>2026-04-11T10:38:43.999Z</time></trkpt><trkpt lat="43.70752663827092" lon="12.292991502968203"><ele>504.0</ele><time>2026-04-11T10:38:44.999Z</time></trkpt><trkpt lat="43.707538885743354" lon="12.293171237852597"><ele>501.25</ele><time>2026-04-11T10:38:45.999Z</time></trkpt><trkpt lat="43.707566534262625" lon="12.29334637916555"><ele>498.5</ele><time>2026-04-11T10:38:46.999Z</time></trkpt><trkpt lat="43.70761119422006" lon="12.293524282821894"><ele>495.75</ele><time>2026-04-11T10:38:47.999Z</time></trkpt><trkpt lat="43.70767293940013" lon="12.293695012048822"><ele>493.0</ele><time>2026-04-11T10:38:48.999Z</time></trkpt><trkpt lat="43.707760822088936" lon="12.29384833773462"><ele>494.75</ele><time>2026-04-11T10:38:49.999Z</time></trkpt><trkpt lat="43.70786902352465" lon="12.293976605385142"><ele>496.5</ele><time>2026-04-11T10:38:50.999Z</time></trkpt><trkpt lat="43.70797003797459" lon="12.294106148333338"><ele>498.25</ele><time>2026-04-11T10:38:51.999Z</time></trkpt><trkpt lat="43.70807196067717" lon="12.294225395852767"><ele>500.0</ele><time>2026-04-11T10:38:52.999Z</time></trkpt><trkpt lat="43.70816188746299" lon="12.294349302144091"><ele>500.0</ele><time>2026-04-11T10:38:53.999Z</time></trkpt><trkpt lat="43.708237247213525" lon="12.294486629603908"><ele>500.0</ele><time>2026-04-11T10:38:54.999Z</time></trkpt><trkpt lat="43.70829156627065" lon="12.294633911763183"><ele>500.0</ele><time>2026-04-11T10:38:55.999Z</time></trkpt><trkpt lat="43.70830560794641" lon="12.294778819520227"><ele>500.0</ele><time>2026-04-11T10:38:56.999Z</time></trkpt><trkpt lat="43.70832784088926" lon="12.294908345683652"><ele>500.0</ele><time>2026-04-11T10:38:57.999Z</time></trkpt><trkpt lat="43.70835803129885" lon="12.295020730349659"><ele>497.2</ele><time>2026-04-11T10:38:59.001Z</time></trkpt><trkpt lat="43.708350465867106" lon="12.295116923233774"><ele>494.4</ele><time>2026-04-11T10:39:00.001Z</time></trkpt><trkpt lat="43.70831325421818" lon="12.295272146090092"><ele>491.6</ele><time>2026-04-11T10:39:02.001Z</time></trkpt><trkpt lat="43.70824114121734" lon="12.295321451058612"><ele>488.8</ele><time>2026-04-11T10:39:03.001Z</time></trkpt><trkpt lat="43.708151486769644" lon="12.295267828107548"><ele>486.0</ele><time>2026-04-11T10:39:04.001Z</time></trkpt><trkpt lat="43.70807845104048" lon="12.295194516798276"><ele>486.0</ele><time>2026-04-11T10:39:05.001Z</time></trkpt><trkpt lat="43.70798941882828" lon="12.295119276896214"><ele>486.0</ele><time>2026-04-11T10:39:06.001Z</time></trkpt><trkpt lat="43.70789061249138" lon="12.29503767976116"><ele>486.0</ele><time>2026-04-11T10:39:07.001Z</time></trkpt><trkpt lat="43.707803491067224" lon="12.294938741251041"><ele>486.0</ele><time>2026-04-11T10:39:08.001Z</time></trkpt><trkpt lat="43.70771270850327" lon="12.294884324980531"><ele>486.0</ele><time>2026-04-11T10:39:09.001Z</time></trkpt><trkpt lat="43.70765424303237" lon="12.294825902666359"><ele>483.6</ele><time>2026-04-11T10:39:10.001Z</time></trkpt><trkpt lat="43.70754316638534" lon="12.294777456908495"><ele>481.20000000000005</ele><time>2026-04-11T10:39:12.001Z</time></trkpt><trkpt lat="43.70747022286988" lon="12.294848020317788"><ele>478.79999999999995</ele><time>2026-04-11T10:39:13.001Z</time></trkpt><trkpt lat="43.70745994141691" lon="12.2949988187402"><ele>476.4</ele><time>2026-04-11T10:39:14.001Z</time></trkpt><trkpt lat="43.70745483039259" lon="12.295132957143686"><ele>474.0</ele><time>2026-04-11T10:39:15Z</time></trkpt><trkpt lat="43.707449089553805" lon="12.295259699884971"><ele>474.0</ele><time>2026-04-11T10:39:16Z</time></trkpt><trkpt lat="43.70742953615942" lon="12.295380686128448"><ele>474.0</ele><time>2026-04-11T10:39:17Z</time></trkpt><trkpt lat="43.70747790915807" lon="12.295505777491677"><ele>474.0</ele><time>2026-04-11T10:39:18Z</time></trkpt><trkpt lat="43.70751754161586" lon="12.295618102696121"><ele>474.0</ele><time>2026-04-11T10:39:19Z</time></trkpt><trkpt lat="43.7075528180651" lon="12.295723488542205"><ele>474.0</ele><time>2026-04-11T10:39:20Z</time></trkpt><trkpt lat="43.70759074358785" lon="12.295832133108878"><ele>474.6</ele><time>2026-04-11T10:39:21Z</time></trkpt><trkpt lat="43.707648254700665" lon="12.295934859721235"><ele>475.2</ele><time>2026-04-11T10:39:22Z</time></trkpt><trkpt lat="43.707711821714106" lon="12.296034500494878"><ele>475.80000000000007</ele><time>2026-04-11T10:39:23Z</time></trkpt><trkpt lat="43.70778040692824" lon="12.29612208982507"><ele>476.40000000000003</ele><time>2026-04-11T10:39:24Z</time></trkpt><trkpt lat="43.70784684683951" lon="12.296201266644099"><ele>477.0</ele><time>2026-04-11T10:39:25Z</time></trkpt><trkpt lat="43.707909097517515" lon="12.296268284627402"><ele>477.0</ele><time>2026-04-11T10:39:26Z</time></trkpt><trkpt lat="43.70797096182742" lon="12.296323939589739"><ele>477.0</ele><time>2026-04-11T10:39:27Z</time></trkpt><trkpt lat="43.70802293328006" lon="12.296382936722292"><ele>477.0</ele><time>2026-04-11T10:39:28Z</time></trkpt><trkpt lat="43.70807053337325" lon="12.296439967292676"><ele>477.0</ele><time>2026-04-11T10:39:29Z</time></trkpt><trkpt lat="43.708163042242326" lon="12.296535327549677"><ele>477.0</ele><time>2026-04-11T10:39:31Z</time></trkpt><trkpt lat="43.70825700455802" lon="12.296635465412173"><ele>477.0</ele><time>2026-04-11T10:39:33Z</time></trkpt><trkpt lat="43.70834596319664" lon="12.296717210887541"><ele>476.0</ele><time>2026-04-11T10:39:35Z</time></trkpt><trkpt lat="43.70843152177624" lon="12.296796805844291"><ele>475.0</ele><time>2026-04-11T10:39:37Z</time></trkpt><trkpt lat="43.708472931550105" lon="12.296922524008549"><ele>474.0</ele><time>2026-04-11T10:39:39Z</time></trkpt><trkpt lat="43.70844655054587" lon="12.297009977574199"><ele>473.0</ele><time>2026-04-11T10:39:41Z</time></trkpt><trkpt lat="43.70850988599049" lon="12.297019190137735"><ele>472.0</ele><time>2026-04-11T10:40:03.999Z</time></trkpt><trkpt lat="43.70848625840435" lon="12.296898446628006"><ele>471.0</ele><time>2026-04-11T10:40:05.999Z</time></trkpt><trkpt lat="43.708442038188196" lon="12.296762660318334"><ele>471.0</ele><time>2026-04-11T10:40:07.999Z</time></trkpt><trkpt lat="43.708394693654895" lon="12.296688973000318"><ele>471.0</ele><time>2026-04-11T10:40:08.999Z</time></trkpt><trkpt lat="43.70831822130114" lon="12.296634420396657"><ele>471.0</ele><time>2026-04-11T10:40:09.999Z</time></trkpt><trkpt lat="43.708244270024636" lon="12.29657196937044"><ele>471.0</ele><time>2026-04-11T10:40:10.999Z</time></trkpt><trkpt lat="43.70817193997253" lon="12.29649512922132"><ele>471.0</ele><time>2026-04-11T10:40:11.999Z</time></trkpt><trkpt lat="43.708101407390714" lon="12.296414716977145"><ele>471.0</ele><time>2026-04-11T10:40:12.999Z</time></trkpt><trkpt lat="43.70803107414289" lon="12.296331909944032"><ele>470.8333333333333</ele><time>2026-04-11T10:40:13.999Z</time></trkpt><trkpt lat="43.70795871825372" lon="12.296252536918779"><ele>470.66666666666663</ele><time>2026-04-11T10:40:14.999Z</time></trkpt><trkpt lat="43.70788829408508" lon="12.296176539175962"><ele>470.5</ele><time>2026-04-11T10:40:15.999Z</time></trkpt><trkpt lat="43.7078193891568" lon="12.2961051333397"><ele>470.3333333333333</ele><time>2026-04-11T10:40:16.999Z</time></trkpt><trkpt lat="43.70776143604264" lon="12.296038080724836"><ele>470.16666666666663</ele><time>2026-04-11T10:40:17.999Z</time></trkpt><trkpt lat="43.7076801769353" lon="12.2959471819967"><ele>470.0</ele><time>2026-04-11T10:40:19.999Z</time></trkpt><trkpt lat="43.70762351962811" lon="12.295850017796246"><ele>469.99999999999994</ele><time>2026-04-11T10:40:22.999Z</time></trkpt><trkpt lat="43.70754385154464" lon="12.29588797585311"><ele>470.0</ele><time>2026-04-11T10:40:24.999Z</time></trkpt><trkpt lat="43.70747651482872" lon="12.29591595477391"><ele>470.0</ele><time>2026-04-11T10:40:26.999Z</time></trkpt><trkpt lat="43.70740963652029" lon="12.295972819243895"><ele>470.0</ele><time>2026-04-11T10:40:28.999Z</time></trkpt><trkpt lat="43.707345711493176" lon="12.29600888700315"><ele>469.99999999999994</ele><time>2026-04-11T10:40:31.999Z</time></trkpt><trkpt lat="43.70740737371651" lon="12.295946790785829"><ele>470.0</ele><time>2026-04-11T10:45:23Z</time></trkpt><trkpt lat="43.707506839482946" lon="12.295919780275856"><ele>470.0</ele><time>2026-04-11T10:45:25Z</time></trkpt><trkpt lat="43.70759733261075" lon="12.29589799355546"><ele>470.0</ele><time>2026-04-11T10:45:27Z</time></trkpt><trkpt lat="43.707695899095604" lon="12.29598803004319"><ele>470.0</ele><time>2026-04-11T10:45:29Z</time></trkpt><trkpt lat="43.707746302080636" lon="12.296058071991817"><ele>470.0</ele><time>2026-04-11T10:45:30Z</time></trkpt><trkpt lat="43.707808782809636" lon="12.296145779556898"><ele>470.0</ele><time>2026-04-11T10:45:31Z</time></trkpt><trkpt lat="43.70789459717502" lon="12.296222337064307"><ele>470.2</ele><time>2026-04-11T10:45:32Z</time></trkpt><trkpt lat="43.70797207564978" lon="12.296306680482724"><ele>470.4</ele><time>2026-04-11T10:45:33Z</time></trkpt><trkpt lat="43.708055784542985" lon="12.2963930758737"><ele>470.6</ele><time>2026-04-11T10:45:34Z</time></trkpt><trkpt lat="43.70813810988151" lon="12.296479887699409"><ele>470.8</ele><time>2026-04-11T10:45:35Z</time></trkpt><trkpt lat="43.70821321622219" lon="12.296559518620114"><ele>471.0</ele><time>2026-04-11T10:45:36Z</time></trkpt><trkpt lat="43.708284601663216" lon="12.29663719030349"><ele>471.0</ele><time>2026-04-11T10:45:37Z</time></trkpt><trkpt lat="43.708344880839945" lon="12.296715659494659"><ele>471.0</ele><time>2026-04-11T10:45:38Z</time></trkpt><trkpt lat="43.708417593651696" lon="12.296765120545233"><ele>471.0</ele><time>2026-04-11T10:45:39Z</time></trkpt><trkpt lat="43.708475412259304" lon="12.29683990458975"><ele>471.0</ele><time>2026-04-11T10:45:40Z</time></trkpt><trkpt lat="43.708507261152725" lon="12.296951694998105"><ele>471.0</ele><time>2026-04-11T10:45:41Z</time></trkpt><trkpt lat="43.708516651450985" lon="12.297072706611118"><ele>471.0</ele><time>2026-04-11T10:45:41.999Z</time></trkpt><trkpt lat="43.70853234039397" lon="12.297209995432725"><ele>471.75</ele><time>2026-04-11T10:45:42.999Z</time></trkpt><trkpt lat="43.70853503698434" lon="12.29735343799956"><ele>472.5</ele><time>2026-04-11T10:45:43.999Z</time></trkpt><trkpt lat="43.70851512166709" lon="12.297514573127174"><ele>473.25</ele><time>2026-04-11T10:45:44.999Z</time></trkpt><trkpt lat="43.70841341174084" lon="12.297642662695582"><ele>474.0</ele><time>2026-04-11T10:45:45.999Z</time></trkpt><trkpt lat="43.708405111879784" lon="12.297773879221033"><ele>474.0</ele><time>2026-04-11T10:45:46.999Z</time></trkpt><trkpt lat="43.70839710452942" lon="12.297900471673348"><ele>474.0</ele><time>2026-04-11T10:45:47.999Z</time></trkpt><trkpt lat="43.70838989743987" lon="12.298062640720186"><ele>474.0</ele><time>2026-04-11T10:45:48.999Z</time></trkpt><trkpt lat="43.70838845010897" lon="12.29825763026531"><ele>474.0</ele><time>2026-04-11T10:45:49.999Z</time></trkpt><trkpt lat="43.7083984806882" lon="12.298424998872422"><ele>473.75</ele><time>2026-04-11T10:45:50.999Z</time></trkpt><trkpt lat="43.708415449374016" lon="12.298602583497017"><ele>473.5</ele><time>2026-04-11T10:45:51.999Z</time></trkpt><trkpt lat="43.70845279656583" lon="12.298805110964024"><ele>473.25</ele><time>2026-04-11T10:45:52.999Z</time></trkpt><trkpt lat="43.708515738904666" lon="12.298999752138315"><ele>473.0</ele><time>2026-04-11T10:45:53.999Z</time></trkpt><trkpt lat="43.70857573342294" lon="12.299165211180332"><ele>474.75</ele><time>2026-04-11T10:45:54.999Z</time></trkpt><trkpt lat="43.7086399690844" lon="12.29933139555359"><ele>476.5</ele><time>2026-04-11T10:45:55.999Z</time></trkpt><trkpt lat="43.70870835369124" lon="12.299497015455424"><ele>478.25</ele><time>2026-04-11T10:45:56.999Z</time></trkpt><trkpt lat="43.70877118707608" lon="12.299655287020242"><ele>480.0</ele><time>2026-04-11T10:45:57.999Z</time></trkpt><trkpt lat="43.70883136173291" lon="12.299808168776373"><ele>480.0</ele><time>2026-04-11T10:45:58.999Z</time></trkpt><trkpt lat="43.70889089147305" lon="12.299960300263512"><ele>480.0</ele><time>2026-04-11T10:45:59.999Z</time></trkpt><trkpt lat="43.708948797426544" lon="12.300119106240889"><ele>480.0</ele><time>2026-04-11T10:46:00.999Z</time></trkpt><trkpt lat="43.70898721277331" lon="12.300273214458088"><ele>480.0</ele><time>2026-04-11T10:46:01.999Z</time></trkpt><trkpt lat="43.70900435567483" lon="12.300441831010106"><ele>478.5</ele><time>2026-04-11T10:46:02.999Z</time></trkpt><trkpt lat="43.709083763004266" lon="12.300599540937743"><ele>477.0</ele><time>2026-04-11T10:46:03.999Z</time></trkpt><trkpt lat="43.70910538930125" lon="12.300760215744896"><ele>475.5</ele><time>2026-04-11T10:46:04.999Z</time></trkpt><trkpt lat="43.709138797055076" lon="12.300911557510975"><ele>474.0</ele><time>2026-04-11T10:46:05.999Z</time></trkpt><trkpt lat="43.70919452691752" lon="12.301061164260494"><ele>474.0</ele><time>2026-04-11T10:46:06.999Z</time></trkpt><trkpt lat="43.70927129508737" lon="12.301186017409602"><ele>474.0</ele><time>2026-04-11T10:46:07.999Z</time></trkpt><trkpt lat="43.70936551027857" lon="12.301290513533484"><ele>474.0</ele><time>2026-04-11T10:46:08.999Z</time></trkpt><trkpt lat="43.70947494104001" lon="12.301375975986724"><ele>474.0</ele><time>2026-04-11T10:46:09.999Z</time></trkpt><trkpt lat="43.70958276019415" lon="12.301461615277391"><ele>476.75</ele><time>2026-04-11T10:46:10.999Z</time></trkpt><trkpt lat="43.70968600870063" lon="12.301557832113907"><ele>479.5</ele><time>2026-04-11T10:46:11.999Z</time></trkpt><trkpt lat="43.70975278965658" lon="12.301715038115992"><ele>482.25</ele><time>2026-04-11T10:46:12.999Z</time></trkpt><trkpt lat="43.70980720774147" lon="12.301867925435022"><ele>485.0</ele><time>2026-04-11T10:46:13.999Z</time></trkpt><trkpt lat="43.70985465836443" lon="12.302030428641444"><ele>485.0</ele><time>2026-04-11T10:46:14.999Z</time></trkpt><trkpt lat="43.709902570707165" lon="12.302191705704894"><ele>485.0</ele><time>2026-04-11T10:46:15.999Z</time></trkpt><trkpt lat="43.70995236659604" lon="12.302355544264897"><ele>485.0</ele><time>2026-04-11T10:46:16.999Z</time></trkpt><trkpt lat="43.710003238642756" lon="12.30252273699724"><ele>485.0</ele><time>2026-04-11T10:46:17.999Z</time></trkpt><trkpt lat="43.71004934001547" lon="12.302683575908315"><ele>482.5</ele><time>2026-04-11T10:46:18.999Z</time></trkpt><trkpt lat="43.710090312269536" lon="12.302840936376773"><ele>480.0</ele><time>2026-04-11T10:46:19.999Z</time></trkpt><trkpt lat="43.71011777484023" lon="12.302994714206065"><ele>477.5</ele><time>2026-04-11T10:46:20.999Z</time></trkpt><trkpt lat="43.710107457155466" lon="12.303144660090407"><ele>475.0</ele><time>2026-04-11T10:46:21.999Z</time></trkpt><trkpt lat="43.71008025211338" lon="12.303291506231204"><ele>473.0</ele><time>2026-04-11T10:46:22.999Z</time></trkpt><trkpt lat="43.71005544035058" lon="12.303440284161633"><ele>471.0</ele><time>2026-04-11T10:46:23.999Z</time></trkpt><trkpt lat="43.710055530296906" lon="12.3035987063841"><ele>469.0</ele><time>2026-04-11T10:46:24.999Z</time></trkpt><trkpt lat="43.71009606677387" lon="12.303760167426685"><ele>467.0</ele><time>2026-04-11T10:46:25.999Z</time></trkpt><trkpt lat="43.71018132234563" lon="12.303881741367608"><ele>470.20000000000005</ele><time>2026-04-11T10:46:26.999Z</time></trkpt><trkpt lat="43.71025328854744" lon="12.304009313320133"><ele>473.40000000000003</ele><time>2026-04-11T10:46:27.999Z</time></trkpt><trkpt lat="43.71032159287765" lon="12.304121265733459"><ele>476.59999999999997</ele><time>2026-04-11T10:46:28.999Z</time></trkpt><trkpt lat="43.7103881066582" lon="12.30424292548202"><ele>479.79999999999995</ele><time>2026-04-11T10:46:29.999Z</time></trkpt><trkpt lat="43.71043602724011" lon="12.304381648624329"><ele>483.0</ele><time>2026-04-11T10:46:30.999Z</time></trkpt><trkpt lat="43.71045689192654" lon="12.304533389091885"><ele>483.0</ele><time>2026-04-11T10:46:31.999Z</time></trkpt><trkpt lat="43.7104808653689" lon="12.304699468309916"><ele>483.0</ele><time>2026-04-11T10:46:32.999Z</time></trkpt><trkpt lat="43.71051128492433" lon="12.304865226549447"><ele>483.0</ele><time>2026-04-11T10:46:33.999Z</time></trkpt><trkpt lat="43.710560888571436" lon="12.305015304328847"><ele>483.0</ele><time>2026-04-11T10:46:34.999Z</time></trkpt><trkpt lat="43.71063119335468" lon="12.305145644862549"><ele>480.25</ele><time>2026-04-11T10:46:35.999Z</time></trkpt><trkpt lat="43.71069377314121" lon="12.305282732768042"><ele>477.5</ele><time>2026-04-11T10:46:36.999Z</time></trkpt><trkpt lat="43.710758941122585" lon="12.305413361007286"><ele>474.75</ele><time>2026-04-11T10:46:37.999Z</time></trkpt><trkpt lat="43.71082719596103" lon="12.305536340267471"><ele>472.0</ele><time>2026-04-11T10:46:38.999Z</time></trkpt><trkpt lat="43.71089381972113" lon="12.305657536375397"><ele>469.8</ele><time>2026-04-11T10:46:39.999Z</time></trkpt><trkpt lat="43.71095572515072" lon="12.305779936843377"><ele>467.6</ele><time>2026-04-11T10:46:40.999Z</time></trkpt><trkpt lat="43.71101039060106" lon="12.305906655653265"><ele>465.40000000000003</ele><time>2026-04-11T10:46:41.999Z</time></trkpt><trkpt lat="43.71104674102727" lon="12.306044683040598"><ele>463.20000000000005</ele><time>2026-04-11T10:46:42.999Z</time></trkpt><trkpt lat="43.711071077430994" lon="12.306194391295744"><ele>461.0</ele><time>2026-04-11T10:46:43.999Z</time></trkpt><trkpt lat="43.71109383666095" lon="12.306350375668968"><ele>466.25</ele><time>2026-04-11T10:46:44.999Z</time></trkpt><trkpt lat="43.7111119964336" lon="12.306515881363335"><ele>471.5</ele><time>2026-04-11T10:46:45.999Z</time></trkpt><trkpt lat="43.71113491296763" lon="12.30668572520959"><ele>476.75</ele><time>2026-04-11T10:46:46.999Z</time></trkpt><trkpt lat="43.711151797471835" lon="12.306867883357976"><ele>482.0</ele><time>2026-04-11T10:46:47.999Z</time></trkpt><trkpt lat="43.711167748721884" lon="12.30705062348452"><ele>482.0</ele><time>2026-04-11T10:46:48.999Z</time></trkpt><trkpt lat="43.71116724322616" lon="12.307241465011057"><ele>482.0</ele><time>2026-04-11T10:46:49.999Z</time></trkpt><trkpt lat="43.71113881673792" lon="12.307420739075894"><ele>482.0</ele><time>2026-04-11T10:46:50.999Z</time></trkpt><trkpt lat="43.71112288845462" lon="12.307595950144606"><ele>482.0</ele><time>2026-04-11T10:46:51.999Z</time></trkpt><trkpt lat="43.71110728555145" lon="12.307767582523624"><ele>480.75</ele><time>2026-04-11T10:46:52.999Z</time></trkpt><trkpt lat="43.71109026924886" lon="12.307936110502625"><ele>479.5</ele><time>2026-04-11T10:46:53.999Z</time></trkpt><trkpt lat="43.71106946196315" lon="12.308099631130853"><ele>478.25</ele><time>2026-04-11T10:46:54.999Z</time></trkpt><trkpt lat="43.71104159098473" lon="12.308256289702973"><ele>477.0</ele><time>2026-04-11T10:46:55.999Z</time></trkpt><trkpt lat="43.71101596103619" lon="12.308419900913291"><ele>471.0</ele><time>2026-04-11T10:46:56.999Z</time></trkpt><trkpt lat="43.710959228718586" lon="12.308572988327068"><ele>465.0</ele><time>2026-04-11T10:46:57.999Z</time></trkpt><trkpt lat="43.7109023158772" lon="12.308721606828575"><ele>459.0</ele><time>2026-04-11T10:46:58.999Z</time></trkpt><trkpt lat="43.71084730572191" lon="12.308864664974257"><ele>453.0</ele><time>2026-04-11T10:46:59.999Z</time></trkpt><trkpt lat="43.71077370117195" lon="12.308999471220611"><ele>453.0</ele><time>2026-04-11T10:47:00.999Z</time></trkpt><trkpt lat="43.71073923188552" lon="12.30914994259674"><ele>453.0</ele><time>2026-04-11T10:47:01.999Z</time></trkpt><trkpt lat="43.71072210799911" lon="12.309320066352"><ele>453.0</ele><time>2026-04-11T10:47:02.998Z</time></trkpt><trkpt lat="43.71074286382549" lon="12.30949465898245"><ele>453.0</ele><time>2026-04-11T10:47:03.998Z</time></trkpt><trkpt lat="43.710776097566985" lon="12.309670078681544"><ele>451.75</ele><time>2026-04-11T10:47:04.998Z</time></trkpt><trkpt lat="43.710822666261016" lon="12.309835551327414"><ele>450.5</ele><time>2026-04-11T10:47:05.998Z</time></trkpt><trkpt lat="43.71087416494435" lon="12.30998943576535"><ele>449.25</ele><time>2026-04-11T10:47:06.998Z</time></trkpt><trkpt lat="43.71090833330145" lon="12.310149231611378"><ele>448.0</ele><time>2026-04-11T10:47:07.998Z</time></trkpt><trkpt lat="43.710956213614544" lon="12.310302862815215"><ele>448.0</ele><time>2026-04-11T10:47:08.998Z</time></trkpt><trkpt lat="43.71101855284795" lon="12.310444705375305"><ele>448.0</ele><time>2026-04-11T10:47:09.998Z</time></trkpt><trkpt lat="43.711065457678345" lon="12.310601329644621"><ele>448.0</ele><time>2026-04-11T10:47:10.998Z</time></trkpt><trkpt lat="43.711106174107584" lon="12.310755724321833"><ele>448.0</ele><time>2026-04-11T10:47:11.998Z</time></trkpt><trkpt lat="43.71114574589829" lon="12.31091094056957"><ele>452.25</ele><time>2026-04-11T10:47:12.998Z</time></trkpt><trkpt lat="43.711174817617064" lon="12.311068116734452"><ele>456.5</ele><time>2026-04-11T10:47:13.998Z</time></trkpt><trkpt lat="43.71119740779316" lon="12.311221024010486"><ele>460.75</ele><time>2026-04-11T10:47:14.998Z</time></trkpt><trkpt lat="43.71121696836925" lon="12.311370688756071"><ele>465.0</ele><time>2026-04-11T10:47:15.998Z</time></trkpt><trkpt lat="43.711235245449956" lon="12.311521847141307"><ele>465.0</ele><time>2026-04-11T10:47:16.998Z</time></trkpt><trkpt lat="43.71124983785714" lon="12.311674383138488"><ele>465.0</ele><time>2026-04-11T10:47:17.998Z</time></trkpt><trkpt lat="43.71126238434271" lon="12.311828296351308"><ele>465.0</ele><time>2026-04-11T10:47:18.998Z</time></trkpt><trkpt lat="43.71128127846083" lon="12.311982503298225"><ele>465.0</ele><time>2026-04-11T10:47:19.998Z</time></trkpt><trkpt lat="43.711295239958666" lon="12.312143834855489"><ele>462.75</ele><time>2026-04-11T10:47:21Z</time></trkpt><trkpt lat="43.71131296574402" lon="12.312305850554884"><ele>460.5</ele><time>2026-04-11T10:47:22Z</time></trkpt><trkpt lat="43.711329745084754" lon="12.31246842386535"><ele>458.25</ele><time>2026-04-11T10:47:23Z</time></trkpt><trkpt lat="43.7113503608642" lon="12.312638213885098"><ele>456.0</ele><time>2026-04-11T10:47:24Z</time></trkpt><trkpt lat="43.711366398099386" lon="12.31280950051845"><ele>456.0</ele><time>2026-04-11T10:47:25Z</time></trkpt><trkpt lat="43.71138365563818" lon="12.312979888555905"><ele>456.0</ele><time>2026-04-11T10:47:26Z</time></trkpt><trkpt lat="43.71140113952201" lon="12.313148362474504"><ele>456.0</ele><time>2026-04-11T10:47:27Z</time></trkpt><trkpt lat="43.71141587773036" lon="12.31331927455504"><ele>456.0</ele><time>2026-04-11T10:47:28Z</time></trkpt><trkpt lat="43.711424058221084" lon="12.313493198284501"><ele>455.75</ele><time>2026-04-11T10:47:29Z</time></trkpt><trkpt lat="43.71142090284698" lon="12.31366845458678"><ele>455.5</ele><time>2026-04-11T10:47:30Z</time></trkpt><trkpt lat="43.71140806584529" lon="12.313849486822688"><ele>455.25</ele><time>2026-04-11T10:47:31Z</time></trkpt><trkpt lat="43.711387093697404" lon="12.314032852484221"><ele>455.0</ele><time>2026-04-11T10:47:32Z</time></trkpt><trkpt lat="43.711367413398065" lon="12.314212461536698"><ele>454.0</ele><time>2026-04-11T10:47:33Z</time></trkpt><trkpt lat="43.711340979077676" lon="12.314394083248592"><ele>453.0</ele><time>2026-04-11T10:47:34Z</time></trkpt><trkpt lat="43.71133028939499" lon="12.314574902568658"><ele>452.0</ele><time>2026-04-11T10:47:35Z</time></trkpt><trkpt lat="43.71131304367503" lon="12.314752533278392"><ele>451.0</ele><time>2026-04-11T10:47:36Z</time></trkpt><trkpt lat="43.71129916292339" lon="12.314928227436313"><ele>451.0</ele><time>2026-04-11T10:47:37Z</time></trkpt><trkpt lat="43.71128409749233" lon="12.315101151374845"><ele>451.0</ele><time>2026-04-11T10:47:38Z</time></trkpt><trkpt lat="43.71127145579728" lon="12.315274053548896"><ele>451.0</ele><time>2026-04-11T10:47:39Z</time></trkpt><trkpt lat="43.71125414284282" lon="12.315446698451668"><ele>451.0</ele><time>2026-04-11T10:47:40Z</time></trkpt><trkpt lat="43.71123454320406" lon="12.31561133800214"><ele>451.0</ele><time>2026-04-11T10:47:41Z</time></trkpt><trkpt lat="43.71120669682754" lon="12.31576665055773"><ele>451.0</ele><time>2026-04-11T10:47:42Z</time></trkpt><trkpt lat="43.711159908793455" lon="12.315913694337135"><ele>451.0</ele><time>2026-04-11T10:47:43Z</time></trkpt><trkpt lat="43.71106637552435" lon="12.316016045956392"><ele>451.0</ele><time>2026-04-11T10:47:44Z</time></trkpt><trkpt lat="43.71096342485136" lon="12.316103785497003"><ele>450.25</ele><time>2026-04-11T10:47:45Z</time></trkpt><trkpt lat="43.71086206063977" lon="12.316208853556075"><ele>449.5</ele><time>2026-04-11T10:47:46Z</time></trkpt><trkpt lat="43.71075789492869" lon="12.316292455898113"><ele>448.75</ele><time>2026-04-11T10:47:47Z</time></trkpt><trkpt lat="43.71065843023221" lon="12.316373222467652"><ele>448.0</ele><time>2026-04-11T10:47:48Z</time></trkpt><trkpt lat="43.710558907917246" lon="12.31644954206765"><ele>450.0</ele><time>2026-04-11T10:47:49Z</time></trkpt><trkpt lat="43.71047403161438" lon="12.316536065241174"><ele>451.99999999999994</ele><time>2026-04-11T10:47:50Z</time></trkpt><trkpt lat="43.71040969549733" lon="12.31664912982776"><ele>453.99999999999994</ele><time>2026-04-11T10:47:50.999Z</time></trkpt><trkpt lat="43.71034767647918" lon="12.316777520499222"><ele>456.0</ele><time>2026-04-11T10:47:51.999Z</time></trkpt><trkpt lat="43.71036535830863" lon="12.316944956110412"><ele>458.0</ele><time>2026-04-11T10:47:52.999Z</time></trkpt><trkpt lat="43.71040461506179" lon="12.317097126667573"><ele>458.0</ele><time>2026-04-11T10:47:53.999Z</time></trkpt><trkpt lat="43.710460812567035" lon="12.317246602349178"><ele>458.0</ele><time>2026-04-11T10:47:54.999Z</time></trkpt><trkpt lat="43.71052801871095" lon="12.31739582129966"><ele>458.0</ele><time>2026-04-11T10:47:55.999Z</time></trkpt><trkpt lat="43.710607428417994" lon="12.317531037913612"><ele>458.0</ele><time>2026-04-11T10:47:56.999Z</time></trkpt><trkpt lat="43.71068786997568" lon="12.31766129752412"><ele>458.0</ele><time>2026-04-11T10:47:57.999Z</time></trkpt><trkpt lat="43.71077711766249" lon="12.317784122070549"><ele>458.0</ele><time>2026-04-11T10:47:58.999Z</time></trkpt><trkpt lat="43.71086391389944" lon="12.317902264795636"><ele>458.0</ele><time>2026-04-11T10:47:59.999Z</time></trkpt><trkpt lat="43.71095345142934" lon="12.318010016128316"><ele>458.0</ele><time>2026-04-11T10:48:00.999Z</time></trkpt><trkpt lat="43.711045250759874" lon="12.318110603659894"><ele>462.75</ele><time>2026-04-11T10:48:01.999Z</time></trkpt><trkpt lat="43.7111376846047" lon="12.318214310940194"><ele>467.5</ele><time>2026-04-11T10:48:02.999Z</time></trkpt><trkpt lat="43.71122722644547" lon="12.318316424135393"><ele>472.25</ele><time>2026-04-11T10:48:03.999Z</time></trkpt><trkpt lat="43.71131639981994" lon="12.318425550720455"><ele>477.0</ele><time>2026-04-11T10:48:04.999Z</time></trkpt><trkpt lat="43.71140073020469" lon="12.318542968174473"><ele>477.0</ele><time>2026-04-11T10:48:05.999Z</time></trkpt><trkpt lat="43.71147814791738" lon="12.318676291808623"><ele>477.0</ele><time>2026-04-11T10:48:06.999Z</time></trkpt><trkpt lat="43.711532096485286" lon="12.318834181973804"><ele>477.0</ele><time>2026-04-11T10:48:07.999Z</time></trkpt><trkpt lat="43.71159643363105" lon="12.318980335905675"><ele>477.0</ele><time>2026-04-11T10:48:08.999Z</time></trkpt><trkpt lat="43.71166009717808" lon="12.319130976771602"><ele>471.75</ele><time>2026-04-11T10:48:09.999Z</time></trkpt><trkpt lat="43.71171086393859" lon="12.31928862246786"><ele>466.5</ele><time>2026-04-11T10:48:10.999Z</time></trkpt><trkpt lat="43.711740798216695" lon="12.319452877123183"><ele>461.25</ele><time>2026-04-11T10:48:11.999Z</time></trkpt><trkpt lat="43.71175862880048" lon="12.319627155526737"><ele>456.0</ele><time>2026-04-11T10:48:12.999Z</time></trkpt><trkpt lat="43.71177580333425" lon="12.31980640821514"><ele>454.75</ele><time>2026-04-11T10:48:13.999Z</time></trkpt><trkpt lat="43.71179158118806" lon="12.319986240228351"><ele>453.5</ele><time>2026-04-11T10:48:14.999Z</time></trkpt><trkpt lat="43.711807167596675" lon="12.32016389018701"><ele>452.25</ele><time>2026-04-11T10:48:15.999Z</time></trkpt><trkpt lat="43.71182195267643" lon="12.320332406291493"><ele>451.0</ele><time>2026-04-11T10:48:16.999Z</time></trkpt><trkpt lat="43.71183057106694" lon="12.320492328551795"><ele>450.0</ele><time>2026-04-11T10:48:17.999Z</time></trkpt><trkpt lat="43.711823223023615" lon="12.320667370589414"><ele>449.0</ele><time>2026-04-11T10:48:18.999Z</time></trkpt><trkpt lat="43.71180157134714" lon="12.32083832354895"><ele>448.0</ele><time>2026-04-11T10:48:19.999Z</time></trkpt><trkpt lat="43.711764980763604" lon="12.320980442078673"><ele>447.0</ele><time>2026-04-11T10:48:20.999Z</time></trkpt><trkpt lat="43.71170940075269" lon="12.321082581472785"><ele>447.0</ele><time>2026-04-11T10:48:21.999Z</time></trkpt><trkpt lat="43.71161301941617" lon="12.321137931565818"><ele>447.00000000000006</ele><time>2026-04-11T10:48:22.999Z</time></trkpt><trkpt lat="43.71150086867235" lon="12.321160072003954"><ele>447.00000000000006</ele><time>2026-04-11T10:48:23.999Z</time></trkpt><trkpt lat="43.71139203340373" lon="12.321190836018694"><ele>447.0</ele><time>2026-04-11T10:48:24.999Z</time></trkpt><trkpt lat="43.71129142403084" lon="12.32126127826031"><ele>447.0</ele><time>2026-04-11T10:48:25.999Z</time></trkpt><trkpt lat="43.711191761427386" lon="12.321354645100959"><ele>446.5</ele><time>2026-04-11T10:48:26.999Z</time></trkpt><trkpt lat="43.7110883846964" lon="12.321454200303368"><ele>446.0</ele><time>2026-04-11T10:48:27.999Z</time></trkpt><trkpt lat="43.71098120822193" lon="12.321557833138716"><ele>445.5</ele><time>2026-04-11T10:48:28.999Z</time></trkpt><trkpt lat="43.710866444569355" lon="12.321660969065844"><ele>445.0</ele><time>2026-04-11T10:48:29.999Z</time></trkpt><trkpt lat="43.71075429361051" lon="12.321762721699454"><ele>445.0</ele><time>2026-04-11T10:48:30.999Z</time></trkpt><trkpt lat="43.710642300426926" lon="12.321868235847692"><ele>445.0</ele><time>2026-04-11T10:48:31.999Z</time></trkpt><trkpt lat="43.7105324893478" lon="12.321975839570348"><ele>445.0</ele><time>2026-04-11T10:48:32.999Z</time></trkpt><trkpt lat="43.71042402708691" lon="12.322080014862207"><ele>445.0</ele><time>2026-04-11T10:48:33.999Z</time></trkpt><trkpt lat="43.71031941421757" lon="12.322182314770071"><ele>445.25</ele><time>2026-04-11T10:48:34.999Z</time></trkpt><trkpt lat="43.71021714024979" lon="12.322280275245555"><ele>445.5</ele><time>2026-04-11T10:48:35.999Z</time></trkpt><trkpt lat="43.71011870899938" lon="12.322376209600074"><ele>445.75</ele><time>2026-04-11T10:48:36.999Z</time></trkpt><trkpt lat="43.71002397291538" lon="12.322476136927813"><ele>446.0</ele><time>2026-04-11T10:48:37.999Z</time></trkpt><trkpt lat="43.70994130154227" lon="12.322593564371536"><ele>446.0</ele><time>2026-04-11T10:48:38.999Z</time></trkpt><trkpt lat="43.70986067660837" lon="12.322715119509512"><ele>446.0</ele><time>2026-04-11T10:48:39.999Z</time></trkpt><trkpt lat="43.7098183008303" lon="12.322877158617578"><ele>446.0</ele><time>2026-04-11T10:48:40.999Z</time></trkpt><trkpt lat="43.70979274757182" lon="12.323047841699903"><ele>446.0</ele><time>2026-04-11T10:48:41.999Z</time></trkpt><trkpt lat="43.70980648996535" lon="12.323227413937905"><ele>445.25</ele><time>2026-04-11T10:48:42.999Z</time></trkpt><trkpt lat="43.70985106880603" lon="12.323402381595065"><ele>444.5</ele><time>2026-04-11T10:48:43.999Z</time></trkpt><trkpt lat="43.709955209118284" lon="12.323545784653357"><ele>443.75</ele><time>2026-04-11T10:48:44.999Z</time></trkpt><trkpt lat="43.710060521635796" lon="12.323658965280732"><ele>443.0</ele><time>2026-04-11T10:48:45.999Z</time></trkpt><trkpt lat="43.7101739568285" lon="12.323759828558558"><ele>446.75</ele><time>2026-04-11T10:48:46.999Z</time></trkpt><trkpt lat="43.71027441479313" lon="12.323877318838186"><ele>450.5</ele><time>2026-04-11T10:48:47.999Z</time></trkpt><trkpt lat="43.710371045653886" lon="12.32399154291121"><ele>454.25</ele><time>2026-04-11T10:48:48.999Z</time></trkpt><trkpt lat="43.710464994752286" lon="12.324107539961227"><ele>458.0</ele><time>2026-04-11T10:48:49.999Z</time></trkpt><trkpt lat="43.71054890404682" lon="12.324241069017733"><ele>458.0</ele><time>2026-04-11T10:48:50.999Z</time></trkpt><trkpt lat="43.71062199770193" lon="12.324392371762299"><ele>458.0</ele><time>2026-04-11T10:48:51.999Z</time></trkpt><trkpt lat="43.71068792338331" lon="12.32455163311161"><ele>458.0</ele><time>2026-04-11T10:48:52.999Z</time></trkpt><trkpt lat="43.710735050097156" lon="12.324725854974222"><ele>458.0</ele><time>2026-04-11T10:48:53.999Z</time></trkpt><trkpt lat="43.71080308164402" lon="12.324881496855095"><ele>454.0</ele><time>2026-04-11T10:48:54.999Z</time></trkpt><trkpt lat="43.71085646812344" lon="12.325051557104322"><ele>450.0</ele><time>2026-04-11T10:48:55.999Z</time></trkpt><trkpt lat="43.7109006542543" lon="12.325221973903645"><ele>446.0</ele><time>2026-04-11T10:48:56.999Z</time></trkpt><trkpt lat="43.71093991434411" lon="12.325391021460412"><ele>442.0</ele><time>2026-04-11T10:48:57.999Z</time></trkpt><trkpt lat="43.710975506950575" lon="12.325565907798254"><ele>439.75</ele><time>2026-04-11T10:48:58.999Z</time></trkpt><trkpt lat="43.71100717039177" lon="12.325747504432618"><ele>437.5</ele><time>2026-04-11T10:48:59.999Z</time></trkpt><trkpt lat="43.711036294026414" lon="12.325929744544775"><ele>435.25</ele><time>2026-04-11T10:49:00.999Z</time></trkpt><trkpt lat="43.71107033413142" lon="12.326096346525762"><ele>433.0</ele><time>2026-04-11T10:49:01.999Z</time></trkpt><trkpt lat="43.711103305708214" lon="12.326263271084471"><ele>440.5</ele><time>2026-04-11T10:49:02.999Z</time></trkpt><trkpt lat="43.71113279881799" lon="12.326432780873485"><ele>448.0</ele><time>2026-04-11T10:49:03.999Z</time></trkpt><trkpt lat="43.71115740237175" lon="12.326607237704245"><ele>455.5</ele><time>2026-04-11T10:49:04.999Z</time></trkpt><trkpt lat="43.71117443635643" lon="12.326781174008985"><ele>463.0</ele><time>2026-04-11T10:49:05.999Z</time></trkpt><trkpt lat="43.71117747955791" lon="12.326953801468651"><ele>463.0</ele><time>2026-04-11T10:49:06.999Z</time></trkpt><trkpt lat="43.711174384359516" lon="12.327128679097935"><ele>463.0</ele><time>2026-04-11T10:49:07.999Z</time></trkpt><trkpt lat="43.71115704803858" lon="12.327305945140742"><ele>463.0</ele><time>2026-04-11T10:49:08.999Z</time></trkpt><trkpt lat="43.711112242393625" lon="12.327477939679335"><ele>463.0</ele><time>2026-04-11T10:49:09.998Z</time></trkpt><trkpt lat="43.71106006335059" lon="12.327646177444185"><ele>455.5</ele><time>2026-04-11T10:49:10.998Z</time></trkpt><trkpt lat="43.711012089020144" lon="12.327809602105138"><ele>448.0</ele><time>2026-04-11T10:49:11.998Z</time></trkpt><trkpt lat="43.71097144641514" lon="12.327971579050086"><ele>440.5</ele><time>2026-04-11T10:49:12.998Z</time></trkpt><trkpt lat="43.71093684036554" lon="12.328131749432234"><ele>433.0</ele><time>2026-04-11T10:49:13.998Z</time></trkpt><trkpt lat="43.710907270943366" lon="12.328287952320016"><ele>433.0</ele><time>2026-04-11T10:49:14.998Z</time></trkpt><trkpt lat="43.710887246193096" lon="12.328442837781514"><ele>433.0</ele><time>2026-04-11T10:49:15.998Z</time></trkpt><trkpt lat="43.71087201841969" lon="12.32859845095647"><ele>433.0</ele><time>2026-04-11T10:49:16.998Z</time></trkpt><trkpt lat="43.710855134765175" lon="12.328754551763115"><ele>433.0</ele><time>2026-04-11T10:49:17.998Z</time></trkpt><trkpt lat="43.71084076305997" lon="12.328909772464263"><ele>434.0</ele><time>2026-04-11T10:49:18.998Z</time></trkpt><trkpt lat="43.710826155495646" lon="12.329071923629062"><ele>435.0</ele><time>2026-04-11T10:49:19.998Z</time></trkpt><trkpt lat="43.71080626343092" lon="12.32923309013268"><ele>436.0</ele><time>2026-04-11T10:49:20.998Z</time></trkpt><trkpt lat="43.71076415116993" lon="12.329393064731683"><ele>437.0</ele><time>2026-04-11T10:49:21.998Z</time></trkpt><trkpt lat="43.71069332593704" lon="12.329541867854227"><ele>437.0</ele><time>2026-04-11T10:49:22.998Z</time></trkpt><trkpt lat="43.71059803547321" lon="12.329673918289672"><ele>437.0</ele><time>2026-04-11T10:49:23.998Z</time></trkpt><trkpt lat="43.71048261152104" lon="12.32978744294022"><ele>437.0</ele><time>2026-04-11T10:49:24.998Z</time></trkpt><trkpt lat="43.71036111668756" lon="12.32988089239349"><ele>437.0</ele><time>2026-04-11T10:49:26Z</time></trkpt><trkpt lat="43.71023818595229" lon="12.329950597290797"><ele>437.25</ele><time>2026-04-11T10:49:27Z</time></trkpt><trkpt lat="43.710113982293315" lon="12.329997044972504"><ele>437.5</ele><time>2026-04-11T10:49:28Z</time></trkpt><trkpt lat="43.709986823442485" lon="12.330003584532687"><ele>437.75</ele><time>2026-04-11T10:49:29Z</time></trkpt><trkpt lat="43.70986223493153" lon="12.329979910595405"><ele>438.0</ele><time>2026-04-11T10:49:30Z</time></trkpt><trkpt lat="43.70974403442217" lon="12.329945481306575"><ele>438.0</ele><time>2026-04-11T10:49:31Z</time></trkpt><trkpt lat="43.709632410342024" lon="12.329905991168447"><ele>438.0</ele><time>2026-04-11T10:49:32Z</time></trkpt><trkpt lat="43.70952100382746" lon="12.329883373423867"><ele>438.0</ele><time>2026-04-11T10:49:33Z</time></trkpt><trkpt lat="43.70941495867558" lon="12.329900774697881"><ele>438.0</ele><time>2026-04-11T10:49:34Z</time></trkpt><trkpt lat="43.70930758787846" lon="12.329964724504736"><ele>434.5</ele><time>2026-04-11T10:49:35Z</time></trkpt><trkpt lat="43.70921384709933" lon="12.330067613398567"><ele>431.0</ele><time>2026-04-11T10:49:36Z</time></trkpt><trkpt lat="43.70914332240945" lon="12.330203990920035"><ele>427.5</ele><time>2026-04-11T10:49:37Z</time></trkpt><trkpt lat="43.70909741713424" lon="12.3303660143628"><ele>424.0</ele><time>2026-04-11T10:49:38Z</time></trkpt><trkpt lat="43.70907043002799" lon="12.33054402948681"><ele>425.5</ele><time>2026-04-11T10:49:39Z</time></trkpt><trkpt lat="43.709058054370914" lon="12.330734224468099"><ele>427.0</ele><time>2026-04-11T10:49:40Z</time></trkpt><trkpt lat="43.709043485554446" lon="12.330928954481934"><ele>428.5</ele><time>2026-04-11T10:49:41Z</time></trkpt><trkpt lat="43.709027730666335" lon="12.331128721478198"><ele>430.0</ele><time>2026-04-11T10:49:42Z</time></trkpt><trkpt lat="43.70901413514464" lon="12.331320152574941"><ele>430.25</ele><time>2026-04-11T10:49:43Z</time></trkpt><trkpt lat="43.709001910847476" lon="12.33150557132712"><ele>430.5</ele><time>2026-04-11T10:49:44Z</time></trkpt><trkpt lat="43.70899850988659" lon="12.331686229747605"><ele>430.75</ele><time>2026-04-11T10:49:45Z</time></trkpt><trkpt lat="43.709008617415684" lon="12.33186400887729"><ele>431.0</ele><time>2026-04-11T10:49:46Z</time></trkpt><trkpt lat="43.709029625804064" lon="12.332036191403454"><ele>431.0</ele><time>2026-04-11T10:49:47Z</time></trkpt><trkpt lat="43.70905551923039" lon="12.332199832124346"><ele>431.0</ele><time>2026-04-11T10:49:48Z</time></trkpt><trkpt lat="43.70905698926453" lon="12.332360739823574"><ele>431.0</ele><time>2026-04-11T10:49:49Z</time></trkpt><trkpt lat="43.709024105253015" lon="12.332507534189455"><ele>431.0</ele><time>2026-04-11T10:49:50Z</time></trkpt><trkpt lat="43.70895416101603" lon="12.332640223654856"><ele>431.75</ele><time>2026-04-11T10:49:51Z</time></trkpt><trkpt lat="43.70886261315178" lon="12.332758356239427"><ele>432.5</ele><time>2026-04-11T10:49:52Z</time></trkpt><trkpt lat="43.70876782553197" lon="12.332876944363774"><ele>433.25</ele><time>2026-04-11T10:49:53Z</time></trkpt><trkpt lat="43.70867154105793" lon="12.33300543367995"><ele>434.0</ele><time>2026-04-11T10:49:54Z</time></trkpt><trkpt lat="43.708577745343746" lon="12.333138463278953"><ele>428.75</ele><time>2026-04-11T10:49:55Z</time></trkpt><trkpt lat="43.70848983811886" lon="12.333280156292043"><ele>423.5</ele><time>2026-04-11T10:49:56Z</time></trkpt><trkpt lat="43.70841691087796" lon="12.333428167347833"><ele>418.25</ele><time>2026-04-11T10:49:57Z</time></trkpt><trkpt lat="43.708361185278136" lon="12.333596504308233"><ele>413.0</ele><time>2026-04-11T10:49:58Z</time></trkpt><trkpt lat="43.70833057325162" lon="12.333777744383495"><ele>413.0</ele><time>2026-04-11T10:49:59Z</time></trkpt><trkpt lat="43.70833295329885" lon="12.333967235133622"><ele>413.0</ele><time>2026-04-11T10:49:59.999Z</time></trkpt><trkpt lat="43.70834996735085" lon="12.334154667666924"><ele>413.0</ele><time>2026-04-11T10:50:00.999Z</time></trkpt><trkpt lat="43.708369701264566" lon="12.33433703126201"><ele>413.0</ele><time>2026-04-11T10:50:01.999Z</time></trkpt><trkpt lat="43.70838825829247" lon="12.334516380909232"><ele>413.0</ele><time>2026-04-11T10:50:02.999Z</time></trkpt><trkpt lat="43.70840829424648" lon="12.334693405499173"><ele>413.0</ele><time>2026-04-11T10:50:03.999Z</time></trkpt><trkpt lat="43.70843254632837" lon="12.334870321982676"><ele>413.0</ele><time>2026-04-11T10:50:04.999Z</time></trkpt><trkpt lat="43.70845480528034" lon="12.335050058133616"><ele>413.0</ele><time>2026-04-11T10:50:05.999Z</time></trkpt><trkpt lat="43.708471778526125" lon="12.335228621122221"><ele>412.75</ele><time>2026-04-11T10:50:06.999Z</time></trkpt><trkpt lat="43.708483770436004" lon="12.335406597168568"><ele>412.5</ele><time>2026-04-11T10:50:07.999Z</time></trkpt><trkpt lat="43.70849425452538" lon="12.335576643104835"><ele>412.25</ele><time>2026-04-11T10:50:08.999Z</time></trkpt><trkpt lat="43.70851243496203" lon="12.335744101485"><ele>412.0</ele><time>2026-04-11T10:50:09.999Z</time></trkpt><trkpt lat="43.70853778680739" lon="12.335905810710267"><ele>413.5</ele><time>2026-04-11T10:50:10.999Z</time></trkpt><trkpt lat="43.70858775709082" lon="12.336053825988044"><ele>415.0</ele><time>2026-04-11T10:50:11.999Z</time></trkpt><trkpt lat="43.708673058080336" lon="12.33618407812943"><ele>416.5</ele><time>2026-04-11T10:50:12.999Z</time></trkpt><trkpt lat="43.7087861969965" lon="12.336280719536525"><ele>418.0</ele><time>2026-04-11T10:50:13.999Z</time></trkpt><trkpt lat="43.70889858270402" lon="12.336361240875455"><ele>414.5</ele><time>2026-04-11T10:50:14.999Z</time></trkpt><trkpt lat="43.70901056227261" lon="12.336431103476995"><ele>411.0</ele><time>2026-04-11T10:50:15.999Z</time></trkpt><trkpt lat="43.70912476361035" lon="12.336490155437907"><ele>407.5</ele><time>2026-04-11T10:50:16.999Z</time></trkpt><trkpt lat="43.70924483678506" lon="12.336555382772342"><ele>404.0</ele><time>2026-04-11T10:50:17.999Z</time></trkpt><trkpt lat="43.70935869506301" lon="12.336650163784629"><ele>405.0</ele><time>2026-04-11T10:50:18.999Z</time></trkpt><trkpt lat="43.70946758025561" lon="12.336763072577272"><ele>406.0</ele><time>2026-04-11T10:50:19.999Z</time></trkpt><trkpt lat="43.709558402842546" lon="12.336896281569302"><ele>407.0</ele><time>2026-04-11T10:50:20.999Z</time></trkpt><trkpt lat="43.709647184611065" lon="12.33702399663643"><ele>408.0</ele><time>2026-04-11T10:50:21.999Z</time></trkpt><trkpt lat="43.70973654650739" lon="12.337147578111727"><ele>408.25</ele><time>2026-04-11T10:50:22.999Z</time></trkpt><trkpt lat="43.709824861807526" lon="12.33727144396112"><ele>408.5</ele><time>2026-04-11T10:50:23.999Z</time></trkpt><trkpt lat="43.70991116556663" lon="12.337393919951966"><ele>408.75</ele><time>2026-04-11T10:50:24.999Z</time></trkpt><trkpt lat="43.709989559469925" lon="12.337515105802735"><ele>409.0</ele><time>2026-04-11T10:50:25.999Z</time></trkpt><trkpt lat="43.71005812442628" lon="12.337651249948168"><ele>409.0</ele><time>2026-04-11T10:50:26.999Z</time></trkpt><trkpt lat="43.710111860521806" lon="12.33780062149592"><ele>409.0</ele><time>2026-04-11T10:50:27.999Z</time></trkpt><trkpt lat="43.71014895451225" lon="12.337965008468112"><ele>409.0</ele><time>2026-04-11T10:50:28.999Z</time></trkpt><trkpt lat="43.71016186518998" lon="12.338138984573915"><ele>409.0</ele><time>2026-04-11T10:50:29.999Z</time></trkpt><trkpt lat="43.710159624970544" lon="12.338307320834417"><ele>407.5</ele><time>2026-04-11T10:50:30.999Z</time></trkpt><trkpt lat="43.71015482514386" lon="12.33848038466334"><ele>406.0</ele><time>2026-04-11T10:50:31.999Z</time></trkpt><trkpt lat="43.71014857397149" lon="12.338657048228376"><ele>404.5</ele><time>2026-04-11T10:50:32.999Z</time></trkpt><trkpt lat="43.71013692496222" lon="12.338838546994548"><ele>403.0</ele><time>2026-04-11T10:50:33.999Z</time></trkpt><trkpt lat="43.7101241147228" lon="12.339019197802214"><ele>401.75</ele><time>2026-04-11T10:50:34.999Z</time></trkpt><trkpt lat="43.7101117574538" lon="12.339200183594574"><ele>400.5</ele><time>2026-04-11T10:50:35.999Z</time></trkpt><trkpt lat="43.71010743990953" lon="12.339375921865132"><ele>399.25</ele><time>2026-04-11T10:50:36.999Z</time></trkpt><trkpt lat="43.71012476287757" lon="12.339543107845184"><ele>398.0</ele><time>2026-04-11T10:50:37.999Z</time></trkpt><trkpt lat="43.71016133353997" lon="12.339711638924193"><ele>397.0</ele><time>2026-04-11T10:50:38.999Z</time></trkpt><trkpt lat="43.710214597103395" lon="12.33987170064383"><ele>396.0</ele><time>2026-04-11T10:50:39.999Z</time></trkpt><trkpt lat="43.7102879372032" lon="12.340024893730554"><ele>395.0</ele><time>2026-04-11T10:50:40.999Z</time></trkpt><trkpt lat="43.71037157855364" lon="12.34017280998862"><ele>394.0</ele><time>2026-04-11T10:50:41.999Z</time></trkpt><trkpt lat="43.71045674837198" lon="12.340321776026213"><ele>394.5</ele><time>2026-04-11T10:50:42.999Z</time></trkpt><trkpt lat="43.710540873642096" lon="12.340465299914953"><ele>395.0</ele><time>2026-04-11T10:50:43.999Z</time></trkpt><trkpt lat="43.710627034074285" lon="12.340603868207861"><ele>395.5</ele><time>2026-04-11T10:50:44.999Z</time></trkpt><trkpt lat="43.710710957968516" lon="12.34074001391274"><ele>396.0</ele><time>2026-04-11T10:50:45.999Z</time></trkpt><trkpt lat="43.71079135802624" lon="12.340874123126248"><ele>396.0</ele><time>2026-04-11T10:50:46.999Z</time></trkpt><trkpt lat="43.71086555554283" lon="12.341022912538685"><ele>396.0</ele><time>2026-04-11T10:50:47.999Z</time></trkpt><trkpt lat="43.710928179837424" lon="12.341181138154889"><ele>396.0</ele><time>2026-04-11T10:50:48.999Z</time></trkpt><trkpt lat="43.71097376971812" lon="12.34135568137213"><ele>396.0</ele><time>2026-04-11T10:50:49.999Z</time></trkpt><trkpt lat="43.7109954799862" lon="12.341532532943399"><ele>396.25</ele><time>2026-04-11T10:50:50.999Z</time></trkpt><trkpt lat="43.711004944469906" lon="12.341704912703399"><ele>396.5</ele><time>2026-04-11T10:50:51.999Z</time></trkpt><trkpt lat="43.71100003275292" lon="12.341877455830831"><ele>396.75</ele><time>2026-04-11T10:50:52.999Z</time></trkpt><trkpt lat="43.71098326094672" lon="12.342028037879107"><ele>397.0</ele><time>2026-04-11T10:50:53.999Z</time></trkpt><trkpt lat="43.71096397432881" lon="12.342168591949045"><ele>397.8</ele><time>2026-04-11T10:50:54.999Z</time></trkpt><trkpt lat="43.71094659728197" lon="12.342302755270367"><ele>398.6</ele><time>2026-04-11T10:50:55.999Z</time></trkpt><trkpt lat="43.710930360096164" lon="12.342430595712083"><ele>399.40000000000003</ele><time>2026-04-11T10:50:56.999Z</time></trkpt><trkpt lat="43.71091784435108" lon="12.342544053271956"><ele>400.20000000000005</ele><time>2026-04-11T10:50:57.999Z</time></trkpt><trkpt lat="43.710905364756556" lon="12.342668620092567"><ele>401.0</ele><time>2026-04-11T10:50:58.999Z</time></trkpt><trkpt lat="43.71089820792302" lon="12.342800435159495"><ele>401.0</ele><time>2026-04-11T10:50:59.999Z</time></trkpt><trkpt lat="43.71089166954456" lon="12.34294101849358"><ele>401.0</ele><time>2026-04-11T10:51:00.999Z</time></trkpt><trkpt lat="43.71088520234389" lon="12.34309499369609"><ele>401.0</ele><time>2026-04-11T10:51:01.999Z</time></trkpt><trkpt lat="43.71089353998659" lon="12.343250935139135"><ele>401.0</ele><time>2026-04-11T10:51:02.999Z</time></trkpt><trkpt lat="43.71090265244753" lon="12.343411466114011"><ele>401.0</ele><time>2026-04-11T10:51:03.999Z</time></trkpt><trkpt lat="43.71090244868223" lon="12.34357860638843"><ele>401.5</ele><time>2026-04-11T10:51:04.999Z</time></trkpt><trkpt lat="43.71089004367429" lon="12.343747678772427"><ele>402.0</ele><time>2026-04-11T10:51:05.999Z</time></trkpt><trkpt lat="43.7108616627821" lon="12.343917239040248"><ele>402.5</ele><time>2026-04-11T10:51:06.999Z</time></trkpt><trkpt lat="43.71082188414824" lon="12.3440847449746"><ele>403.0</ele><time>2026-04-11T10:51:07.999Z</time></trkpt><trkpt lat="43.71076528031767" lon="12.344249856495994"><ele>404.25</ele><time>2026-04-11T10:51:08.999Z</time></trkpt><trkpt lat="43.7107073248538" lon="12.344400607898216"><ele>405.5</ele><time>2026-04-11T10:51:09.999Z</time></trkpt><trkpt lat="43.71064533792226" lon="12.344548444240273"><ele>406.75</ele><time>2026-04-11T10:51:10.999Z</time></trkpt><trkpt lat="43.710585801861896" lon="12.344701221224856"><ele>408.0</ele><time>2026-04-11T10:51:11.999Z</time></trkpt><trkpt lat="43.71052468662004" lon="12.344855859904508"><ele>411.75</ele><time>2026-04-11T10:51:12.999Z</time></trkpt><trkpt lat="43.71046131851975" lon="12.345010142833729"><ele>415.5</ele><time>2026-04-11T10:51:13.999Z</time></trkpt><trkpt lat="43.71039714739863" lon="12.345164271494205"><ele>419.25</ele><time>2026-04-11T10:51:14.999Z</time></trkpt><trkpt lat="43.710331005152426" lon="12.345318806442183"><ele>423.0</ele><time>2026-04-11T10:51:15.999Z</time></trkpt><trkpt lat="43.71026529937355" lon="12.345472150904829"><ele>418.25</ele><time>2026-04-11T10:51:16.999Z</time></trkpt><trkpt lat="43.71020037548781" lon="12.345629251101577"><ele>413.5</ele><time>2026-04-11T10:51:17.999Z</time></trkpt><trkpt lat="43.710136675619594" lon="12.34579163251391"><ele>408.75</ele><time>2026-04-11T10:51:18.999Z</time></trkpt><trkpt lat="43.71007282622498" lon="12.345955440317676"><ele>404.0</ele><time>2026-04-11T10:51:19.998Z</time></trkpt><trkpt lat="43.71000871554982" lon="12.346109112946586"><ele>404.0</ele><time>2026-04-11T10:51:20.998Z</time></trkpt><trkpt lat="43.70994638005599" lon="12.346257509160534"><ele>404.0</ele><time>2026-04-11T10:51:21.998Z</time></trkpt><trkpt lat="43.709886702691804" lon="12.34640681272374"><ele>404.0</ele><time>2026-04-11T10:51:22.998Z</time></trkpt><trkpt lat="43.70983026963272" lon="12.346557406583937"><ele>404.0</ele><time>2026-04-11T10:51:23.998Z</time></trkpt><trkpt lat="43.709779162036746" lon="12.34670532735793"><ele>406.4</ele><time>2026-04-11T10:51:24.998Z</time></trkpt><trkpt lat="43.709731302679" lon="12.346855071988895"><ele>408.79999999999995</ele><time>2026-04-11T10:51:25.998Z</time></trkpt><trkpt lat="43.709688081909526" lon="12.347002992704468"><ele>411.20000000000005</ele><time>2026-04-11T10:51:26.998Z</time></trkpt><trkpt lat="43.70965389739986" lon="12.34714477215123"><ele>413.6</ele><time>2026-04-11T10:51:27.998Z</time></trkpt><trkpt lat="43.709629975703315" lon="12.347283944869822"><ele>416.0</ele><time>2026-04-11T10:51:28.998Z</time></trkpt><trkpt lat="43.70961558007006" lon="12.347422045439844"><ele>417.0</ele><time>2026-04-11T10:51:29.998Z</time></trkpt><trkpt lat="43.70960588818074" lon="12.347564149591065"><ele>418.0</ele><time>2026-04-11T10:51:31Z</time></trkpt><trkpt lat="43.70959942078403" lon="12.347713258337556"><ele>419.0</ele><time>2026-04-11T10:51:32Z</time></trkpt><trkpt lat="43.70959968023693" lon="12.34786619624019"><ele>420.0</ele><time>2026-04-11T10:51:33Z</time></trkpt><trkpt lat="43.709603661809005" lon="12.348024876717174"><ele>421.0</ele><time>2026-04-11T10:51:34Z</time></trkpt><trkpt lat="43.70960728788016" lon="12.348190676426787"><ele>421.0</ele><time>2026-04-11T10:51:35Z</time></trkpt><trkpt lat="43.70961196870089" lon="12.34836279873585"><ele>421.0</ele><time>2026-04-11T10:51:36Z</time></trkpt><trkpt lat="43.709617810489355" lon="12.348542338682691"><ele>421.0</ele><time>2026-04-11T10:51:37Z</time></trkpt><trkpt lat="43.70962185879989" lon="12.348723761174064"><ele>421.0</ele><time>2026-04-11T10:51:38Z</time></trkpt><trkpt lat="43.7096251465566" lon="12.34890692883831"><ele>420.25</ele><time>2026-04-11T10:51:39Z</time></trkpt><trkpt lat="43.70962987991343" lon="12.349081181441544"><ele>419.5</ele><time>2026-04-11T10:51:40Z</time></trkpt><trkpt lat="43.70963081311108" lon="12.349253483686986"><ele>418.75</ele><time>2026-04-11T10:51:41Z</time></trkpt><trkpt lat="43.709633133910664" lon="12.349430334986092"><ele>418.0</ele><time>2026-04-11T10:51:42Z</time></trkpt><trkpt lat="43.70964071257001" lon="12.349602781189121"><ele>417.5</ele><time>2026-04-11T10:51:43Z</time></trkpt><trkpt lat="43.709657339889866" lon="12.349773984135663"><ele>417.0</ele><time>2026-04-11T10:51:44Z</time></trkpt><trkpt lat="43.70967771686037" lon="12.349948278636669"><ele>416.5</ele><time>2026-04-11T10:51:45Z</time></trkpt><trkpt lat="43.709703961758485" lon="12.350116435745207"><ele>416.0</ele><time>2026-04-11T10:51:46Z</time></trkpt><trkpt lat="43.70973542378" lon="12.350285492939474"><ele>416.0</ele><time>2026-04-11T10:51:47Z</time></trkpt><trkpt lat="43.709764193562236" lon="12.350452886577177"><ele>416.0</ele><time>2026-04-11T10:51:48Z</time></trkpt><trkpt lat="43.70979289873837" lon="12.350615902905588"><ele>416.0</ele><time>2026-04-11T10:51:49Z</time></trkpt><trkpt lat="43.70982009571185" lon="12.350773966500787"><ele>416.0</ele><time>2026-04-11T10:51:50Z</time></trkpt><trkpt lat="43.70984602799104" lon="12.35092784297099"><ele>415.5</ele><time>2026-04-11T10:51:51Z</time></trkpt><trkpt lat="43.70987156881277" lon="12.351081318217721"><ele>415.0</ele><time>2026-04-11T10:51:52Z</time></trkpt><trkpt lat="43.709898639830286" lon="12.35123475576831"><ele>414.5</ele><time>2026-04-11T10:51:53Z</time></trkpt><trkpt lat="43.70992783424156" lon="12.351386816396612"><ele>414.0</ele><time>2026-04-11T10:51:54Z</time></trkpt><trkpt lat="43.70995996920149" lon="12.351536172247101"><ele>413.0</ele><time>2026-04-11T10:51:55Z</time></trkpt><trkpt lat="43.70999307372457" lon="12.351684170778876"><ele>412.0</ele><time>2026-04-11T10:51:56Z</time></trkpt><trkpt lat="43.710025882745065" lon="12.351837700576043"><ele>411.0</ele><time>2026-04-11T10:51:57Z</time></trkpt><trkpt lat="43.71005802441163" lon="12.351990163413141"><ele>410.0</ele><time>2026-04-11T10:51:58Z</time></trkpt><trkpt lat="43.71009141899391" lon="12.352144237569142"><ele>410.0</ele><time>2026-04-11T10:51:59Z</time></trkpt><trkpt lat="43.71012321325113" lon="12.352300908661915"><ele>410.0</ele><time>2026-04-11T10:52:00Z</time></trkpt><trkpt lat="43.710154567327756" lon="12.352449980687558"><ele>410.0</ele><time>2026-04-11T10:52:01Z</time></trkpt><trkpt lat="43.71019624428292" lon="12.352587613332531"><ele>410.0</ele><time>2026-04-11T10:52:02Z</time></trkpt><trkpt lat="43.71025105362257" lon="12.352710977712805"><ele>410.0</ele><time>2026-04-11T10:52:03Z</time></trkpt><trkpt lat="43.71031891138756" lon="12.352822115256778"><ele>410.2</ele><time>2026-04-11T10:52:04Z</time></trkpt><trkpt lat="43.71039557380534" lon="12.352922719032348"><ele>410.4</ele><time>2026-04-11T10:52:05Z</time></trkpt><trkpt lat="43.710479511453975" lon="12.353017043246778"><ele>410.6</ele><time>2026-04-11T10:52:06Z</time></trkpt><trkpt lat="43.710567966258324" lon="12.353111517030806"><ele>410.8</ele><time>2026-04-11T10:52:07Z</time></trkpt><trkpt lat="43.71066056592407" lon="12.353205558363555"><ele>411.0</ele><time>2026-04-11T10:52:07.999Z</time></trkpt><trkpt lat="43.710752357809156" lon="12.353306639149707"><ele>411.0</ele><time>2026-04-11T10:52:08.999Z</time></trkpt><trkpt lat="43.71084406512666" lon="12.353409747426092"><ele>411.0</ele><time>2026-04-11T10:52:09.999Z</time></trkpt><trkpt lat="43.7109369908865" lon="12.353513638850568"><ele>411.0</ele><time>2026-04-11T10:52:10.999Z</time></trkpt><trkpt lat="43.711032081414494" lon="12.353616280192615"><ele>411.0</ele><time>2026-04-11T10:52:11.999Z</time></trkpt><trkpt lat="43.71112635960404" lon="12.353712272330748"><ele>410.75</ele><time>2026-04-11T10:52:12.999Z</time></trkpt><trkpt lat="43.711220830025866" lon="12.353805851063758"><ele>410.5</ele><time>2026-04-11T10:52:13.999Z</time></trkpt><trkpt lat="43.71130787422937" lon="12.353908904488454"><ele>410.25</ele><time>2026-04-11T10:52:14.999Z</time></trkpt><trkpt lat="43.71138755734197" lon="12.35402998107301"><ele>410.0</ele><time>2026-04-11T10:52:15.999Z</time></trkpt><trkpt lat="43.71146054747258" lon="12.354167543624769"><ele>410.0</ele><time>2026-04-11T10:52:16.999Z</time></trkpt><trkpt lat="43.71151886627658" lon="12.354319716984723"><ele>410.0</ele><time>2026-04-11T10:52:17.999Z</time></trkpt><trkpt lat="43.711563924602274" lon="12.354484434675035"><ele>410.0</ele><time>2026-04-11T10:52:18.999Z</time></trkpt><trkpt lat="43.71159356324749" lon="12.354658196853709"><ele>410.0</ele><time>2026-04-11T10:52:19.999Z</time></trkpt><trkpt lat="43.71159551447041" lon="12.354840479900803"><ele>408.75</ele><time>2026-04-11T10:52:20.999Z</time></trkpt><trkpt lat="43.711585782794565" lon="12.355013065161105"><ele>407.5</ele><time>2026-04-11T10:52:21.999Z</time></trkpt><trkpt lat="43.711566740414334" lon="12.355186849787774"><ele>406.25</ele><time>2026-04-11T10:52:22.999Z</time></trkpt><trkpt lat="43.71152379019612" lon="12.355359031686316"><ele>405.0</ele><time>2026-04-11T10:52:23.999Z</time></trkpt><trkpt lat="43.7114592988155" lon="12.35551881987453"><ele>404.0</ele><time>2026-04-11T10:52:24.999Z</time></trkpt><trkpt lat="43.711373752457376" lon="12.355668442498123"><ele>403.0</ele><time>2026-04-11T10:52:25.999Z</time></trkpt><trkpt lat="43.71127975220237" lon="12.355812122833907"><ele>402.0</ele><time>2026-04-11T10:52:26.999Z</time></trkpt><trkpt lat="43.7111775640227" lon="12.355946798309882"><ele>401.0</ele><time>2026-04-11T10:52:27.999Z</time></trkpt><trkpt lat="43.71106794234947" lon="12.356068461199166"><ele>401.0</ele><time>2026-04-11T10:52:28.999Z</time></trkpt><trkpt lat="43.71096139695256" lon="12.356185739817246"><ele>401.0</ele><time>2026-04-11T10:52:29.999Z</time></trkpt><trkpt lat="43.71085780252511" lon="12.356298828546555"><ele>401.0</ele><time>2026-04-11T10:52:30.999Z</time></trkpt><trkpt lat="43.71076015327451" lon="12.356409927026876"><ele>401.0</ele><time>2026-04-11T10:52:31.999Z</time></trkpt><trkpt lat="43.71066701761569" lon="12.356521001113322"><ele>402.5</ele><time>2026-04-11T10:52:32.999Z</time></trkpt><trkpt lat="43.71057388749446" lon="12.35662873713035"><ele>404.0</ele><time>2026-04-11T10:52:33.999Z</time></trkpt><trkpt lat="43.710484281608665" lon="12.356738979576821"><ele>405.5</ele><time>2026-04-11T10:52:34.999Z</time></trkpt><trkpt lat="43.71040710585176" lon="12.356854180238155"><ele>407.0</ele><time>2026-04-11T10:52:35.999Z</time></trkpt><trkpt lat="43.710338096160505" lon="12.356973821463514"><ele>407.0</ele><time>2026-04-11T10:52:36.999Z</time></trkpt><trkpt lat="43.71026175034084" lon="12.357103719057509"><ele>407.0</ele><time>2026-04-11T10:52:37.999Z</time></trkpt><trkpt lat="43.71018484839449" lon="12.357242044775175"><ele>407.0</ele><time>2026-04-11T10:52:38.999Z</time></trkpt><trkpt lat="43.710107488751866" lon="12.357387306509231"><ele>407.0</ele><time>2026-04-11T10:52:39.999Z</time></trkpt><trkpt lat="43.7100319116373" lon="12.357543727249947"><ele>405.5</ele><time>2026-04-11T10:52:40.999Z</time></trkpt><trkpt lat="43.70995632967595" lon="12.357708143429425"><ele>404.0</ele><time>2026-04-11T10:52:41.999Z</time></trkpt><trkpt lat="43.70988561977843" lon="12.357867535418132"><ele>402.5</ele><time>2026-04-11T10:52:42.999Z</time></trkpt><trkpt lat="43.70981275159027" lon="12.358020897383675"><ele>401.0</ele><time>2026-04-11T10:52:43.999Z</time></trkpt><trkpt lat="43.709743044780765" lon="12.358174364505466"><ele>401.0</ele><time>2026-04-11T10:52:44.999Z</time></trkpt><trkpt lat="43.70967426492023" lon="12.35832166998954"><ele>401.0</ele><time>2026-04-11T10:52:45.999Z</time></trkpt><trkpt lat="43.70960864593707" lon="12.358467865956378"><ele>401.0</ele><time>2026-04-11T10:52:46.999Z</time></trkpt><trkpt lat="43.70954779884322" lon="12.358610656565126"><ele>401.0</ele><time>2026-04-11T10:52:47.999Z</time></trkpt><trkpt lat="43.70949545626947" lon="12.358758381077251"><ele>401.25</ele><time>2026-04-11T10:52:48.999Z</time></trkpt><trkpt lat="43.70945178758265" lon="12.358917042755065"><ele>401.5</ele><time>2026-04-11T10:52:49.999Z</time></trkpt><trkpt lat="43.70941938547709" lon="12.359076716477883"><ele>401.75</ele><time>2026-04-11T10:52:50.999Z</time></trkpt><trkpt lat="43.709400773968476" lon="12.359234324965763"><ele>402.0</ele><time>2026-04-11T10:52:51.999Z</time></trkpt><trkpt lat="43.709391427624276" lon="12.359391246671967"><ele>401.75</ele><time>2026-04-11T10:52:52.999Z</time></trkpt><trkpt lat="43.70938979309056" lon="12.359554683985566"><ele>401.5</ele><time>2026-04-11T10:52:53.999Z</time></trkpt><trkpt lat="43.709399704626215" lon="12.359720650152552"><ele>401.25</ele><time>2026-04-11T10:52:54.999Z</time></trkpt><trkpt lat="43.70941616753051" lon="12.359890543376865"><ele>401.0</ele><time>2026-04-11T10:52:55.999Z</time></trkpt><trkpt lat="43.70944416083233" lon="12.360061876319772"><ele>401.0</ele><time>2026-04-11T10:52:56.999Z</time></trkpt><trkpt lat="43.70948721483692" lon="12.360227499940233"><ele>401.0</ele><time>2026-04-11T10:52:57.999Z</time></trkpt><trkpt lat="43.70953852042134" lon="12.360392415102664"><ele>401.0</ele><time>2026-04-11T10:52:58.999Z</time></trkpt><trkpt lat="43.709602097793244" lon="12.360551300208156"><ele>401.0</ele><time>2026-04-11T10:52:59.999Z</time></trkpt><trkpt lat="43.70967846454858" lon="12.360704492648557"><ele>399.5</ele><time>2026-04-11T10:53:00.999Z</time></trkpt><trkpt lat="43.70976610858941" lon="12.360849091661295"><ele>398.0</ele><time>2026-04-11T10:53:01.999Z</time></trkpt><trkpt lat="43.70986298124771" lon="12.3609897990231"><ele>396.5</ele><time>2026-04-11T10:53:02.999Z</time></trkpt><trkpt lat="43.70996782912607" lon="12.361123874325017"><ele>395.0</ele><time>2026-04-11T10:53:03.999Z</time></trkpt><trkpt lat="43.710077327493096" lon="12.36125428447707"><ele>394.0</ele><time>2026-04-11T10:53:04.999Z</time></trkpt><trkpt lat="43.710179959376255" lon="12.361381549878931"><ele>393.0</ele><time>2026-04-11T10:53:05.999Z</time></trkpt><trkpt lat="43.710280937007624" lon="12.361506831693667"><ele>392.0</ele><time>2026-04-11T10:53:06.999Z</time></trkpt><trkpt lat="43.71037612609295" lon="12.361630577677001"><ele>391.0</ele><time>2026-04-11T10:53:07.999Z</time></trkpt><trkpt lat="43.710469324117575" lon="12.361755889750587"><ele>391.0</ele><time>2026-04-11T10:53:08.999Z</time></trkpt><trkpt lat="43.710560554202566" lon="12.361876532967077"><ele>391.0</ele><time>2026-04-11T10:53:09.999Z</time></trkpt><trkpt lat="43.71065233994264" lon="12.362001838053057"><ele>391.0</ele><time>2026-04-11T10:53:10.999Z</time></trkpt><trkpt lat="43.71074561892227" lon="12.362127225617803"><ele>391.0</ele><time>2026-04-11T10:53:11.999Z</time></trkpt><trkpt lat="43.71083451228011" lon="12.362252145942152"><ele>389.25</ele><time>2026-04-11T10:53:12.999Z</time></trkpt><trkpt lat="43.71091763700927" lon="12.362379388217828"><ele>387.5</ele><time>2026-04-11T10:53:13.999Z</time></trkpt><trkpt lat="43.71099599076689" lon="12.36250970734052"><ele>385.75</ele><time>2026-04-11T10:53:14.999Z</time></trkpt><trkpt lat="43.71106865513886" lon="12.362654337654318"><ele>384.0</ele><time>2026-04-11T10:53:15.999Z</time></trkpt><trkpt lat="43.71113327304992" lon="12.36280871857811"><ele>386.5</ele><time>2026-04-11T10:53:16.999Z</time></trkpt><trkpt lat="43.7111857080667" lon="12.362974936746026"><ele>389.0</ele><time>2026-04-11T10:53:17.999Z</time></trkpt><trkpt lat="43.71122798924384" lon="12.36314876623906"><ele>391.5</ele><time>2026-04-11T10:53:18.999Z</time></trkpt><trkpt lat="43.71126713806771" lon="12.363320100279452"><ele>394.0</ele><time>2026-04-11T10:53:19.999Z</time></trkpt><trkpt lat="43.71130236558749" lon="12.363485270165198"><ele>394.0</ele><time>2026-04-11T10:53:20.999Z</time></trkpt><trkpt lat="43.711336479207645" lon="12.363648336176364"><ele>394.0</ele><time>2026-04-11T10:53:21.999Z</time></trkpt><trkpt lat="43.71137210903722" lon="12.363805900151448"><ele>394.0</ele><time>2026-04-11T10:53:22.999Z</time></trkpt><trkpt lat="43.71140604560476" lon="12.363962459743233"><ele>394.0</ele><time>2026-04-11T10:53:23.999Z</time></trkpt><trkpt lat="43.711440015637066" lon="12.364119896410433"><ele>391.25</ele><time>2026-04-11T10:53:24.999Z</time></trkpt><trkpt lat="43.71147420610357" lon="12.364280926367408"><ele>388.5</ele><time>2026-04-11T10:53:25.999Z</time></trkpt><trkpt lat="43.71151152429141" lon="12.364444862359754"><ele>385.75</ele><time>2026-04-11T10:53:26.999Z</time></trkpt><trkpt lat="43.71155505552249" lon="12.364609745512384"><ele>383.0</ele><time>2026-04-11T10:53:27.999Z</time></trkpt><trkpt lat="43.71160501914837" lon="12.364774344663951"><ele>381.75</ele><time>2026-04-11T10:53:28.999Z</time></trkpt><trkpt lat="43.71166200520814" lon="12.364934290396985"><ele>380.5</ele><time>2026-04-11T10:53:29.999Z</time></trkpt><trkpt lat="43.711722919644764" lon="12.365090504639916"><ele>379.25</ele><time>2026-04-11T10:53:30.998Z</time></trkpt><trkpt lat="43.711789811243314" lon="12.36523851515415"><ele>378.0</ele><time>2026-04-11T10:53:31.998Z</time></trkpt><trkpt lat="43.71186373446785" lon="12.365377494844985"><ele>380.0</ele><time>2026-04-11T10:53:32.998Z</time></trkpt><trkpt lat="43.71194231393591" lon="12.365509360998965"><ele>382.0</ele><time>2026-04-11T10:53:33.998Z</time></trkpt><trkpt lat="43.712024819782634" lon="12.365629450229958"><ele>384.0</ele><time>2026-04-11T10:53:34.998Z</time></trkpt><trkpt lat="43.71210878728921" lon="12.365740170685987"><ele>386.0</ele><time>2026-04-11T10:53:35.998Z</time></trkpt><trkpt lat="43.712197769512784" lon="12.365851970113034"><ele>386.0</ele><time>2026-04-11T10:53:37Z</time></trkpt><trkpt lat="43.71229144063787" lon="12.365960208139002"><ele>386.0</ele><time>2026-04-11T10:53:38Z</time></trkpt><trkpt lat="43.712392645828935" lon="12.366059636191915"><ele>386.0</ele><time>2026-04-11T10:53:39Z</time></trkpt><trkpt lat="43.71250002818309" lon="12.366153309727448"><ele>386.0</ele><time>2026-04-11T10:53:40Z</time></trkpt><trkpt lat="43.71261397877621" lon="12.366240552781756"><ele>386.0</ele><time>2026-04-11T10:53:41Z</time></trkpt><trkpt lat="43.71272978758596" lon="12.366320647446576"><ele>386.0</ele><time>2026-04-11T10:53:42Z</time></trkpt><trkpt lat="43.71284359073854" lon="12.366395191703033"><ele>386.0</ele><time>2026-04-11T10:53:43Z</time></trkpt><trkpt lat="43.712954441094126" lon="12.366457407581832"><ele>386.0</ele><time>2026-04-11T10:53:44Z</time></trkpt><trkpt lat="43.71306307857326" lon="12.366518248517552"><ele>385.0</ele><time>2026-04-11T10:53:45Z</time></trkpt><trkpt lat="43.713167833011795" lon="12.366580156772256"><ele>384.0</ele><time>2026-04-11T10:53:46Z</time></trkpt><trkpt lat="43.71327108599411" lon="12.366642203387492"><ele>383.0</ele><time>2026-04-11T10:53:47Z</time></trkpt><trkpt lat="43.713376586721665" lon="12.366706841290963"><ele>382.0</ele><time>2026-04-11T10:53:48Z</time></trkpt><trkpt lat="43.71348450253829" lon="12.366772514460903"><ele>382.25</ele><time>2026-04-11T10:53:49Z</time></trkpt><trkpt lat="43.71359381291341" lon="12.366847613554533"><ele>382.5</ele><time>2026-04-11T10:53:50Z</time></trkpt><trkpt lat="43.71369793526309" lon="12.36693912111769"><ele>382.75</ele><time>2026-04-11T10:53:51Z</time></trkpt><trkpt lat="43.71379883719085" lon="12.36704565038737"><ele>383.0</ele><time>2026-04-11T10:53:52Z</time></trkpt><trkpt lat="43.71390039822741" lon="12.3671595830563"><ele>382.0</ele><time>2026-04-11T10:53:53Z</time></trkpt><trkpt lat="43.71400237572984" lon="12.367284781243404"><ele>381.0</ele><time>2026-04-11T10:53:54Z</time></trkpt><trkpt lat="43.71410689882725" lon="12.367415418640904"><ele>380.0</ele><time>2026-04-11T10:53:55Z</time></trkpt><trkpt lat="43.714215149551066" lon="12.367547017726167"><ele>379.0</ele><time>2026-04-11T10:53:56Z</time></trkpt><trkpt lat="43.71432442890336" lon="12.367683434873245"><ele>379.5</ele><time>2026-04-11T10:53:57Z</time></trkpt><trkpt lat="43.71443178662018" lon="12.367813329125457"><ele>380.0</ele><time>2026-04-11T10:53:58Z</time></trkpt><trkpt lat="43.714537251660445" lon="12.367933944508248"><ele>380.5</ele><time>2026-04-11T10:53:59Z</time></trkpt><trkpt lat="43.71463410525134" lon="12.36805349452888"><ele>381.0</ele><time>2026-04-11T10:54:00Z</time></trkpt><trkpt lat="43.71472000781768" lon="12.368173297431719"><ele>381.0</ele><time>2026-04-11T10:54:01Z</time></trkpt><trkpt lat="43.71479100605608" lon="12.368295597949306"><ele>381.0</ele><time>2026-04-11T10:54:02Z</time></trkpt><trkpt lat="43.71485213226112" lon="12.36842488278218"><ele>381.0</ele><time>2026-04-11T10:54:03Z</time></trkpt><trkpt lat="43.71489634705318" lon="12.368561498218689"><ele>381.0</ele><time>2026-04-11T10:54:04Z</time></trkpt><trkpt lat="43.714907257173756" lon="12.368714793704196"><ele>381.0</ele><time>2026-04-11T10:54:05Z</time></trkpt><trkpt lat="43.714926628633634" lon="12.36887345467691"><ele>378.75</ele><time>2026-04-11T10:54:06Z</time></trkpt><trkpt lat="43.71494922872702" lon="12.369040958922614"><ele>376.5</ele><time>2026-04-11T10:54:07Z</time></trkpt><trkpt lat="43.7149744675629" lon="12.369215711957965"><ele>374.25</ele><time>2026-04-11T10:54:08Z</time></trkpt><trkpt lat="43.71500153255672" lon="12.369392660226003"><ele>372.0</ele><time>2026-04-11T10:54:09Z</time></trkpt><trkpt lat="43.715032684325216" lon="12.369574989541237"><ele>371.0</ele><time>2026-04-11T10:54:10Z</time></trkpt><trkpt lat="43.71506205114587" lon="12.3697624714469"><ele>370.0</ele><time>2026-04-11T10:54:11Z</time></trkpt><trkpt lat="43.71509988602817" lon="12.369944736283044"><ele>369.0</ele><time>2026-04-11T10:54:12Z</time></trkpt><trkpt lat="43.71512698631244" lon="12.370129601929317"><ele>368.0</ele><time>2026-04-11T10:54:13Z</time></trkpt><trkpt lat="43.715152780745626" lon="12.370314066461736"><ele>368.0</ele><time>2026-04-11T10:54:14Z</time></trkpt><trkpt lat="43.71517669664323" lon="12.370494534544878"><ele>368.0</ele><time>2026-04-11T10:54:15Z</time></trkpt><trkpt lat="43.71520166235689" lon="12.37066889962059"><ele>368.0</ele><time>2026-04-11T10:54:16Z</time></trkpt><trkpt lat="43.71522615010763" lon="12.37083740524566"><ele>368.0</ele><time>2026-04-11T10:54:17Z</time></trkpt><trkpt lat="43.715251434015876" lon="12.37099687799842"><ele>367.5</ele><time>2026-04-11T10:54:18Z</time></trkpt><trkpt lat="43.71527412504092" lon="12.371153585950257"><ele>367.0</ele><time>2026-04-11T10:54:19Z</time></trkpt><trkpt lat="43.71529824482481" lon="12.371303861929412"><ele>366.5</ele><time>2026-04-11T10:54:19.999Z</time></trkpt><trkpt lat="43.71532607725705" lon="12.371455506385718"><ele>366.0</ele><time>2026-04-11T10:54:20.999Z</time></trkpt><trkpt lat="43.715361873183234" lon="12.371606391325054"><ele>365.25</ele><time>2026-04-11T10:54:21.999Z</time></trkpt><trkpt lat="43.71540305789981" lon="12.371753718354384"><ele>364.5</ele><time>2026-04-11T10:54:22.999Z</time></trkpt><trkpt lat="43.71544659003517" lon="12.371897278928792"><ele>363.75</ele><time>2026-04-11T10:54:23.999Z</time></trkpt><trkpt lat="43.7154941005632" lon="12.372041791123587"><ele>363.0</ele><time>2026-04-11T10:54:24.999Z</time></trkpt><trkpt lat="43.71553956975801" lon="12.372184990583303"><ele>361.75</ele><time>2026-04-11T10:54:25.999Z</time></trkpt><trkpt lat="43.71558811494196" lon="12.3723275498374"><ele>360.5</ele><time>2026-04-11T10:54:26.999Z</time></trkpt><trkpt lat="43.71564252689457" lon="12.372472150067715"><ele>359.25</ele><time>2026-04-11T10:54:27.999Z</time></trkpt><trkpt lat="43.71569639909309" lon="12.372617313746797"><ele>358.0</ele><time>2026-04-11T10:54:28.999Z</time></trkpt><trkpt lat="43.71575122769172" lon="12.372767944746933"><ele>358.0</ele><time>2026-04-11T10:54:29.999Z</time></trkpt><trkpt lat="43.715810193193796" lon="12.372917309592744"><ele>358.0</ele><time>2026-04-11T10:54:30.999Z</time></trkpt><trkpt lat="43.7158662383986" lon="12.373068900000337"><ele>358.0</ele><time>2026-04-11T10:54:31.999Z</time></trkpt><trkpt lat="43.71592052160859" lon="12.37322154309137"><ele>358.0</ele><time>2026-04-11T10:54:32.999Z</time></trkpt><trkpt lat="43.71597538973196" lon="12.373372613350837"><ele>357.25</ele><time>2026-04-11T10:54:33.999Z</time></trkpt><trkpt lat="43.71602886369876" lon="12.3735225027905"><ele>356.5</ele><time>2026-04-11T10:54:34.999Z</time></trkpt><trkpt lat="43.716083207465566" lon="12.37366859604562"><ele>355.75</ele><time>2026-04-11T10:54:35.999Z</time></trkpt><trkpt lat="43.71613415885731" lon="12.373816794224307"><ele>355.0</ele><time>2026-04-11T10:54:36.999Z</time></trkpt><trkpt lat="43.71618457769296" lon="12.373961131231546"><ele>354.75</ele><time>2026-04-11T10:54:37.999Z</time></trkpt><trkpt lat="43.71623361334264" lon="12.374104411317168"><ele>354.5</ele><time>2026-04-11T10:54:38.999Z</time></trkpt><trkpt lat="43.71628318253435" lon="12.374249058899297"><ele>354.25</ele><time>2026-04-11T10:54:39.999Z</time></trkpt><trkpt lat="43.71633445175503" lon="12.374392525952807"><ele>354.0</ele><time>2026-04-11T10:54:40.999Z</time></trkpt><trkpt lat="43.71638735924362" lon="12.374531506443272"><ele>354.0</ele><time>2026-04-11T10:54:41.999Z</time></trkpt><trkpt lat="43.716440620682846" lon="12.374667674781653"><ele>354.0</ele><time>2026-04-11T10:54:42.999Z</time></trkpt><trkpt lat="43.71649191406028" lon="12.374798151473149"><ele>354.0</ele><time>2026-04-11T10:54:43.999Z</time></trkpt><trkpt lat="43.71653667916142" lon="12.374922130803649"><ele>354.0</ele><time>2026-04-11T10:54:44.999Z</time></trkpt><trkpt lat="43.71657436490824" lon="12.375033305140834"><ele>354.0</ele><time>2026-04-11T10:54:45.999Z</time></trkpt><trkpt lat="43.71660650005302" lon="12.375132820719614"><ele>353.1666666666667</ele><time>2026-04-11T10:54:46.999Z</time></trkpt><trkpt lat="43.7166354302462" lon="12.375224298099502"><ele>352.3333333333333</ele><time>2026-04-11T10:54:47.999Z</time></trkpt><trkpt lat="43.7166857495772" lon="12.37536921461998"><ele>351.5</ele><time>2026-04-11T10:54:49.999Z</time></trkpt><trkpt lat="43.71672062149588" lon="12.375481124262539"><ele>350.66666666666663</ele><time>2026-04-11T10:54:51.999Z</time></trkpt><trkpt lat="43.71674694787314" lon="12.37556962811253"><ele>349.8333333333333</ele><time>2026-04-11T10:54:53.999Z</time></trkpt><trkpt lat="43.71675443749157" lon="12.375659808834694"><ele>349.0</ele><time>2026-04-11T10:54:56.999Z</time></trkpt><trkpt lat="43.71676877614699" lon="12.375758401856636"><ele>349.5</ele><time>2026-04-11T10:55:15.999Z</time></trkpt><trkpt lat="43.71678469020797" lon="12.375900726099797"><ele>350.0</ele><time>2026-04-11T10:55:17.999Z</time></trkpt><trkpt lat="43.71679985049778" lon="12.376045400034183"><ele>350.5</ele><time>2026-04-11T10:55:19.999Z</time></trkpt><trkpt lat="43.71699804252794" lon="12.376042084665574"><ele>351.0</ele><time>2026-04-11T10:55:21.999Z</time></trkpt><trkpt lat="43.717075686187556" lon="12.375991776216306"><ele>351.0</ele><time>2026-04-11T10:55:22.999Z</time></trkpt><trkpt lat="43.717148718066696" lon="12.375933393609717"><ele>351.0</ele><time>2026-04-11T10:55:23.999Z</time></trkpt><trkpt lat="43.71722542857714" lon="12.375883988629642"><ele>351.0</ele><time>2026-04-11T10:55:24.999Z</time></trkpt><trkpt lat="43.717303328203776" lon="12.375826161534622"><ele>351.0</ele><time>2026-04-11T10:55:25.999Z</time></trkpt><trkpt lat="43.71738425754762" lon="12.375768857619368"><ele>351.0</ele><time>2026-04-11T10:55:26.999Z</time></trkpt><trkpt lat="43.71747077348044" lon="12.375709848490544"><ele>351.0</ele><time>2026-04-11T10:55:27.999Z</time></trkpt><trkpt lat="43.71756124414713" lon="12.375650696927352"><ele>351.0</ele><time>2026-04-11T10:55:28.999Z</time></trkpt><trkpt lat="43.71765187880459" lon="12.37558668278026"><ele>351.0</ele><time>2026-04-11T10:55:29.999Z</time></trkpt><trkpt lat="43.717740475617084" lon="12.375524669341708"><ele>351.0</ele><time>2026-04-11T10:55:30.999Z</time></trkpt><trkpt lat="43.71781938497925" lon="12.375471050767988"><ele>351.0</ele><time>2026-04-11T10:55:31.999Z</time></trkpt><trkpt lat="43.717896356261775" lon="12.375424541919752"><ele>351.0</ele><time>2026-04-11T10:55:32.999Z</time></trkpt><trkpt lat="43.717972358982664" lon="12.37536931331041"><ele>352.1666666666667</ele><time>2026-04-11T10:55:33.999Z</time></trkpt><trkpt lat="43.718049784414745" lon="12.37530933013561"><ele>353.3333333333333</ele><time>2026-04-11T10:55:34.999Z</time></trkpt><trkpt lat="43.71812739840406" lon="12.37525531576034"><ele>354.5</ele><time>2026-04-11T10:55:35.999Z</time></trkpt><trkpt lat="43.71819918649841" lon="12.375213151818867"><ele>355.66666666666663</ele><time>2026-04-11T10:55:36.999Z</time></trkpt><trkpt lat="43.71826819214776" lon="12.375179046276383"><ele>356.8333333333333</ele><time>2026-04-11T10:55:37.999Z</time></trkpt><trkpt lat="43.71834096314854" lon="12.375129422592186"><ele>358.0</ele><time>2026-04-11T10:55:38.999Z</time></trkpt><trkpt lat="43.718415172051735" lon="12.375077894546969"><ele>358.0</ele><time>2026-04-11T10:55:39.998Z</time></trkpt><trkpt lat="43.71849032188207" lon="12.37502551786979"><ele>358.0</ele><time>2026-04-11T10:55:40.998Z</time></trkpt><trkpt lat="43.718570108682385" lon="12.37497459561725"><ele>358.0</ele><time>2026-04-11T10:55:41.998Z</time></trkpt><trkpt lat="43.71865159745599" lon="12.37492245265089"><ele>358.0</ele><time>2026-04-11T10:55:43Z</time></trkpt><trkpt lat="43.7187378500675" lon="12.374870298518513"><ele>358.0</ele><time>2026-04-11T10:55:44Z</time></trkpt><trkpt lat="43.71882660573812" lon="12.374817076115402"><ele>358.79999999999995</ele><time>2026-04-11T10:55:45Z</time></trkpt><trkpt lat="43.71891987508067" lon="12.374766093913589"><ele>359.6</ele><time>2026-04-11T10:55:46Z</time></trkpt><trkpt lat="43.71901104212626" lon="12.374704924259937"><ele>360.4</ele><time>2026-04-11T10:55:47Z</time></trkpt><trkpt lat="43.719109810154336" lon="12.374648017876677"><ele>361.20000000000005</ele><time>2026-04-11T10:55:48Z</time></trkpt><trkpt lat="43.7192103289146" lon="12.37459743902914"><ele>362.0</ele><time>2026-04-11T10:55:49Z</time></trkpt><trkpt lat="43.71931194973051" lon="12.374536239692398"><ele>362.75</ele><time>2026-04-11T10:55:50Z</time></trkpt><trkpt lat="43.71941567749329" lon="12.374466840430813"><ele>363.5</ele><time>2026-04-11T10:55:51Z</time></trkpt><trkpt lat="43.71952288081095" lon="12.374397194409468"><ele>364.25</ele><time>2026-04-11T10:55:52Z</time></trkpt><trkpt lat="43.719632170612485" lon="12.374327125712659"><ele>365.0</ele><time>2026-04-11T10:55:53Z</time></trkpt><trkpt lat="43.71974464822327" lon="12.374268173775071"><ele>365.0</ele><time>2026-04-11T10:55:54Z</time></trkpt><trkpt lat="43.71986161737521" lon="12.374209105502603"><ele>365.0</ele><time>2026-04-11T10:55:55Z</time></trkpt><trkpt lat="43.71998223585561" lon="12.374161691931723"><ele>365.0</ele><time>2026-04-11T10:55:56Z</time></trkpt><trkpt lat="43.7201042722745" lon="12.374121319152822"><ele>365.0</ele><time>2026-04-11T10:55:57Z</time></trkpt><trkpt lat="43.7202349038664" lon="12.374095027332386"><ele>365.5</ele><time>2026-04-11T10:55:58Z</time></trkpt><trkpt lat="43.72036378745101" lon="12.37407279716369"><ele>366.0</ele><time>2026-04-11T10:55:59Z</time></trkpt><trkpt lat="43.720496179697946" lon="12.374064993491157"><ele>366.5</ele><time>2026-04-11T10:56:00Z</time></trkpt><trkpt lat="43.72062867822387" lon="12.374048541202843"><ele>367.0</ele><time>2026-04-11T10:56:01Z</time></trkpt><trkpt lat="43.72076546389056" lon="12.374028861563678"><ele>367.0</ele><time>2026-04-11T10:56:02Z</time></trkpt><trkpt lat="43.72090494675579" lon="12.374020145170777"><ele>367.0</ele><time>2026-04-11T10:56:03Z</time></trkpt><trkpt lat="43.7210468268558" lon="12.374006703531732"><ele>367.0</ele><time>2026-04-11T10:56:04Z</time></trkpt><trkpt lat="43.72118436804107" lon="12.373985043691317"><ele>367.0</ele><time>2026-04-11T10:56:05Z</time></trkpt><trkpt lat="43.72131928888076" lon="12.373961054216315"><ele>366.75</ele><time>2026-04-11T10:56:06Z</time></trkpt><trkpt lat="43.7214528989771" lon="12.373940516410942"><ele>366.5</ele><time>2026-04-11T10:56:07Z</time></trkpt><trkpt lat="43.72157786429192" lon="12.373920404600353"><ele>366.25</ele><time>2026-04-11T10:56:08Z</time></trkpt><trkpt lat="43.72170440086379" lon="12.373891023383875"><ele>366.0</ele><time>2026-04-11T10:56:09Z</time></trkpt><trkpt lat="43.72183092999204" lon="12.37386623751899"><ele>367.75</ele><time>2026-04-11T10:56:10Z</time></trkpt><trkpt lat="43.721963560342054" lon="12.373840594389494"><ele>369.5</ele><time>2026-04-11T10:56:11Z</time></trkpt><trkpt lat="43.722096171395265" lon="12.373814550624543"><ele>371.25</ele><time>2026-04-11T10:56:12Z</time></trkpt><trkpt lat="43.72223414527709" lon="12.373791988339518"><ele>373.0</ele><time>2026-04-11T10:56:13Z</time></trkpt><trkpt lat="43.722372582268626" lon="12.373765428467511"><ele>373.0</ele><time>2026-04-11T10:56:14Z</time></trkpt><trkpt lat="43.72251258692175" lon="12.373725824357408"><ele>373.0</ele><time>2026-04-11T10:56:15Z</time></trkpt><trkpt lat="43.722660936437855" lon="12.373712715477543"><ele>373.0</ele><time>2026-04-11T10:56:16Z</time></trkpt><trkpt lat="43.72280449801204" lon="12.373644518253675"><ele>373.0</ele><time>2026-04-11T10:56:17Z</time></trkpt><trkpt lat="43.72295278491641" lon="12.373601109026954"><ele>373.25</ele><time>2026-04-11T10:56:18Z</time></trkpt><trkpt lat="43.72310293254796" lon="12.37355449459337"><ele>373.5</ele><time>2026-04-11T10:56:19Z</time></trkpt><trkpt lat="43.72325161875449" lon="12.373512571974853"><ele>373.75</ele><time>2026-04-11T10:56:20Z</time></trkpt><trkpt lat="43.72339116070157" lon="12.373477558624714"><ele>374.0</ele><time>2026-04-11T10:56:21Z</time></trkpt><trkpt lat="43.72352366181712" lon="12.373444463504086"><ele>374.75</ele><time>2026-04-11T10:56:22Z</time></trkpt><trkpt lat="43.723654511585536" lon="12.37342012571986"><ele>375.5</ele><time>2026-04-11T10:56:23Z</time></trkpt><trkpt lat="43.72378121094116" lon="12.373394810988467"><ele>376.25</ele><time>2026-04-11T10:56:24Z</time></trkpt><trkpt lat="43.72390971823451" lon="12.373368392788132"><ele>377.0</ele><time>2026-04-11T10:56:25Z</time></trkpt><trkpt lat="43.72403528085727" lon="12.373345448352376"><ele>377.0</ele><time>2026-04-11T10:56:26Z</time></trkpt><trkpt lat="43.72414892754882" lon="12.373320206272151"><ele>377.0</ele><time>2026-04-11T10:56:27Z</time></trkpt><trkpt lat="43.72426166011288" lon="12.373295509912383"><ele>377.0</ele><time>2026-04-11T10:56:28Z</time></trkpt><trkpt lat="43.72437262652163" lon="12.373266407910654"><ele>377.0</ele><time>2026-04-11T10:56:29Z</time></trkpt><trkpt lat="43.724474363848486" lon="12.373234396900603"><ele>377.0</ele><time>2026-04-11T10:56:30Z</time></trkpt><trkpt lat="43.72457148506622" lon="12.373200755589188"><ele>376.5</ele><time>2026-04-11T10:56:30.999Z</time></trkpt><trkpt lat="43.72465457985096" lon="12.373165396958223"><ele>376.0</ele><time>2026-04-11T10:56:31.999Z</time></trkpt><trkpt lat="43.72472668493315" lon="12.373130494689677"><ele>375.5</ele><time>2026-04-11T10:56:32.999Z</time></trkpt><trkpt lat="43.724793736878965" lon="12.373096207620776"><ele>375.0</ele><time>2026-04-11T10:56:33.999Z</time></trkpt><trkpt lat="43.72490103253913" lon="12.373043602877026"><ele>374.5</ele><time>2026-04-11T10:56:35.999Z</time></trkpt><trkpt lat="43.724979775167895" lon="12.372995570760441"><ele>374.0</ele><time>2026-04-11T10:56:37.999Z</time></trkpt><trkpt lat="43.72505623532319" lon="12.372951176334514"><ele>376.79999999999995</ele><time>2026-04-11T10:56:39.999Z</time></trkpt><trkpt lat="43.725128129544544" lon="12.372918286424914"><ele>379.59999999999997</ele><time>2026-04-11T10:56:42.999Z</time></trkpt><trkpt lat="43.725204113017114" lon="12.37287962841411"><ele>382.4</ele><time>2026-04-11T10:56:46.999Z</time></trkpt><trkpt lat="43.72512327055967" lon="12.372863111854594"><ele>385.2</ele><time>2026-04-11T10:57:39.999Z</time></trkpt><trkpt lat="43.72503231516947" lon="12.372932863657093"><ele>388.0</ele><time>2026-04-11T10:57:41.999Z</time></trkpt><trkpt lat="43.724919900859895" lon="12.373005472623927"><ele>385.2</ele><time>2026-04-11T10:57:43.999Z</time></trkpt><trkpt lat="43.72480237816057" lon="12.373066844614048"><ele>382.4</ele><time>2026-04-11T10:57:45.999Z</time></trkpt><trkpt lat="43.72473681738456" lon="12.373105626881033"><ele>379.59999999999997</ele><time>2026-04-11T10:57:46.999Z</time></trkpt><trkpt lat="43.72466411742486" lon="12.373144085669987"><ele>376.79999999999995</ele><time>2026-04-11T10:57:47.999Z</time></trkpt><trkpt lat="43.72458326805141" lon="12.373183673332022"><ele>374.0</ele><time>2026-04-11T10:57:49Z</time></trkpt><trkpt lat="43.72449386218628" lon="12.373215890891077"><ele>374.0</ele><time>2026-04-11T10:57:50Z</time></trkpt><trkpt lat="43.72440064555642" lon="12.373246317090194"><ele>374.0</ele><time>2026-04-11T10:57:51Z</time></trkpt><trkpt lat="43.72430127439149" lon="12.373276396721566"><ele>374.0</ele><time>2026-04-11T10:57:52Z</time></trkpt><trkpt lat="43.7241994087452" lon="12.373303930906962"><ele>374.0</ele><time>2026-04-11T10:57:53Z</time></trkpt><trkpt lat="43.72409844908212" lon="12.37332932582843"><ele>374.0</ele><time>2026-04-11T10:57:54Z</time></trkpt><trkpt lat="43.72399495223715" lon="12.373351230541417"><ele>374.0</ele><time>2026-04-11T10:57:55Z</time></trkpt><trkpt lat="43.72389194335692" lon="12.373368431079824"><ele>374.0</ele><time>2026-04-11T10:57:56Z</time></trkpt><trkpt lat="43.72378553402599" lon="12.37339026146209"><ele>374.0</ele><time>2026-04-11T10:57:57Z</time></trkpt><trkpt lat="43.72367889720893" lon="12.37341578703905"><ele>374.0</ele><time>2026-04-11T10:57:58Z</time></trkpt><trkpt lat="43.72357302191066" lon="12.373441330835067"><ele>374.0</ele><time>2026-04-11T10:57:59Z</time></trkpt><trkpt lat="43.723460778357136" lon="12.37342408180105"><ele>374.0</ele><time>2026-04-11T10:58:00Z</time></trkpt><trkpt lat="43.7233522165709" lon="12.373454022053922"><ele>374.0</ele><time>2026-04-11T10:58:01Z</time></trkpt><trkpt lat="43.72324640493965" lon="12.373483203678505"><ele>374.0</ele><time>2026-04-11T10:58:02Z</time></trkpt><trkpt lat="43.72314437098438" lon="12.373512747155162"><ele>374.0</ele><time>2026-04-11T10:58:03Z</time></trkpt><trkpt lat="43.723044207316356" lon="12.373543496209013"><ele>374.0</ele><time>2026-04-11T10:58:04Z</time></trkpt><trkpt lat="43.72294784655864" lon="12.373573077884723"><ele>374.0</ele><time>2026-04-11T10:58:05Z</time></trkpt><trkpt lat="43.722856481500514" lon="12.373624386787613"><ele>374.0</ele><time>2026-04-11T10:58:06Z</time></trkpt><trkpt lat="43.722764006177286" lon="12.37365373107517"><ele>374.0</ele><time>2026-04-11T10:58:07Z</time></trkpt><trkpt lat="43.72267161415444" lon="12.373677011515992"><ele>374.0</ele><time>2026-04-11T10:58:08Z</time></trkpt><trkpt lat="43.72258145380438" lon="12.37369421788306"><ele>374.0</ele><time>2026-04-11T10:58:09Z</time></trkpt><trkpt lat="43.72248953346414" lon="12.373717107435496"><ele>373.83333333333337</ele><time>2026-04-11T10:58:10Z</time></trkpt><trkpt lat="43.722401497756" lon="12.373737942131983"><ele>373.6666666666667</ele><time>2026-04-11T10:58:11Z</time></trkpt><trkpt lat="43.72231227688697" lon="12.37376231866493"><ele>373.5</ele><time>2026-04-11T10:58:12Z</time></trkpt><trkpt lat="43.722224490407754" lon="12.37377736674452"><ele>373.3333333333333</ele><time>2026-04-11T10:58:13Z</time></trkpt><trkpt lat="43.722138008942025" lon="12.373789086936892"><ele>373.16666666666663</ele><time>2026-04-11T10:58:14Z</time></trkpt><trkpt lat="43.72205292976405" lon="12.373804574563623"><ele>373.0</ele><time>2026-04-11T10:58:15Z</time></trkpt><trkpt lat="43.72196868223434" lon="12.37381806129061"><ele>372.8333333333333</ele><time>2026-04-11T10:58:16Z</time></trkpt><trkpt lat="43.72188624562582" lon="12.373832838075012"><ele>372.66666666666663</ele><time>2026-04-11T10:58:17Z</time></trkpt><trkpt lat="43.72180576020409" lon="12.373844963514776"><ele>372.5</ele><time>2026-04-11T10:58:18Z</time></trkpt><trkpt lat="43.7217269168768" lon="12.373863079915488"><ele>372.3333333333333</ele><time>2026-04-11T10:58:19Z</time></trkpt><trkpt lat="43.72164958529799" lon="12.373885673463501"><ele>372.1666666666667</ele><time>2026-04-11T10:58:20Z</time></trkpt><trkpt lat="43.72157494688374" lon="12.373903570270352"><ele>372.0</ele><time>2026-04-11T10:58:21Z</time></trkpt><trkpt lat="43.72151267323889" lon="12.373917201130403"><ele>371.0</ele><time>2026-04-11T10:58:22Z</time></trkpt><trkpt lat="43.72140028784423" lon="12.37391438638992"><ele>370.0</ele><time>2026-04-11T10:58:24Z</time></trkpt><trkpt lat="43.7212654924457" lon="12.373937417604152"><ele>369.0</ele><time>2026-04-11T10:58:26Z</time></trkpt><trkpt lat="43.721191898856716" lon="12.37394988266593"><ele>368.0</ele><time>2026-04-11T10:58:27Z</time></trkpt><trkpt lat="43.72110975509751" lon="12.373961736328798"><ele>367.0</ele><time>2026-04-11T10:58:28Z</time></trkpt><trkpt lat="43.72101857403382" lon="12.373974488695067"><ele>367.0</ele><time>2026-04-11T10:58:29Z</time></trkpt><trkpt lat="43.72091825321835" lon="12.373986902556332"><ele>367.0</ele><time>2026-04-11T10:58:30Z</time></trkpt><trkpt lat="43.72080807263412" lon="12.374000536477526"><ele>367.0</ele><time>2026-04-11T10:58:31Z</time></trkpt><trkpt lat="43.720686313496735" lon="12.374013217199296"><ele>367.0</ele><time>2026-04-11T10:58:32Z</time></trkpt><trkpt lat="43.72055956907545" lon="12.374026243981522"><ele>367.0</ele><time>2026-04-11T10:58:33Z</time></trkpt><trkpt lat="43.720435964873076" lon="12.374038280103743"><ele>367.0</ele><time>2026-04-11T10:58:34Z</time></trkpt><trkpt lat="43.7203078644289" lon="12.374051883545292"><ele>367.0</ele><time>2026-04-11T10:58:35Z</time></trkpt><trkpt lat="43.720177244781546" lon="12.374075069034719"><ele>367.0</ele><time>2026-04-11T10:58:36Z</time></trkpt><trkpt lat="43.72004954542078" lon="12.37412890698982"><ele>366.5</ele><time>2026-04-11T10:58:37Z</time></trkpt><trkpt lat="43.71991978206056" lon="12.374176777565024"><ele>366.0</ele><time>2026-04-11T10:58:38Z</time></trkpt><trkpt lat="43.71979077869425" lon="12.374208031372982"><ele>365.5</ele><time>2026-04-11T10:58:38.999Z</time></trkpt><trkpt lat="43.71966962412752" lon="12.374269183982499"><ele>365.0</ele><time>2026-04-11T10:58:39.999Z</time></trkpt><trkpt lat="43.71955309666239" lon="12.374336550008385"><ele>365.0</ele><time>2026-04-11T10:58:40.999Z</time></trkpt><trkpt lat="43.719439992449544" lon="12.374404836682487"><ele>365.0</ele><time>2026-04-11T10:58:41.999Z</time></trkpt><trkpt lat="43.719330152209004" lon="12.374469835500703"><ele>365.0</ele><time>2026-04-11T10:58:42.999Z</time></trkpt><trkpt lat="43.71921615633099" lon="12.374537186078587"><ele>365.0</ele><time>2026-04-11T10:58:43.999Z</time></trkpt><trkpt lat="43.71911269035137" lon="12.374598314075273"><ele>365.0</ele><time>2026-04-11T10:58:44.999Z</time></trkpt><trkpt lat="43.71900873415581" lon="12.37465973155155"><ele>365.0</ele><time>2026-04-11T10:58:45.999Z</time></trkpt><trkpt lat="43.71890450925155" lon="12.374721305650931"><ele>365.0</ele><time>2026-04-11T10:58:46.999Z</time></trkpt><trkpt lat="43.718799574963064" lon="12.374787667858428"><ele>365.0</ele><time>2026-04-11T10:58:47.999Z</time></trkpt><trkpt lat="43.718694611961" lon="12.374852424494847"><ele>365.0</ele><time>2026-04-11T10:58:48.999Z</time></trkpt><trkpt lat="43.71859132426977" lon="12.374916147497904"><ele>365.0</ele><time>2026-04-11T10:58:49.999Z</time></trkpt><trkpt lat="43.718487628280336" lon="12.374981069362127"><ele>365.0</ele><time>2026-04-11T10:58:50.999Z</time></trkpt><trkpt lat="43.7183874312505" lon="12.375044772489003"><ele>365.0</ele><time>2026-04-11T10:58:51.999Z</time></trkpt><trkpt lat="43.71829371819862" lon="12.375104353315747"><ele>365.0</ele><time>2026-04-11T10:58:52.999Z</time></trkpt><trkpt lat="43.71820420328881" lon="12.37516126505856"><ele>363.6</ele><time>2026-04-11T10:58:53.999Z</time></trkpt><trkpt lat="43.718117645582005" lon="12.375216296469711"><ele>362.2</ele><time>2026-04-11T10:58:54.999Z</time></trkpt><trkpt lat="43.718030633925586" lon="12.375273308676517"><ele>360.79999999999995</ele><time>2026-04-11T10:58:55.999Z</time></trkpt><trkpt lat="43.717944534738805" lon="12.375329717271299"><ele>359.4</ele><time>2026-04-11T10:58:56.999Z</time></trkpt><trkpt lat="43.717858204101084" lon="12.37538701344437"><ele>358.0</ele><time>2026-04-11T10:58:57.999Z</time></trkpt><trkpt lat="43.71777167437431" lon="12.375446598555383"><ele>356.8333333333333</ele><time>2026-04-11T10:58:58.999Z</time></trkpt><trkpt lat="43.717687731282005" lon="12.375504402521335"><ele>355.66666666666663</ele><time>2026-04-11T10:58:59.999Z</time></trkpt><trkpt lat="43.71761145612782" lon="12.375557525714942"><ele>354.5</ele><time>2026-04-11T10:59:00.999Z</time></trkpt><trkpt lat="43.7175436009725" lon="12.375604999541089"><ele>353.3333333333333</ele><time>2026-04-11T10:59:01.999Z</time></trkpt><trkpt lat="43.71748405180677" lon="12.375646661577996"><ele>352.1666666666667</ele><time>2026-04-11T10:59:02.999Z</time></trkpt><trkpt lat="43.71742355859704" lon="12.37568666573007"><ele>351.0</ele><time>2026-04-11T10:59:03.999Z</time></trkpt><trkpt lat="43.71736877902801" lon="12.37574792596955"><ele>351.00000000000006</ele><time>2026-04-11T10:59:04.999Z</time></trkpt><trkpt lat="43.71730082058967" lon="12.375763975070601"><ele>351.0</ele><time>2026-04-11T10:59:05.999Z</time></trkpt><trkpt lat="43.71723776418989" lon="12.375802373242603"><ele>351.0</ele><time>2026-04-11T10:59:06.999Z</time></trkpt><trkpt lat="43.71717928782547" lon="12.375837983394872"><ele>351.0</ele><time>2026-04-11T10:59:07.999Z</time></trkpt><trkpt lat="43.71708233929995" lon="12.375901698774351"><ele>351.0</ele><time>2026-04-11T10:59:09.999Z</time></trkpt><trkpt lat="43.717027149766764" lon="12.375961776481718"><ele>351.00000000000006</ele><time>2026-04-11T10:59:11.999Z</time></trkpt><trkpt lat="43.716964151266396" lon="12.375941521694156"><ele>351.0</ele><time>2026-04-11T10:59:16.999Z</time></trkpt><trkpt lat="43.71702346847755" lon="12.37590851215628"><ele>351.0</ele><time>2026-04-11T10:59:27.999Z</time></trkpt><trkpt lat="43.717130320930075" lon="12.375878363606589"><ele>351.0</ele><time>2026-04-11T10:59:30.999Z</time></trkpt><trkpt lat="43.717237828839686" lon="12.375819629500253"><ele>351.0</ele><time>2026-04-11T10:59:32.999Z</time></trkpt><trkpt lat="43.71736450621526" lon="12.375748813056626"><ele>351.0</ele><time>2026-04-11T10:59:33.999Z</time></trkpt><trkpt lat="43.71742809128057" lon="12.375709770893062"><ele>351.0</ele><time>2026-04-11T10:59:34.999Z</time></trkpt><trkpt lat="43.71749471045608" lon="12.375659891216484"><ele>351.0</ele><time>2026-04-11T10:59:35.999Z</time></trkpt><trkpt lat="43.717564858287545" lon="12.37560957831795"><ele>351.0</ele><time>2026-04-11T10:59:36.999Z</time></trkpt><trkpt lat="43.71763503384338" lon="12.375563455030258"><ele>351.0</ele><time>2026-04-11T10:59:37.999Z</time></trkpt><trkpt lat="43.71769879645294" lon="12.375519505718195"><ele>351.0</ele><time>2026-04-11T10:59:38.999Z</time></trkpt><trkpt lat="43.717769037062126" lon="12.375470874698648"><ele>351.0</ele><time>2026-04-11T10:59:39.999Z</time></trkpt><trkpt lat="43.71784425036855" lon="12.37542114841153"><ele>351.0</ele><time>2026-04-11T10:59:40.999Z</time></trkpt><trkpt lat="43.71792204982555" lon="12.375375564104203"><ele>352.1666666666667</ele><time>2026-04-11T10:59:41.999Z</time></trkpt><trkpt lat="43.717991926961275" lon="12.37532588500742"><ele>353.3333333333333</ele><time>2026-04-11T10:59:42.999Z</time></trkpt><trkpt lat="43.71806801818937" lon="12.375274665920513"><ele>354.5</ele><time>2026-04-11T10:59:43.999Z</time></trkpt><trkpt lat="43.7181431904135" lon="12.375223161905053"><ele>355.66666666666663</ele><time>2026-04-11T10:59:44.999Z</time></trkpt><trkpt lat="43.71821923979988" lon="12.375169905425864"><ele>356.8333333333333</ele><time>2026-04-11T10:59:45.999Z</time></trkpt><trkpt lat="43.71829829355453" lon="12.375128266868096"><ele>358.0</ele><time>2026-04-11T10:59:46.999Z</time></trkpt><trkpt lat="43.71837705160941" lon="12.375085576529033"><ele>358.0</ele><time>2026-04-11T10:59:47.999Z</time></trkpt><trkpt lat="43.718457214988206" lon="12.375041261271617"><ele>358.0</ele><time>2026-04-11T10:59:48.999Z</time></trkpt><trkpt lat="43.71854194503367" lon="12.374995792118913"><ele>358.0</ele><time>2026-04-11T10:59:49.999Z</time></trkpt><trkpt lat="43.718628030486144" lon="12.374947018644649"><ele>358.0</ele><time>2026-04-11T10:59:50.999Z</time></trkpt><trkpt lat="43.71871607836844" lon="12.374897024960044"><ele>358.0</ele><time>2026-04-11T10:59:51.999Z</time></trkpt><trkpt lat="43.71879505237716" lon="12.374847476250837"><ele>358.79999999999995</ele><time>2026-04-11T10:59:52.999Z</time></trkpt><trkpt lat="43.718877278970986" lon="12.374797218052025"><ele>359.6</ele><time>2026-04-11T10:59:53.999Z</time></trkpt><trkpt lat="43.71896062730592" lon="12.374743972770796"><ele>360.4</ele><time>2026-04-11T10:59:55Z</time></trkpt><trkpt lat="43.719046322294126" lon="12.374693798005504"><ele>361.20000000000005</ele><time>2026-04-11T10:59:56Z</time></trkpt><trkpt lat="43.71913565476462" lon="12.374639245577146"><ele>362.0</ele><time>2026-04-11T10:59:57Z</time></trkpt><trkpt lat="43.71922922801091" lon="12.374582254005206"><ele>362.0</ele><time>2026-04-11T10:59:58Z</time></trkpt><trkpt lat="43.71932700022952" lon="12.37452187359681"><ele>362.0</ele><time>2026-04-11T10:59:59Z</time></trkpt><trkpt lat="43.71942652283104" lon="12.374458414458061"><ele>362.0</ele><time>2026-04-11T11:00:00Z</time></trkpt><trkpt lat="43.71952705747326" lon="12.374395808361381"><ele>362.0</ele><time>2026-04-11T11:00:01Z</time></trkpt><trkpt lat="43.71962904891017" lon="12.374333303538759"><ele>362.0</ele><time>2026-04-11T11:00:02Z</time></trkpt><trkpt lat="43.71973415629602" lon="12.3742773441026"><ele>362.75</ele><time>2026-04-11T11:00:03Z</time></trkpt><trkpt lat="43.71984172153831" lon="12.374220239590061"><ele>363.5</ele><time>2026-04-11T11:00:04Z</time></trkpt><trkpt lat="43.71995536880498" lon="12.374180850491218"><ele>364.25</ele><time>2026-04-11T11:00:05Z</time></trkpt><trkpt lat="43.72007283115592" lon="12.374140298769303"><ele>365.0</ele><time>2026-04-11T11:00:06Z</time></trkpt><trkpt lat="43.7201996658156" lon="12.374111246121164"><ele>365.5</ele><time>2026-04-11T11:00:07Z</time></trkpt><trkpt lat="43.72033495738387" lon="12.374097444906683"><ele>366.0</ele><time>2026-04-11T11:00:08Z</time></trkpt><trkpt lat="43.720475224975225" lon="12.374083066631197"><ele>366.5</ele><time>2026-04-11T11:00:09Z</time></trkpt><trkpt lat="43.72061784272272" lon="12.374067184305998"><ele>367.0</ele><time>2026-04-11T11:00:10Z</time></trkpt><trkpt lat="43.72076911145897" lon="12.374058170984034"><ele>367.0</ele><time>2026-04-11T11:00:11Z</time></trkpt><trkpt lat="43.720918787819656" lon="12.374056194263416"><ele>367.0</ele><time>2026-04-11T11:00:12Z</time></trkpt><trkpt lat="43.721063264623425" lon="12.374041842942267"><ele>367.0</ele><time>2026-04-11T11:00:13Z</time></trkpt><trkpt lat="43.7212011346738" lon="12.374013680395976"><ele>367.0</ele><time>2026-04-11T11:00:14Z</time></trkpt><trkpt lat="43.721339910741435" lon="12.373989038758308"><ele>366.75</ele><time>2026-04-11T11:00:15Z</time></trkpt><trkpt lat="43.721476985734526" lon="12.373956527488813"><ele>366.5</ele><time>2026-04-11T11:00:16Z</time></trkpt><trkpt lat="43.72160501141851" lon="12.373926698362988"><ele>366.25</ele><time>2026-04-11T11:00:17Z</time></trkpt><trkpt lat="43.72173137634415" lon="12.373902111677571"><ele>366.0</ele><time>2026-04-11T11:00:18Z</time></trkpt><trkpt lat="43.721855448402565" lon="12.373879144187397"><ele>367.75</ele><time>2026-04-11T11:00:19Z</time></trkpt><trkpt lat="43.72197868199996" lon="12.373851071895988"><ele>369.5</ele><time>2026-04-11T11:00:20Z</time></trkpt><trkpt lat="43.72210493064224" lon="12.373829578805497"><ele>371.25</ele><time>2026-04-11T11:00:21Z</time></trkpt><trkpt lat="43.722231047584486" lon="12.373802859885705"><ele>373.0</ele><time>2026-04-11T11:00:22Z</time></trkpt><trkpt lat="43.72235950448369" lon="12.37378329400232"><ele>373.0</ele><time>2026-04-11T11:00:23Z</time></trkpt><trkpt lat="43.72248905369897" lon="12.373755395564343"><ele>373.0</ele><time>2026-04-11T11:00:24Z</time></trkpt><trkpt lat="43.72262032495715" lon="12.373717248648479"><ele>373.0</ele><time>2026-04-11T11:00:25Z</time></trkpt><trkpt lat="43.72275360594871" lon="12.373677322279935"><ele>373.0</ele><time>2026-04-11T11:00:26Z</time></trkpt><trkpt lat="43.722887846149796" lon="12.37363938890476"><ele>373.25</ele><time>2026-04-11T11:00:27Z</time></trkpt><trkpt lat="43.723021963546984" lon="12.37359465173645"><ele>373.5</ele><time>2026-04-11T11:00:28Z</time></trkpt><trkpt lat="43.7231603063269" lon="12.373555000632301"><ele>373.75</ele><time>2026-04-11T11:00:29Z</time></trkpt><trkpt lat="43.72329900965815" lon="12.373518603158624"><ele>374.0</ele><time>2026-04-11T11:00:30Z</time></trkpt><trkpt lat="43.723437108341344" lon="12.373484622530748"><ele>374.75</ele><time>2026-04-11T11:00:31Z</time></trkpt><trkpt lat="43.72356674370447" lon="12.373454227182567"><ele>375.5</ele><time>2026-04-11T11:00:32Z</time></trkpt><trkpt lat="43.72369127126805" lon="12.37342918989374"><ele>376.25</ele><time>2026-04-11T11:00:33Z</time></trkpt><trkpt lat="43.72381500143426" lon="12.37340914556667"><ele>377.0</ele><time>2026-04-11T11:00:34Z</time></trkpt><trkpt lat="43.723939202799" lon="12.373386377929691"><ele>377.0</ele><time>2026-04-11T11:00:35Z</time></trkpt><trkpt lat="43.72406142991761" lon="12.373362511476008"><ele>377.0</ele><time>2026-04-11T11:00:36Z</time></trkpt><trkpt lat="43.72418236717638" lon="12.373332492244515"><ele>377.0</ele><time>2026-04-11T11:00:37Z</time></trkpt><trkpt lat="43.72430023024329" lon="12.373306000656385"><ele>377.0</ele><time>2026-04-11T11:00:38Z</time></trkpt><trkpt lat="43.724418021919554" lon="12.37326889157125"><ele>376.25</ele><time>2026-04-11T11:00:39Z</time></trkpt><trkpt lat="43.72453451079099" lon="12.373223447937294"><ele>375.5</ele><time>2026-04-11T11:00:40Z</time></trkpt><trkpt lat="43.72464807958533" lon="12.373172597056268"><ele>374.75</ele><time>2026-04-11T11:00:41Z</time></trkpt><trkpt lat="43.72476014765166" lon="12.3731221613787"><ele>374.0</ele><time>2026-04-11T11:00:42Z</time></trkpt><trkpt lat="43.72486847348855" lon="12.373065424822457"><ele>375.6</ele><time>2026-04-11T11:00:43Z</time></trkpt><trkpt lat="43.72497288228063" lon="12.373004010484415"><ele>377.2</ele><time>2026-04-11T11:00:44Z</time></trkpt><trkpt lat="43.72507633752812" lon="12.372944983021519"><ele>378.8</ele><time>2026-04-11T11:00:45Z</time></trkpt><trkpt lat="43.72517653228751" lon="12.372879366969954"><ele>380.40000000000003</ele><time>2026-04-11T11:00:46Z</time></trkpt><trkpt lat="43.725262023091545" lon="12.372806621163186"><ele>382.0</ele><time>2026-04-11T11:00:47Z</time></trkpt><trkpt lat="43.72534655064594" lon="12.372718709035471"><ele>382.0</ele><time>2026-04-11T11:00:48Z</time></trkpt><trkpt lat="43.72542086110048" lon="12.372614421561368"><ele>382.0</ele><time>2026-04-11T11:00:49Z</time></trkpt><trkpt lat="43.72549049779502" lon="12.372504397668916"><ele>382.0</ele><time>2026-04-11T11:00:50Z</time></trkpt><trkpt lat="43.72555334537386" lon="12.372386688815103"><ele>382.0</ele><time>2026-04-11T11:00:51Z</time></trkpt><trkpt lat="43.72561591298516" lon="12.372262176490018"><ele>382.0</ele><time>2026-04-11T11:00:51.999Z</time></trkpt><trkpt lat="43.725683242046614" lon="12.37214274978541"><ele>384.20000000000005</ele><time>2026-04-11T11:00:52.999Z</time></trkpt><trkpt lat="43.72575232758212" lon="12.372026344411843"><ele>386.4</ele><time>2026-04-11T11:00:53.999Z</time></trkpt><trkpt lat="43.72582070914253" lon="12.371908003229617"><ele>388.6</ele><time>2026-04-11T11:00:54.999Z</time></trkpt><trkpt lat="43.72589137093739" lon="12.37179564201918"><ele>390.79999999999995</ele><time>2026-04-11T11:00:55.999Z</time></trkpt><trkpt lat="43.725958134891805" lon="12.371678912534316"><ele>393.0</ele><time>2026-04-11T11:00:56.999Z</time></trkpt><trkpt lat="43.72601770581849" lon="12.371560967494935"><ele>393.79999999999995</ele><time>2026-04-11T11:00:57.999Z</time></trkpt><trkpt lat="43.72607743746724" lon="12.371447051204083"><ele>394.6</ele><time>2026-04-11T11:00:58.999Z</time></trkpt><trkpt lat="43.72614051857771" lon="12.371334796743135"><ele>395.4</ele><time>2026-04-11T11:00:59.999Z</time></trkpt><trkpt lat="43.72621227897282" lon="12.371225776596145"><ele>396.20000000000005</ele><time>2026-04-11T11:01:00.999Z</time></trkpt><trkpt lat="43.72629099254537" lon="12.371122706625307"><ele>397.0</ele><time>2026-04-11T11:01:01.999Z</time></trkpt><trkpt lat="43.72637001072579" lon="12.371030859304604"><ele>397.0</ele><time>2026-04-11T11:01:02.999Z</time></trkpt><trkpt lat="43.72646089745475" lon="12.370957187127686"><ele>397.0</ele><time>2026-04-11T11:01:03.999Z</time></trkpt><trkpt lat="43.72655781949048" lon="12.370884936869672"><ele>397.0</ele><time>2026-04-11T11:01:04.999Z</time></trkpt><trkpt lat="43.72666928455669" lon="12.370809361975372"><ele>397.0</ele><time>2026-04-11T11:01:05.999Z</time></trkpt><trkpt lat="43.72678308796159" lon="12.370733323241858"><ele>396.5</ele><time>2026-04-11T11:01:06.999Z</time></trkpt><trkpt lat="43.72689888109762" lon="12.370654055350444"><ele>396.0</ele><time>2026-04-11T11:01:07.999Z</time></trkpt><trkpt lat="43.72701174303002" lon="12.37057564020889"><ele>395.5</ele><time>2026-04-11T11:01:08.999Z</time></trkpt><trkpt lat="43.727126090258736" lon="12.370504077900073"><ele>395.0</ele><time>2026-04-11T11:01:09.999Z</time></trkpt><trkpt lat="43.7272403793615" lon="12.370438514019414"><ele>397.25</ele><time>2026-04-11T11:01:10.999Z</time></trkpt><trkpt lat="43.72735311762236" lon="12.370371584281848"><ele>399.5</ele><time>2026-04-11T11:01:11.999Z</time></trkpt><trkpt lat="43.72746437722083" lon="12.37030445818149"><ele>401.75</ele><time>2026-04-11T11:01:12.999Z</time></trkpt><trkpt lat="43.72756444242437" lon="12.370236627014107"><ele>404.0</ele><time>2026-04-11T11:01:13.999Z</time></trkpt><trkpt lat="43.72765721804553" lon="12.370168255004192"><ele>402.0</ele><time>2026-04-11T11:01:14.999Z</time></trkpt><trkpt lat="43.72774904705383" lon="12.370086781402906"><ele>400.0</ele><time>2026-04-11T11:01:15.999Z</time></trkpt><trkpt lat="43.72784069759401" lon="12.369991010232027"><ele>398.0</ele><time>2026-04-11T11:01:16.999Z</time></trkpt><trkpt lat="43.72793037719276" lon="12.369887036300371"><ele>396.0</ele><time>2026-04-11T11:01:17.999Z</time></trkpt><trkpt lat="43.72801925313869" lon="12.369776288055553"><ele>398.25</ele><time>2026-04-11T11:01:18.999Z</time></trkpt><trkpt lat="43.72811010402729" lon="12.369665285273824"><ele>400.5</ele><time>2026-04-11T11:01:19.999Z</time></trkpt><trkpt lat="43.72820291369728" lon="12.369550469730596"><ele>402.75</ele><time>2026-04-11T11:01:20.999Z</time></trkpt><trkpt lat="43.728295044181934" lon="12.369433019862589"><ele>405.0</ele><time>2026-04-11T11:01:21.999Z</time></trkpt><trkpt lat="43.72838992595235" lon="12.369322142051491"><ele>405.0</ele><time>2026-04-11T11:01:22.999Z</time></trkpt><trkpt lat="43.72847891576036" lon="12.369211411236554"><ele>405.0</ele><time>2026-04-11T11:01:23.999Z</time></trkpt><trkpt lat="43.728554259578644" lon="12.369099485717095"><ele>405.0</ele><time>2026-04-11T11:01:24.999Z</time></trkpt><trkpt lat="43.72862354012414" lon="12.36897190561058"><ele>405.0</ele><time>2026-04-11T11:01:25.999Z</time></trkpt><trkpt lat="43.72868416790271" lon="12.368824518108484"><ele>402.25</ele><time>2026-04-11T11:01:26.999Z</time></trkpt><trkpt lat="43.72873632958869" lon="12.368661819043838"><ele>399.5</ele><time>2026-04-11T11:01:27.999Z</time></trkpt><trkpt lat="43.72878174843031" lon="12.36849650771518"><ele>396.75</ele><time>2026-04-11T11:01:28.999Z</time></trkpt><trkpt lat="43.728816339981805" lon="12.368335647518716"><ele>394.0</ele><time>2026-04-11T11:01:29.999Z</time></trkpt><trkpt lat="43.72884799860085" lon="12.368169702996878"><ele>395.5</ele><time>2026-04-11T11:01:30.999Z</time></trkpt><trkpt lat="43.72887085683699" lon="12.367998375389607"><ele>397.0</ele><time>2026-04-11T11:01:31.999Z</time></trkpt><trkpt lat="43.72888200454397" lon="12.367821483274485"><ele>398.5</ele><time>2026-04-11T11:01:32.999Z</time></trkpt><trkpt lat="43.728888480882645" lon="12.367641662961823"><ele>400.0</ele><time>2026-04-11T11:01:33.999Z</time></trkpt><trkpt lat="43.728895400923705" lon="12.367458178517102"><ele>400.0</ele><time>2026-04-11T11:01:34.999Z</time></trkpt><trkpt lat="43.728902847300425" lon="12.367274564849078"><ele>400.0</ele><time>2026-04-11T11:01:35.999Z</time></trkpt><trkpt lat="43.728908894469846" lon="12.367085154158897"><ele>400.0</ele><time>2026-04-11T11:01:36.999Z</time></trkpt><trkpt lat="43.728915338415284" lon="12.366895186217109"><ele>400.0</ele><time>2026-04-11T11:01:37.999Z</time></trkpt><trkpt lat="43.72892291851773" lon="12.3667164589269"><ele>401.5</ele><time>2026-04-11T11:01:38.999Z</time></trkpt><trkpt lat="43.728933123776194" lon="12.366544145880198"><ele>403.0</ele><time>2026-04-11T11:01:39.999Z</time></trkpt><trkpt lat="43.72894628331454" lon="12.366374939116069"><ele>404.5</ele><time>2026-04-11T11:01:40.999Z</time></trkpt><trkpt lat="43.72896088291375" lon="12.366203401643698"><ele>406.0</ele><time>2026-04-11T11:01:41.999Z</time></trkpt><trkpt lat="43.72897664421258" lon="12.36603348592151"><ele>407.5</ele><time>2026-04-11T11:01:42.999Z</time></trkpt><trkpt lat="43.728994543386165" lon="12.36586488907671"><ele>409.0</ele><time>2026-04-11T11:01:43.999Z</time></trkpt><trkpt lat="43.72901198618166" lon="12.365694025316753"><ele>410.5</ele><time>2026-04-11T11:01:44.999Z</time></trkpt><trkpt lat="43.72903792363366" lon="12.365527735091032"><ele>412.0</ele><time>2026-04-11T11:01:45.999Z</time></trkpt><trkpt lat="43.72906848622805" lon="12.36536281766344"><ele>413.25</ele><time>2026-04-11T11:01:46.999Z</time></trkpt><trkpt lat="43.729099395216444" lon="12.365194852450555"><ele>414.5</ele><time>2026-04-11T11:01:47.999Z</time></trkpt><trkpt lat="43.729123812419246" lon="12.365023779740326"><ele>415.75</ele><time>2026-04-11T11:01:48.999Z</time></trkpt><trkpt lat="43.729151325306475" lon="12.36485012484283"><ele>417.0</ele><time>2026-04-11T11:01:49.999Z</time></trkpt><trkpt lat="43.72917921931967" lon="12.36468393153546"><ele>419.0</ele><time>2026-04-11T11:01:50.999Z</time></trkpt><trkpt lat="43.729208533360755" lon="12.364525183724275"><ele>421.0</ele><time>2026-04-11T11:01:51.999Z</time></trkpt><trkpt lat="43.729243444767086" lon="12.364371079842881"><ele>423.00000000000006</ele><time>2026-04-11T11:01:52.999Z</time></trkpt><trkpt lat="43.72927808425592" lon="12.364232457792513"><ele>425.0</ele><time>2026-04-11T11:01:53.999Z</time></trkpt><trkpt lat="43.72932563089168" lon="12.364115148174504"><ele>427.0</ele><time>2026-04-11T11:01:54.999Z</time></trkpt><trkpt lat="43.729397936416945" lon="12.36401476655521"><ele>427.0</ele><time>2026-04-11T11:01:55.999Z</time></trkpt><trkpt lat="43.72949649510776" lon="12.36394131456684"><ele>427.0</ele><time>2026-04-11T11:01:56.999Z</time></trkpt><trkpt lat="43.72961699315299" lon="12.363908388523766"><ele>427.0</ele><time>2026-04-11T11:01:57.999Z</time></trkpt><trkpt lat="43.72974055634055" lon="12.363920436111535"><ele>427.0</ele><time>2026-04-11T11:01:58.999Z</time></trkpt><trkpt lat="43.72985898159504" lon="12.363963801463742"><ele>427.0</ele><time>2026-04-11T11:01:59.999Z</time></trkpt><trkpt lat="43.729972747756584" lon="12.364012891204366"><ele>427.0</ele><time>2026-04-11T11:02:01Z</time></trkpt><trkpt lat="43.73008284785072" lon="12.364064142662034"><ele>427.0</ele><time>2026-04-11T11:02:02Z</time></trkpt><trkpt lat="43.73018803044806" lon="12.364114917522453"><ele>427.0</ele><time>2026-04-11T11:02:03Z</time></trkpt><trkpt lat="43.730294653362485" lon="12.364154920520638"><ele>428.20000000000005</ele><time>2026-04-11T11:02:04Z</time></trkpt><trkpt lat="43.73040030130514" lon="12.364180029982663"><ele>429.40000000000003</ele><time>2026-04-11T11:02:05Z</time></trkpt><trkpt lat="43.73050775450808" lon="12.364174796403708"><ele>430.59999999999997</ele><time>2026-04-11T11:02:06Z</time></trkpt><trkpt lat="43.730614175514596" lon="12.364126231622777"><ele>431.79999999999995</ele><time>2026-04-11T11:02:07Z</time></trkpt><trkpt lat="43.73071516286246" lon="12.364051607003969"><ele>433.0</ele><time>2026-04-11T11:02:08Z</time></trkpt><trkpt lat="43.73080116739226" lon="12.363959647647581"><ele>433.0</ele><time>2026-04-11T11:02:09Z</time></trkpt><trkpt lat="43.73089066654018" lon="12.363870459792373"><ele>432.99999999999994</ele><time>2026-04-11T11:02:10Z</time></trkpt><trkpt lat="43.73098384610476" lon="12.363793018953475"><ele>432.99999999999994</ele><time>2026-04-11T11:02:11Z</time></trkpt><trkpt lat="43.73107245966778" lon="12.363714922959877"><ele>433.0</ele><time>2026-04-11T11:02:12Z</time></trkpt><trkpt lat="43.731150415324755" lon="12.363635024137352"><ele>433.0</ele><time>2026-04-11T11:02:13Z</time></trkpt><trkpt lat="43.731223111711415" lon="12.363554023424705"><ele>434.0</ele><time>2026-04-11T11:02:14Z</time></trkpt><trkpt lat="43.73129984249638" lon="12.363481993518443"><ele>434.99999999999994</ele><time>2026-04-11T11:02:15Z</time></trkpt><trkpt lat="43.73137778691504" lon="12.363411510591261"><ele>435.99999999999994</ele><time>2026-04-11T11:02:16Z</time></trkpt><trkpt lat="43.73145295879407" lon="12.363333431683486"><ele>437.0</ele><time>2026-04-11T11:02:17Z</time></trkpt><trkpt lat="43.731519914440554" lon="12.363243514699356"><ele>438.0</ele><time>2026-04-11T11:02:18Z</time></trkpt><trkpt lat="43.73157506303134" lon="12.363138119104805"><ele>440.2</ele><time>2026-04-11T11:02:19Z</time></trkpt><trkpt lat="43.73161420073368" lon="12.363014072372211"><ele>442.4</ele><time>2026-04-11T11:02:20Z</time></trkpt><trkpt lat="43.731629779212355" lon="12.362881155906958"><ele>444.59999999999997</ele><time>2026-04-11T11:02:21Z</time></trkpt><trkpt lat="43.73162656147224" lon="12.36274422657873"><ele>446.79999999999995</ele><time>2026-04-11T11:02:22Z</time></trkpt><trkpt lat="43.73160430176164" lon="12.362611069577225"><ele>449.0</ele><time>2026-04-11T11:02:23Z</time></trkpt><trkpt lat="43.73155767900659" lon="12.362492100367115"><ele>448.99999999999994</ele><time>2026-04-11T11:02:24Z</time></trkpt><trkpt lat="43.73150422724072" lon="12.36238002652615"><ele>449.0</ele><time>2026-04-11T11:02:25Z</time></trkpt><trkpt lat="43.731450830330836" lon="12.36228181545456"><ele>449.0</ele><time>2026-04-11T11:02:26Z</time></trkpt><trkpt lat="43.731403024998144" lon="12.362185897888253"><ele>449.0</ele><time>2026-04-11T11:02:27Z</time></trkpt><trkpt lat="43.73136235379402" lon="12.3620817371813"><ele>448.99999999999994</ele><time>2026-04-11T11:02:28Z</time></trkpt><trkpt lat="43.73133324830503" lon="12.361966297439338"><ele>449.0</ele><time>2026-04-11T11:02:29Z</time></trkpt><trkpt lat="43.73132622634776" lon="12.36184360943307"><ele>451.16666666666663</ele><time>2026-04-11T11:02:30Z</time></trkpt><trkpt lat="43.73135293457473" lon="12.36173079715037"><ele>453.3333333333333</ele><time>2026-04-11T11:02:31Z</time></trkpt><trkpt lat="43.73140804773782" lon="12.361658144891337"><ele>455.5</ele><time>2026-04-11T11:02:32Z</time></trkpt><trkpt lat="43.73147251163445" lon="12.361628902307178"><ele>457.66666666666663</ele><time>2026-04-11T11:02:33Z</time></trkpt><trkpt lat="43.73154087324741" lon="12.36161636841604"><ele>459.8333333333333</ele><time>2026-04-11T11:02:34Z</time></trkpt><trkpt lat="43.731617254310294" lon="12.361615503844899"><ele>462.0</ele><time>2026-04-11T11:02:35Z</time></trkpt><trkpt lat="43.731686011747136" lon="12.361568478140473"><ele>462.0</ele><time>2026-04-11T11:02:36Z</time></trkpt><trkpt lat="43.73175410565973" lon="12.361508267273443"><ele>462.00000000000006</ele><time>2026-04-11T11:02:37Z</time></trkpt><trkpt lat="43.73180534566221" lon="12.361401212626784"><ele>462.00000000000006</ele><time>2026-04-11T11:02:38Z</time></trkpt><trkpt lat="43.731830767398186" lon="12.361274400352514"><ele>462.0</ele><time>2026-04-11T11:02:39Z</time></trkpt><trkpt lat="43.73184371659056" lon="12.361137263035708"><ele>462.0</ele><time>2026-04-11T11:02:40Z</time></trkpt><trkpt lat="43.73184441931345" lon="12.361019390260598"><ele>464.0</ele><time>2026-04-11T11:02:41Z</time></trkpt><trkpt lat="43.73183885320924" lon="12.360899636394931"><ele>466.00000000000006</ele><time>2026-04-11T11:02:42Z</time></trkpt><trkpt lat="43.73182662544135" lon="12.36077268607848"><ele>468.00000000000006</ele><time>2026-04-11T11:02:43Z</time></trkpt><trkpt lat="43.731804625384996" lon="12.360650604533474"><ele>470.0</ele><time>2026-04-11T11:02:44Z</time></trkpt><trkpt lat="43.73176428648192" lon="12.360535702516518"><ele>472.0</ele><time>2026-04-11T11:02:45Z</time></trkpt><trkpt lat="43.731710894514876" lon="12.360433415725234"><ele>473.6666666666667</ele><time>2026-04-11T11:02:46Z</time></trkpt><trkpt lat="43.73164456929348" lon="12.360343300739617"><ele>475.33333333333337</ele><time>2026-04-11T11:02:47Z</time></trkpt><trkpt lat="43.73157194597926" lon="12.360267299637671"><ele>477.0</ele><time>2026-04-11T11:02:48Z</time></trkpt><trkpt lat="43.73150164054741" lon="12.360192755879666"><ele>478.66666666666663</ele><time>2026-04-11T11:02:49Z</time></trkpt><trkpt lat="43.73144405748314" lon="12.360126213861141"><ele>480.3333333333333</ele><time>2026-04-11T11:02:50Z</time></trkpt><trkpt lat="43.73138503164382" lon="12.360053711068382"><ele>482.0</ele><time>2026-04-11T11:02:51Z</time></trkpt><trkpt lat="43.731324887097195" lon="12.359987437409075"><ele>481.99999999999994</ele><time>2026-04-11T11:02:52Z</time></trkpt><trkpt lat="43.73126565194538" lon="12.3599240390985"><ele>482.0</ele><time>2026-04-11T11:02:53Z</time></trkpt><trkpt lat="43.73121279009785" lon="12.359871917559515"><ele>482.0</ele><time>2026-04-11T11:02:54Z</time></trkpt><trkpt lat="43.731156735072695" lon="12.359805032976345"><ele>482.0</ele><time>2026-04-11T11:02:55Z</time></trkpt><trkpt lat="43.73109600362661" lon="12.359731531603826"><ele>481.99999999999994</ele><time>2026-04-11T11:02:56Z</time></trkpt><trkpt lat="43.73104196670971" lon="12.359645199137262"><ele>482.0</ele><time>2026-04-11T11:02:57Z</time></trkpt><trkpt lat="43.731006960455105" lon="12.359536439504192"><ele>482.8</ele><time>2026-04-11T11:02:58Z</time></trkpt><trkpt lat="43.731002302141334" lon="12.359411078603435"><ele>483.6</ele><time>2026-04-11T11:02:58.999Z</time></trkpt><trkpt lat="43.731026321384405" lon="12.359284859763841"><ele>484.40000000000003</ele><time>2026-04-11T11:02:59.999Z</time></trkpt><trkpt lat="43.73107686261945" lon="12.359171952344022"><ele>485.20000000000005</ele><time>2026-04-11T11:03:00.999Z</time></trkpt><trkpt lat="43.73115658513121" lon="12.359087305115548"><ele>486.0</ele><time>2026-04-11T11:03:01.999Z</time></trkpt><trkpt lat="43.73124493555091" lon="12.359026678366083"><ele>487.0</ele><time>2026-04-11T11:03:02.999Z</time></trkpt><trkpt lat="43.731329060497195" lon="12.35897866023041"><ele>488.0</ele><time>2026-04-11T11:03:03.999Z</time></trkpt><trkpt lat="43.73143742921962" lon="12.358974158624122"><ele>489.0</ele><time>2026-04-11T11:03:04.999Z</time></trkpt><trkpt lat="43.7315321614722" lon="12.35897462963149"><ele>490.0</ele><time>2026-04-11T11:03:05.999Z</time></trkpt><trkpt lat="43.73163665105251" lon="12.358958275750927"><ele>491.0</ele><time>2026-04-11T11:03:06.999Z</time></trkpt><trkpt lat="43.73173674610353" lon="12.358954856073925"><ele>491.0</ele><time>2026-04-11T11:03:07.999Z</time></trkpt><trkpt lat="43.73183731767845" lon="12.358953902624206"><ele>491.0</ele><time>2026-04-11T11:03:08.999Z</time></trkpt><trkpt lat="43.731931023232384" lon="12.358940266804037"><ele>491.0</ele><time>2026-04-11T11:03:09.999Z</time></trkpt><trkpt lat="43.732022054521245" lon="12.358904224552871"><ele>491.0</ele><time>2026-04-11T11:03:10.999Z</time></trkpt><trkpt lat="43.73211098949852" lon="12.358834152281485"><ele>491.0</ele><time>2026-04-11T11:03:11.999Z</time></trkpt><trkpt lat="43.73219015971372" lon="12.358732385987267"><ele>492.6</ele><time>2026-04-11T11:03:12.999Z</time></trkpt><trkpt lat="43.73227402166687" lon="12.358640855289552"><ele>494.20000000000005</ele><time>2026-04-11T11:03:13.999Z</time></trkpt><trkpt lat="43.73234946450432" lon="12.358524172481673"><ele>495.79999999999995</ele><time>2026-04-11T11:03:14.999Z</time></trkpt><trkpt lat="43.732435888683135" lon="12.358424402773236"><ele>497.4</ele><time>2026-04-11T11:03:15.999Z</time></trkpt><trkpt lat="43.73253135213183" lon="12.358341086370993"><ele>499.0</ele><time>2026-04-11T11:03:16.999Z</time></trkpt><trkpt lat="43.73262375989971" lon="12.358276590848154"><ele>499.00000000000006</ele><time>2026-04-11T11:03:17.999Z</time></trkpt><trkpt lat="43.732707687511066" lon="12.358224632484987"><ele>499.0</ele><time>2026-04-11T11:03:18.999Z</time></trkpt><trkpt lat="43.73279082216773" lon="12.358183176075917"><ele>499.0</ele><time>2026-04-11T11:03:19.999Z</time></trkpt><trkpt lat="43.732869503595175" lon="12.358127160118118"><ele>499.0</ele><time>2026-04-11T11:03:20.999Z</time></trkpt><trkpt lat="43.7329478663661" lon="12.358048817763544"><ele>499.00000000000006</ele><time>2026-04-11T11:03:21.999Z</time></trkpt><trkpt lat="43.733012452320864" lon="12.358005295962391"><ele>499.0</ele><time>2026-04-11T11:03:22.999Z</time></trkpt><trkpt lat="43.73308077804" lon="12.357918183247884"><ele>501.4</ele><time>2026-04-11T11:03:23.999Z</time></trkpt><trkpt lat="43.733146078728566" lon="12.357816893900901"><ele>503.79999999999995</ele><time>2026-04-11T11:03:24.999Z</time></trkpt><trkpt lat="43.733223792166484" lon="12.357693235002916"><ele>506.20000000000005</ele><time>2026-04-11T11:03:25.999Z</time></trkpt><trkpt lat="43.733280968021745" lon="12.35760151486185"><ele>508.6</ele><time>2026-04-11T11:03:26.999Z</time></trkpt><trkpt lat="43.733349297942326" lon="12.35751329806651"><ele>511.0</ele><time>2026-04-11T11:03:27.999Z</time></trkpt><trkpt lat="43.733425919337336" lon="12.357427225742827"><ele>511.0</ele><time>2026-04-11T11:03:28.999Z</time></trkpt><trkpt lat="43.73351357606091" lon="12.357352507485421"><ele>511.0</ele><time>2026-04-11T11:03:29.999Z</time></trkpt><trkpt lat="43.73360951639397" lon="12.357293072384259"><ele>511.0</ele><time>2026-04-11T11:03:30.999Z</time></trkpt><trkpt lat="43.733709865559916" lon="12.357243306538843"><ele>511.0</ele><time>2026-04-11T11:03:31.999Z</time></trkpt><trkpt lat="43.73381298641446" lon="12.357190758748798"><ele>511.0</ele><time>2026-04-11T11:03:32.999Z</time></trkpt><trkpt lat="43.73392186911144" lon="12.35712955833164"><ele>512.0</ele><time>2026-04-11T11:03:33.999Z</time></trkpt><trkpt lat="43.7340326420299" lon="12.357076800926281"><ele>513.0</ele><time>2026-04-11T11:03:34.999Z</time></trkpt><trkpt lat="43.73412203570353" lon="12.35699657064458"><ele>514.0</ele><time>2026-04-11T11:03:35.999Z</time></trkpt><trkpt lat="43.73422154343305" lon="12.356944781496829"><ele>515.0</ele><time>2026-04-11T11:03:36.999Z</time></trkpt><trkpt lat="43.734305111647345" lon="12.35684797843792"><ele>516.0</ele><time>2026-04-11T11:03:37.999Z</time></trkpt><trkpt lat="43.73438260538584" lon="12.356729973477703"><ele>516.25</ele><time>2026-04-11T11:03:38.999Z</time></trkpt><trkpt lat="43.7344458603489" lon="12.35659496686369"><ele>516.5</ele><time>2026-04-11T11:03:39.999Z</time></trkpt><trkpt lat="43.73450109338267" lon="12.356446029054528"><ele>516.75</ele><time>2026-04-11T11:03:40.999Z</time></trkpt><trkpt lat="43.734559519967014" lon="12.356297044107283"><ele>517.0</ele><time>2026-04-11T11:03:41.999Z</time></trkpt><trkpt lat="43.734614001649085" lon="12.356143596923586"><ele>517.0</ele><time>2026-04-11T11:03:42.999Z</time></trkpt><trkpt lat="43.73466678737345" lon="12.355984266031975"><ele>517.0</ele><time>2026-04-11T11:03:43.999Z</time></trkpt><trkpt lat="43.73472281521494" lon="12.355824331625676"><ele>517.0</ele><time>2026-04-11T11:03:44.999Z</time></trkpt><trkpt lat="43.73478331683033" lon="12.355670684841517"><ele>517.0</ele><time>2026-04-11T11:03:45.999Z</time></trkpt><trkpt lat="43.734841865515875" lon="12.35552063966666"><ele>518.5</ele><time>2026-04-11T11:03:46.999Z</time></trkpt><trkpt lat="43.73490696768723" lon="12.355379275540646"><ele>520.0</ele><time>2026-04-11T11:03:47.999Z</time></trkpt><trkpt lat="43.734979420264594" lon="12.355256778106863"><ele>521.5</ele><time>2026-04-11T11:03:48.999Z</time></trkpt><trkpt lat="43.735073782596494" lon="12.355171633193612"><ele>523.0</ele><time>2026-04-11T11:03:49.999Z</time></trkpt><trkpt lat="43.73517364317696" lon="12.355104368615967"><ele>523.25</ele><time>2026-04-11T11:03:50.999Z</time></trkpt><trkpt lat="43.73527984539943" lon="12.355042537156264"><ele>523.5</ele><time>2026-04-11T11:03:51.999Z</time></trkpt><trkpt lat="43.73538432384409" lon="12.354962462325268"><ele>523.75</ele><time>2026-04-11T11:03:52.999Z</time></trkpt><trkpt lat="43.7354987306823" lon="12.354923732203282"><ele>524.0</ele><time>2026-04-11T11:03:53.999Z</time></trkpt><trkpt lat="43.735601123262036" lon="12.354854391761261"><ele>524.0</ele><time>2026-04-11T11:03:54.999Z</time></trkpt><trkpt lat="43.735704405131834" lon="12.35477033107458"><ele>524.0</ele><time>2026-04-11T11:03:55.999Z</time></trkpt><trkpt lat="43.73581016189039" lon="12.354697289820017"><ele>524.0</ele><time>2026-04-11T11:03:56.999Z</time></trkpt><trkpt lat="43.73591961418209" lon="12.354627637645915"><ele>524.0</ele><time>2026-04-11T11:03:57.999Z</time></trkpt><trkpt lat="43.73603651613668" lon="12.354580952566948"><ele>528.5</ele><time>2026-04-11T11:03:58.999Z</time></trkpt><trkpt lat="43.73616538695477" lon="12.35457897961863"><ele>533.0</ele><time>2026-04-11T11:03:59.999Z</time></trkpt><trkpt lat="43.736296466090955" lon="12.354623723771606"><ele>537.5</ele><time>2026-04-11T11:04:00.999Z</time></trkpt><trkpt lat="43.736403569459284" lon="12.354724564028494"><ele>542.0</ele><time>2026-04-11T11:04:01.999Z</time></trkpt><trkpt lat="43.73647094842364" lon="12.354891856939814"><ele>542.0</ele><time>2026-04-11T11:04:02.999Z</time></trkpt><trkpt lat="43.7365079792989" lon="12.355069801713357"><ele>542.0</ele><time>2026-04-11T11:04:03.999Z</time></trkpt><trkpt lat="43.73654183616058" lon="12.355250067099389"><ele>542.0</ele><time>2026-04-11T11:04:04.999Z</time></trkpt><trkpt lat="43.73657132230536" lon="12.355426399582624"><ele>542.0</ele><time>2026-04-11T11:04:05.999Z</time></trkpt><trkpt lat="43.73659866174821" lon="12.355589894406224"><ele>541.0</ele><time>2026-04-11T11:04:07Z</time></trkpt><trkpt lat="43.7366224450666" lon="12.355732122969016"><ele>540.0</ele><time>2026-04-11T11:04:08Z</time></trkpt><trkpt lat="43.73664485112043" lon="12.355866115238005"><ele>539.0</ele><time>2026-04-11T11:04:09Z</time></trkpt><trkpt lat="43.736669350440806" lon="12.35600526036168"><ele>538.0</ele><time>2026-04-11T11:04:10Z</time></trkpt><trkpt lat="43.736711741116665" lon="12.356145225321814"><ele>537.0</ele><time>2026-04-11T11:04:11Z</time></trkpt><trkpt lat="43.73674430723247" lon="12.356295378746905"><ele>537.75</ele><time>2026-04-11T11:04:12Z</time></trkpt><trkpt lat="43.736806378481106" lon="12.356431384991112"><ele>538.5</ele><time>2026-04-11T11:04:13Z</time></trkpt><trkpt lat="43.736891839323256" lon="12.356541499204512"><ele>539.25</ele><time>2026-04-11T11:04:14Z</time></trkpt><trkpt lat="43.7369995581063" lon="12.356621897633572"><ele>540.0</ele><time>2026-04-11T11:04:15Z</time></trkpt><trkpt lat="43.737117316809396" lon="12.356637966129567"><ele>540.0</ele><time>2026-04-11T11:04:16Z</time></trkpt><trkpt lat="43.73722698629572" lon="12.356671725574762"><ele>540.0</ele><time>2026-04-11T11:04:17Z</time></trkpt><trkpt lat="43.73734376206036" lon="12.356674690152767"><ele>540.0</ele><time>2026-04-11T11:04:18Z</time></trkpt><trkpt lat="43.737458811756554" lon="12.356639296327815"><ele>540.0</ele><time>2026-04-11T11:04:19Z</time></trkpt><trkpt lat="43.73757458627721" lon="12.356603480990792"><ele>540.0</ele><time>2026-04-11T11:04:20Z</time></trkpt><trkpt lat="43.73770158643665" lon="12.356574785782646"><ele>540.0</ele><time>2026-04-11T11:04:21Z</time></trkpt><trkpt lat="43.73781921832241" lon="12.356526065520088"><ele>540.0</ele><time>2026-04-11T11:04:22Z</time></trkpt><trkpt lat="43.73794225888493" lon="12.356487894770604"><ele>540.0</ele><time>2026-04-11T11:04:23Z</time></trkpt><trkpt lat="43.73806592348201" lon="12.356443730802452"><ele>540.75</ele><time>2026-04-11T11:04:24Z</time></trkpt><trkpt lat="43.738192330522345" lon="12.356427077601543"><ele>541.5</ele><time>2026-04-11T11:04:25Z</time></trkpt><trkpt lat="43.73830736047368" lon="12.356420365973467"><ele>542.25</ele><time>2026-04-11T11:04:26Z</time></trkpt><trkpt lat="43.73841361340944" lon="12.3564010635614"><ele>543.0</ele><time>2026-04-11T11:04:27Z</time></trkpt><trkpt lat="43.73851589873555" lon="12.356350102260052"><ele>545.1999999999999</ele><time>2026-04-11T11:04:28Z</time></trkpt><trkpt lat="43.73859295151914" lon="12.356237460490192"><ele>547.4</ele><time>2026-04-11T11:04:29Z</time></trkpt><trkpt lat="43.738623388075176" lon="12.35610324223761"><ele>549.5999999999999</ele><time>2026-04-11T11:04:30Z</time></trkpt><trkpt lat="43.738632449876995" lon="12.35598209888762"><ele>551.8</ele><time>2026-04-11T11:04:31Z</time></trkpt><trkpt lat="43.738583815087566" lon="12.355847676020648"><ele>554.0</ele><time>2026-04-11T11:04:32Z</time></trkpt><trkpt lat="43.738519964269706" lon="12.35574933144584"><ele>554.0</ele><time>2026-04-11T11:04:33Z</time></trkpt><trkpt lat="43.73844763825312" lon="12.355679755092883"><ele>554.0</ele><time>2026-04-11T11:04:34Z</time></trkpt><trkpt lat="43.738357885775784" lon="12.35562360348573"><ele>554.0</ele><time>2026-04-11T11:04:35Z</time></trkpt><trkpt lat="43.738269863732235" lon="12.355583766658603"><ele>554.0</ele><time>2026-04-11T11:04:36Z</time></trkpt><trkpt lat="43.738180174377014" lon="12.355543508102564"><ele>554.0</ele><time>2026-04-11T11:04:37Z</time></trkpt><trkpt lat="43.738089928034434" lon="12.355494360209352"><ele>555.4</ele><time>2026-04-11T11:04:38Z</time></trkpt><trkpt lat="43.7379982643972" lon="12.355438261873779"><ele>556.8</ele><time>2026-04-11T11:04:39Z</time></trkpt><trkpt lat="43.737914579631216" lon="12.355381015258981"><ele>558.2</ele><time>2026-04-11T11:04:40Z</time></trkpt><trkpt lat="43.73782669814951" lon="12.355325303400496"><ele>559.6</ele><time>2026-04-11T11:04:41Z</time></trkpt><trkpt lat="43.73777008553059" lon="12.355234180426937"><ele>561.0</ele><time>2026-04-11T11:04:42Z</time></trkpt><trkpt lat="43.73774885586515" lon="12.355112139107856"><ele>561.0</ele><time>2026-04-11T11:04:43Z</time></trkpt><trkpt lat="43.73775343741907" lon="12.354988149405987"><ele>561.0</ele><time>2026-04-11T11:04:44Z</time></trkpt><trkpt lat="43.737788169588285" lon="12.354868358118043"><ele>561.0</ele><time>2026-04-11T11:04:45Z</time></trkpt><trkpt lat="43.73783617501425" lon="12.35476831911287"><ele>561.0</ele><time>2026-04-11T11:04:46Z</time></trkpt><trkpt lat="43.73791008686796" lon="12.354697566853439"><ele>561.0</ele><time>2026-04-11T11:04:47Z</time></trkpt><trkpt lat="43.7379949935248" lon="12.354642321935419"><ele>562.2</ele><time>2026-04-11T11:04:48Z</time></trkpt><trkpt lat="43.738080271937505" lon="12.354593638970135"><ele>563.4000000000001</ele><time>2026-04-11T11:04:49Z</time></trkpt><trkpt lat="43.738161484182726" lon="12.35453789666611"><ele>564.6</ele><time>2026-04-11T11:04:50Z</time></trkpt><trkpt lat="43.738247888534374" lon="12.354482723660825"><ele>565.8000000000001</ele><time>2026-04-11T11:04:51Z</time></trkpt><trkpt lat="43.73833950572675" lon="12.354420099871069"><ele>567.0</ele><time>2026-04-11T11:04:52Z</time></trkpt><trkpt lat="43.73842510157176" lon="12.354364840119615"><ele>567.0</ele><time>2026-04-11T11:04:53Z</time></trkpt><trkpt lat="43.73850538055568" lon="12.354306805049974"><ele>567.0</ele><time>2026-04-11T11:04:54Z</time></trkpt><trkpt lat="43.73858465597224" lon="12.35424884721531"><ele>567.0</ele><time>2026-04-11T11:04:55Z</time></trkpt><trkpt lat="43.73866676567643" lon="12.354185114384292"><ele>567.0</ele><time>2026-04-11T11:04:56Z</time></trkpt><trkpt lat="43.738742070179214" lon="12.354099172900927"><ele>567.0</ele><time>2026-04-11T11:04:57Z</time></trkpt><trkpt lat="43.73879131889838" lon="12.353974210363486"><ele>569.0</ele><time>2026-04-11T11:04:58Z</time></trkpt><trkpt lat="43.7387949354497" lon="12.353814071770303"><ele>571.0</ele><time>2026-04-11T11:04:59Z</time></trkpt><trkpt lat="43.73875268914018" lon="12.353669396105838"><ele>573.0</ele><time>2026-04-11T11:05:00Z</time></trkpt><trkpt lat="43.73867544368376" lon="12.353578687533718"><ele>575.0</ele><time>2026-04-11T11:05:01Z</time></trkpt><trkpt lat="43.73858643685719" lon="12.353502269634733"><ele>577.0</ele><time>2026-04-11T11:05:02Z</time></trkpt><trkpt lat="43.73848118875589" lon="12.353441359339692"><ele>577.0</ele><time>2026-04-11T11:05:03Z</time></trkpt><trkpt lat="43.7383815670364" lon="12.35339333928819"><ele>577.0</ele><time>2026-04-11T11:05:04Z</time></trkpt><trkpt lat="43.73828438520596" lon="12.353336438913338"><ele>577.0</ele><time>2026-04-11T11:05:05Z</time></trkpt><trkpt lat="43.73818491423657" lon="12.35326296335778"><ele>577.0</ele><time>2026-04-11T11:05:06Z</time></trkpt><trkpt lat="43.738101954571015" lon="12.353166696546216"><ele>577.0</ele><time>2026-04-11T11:05:07Z</time></trkpt><trkpt lat="43.73803352228618" lon="12.35304911364307"><ele>579.2</ele><time>2026-04-11T11:05:08Z</time></trkpt><trkpt lat="43.73796918230607" lon="12.352921587155848"><ele>581.4000000000001</ele><time>2026-04-11T11:05:08.999Z</time></trkpt><trkpt lat="43.7379489738314" lon="12.352773772206705"><ele>583.5999999999999</ele><time>2026-04-11T11:05:09.999Z</time></trkpt><trkpt lat="43.73795882909449" lon="12.352617280477153"><ele>585.8</ele><time>2026-04-11T11:05:10.999Z</time></trkpt><trkpt lat="43.737997271891906" lon="12.35247455595078"><ele>588.0</ele><time>2026-04-11T11:05:11.999Z</time></trkpt><trkpt lat="43.7380575998919" lon="12.352344153350916"><ele>588.0</ele><time>2026-04-11T11:05:12.999Z</time></trkpt><trkpt lat="43.738130768331814" lon="12.352246760795854"><ele>588.0</ele><time>2026-04-11T11:05:13.999Z</time></trkpt><trkpt lat="43.738224960353236" lon="12.352177106701184"><ele>588.0</ele><time>2026-04-11T11:05:14.999Z</time></trkpt><trkpt lat="43.73832343791596" lon="12.352113321486286"><ele>588.0</ele><time>2026-04-11T11:05:15.999Z</time></trkpt><trkpt lat="43.73841887550592" lon="12.352058432232033"><ele>588.0</ele><time>2026-04-11T11:05:16.999Z</time></trkpt><trkpt lat="43.73852199119247" lon="12.352001105845346"><ele>588.8</ele><time>2026-04-11T11:05:17.999Z</time></trkpt><trkpt lat="43.73862513386858" lon="12.351948861945827"><ele>589.5999999999999</ele><time>2026-04-11T11:05:18.999Z</time></trkpt><trkpt lat="43.73872498518075" lon="12.35189145317012"><ele>590.4000000000001</ele><time>2026-04-11T11:05:19.999Z</time></trkpt><trkpt lat="43.73882210775021" lon="12.351829508313903"><ele>591.2</ele><time>2026-04-11T11:05:20.999Z</time></trkpt><trkpt lat="43.738920564859775" lon="12.35177216607032"><ele>592.0</ele><time>2026-04-11T11:05:21.999Z</time></trkpt><trkpt lat="43.739020890121445" lon="12.351730897643606"><ele>592.0</ele><time>2026-04-11T11:05:22.999Z</time></trkpt><trkpt lat="43.73913317457799" lon="12.35171699557708"><ele>592.0</ele><time>2026-04-11T11:05:23.999Z</time></trkpt><trkpt lat="43.7392523191004" lon="12.351745280712624"><ele>592.0</ele><time>2026-04-11T11:05:24.999Z</time></trkpt><trkpt lat="43.73935731014797" lon="12.351846240845815"><ele>592.0</ele><time>2026-04-11T11:05:25.999Z</time></trkpt><trkpt lat="43.739462913767746" lon="12.351960708832836"><ele>592.75</ele><time>2026-04-11T11:05:26.999Z</time></trkpt><trkpt lat="43.73958069007588" lon="12.352059661614868"><ele>593.5</ele><time>2026-04-11T11:05:27.999Z</time></trkpt><trkpt lat="43.73968675463337" lon="12.35218745874468"><ele>594.25</ele><time>2026-04-11T11:05:28.999Z</time></trkpt><trkpt lat="43.739784924230264" lon="12.352305905592692"><ele>595.0</ele><time>2026-04-11T11:05:29.999Z</time></trkpt><trkpt lat="43.73984438144322" lon="12.352463051243744"><ele>595.0</ele><time>2026-04-11T11:05:30.999Z</time></trkpt><trkpt lat="43.739915082678976" lon="12.35261373085563"><ele>595.0</ele><time>2026-04-11T11:05:31.999Z</time></trkpt><trkpt lat="43.7399268411096" lon="12.352788899167885"><ele>595.0</ele><time>2026-04-11T11:05:32.999Z</time></trkpt><trkpt lat="43.739956079699255" lon="12.352948077307406"><ele>595.0</ele><time>2026-04-11T11:05:33.999Z</time></trkpt><trkpt lat="43.73999195062978" lon="12.353097613115686"><ele>593.75</ele><time>2026-04-11T11:05:34.999Z</time></trkpt><trkpt lat="43.74003592116583" lon="12.353244768314523"><ele>592.5</ele><time>2026-04-11T11:05:35.999Z</time></trkpt><trkpt lat="43.740109311102316" lon="12.353369222160849"><ele>591.25</ele><time>2026-04-11T11:05:36.999Z</time></trkpt><trkpt lat="43.74019086638376" lon="12.353480347409235"><ele>590.0</ele><time>2026-04-11T11:05:37.999Z</time></trkpt><trkpt lat="43.740291975516" lon="12.353562852131914"><ele>592.5</ele><time>2026-04-11T11:05:38.999Z</time></trkpt><trkpt lat="43.74040142515072" lon="12.353623582160582"><ele>595.0</ele><time>2026-04-11T11:05:39.999Z</time></trkpt><trkpt lat="43.74051644997127" lon="12.353678047701683"><ele>597.5</ele><time>2026-04-11T11:05:40.999Z</time></trkpt><trkpt lat="43.740632893821484" lon="12.353727868647987"><ele>600.0</ele><time>2026-04-11T11:05:41.999Z</time></trkpt><trkpt lat="43.74075335472185" lon="12.353781205781882"><ele>600.0</ele><time>2026-04-11T11:05:42.999Z</time></trkpt><trkpt lat="43.740872009157286" lon="12.353827090267119"><ele>600.0</ele><time>2026-04-11T11:05:43.999Z</time></trkpt><trkpt lat="43.74099002035876" lon="12.353868069148145"><ele>600.0</ele><time>2026-04-11T11:05:44.999Z</time></trkpt><trkpt lat="43.74110407997474" lon="12.353912958226237"><ele>600.0</ele><time>2026-04-11T11:05:45.999Z</time></trkpt><trkpt lat="43.74122142261945" lon="12.353957393626894"><ele>600.5</ele><time>2026-04-11T11:05:46.999Z</time></trkpt><trkpt lat="43.7413381078314" lon="12.353995820651027"><ele>601.0</ele><time>2026-04-11T11:05:47.999Z</time></trkpt><trkpt lat="43.74145616597099" lon="12.35404012154398"><ele>601.5</ele><time>2026-04-11T11:05:48.999Z</time></trkpt><trkpt lat="43.74157560429571" lon="12.354080519982821"><ele>602.0</ele><time>2026-04-11T11:05:49.999Z</time></trkpt><trkpt lat="43.741692608064945" lon="12.354124292558256"><ele>602.0</ele><time>2026-04-11T11:05:50.999Z</time></trkpt><trkpt lat="43.74180064603175" lon="12.354168058912334"><ele>602.0</ele><time>2026-04-11T11:05:51.999Z</time></trkpt><trkpt lat="43.741905624887885" lon="12.354211858829188"><ele>602.0</ele><time>2026-04-11T11:05:52.999Z</time></trkpt><trkpt lat="43.74200796320655" lon="12.354250661865422"><ele>602.0</ele><time>2026-04-11T11:05:53.999Z</time></trkpt><trkpt lat="43.74210614166577" lon="12.35428817160365"><ele>602.0</ele><time>2026-04-11T11:05:54.999Z</time></trkpt><trkpt lat="43.742206646021685" lon="12.354325913607578"><ele>603.4</ele><time>2026-04-11T11:05:55.999Z</time></trkpt><trkpt lat="43.7423107730171" lon="12.354361245789224"><ele>604.8000000000001</ele><time>2026-04-11T11:05:56.999Z</time></trkpt><trkpt lat="43.742415731554516" lon="12.354396671292958"><ele>606.2</ele><time>2026-04-11T11:05:57.999Z</time></trkpt><trkpt lat="43.742523373768115" lon="12.354422998340699"><ele>607.6</ele><time>2026-04-11T11:05:58.999Z</time></trkpt><trkpt lat="43.74263546888733" lon="12.354424335560324"><ele>609.0</ele><time>2026-04-11T11:05:59.999Z</time></trkpt><trkpt lat="43.74274883338137" lon="12.354392557865644"><ele>609.0</ele><time>2026-04-11T11:06:00.999Z</time></trkpt><trkpt lat="43.74285546009395" lon="12.354332393887537"><ele>609.0</ele><time>2026-04-11T11:06:01.999Z</time></trkpt><trkpt lat="43.74295689534228" lon="12.354249117446042"><ele>609.0</ele><time>2026-04-11T11:06:02.999Z</time></trkpt><trkpt lat="43.74305302047726" lon="12.354148628396693"><ele>609.0</ele><time>2026-04-11T11:06:03.999Z</time></trkpt><trkpt lat="43.743141607087736" lon="12.354036454228998"><ele>609.0</ele><time>2026-04-11T11:06:04.999Z</time></trkpt><trkpt lat="43.743227568840005" lon="12.353917322028867"><ele>609.0</ele><time>2026-04-11T11:06:05.999Z</time></trkpt><trkpt lat="43.74331490370297" lon="12.353796189941322"><ele>609.0</ele><time>2026-04-11T11:06:06.999Z</time></trkpt><trkpt lat="43.74340272287089" lon="12.35367302643465"><ele>609.0</ele><time>2026-04-11T11:06:07.999Z</time></trkpt><trkpt lat="43.743484847457296" lon="12.353548296474097"><ele>610.0</ele><time>2026-04-11T11:06:08.999Z</time></trkpt><trkpt lat="43.74356506985791" lon="12.353427819910587"><ele>611.0</ele><time>2026-04-11T11:06:09.999Z</time></trkpt><trkpt lat="43.743645660864246" lon="12.353308106833438"><ele>612.0</ele><time>2026-04-11T11:06:10.999Z</time></trkpt><trkpt lat="43.74372633028087" lon="12.353191366861852"><ele>613.0</ele><time>2026-04-11T11:06:11.999Z</time></trkpt><trkpt lat="43.74380617808416" lon="12.353073720117461"><ele>615.0</ele><time>2026-04-11T11:06:13Z</time></trkpt><trkpt lat="43.743884953746594" lon="12.352958208828305"><ele>617.0</ele><time>2026-04-11T11:06:14Z</time></trkpt><trkpt lat="43.743962755621205" lon="12.352841953175739"><ele>619.0</ele><time>2026-04-11T11:06:15Z</time></trkpt><trkpt lat="43.74404251191899" lon="12.352731060322485"><ele>621.0</ele><time>2026-04-11T11:06:16Z</time></trkpt><trkpt lat="43.74412079508157" lon="12.35262242346024"><ele>621.0</ele><time>2026-04-11T11:06:17Z</time></trkpt><trkpt lat="43.74419608148836" lon="12.352504489053546"><ele>621.0</ele><time>2026-04-11T11:06:18Z</time></trkpt><trkpt lat="43.74427252916388" lon="12.352390321493052"><ele>621.0</ele><time>2026-04-11T11:06:19Z</time></trkpt><trkpt lat="43.74435403430403" lon="12.352277379899784"><ele>621.0</ele><time>2026-04-11T11:06:20Z</time></trkpt><trkpt lat="43.744434777457045" lon="12.352163901062882"><ele>621.75</ele><time>2026-04-11T11:06:21Z</time></trkpt><trkpt lat="43.74451269104768" lon="12.352046943516209"><ele>622.5</ele><time>2026-04-11T11:06:22Z</time></trkpt><trkpt lat="43.74459233585246" lon="12.351930745544712"><ele>623.25</ele><time>2026-04-11T11:06:23Z</time></trkpt><trkpt lat="43.744671229106046" lon="12.351812787519325"><ele>624.0</ele><time>2026-04-11T11:06:24Z</time></trkpt><trkpt lat="43.744751240428506" lon="12.351693291520121"><ele>624.0</ele><time>2026-04-11T11:06:25Z</time></trkpt><trkpt lat="43.74483318494471" lon="12.351573652805202"><ele>624.0</ele><time>2026-04-11T11:06:26Z</time></trkpt><trkpt lat="43.744917723136155" lon="12.351455080561957"><ele>624.0</ele><time>2026-04-11T11:06:27Z</time></trkpt><trkpt lat="43.74499982928365" lon="12.351331853499731"><ele>624.0</ele><time>2026-04-11T11:06:28Z</time></trkpt><trkpt lat="43.745084471838354" lon="12.351212235253712"><ele>625.0</ele><time>2026-04-11T11:06:29Z</time></trkpt><trkpt lat="43.74517130710872" lon="12.351095149737256"><ele>626.0</ele><time>2026-04-11T11:06:30Z</time></trkpt><trkpt lat="43.74525504341615" lon="12.35097551184723"><ele>627.0</ele><time>2026-04-11T11:06:31Z</time></trkpt><trkpt lat="43.74533306005792" lon="12.350862213019605"><ele>628.0</ele><time>2026-04-11T11:06:32Z</time></trkpt><trkpt lat="43.74541465747083" lon="12.350754639240785"><ele>628.0</ele><time>2026-04-11T11:06:33Z</time></trkpt><trkpt lat="43.74549220499091" lon="12.350647567173517"><ele>628.0</ele><time>2026-04-11T11:06:34Z</time></trkpt><trkpt lat="43.74557206548064" lon="12.350536095656965"><ele>628.0</ele><time>2026-04-11T11:06:35Z</time></trkpt><trkpt lat="43.74565206373931" lon="12.350422089468013"><ele>628.0</ele><time>2026-04-11T11:06:36Z</time></trkpt><trkpt lat="43.74573193549252" lon="12.350307321094057"><ele>629.25</ele><time>2026-04-11T11:06:37Z</time></trkpt><trkpt lat="43.7458080050826" lon="12.350185513771775"><ele>630.5</ele><time>2026-04-11T11:06:38Z</time></trkpt><trkpt lat="43.74587745955997" lon="12.350054433918485"><ele>631.75</ele><time>2026-04-11T11:06:39Z</time></trkpt><trkpt lat="43.74595081223006" lon="12.349919103138749"><ele>633.0</ele><time>2026-04-11T11:06:40Z</time></trkpt><trkpt lat="43.74602370466404" lon="12.349789839092024"><ele>635.5</ele><time>2026-04-11T11:06:41Z</time></trkpt><trkpt lat="43.746086148624215" lon="12.349647900600091"><ele>638.0</ele><time>2026-04-11T11:06:42Z</time></trkpt><trkpt lat="43.746170138858055" lon="12.349536688961035"><ele>640.5</ele><time>2026-04-11T11:06:43Z</time></trkpt><trkpt lat="43.74627042663458" lon="12.349456847426215"><ele>643.0</ele><time>2026-04-11T11:06:44Z</time></trkpt><trkpt lat="43.74636195540907" lon="12.349357964494759"><ele>643.0</ele><time>2026-04-11T11:06:45Z</time></trkpt><trkpt lat="43.74646765180257" lon="12.349298709685064"><ele>643.0</ele><time>2026-04-11T11:06:46Z</time></trkpt><trkpt lat="43.74658144689846" lon="12.349281498467505"><ele>643.0</ele><time>2026-04-11T11:06:47Z</time></trkpt><trkpt lat="43.746677024630664" lon="12.3492544609885"><ele>643.0</ele><time>2026-04-11T11:06:48Z</time></trkpt><trkpt lat="43.74677405990294" lon="12.349234757436726"><ele>643.0</ele><time>2026-04-11T11:06:49Z</time></trkpt><trkpt lat="43.74686875628762" lon="12.349230869252953"><ele>645.6666666666667</ele><time>2026-04-11T11:06:50Z</time></trkpt><trkpt lat="43.74696087268326" lon="12.349243990007503"><ele>648.3333333333334</ele><time>2026-04-11T11:06:51Z</time></trkpt><trkpt lat="43.74705015277131" lon="12.349269464332899"><ele>651.0</ele><time>2026-04-11T11:06:52Z</time></trkpt><trkpt lat="43.74713345011763" lon="12.349306414996986"><ele>653.6666666666666</ele><time>2026-04-11T11:06:53Z</time></trkpt><trkpt lat="43.74720117400111" lon="12.349348904637283"><ele>656.3333333333333</ele><time>2026-04-11T11:06:54Z</time></trkpt><trkpt lat="43.747272613499035" lon="12.34939922864479"><ele>659.0</ele><time>2026-04-11T11:06:55Z</time></trkpt><trkpt lat="43.747348284293196" lon="12.34944630003549"><ele>659.0</ele><time>2026-04-11T11:06:56Z</time></trkpt><trkpt lat="43.74742830334368" lon="12.349494078829824"><ele>659.0</ele><time>2026-04-11T11:06:57Z</time></trkpt><trkpt lat="43.747504476458566" lon="12.349546996242093"><ele>659.0</ele><time>2026-04-11T11:06:58Z</time></trkpt><trkpt lat="43.74757474787999" lon="12.349602810868111"><ele>659.0</ele><time>2026-04-11T11:06:59Z</time></trkpt><trkpt lat="43.74764492719007" lon="12.34966194774963"><ele>659.0</ele><time>2026-04-11T11:07:00Z</time></trkpt><trkpt lat="43.74771660236339" lon="12.349714480287886"><ele>659.0</ele><time>2026-04-11T11:07:01Z</time></trkpt><trkpt lat="43.747788876189134" lon="12.349763751310876"><ele>659.8333333333333</ele><time>2026-04-11T11:07:02Z</time></trkpt><trkpt lat="43.747861927971655" lon="12.349811597075615"><ele>660.6666666666666</ele><time>2026-04-11T11:07:03Z</time></trkpt><trkpt lat="43.74793510059811" lon="12.349860634753693"><ele>661.5</ele><time>2026-04-11T11:07:04Z</time></trkpt><trkpt lat="43.74800918832653" lon="12.349912584631378"><ele>662.3333333333334</ele><time>2026-04-11T11:07:05Z</time></trkpt><trkpt lat="43.74808558521586" lon="12.349968920872364"><ele>663.1666666666667</ele><time>2026-04-11T11:07:06Z</time></trkpt><trkpt lat="43.74816225806668" lon="12.35002553415894"><ele>664.0</ele><time>2026-04-11T11:07:07Z</time></trkpt><trkpt lat="43.74824496913979" lon="12.350082393164254"><ele>664.0</ele><time>2026-04-11T11:07:08Z</time></trkpt><trkpt lat="43.74833720573531" lon="12.350136804923984"><ele>664.0</ele><time>2026-04-11T11:07:09Z</time></trkpt><trkpt lat="43.74842903269303" lon="12.350186160658119"><ele>664.0</ele><time>2026-04-11T11:07:10Z</time></trkpt><trkpt lat="43.74852266072064" lon="12.350235397168362"><ele>664.0</ele><time>2026-04-11T11:07:11Z</time></trkpt><trkpt lat="43.748622388985325" lon="12.350279561317771"><ele>664.0</ele><time>2026-04-11T11:07:12Z</time></trkpt><trkpt lat="43.74872380680357" lon="12.350324887434677"><ele>665.6</ele><time>2026-04-11T11:07:13Z</time></trkpt><trkpt lat="43.748826386713695" lon="12.350373314073128"><ele>667.2</ele><time>2026-04-11T11:07:14Z</time></trkpt><trkpt lat="43.74893209865615" lon="12.350418497860892"><ele>668.8000000000001</ele><time>2026-04-11T11:07:15Z</time></trkpt><trkpt lat="43.749044009064484" lon="12.350450516437233"><ele>670.4000000000001</ele><time>2026-04-11T11:07:16Z</time></trkpt><trkpt lat="43.74915881447666" lon="12.350459962184106"><ele>672.0</ele><time>2026-04-11T11:07:16.999Z</time></trkpt><trkpt lat="43.749274124248196" lon="12.350443711534131"><ele>671.0</ele><time>2026-04-11T11:07:17.999Z</time></trkpt><trkpt lat="43.74939268682179" lon="12.350403258310896"><ele>670.0</ele><time>2026-04-11T11:07:18.999Z</time></trkpt><trkpt lat="43.74950721888312" lon="12.350344118132286"><ele>669.0</ele><time>2026-04-11T11:07:19.999Z</time></trkpt><trkpt lat="43.74961557480386" lon="12.350269547443734"><ele>668.0</ele><time>2026-04-11T11:07:20.999Z</time></trkpt><trkpt lat="43.74971922525956" lon="12.350191974898552"><ele>668.0</ele><time>2026-04-11T11:07:21.999Z</time></trkpt><trkpt lat="43.74982046475906" lon="12.350115439205721"><ele>668.0</ele><time>2026-04-11T11:07:22.999Z</time></trkpt><trkpt lat="43.74991514881006" lon="12.350036690987881"><ele>668.0</ele><time>2026-04-11T11:07:23.999Z</time></trkpt><trkpt lat="43.75000686171586" lon="12.349952356244174"><ele>668.0</ele><time>2026-04-11T11:07:24.999Z</time></trkpt><trkpt lat="43.75008348328259" lon="12.349848720390984"><ele>668.0</ele><time>2026-04-11T11:07:25.999Z</time></trkpt><trkpt lat="43.75014672780597" lon="12.349719886077073"><ele>670.0</ele><time>2026-04-11T11:07:26.999Z</time></trkpt><trkpt lat="43.750212384702195" lon="12.349595741476453"><ele>672.0</ele><time>2026-04-11T11:07:27.999Z</time></trkpt><trkpt lat="43.7502768398521" lon="12.349472944657641"><ele>674.0</ele><time>2026-04-11T11:07:28.999Z</time></trkpt><trkpt lat="43.750331332111706" lon="12.349346227464848"><ele>676.0</ele><time>2026-04-11T11:07:29.999Z</time></trkpt><trkpt lat="43.7503812990645" lon="12.349219573782243"><ele>678.0</ele><time>2026-04-11T11:07:30.999Z</time></trkpt><trkpt lat="43.75042915111451" lon="12.349098852142223"><ele>678.0</ele><time>2026-04-11T11:07:31.999Z</time></trkpt><trkpt lat="43.750498530173715" lon="12.349004654976243"><ele>678.0</ele><time>2026-04-11T11:07:32.999Z</time></trkpt><trkpt lat="43.750584935787764" lon="12.34894016732866"><ele>678.0</ele><time>2026-04-11T11:07:33.999Z</time></trkpt><trkpt lat="43.75066897902879" lon="12.348905022497595"><ele>678.0</ele><time>2026-04-11T11:07:34.999Z</time></trkpt><trkpt lat="43.750734994001434" lon="12.348883925279436"><ele>678.0</ele><time>2026-04-11T11:07:35.999Z</time></trkpt><trkpt lat="43.75081010281773" lon="12.348863063187416"><ele>678.0</ele><time>2026-04-11T11:07:36.999Z</time></trkpt><trkpt lat="43.7508852883977" lon="12.348842397007779"><ele>681.8571428571428</ele><time>2026-04-11T11:07:37.999Z</time></trkpt><trkpt lat="43.750955729927306" lon="12.34882358708612"><ele>685.7142857142858</ele><time>2026-04-11T11:07:38.999Z</time></trkpt><trkpt lat="43.751026732687535" lon="12.348808718890709"><ele>689.5714285714286</ele><time>2026-04-11T11:07:39.999Z</time></trkpt><trkpt lat="43.75109416014484" lon="12.348793060615924"><ele>693.4285714285713</ele><time>2026-04-11T11:07:40.999Z</time></trkpt><trkpt lat="43.751158729693294" lon="12.348776275710282"><ele>697.2857142857142</ele><time>2026-04-11T11:07:41.999Z</time></trkpt><trkpt lat="43.75122503286593" lon="12.348759729301825"><ele>701.1428571428571</ele><time>2026-04-11T11:07:42.999Z</time></trkpt><trkpt lat="43.75129372528232" lon="12.348738155022083"><ele>705.0</ele><time>2026-04-11T11:07:43.999Z</time></trkpt><trkpt lat="43.75136454031899" lon="12.348711827975874"><ele>705.0</ele><time>2026-04-11T11:07:44.999Z</time></trkpt><trkpt lat="43.751440757169476" lon="12.348684619867509"><ele>705.0</ele><time>2026-04-11T11:07:45.999Z</time></trkpt><trkpt lat="43.75151999918999" lon="12.348657605872042"><ele>705.0</ele><time>2026-04-11T11:07:46.999Z</time></trkpt><trkpt lat="43.751598112782546" lon="12.348632120998595"><ele>705.0</ele><time>2026-04-11T11:07:47.999Z</time></trkpt><trkpt lat="43.751670165525994" lon="12.348615162256555"><ele>705.0</ele><time>2026-04-11T11:07:48.999Z</time></trkpt><trkpt lat="43.751737892845924" lon="12.34860089267342"><ele>705.0</ele><time>2026-04-11T11:07:49.999Z</time></trkpt><trkpt lat="43.75181216373163" lon="12.3485814890084"><ele>705.5</ele><time>2026-04-11T11:07:50.999Z</time></trkpt><trkpt lat="43.75189257183035" lon="12.348550339192283"><ele>706.0</ele><time>2026-04-11T11:07:51.999Z</time></trkpt><trkpt lat="43.751955896025486" lon="12.34847067423897"><ele>706.5</ele><time>2026-04-11T11:07:52.999Z</time></trkpt><trkpt lat="43.75202634147915" lon="12.34842215413327"><ele>707.0</ele><time>2026-04-11T11:07:53.999Z</time></trkpt><trkpt lat="43.75208796444911" lon="12.34835747714109"><ele>707.5</ele><time>2026-04-11T11:07:54.999Z</time></trkpt><trkpt lat="43.75215908439526" lon="12.348340659554545"><ele>708.0</ele><time>2026-04-11T11:07:55.999Z</time></trkpt><trkpt lat="43.7522331390645" lon="12.3483766414864"><ele>708.0</ele><time>2026-04-11T11:07:56.999Z</time></trkpt><trkpt lat="43.75230175351454" lon="12.348437461123345"><ele>708.0</ele><time>2026-04-11T11:07:57.999Z</time></trkpt><trkpt lat="43.75231579687527" lon="12.348559889764893"><ele>708.0</ele><time>2026-04-11T11:07:58.999Z</time></trkpt><trkpt lat="43.75232283905113" lon="12.348676021551467"><ele>708.0</ele><time>2026-04-11T11:07:59.999Z</time></trkpt><trkpt lat="43.75231822540148" lon="12.348809486893389"><ele>708.0</ele><time>2026-04-11T11:08:00.999Z</time></trkpt><trkpt lat="43.752301804700025" lon="12.348961580690926"><ele>706.75</ele><time>2026-04-11T11:08:01.999Z</time></trkpt><trkpt lat="43.75227963188536" lon="12.349121302862251"><ele>705.5</ele><time>2026-04-11T11:08:02.999Z</time></trkpt><trkpt lat="43.75225798632956" lon="12.349288948243547"><ele>704.25</ele><time>2026-04-11T11:08:03.999Z</time></trkpt><trkpt lat="43.7522395497344" lon="12.349446194081143"><ele>703.0</ele><time>2026-04-11T11:08:04.999Z</time></trkpt><trkpt lat="43.75222169959382" lon="12.349599926265768"><ele>702.75</ele><time>2026-04-11T11:08:05.999Z</time></trkpt><trkpt lat="43.752203972043475" lon="12.34975260295563"><ele>702.5</ele><time>2026-04-11T11:08:06.999Z</time></trkpt><trkpt lat="43.7521899796361" lon="12.349910099335286"><ele>702.25</ele><time>2026-04-11T11:08:07.999Z</time></trkpt><trkpt lat="43.752197388216146" lon="12.350074298302102"><ele>702.0</ele><time>2026-04-11T11:08:08.999Z</time></trkpt><trkpt lat="43.75225578698879" lon="12.350221776156085"><ele>702.0</ele><time>2026-04-11T11:08:09.999Z</time></trkpt><trkpt lat="43.75234737852546" lon="12.350365431726141"><ele>702.0</ele><time>2026-04-11T11:08:10.999Z</time></trkpt><trkpt lat="43.752420293545924" lon="12.35051176150604"><ele>702.0</ele><time>2026-04-11T11:08:11.999Z</time></trkpt><trkpt lat="43.75250016415252" lon="12.350659431444234"><ele>702.0</ele><time>2026-04-11T11:08:12.999Z</time></trkpt><trkpt lat="43.75257866891195" lon="12.35079941064171"><ele>702.0</ele><time>2026-04-11T11:08:13.999Z</time></trkpt><trkpt lat="43.75264896617922" lon="12.350932557600721"><ele>702.0</ele><time>2026-04-11T11:08:14.999Z</time></trkpt><trkpt lat="43.75272022861956" lon="12.351045760238632"><ele>702.0</ele><time>2026-04-11T11:08:15.999Z</time></trkpt><trkpt lat="43.75280755430514" lon="12.35112731358734"><ele>702.0</ele><time>2026-04-11T11:08:16.999Z</time></trkpt><trkpt lat="43.75290876474331" lon="12.351170802135936"><ele>702.0</ele><time>2026-04-11T11:08:17.999Z</time></trkpt><trkpt lat="43.753025752205886" lon="12.351162743406285"><ele>702.0</ele><time>2026-04-11T11:08:19Z</time></trkpt><trkpt lat="43.753138153105695" lon="12.351118633143438"><ele>702.0</ele><time>2026-04-11T11:08:20Z</time></trkpt><trkpt lat="43.753251453717716" lon="12.351082962073049"><ele>702.0</ele><time>2026-04-11T11:08:21Z</time></trkpt><trkpt lat="43.75335584803485" lon="12.351026683079912"><ele>702.0</ele><time>2026-04-11T11:08:22Z</time></trkpt><trkpt lat="43.75346132952091" lon="12.350975728894374"><ele>701.75</ele><time>2026-04-11T11:08:23Z</time></trkpt><trkpt lat="43.753571876390026" lon="12.350918467092336"><ele>701.5</ele><time>2026-04-11T11:08:24Z</time></trkpt><trkpt lat="43.753681383401975" lon="12.350873017648105"><ele>701.25</ele><time>2026-04-11T11:08:25Z</time></trkpt><trkpt lat="43.75379019680845" lon="12.350828002818618"><ele>701.0</ele><time>2026-04-11T11:08:26Z</time></trkpt><trkpt lat="43.75390018708957" lon="12.35077985897315"><ele>701.0</ele><time>2026-04-11T11:08:27Z</time></trkpt><trkpt lat="43.75401380449505" lon="12.350734538196017"><ele>701.0</ele><time>2026-04-11T11:08:28Z</time></trkpt><trkpt lat="43.75412679108012" lon="12.350693446261497"><ele>701.0</ele><time>2026-04-11T11:08:29Z</time></trkpt><trkpt lat="43.754240660655526" lon="12.350650042218122"><ele>701.0</ele><time>2026-04-11T11:08:30Z</time></trkpt><trkpt lat="43.75435419608902" lon="12.350606132406098"><ele>702.4</ele><time>2026-04-11T11:08:31Z</time></trkpt><trkpt lat="43.754465324766066" lon="12.350565365026517"><ele>703.8</ele><time>2026-04-11T11:08:32Z</time></trkpt><trkpt lat="43.75457312158072" lon="12.350526187239385"><ele>705.1999999999999</ele><time>2026-04-11T11:08:33Z</time></trkpt><trkpt lat="43.754666789409924" lon="12.350491395289461"><ele>706.5999999999999</ele><time>2026-04-11T11:08:34Z</time></trkpt><trkpt lat="43.75474813814157" lon="12.350473404125605"><ele>708.0</ele><time>2026-04-11T11:08:35Z</time></trkpt><trkpt lat="43.754823904600826" lon="12.350458951165786"><ele>711.5</ele><time>2026-04-11T11:08:36Z</time></trkpt><trkpt lat="43.75490206996622" lon="12.350451221049326"><ele>715.0</ele><time>2026-04-11T11:08:37Z</time></trkpt><trkpt lat="43.754982332223605" lon="12.350453704258625"><ele>718.5</ele><time>2026-04-11T11:08:38Z</time></trkpt><trkpt lat="43.75506372644457" lon="12.35046000288402"><ele>722.0</ele><time>2026-04-11T11:08:39Z</time></trkpt><trkpt lat="43.75514653860973" lon="12.35046866214603"><ele>725.5</ele><time>2026-04-11T11:08:40Z</time></trkpt><trkpt lat="43.7552315036913" lon="12.350477263288395"><ele>729.0</ele><time>2026-04-11T11:08:41Z</time></trkpt><trkpt lat="43.75532000841452" lon="12.350480901235704"><ele>729.8000000000001</ele><time>2026-04-11T11:08:42Z</time></trkpt><trkpt lat="43.75541159954461" lon="12.350479935885307"><ele>730.6</ele><time>2026-04-11T11:08:43Z</time></trkpt><trkpt lat="43.755506255453476" lon="12.35047048093706"><ele>731.4</ele><time>2026-04-11T11:08:44Z</time></trkpt><trkpt lat="43.755604114687905" lon="12.350457347210815"><ele>732.2</ele><time>2026-04-11T11:08:45Z</time></trkpt><trkpt lat="43.75570305351781" lon="12.350459577135922"><ele>733.0</ele><time>2026-04-11T11:08:46Z</time></trkpt><trkpt lat="43.755803040165475" lon="12.350468783052806"><ele>733.0</ele><time>2026-04-11T11:08:47Z</time></trkpt><trkpt lat="43.75590435155817" lon="12.35048420639673"><ele>733.0</ele><time>2026-04-11T11:08:48Z</time></trkpt><trkpt lat="43.75600691608835" lon="12.35051412485612"><ele>733.0</ele><time>2026-04-11T11:08:49Z</time></trkpt><trkpt lat="43.75611065589632" lon="12.350556580532173"><ele>733.0</ele><time>2026-04-11T11:08:50Z</time></trkpt><trkpt lat="43.75621234151697" lon="12.350608002346942"><ele>733.0</ele><time>2026-04-11T11:08:51Z</time></trkpt><trkpt lat="43.756314317085604" lon="12.350659074166972"><ele>731.4</ele><time>2026-04-11T11:08:52Z</time></trkpt><trkpt lat="43.75642065986367" lon="12.35070536858231"><ele>729.8</ele><time>2026-04-11T11:08:53Z</time></trkpt><trkpt lat="43.75652936454012" lon="12.350735586631165"><ele>728.2</ele><time>2026-04-11T11:08:54Z</time></trkpt><trkpt lat="43.756639584265855" lon="12.350748081900424"><ele>726.6</ele><time>2026-04-11T11:08:55Z</time></trkpt><trkpt lat="43.756748932401" lon="12.350743244783757"><ele>725.0</ele><time>2026-04-11T11:08:56Z</time></trkpt><trkpt lat="43.75685568680949" lon="12.350730292594266"><ele>725.6</ele><time>2026-04-11T11:08:57Z</time></trkpt><trkpt lat="43.7569591994854" lon="12.350709195984521"><ele>726.2</ele><time>2026-04-11T11:08:58Z</time></trkpt><trkpt lat="43.75706132327818" lon="12.350700097178137"><ele>726.8</ele><time>2026-04-11T11:08:59Z</time></trkpt><trkpt lat="43.7571584907388" lon="12.350691097208474"><ele>727.4</ele><time>2026-04-11T11:09:00Z</time></trkpt><trkpt lat="43.75725227760499" lon="12.350678150999235"><ele>728.0</ele><time>2026-04-11T11:09:01Z</time></trkpt><trkpt lat="43.757343317185466" lon="12.350660647811859"><ele>728.0</ele><time>2026-04-11T11:09:02Z</time></trkpt><trkpt lat="43.757435806190976" lon="12.350636976818281"><ele>728.0</ele><time>2026-04-11T11:09:03Z</time></trkpt><trkpt lat="43.75752889780657" lon="12.350603714117394"><ele>728.0</ele><time>2026-04-11T11:09:04Z</time></trkpt><trkpt lat="43.757622204916004" lon="12.350557193493003"><ele>728.0</ele><time>2026-04-11T11:09:05Z</time></trkpt><trkpt lat="43.757712124517596" lon="12.350497489772998"><ele>728.0</ele><time>2026-04-11T11:09:06Z</time></trkpt><trkpt lat="43.75780419171885" lon="12.35042760573504"><ele>729.0</ele><time>2026-04-11T11:09:07Z</time></trkpt><trkpt lat="43.75789719839936" lon="12.350350516065529"><ele>730.0</ele><time>2026-04-11T11:09:08Z</time></trkpt><trkpt lat="43.75797707231074" lon="12.35027357602626"><ele>731.0</ele><time>2026-04-11T11:09:09Z</time></trkpt><trkpt lat="43.75805981567831" lon="12.350180104742236"><ele>732.0</ele><time>2026-04-11T11:09:10Z</time></trkpt><trkpt lat="43.75814028257377" lon="12.350078616885547"><ele>733.0</ele><time>2026-04-11T11:09:11Z</time></trkpt><trkpt lat="43.758214597952694" lon="12.34997189999645"><ele>733.0</ele><time>2026-04-11T11:09:12Z</time></trkpt><trkpt lat="43.75828636016834" lon="12.34986716251047"><ele>733.0</ele><time>2026-04-11T11:09:13Z</time></trkpt><trkpt lat="43.75835474221367" lon="12.349761263771343"><ele>733.0</ele><time>2026-04-11T11:09:14Z</time></trkpt><trkpt lat="43.75842267480496" lon="12.349655741221813"><ele>733.0</ele><time>2026-04-11T11:09:15Z</time></trkpt><trkpt lat="43.75849181612553" lon="12.349550408120644"><ele>733.0</ele><time>2026-04-11T11:09:16Z</time></trkpt><trkpt lat="43.75856448923248" lon="12.349448020725436"><ele>732.4</ele><time>2026-04-11T11:09:17Z</time></trkpt><trkpt lat="43.75864660733223" lon="12.34934918025763"><ele>731.8</ele><time>2026-04-11T11:09:18Z</time></trkpt><trkpt lat="43.758739044034925" lon="12.349262877451356"><ele>731.2</ele><time>2026-04-11T11:09:19Z</time></trkpt><trkpt lat="43.75883563802802" lon="12.34919117212819"><ele>730.6</ele><time>2026-04-11T11:09:20Z</time></trkpt><trkpt lat="43.758932494836166" lon="12.349130937353076"><ele>730.0</ele><time>2026-04-11T11:09:21Z</time></trkpt><trkpt lat="43.75902916821154" lon="12.349085305240122"><ele>730.0</ele><time>2026-04-11T11:09:22Z</time></trkpt><trkpt lat="43.75912687789815" lon="12.34905217830919"><ele>730.0</ele><time>2026-04-11T11:09:23Z</time></trkpt><trkpt lat="43.75922968730094" lon="12.349044454871848"><ele>730.0</ele><time>2026-04-11T11:09:24Z</time></trkpt><trkpt lat="43.759333061349245" lon="12.34905302106492"><ele>730.0</ele><time>2026-04-11T11:09:25Z</time></trkpt><trkpt lat="43.75943741496683" lon="12.349067435792815"><ele>730.0</ele><time>2026-04-11T11:09:26Z</time></trkpt><trkpt lat="43.75954438816726" lon="12.349083233116307"><ele>730.8</ele><time>2026-04-11T11:09:27Z</time></trkpt><trkpt lat="43.75965115617608" lon="12.349117114588458"><ele>731.6</ele><time>2026-04-11T11:09:27.999Z</time></trkpt><trkpt lat="43.75975568049499" lon="12.349155323514651"><ele>732.4000000000001</ele><time>2026-04-11T11:09:28.999Z</time></trkpt><trkpt lat="43.7598595003672" lon="12.349207516002128"><ele>733.2</ele><time>2026-04-11T11:09:29.999Z</time></trkpt><trkpt lat="43.75996830606894" lon="12.349255522474142"><ele>734.0</ele><time>2026-04-11T11:09:30.999Z</time></trkpt><trkpt lat="43.76007785698322" lon="12.349296056699314"><ele>734.0</ele><time>2026-04-11T11:09:31.999Z</time></trkpt><trkpt lat="43.760190134622476" lon="12.349327173389877"><ele>734.0</ele><time>2026-04-11T11:09:32.999Z</time></trkpt><trkpt lat="43.76030205765167" lon="12.349327290816877"><ele>734.0</ele><time>2026-04-11T11:09:33.999Z</time></trkpt><trkpt lat="43.760422472931445" lon="12.349300830554231"><ele>734.0</ele><time>2026-04-11T11:09:34.999Z</time></trkpt><trkpt lat="43.76054161085563" lon="12.349248239656571"><ele>732.25</ele><time>2026-04-11T11:09:35.999Z</time></trkpt><trkpt lat="43.76065619819083" lon="12.349172578527256"><ele>730.5</ele><time>2026-04-11T11:09:36.999Z</time></trkpt><trkpt lat="43.760766938072464" lon="12.349092385516633"><ele>728.75</ele><time>2026-04-11T11:09:37.999Z</time></trkpt><trkpt lat="43.76088648474326" lon="12.349029942747624"><ele>727.0</ele><time>2026-04-11T11:09:38.999Z</time></trkpt><trkpt lat="43.76101334763169" lon="12.348995296870404"><ele>726.5</ele><time>2026-04-11T11:09:39.999Z</time></trkpt><trkpt lat="43.76114514582442" lon="12.348987980123285"><ele>726.0</ele><time>2026-04-11T11:09:40.999Z</time></trkpt><trkpt lat="43.76127877851734" lon="12.348990275140808"><ele>725.5</ele><time>2026-04-11T11:09:41.999Z</time></trkpt><trkpt lat="43.76141151477143" lon="12.348993621483205"><ele>725.0</ele><time>2026-04-11T11:09:42.999Z</time></trkpt><trkpt lat="43.76153965916309" lon="12.348994832903267"><ele>725.0</ele><time>2026-04-11T11:09:43.999Z</time></trkpt><trkpt lat="43.76166014484558" lon="12.348993700658355"><ele>725.0</ele><time>2026-04-11T11:09:44.999Z</time></trkpt><trkpt lat="43.76177607230951" lon="12.348989967560119"><ele>725.0</ele><time>2026-04-11T11:09:45.999Z</time></trkpt><trkpt lat="43.76188918349736" lon="12.3489851168624"><ele>725.0</ele><time>2026-04-11T11:09:46.999Z</time></trkpt><trkpt lat="43.76199637355363" lon="12.348984512198818"><ele>726.0</ele><time>2026-04-11T11:09:47.999Z</time></trkpt><trkpt lat="43.762095406421004" lon="12.348989165430797"><ele>727.0</ele><time>2026-04-11T11:09:48.999Z</time></trkpt><trkpt lat="43.76218767463392" lon="12.348990104425727"><ele>728.0</ele><time>2026-04-11T11:09:49.999Z</time></trkpt><trkpt lat="43.76227802056377" lon="12.348977565798576"><ele>729.0</ele><time>2026-04-11T11:09:50.999Z</time></trkpt><trkpt lat="43.76236734089538" lon="12.348946972652637"><ele>730.0</ele><time>2026-04-11T11:09:51.999Z</time></trkpt><trkpt lat="43.76245441970476" lon="12.348894453786711"><ele>728.4</ele><time>2026-04-11T11:09:52.999Z</time></trkpt><trkpt lat="43.7625424846293" lon="12.348823932229921"><ele>726.8</ele><time>2026-04-11T11:09:53.999Z</time></trkpt><trkpt lat="43.76263003953638" lon="12.348743595332278"><ele>725.2</ele><time>2026-04-11T11:09:54.999Z</time></trkpt><trkpt lat="43.76271622790693" lon="12.348664031807782"><ele>723.6</ele><time>2026-04-11T11:09:55.999Z</time></trkpt><trkpt lat="43.76279919844802" lon="12.348579873350793"><ele>722.0</ele><time>2026-04-11T11:09:56.999Z</time></trkpt><trkpt lat="43.762879354108726" lon="12.348493072163226"><ele>722.0</ele><time>2026-04-11T11:09:57.999Z</time></trkpt><trkpt lat="43.76295844152928" lon="12.348406340071564"><ele>722.0</ele><time>2026-04-11T11:09:58.999Z</time></trkpt><trkpt lat="43.76303801931313" lon="12.348321584535476"><ele>722.0</ele><time>2026-04-11T11:09:59.999Z</time></trkpt><trkpt lat="43.76312202924852" lon="12.348240186276568"><ele>722.0</ele><time>2026-04-11T11:10:00.999Z</time></trkpt><trkpt lat="43.76320745129826" lon="12.348158303633163"><ele>722.0</ele><time>2026-04-11T11:10:01.999Z</time></trkpt><trkpt lat="43.76328707474633" lon="12.348068926132079"><ele>722.6</ele><time>2026-04-11T11:10:02.999Z</time></trkpt><trkpt lat="43.76336720247027" lon="12.347987933227426"><ele>723.2</ele><time>2026-04-11T11:10:03.999Z</time></trkpt><trkpt lat="43.76344963861925" lon="12.347915477665149"><ele>723.8</ele><time>2026-04-11T11:10:04.999Z</time></trkpt><trkpt lat="43.76353780342427" lon="12.34784695590075"><ele>724.4</ele><time>2026-04-11T11:10:05.999Z</time></trkpt><trkpt lat="43.76362535401386" lon="12.347778824877647"><ele>725.0</ele><time>2026-04-11T11:10:06.999Z</time></trkpt><trkpt lat="43.763719917211894" lon="12.347714773677984"><ele>725.0</ele><time>2026-04-11T11:10:07.999Z</time></trkpt><trkpt lat="43.76381558475709" lon="12.347654777270813"><ele>725.0</ele><time>2026-04-11T11:10:08.999Z</time></trkpt><trkpt lat="43.76390586709731" lon="12.347593595380273"><ele>725.0</ele><time>2026-04-11T11:10:09.999Z</time></trkpt><trkpt lat="43.76398786714549" lon="12.347519187415548"><ele>725.0</ele><time>2026-04-11T11:10:10.999Z</time></trkpt><trkpt lat="43.76405670513173" lon="12.347422030830174"><ele>725.0</ele><time>2026-04-11T11:10:11.999Z</time></trkpt><trkpt lat="43.76410639717882" lon="12.347301753347127"><ele>725.8</ele><time>2026-04-11T11:10:12.999Z</time></trkpt><trkpt lat="43.76413590783078" lon="12.347166036773547"><ele>726.6</ele><time>2026-04-11T11:10:13.999Z</time></trkpt><trkpt lat="43.764143645149005" lon="12.347018542787952"><ele>727.4000000000001</ele><time>2026-04-11T11:10:14.999Z</time></trkpt><trkpt lat="43.764129113198095" lon="12.34686568439947"><ele>728.2</ele><time>2026-04-11T11:10:15.999Z</time></trkpt><trkpt lat="43.76408704700502" lon="12.346711947504716"><ele>729.0</ele><time>2026-04-11T11:10:16.999Z</time></trkpt><trkpt lat="43.76402914942601" lon="12.34656448340419"><ele>729.0</ele><time>2026-04-11T11:10:17.999Z</time></trkpt><trkpt lat="43.7639675523135" lon="12.346406151258893"><ele>729.0</ele><time>2026-04-11T11:10:18.999Z</time></trkpt><trkpt lat="43.76392256318175" lon="12.346234632387926"><ele>729.0</ele><time>2026-04-11T11:10:19.999Z</time></trkpt><trkpt lat="43.76389490997344" lon="12.346057444902655"><ele>729.0</ele><time>2026-04-11T11:10:20.999Z</time></trkpt><trkpt lat="43.763902698416075" lon="12.345883559190504"><ele>728.0</ele><time>2026-04-11T11:10:21.999Z</time></trkpt><trkpt lat="43.76392859145541" lon="12.345717224075878"><ele>727.0</ele><time>2026-04-11T11:10:22.999Z</time></trkpt><trkpt lat="43.76398567456383" lon="12.345557287557199"><ele>726.0</ele><time>2026-04-11T11:10:23.999Z</time></trkpt><trkpt lat="43.76406169657724" lon="12.345409483984309"><ele>725.0</ele><time>2026-04-11T11:10:25Z</time></trkpt><trkpt lat="43.76415128567158" lon="12.345284131864481"><ele>725.0</ele><time>2026-04-11T11:10:26Z</time></trkpt><trkpt lat="43.76424976437166" lon="12.34518570041582"><ele>725.0</ele><time>2026-04-11T11:10:27Z</time></trkpt><trkpt lat="43.764362734651826" lon="12.3451175728859"><ele>725.0</ele><time>2026-04-11T11:10:28Z</time></trkpt><trkpt lat="43.76447759134543" lon="12.345069784778818"><ele>725.0</ele><time>2026-04-11T11:10:29Z</time></trkpt><trkpt lat="43.76458478704025" lon="12.345004030700583"><ele>723.0</ele><time>2026-04-11T11:10:30Z</time></trkpt><trkpt lat="43.76469334441243" lon="12.344927076266972"><ele>721.0</ele><time>2026-04-11T11:10:31Z</time></trkpt><trkpt lat="43.76479337289854" lon="12.344832278492799"><ele>719.0</ele><time>2026-04-11T11:10:32Z</time></trkpt><trkpt lat="43.764888681643484" lon="12.34471909216395"><ele>717.0</ele><time>2026-04-11T11:10:33Z</time></trkpt><trkpt lat="43.76498073082555" lon="12.344593099500743"><ele>717.0</ele><time>2026-04-11T11:10:34Z</time></trkpt><trkpt lat="43.765061340276546" lon="12.34444745644263"><ele>717.0</ele><time>2026-04-11T11:10:35Z</time></trkpt><trkpt lat="43.76512645742201" lon="12.344296770428214"><ele>717.0</ele><time>2026-04-11T11:10:36Z</time></trkpt><trkpt lat="43.76516716377575" lon="12.344152024226057"><ele>717.0</ele><time>2026-04-11T11:10:37Z</time></trkpt><trkpt lat="43.76518442654764" lon="12.344007967147038"><ele>716.25</ele><time>2026-04-11T11:10:38Z</time></trkpt><trkpt lat="43.765183157221486" lon="12.343843201124974"><ele>715.5</ele><time>2026-04-11T11:10:39Z</time></trkpt><trkpt lat="43.765172540516076" lon="12.343669039819655"><ele>714.75</ele><time>2026-04-11T11:10:40Z</time></trkpt><trkpt lat="43.765156282172434" lon="12.34349436036357"><ele>714.0</ele><time>2026-04-11T11:10:41Z</time></trkpt><trkpt lat="43.765135293301825" lon="12.343318696959424"><ele>714.0</ele><time>2026-04-11T11:10:42Z</time></trkpt><trkpt lat="43.76511496950996" lon="12.343144315576081"><ele>714.0</ele><time>2026-04-11T11:10:43Z</time></trkpt><trkpt lat="43.7650985639189" lon="12.342963976666876"><ele>714.0</ele><time>2026-04-11T11:10:44Z</time></trkpt><trkpt lat="43.765115262276865" lon="12.342778591818929"><ele>714.0</ele><time>2026-04-11T11:10:45Z</time></trkpt><trkpt lat="43.76514910615774" lon="12.342612253856661"><ele>713.5</ele><time>2026-04-11T11:10:46Z</time></trkpt><trkpt lat="43.76520094478334" lon="12.342446711294196"><ele>713.0</ele><time>2026-04-11T11:10:47Z</time></trkpt><trkpt lat="43.76527203990749" lon="12.342309543311835"><ele>712.5</ele><time>2026-04-11T11:10:48Z</time></trkpt><trkpt lat="43.76535013075165" lon="12.34218677404048"><ele>712.0</ele><time>2026-04-11T11:10:49Z</time></trkpt><trkpt lat="43.765439639721095" lon="12.342083911161685"><ele>712.0</ele><time>2026-04-11T11:10:50Z</time></trkpt><trkpt lat="43.7655348116765" lon="12.341996478018258"><ele>712.0</ele><time>2026-04-11T11:10:51Z</time></trkpt><trkpt lat="43.765633322238195" lon="12.341905964985415"><ele>712.0</ele><time>2026-04-11T11:10:52Z</time></trkpt><trkpt lat="43.76573256475916" lon="12.34181574403343"><ele>712.0</ele><time>2026-04-11T11:10:53Z</time></trkpt><trkpt lat="43.76583110469912" lon="12.341723904907095"><ele>712.0</ele><time>2026-04-11T11:10:54Z</time></trkpt><trkpt lat="43.765942793160185" lon="12.34164912529379"><ele>712.0</ele><time>2026-04-11T11:10:55Z</time></trkpt><trkpt lat="43.766067482289806" lon="12.341593344362165"><ele>712.0</ele><time>2026-04-11T11:10:56Z</time></trkpt><trkpt lat="43.76619078078928" lon="12.341550081444147"><ele>712.0</ele><time>2026-04-11T11:10:57Z</time></trkpt><trkpt lat="43.76632368673059" lon="12.341516766981599"><ele>712.0</ele><time>2026-04-11T11:10:58Z</time></trkpt><trkpt lat="43.766457254157274" lon="12.341496956686198"><ele>712.0</ele><time>2026-04-11T11:10:59Z</time></trkpt><trkpt lat="43.76659171483704" lon="12.341494814570911"><ele>712.0</ele><time>2026-04-11T11:11:00Z</time></trkpt><trkpt lat="43.76671946760168" lon="12.341477857048687"><ele>712.0</ele><time>2026-04-11T11:11:01Z</time></trkpt><trkpt lat="43.76684283539585" lon="12.341461854571163"><ele>712.5</ele><time>2026-04-11T11:11:02Z</time></trkpt><trkpt lat="43.76696583891968" lon="12.341439312729097"><ele>713.0</ele><time>2026-04-11T11:11:03Z</time></trkpt><trkpt lat="43.76709065590625" lon="12.341423130999738"><ele>713.5</ele><time>2026-04-11T11:11:04Z</time></trkpt><trkpt lat="43.767215942363116" lon="12.34140397044881"><ele>714.0</ele><time>2026-04-11T11:11:05Z</time></trkpt><trkpt lat="43.76733544383956" lon="12.341393401824789"><ele>715.0</ele><time>2026-04-11T11:11:06Z</time></trkpt><trkpt lat="43.767455287097015" lon="12.341380978537991"><ele>716.0</ele><time>2026-04-11T11:11:07Z</time></trkpt><trkpt lat="43.76758084949243" lon="12.341362505346515"><ele>717.0</ele><time>2026-04-11T11:11:08Z</time></trkpt><trkpt lat="43.76770823662504" lon="12.34134772190211"><ele>718.0</ele><time>2026-04-11T11:11:09Z</time></trkpt><trkpt lat="43.7678405569732" lon="12.341337365031402"><ele>718.75</ele><time>2026-04-11T11:11:10Z</time></trkpt><trkpt lat="43.76796607527544" lon="12.341325187427104"><ele>719.5</ele><time>2026-04-11T11:11:11Z</time></trkpt><trkpt lat="43.768104382200825" lon="12.341314489716824"><ele>720.25</ele><time>2026-04-11T11:11:12Z</time></trkpt><trkpt lat="43.76824124854589" lon="12.341292631419531"><ele>721.0</ele><time>2026-04-11T11:11:13Z</time></trkpt><trkpt lat="43.7683801673406" lon="12.341278702031843"><ele>721.0</ele><time>2026-04-11T11:11:14Z</time></trkpt><trkpt lat="43.76851618354472" lon="12.341264294437924"><ele>721.0</ele><time>2026-04-11T11:11:15Z</time></trkpt><trkpt lat="43.76864945590444" lon="12.34125386014032"><ele>721.0</ele><time>2026-04-11T11:11:16Z</time></trkpt><trkpt lat="43.7687849519576" lon="12.341236051121761"><ele>721.0</ele><time>2026-04-11T11:11:17Z</time></trkpt><trkpt lat="43.768919396362335" lon="12.341206608989618"><ele>720.5</ele><time>2026-04-11T11:11:18Z</time></trkpt><trkpt lat="43.76905525927935" lon="12.341171970598715"><ele>720.0</ele><time>2026-04-11T11:11:19Z</time></trkpt><trkpt lat="43.76919158183237" lon="12.341135082691297"><ele>719.5</ele><time>2026-04-11T11:11:20Z</time></trkpt><trkpt lat="43.7693368235039" lon="12.341090358966209"><ele>719.0</ele><time>2026-04-11T11:11:21Z</time></trkpt><trkpt lat="43.769482585007715" lon="12.341043425807309"><ele>717.5</ele><time>2026-04-11T11:11:22Z</time></trkpt><trkpt lat="43.76962915846618" lon="12.340990580554118"><ele>716.0</ele><time>2026-04-11T11:11:23Z</time></trkpt><trkpt lat="43.76976763965078" lon="12.340938276791265"><ele>714.5</ele><time>2026-04-11T11:11:24Z</time></trkpt><trkpt lat="43.7698993239907" lon="12.340885781133405"><ele>713.0</ele><time>2026-04-11T11:11:25Z</time></trkpt><trkpt lat="43.77002905108831" lon="12.34084125479811"><ele>713.0</ele><time>2026-04-11T11:11:26Z</time></trkpt><trkpt lat="43.77015348126239" lon="12.340801669954633"><ele>713.0</ele><time>2026-04-11T11:11:27Z</time></trkpt><trkpt lat="43.770279082785" lon="12.340749398927876"><ele>713.0</ele><time>2026-04-11T11:11:28Z</time></trkpt><trkpt lat="43.770399826938636" lon="12.340698883497112"><ele>713.0</ele><time>2026-04-11T11:11:29Z</time></trkpt><trkpt lat="43.77052059650553" lon="12.340642628445824"><ele>713.75</ele><time>2026-04-11T11:11:30Z</time></trkpt><trkpt lat="43.770649525434806" lon="12.340594584018648"><ele>714.5</ele><time>2026-04-11T11:11:31Z</time></trkpt><trkpt lat="43.7707761358953" lon="12.340540778478935"><ele>715.25</ele><time>2026-04-11T11:11:32Z</time></trkpt><trkpt lat="43.77090140821303" lon="12.340495000684319"><ele>716.0</ele><time>2026-04-11T11:11:33Z</time></trkpt><trkpt lat="43.7710229647449" lon="12.340451775283618"><ele>717.5</ele><time>2026-04-11T11:11:34Z</time></trkpt><trkpt lat="43.771144666354886" lon="12.340405379064661"><ele>719.0</ele><time>2026-04-11T11:11:35Z</time></trkpt><trkpt lat="43.77126946444059" lon="12.340357455344552"><ele>720.5</ele><time>2026-04-11T11:11:36Z</time></trkpt><trkpt lat="43.771394966061884" lon="12.34031304550202"><ele>722.0</ele><time>2026-04-11T11:11:37Z</time></trkpt><trkpt lat="43.77152303771871" lon="12.340265516376304"><ele>722.0</ele><time>2026-04-11T11:11:38Z</time></trkpt><trkpt lat="43.77165212826942" lon="12.340218121415948"><ele>722.0</ele><time>2026-04-11T11:11:39Z</time></trkpt><trkpt lat="43.77177491710895" lon="12.340172549270225"><ele>722.0</ele><time>2026-04-11T11:11:40Z</time></trkpt><trkpt lat="43.771890192990675" lon="12.340128955480274"><ele>722.0</ele><time>2026-04-11T11:11:41Z</time></trkpt><trkpt lat="43.772005599007336" lon="12.340087587984375"><ele>722.25</ele><time>2026-04-11T11:11:41.999Z</time></trkpt><trkpt lat="43.77212076439259" lon="12.340044378746144"><ele>722.5</ele><time>2026-04-11T11:11:42.999Z</time></trkpt><trkpt lat="43.77224033613439" lon="12.339996641659036"><ele>722.75</ele><time>2026-04-11T11:11:43.999Z</time></trkpt><trkpt lat="43.77235130557768" lon="12.339951349539104"><ele>723.0</ele><time>2026-04-11T11:11:44.999Z</time></trkpt><trkpt lat="43.77246170476541" lon="12.339903702917821"><ele>723.0</ele><time>2026-04-11T11:11:45.999Z</time></trkpt><trkpt lat="43.77257460388305" lon="12.339855704373884"><ele>723.0</ele><time>2026-04-11T11:11:46.999Z</time></trkpt><trkpt lat="43.77267799925036" lon="12.33976132322023"><ele>723.0</ele><time>2026-04-11T11:11:47.999Z</time></trkpt><trkpt lat="43.77276905772915" lon="12.339641364606228"><ele>723.0</ele><time>2026-04-11T11:11:48.999Z</time></trkpt><trkpt lat="43.77285175382236" lon="12.339511740110682"><ele>721.0</ele><time>2026-04-11T11:11:49.999Z</time></trkpt><trkpt lat="43.772920721013946" lon="12.339363635678207"><ele>719.0</ele><time>2026-04-11T11:11:50.999Z</time></trkpt><trkpt lat="43.77296923953183" lon="12.339185030915422"><ele>717.0</ele><time>2026-04-11T11:11:51.999Z</time></trkpt><trkpt lat="43.77300084777054" lon="12.33899831780113"><ele>715.0</ele><time>2026-04-11T11:11:52.999Z</time></trkpt><trkpt lat="43.77302283919009" lon="12.338819081375007"><ele>715.0</ele><time>2026-04-11T11:11:53.999Z</time></trkpt><trkpt lat="43.773051848615545" lon="12.338631982264747"><ele>715.0</ele><time>2026-04-11T11:11:54.999Z</time></trkpt><trkpt lat="43.773081649310825" lon="12.338448199815613"><ele>715.0</ele><time>2026-04-11T11:11:55.999Z</time></trkpt><trkpt lat="43.77312094612321" lon="12.338270469965604"><ele>715.0</ele><time>2026-04-11T11:11:56.999Z</time></trkpt><trkpt lat="43.77317633250393" lon="12.338107141924711"><ele>714.75</ele><time>2026-04-11T11:11:57.999Z</time></trkpt><trkpt lat="43.77324969364029" lon="12.337959758225695"><ele>714.5</ele><time>2026-04-11T11:11:58.999Z</time></trkpt><trkpt lat="43.77334224426656" lon="12.337835246718361"><ele>714.25</ele><time>2026-04-11T11:11:59.999Z</time></trkpt><trkpt lat="43.77344266267474" lon="12.33772098566996"><ele>714.0</ele><time>2026-04-11T11:12:00.999Z</time></trkpt><trkpt lat="43.77354467433112" lon="12.337607221763914"><ele>714.0</ele><time>2026-04-11T11:12:01.999Z</time></trkpt><trkpt lat="43.77365144245873" lon="12.337494372241046"><ele>714.0</ele><time>2026-04-11T11:12:02.999Z</time></trkpt><trkpt lat="43.77375163971535" lon="12.337384281554419"><ele>714.0</ele><time>2026-04-11T11:12:03.999Z</time></trkpt><trkpt lat="43.773849070796025" lon="12.337275530815717"><ele>714.0</ele><time>2026-04-11T11:12:04.999Z</time></trkpt><trkpt lat="43.77394749281478" lon="12.337178005898043"><ele>716.25</ele><time>2026-04-11T11:12:05.999Z</time></trkpt><trkpt lat="43.774041906886666" lon="12.337082982756321"><ele>718.5</ele><time>2026-04-11T11:12:06.999Z</time></trkpt><trkpt lat="43.77413185797018" lon="12.336989660584111"><ele>720.75</ele><time>2026-04-11T11:12:07.999Z</time></trkpt><trkpt lat="43.77422630249065" lon="12.33690190175426"><ele>723.0</ele><time>2026-04-11T11:12:08.999Z</time></trkpt><trkpt lat="43.77432581253375" lon="12.336819637843877"><ele>721.4</ele><time>2026-04-11T11:12:09.999Z</time></trkpt><trkpt lat="43.77442104668107" lon="12.336740147110634"><ele>719.8</ele><time>2026-04-11T11:12:10.999Z</time></trkpt><trkpt lat="43.77451898178554" lon="12.336666621814876"><ele>718.2</ele><time>2026-04-11T11:12:11.999Z</time></trkpt><trkpt lat="43.77462031888547" lon="12.336603251649889"><ele>716.6</ele><time>2026-04-11T11:12:12.999Z</time></trkpt><trkpt lat="43.7747220245249" lon="12.336540919326199"><ele>715.0</ele><time>2026-04-11T11:12:13.999Z</time></trkpt><trkpt lat="43.774820910137805" lon="12.336475524181191"><ele>715.0</ele><time>2026-04-11T11:12:14.999Z</time></trkpt><trkpt lat="43.77492983471614" lon="12.336420910616019"><ele>715.0</ele><time>2026-04-11T11:12:15.999Z</time></trkpt><trkpt lat="43.775044613387834" lon="12.336374773888425"><ele>715.0</ele><time>2026-04-11T11:12:16.999Z</time></trkpt><trkpt lat="43.77516539340068" lon="12.33634231011887"><ele>715.0</ele><time>2026-04-11T11:12:17.999Z</time></trkpt><trkpt lat="43.775289619589664" lon="12.336332546645988"><ele>715.75</ele><time>2026-04-11T11:12:18.999Z</time></trkpt><trkpt lat="43.77541950303382" lon="12.336341900938613"><ele>716.5</ele><time>2026-04-11T11:12:19.999Z</time></trkpt><trkpt lat="43.775549789414356" lon="12.336361297359097"><ele>717.25</ele><time>2026-04-11T11:12:20.999Z</time></trkpt><trkpt lat="43.7756808297255" lon="12.336370875486537"><ele>718.0</ele><time>2026-04-11T11:12:21.999Z</time></trkpt><trkpt lat="43.775812039215744" lon="12.336380931983319"><ele>717.5</ele><time>2026-04-11T11:12:22.999Z</time></trkpt><trkpt lat="43.77594242979052" lon="12.336388689633772"><ele>717.0</ele><time>2026-04-11T11:12:23.999Z</time></trkpt><trkpt lat="43.77607187029543" lon="12.33639097491973"><ele>716.5</ele><time>2026-04-11T11:12:24.999Z</time></trkpt><trkpt lat="43.77620015729094" lon="12.336389775495752"><ele>716.0</ele><time>2026-04-11T11:12:25.999Z</time></trkpt><trkpt lat="43.77632865560878" lon="12.33638920749163"><ele>717.0</ele><time>2026-04-11T11:12:26.999Z</time></trkpt><trkpt lat="43.776456538988334" lon="12.336390334159574"><ele>718.0</ele><time>2026-04-11T11:12:27.999Z</time></trkpt><trkpt lat="43.77658232596963" lon="12.33638703227069"><ele>719.0</ele><time>2026-04-11T11:12:28.999Z</time></trkpt><trkpt lat="43.77670626534059" lon="12.336376938435535"><ele>720.0</ele><time>2026-04-11T11:12:30Z</time></trkpt><trkpt lat="43.77683023624104" lon="12.336368677868967"><ele>722.0</ele><time>2026-04-11T11:12:31Z</time></trkpt><trkpt lat="43.77695340508502" lon="12.33636894051754"><ele>724.0</ele><time>2026-04-11T11:12:32Z</time></trkpt><trkpt lat="43.77707586596833" lon="12.336370056405775"><ele>726.0</ele><time>2026-04-11T11:12:33Z</time></trkpt><trkpt lat="43.77719881443411" lon="12.336368381260197"><ele>728.0</ele><time>2026-04-11T11:12:34Z</time></trkpt><trkpt lat="43.777321087589264" lon="12.336366383470825"><ele>728.0</ele><time>2026-04-11T11:12:35Z</time></trkpt><trkpt lat="43.777434691397296" lon="12.336363490646187"><ele>728.0</ele><time>2026-04-11T11:12:36Z</time></trkpt><trkpt lat="43.77753880235479" lon="12.336361847298882"><ele>728.0</ele><time>2026-04-11T11:12:37Z</time></trkpt><trkpt lat="43.77763125969744" lon="12.336363102242169"><ele>728.0</ele><time>2026-04-11T11:12:38Z</time></trkpt><trkpt lat="43.777714952509015" lon="12.336365273492698"><ele>728.0</ele><time>2026-04-11T11:12:39Z</time></trkpt><trkpt lat="43.7777875582769" lon="12.336371551383541"><ele>727.8333333333333</ele><time>2026-04-11T11:12:40Z</time></trkpt><trkpt lat="43.77785060297796" lon="12.33638290997924"><ele>727.6666666666666</ele><time>2026-04-11T11:12:41Z</time></trkpt><trkpt lat="43.7779386279508" lon="12.336376769004158"><ele>727.5</ele><time>2026-04-11T11:12:43Z</time></trkpt><trkpt lat="43.77800352407866" lon="12.336419549879546"><ele>727.3333333333334</ele><time>2026-04-11T11:12:45Z</time></trkpt><trkpt lat="43.77807506544708" lon="12.336463098851986"><ele>727.1666666666667</ele><time>2026-04-11T11:12:47Z</time></trkpt><trkpt lat="43.77812862104706" lon="12.33635442631364"><ele>727.0</ele><time>2026-04-11T11:12:48Z</time></trkpt><trkpt lat="43.77814313352481" lon="12.336269508584849"><ele>727.0</ele><time>2026-04-11T11:12:49Z</time></trkpt><trkpt lat="43.77813846270634" lon="12.336173826053255"><ele>727.0</ele><time>2026-04-11T11:12:50Z</time></trkpt><trkpt lat="43.778123900975906" lon="12.336066602333851"><ele>727.0</ele><time>2026-04-11T11:12:51Z</time></trkpt><trkpt lat="43.77811815948798" lon="12.33595071122426"><ele>727.0</ele><time>2026-04-11T11:12:52Z</time></trkpt><trkpt lat="43.77811742726103" lon="12.335821222070667"><ele>727.0</ele><time>2026-04-11T11:12:53Z</time></trkpt><trkpt lat="43.778115925218025" lon="12.335695585058563"><ele>727.0</ele><time>2026-04-11T11:12:54Z</time></trkpt><trkpt lat="43.778117978302376" lon="12.335574303318284"><ele>727.4000000000001</ele><time>2026-04-11T11:12:55Z</time></trkpt><trkpt lat="43.77812213830105" lon="12.335441262692385"><ele>727.8000000000001</ele><time>2026-04-11T11:12:56Z</time></trkpt><trkpt lat="43.7781246067526" lon="12.335301473438763"><ele>728.2</ele><time>2026-04-11T11:12:57Z</time></trkpt><trkpt lat="43.77812119781944" lon="12.335155218438068"><ele>728.6</ele><time>2026-04-11T11:12:58Z</time></trkpt><trkpt lat="43.778116432701324" lon="12.335006931542601"><ele>729.0</ele><time>2026-04-11T11:12:59Z</time></trkpt><trkpt lat="43.7781161858157" lon="12.334868625306404"><ele>729.0</ele><time>2026-04-11T11:13:00Z</time></trkpt><trkpt lat="43.77811839470859" lon="12.33472517561754"><ele>729.0</ele><time>2026-04-11T11:13:01Z</time></trkpt><trkpt lat="43.7781200040888" lon="12.334580725740048"><ele>729.0</ele><time>2026-04-11T11:13:02Z</time></trkpt><trkpt lat="43.77811838901188" lon="12.334433766184695"><ele>729.0</ele><time>2026-04-11T11:13:03Z</time></trkpt><trkpt lat="43.778116173354285" lon="12.334283013688193"><ele>729.0</ele><time>2026-04-11T11:13:04Z</time></trkpt><trkpt lat="43.7781140787419" lon="12.33413038802643"><ele>730.25</ele><time>2026-04-11T11:13:05Z</time></trkpt><trkpt lat="43.77811510935487" lon="12.333974304079893"><ele>731.5</ele><time>2026-04-11T11:13:06Z</time></trkpt><trkpt lat="43.778119241201445" lon="12.333816959695648"><ele>732.75</ele><time>2026-04-11T11:13:07Z</time></trkpt><trkpt lat="43.778119977157175" lon="12.33365848500585"><ele>734.0</ele><time>2026-04-11T11:13:08Z</time></trkpt><trkpt lat="43.77811422805012" lon="12.33349733764906"><ele>735.25</ele><time>2026-04-11T11:13:09Z</time></trkpt><trkpt lat="43.778109711771386" lon="12.33333605750543"><ele>736.5</ele><time>2026-04-11T11:13:10Z</time></trkpt><trkpt lat="43.778106307329125" lon="12.333171671790884"><ele>737.75</ele><time>2026-04-11T11:13:11Z</time></trkpt><trkpt lat="43.77810870131099" lon="12.333007841007294"><ele>739.0</ele><time>2026-04-11T11:13:12Z</time></trkpt><trkpt lat="43.77812390073876" lon="12.332841697325675"><ele>739.25</ele><time>2026-04-11T11:13:13Z</time></trkpt><trkpt lat="43.77814960723014" lon="12.332677351004254"><ele>739.5</ele><time>2026-04-11T11:13:14Z</time></trkpt><trkpt lat="43.778176727696454" lon="12.33250630996999"><ele>739.75</ele><time>2026-04-11T11:13:15Z</time></trkpt><trkpt lat="43.77821240939763" lon="12.33233255378351"><ele>740.0</ele><time>2026-04-11T11:13:16Z</time></trkpt><trkpt lat="43.77825759772681" lon="12.332160655612919"><ele>741.0</ele><time>2026-04-11T11:13:17Z</time></trkpt><trkpt lat="43.77831627332985" lon="12.331996163811711"><ele>742.0</ele><time>2026-04-11T11:13:18Z</time></trkpt><trkpt lat="43.77838116246045" lon="12.331848101648617"><ele>743.0</ele><time>2026-04-11T11:13:19Z</time></trkpt><trkpt lat="43.7784510386481" lon="12.331710180887628"><ele>744.0</ele><time>2026-04-11T11:13:20Z</time></trkpt><trkpt lat="43.778516350208484" lon="12.331588128428889"><ele>745.1666666666666</ele><time>2026-04-11T11:13:21Z</time></trkpt><trkpt lat="43.77857937884284" lon="12.331477957954405"><ele>746.3333333333334</ele><time>2026-04-11T11:13:22Z</time></trkpt><trkpt lat="43.778637938598045" lon="12.331372707165235"><ele>747.5</ele><time>2026-04-11T11:13:23Z</time></trkpt><trkpt lat="43.77869134599271" lon="12.331277725902131"><ele>748.6666666666667</ele><time>2026-04-11T11:13:24Z</time></trkpt><trkpt lat="43.778744566487006" lon="12.331187445295207"><ele>749.8333333333334</ele><time>2026-04-11T11:13:25Z</time></trkpt><trkpt lat="43.77880068259954" lon="12.331107887482597"><ele>751.0</ele><time>2026-04-11T11:13:26Z</time></trkpt><trkpt lat="43.7788643250122" lon="12.33104101429063"><ele>751.1666666666667</ele><time>2026-04-11T11:13:27Z</time></trkpt><trkpt lat="43.77892954313064" lon="12.330979018632595"><ele>751.3333333333334</ele><time>2026-04-11T11:13:28Z</time></trkpt><trkpt lat="43.77898456385392" lon="12.330914580629276"><ele>751.5</ele><time>2026-04-11T11:13:29Z</time></trkpt><trkpt lat="43.77902867633" lon="12.330840768746995"><ele>751.6666666666666</ele><time>2026-04-11T11:13:30Z</time></trkpt><trkpt lat="43.7790868131539" lon="12.330687181010262"><ele>751.8333333333333</ele><time>2026-04-11T11:13:32Z</time></trkpt><trkpt lat="43.779104768395214" lon="12.330602687753656"><ele>752.0</ele><time>2026-04-11T11:13:33Z</time></trkpt><trkpt lat="43.77911358396244" lon="12.33051393768549"><ele>753.2</ele><time>2026-04-11T11:13:34Z</time></trkpt><trkpt lat="43.77911044835338" lon="12.33033819469813"><ele>754.4000000000001</ele><time>2026-04-11T11:13:36Z</time></trkpt><trkpt lat="43.77910252503509" lon="12.33023992157229"><ele>755.5999999999999</ele><time>2026-04-11T11:13:37Z</time></trkpt><trkpt lat="43.77907377910028" lon="12.330138650219277"><ele>756.8</ele><time>2026-04-11T11:13:38Z</time></trkpt><trkpt lat="43.77903081118262" lon="12.330037068358463"><ele>758.0</ele><time>2026-04-11T11:13:39Z</time></trkpt><trkpt lat="43.7789765195173" lon="12.329930473726026"><ele>758.0</ele><time>2026-04-11T11:13:40Z</time></trkpt><trkpt lat="43.778914794143326" lon="12.329820456876444"><ele>758.0</ele><time>2026-04-11T11:13:41Z</time></trkpt><trkpt lat="43.77884907355082" lon="12.329711147175965"><ele>758.0</ele><time>2026-04-11T11:13:42Z</time></trkpt><trkpt lat="43.77877837231049" lon="12.32959991402409"><ele>758.0</ele><time>2026-04-11T11:13:43Z</time></trkpt><trkpt lat="43.77870322251448" lon="12.329480936071793"><ele>758.0</ele><time>2026-04-11T11:13:44Z</time></trkpt><trkpt lat="43.778627090325564" lon="12.329354761280275"><ele>758.25</ele><time>2026-04-11T11:13:45Z</time></trkpt><trkpt lat="43.77854676056576" lon="12.329226995824282"><ele>758.5</ele><time>2026-04-11T11:13:46Z</time></trkpt><trkpt lat="43.77845875574897" lon="12.329101634823253"><ele>758.75</ele><time>2026-04-11T11:13:46.999Z</time></trkpt><trkpt lat="43.77836644089339" lon="12.328974655895527"><ele>759.0</ele><time>2026-04-11T11:13:47.999Z</time></trkpt><trkpt lat="43.77827103606453" lon="12.328847280742504"><ele>760.25</ele><time>2026-04-11T11:13:48.999Z</time></trkpt><trkpt lat="43.77816370568098" lon="12.328732176137246"><ele>761.5</ele><time>2026-04-11T11:13:49.999Z</time></trkpt><trkpt lat="43.778044921300015" lon="12.328633242288074"><ele>762.75</ele><time>2026-04-11T11:13:50.999Z</time></trkpt><trkpt lat="43.77791744607814" lon="12.32854943158713"><ele>764.0</ele><time>2026-04-11T11:13:51.999Z</time></trkpt><trkpt lat="43.77779654955294" lon="12.328469131702274"><ele>763.75</ele><time>2026-04-11T11:13:52.999Z</time></trkpt><trkpt lat="43.777683203392456" lon="12.328400166779423"><ele>763.5</ele><time>2026-04-11T11:13:53.999Z</time></trkpt><trkpt lat="43.777582968006186" lon="12.328321509423763"><ele>763.25</ele><time>2026-04-11T11:13:54.999Z</time></trkpt><trkpt lat="43.77748536836097" lon="12.328226731856278"><ele>763.0</ele><time>2026-04-11T11:13:55.999Z</time></trkpt><trkpt lat="43.77739791405807" lon="12.328120873753505"><ele>764.25</ele><time>2026-04-11T11:13:56.999Z</time></trkpt><trkpt lat="43.77734755327106" lon="12.327974470534217"><ele>765.5</ele><time>2026-04-11T11:13:57.999Z</time></trkpt><trkpt lat="43.77733304580218" lon="12.32781571879306"><ele>766.75</ele><time>2026-04-11T11:13:58.999Z</time></trkpt><trkpt lat="43.777328969863014" lon="12.327656809157439"><ele>768.0</ele><time>2026-04-11T11:13:59.999Z</time></trkpt><trkpt lat="43.77732717775734" lon="12.327499283676064"><ele>768.0</ele><time>2026-04-11T11:14:00.999Z</time></trkpt><trkpt lat="43.77732306218078" lon="12.32734250990075"><ele>768.0</ele><time>2026-04-11T11:14:01.999Z</time></trkpt><trkpt lat="43.777305922476685" lon="12.327199341690534"><ele>768.0</ele><time>2026-04-11T11:14:02.999Z</time></trkpt><trkpt lat="43.777256448944456" lon="12.327064261744896"><ele>768.0</ele><time>2026-04-11T11:14:03.999Z</time></trkpt><trkpt lat="43.77718848872915" lon="12.326943393676203"><ele>768.0</ele><time>2026-04-11T11:14:04.999Z</time></trkpt><trkpt lat="43.77711715662448" lon="12.32682996414052"><ele>768.8</ele><time>2026-04-11T11:14:05.999Z</time></trkpt><trkpt lat="43.777031867851335" lon="12.326727337966572"><ele>769.5999999999999</ele><time>2026-04-11T11:14:06.999Z</time></trkpt><trkpt lat="43.77695864136959" lon="12.326633654261995"><ele>770.4000000000001</ele><time>2026-04-11T11:14:07.999Z</time></trkpt><trkpt lat="43.77689134643142" lon="12.326549889673425"><ele>771.2</ele><time>2026-04-11T11:14:08.999Z</time></trkpt><trkpt lat="43.77682476946002" lon="12.326472866049839"><ele>772.0</ele><time>2026-04-11T11:14:09.999Z</time></trkpt><trkpt lat="43.77675736216813" lon="12.326390204629247"><ele>773.1666666666666</ele><time>2026-04-11T11:14:10.999Z</time></trkpt><trkpt lat="43.77669252016678" lon="12.326306293220059"><ele>774.3333333333333</ele><time>2026-04-11T11:14:11.999Z</time></trkpt><trkpt lat="43.776631664967894" lon="12.326220126528336"><ele>775.5</ele><time>2026-04-11T11:14:12.999Z</time></trkpt><trkpt lat="43.77658197631883" lon="12.326141581594772"><ele>776.6666666666667</ele><time>2026-04-11T11:14:13.999Z</time></trkpt><trkpt lat="43.776540330658406" lon="12.3260482156018"><ele>777.8333333333334</ele><time>2026-04-11T11:14:14.999Z</time></trkpt><trkpt lat="43.77650698908178" lon="12.325941318392234"><ele>779.0</ele><time>2026-04-11T11:14:15.999Z</time></trkpt><trkpt lat="43.776485300176084" lon="12.325823271027428"><ele>779.0</ele><time>2026-04-11T11:14:16.999Z</time></trkpt><trkpt lat="43.776475491402465" lon="12.325701204377022"><ele>779.0</ele><time>2026-04-11T11:14:17.999Z</time></trkpt><trkpt lat="43.77648417957136" lon="12.325576369357089"><ele>779.0</ele><time>2026-04-11T11:14:18.999Z</time></trkpt><trkpt lat="43.77651697962713" lon="12.325449153132823"><ele>779.0</ele><time>2026-04-11T11:14:19.999Z</time></trkpt><trkpt lat="43.776554389107794" lon="12.32532687971386"><ele>779.0</ele><time>2026-04-11T11:14:20.999Z</time></trkpt><trkpt lat="43.7765885090201" lon="12.325201395600477"><ele>780.2</ele><time>2026-04-11T11:14:21.999Z</time></trkpt><trkpt lat="43.77663588159474" lon="12.325077660342865"><ele>781.4000000000001</ele><time>2026-04-11T11:14:22.999Z</time></trkpt><trkpt lat="43.776681225651316" lon="12.324948887325238"><ele>782.6</ele><time>2026-04-11T11:14:23.999Z</time></trkpt><trkpt lat="43.77672058055402" lon="12.324826075995357"><ele>783.8</ele><time>2026-04-11T11:14:24.999Z</time></trkpt><trkpt lat="43.77676711058479" lon="12.324703499376591"><ele>785.0</ele><time>2026-04-11T11:14:25.999Z</time></trkpt><trkpt lat="43.776811451728776" lon="12.324579654412862"><ele>786.6</ele><time>2026-04-11T11:14:26.999Z</time></trkpt><trkpt lat="43.77685697598682" lon="12.32445455884684"><ele>788.2</ele><time>2026-04-11T11:14:27.999Z</time></trkpt><trkpt lat="43.77690646878673" lon="12.324330215512417"><ele>789.8</ele><time>2026-04-11T11:14:28.999Z</time></trkpt><trkpt lat="43.77695799401216" lon="12.324210556767591"><ele>791.4</ele><time>2026-04-11T11:14:29.999Z</time></trkpt><trkpt lat="43.77700812932732" lon="12.32409189464426"><ele>793.0</ele><time>2026-04-11T11:14:30.999Z</time></trkpt><trkpt lat="43.77705765928447" lon="12.323977140783812"><ele>794.4</ele><time>2026-04-11T11:14:31.999Z</time></trkpt><trkpt lat="43.777101989811875" lon="12.323862595869503"><ele>795.8</ele><time>2026-04-11T11:14:32.999Z</time></trkpt><trkpt lat="43.77714633187542" lon="12.323743080362954"><ele>797.2</ele><time>2026-04-11T11:14:33.999Z</time></trkpt><trkpt lat="43.77720384086976" lon="12.3236330836997"><ele>798.6</ele><time>2026-04-11T11:14:34.999Z</time></trkpt><trkpt lat="43.77726760370443" lon="12.323524642396007"><ele>800.0</ele><time>2026-04-11T11:14:36Z</time></trkpt><trkpt lat="43.77734327351188" lon="12.323429851224345"><ele>800.0</ele><time>2026-04-11T11:14:37Z</time></trkpt><trkpt lat="43.77742971214508" lon="12.323348170454194"><ele>800.0</ele><time>2026-04-11T11:14:38Z</time></trkpt><trkpt lat="43.77752562646808" lon="12.323282820618187"><ele>800.0</ele><time>2026-04-11T11:14:39Z</time></trkpt><trkpt lat="43.77762517026549" lon="12.32322415377215"><ele>800.0</ele><time>2026-04-11T11:14:40Z</time></trkpt><trkpt lat="43.77772848435705" lon="12.323168638603779"><ele>800.0</ele><time>2026-04-11T11:14:41Z</time></trkpt><trkpt lat="43.7778289787293" lon="12.323115590931195"><ele>800.8</ele><time>2026-04-11T11:14:42Z</time></trkpt><trkpt lat="43.777924795377565" lon="12.32306612239964"><ele>801.6</ele><time>2026-04-11T11:14:43Z</time></trkpt><trkpt lat="43.77801814587335" lon="12.323019053304199"><ele>802.4000000000001</ele><time>2026-04-11T11:14:44Z</time></trkpt><trkpt lat="43.77810791476418" lon="12.322977102563692"><ele>803.2</ele><time>2026-04-11T11:14:45Z</time></trkpt><trkpt lat="43.778195211549125" lon="12.322929799899535"><ele>804.0</ele><time>2026-04-11T11:14:46Z</time></trkpt><trkpt lat="43.77828203988694" lon="12.32288196011585"><ele>805.4000000000001</ele><time>2026-04-11T11:14:47Z</time></trkpt><trkpt lat="43.77837042101149" lon="12.322835909780412"><ele>806.8</ele><time>2026-04-11T11:14:48Z</time></trkpt><trkpt lat="43.778458929584104" lon="12.322786611864144"><ele>808.2</ele><time>2026-04-11T11:14:49Z</time></trkpt><trkpt lat="43.77854675989285" lon="12.322735150304055"><ele>809.5999999999999</ele><time>2026-04-11T11:14:50Z</time></trkpt><trkpt lat="43.77863352555573" lon="12.32268738664998"><ele>811.0</ele><time>2026-04-11T11:14:51Z</time></trkpt><trkpt lat="43.77872180825308" lon="12.32264026019761"><ele>811.5999999999999</ele><time>2026-04-11T11:14:52Z</time></trkpt><trkpt lat="43.77881260330929" lon="12.322592168641021"><ele>812.2</ele><time>2026-04-11T11:14:53Z</time></trkpt><trkpt lat="43.778904701989184" lon="12.32254126058602"><ele>812.8</ele><time>2026-04-11T11:14:54Z</time></trkpt><trkpt lat="43.778997140237855" lon="12.322490645512007"><ele>813.4000000000001</ele><time>2026-04-11T11:14:55Z</time></trkpt><trkpt lat="43.779087536258295" lon="12.322444442302022"><ele>814.0</ele><time>2026-04-11T11:14:56Z</time></trkpt><trkpt lat="43.77917784099843" lon="12.322398577892754"><ele>814.0</ele><time>2026-04-11T11:14:57Z</time></trkpt><trkpt lat="43.77926932373216" lon="12.32235604835311"><ele>814.0</ele><time>2026-04-11T11:14:58Z</time></trkpt><trkpt lat="43.77935813418892" lon="12.322307810913543"><ele>814.0</ele><time>2026-04-11T11:14:59Z</time></trkpt><trkpt lat="43.77943944092644" lon="12.322260872288505"><ele>814.0</ele><time>2026-04-11T11:15:00Z</time></trkpt><trkpt lat="43.779520349652614" lon="12.322215235269965"><ele>814.0</ele><time>2026-04-11T11:15:01Z</time></trkpt><trkpt lat="43.77960324059484" lon="12.322171406951247"><ele>815.8333333333333</ele><time>2026-04-11T11:15:02Z</time></trkpt><trkpt lat="43.77968701351748" lon="12.322133378420748"><ele>817.6666666666666</ele><time>2026-04-11T11:15:03Z</time></trkpt><trkpt lat="43.779770834019715" lon="12.322093625035732"><ele>819.5</ele><time>2026-04-11T11:15:04Z</time></trkpt><trkpt lat="43.779854481675756" lon="12.322048944563784"><ele>821.3333333333333</ele><time>2026-04-11T11:15:05Z</time></trkpt><trkpt lat="43.77993557865854" lon="12.321989491591017"><ele>823.1666666666666</ele><time>2026-04-11T11:15:06Z</time></trkpt><trkpt lat="43.78000783326983" lon="12.321912595353513"><ele>825.0</ele><time>2026-04-11T11:15:07Z</time></trkpt><trkpt lat="43.780076994658096" lon="12.321828118110222"><ele>825.0</ele><time>2026-04-11T11:15:08Z</time></trkpt><trkpt lat="43.78013349846032" lon="12.32173618760305"><ele>825.0</ele><time>2026-04-11T11:15:09Z</time></trkpt><trkpt lat="43.78016942450445" lon="12.321631242648944"><ele>825.0</ele><time>2026-04-11T11:15:10Z</time></trkpt><trkpt lat="43.78021272383505" lon="12.321530010763361"><ele>825.0</ele><time>2026-04-11T11:15:11Z</time></trkpt><trkpt lat="43.78021514841022" lon="12.321402175756065"><ele>825.0</ele><time>2026-04-11T11:15:12Z</time></trkpt><trkpt lat="43.78018423642252" lon="12.321283923464712"><ele>825.0</ele><time>2026-04-11T11:15:13Z</time></trkpt><trkpt lat="43.78016645663268" lon="12.321161132080912"><ele>827.0</ele><time>2026-04-11T11:15:14Z</time></trkpt><trkpt lat="43.78014608191234" lon="12.321037256205708"><ele>829.0</ele><time>2026-04-11T11:15:15Z</time></trkpt><trkpt lat="43.78011896063074" lon="12.320914990557828"><ele>831.0</ele><time>2026-04-11T11:15:16Z</time></trkpt><trkpt lat="43.780083815687995" lon="12.3207923878873"><ele>833.0</ele><time>2026-04-11T11:15:17Z</time></trkpt><trkpt lat="43.78004728965446" lon="12.32067519611199"><ele>835.0</ele><time>2026-04-11T11:15:18Z</time></trkpt><trkpt lat="43.78001779431969" lon="12.320557757650867"><ele>835.8</ele><time>2026-04-11T11:15:19Z</time></trkpt><trkpt lat="43.77998258511316" lon="12.320441622617825"><ele>836.6</ele><time>2026-04-11T11:15:20Z</time></trkpt><trkpt lat="43.77994795439203" lon="12.320322375324682"><ele>837.4000000000001</ele><time>2026-04-11T11:15:21Z</time></trkpt><trkpt lat="43.77991450903955" lon="12.320198792357646"><ele>838.2</ele><time>2026-04-11T11:15:22Z</time></trkpt><trkpt lat="43.779893742571815" lon="12.32006539106821"><ele>839.0</ele><time>2026-04-11T11:15:23Z</time></trkpt><trkpt lat="43.77988092443786" lon="12.319925048572818"><ele>839.0</ele><time>2026-04-11T11:15:24Z</time></trkpt><trkpt lat="43.77987300255162" lon="12.319777053038303"><ele>839.0</ele><time>2026-04-11T11:15:25Z</time></trkpt><trkpt lat="43.77987207399714" lon="12.319625696610972"><ele>839.0</ele><time>2026-04-11T11:15:26Z</time></trkpt><trkpt lat="43.779872023114265" lon="12.319468001269804"><ele>839.0</ele><time>2026-04-11T11:15:27Z</time></trkpt><trkpt lat="43.779873113797244" lon="12.319304283070087"><ele>839.0</ele><time>2026-04-11T11:15:28Z</time></trkpt><trkpt lat="43.77987652857082" lon="12.319134341611916"><ele>839.5</ele><time>2026-04-11T11:15:29Z</time></trkpt><trkpt lat="43.77988108897661" lon="12.3189592776746"><ele>840.0</ele><time>2026-04-11T11:15:30Z</time></trkpt><trkpt lat="43.779891336065354" lon="12.318780974208112"><ele>840.5</ele><time>2026-04-11T11:15:31Z</time></trkpt><trkpt lat="43.779907129199714" lon="12.318600277262107"><ele>841.0</ele><time>2026-04-11T11:15:32Z</time></trkpt><trkpt lat="43.77992314803409" lon="12.31841956051093"><ele>842.25</ele><time>2026-04-11T11:15:33Z</time></trkpt><trkpt lat="43.7799369132257" lon="12.318237463713693"><ele>843.5</ele><time>2026-04-11T11:15:34Z</time></trkpt><trkpt lat="43.779946818646266" lon="12.31805956063901"><ele>844.75</ele><time>2026-04-11T11:15:35Z</time></trkpt><trkpt lat="43.77995562335922" lon="12.317884747725966"><ele>846.0</ele><time>2026-04-11T11:15:36Z</time></trkpt><trkpt lat="43.77995039224456" lon="12.317715870391408"><ele>847.5</ele><time>2026-04-11T11:15:37Z</time></trkpt><trkpt lat="43.77992777171997" lon="12.31755268050338"><ele>849.0</ele><time>2026-04-11T11:15:38Z</time></trkpt><trkpt lat="43.779891759578234" lon="12.317391151831663"><ele>850.5</ele><time>2026-04-11T11:15:39Z</time></trkpt><trkpt lat="43.77984067402077" lon="12.317238091105185"><ele>852.0</ele><time>2026-04-11T11:15:40Z</time></trkpt><trkpt lat="43.77976407118547" lon="12.317106126260715"><ele>853.6</ele><time>2026-04-11T11:15:41Z</time></trkpt><trkpt lat="43.77968852420626" lon="12.316975444394746"><ele>855.2</ele><time>2026-04-11T11:15:42Z</time></trkpt><trkpt lat="43.77961781758129" lon="12.31685015531515"><ele>856.8</ele><time>2026-04-11T11:15:43Z</time></trkpt><trkpt lat="43.77955432954831" lon="12.316735754755774"><ele>858.4</ele><time>2026-04-11T11:15:44Z</time></trkpt><trkpt lat="43.779496617256754" lon="12.31662607762589"><ele>860.0</ele><time>2026-04-11T11:15:45Z</time></trkpt><trkpt lat="43.77944064197222" lon="12.31650371754851"><ele>861.2</ele><time>2026-04-11T11:15:46Z</time></trkpt><trkpt lat="43.77940098686101" lon="12.316366874370457"><ele>862.4</ele><time>2026-04-11T11:15:47Z</time></trkpt><trkpt lat="43.779377407133296" lon="12.316217675306369"><ele>863.5999999999999</ele><time>2026-04-11T11:15:48Z</time></trkpt><trkpt lat="43.77936980709647" lon="12.316059116440139"><ele>864.8</ele><time>2026-04-11T11:15:49Z</time></trkpt><trkpt lat="43.77937590196669" lon="12.31589855623153"><ele>866.0</ele><time>2026-04-11T11:15:50Z</time></trkpt><trkpt lat="43.7794027164723" lon="12.3157406091046"><ele>866.0</ele><time>2026-04-11T11:15:51Z</time></trkpt><trkpt lat="43.77945063195201" lon="12.315594076611202"><ele>865.9999999999999</ele><time>2026-04-11T11:15:52Z</time></trkpt><trkpt lat="43.77951498693665" lon="12.315469550361458"><ele>865.9999999999999</ele><time>2026-04-11T11:15:53Z</time></trkpt><trkpt lat="43.779582401533915" lon="12.315348053837017"><ele>866.0</ele><time>2026-04-11T11:15:54Z</time></trkpt><trkpt lat="43.77963852922148" lon="12.315224064200507"><ele>866.0</ele><time>2026-04-11T11:15:55Z</time></trkpt><trkpt lat="43.77968636794405" lon="12.315109536833853"><ele>866.4</ele><time>2026-04-11T11:15:56Z</time></trkpt><trkpt lat="43.779727225887" lon="12.314983358223465"><ele>866.8</ele><time>2026-04-11T11:15:57Z</time></trkpt><trkpt lat="43.77975342783209" lon="12.314845058605005"><ele>867.1999999999999</ele><time>2026-04-11T11:15:58Z</time></trkpt><trkpt lat="43.779771615010866" lon="12.31470103419023"><ele>867.5999999999999</ele><time>2026-04-11T11:15:58.999Z</time></trkpt><trkpt lat="43.7797898319374" lon="12.314556779055271"><ele>868.0</ele><time>2026-04-11T11:15:59.999Z</time></trkpt><trkpt lat="43.779803163407045" lon="12.314404421255347"><ele>869.0</ele><time>2026-04-11T11:16:00.999Z</time></trkpt><trkpt lat="43.77979889627511" lon="12.31425622678789"><ele>870.0</ele><time>2026-04-11T11:16:01.999Z</time></trkpt><trkpt lat="43.779767799817506" lon="12.314112150550907"><ele>871.0</ele><time>2026-04-11T11:16:02.999Z</time></trkpt><trkpt lat="43.779706689025716" lon="12.313984012891304"><ele>872.0</ele><time>2026-04-11T11:16:03.999Z</time></trkpt><trkpt lat="43.77961780185463" lon="12.31388226856066"><ele>873.0</ele><time>2026-04-11T11:16:04.999Z</time></trkpt><trkpt lat="43.779520018861994" lon="12.313797694271859"><ele>873.0</ele><time>2026-04-11T11:16:05.999Z</time></trkpt><trkpt lat="43.77941851539213" lon="12.3137206671172"><ele>873.0</ele><time>2026-04-11T11:16:06.999Z</time></trkpt><trkpt lat="43.779318635262364" lon="12.313638850298098"><ele>873.0</ele><time>2026-04-11T11:16:07.999Z</time></trkpt><trkpt lat="43.77922254770862" lon="12.313555175624082"><ele>873.0</ele><time>2026-04-11T11:16:08.999Z</time></trkpt><trkpt lat="43.77912682176458" lon="12.313476504000349"><ele>873.0</ele><time>2026-04-11T11:16:09.999Z</time></trkpt><trkpt lat="43.7790233298097" lon="12.313412967758651"><ele>873.0</ele><time>2026-04-11T11:16:10.999Z</time></trkpt><trkpt lat="43.77891852778969" lon="12.313356469923216"><ele>873.0</ele><time>2026-04-11T11:16:11.999Z</time></trkpt><trkpt lat="43.77880774253666" lon="12.313317035809895"><ele>873.0</ele><time>2026-04-11T11:16:12.999Z</time></trkpt><trkpt lat="43.778695976942025" lon="12.313286129771155"><ele>873.0</ele><time>2026-04-11T11:16:13.999Z</time></trkpt><trkpt lat="43.778584010536925" lon="12.313254341601427"><ele>873.0</ele><time>2026-04-11T11:16:14.999Z</time></trkpt><trkpt lat="43.77847038356547" lon="12.313219894423746"><ele>873.0</ele><time>2026-04-11T11:16:15.999Z</time></trkpt><trkpt lat="43.77835520735523" lon="12.313180487488095"><ele>873.0</ele><time>2026-04-11T11:16:16.999Z</time></trkpt><trkpt lat="43.778244270427024" lon="12.31312381572169"><ele>874.75</ele><time>2026-04-11T11:16:17.999Z</time></trkpt><trkpt lat="43.77814308846431" lon="12.313035410968359"><ele>876.5</ele><time>2026-04-11T11:16:18.999Z</time></trkpt><trkpt lat="43.77806349259808" lon="12.312909772602367"><ele>878.25</ele><time>2026-04-11T11:16:19.999Z</time></trkpt><trkpt lat="43.77800034274996" lon="12.31276746749288"><ele>880.0</ele><time>2026-04-11T11:16:20.999Z</time></trkpt><trkpt lat="43.777969484212065" lon="12.312604750444818"><ele>880.0</ele><time>2026-04-11T11:16:21.999Z</time></trkpt><trkpt lat="43.77796489635365" lon="12.31243677441762"><ele>880.0</ele><time>2026-04-11T11:16:22.999Z</time></trkpt><trkpt lat="43.77796716102365" lon="12.312270671952872"><ele>880.0</ele><time>2026-04-11T11:16:23.999Z</time></trkpt><trkpt lat="43.777975662139035" lon="12.312106017611383"><ele>880.0</ele><time>2026-04-11T11:16:24.999Z</time></trkpt><trkpt lat="43.777995186217105" lon="12.311943889062382"><ele>881.75</ele><time>2026-04-11T11:16:25.999Z</time></trkpt><trkpt lat="43.77802083309572" lon="12.311790284417823"><ele>883.5</ele><time>2026-04-11T11:16:26.999Z</time></trkpt><trkpt lat="43.778047335449074" lon="12.311636672168396"><ele>885.25</ele><time>2026-04-11T11:16:27.999Z</time></trkpt><trkpt lat="43.7780801653915" lon="12.311485111186434"><ele>887.0</ele><time>2026-04-11T11:16:28.999Z</time></trkpt><trkpt lat="43.778112700864504" lon="12.311337437952764"><ele>888.4000000000001</ele><time>2026-04-11T11:16:29.999Z</time></trkpt><trkpt lat="43.77814800753065" lon="12.311194423528836"><ele>889.8000000000001</ele><time>2026-04-11T11:16:30.999Z</time></trkpt><trkpt lat="43.77818022867508" lon="12.311055560420192"><ele>891.2</ele><time>2026-04-11T11:16:31.999Z</time></trkpt><trkpt lat="43.778204627662284" lon="12.310934279238463"><ele>892.6</ele><time>2026-04-11T11:16:32.999Z</time></trkpt><trkpt lat="43.77823592908051" lon="12.310828172353318"><ele>894.0</ele><time>2026-04-11T11:16:33.999Z</time></trkpt><trkpt lat="43.77826970545657" lon="12.31071554016874"><ele>894.0</ele><time>2026-04-11T11:16:34.999Z</time></trkpt><trkpt lat="43.77830599793798" lon="12.310599222281768"><ele>894.0</ele><time>2026-04-11T11:16:35.999Z</time></trkpt><trkpt lat="43.77835151176606" lon="12.310487335837117"><ele>894.0</ele><time>2026-04-11T11:16:36.999Z</time></trkpt><trkpt lat="43.778397697120155" lon="12.310384695559652"><ele>894.0</ele><time>2026-04-11T11:16:37.999Z</time></trkpt><trkpt lat="43.7784423002206" lon="12.310292684587365"><ele>894.0</ele><time>2026-04-11T11:16:38.999Z</time></trkpt><trkpt lat="43.77848619597568" lon="12.310198724719408"><ele>894.0</ele><time>2026-04-11T11:16:39.999Z</time></trkpt><trkpt lat="43.77853200237902" lon="12.310107812910967"><ele>895.6666666666666</ele><time>2026-04-11T11:16:40.999Z</time></trkpt><trkpt lat="43.778578066951034" lon="12.310023916404269"><ele>897.3333333333333</ele><time>2026-04-11T11:16:42Z</time></trkpt><trkpt lat="43.7786136178929" lon="12.30994281333022"><ele>899.0</ele><time>2026-04-11T11:16:43Z</time></trkpt><trkpt lat="43.778647457775136" lon="12.309856265407017"><ele>900.6666666666666</ele><time>2026-04-11T11:16:44Z</time></trkpt><trkpt lat="43.77869130544505" lon="12.309770223616235"><ele>902.3333333333333</ele><time>2026-04-11T11:16:45Z</time></trkpt><trkpt lat="43.77873997426982" lon="12.309682981209491"><ele>904.0</ele><time>2026-04-11T11:16:46Z</time></trkpt><trkpt lat="43.77879355717623" lon="12.309594355683133"><ele>904.6</ele><time>2026-04-11T11:16:47Z</time></trkpt><trkpt lat="43.778857577815764" lon="12.309513874545893"><ele>905.2</ele><time>2026-04-11T11:16:48Z</time></trkpt><trkpt lat="43.77893230772718" lon="12.309443596879234"><ele>905.8000000000001</ele><time>2026-04-11T11:16:49Z</time></trkpt><trkpt lat="43.779013596697965" lon="12.309380172755732"><ele>906.4000000000001</ele><time>2026-04-11T11:16:50Z</time></trkpt><trkpt lat="43.77909430366846" lon="12.309331848834269"><ele>907.0</ele><time>2026-04-11T11:16:51Z</time></trkpt><trkpt lat="43.779178631235936" lon="12.309281561624863"><ele>907.0</ele><time>2026-04-11T11:16:52Z</time></trkpt><trkpt lat="43.77926122993141" lon="12.309223389698348"><ele>907.0</ele><time>2026-04-11T11:16:53Z</time></trkpt><trkpt lat="43.779343912571896" lon="12.30916489358985"><ele>907.0</ele><time>2026-04-11T11:16:54Z</time></trkpt><trkpt lat="43.779425021467006" lon="12.309111109898803"><ele>907.0</ele><time>2026-04-11T11:16:55Z</time></trkpt><trkpt lat="43.77951040286554" lon="12.309058287824774"><ele>907.0</ele><time>2026-04-11T11:16:56Z</time></trkpt><trkpt lat="43.77959439703046" lon="12.30900463557534"><ele>908.2</ele><time>2026-04-11T11:16:57Z</time></trkpt><trkpt lat="43.77967837260202" lon="12.308948548990543"><ele>909.4000000000001</ele><time>2026-04-11T11:16:58Z</time></trkpt><trkpt lat="43.77976033437089" lon="12.308891878292423"><ele>910.5999999999999</ele><time>2026-04-11T11:16:59Z</time></trkpt><trkpt lat="43.77984069451459" lon="12.308835387435177"><ele>911.8</ele><time>2026-04-11T11:17:00Z</time></trkpt><trkpt lat="43.77992071727008" lon="12.308776251812004"><ele>913.0</ele><time>2026-04-11T11:17:01Z</time></trkpt><trkpt lat="43.77999442057239" lon="12.30870240487868"><ele>913.5999999999999</ele><time>2026-04-11T11:17:02Z</time></trkpt><trkpt lat="43.78005756678495" lon="12.308608365843972"><ele>914.1999999999999</ele><time>2026-04-11T11:17:03Z</time></trkpt><trkpt lat="43.780107869812966" lon="12.308500727149728"><ele>914.8</ele><time>2026-04-11T11:17:04Z</time></trkpt><trkpt lat="43.780154291193455" lon="12.308389099178905"><ele>915.4</ele><time>2026-04-11T11:17:05Z</time></trkpt><trkpt lat="43.78019413565801" lon="12.30827052125264"><ele>916.0</ele><time>2026-04-11T11:17:06Z</time></trkpt><trkpt lat="43.78022127291089" lon="12.308146194562754"><ele>918.1999999999999</ele><time>2026-04-11T11:17:07Z</time></trkpt><trkpt lat="43.780241762564685" lon="12.30802345381995"><ele>920.3999999999999</ele><time>2026-04-11T11:17:08Z</time></trkpt><trkpt lat="43.78026578809227" lon="12.307903114002093"><ele>922.6</ele><time>2026-04-11T11:17:09Z</time></trkpt><trkpt lat="43.7802893831759" lon="12.307777957231028"><ele>924.8</ele><time>2026-04-11T11:17:10Z</time></trkpt><trkpt lat="43.780312024821306" lon="12.307653213076208"><ele>927.0</ele><time>2026-04-11T11:17:11Z</time></trkpt><trkpt lat="43.780338677847375" lon="12.307527430750724"><ele>927.0</ele><time>2026-04-11T11:17:12Z</time></trkpt><trkpt lat="43.78036323525614" lon="12.3074073363654"><ele>927.0</ele><time>2026-04-11T11:17:13Z</time></trkpt><trkpt lat="43.78038126132925" lon="12.307287458775782"><ele>927.0</ele><time>2026-04-11T11:17:14Z</time></trkpt><trkpt lat="43.78040122885809" lon="12.307161924654023"><ele>927.0</ele><time>2026-04-11T11:17:15Z</time></trkpt><trkpt lat="43.78042089488452" lon="12.307033891335163"><ele>927.0</ele><time>2026-04-11T11:17:16Z</time></trkpt><trkpt lat="43.78044101033269" lon="12.306902153917562"><ele>928.2</ele><time>2026-04-11T11:17:17Z</time></trkpt><trkpt lat="43.780464098069814" lon="12.306771441270145"><ele>929.4000000000001</ele><time>2026-04-11T11:17:18Z</time></trkpt><trkpt lat="43.78048940839861" lon="12.306642173062587"><ele>930.5999999999999</ele><time>2026-04-11T11:17:19Z</time></trkpt><trkpt lat="43.78051213132388" lon="12.306509285909513"><ele>931.8</ele><time>2026-04-11T11:17:20Z</time></trkpt><trkpt lat="43.7805332137518" lon="12.306378577405326"><ele>933.0</ele><time>2026-04-11T11:17:21Z</time></trkpt><trkpt lat="43.78055967507187" lon="12.306251188473166"><ele>933.5999999999999</ele><time>2026-04-11T11:17:22Z</time></trkpt><trkpt lat="43.78058385414661" lon="12.30612639919664"><ele>934.1999999999999</ele><time>2026-04-11T11:17:23Z</time></trkpt><trkpt lat="43.78060595640568" lon="12.30600405758018"><ele>934.8</ele><time>2026-04-11T11:17:24Z</time></trkpt><trkpt lat="43.78062917769696" lon="12.305880471097023"><ele>935.4</ele><time>2026-04-11T11:17:25Z</time></trkpt><trkpt lat="43.78065168021158" lon="12.305755189041777"><ele>936.0</ele><time>2026-04-11T11:17:26Z</time></trkpt><trkpt lat="43.78067472587533" lon="12.305629726584499"><ele>937.0</ele><time>2026-04-11T11:17:27Z</time></trkpt><trkpt lat="43.78069444656842" lon="12.30550276080355"><ele>937.9999999999999</ele><time>2026-04-11T11:17:28Z</time></trkpt><trkpt lat="43.78071477987751" lon="12.305378600475024"><ele>938.9999999999999</ele><time>2026-04-11T11:17:29Z</time></trkpt><trkpt lat="43.78074073529843" lon="12.305258356747704"><ele>940.0</ele><time>2026-04-11T11:17:30Z</time></trkpt><trkpt lat="43.78076599806669" lon="12.305136223655655"><ele>941.0</ele><time>2026-04-11T11:17:31Z</time></trkpt><trkpt lat="43.78078389038492" lon="12.305010032419354"><ele>941.0</ele><time>2026-04-11T11:17:32Z</time></trkpt><trkpt lat="43.78080432921064" lon="12.304885889454416"><ele>940.9999999999999</ele><time>2026-04-11T11:17:33Z</time></trkpt><trkpt lat="43.780823676592526" lon="12.304763082002506"><ele>940.9999999999999</ele><time>2026-04-11T11:17:34Z</time></trkpt><trkpt lat="43.780834053853795" lon="12.304642529483852"><ele>941.0</ele><time>2026-04-11T11:17:35Z</time></trkpt><trkpt lat="43.78083194330657" lon="12.304520732511511"><ele>941.0</ele><time>2026-04-11T11:17:36Z</time></trkpt><trkpt lat="43.78082905959897" lon="12.304394068780878"><ele>941.5999999999999</ele><time>2026-04-11T11:17:37Z</time></trkpt><trkpt lat="43.78081497529111" lon="12.30427273166566"><ele>942.1999999999999</ele><time>2026-04-11T11:17:38Z</time></trkpt><trkpt lat="43.780780106011015" lon="12.304152034479044"><ele>942.8000000000001</ele><time>2026-04-11T11:17:39Z</time></trkpt><trkpt lat="43.78073636182184" lon="12.30403135445934"><ele>943.4000000000001</ele><time>2026-04-11T11:17:40Z</time></trkpt><trkpt lat="43.780695182071426" lon="12.303905783161854"><ele>944.0</ele><time>2026-04-11T11:17:41Z</time></trkpt><trkpt lat="43.78066016312247" lon="12.303775441642987"><ele>945.4000000000001</ele><time>2026-04-11T11:17:42Z</time></trkpt><trkpt lat="43.78062754510259" lon="12.303645482008138"><ele>946.8000000000001</ele><time>2026-04-11T11:17:43Z</time></trkpt><trkpt lat="43.78059302405853" lon="12.303519836476667"><ele>948.1999999999999</ele><time>2026-04-11T11:17:44Z</time></trkpt><trkpt lat="43.78056328635761" lon="12.303400995709998"><ele>949.5999999999999</ele><time>2026-04-11T11:17:45Z</time></trkpt><trkpt lat="43.78053549808732" lon="12.303287277646003"><ele>951.0</ele><time>2026-04-11T11:17:46Z</time></trkpt><trkpt lat="43.78051128672504" lon="12.303175478216927"><ele>952.0</ele><time>2026-04-11T11:17:47Z</time></trkpt><trkpt lat="43.78048877700703" lon="12.303058182181163"><ele>952.9999999999999</ele><time>2026-04-11T11:17:48Z</time></trkpt><trkpt lat="43.78047005317226" lon="12.302936718169919"><ele>953.9999999999999</ele><time>2026-04-11T11:17:49Z</time></trkpt><trkpt lat="43.780456810927184" lon="12.302814380912368"><ele>955.0</ele><time>2026-04-11T11:17:50Z</time></trkpt><trkpt lat="43.780466850759176" lon="12.302685301014202"><ele>956.0</ele><time>2026-04-11T11:17:51Z</time></trkpt><trkpt lat="43.78049700002495" lon="12.302556291680057"><ele>956.0</ele><time>2026-04-11T11:17:52Z</time></trkpt><trkpt lat="43.78053431195245" lon="12.302429735058517"><ele>955.9999999999999</ele><time>2026-04-11T11:17:53Z</time></trkpt><trkpt lat="43.780591080665" lon="12.302317037275982"><ele>955.9999999999999</ele><time>2026-04-11T11:17:54Z</time></trkpt><trkpt lat="43.78066727653915" lon="12.302232713811712"><ele>956.0</ele><time>2026-04-11T11:17:55Z</time></trkpt><trkpt lat="43.78075727545211" lon="12.302179058435296"><ele>956.0</ele><time>2026-04-11T11:17:56Z</time></trkpt><trkpt lat="43.780855566478095" lon="12.302156079601168"><ele>955.8</ele><time>2026-04-11T11:17:57Z</time></trkpt><trkpt lat="43.780950086907396" lon="12.30217117176554"><ele>955.5999999999999</ele><time>2026-04-11T11:17:58Z</time></trkpt><trkpt lat="43.78104324362745" lon="12.302210668135434"><ele>955.4</ele><time>2026-04-11T11:17:59Z</time></trkpt><trkpt lat="43.78112698245203" lon="12.302275700738283"><ele>955.2</ele><time>2026-04-11T11:18:00Z</time></trkpt><trkpt lat="43.78120603794565" lon="12.302341684760362"><ele>955.0</ele><time>2026-04-11T11:18:01Z</time></trkpt><trkpt lat="43.781286445971986" lon="12.302398096849911"><ele>956.6</ele><time>2026-04-11T11:18:02Z</time></trkpt><trkpt lat="43.78137150438553" lon="12.302442843501186"><ele>958.2</ele><time>2026-04-11T11:18:03Z</time></trkpt><trkpt lat="43.78144909630192" lon="12.302458476880162"><ele>959.8</ele><time>2026-04-11T11:18:04Z</time></trkpt><trkpt lat="43.781538297704856" lon="12.302433067617585"><ele>961.4</ele><time>2026-04-11T11:18:05Z</time></trkpt><trkpt lat="43.78161623277131" lon="12.30237275813023"><ele>963.0</ele><time>2026-04-11T11:18:06Z</time></trkpt><trkpt lat="43.7817053093052" lon="12.302293412692933"><ele>963.2</ele><time>2026-04-11T11:18:07Z</time></trkpt><trkpt lat="43.78178847482872" lon="12.302221940482726"><ele>963.4</ele><time>2026-04-11T11:18:08Z</time></trkpt><trkpt lat="43.781872537514786" lon="12.302153702871435"><ele>963.6000000000001</ele><time>2026-04-11T11:18:09Z</time></trkpt><trkpt lat="43.78194836564485" lon="12.302056196359215"><ele>963.8000000000001</ele><time>2026-04-11T11:18:10Z</time></trkpt><trkpt lat="43.78203302918347" lon="12.301998729263655"><ele>964.0</ele><time>2026-04-11T11:18:10.999Z</time></trkpt><trkpt lat="43.78210737967491" lon="12.30192809230046"><ele>965.2</ele><time>2026-04-11T11:18:11.999Z</time></trkpt><trkpt lat="43.78218905864719" lon="12.301865956675071"><ele>966.4000000000001</ele><time>2026-04-11T11:18:12.999Z</time></trkpt><trkpt lat="43.78227096881443" lon="12.301804521561966"><ele>967.6</ele><time>2026-04-11T11:18:13.999Z</time></trkpt><trkpt lat="43.782361015852906" lon="12.301761718488347"><ele>968.8</ele><time>2026-04-11T11:18:14.999Z</time></trkpt><trkpt lat="43.78245773142389" lon="12.301747096194747"><ele>970.0</ele><time>2026-04-11T11:18:15.999Z</time></trkpt><trkpt lat="43.78255409370773" lon="12.301764832245544"><ele>970.0</ele><time>2026-04-11T11:18:16.999Z</time></trkpt><trkpt lat="43.78264460899214" lon="12.30181355650632"><ele>970.0</ele><time>2026-04-11T11:18:17.999Z</time></trkpt><trkpt lat="43.78273096142958" lon="12.301871620208882"><ele>970.0</ele><time>2026-04-11T11:18:18.999Z</time></trkpt><trkpt lat="43.78281470776025" lon="12.301937829942025"><ele>970.0</ele><time>2026-04-11T11:18:19.999Z</time></trkpt><trkpt lat="43.782893497091365" lon="12.302014356338232"><ele>970.0</ele><time>2026-04-11T11:18:20.999Z</time></trkpt><trkpt lat="43.782976400458686" lon="12.30208364777796"><ele>971.6</ele><time>2026-04-11T11:18:21.999Z</time></trkpt><trkpt lat="43.78306236416454" lon="12.302146997606167"><ele>973.2</ele><time>2026-04-11T11:18:22.999Z</time></trkpt><trkpt lat="43.78314682490899" lon="12.302220183735564"><ele>974.8</ele><time>2026-04-11T11:18:23.999Z</time></trkpt><trkpt lat="43.78322990854861" lon="12.302302812961955"><ele>976.4</ele><time>2026-04-11T11:18:24.999Z</time></trkpt><trkpt lat="43.783317142420564" lon="12.302381306340257"><ele>978.0</ele><time>2026-04-11T11:18:25.999Z</time></trkpt><trkpt lat="43.783405310426836" lon="12.302453217636826"><ele>978.0</ele><time>2026-04-11T11:18:26.999Z</time></trkpt><trkpt lat="43.78349256427852" lon="12.302523977100796"><ele>978.0</ele><time>2026-04-11T11:18:27.999Z</time></trkpt><trkpt lat="43.783572666087174" lon="12.302590772218526"><ele>978.0</ele><time>2026-04-11T11:18:28.999Z</time></trkpt><trkpt lat="43.783648824655664" lon="12.302650236614728"><ele>978.0</ele><time>2026-04-11T11:18:29.999Z</time></trkpt><trkpt lat="43.783719205308714" lon="12.302701174494294"><ele>978.0</ele><time>2026-04-11T11:18:30.999Z</time></trkpt><trkpt lat="43.783791614830534" lon="12.302757796762094"><ele>978.0</ele><time>2026-04-11T11:18:31.999Z</time></trkpt><trkpt lat="43.78386201706174" lon="12.302801811548312"><ele>979.1666666666666</ele><time>2026-04-11T11:18:32.999Z</time></trkpt><trkpt lat="43.78393157710107" lon="12.302828720507554"><ele>980.3333333333333</ele><time>2026-04-11T11:18:33.999Z</time></trkpt><trkpt lat="43.78401071793594" lon="12.302834983951463"><ele>981.5</ele><time>2026-04-11T11:18:34.999Z</time></trkpt><trkpt lat="43.78409122795018" lon="12.30281961295538"><ele>982.6666666666666</ele><time>2026-04-11T11:18:35.999Z</time></trkpt><trkpt lat="43.784171327573546" lon="12.302779738746406"><ele>983.8333333333333</ele><time>2026-04-11T11:18:36.999Z</time></trkpt><trkpt lat="43.78424677320295" lon="12.30271605349765"><ele>985.0</ele><time>2026-04-11T11:18:37.999Z</time></trkpt><trkpt lat="43.78432191071105" lon="12.302641826064113"><ele>986.8</ele><time>2026-04-11T11:18:38.999Z</time></trkpt><trkpt lat="43.784402984465316" lon="12.302569433908209"><ele>988.6</ele><time>2026-04-11T11:18:39.999Z</time></trkpt><trkpt lat="43.78448444363422" lon="12.302486619209999"><ele>990.4000000000001</ele><time>2026-04-11T11:18:40.999Z</time></trkpt><trkpt lat="43.78456945096543" lon="12.302395580436698"><ele>992.2</ele><time>2026-04-11T11:18:41.999Z</time></trkpt><trkpt lat="43.784659479521586" lon="12.302314772878098"><ele>994.0</ele><time>2026-04-11T11:18:42.999Z</time></trkpt><trkpt lat="43.784747154779836" lon="12.302241964968008"><ele>994.0</ele><time>2026-04-11T11:18:43.999Z</time></trkpt><trkpt lat="43.78483339539081" lon="12.30216650250398"><ele>994.0000000000001</ele><time>2026-04-11T11:18:44.999Z</time></trkpt><trkpt lat="43.78492199224455" lon="12.302109049219197"><ele>994.0000000000001</ele><time>2026-04-11T11:18:45.999Z</time></trkpt><trkpt lat="43.785005676453714" lon="12.302048120780217"><ele>994.0</ele><time>2026-04-11T11:18:46.999Z</time></trkpt><trkpt lat="43.78508299423456" lon="12.301976388544354"><ele>994.0</ele><time>2026-04-11T11:18:48Z</time></trkpt><trkpt lat="43.78516087771132" lon="12.301902182961383"><ele>996.6</ele><time>2026-04-11T11:18:49.001Z</time></trkpt><trkpt lat="43.78523497290632" lon="12.301821275594039"><ele>999.2</ele><time>2026-04-11T11:18:50Z</time></trkpt><trkpt lat="43.785293507749735" lon="12.301727933016313"><ele>1001.8000000000001</ele><time>2026-04-11T11:18:51Z</time></trkpt><trkpt lat="43.78534333515991" lon="12.301614315142054"><ele>1004.4000000000001</ele><time>2026-04-11T11:18:52.001Z</time></trkpt><trkpt lat="43.78538084887294" lon="12.301490413026142"><ele>1007.0</ele><time>2026-04-11T11:18:53Z</time></trkpt><trkpt lat="43.785407422579674" lon="12.301360401349287"><ele>1007.3333333333334</ele><time>2026-04-11T11:18:54Z</time></trkpt><trkpt lat="43.78543112279068" lon="12.30123430892753"><ele>1007.6666666666667</ele><time>2026-04-11T11:18:55Z</time></trkpt><trkpt lat="43.785452706403014" lon="12.301114251968261"><ele>1008.0</ele><time>2026-04-11T11:18:56Z</time></trkpt><trkpt lat="43.78545896794462" lon="12.300995328582506"><ele>1008.3333333333333</ele><time>2026-04-11T11:18:57Z</time></trkpt><trkpt lat="43.785449961607775" lon="12.30087534134016"><ele>1008.6666666666666</ele><time>2026-04-11T11:18:58Z</time></trkpt><trkpt lat="43.78543247183657" lon="12.300752122454742"><ele>1009.0</ele><time>2026-04-11T11:18:59Z</time></trkpt><trkpt lat="43.785410762855705" lon="12.300630678096516"><ele>1009.6666666666666</ele><time>2026-04-11T11:19:00Z</time></trkpt><trkpt lat="43.785389892319735" lon="12.300509549071984"><ele>1010.3333333333333</ele><time>2026-04-11T11:19:01Z</time></trkpt><trkpt lat="43.78537360328518" lon="12.300389626862872"><ele>1011.0</ele><time>2026-04-11T11:19:02Z</time></trkpt><trkpt lat="43.78535905808081" lon="12.300276291442335"><ele>1011.6666666666667</ele><time>2026-04-11T11:19:03Z</time></trkpt><trkpt lat="43.78535287497645" lon="12.300161259253626"><ele>1012.3333333333334</ele><time>2026-04-11T11:19:04Z</time></trkpt><trkpt lat="43.78536013328492" lon="12.300045862677514"><ele>1013.0</ele><time>2026-04-11T11:19:05Z</time></trkpt><trkpt lat="43.78537496804178" lon="12.299928844550932"><ele>1013.0000000000001</ele><time>2026-04-11T11:19:06Z</time></trkpt><trkpt lat="43.785386604250554" lon="12.299826339214581"><ele>1013.0</ele><time>2026-04-11T11:19:07Z</time></trkpt><trkpt lat="43.78540391939138" lon="12.299731677612566"><ele>1013.0</ele><time>2026-04-11T11:19:08Z</time></trkpt><trkpt lat="43.78542194400175" lon="12.299642775486229"><ele>1013.0</ele><time>2026-04-11T11:19:09Z</time></trkpt><trkpt lat="43.78545462702742" lon="12.29948098345506"><ele>1013.0000000000001</ele><time>2026-04-11T11:19:11Z</time></trkpt><trkpt lat="43.78549503311338" lon="12.299346920770796"><ele>1013.0</ele><time>2026-04-11T11:19:13Z</time></trkpt><trkpt lat="43.78554139369121" lon="12.299236075225881"><ele>1012.8333333333334</ele><time>2026-04-11T11:19:15Z</time></trkpt><trkpt lat="43.78558898470325" lon="12.299137964216902"><ele>1012.6666666666667</ele><time>2026-04-11T11:19:17Z</time></trkpt><trkpt lat="43.78563066416041" lon="12.299052397373847"><ele>1012.5</ele><time>2026-04-11T11:19:19Z</time></trkpt><trkpt lat="43.78567174423114" lon="12.298980724272834"><ele>1012.3333333333333</ele><time>2026-04-11T11:19:21Z</time></trkpt><trkpt lat="43.78571529221517" lon="12.298915206483795"><ele>1012.1666666666666</ele><time>2026-04-11T11:19:24Z</time></trkpt><trkpt lat="43.78565785887792" lon="12.298970097833953"><ele>1012.0</ele><time>2026-04-11T11:22:12.999Z</time></trkpt><trkpt lat="43.78567465163535" lon="12.299097840888182"><ele>1012.0</ele><time>2026-04-11T11:22:31.998Z</time></trkpt><trkpt lat="43.78574437315855" lon="12.299104408385453"><ele>1012.0</ele><time>2026-04-11T11:22:41.998Z</time></trkpt><trkpt lat="43.785606019071075" lon="12.298840914411652"><ele>1012.0</ele><time>2026-04-11T11:23:14.462Z</time></trkpt><trkpt lat="43.78570669426243" lon="12.298868453255983"><ele>1012.0</ele><time>2026-04-11T11:38:19.01Z</time></trkpt><trkpt lat="43.78572049296391" lon="12.298987018530768"><ele>1012.0</ele><time>2026-04-11T11:38:26.013Z</time></trkpt></trkseg><trkseg><trkpt lat="43.78573687413738" lon="12.2988793715274"><ele>1008.0</ele><time>2026-04-11T12:46:04.992Z</time></trkpt><trkpt lat="43.78573590814423" lon="12.298788669570333"><ele>1008.0</ele><time>2026-04-11T12:48:27Z</time></trkpt><trkpt lat="43.785795600267726" lon="12.298665285950376"><ele>1008.0</ele><time>2026-04-11T12:48:29Z</time></trkpt><trkpt lat="43.78587513119089" lon="12.298530447815914"><ele>1008.0</ele><time>2026-04-11T12:48:31Z</time></trkpt><trkpt lat="43.78591706096844" lon="12.298463679678001"><ele>1008.0</ele><time>2026-04-11T12:48:32Z</time></trkpt><trkpt lat="43.78598505110623" lon="12.298345484877869"><ele>1007.4285714285714</ele><time>2026-04-11T12:48:34Z</time></trkpt><trkpt lat="43.78603347908909" lon="12.298267213909599"><ele>1006.8571428571429</ele><time>2026-04-11T12:48:35Z</time></trkpt><trkpt lat="43.78608103347653" lon="12.298190556459751"><ele>1006.2857142857142</ele><time>2026-04-11T12:48:36Z</time></trkpt><trkpt lat="43.786123159410934" lon="12.29812477788667"><ele>1005.7142857142857</ele><time>2026-04-11T12:48:37Z</time></trkpt><trkpt lat="43.78617238599955" lon="12.298060883586777"><ele>1005.1428571428571</ele><time>2026-04-11T12:48:38Z</time></trkpt><trkpt lat="43.78622482395864" lon="12.297998722406527"><ele>1004.5714285714284</ele><time>2026-04-11T12:48:39Z</time></trkpt><trkpt lat="43.78628422946203" lon="12.29794298328741"><ele>1003.9999999999999</ele><time>2026-04-11T12:48:40Z</time></trkpt><trkpt lat="43.786347463141695" lon="12.297886548241515"><ele>1004.0000000000001</ele><time>2026-04-11T12:48:41Z</time></trkpt><trkpt lat="43.786421113511146" lon="12.2978308064605"><ele>1004.0</ele><time>2026-04-11T12:48:42Z</time></trkpt><trkpt lat="43.78649856914392" lon="12.29776050154593"><ele>1004.0</ele><time>2026-04-11T12:48:43Z</time></trkpt><trkpt lat="43.78657358070685" lon="12.297698100930434"><ele>1004.0</ele><time>2026-04-11T12:48:44Z</time></trkpt><trkpt lat="43.78664396791256" lon="12.297621366742455"><ele>1004.0000000000001</ele><time>2026-04-11T12:48:44.999Z</time></trkpt><trkpt lat="43.78671945543723" lon="12.297541678006027"><ele>1004.0</ele><time>2026-04-11T12:48:45.999Z</time></trkpt><trkpt lat="43.786806064823985" lon="12.297450685566101"><ele>1004.0</ele><time>2026-04-11T12:48:46.999Z</time></trkpt><trkpt lat="43.78688663930031" lon="12.297358092132878"><ele>1004.0000000000001</ele><time>2026-04-11T12:48:47.999Z</time></trkpt><trkpt lat="43.78696156403104" lon="12.297263618599509"><ele>1004.0000000000001</ele><time>2026-04-11T12:48:48.999Z</time></trkpt><trkpt lat="43.78704002581597" lon="12.297170214529713"><ele>1004.0</ele><time>2026-04-11T12:48:49.999Z</time></trkpt><trkpt lat="43.78711694634887" lon="12.297060495355234"><ele>1004.0</ele><time>2026-04-11T12:48:50.999Z</time></trkpt><trkpt lat="43.78719407925749" lon="12.296951107098803"><ele>1004.0</ele><time>2026-04-11T12:48:51.999Z</time></trkpt><trkpt lat="43.78726372983737" lon="12.296852746143616"><ele>1004.0000000000001</ele><time>2026-04-11T12:48:52.999Z</time></trkpt><trkpt lat="43.78732830455956" lon="12.29675519050172"><ele>1004.0000000000001</ele><time>2026-04-11T12:48:53.999Z</time></trkpt><trkpt lat="43.78738839302188" lon="12.296663789923642"><ele>1004.0</ele><time>2026-04-11T12:48:54.999Z</time></trkpt><trkpt lat="43.78744580832793" lon="12.29657542272502"><ele>1004.0</ele><time>2026-04-11T12:48:55.999Z</time></trkpt><trkpt lat="43.7875109936428" lon="12.296481532724219"><ele>1003.0000000000001</ele><time>2026-04-11T12:48:56.999Z</time></trkpt><trkpt lat="43.78757206519309" lon="12.296391900745531"><ele>1002.0</ele><time>2026-04-11T12:48:57.999Z</time></trkpt><trkpt lat="43.78763093030056" lon="12.296305600879217"><ele>1001.0</ele><time>2026-04-11T12:48:58.999Z</time></trkpt><trkpt lat="43.78769516777927" lon="12.29622038665812"><ele>1000.0</ele><time>2026-04-11T12:48:59.999Z</time></trkpt><trkpt lat="43.78775449841545" lon="12.296131844802632"><ele>999.0000000000001</ele><time>2026-04-11T12:49:00.999Z</time></trkpt><trkpt lat="43.78782425033605" lon="12.296050444892627"><ele>998.0</ele><time>2026-04-11T12:49:01.999Z</time></trkpt><trkpt lat="43.78790910264692" lon="12.296028662743568"><ele>998.0000000000001</ele><time>2026-04-11T12:49:02.999Z</time></trkpt><trkpt lat="43.787987030691546" lon="12.296056540406926"><ele>998.0</ele><time>2026-04-11T12:49:03.999Z</time></trkpt><trkpt lat="43.78805606216958" lon="12.296086114196077"><ele>998.0</ele><time>2026-04-11T12:49:04.999Z</time></trkpt><trkpt lat="43.78813226062419" lon="12.296118814359332"><ele>998.0</ele><time>2026-04-11T12:49:05.999Z</time></trkpt><trkpt lat="43.78820573123288" lon="12.296151130393472"><ele>998.0000000000001</ele><time>2026-04-11T12:49:06.999Z</time></trkpt><trkpt lat="43.78829708769765" lon="12.296164515880605"><ele>998.0</ele><time>2026-04-11T12:49:07.999Z</time></trkpt><trkpt lat="43.78838732132459" lon="12.296133218606144"><ele>998.0</ele><time>2026-04-11T12:49:08.999Z</time></trkpt><trkpt lat="43.788460707481384" lon="12.296064987016054"><ele>998.0</ele><time>2026-04-11T12:49:09.999Z</time></trkpt><trkpt lat="43.788503224067114" lon="12.295941275000322"><ele>998.0</ele><time>2026-04-11T12:49:10.999Z</time></trkpt><trkpt lat="43.788513781180384" lon="12.295808253090117"><ele>998.0</ele><time>2026-04-11T12:49:11.999Z</time></trkpt><trkpt lat="43.788495906526805" lon="12.295684914481262"><ele>998.0</ele><time>2026-04-11T12:49:12.999Z</time></trkpt><trkpt lat="43.78848196502804" lon="12.295548063636318"><ele>996.5999999999999</ele><time>2026-04-11T12:49:13.999Z</time></trkpt><trkpt lat="43.788472378244194" lon="12.29540840402529"><ele>995.1999999999999</ele><time>2026-04-11T12:49:14.999Z</time></trkpt><trkpt lat="43.78848285164379" lon="12.29527791987829"><ele>993.8</ele><time>2026-04-11T12:49:15.999Z</time></trkpt><trkpt lat="43.78850753159434" lon="12.295153712566211"><ele>992.4</ele><time>2026-04-11T12:49:16.999Z</time></trkpt><trkpt lat="43.7885513064578" lon="12.295032440917547"><ele>991.0</ele><time>2026-04-11T12:49:17.999Z</time></trkpt><trkpt lat="43.78861257918133" lon="12.294939241819241"><ele>989.5999999999999</ele><time>2026-04-11T12:49:18.999Z</time></trkpt><trkpt lat="43.78870164674233" lon="12.29491714806169"><ele>988.1999999999999</ele><time>2026-04-11T12:49:19.999Z</time></trkpt><trkpt lat="43.788773244671965" lon="12.294989131673795"><ele>986.8000000000001</ele><time>2026-04-11T12:49:20.999Z</time></trkpt><trkpt lat="43.78882400416137" lon="12.295079796306077"><ele>985.4000000000001</ele><time>2026-04-11T12:49:21.999Z</time></trkpt><trkpt lat="43.78884840629606" lon="12.295235091156224"><ele>984.0</ele><time>2026-04-11T12:49:22.999Z</time></trkpt><trkpt lat="43.78887968455798" lon="12.295343733047426"><ele>984.0</ele><time>2026-04-11T12:49:23.999Z</time></trkpt><trkpt lat="43.78890754335805" lon="12.2954617404401"><ele>984.0000000000001</ele><time>2026-04-11T12:49:24.999Z</time></trkpt><trkpt lat="43.788941483460626" lon="12.29557763235965"><ele>984.0000000000001</ele><time>2026-04-11T12:49:25.999Z</time></trkpt><trkpt lat="43.788951557941616" lon="12.295711660858275"><ele>984.0</ele><time>2026-04-11T12:49:26.999Z</time></trkpt><trkpt lat="43.7889742018644" lon="12.295831543150284"><ele>984.0</ele><time>2026-04-11T12:49:27.999Z</time></trkpt><trkpt lat="43.788992713978445" lon="12.295964722430355"><ele>984.8000000000001</ele><time>2026-04-11T12:49:28.999Z</time></trkpt><trkpt lat="43.78900918260536" lon="12.296083251695563"><ele>985.6000000000001</ele><time>2026-04-11T12:49:29.999Z</time></trkpt><trkpt lat="43.78903183496593" lon="12.296203185367668"><ele>986.4</ele><time>2026-04-11T12:49:30.999Z</time></trkpt><trkpt lat="43.78908118155196" lon="12.296321484915927"><ele>987.2</ele><time>2026-04-11T12:49:31.999Z</time></trkpt><trkpt lat="43.789150694845304" lon="12.296433508073962"><ele>988.0</ele><time>2026-04-11T12:49:32.999Z</time></trkpt><trkpt lat="43.789228225300675" lon="12.296515393092754"><ele>987.0</ele><time>2026-04-11T12:49:33.999Z</time></trkpt><trkpt lat="43.7893153440523" lon="12.296561473781857"><ele>986.0</ele><time>2026-04-11T12:49:34.999Z</time></trkpt><trkpt lat="43.78942789849991" lon="12.296563388451606"><ele>985.0</ele><time>2026-04-11T12:49:35.999Z</time></trkpt><trkpt lat="43.789568458665535" lon="12.296520746784207"><ele>984.0</ele><time>2026-04-11T12:49:36.999Z</time></trkpt><trkpt lat="43.78968609400107" lon="12.2965067942571"><ele>984.0</ele><time>2026-04-11T12:49:37.999Z</time></trkpt><trkpt lat="43.78980028009579" lon="12.29652679654181"><ele>984.0</ele><time>2026-04-11T12:49:38.999Z</time></trkpt><trkpt lat="43.789923701238564" lon="12.296576022484683"><ele>984.0</ele><time>2026-04-11T12:49:39.999Z</time></trkpt><trkpt lat="43.79003537212748" lon="12.296656305059699"><ele>984.0</ele><time>2026-04-11T12:49:40.999Z</time></trkpt><trkpt lat="43.79015750306374" lon="12.296719074345328"><ele>981.25</ele><time>2026-04-11T12:49:41.999Z</time></trkpt><trkpt lat="43.790281649366094" lon="12.2967754094706"><ele>978.5</ele><time>2026-04-11T12:49:42.999Z</time></trkpt><trkpt lat="43.79038411770164" lon="12.296845940330764"><ele>975.75</ele><time>2026-04-11T12:49:43.999Z</time></trkpt><trkpt lat="43.79050035775038" lon="12.296900276142969"><ele>973.0</ele><time>2026-04-11T12:49:44.999Z</time></trkpt><trkpt lat="43.79061138422648" lon="12.29693710954789"><ele>973.0</ele><time>2026-04-11T12:49:45.999Z</time></trkpt><trkpt lat="43.79072006528764" lon="12.296977588501733"><ele>973.0</ele><time>2026-04-11T12:49:46.999Z</time></trkpt><trkpt lat="43.790832259478485" lon="12.296999586451596"><ele>973.0</ele><time>2026-04-11T12:49:47.999Z</time></trkpt><trkpt lat="43.790942811823" lon="12.297020269867375"><ele>973.0</ele><time>2026-04-11T12:49:48.999Z</time></trkpt><trkpt lat="43.791060783638045" lon="12.297043755054371"><ele>970.75</ele><time>2026-04-11T12:49:49.999Z</time></trkpt><trkpt lat="43.79117747310233" lon="12.297072511890388"><ele>968.5</ele><time>2026-04-11T12:49:50.999Z</time></trkpt><trkpt lat="43.79128992208497" lon="12.29710166074165"><ele>966.25</ele><time>2026-04-11T12:49:51.999Z</time></trkpt><trkpt lat="43.79139726789948" lon="12.297150931862845"><ele>964.0</ele><time>2026-04-11T12:49:52.999Z</time></trkpt><trkpt lat="43.791496644825095" lon="12.297225470885254"><ele>967.5</ele><time>2026-04-11T12:49:53.999Z</time></trkpt><trkpt lat="43.79159132336601" lon="12.297323201192265"><ele>971.0</ele><time>2026-04-11T12:49:54.999Z</time></trkpt><trkpt lat="43.79167724997414" lon="12.297431733134678"><ele>974.5</ele><time>2026-04-11T12:49:55.999Z</time></trkpt><trkpt lat="43.791756576720786" lon="12.297549523629641"><ele>978.0</ele><time>2026-04-11T12:49:56.999Z</time></trkpt><trkpt lat="43.7918362935291" lon="12.297663931172973"><ele>975.75</ele><time>2026-04-11T12:49:57.999Z</time></trkpt><trkpt lat="43.791922645613816" lon="12.297754740270106"><ele>973.5</ele><time>2026-04-11T12:49:58.999Z</time></trkpt><trkpt lat="43.79202480928051" lon="12.297817363894694"><ele>971.25</ele><time>2026-04-11T12:49:59.999Z</time></trkpt><trkpt lat="43.79214832284902" lon="12.297844584067139"><ele>969.0</ele><time>2026-04-11T12:50:00.999Z</time></trkpt><trkpt lat="43.79227619082999" lon="12.297850011518175"><ele>969.0</ele><time>2026-04-11T12:50:01.999Z</time></trkpt><trkpt lat="43.792411605696614" lon="12.297852743690179"><ele>969.0</ele><time>2026-04-11T12:50:02.998Z</time></trkpt><trkpt lat="43.79253707627995" lon="12.297842243828121"><ele>969.0</ele><time>2026-04-11T12:50:03.998Z</time></trkpt><trkpt lat="43.79265956597771" lon="12.297815926027594"><ele>969.0</ele><time>2026-04-11T12:50:04.998Z</time></trkpt><trkpt lat="43.79277894384487" lon="12.2977582043352"><ele>970.5</ele><time>2026-04-11T12:50:05.998Z</time></trkpt><trkpt lat="43.79289622351421" lon="12.297681890505679"><ele>972.0</ele><time>2026-04-11T12:50:06.998Z</time></trkpt><trkpt lat="43.793005680765724" lon="12.29758405683988"><ele>973.5</ele><time>2026-04-11T12:50:07.998Z</time></trkpt><trkpt lat="43.79310456853336" lon="12.297479232334537"><ele>975.0</ele><time>2026-04-11T12:50:08.998Z</time></trkpt><trkpt lat="43.79319689100798" lon="12.297350364497774"><ele>971.5</ele><time>2026-04-11T12:50:09.998Z</time></trkpt><trkpt lat="43.79327125836267" lon="12.297206402160635"><ele>968.0</ele><time>2026-04-11T12:50:10.998Z</time></trkpt><trkpt lat="43.79329627395431" lon="12.297042992687633"><ele>964.5</ele><time>2026-04-11T12:50:11.998Z</time></trkpt><trkpt lat="43.793316390502845" lon="12.296869989309986"><ele>961.0</ele><time>2026-04-11T12:50:12.998Z</time></trkpt><trkpt lat="43.79335061375455" lon="12.296705020574707"><ele>961.0</ele><time>2026-04-11T12:50:13.998Z</time></trkpt><trkpt lat="43.79338483140535" lon="12.296552960835744"><ele>961.0</ele><time>2026-04-11T12:50:14.998Z</time></trkpt><trkpt lat="43.79342675825816" lon="12.296396428880309"><ele>961.0</ele><time>2026-04-11T12:50:15.998Z</time></trkpt><trkpt lat="43.79349731113632" lon="12.296255634463218"><ele>961.0</ele><time>2026-04-11T12:50:17Z</time></trkpt><trkpt lat="43.79356488278608" lon="12.296107954794193"><ele>960.25</ele><time>2026-04-11T12:50:18Z</time></trkpt><trkpt lat="43.79364125470711" lon="12.29596971168725"><ele>959.5</ele><time>2026-04-11T12:50:19Z</time></trkpt><trkpt lat="43.793735774828846" lon="12.295862435428065"><ele>958.75</ele><time>2026-04-11T12:50:20Z</time></trkpt><trkpt lat="43.793808034759316" lon="12.295733708070795"><ele>958.0</ele><time>2026-04-11T12:50:21Z</time></trkpt><trkpt lat="43.79388068630495" lon="12.295632241116897"><ele>955.4</ele><time>2026-04-11T12:50:22Z</time></trkpt><trkpt lat="43.79395247085627" lon="12.295533005625993"><ele>952.8</ele><time>2026-04-11T12:50:23Z</time></trkpt><trkpt lat="43.79404564055844" lon="12.295477550686055"><ele>950.2</ele><time>2026-04-11T12:50:24Z</time></trkpt><trkpt lat="43.79414469621304" lon="12.295435077008507"><ele>947.6</ele><time>2026-04-11T12:50:25Z</time></trkpt><trkpt lat="43.79423989952875" lon="12.295455682009502"><ele>945.0</ele><time>2026-04-11T12:50:26Z</time></trkpt><trkpt lat="43.794341104426366" lon="12.295474182062524"><ele>942.75</ele><time>2026-04-11T12:50:27Z</time></trkpt><trkpt lat="43.79445418384111" lon="12.295497504349944"><ele>940.5</ele><time>2026-04-11T12:50:28Z</time></trkpt><trkpt lat="43.79456228148474" lon="12.295509969376216"><ele>938.25</ele><time>2026-04-11T12:50:29Z</time></trkpt><trkpt lat="43.794689049376665" lon="12.295495164165958"><ele>936.0</ele><time>2026-04-11T12:50:30Z</time></trkpt><trkpt lat="43.79481003926609" lon="12.295434279088608"><ele>936.0</ele><time>2026-04-11T12:50:31Z</time></trkpt><trkpt lat="43.79489566194207" lon="12.295324104071907"><ele>935.9999999999999</ele><time>2026-04-11T12:50:32Z</time></trkpt><trkpt lat="43.794992138070434" lon="12.295250659935826"><ele>935.9999999999999</ele><time>2026-04-11T12:50:33Z</time></trkpt><trkpt lat="43.79507546126711" lon="12.295173682293848"><ele>936.0</ele><time>2026-04-11T12:50:34Z</time></trkpt><trkpt lat="43.7951538517044" lon="12.29510346175761"><ele>936.0</ele><time>2026-04-11T12:50:35Z</time></trkpt><trkpt lat="43.79523439317867" lon="12.29503681434182"><ele>934.8333333333334</ele><time>2026-04-11T12:50:36Z</time></trkpt><trkpt lat="43.795307615117274" lon="12.294985989577896"><ele>933.6666666666667</ele><time>2026-04-11T12:50:37Z</time></trkpt><trkpt lat="43.7953781903003" lon="12.294954688125562"><ele>932.5</ele><time>2026-04-11T12:50:38Z</time></trkpt><trkpt lat="43.79544118169132" lon="12.294951545160778"><ele>931.3333333333334</ele><time>2026-04-11T12:50:39Z</time></trkpt><trkpt lat="43.795493901195556" lon="12.29500552612561"><ele>930.1666666666667</ele><time>2026-04-11T12:50:40Z</time></trkpt><trkpt lat="43.79555705484536" lon="12.295060850807007"><ele>929.0</ele><time>2026-04-11T12:50:41Z</time></trkpt><trkpt lat="43.795637612546294" lon="12.295129932392573"><ele>929.0000000000001</ele><time>2026-04-11T12:50:42Z</time></trkpt><trkpt lat="43.79572609798687" lon="12.295169301446476"><ele>929.0</ele><time>2026-04-11T12:50:43Z</time></trkpt><trkpt lat="43.7958217567821" lon="12.29519237505754"><ele>929.0</ele><time>2026-04-11T12:50:44Z</time></trkpt><trkpt lat="43.7959092687536" lon="12.295195128375378"><ele>929.0</ele><time>2026-04-11T12:50:45Z</time></trkpt><trkpt lat="43.79599083783847" lon="12.295225596621053"><ele>929.0000000000001</ele><time>2026-04-11T12:50:46Z</time></trkpt><trkpt lat="43.79606283461923" lon="12.295262070124847"><ele>929.0</ele><time>2026-04-11T12:50:47Z</time></trkpt><trkpt lat="43.79610647164624" lon="12.295347349179078"><ele>928.0</ele><time>2026-04-11T12:50:48Z</time></trkpt><trkpt lat="43.79615379363781" lon="12.295448992566927"><ele>927.0000000000001</ele><time>2026-04-11T12:50:49Z</time></trkpt><trkpt lat="43.79614432364647" lon="12.295549934932435"><ele>926.0000000000001</ele><time>2026-04-11T12:50:50Z</time></trkpt><trkpt lat="43.796154170408066" lon="12.295673699955293"><ele>925.0</ele><time>2026-04-11T12:50:51Z</time></trkpt><trkpt lat="43.79619220582883" lon="12.295817222435032"><ele>924.0</ele><time>2026-04-11T12:50:52Z</time></trkpt><trkpt lat="43.79625509587931" lon="12.295944090074956"><ele>924.0</ele><time>2026-04-11T12:50:53Z</time></trkpt><trkpt lat="43.796326397989965" lon="12.296049101205611"><ele>924.0</ele><time>2026-04-11T12:50:54Z</time></trkpt><trkpt lat="43.796383874951246" lon="12.296138626212365"><ele>924.0</ele><time>2026-04-11T12:50:55Z</time></trkpt><trkpt lat="43.796430008071894" lon="12.296223348010363"><ele>924.0</ele><time>2026-04-11T12:50:56Z</time></trkpt><trkpt lat="43.796471597300325" lon="12.29632047335828"><ele>924.0</ele><time>2026-04-11T12:50:56.999Z</time></trkpt><trkpt lat="43.796521341301776" lon="12.296422800998032"><ele>924.0</ele><time>2026-04-11T12:50:57.999Z</time></trkpt><trkpt lat="43.79657981359254" lon="12.296516781966629"><ele>924.6</ele><time>2026-04-11T12:50:58.999Z</time></trkpt><trkpt lat="43.7966397894766" lon="12.296607894383104"><ele>925.2</ele><time>2026-04-11T12:50:59.999Z</time></trkpt><trkpt lat="43.796710657319316" lon="12.296667641868757"><ele>925.8000000000001</ele><time>2026-04-11T12:51:00.999Z</time></trkpt><trkpt lat="43.79681675450023" lon="12.296670028518806"><ele>926.4000000000001</ele><time>2026-04-11T12:51:01.999Z</time></trkpt><trkpt lat="43.796933112600364" lon="12.296664708958707"><ele>927.0</ele><time>2026-04-11T12:51:02.999Z</time></trkpt><trkpt lat="43.797026208792786" lon="12.296668616744919"><ele>927.0</ele><time>2026-04-11T12:51:03.999Z</time></trkpt><trkpt lat="43.797109918092445" lon="12.29670691864389"><ele>927.0</ele><time>2026-04-11T12:51:04.999Z</time></trkpt><trkpt lat="43.79718086653187" lon="12.296776576796756"><ele>927.0</ele><time>2026-04-11T12:51:05.999Z</time></trkpt><trkpt lat="43.79725500251371" lon="12.296843403527374"><ele>927.0</ele><time>2026-04-11T12:51:06.999Z</time></trkpt><trkpt lat="43.797329523854415" lon="12.29691496977626"><ele>927.0</ele><time>2026-04-11T12:51:07.999Z</time></trkpt><trkpt lat="43.79739776341969" lon="12.296972869745526"><ele>927.0</ele><time>2026-04-11T12:51:08.999Z</time></trkpt><trkpt lat="43.79745787886128" lon="12.297036190915572"><ele>927.0</ele><time>2026-04-11T12:51:09.999Z</time></trkpt><trkpt lat="43.797531405075375" lon="12.297061275417676"><ele>927.0</ele><time>2026-04-11T12:51:10.999Z</time></trkpt><trkpt lat="43.79764738334445" lon="12.296960000665324"><ele>927.0</ele><time>2026-04-11T12:51:11.999Z</time></trkpt><trkpt lat="43.79772958397196" lon="12.296872212008326"><ele>927.0</ele><time>2026-04-11T12:51:12.999Z</time></trkpt><trkpt lat="43.797809495921584" lon="12.296806090187319"><ele>927.0</ele><time>2026-04-11T12:51:13.999Z</time></trkpt><trkpt lat="43.797904253815965" lon="12.29676103221077"><ele>927.8333333333334</ele><time>2026-04-11T12:51:14.999Z</time></trkpt><trkpt lat="43.797997992288494" lon="12.296783779802668"><ele>928.6666666666667</ele><time>2026-04-11T12:51:15.999Z</time></trkpt><trkpt lat="43.79808048413251" lon="12.296813103053406"><ele>929.5</ele><time>2026-04-11T12:51:16.999Z</time></trkpt><trkpt lat="43.79816382986493" lon="12.29685189412094"><ele>930.3333333333334</ele><time>2026-04-11T12:51:17.999Z</time></trkpt><trkpt lat="43.798245768227574" lon="12.296886947823316"><ele>931.1666666666667</ele><time>2026-04-11T12:51:18.999Z</time></trkpt><trkpt lat="43.79833180670191" lon="12.296914635270223"><ele>932.0</ele><time>2026-04-11T12:51:19.999Z</time></trkpt><trkpt lat="43.79842295509943" lon="12.29690135375004"><ele>934.8</ele><time>2026-04-11T12:51:20.999Z</time></trkpt><trkpt lat="43.7985186880347" lon="12.296847031375897"><ele>937.6</ele><time>2026-04-11T12:51:21.999Z</time></trkpt><trkpt lat="43.7985777084449" lon="12.296723725030017"><ele>940.3999999999999</ele><time>2026-04-11T12:51:22.999Z</time></trkpt><trkpt lat="43.798634057719184" lon="12.296609423519604"><ele>943.1999999999999</ele><time>2026-04-11T12:51:23.999Z</time></trkpt><trkpt lat="43.798677588565226" lon="12.296456098168347"><ele>946.0</ele><time>2026-04-11T12:51:24.999Z</time></trkpt><trkpt lat="43.79870633215027" lon="12.29630566259974"><ele>946.0</ele><time>2026-04-11T12:51:25.999Z</time></trkpt><trkpt lat="43.798724067651705" lon="12.29615020821149"><ele>946.0</ele><time>2026-04-11T12:51:26.999Z</time></trkpt><trkpt lat="43.79872532323786" lon="12.29598246125169"><ele>946.0</ele><time>2026-04-11T12:51:27.999Z</time></trkpt><trkpt lat="43.79871385063205" lon="12.295818287717802"><ele>946.0</ele><time>2026-04-11T12:51:28.999Z</time></trkpt><trkpt lat="43.798707605178684" lon="12.295654611465464"><ele>943.4</ele><time>2026-04-11T12:51:29.999Z</time></trkpt><trkpt lat="43.798690476832974" lon="12.29550976196825"><ele>940.8</ele><time>2026-04-11T12:51:30.999Z</time></trkpt><trkpt lat="43.79865750869346" lon="12.295389185249872"><ele>938.1999999999999</ele><time>2026-04-11T12:51:31.999Z</time></trkpt><trkpt lat="43.79861275252975" lon="12.295281852283487"><ele>935.5999999999999</ele><time>2026-04-11T12:51:32.999Z</time></trkpt><trkpt lat="43.79859248490185" lon="12.295156680136751"><ele>933.0</ele><time>2026-04-11T12:51:33.999Z</time></trkpt><trkpt lat="43.79861367041513" lon="12.295026234369033"><ele>933.0</ele><time>2026-04-11T12:51:34.999Z</time></trkpt><trkpt lat="43.79867026836295" lon="12.294905090175344"><ele>933.0</ele><time>2026-04-11T12:51:35.999Z</time></trkpt><trkpt lat="43.798744908133884" lon="12.294796666224459"><ele>933.0</ele><time>2026-04-11T12:51:36.999Z</time></trkpt><trkpt lat="43.798825902470455" lon="12.294694176396819"><ele>933.0</ele><time>2026-04-11T12:51:37.999Z</time></trkpt><trkpt lat="43.798901203039144" lon="12.294585920977546"><ele>933.0</ele><time>2026-04-11T12:51:38.999Z</time></trkpt><trkpt lat="43.79896090845873" lon="12.294446058435577"><ele>929.5</ele><time>2026-04-11T12:51:39.999Z</time></trkpt><trkpt lat="43.79899607982962" lon="12.294290074841605"><ele>926.0</ele><time>2026-04-11T12:51:40.999Z</time></trkpt><trkpt lat="43.799014675131616" lon="12.29412986131513"><ele>922.5</ele><time>2026-04-11T12:51:41.999Z</time></trkpt><trkpt lat="43.79903836904128" lon="12.293970023137064"><ele>919.0</ele><time>2026-04-11T12:51:42.999Z</time></trkpt><trkpt lat="43.799060732302095" lon="12.293814476596976"><ele>918.6</ele><time>2026-04-11T12:51:43.999Z</time></trkpt><trkpt lat="43.79907640728792" lon="12.293660848808031"><ele>918.2</ele><time>2026-04-11T12:51:44.999Z</time></trkpt><trkpt lat="43.79906197646542" lon="12.293511206454918"><ele>917.8000000000001</ele><time>2026-04-11T12:51:45.999Z</time></trkpt><trkpt lat="43.79901298670884" lon="12.293374513511056"><ele>917.4000000000001</ele><time>2026-04-11T12:51:46.999Z</time></trkpt><trkpt lat="43.79894425087634" lon="12.293259875737762"><ele>917.0</ele><time>2026-04-11T12:51:47.999Z</time></trkpt><trkpt lat="43.79887343837903" lon="12.293152749141516"><ele>917.25</ele><time>2026-04-11T12:51:48.999Z</time></trkpt><trkpt lat="43.79881198103429" lon="12.29301549496674"><ele>917.5</ele><time>2026-04-11T12:51:49.999Z</time></trkpt><trkpt lat="43.79876916140299" lon="12.292859550060072"><ele>917.75</ele><time>2026-04-11T12:51:50.999Z</time></trkpt><trkpt lat="43.79874645671184" lon="12.292686781415973"><ele>918.0</ele><time>2026-04-11T12:51:51.999Z</time></trkpt><trkpt lat="43.79875627416938" lon="12.292512688881363"><ele>918.0</ele><time>2026-04-11T12:51:52.999Z</time></trkpt><trkpt lat="43.79878941245781" lon="12.292361397655748"><ele>918.0</ele><time>2026-04-11T12:51:53.999Z</time></trkpt><trkpt lat="43.79879331579117" lon="12.29223878294243"><ele>918.0</ele><time>2026-04-11T12:51:54.999Z</time></trkpt><trkpt lat="43.79881050739149" lon="12.292142080226714"><ele>918.0</ele><time>2026-04-11T12:51:55.999Z</time></trkpt><trkpt lat="43.79883054806648" lon="12.29204760752346"><ele>918.0</ele><time>2026-04-11T12:51:56.999Z</time></trkpt><trkpt lat="43.798815116026624" lon="12.291958859226192"><ele>918.0</ele><time>2026-04-11T12:51:57.999Z</time></trkpt><trkpt lat="43.79875157575664" lon="12.291891404835848"><ele>916.8333333333334</ele><time>2026-04-11T12:51:58.999Z</time></trkpt><trkpt lat="43.79866446198849" lon="12.29192760595635"><ele>915.6666666666667</ele><time>2026-04-11T12:51:59.999Z</time></trkpt><trkpt lat="43.79860251687281" lon="12.291980313491521"><ele>914.5</ele><time>2026-04-11T12:52:00.999Z</time></trkpt><trkpt lat="43.798562492850444" lon="12.292070678812797"><ele>913.3333333333334</ele><time>2026-04-11T12:52:01.999Z</time></trkpt><trkpt lat="43.79852900952588" lon="12.292173351509014"><ele>912.1666666666667</ele><time>2026-04-11T12:52:02.999Z</time></trkpt><trkpt lat="43.7984826800322" lon="12.292281943048712"><ele>911.0</ele><time>2026-04-11T12:52:03.999Z</time></trkpt><trkpt lat="43.798423599423586" lon="12.292389967499235"><ele>907.1999999999999</ele><time>2026-04-11T12:52:04.999Z</time></trkpt><trkpt lat="43.79835662083166" lon="12.292489535312875"><ele>903.3999999999999</ele><time>2026-04-11T12:52:05.999Z</time></trkpt><trkpt lat="43.798288571935764" lon="12.292578966605625"><ele>899.6</ele><time>2026-04-11T12:52:06.999Z</time></trkpt><trkpt lat="43.79822683992608" lon="12.292658525174224"><ele>895.8</ele><time>2026-04-11T12:52:07.999Z</time></trkpt><trkpt lat="43.79816844341813" lon="12.29272255685513"><ele>892.0</ele><time>2026-04-11T12:52:08.999Z</time></trkpt><trkpt lat="43.798055675949534" lon="12.29278226382248"><ele>891.9999999999999</ele><time>2026-04-11T12:52:10.999Z</time></trkpt><trkpt lat="43.79796069493236" lon="12.292696114187935"><ele>892.0</ele><time>2026-04-11T12:52:12.999Z</time></trkpt><trkpt lat="43.79794543911544" lon="12.29260290041173"><ele>892.0</ele><time>2026-04-11T12:52:13.999Z</time></trkpt><trkpt lat="43.797968043905115" lon="12.292497921838963"><ele>892.0</ele><time>2026-04-11T12:52:14.999Z</time></trkpt><trkpt lat="43.798021395675505" lon="12.292400747973259"><ele>891.9999999999999</ele><time>2026-04-11T12:52:15.999Z</time></trkpt><trkpt lat="43.7980829023883" lon="12.292298109809083"><ele>892.0</ele><time>2026-04-11T12:52:16.999Z</time></trkpt><trkpt lat="43.79814640367775" lon="12.292195263084668"><ele>891.4000000000001</ele><time>2026-04-11T12:52:17.999Z</time></trkpt><trkpt lat="43.79821954341966" lon="12.292098892141201"><ele>890.8000000000001</ele><time>2026-04-11T12:52:18.998Z</time></trkpt><trkpt lat="43.798253582178475" lon="12.291954171564988"><ele>890.2</ele><time>2026-04-11T12:52:19.998Z</time></trkpt><trkpt lat="43.798274910168836" lon="12.29180219527288"><ele>889.6</ele><time>2026-04-11T12:52:20.998Z</time></trkpt><trkpt lat="43.79827765633419" lon="12.291644959452944"><ele>889.0</ele><time>2026-04-11T12:52:21.998Z</time></trkpt><trkpt lat="43.79826548708688" lon="12.291479308947382"><ele>887.6</ele><time>2026-04-11T12:52:23Z</time></trkpt><trkpt lat="43.79825035980252" lon="12.29131796745043"><ele>886.2</ele><time>2026-04-11T12:52:24Z</time></trkpt><trkpt lat="43.79822435930837" lon="12.291162631648428"><ele>884.8000000000001</ele><time>2026-04-11T12:52:25Z</time></trkpt><trkpt lat="43.79818207382805" lon="12.291018102432966"><ele>883.4000000000001</ele><time>2026-04-11T12:52:26Z</time></trkpt><trkpt lat="43.79812582482248" lon="12.290900274155202"><ele>882.0</ele><time>2026-04-11T12:52:27Z</time></trkpt><trkpt lat="43.79809505386894" lon="12.290795671691884"><ele>882.0</ele><time>2026-04-11T12:52:28Z</time></trkpt><trkpt lat="43.79808225564155" lon="12.290678198965301"><ele>882.0</ele><time>2026-04-11T12:52:29Z</time></trkpt><trkpt lat="43.798103761502915" lon="12.290559008493824"><ele>882.0</ele><time>2026-04-11T12:52:30Z</time></trkpt><trkpt lat="43.798173417315844" lon="12.2904607675936"><ele>882.0</ele><time>2026-04-11T12:52:31Z</time></trkpt><trkpt lat="43.79826387214461" lon="12.290382407163907"><ele>882.0</ele><time>2026-04-11T12:52:32Z</time></trkpt><trkpt lat="43.798345530329584" lon="12.290311641719054"><ele>881.4000000000001</ele><time>2026-04-11T12:52:33Z</time></trkpt><trkpt lat="43.79841802297233" lon="12.290220602843535"><ele>880.8000000000001</ele><time>2026-04-11T12:52:34Z</time></trkpt><trkpt lat="43.798473337318335" lon="12.290099752666142"><ele>880.2</ele><time>2026-04-11T12:52:35Z</time></trkpt><trkpt lat="43.798505601528866" lon="12.289954916595432"><ele>879.6</ele><time>2026-04-11T12:52:36Z</time></trkpt><trkpt lat="43.798513978885694" lon="12.28979466803295"><ele>879.0</ele><time>2026-04-11T12:52:37Z</time></trkpt><trkpt lat="43.79850989215792" lon="12.289633348180748"><ele>879.0</ele><time>2026-04-11T12:52:38Z</time></trkpt><trkpt lat="43.79850158788627" lon="12.28948871358993"><ele>879.0000000000001</ele><time>2026-04-11T12:52:39Z</time></trkpt><trkpt lat="43.79849600677636" lon="12.289355562467733"><ele>879.0000000000001</ele><time>2026-04-11T12:52:40Z</time></trkpt><trkpt lat="43.79850899364726" lon="12.289223504367023"><ele>879.0</ele><time>2026-04-11T12:52:41Z</time></trkpt><trkpt lat="43.79856253777216" lon="12.289097206157074"><ele>879.0</ele><time>2026-04-11T12:52:42Z</time></trkpt><trkpt lat="43.79863954368275" lon="12.288980889367897"><ele>875.5</ele><time>2026-04-11T12:52:43Z</time></trkpt><trkpt lat="43.79873065835347" lon="12.288898725113096"><ele>872.0</ele><time>2026-04-11T12:52:44Z</time></trkpt><trkpt lat="43.79881071954623" lon="12.288795567800454"><ele>868.5</ele><time>2026-04-11T12:52:45Z</time></trkpt><trkpt lat="43.79886914569511" lon="12.288652286257635"><ele>865.0</ele><time>2026-04-11T12:52:46Z</time></trkpt><trkpt lat="43.798872067647864" lon="12.288485083758381"><ele>865.0</ele><time>2026-04-11T12:52:47Z</time></trkpt><trkpt lat="43.79886517136229" lon="12.288325188208605"><ele>865.0</ele><time>2026-04-11T12:52:48Z</time></trkpt><trkpt lat="43.798843833075985" lon="12.288175065844298"><ele>865.0</ele><time>2026-04-11T12:52:49Z</time></trkpt><trkpt lat="43.79882815379638" lon="12.288035357635684"><ele>865.0</ele><time>2026-04-11T12:52:50Z</time></trkpt><trkpt lat="43.79882094203839" lon="12.287913359858337"><ele>865.0</ele><time>2026-04-11T12:52:51Z</time></trkpt><trkpt lat="43.79881964406222" lon="12.287807962800441"><ele>860.4999999999999</ele><time>2026-04-11T12:52:52Z</time></trkpt><trkpt lat="43.79883734082823" lon="12.287712701292055"><ele>856.0</ele><time>2026-04-11T12:52:53Z</time></trkpt><trkpt lat="43.7988777174816" lon="12.287626727411721"><ele>851.5</ele><time>2026-04-11T12:52:54Z</time></trkpt><trkpt lat="43.79895224287384" lon="12.28758032564701"><ele>847.0</ele><time>2026-04-11T12:52:55Z</time></trkpt><trkpt lat="43.79904738552333" lon="12.287567743714936"><ele>842.4999999999999</ele><time>2026-04-11T12:52:56Z</time></trkpt><trkpt lat="43.7991441547241" lon="12.287574668556628"><ele>838.0</ele><time>2026-04-11T12:52:57Z</time></trkpt><trkpt lat="43.79923780085883" lon="12.287584098146539"><ele>836.2</ele><time>2026-04-11T12:52:58Z</time></trkpt><trkpt lat="43.79934047466599" lon="12.28760734418885"><ele>834.4</ele><time>2026-04-11T12:52:59Z</time></trkpt><trkpt lat="43.79943961168402" lon="12.287671968468514"><ele>832.6</ele><time>2026-04-11T12:53:00Z</time></trkpt><trkpt lat="43.79954341185065" lon="12.287717742112639"><ele>830.8000000000001</ele><time>2026-04-11T12:53:01Z</time></trkpt><trkpt lat="43.799644098094994" lon="12.28776221489268"><ele>829.0</ele><time>2026-04-11T12:53:02Z</time></trkpt><trkpt lat="43.79974742972475" lon="12.28780729632602"><ele>829.0</ele><time>2026-04-11T12:53:03Z</time></trkpt><trkpt lat="43.799863013766114" lon="12.28784266875526"><ele>829.0</ele><time>2026-04-11T12:53:04Z</time></trkpt><trkpt lat="43.79997745684905" lon="12.287861777944588"><ele>829.0</ele><time>2026-04-11T12:53:05Z</time></trkpt><trkpt lat="43.80009442029451" lon="12.2878703962443"><ele>829.0</ele><time>2026-04-11T12:53:06Z</time></trkpt><trkpt lat="43.800209633426576" lon="12.287832477950388"><ele>824.75</ele><time>2026-04-11T12:53:06.999Z</time></trkpt><trkpt lat="43.800328458930885" lon="12.287811511058102"><ele>820.5</ele><time>2026-04-11T12:53:07.999Z</time></trkpt><trkpt lat="43.80044649109199" lon="12.28780680976544"><ele>816.25</ele><time>2026-04-11T12:53:08.999Z</time></trkpt><trkpt lat="43.80055906867785" lon="12.287861588173794"><ele>812.0</ele><time>2026-04-11T12:53:09.999Z</time></trkpt><trkpt lat="43.800667429989325" lon="12.287916077710502"><ele>812.0</ele><time>2026-04-11T12:53:10.999Z</time></trkpt><trkpt lat="43.80078153756246" lon="12.287911662631453"><ele>812.0</ele><time>2026-04-11T12:53:11.999Z</time></trkpt><trkpt lat="43.800884931999995" lon="12.287898292174185"><ele>812.0</ele><time>2026-04-11T12:53:12.999Z</time></trkpt><trkpt lat="43.800966681612415" lon="12.287856671017055"><ele>812.0</ele><time>2026-04-11T12:53:13.999Z</time></trkpt><trkpt lat="43.80103671334924" lon="12.287799534909139"><ele>812.0</ele><time>2026-04-11T12:53:14.999Z</time></trkpt><trkpt lat="43.801105119173364" lon="12.287753256768433"><ele>812.8333333333334</ele><time>2026-04-11T12:53:15.999Z</time></trkpt><trkpt lat="43.801175742278176" lon="12.287751615823568"><ele>813.6666666666667</ele><time>2026-04-11T12:53:16.999Z</time></trkpt><trkpt lat="43.801244036234074" lon="12.287796724563716"><ele>814.5</ele><time>2026-04-11T12:53:17.999Z</time></trkpt><trkpt lat="43.80129018068792" lon="12.287888327719358"><ele>815.3333333333333</ele><time>2026-04-11T12:53:18.999Z</time></trkpt><trkpt lat="43.801324333773465" lon="12.288004288143535"><ele>816.1666666666666</ele><time>2026-04-11T12:53:19.999Z</time></trkpt><trkpt lat="43.801349020111736" lon="12.288137063802376"><ele>817.0</ele><time>2026-04-11T12:53:20.999Z</time></trkpt><trkpt lat="43.80138556732436" lon="12.288269807935785"><ele>817.0</ele><time>2026-04-11T12:53:21.999Z</time></trkpt><trkpt lat="43.801422156828636" lon="12.288398018736627"><ele>817.0</ele><time>2026-04-11T12:53:22.999Z</time></trkpt><trkpt lat="43.80146198096561" lon="12.288511233834745"><ele>817.0</ele><time>2026-04-11T12:53:23.999Z</time></trkpt><trkpt lat="43.80150549352246" lon="12.288622305179155"><ele>817.0</ele><time>2026-04-11T12:53:24.999Z</time></trkpt><trkpt lat="43.80155190345296" lon="12.288740410258022"><ele>817.0</ele><time>2026-04-11T12:53:25.999Z</time></trkpt><trkpt lat="43.80163066426251" lon="12.288826551251695"><ele>817.0</ele><time>2026-04-11T12:53:26.999Z</time></trkpt><trkpt lat="43.80172037714502" lon="12.288904377779494"><ele>817.0</ele><time>2026-04-11T12:53:27.999Z</time></trkpt><trkpt lat="43.801819472543734" lon="12.288964448961114"><ele>817.0</ele><time>2026-04-11T12:53:28.999Z</time></trkpt><trkpt lat="43.80191641996683" lon="12.288993265952575"><ele>817.0</ele><time>2026-04-11T12:53:29.999Z</time></trkpt><trkpt lat="43.80201618619744" lon="12.288966982868942"><ele>817.0</ele><time>2026-04-11T12:53:30.999Z</time></trkpt><trkpt lat="43.802109853182195" lon="12.288908828153826"><ele>813.4999999999999</ele><time>2026-04-11T12:53:31.999Z</time></trkpt><trkpt lat="43.80219782817535" lon="12.288822105928519"><ele>810.0</ele><time>2026-04-11T12:53:32.999Z</time></trkpt><trkpt lat="43.802257235484575" lon="12.2887264156987"><ele>806.5</ele><time>2026-04-11T12:53:33.999Z</time></trkpt><trkpt lat="43.80231571585258" lon="12.288658988917023"><ele>803.0</ele><time>2026-04-11T12:53:34.999Z</time></trkpt><trkpt lat="43.80238067961451" lon="12.288618863981025"><ele>799.4999999999999</ele><time>2026-04-11T12:53:35.999Z</time></trkpt><trkpt lat="43.80245544173972" lon="12.288618298454706"><ele>796.0</ele><time>2026-04-11T12:53:36.999Z</time></trkpt><trkpt lat="43.802525134173926" lon="12.288672758970627"><ele>796.0</ele><time>2026-04-11T12:53:37.999Z</time></trkpt><trkpt lat="43.80258301303853" lon="12.288768747543571"><ele>796.0</ele><time>2026-04-11T12:53:38.999Z</time></trkpt><trkpt lat="43.802631516675014" lon="12.288876739312228"><ele>796.0</ele><time>2026-04-11T12:53:39.999Z</time></trkpt><trkpt lat="43.802675335093916" lon="12.289004427967834"><ele>796.0</ele><time>2026-04-11T12:53:40.999Z</time></trkpt><trkpt lat="43.802747317200684" lon="12.289116686041002"><ele>796.0</ele><time>2026-04-11T12:53:41.999Z</time></trkpt><trkpt lat="43.802835133208625" lon="12.28918213267653"><ele>795.5999999999999</ele><time>2026-04-11T12:53:42.999Z</time></trkpt><trkpt lat="43.80294113477858" lon="12.289248964710447"><ele>795.2</ele><time>2026-04-11T12:53:43.999Z</time></trkpt><trkpt lat="43.8030344373756" lon="12.289318332625076"><ele>794.8</ele><time>2026-04-11T12:53:44.999Z</time></trkpt><trkpt lat="43.8031197296055" lon="12.289406915726666"><ele>794.4000000000001</ele><time>2026-04-11T12:53:45.999Z</time></trkpt><trkpt lat="43.80319141022212" lon="12.28952282700693"><ele>794.0</ele><time>2026-04-11T12:53:46.999Z</time></trkpt><trkpt lat="43.8032475211103" lon="12.289643101597857"><ele>792.25</ele><time>2026-04-11T12:53:47.999Z</time></trkpt><trkpt lat="43.803315009522926" lon="12.289763920857858"><ele>790.5</ele><time>2026-04-11T12:53:48.999Z</time></trkpt><trkpt lat="43.80340004475949" lon="12.289863068831695"><ele>788.75</ele><time>2026-04-11T12:53:49.999Z</time></trkpt><trkpt lat="43.803497717986396" lon="12.28995095515049"><ele>787.0</ele><time>2026-04-11T12:53:50.999Z</time></trkpt><trkpt lat="43.80360190537358" lon="12.290026504272053"><ele>787.0</ele><time>2026-04-11T12:53:51.999Z</time></trkpt><trkpt lat="43.80370553590718" lon="12.290098485438582"><ele>787.0</ele><time>2026-04-11T12:53:52.999Z</time></trkpt><trkpt lat="43.80379954621177" lon="12.290176930148158"><ele>787.0</ele><time>2026-04-11T12:53:53.999Z</time></trkpt><trkpt lat="43.804015476858225" lon="12.290311813532306"><ele>787.0</ele><time>2026-04-11T12:53:55.999Z</time></trkpt><trkpt lat="43.8041332677705" lon="12.29037319214413"><ele>787.0</ele><time>2026-04-11T12:53:56.999Z</time></trkpt><trkpt lat="43.80425985501821" lon="12.290428903038945"><ele>787.0</ele><time>2026-04-11T12:53:57.999Z</time></trkpt><trkpt lat="43.804393227449346" lon="12.29048058787853"><ele>787.0</ele><time>2026-04-11T12:53:58.999Z</time></trkpt><trkpt lat="43.804523249984996" lon="12.290511736117569"><ele>785.75</ele><time>2026-04-11T12:53:59.999Z</time></trkpt><trkpt lat="43.804639945949454" lon="12.29053767091947"><ele>784.5</ele><time>2026-04-11T12:54:00.999Z</time></trkpt><trkpt lat="43.80475660667304" lon="12.290556804574976"><ele>783.25</ele><time>2026-04-11T12:54:01.999Z</time></trkpt><trkpt lat="43.80486844580933" lon="12.290566010438884"><ele>782.0</ele><time>2026-04-11T12:54:02.999Z</time></trkpt><trkpt lat="43.804983215781185" lon="12.29055473899797"><ele>782.0</ele><time>2026-04-11T12:54:03.999Z</time></trkpt><trkpt lat="43.80510330395774" lon="12.290506058957975"><ele>782.0</ele><time>2026-04-11T12:54:04.999Z</time></trkpt><trkpt lat="43.80520489808482" lon="12.290403088049091"><ele>782.0</ele><time>2026-04-11T12:54:05.999Z</time></trkpt><trkpt lat="43.80529933282285" lon="12.290288007154881"><ele>782.0</ele><time>2026-04-11T12:54:06.999Z</time></trkpt><trkpt lat="43.80536781934671" lon="12.290151246164854"><ele>783.0</ele><time>2026-04-11T12:54:07.999Z</time></trkpt><trkpt lat="43.805409740922315" lon="12.29000279583817"><ele>784.0</ele><time>2026-04-11T12:54:08.999Z</time></trkpt><trkpt lat="43.80543743155713" lon="12.28983694005559"><ele>785.0</ele><time>2026-04-11T12:54:09.999Z</time></trkpt><trkpt lat="43.80546067567907" lon="12.289682648770906"><ele>786.0</ele><time>2026-04-11T12:54:10.999Z</time></trkpt><trkpt lat="43.80550043435065" lon="12.289524746738751"><ele>783.0</ele><time>2026-04-11T12:54:11.999Z</time></trkpt><trkpt lat="43.80555331412545" lon="12.289397088996838"><ele>780.0</ele><time>2026-04-11T12:54:12.999Z</time></trkpt><trkpt lat="43.80559628003951" lon="12.289280396241908"><ele>777.0</ele><time>2026-04-11T12:54:13.999Z</time></trkpt><trkpt lat="43.80564783744314" lon="12.289176117800613"><ele>774.0</ele><time>2026-04-11T12:54:14.999Z</time></trkpt><trkpt lat="43.805713650201426" lon="12.289101023099079"><ele>771.0</ele><time>2026-04-11T12:54:15.999Z</time></trkpt><trkpt lat="43.805790071913485" lon="12.289078326221617"><ele>771.0</ele><time>2026-04-11T12:54:16.999Z</time></trkpt><trkpt lat="43.80587332778223" lon="12.289115649833446"><ele>771.0</ele><time>2026-04-11T12:54:17.999Z</time></trkpt><trkpt lat="43.80593781295169" lon="12.289195391542448"><ele>771.0</ele><time>2026-04-11T12:54:18.999Z</time></trkpt><trkpt lat="43.80599448987015" lon="12.289304548655338"><ele>771.0</ele><time>2026-04-11T12:54:19.999Z</time></trkpt><trkpt lat="43.80603934875473" lon="12.289408347660439"><ele>771.0</ele><time>2026-04-11T12:54:20.999Z</time></trkpt><trkpt lat="43.80609544991864" lon="12.289535351197449"><ele>772.1999999999999</ele><time>2026-04-11T12:54:21.999Z</time></trkpt><trkpt lat="43.80615677821406" lon="12.28963646238018"><ele>773.4</ele><time>2026-04-11T12:54:22.999Z</time></trkpt><trkpt lat="43.806233422525324" lon="12.28970315270409"><ele>774.6</ele><time>2026-04-11T12:54:23.999Z</time></trkpt><trkpt lat="43.80632744116645" lon="12.289761051949297"><ele>775.8</ele><time>2026-04-11T12:54:24.999Z</time></trkpt><trkpt lat="43.80643550555869" lon="12.289674129315749"><ele>777.0</ele><time>2026-04-11T12:54:25.999Z</time></trkpt><trkpt lat="43.806538737743324" lon="12.289605078995233"><ele>773.0</ele><time>2026-04-11T12:54:26.999Z</time></trkpt><trkpt lat="43.806632099773765" lon="12.289516265145023"><ele>769.0</ele><time>2026-04-11T12:54:27.999Z</time></trkpt><trkpt lat="43.80673545012609" lon="12.289432299242302"><ele>765.0</ele><time>2026-04-11T12:54:29Z</time></trkpt><trkpt lat="43.80684150878993" lon="12.289347472173361"><ele>761.0</ele><time>2026-04-11T12:54:30Z</time></trkpt><trkpt lat="43.80694320428642" lon="12.28925952078738"><ele>760.5</ele><time>2026-04-11T12:54:31Z</time></trkpt><trkpt lat="43.807053428190784" lon="12.289180286164093"><ele>760.0</ele><time>2026-04-11T12:54:32Z</time></trkpt><trkpt lat="43.80717570687602" lon="12.289138745507088"><ele>759.5</ele><time>2026-04-11T12:54:33Z</time></trkpt><trkpt lat="43.80729346355767" lon="12.28915326810327"><ele>759.0</ele><time>2026-04-11T12:54:34Z</time></trkpt><trkpt lat="43.80740307444868" lon="12.289157449968474"><ele>759.0</ele><time>2026-04-11T12:54:35Z</time></trkpt><trkpt lat="43.80751296680092" lon="12.289167461643418"><ele>759.0</ele><time>2026-04-11T12:54:36Z</time></trkpt><trkpt lat="43.8076234367564" lon="12.289182132379224"><ele>759.0</ele><time>2026-04-11T12:54:37Z</time></trkpt><trkpt lat="43.80773021800607" lon="12.289202583496655"><ele>759.0</ele><time>2026-04-11T12:54:38Z</time></trkpt><trkpt lat="43.8078391220677" lon="12.28923403618228"><ele>759.0</ele><time>2026-04-11T12:54:39Z</time></trkpt><trkpt lat="43.80795455909862" lon="12.289261881465617"><ele>757.0</ele><time>2026-04-11T12:54:40Z</time></trkpt><trkpt lat="43.80806701225419" lon="12.28931257861658"><ele>755.0</ele><time>2026-04-11T12:54:41Z</time></trkpt><trkpt lat="43.80817527080517" lon="12.289332805216665"><ele>753.0</ele><time>2026-04-11T12:54:42Z</time></trkpt><trkpt lat="43.80829214429848" lon="12.289356904510917"><ele>751.0</ele><time>2026-04-11T12:54:43Z</time></trkpt><trkpt lat="43.808400575172854" lon="12.289338698426224"><ele>748.4</ele><time>2026-04-11T12:54:44Z</time></trkpt><trkpt lat="43.80850273013929" lon="12.289272183139348"><ele>745.8</ele><time>2026-04-11T12:54:45Z</time></trkpt><trkpt lat="43.80857608197039" lon="12.289155048600238"><ele>743.1999999999999</ele><time>2026-04-11T12:54:46Z</time></trkpt><trkpt lat="43.80863440667553" lon="12.28902848362494"><ele>740.5999999999999</ele><time>2026-04-11T12:54:47Z</time></trkpt><trkpt lat="43.80867476913816" lon="12.288884319252562"><ele>738.0</ele><time>2026-04-11T12:54:48Z</time></trkpt><trkpt lat="43.808715965621225" lon="12.288744462175911"><ele>738.0</ele><time>2026-04-11T12:54:49Z</time></trkpt><trkpt lat="43.80876391172813" lon="12.288614006318571"><ele>738.0</ele><time>2026-04-11T12:54:50Z</time></trkpt><trkpt lat="43.80882305964958" lon="12.288487674313785"><ele>738.0</ele><time>2026-04-11T12:54:51Z</time></trkpt><trkpt lat="43.80890340601567" lon="12.288364584736764"><ele>738.0</ele><time>2026-04-11T12:54:52Z</time></trkpt><trkpt lat="43.80899852714985" lon="12.288260713115255"><ele>738.0</ele><time>2026-04-11T12:54:53Z</time></trkpt><trkpt lat="43.80909485377215" lon="12.288164365092657"><ele>738.0</ele><time>2026-04-11T12:54:54Z</time></trkpt><trkpt lat="43.80918413666635" lon="12.288056042915937"><ele>738.0</ele><time>2026-04-11T12:54:55Z</time></trkpt><trkpt lat="43.809263036060784" lon="12.287930379618173"><ele>738.0</ele><time>2026-04-11T12:54:56Z</time></trkpt><trkpt lat="43.80932830327981" lon="12.287793245503485"><ele>739.25</ele><time>2026-04-11T12:54:57Z</time></trkpt><trkpt lat="43.809375225769266" lon="12.287635806244364"><ele>740.5</ele><time>2026-04-11T12:54:58Z</time></trkpt><trkpt lat="43.80942118453301" lon="12.28747155657379"><ele>741.75</ele><time>2026-04-11T12:54:59Z</time></trkpt><trkpt lat="43.80946711026867" lon="12.287310044041647"><ele>743.0</ele><time>2026-04-11T12:55:00Z</time></trkpt><trkpt lat="43.80952272055419" lon="12.287151763429698"><ele>743.0</ele><time>2026-04-11T12:55:01Z</time></trkpt><trkpt lat="43.80958579080743" lon="12.287007075435922"><ele>743.0</ele><time>2026-04-11T12:55:02Z</time></trkpt><trkpt lat="43.80964285155622" lon="12.28686041881048"><ele>743.0</ele><time>2026-04-11T12:55:03Z</time></trkpt><trkpt lat="43.80967765293237" lon="12.28670532155306"><ele>743.0</ele><time>2026-04-11T12:55:04Z</time></trkpt><trkpt lat="43.80968187787661" lon="12.286544244364233"><ele>741.5</ele><time>2026-04-11T12:55:05Z</time></trkpt><trkpt lat="43.809681246836384" lon="12.286385489156448"><ele>740.0</ele><time>2026-04-11T12:55:06Z</time></trkpt><trkpt lat="43.809694389203244" lon="12.286228682359852"><ele>738.5</ele><time>2026-04-11T12:55:07Z</time></trkpt><trkpt lat="43.80972688319404" lon="12.28607872476324"><ele>737.0</ele><time>2026-04-11T12:55:08Z</time></trkpt><trkpt lat="43.80978125904023" lon="12.28593739723748"><ele>737.0</ele><time>2026-04-11T12:55:09Z</time></trkpt><trkpt lat="43.80983627753379" lon="12.285805524739796"><ele>737.0</ele><time>2026-04-11T12:55:10Z</time></trkpt><trkpt lat="43.80988356358481" lon="12.285679076846389"><ele>737.0</ele><time>2026-04-11T12:55:11Z</time></trkpt><trkpt lat="43.8099244885223" lon="12.28555709876162"><ele>737.0</ele><time>2026-04-11T12:55:12Z</time></trkpt><trkpt lat="43.80996578207687" lon="12.285436916793795"><ele>737.0</ele><time>2026-04-11T12:55:13Z</time></trkpt><trkpt lat="43.81002249258115" lon="12.285326802829841"><ele>735.6</ele><time>2026-04-11T12:55:14Z</time></trkpt><trkpt lat="43.81010882530637" lon="12.285255717432873"><ele>734.2</ele><time>2026-04-11T12:55:15Z</time></trkpt><trkpt lat="43.81020144672348" lon="12.285187428100206"><ele>732.8</ele><time>2026-04-11T12:55:15.999Z</time></trkpt><trkpt lat="43.81030342563294" lon="12.285123099785014"><ele>731.4</ele><time>2026-04-11T12:55:16.999Z</time></trkpt><trkpt lat="43.810411912826716" lon="12.28505826455429"><ele>730.0</ele><time>2026-04-11T12:55:17.999Z</time></trkpt><trkpt lat="43.810514484892636" lon="12.284993451026642"><ele>730.0</ele><time>2026-04-11T12:55:18.999Z</time></trkpt><trkpt lat="43.81062084770821" lon="12.284920526033257"><ele>730.0</ele><time>2026-04-11T12:55:19.999Z</time></trkpt><trkpt lat="43.8107209709885" lon="12.284838145762961"><ele>730.0</ele><time>2026-04-11T12:55:20.999Z</time></trkpt><trkpt lat="43.8108045882931" lon="12.28471566982462"><ele>730.0</ele><time>2026-04-11T12:55:21.999Z</time></trkpt><trkpt lat="43.810901725275485" lon="12.284611231540868"><ele>727.5</ele><time>2026-04-11T12:55:22.999Z</time></trkpt><trkpt lat="43.81099582009727" lon="12.284505201025636"><ele>725.0</ele><time>2026-04-11T12:55:23.999Z</time></trkpt><trkpt lat="43.81108836986669" lon="12.284395965995195"><ele>722.5</ele><time>2026-04-11T12:55:24.999Z</time></trkpt><trkpt lat="43.81117922706759" lon="12.284303826604551"><ele>720.0</ele><time>2026-04-11T12:55:25.999Z</time></trkpt><trkpt lat="43.81127047857017" lon="12.28421362296183"><ele>720.0</ele><time>2026-04-11T12:55:26.999Z</time></trkpt><trkpt lat="43.81134900687414" lon="12.284104277212245"><ele>720.0</ele><time>2026-04-11T12:55:27.999Z</time></trkpt><trkpt lat="43.81141789629796" lon="12.283983212664321"><ele>720.0</ele><time>2026-04-11T12:55:28.999Z</time></trkpt><trkpt lat="43.811484115448955" lon="12.283857088364302"><ele>720.0</ele><time>2026-04-11T12:55:29.999Z</time></trkpt><trkpt lat="43.81154977543011" lon="12.283724674465155"><ele>716.5</ele><time>2026-04-11T12:55:30.999Z</time></trkpt><trkpt lat="43.81161805313114" lon="12.283589780845155"><ele>713.0</ele><time>2026-04-11T12:55:31.999Z</time></trkpt><trkpt lat="43.81168741735764" lon="12.28345105594796"><ele>709.5</ele><time>2026-04-11T12:55:32.999Z</time></trkpt><trkpt lat="43.811748679668426" lon="12.283304690202788"><ele>706.0</ele><time>2026-04-11T12:55:33.999Z</time></trkpt><trkpt lat="43.81179545666901" lon="12.28315163840771"><ele>707.4</ele><time>2026-04-11T12:55:34.999Z</time></trkpt><trkpt lat="43.811838589811934" lon="12.28299401697119"><ele>708.8</ele><time>2026-04-11T12:55:35.999Z</time></trkpt><trkpt lat="43.81188389310348" lon="12.282849091179457"><ele>710.1999999999999</ele><time>2026-04-11T12:55:36.999Z</time></trkpt><trkpt lat="43.81191808688931" lon="12.282728621746802"><ele>711.5999999999999</ele><time>2026-04-11T12:55:37.999Z</time></trkpt><trkpt lat="43.81195971409196" lon="12.282618563858147"><ele>713.0</ele><time>2026-04-11T12:55:38.999Z</time></trkpt><trkpt lat="43.81201840300412" lon="12.282510910099045"><ele>713.0</ele><time>2026-04-11T12:55:39.999Z</time></trkpt><trkpt lat="43.812099287896565" lon="12.282430485598375"><ele>713.0</ele><time>2026-04-11T12:55:40.999Z</time></trkpt><trkpt lat="43.812192467631704" lon="12.282359267966857"><ele>713.0</ele><time>2026-04-11T12:55:41.999Z</time></trkpt><trkpt lat="43.812296617741374" lon="12.282282822878642"><ele>713.0</ele><time>2026-04-11T12:55:42.999Z</time></trkpt><trkpt lat="43.81240210075435" lon="12.282207081255173"><ele>713.0</ele><time>2026-04-11T12:55:43.999Z</time></trkpt><trkpt lat="43.81250850988157" lon="12.282142682394959"><ele>709.25</ele><time>2026-04-11T12:55:44.999Z</time></trkpt><trkpt lat="43.8126164142878" lon="12.282074445920271"><ele>705.5</ele><time>2026-04-11T12:55:45.999Z</time></trkpt><trkpt lat="43.81271748460275" lon="12.281992736285007"><ele>701.75</ele><time>2026-04-11T12:55:46.999Z</time></trkpt><trkpt lat="43.81281278445312" lon="12.28190364585478"><ele>698.0</ele><time>2026-04-11T12:55:47.999Z</time></trkpt><trkpt lat="43.81289928339698" lon="12.281802066180575"><ele>698.0</ele><time>2026-04-11T12:55:48.999Z</time></trkpt><trkpt lat="43.812970277796154" lon="12.281712116361245"><ele>698.0</ele><time>2026-04-11T12:55:49.999Z</time></trkpt><trkpt lat="43.8130533337549" lon="12.281651460284934"><ele>698.0</ele><time>2026-04-11T12:55:50.999Z</time></trkpt><trkpt lat="43.813157556946265" lon="12.28162946844802"><ele>698.0</ele><time>2026-04-11T12:55:51.999Z</time></trkpt><trkpt lat="43.81327017319511" lon="12.281619509007035"><ele>698.0</ele><time>2026-04-11T12:55:52.999Z</time></trkpt><trkpt lat="43.81338394840731" lon="12.28158921557668"><ele>697.5</ele><time>2026-04-11T12:55:53.999Z</time></trkpt><trkpt lat="43.813495066403874" lon="12.281546593347676"><ele>697.0</ele><time>2026-04-11T12:55:54.999Z</time></trkpt><trkpt lat="43.81360287260733" lon="12.281491821472965"><ele>696.5</ele><time>2026-04-11T12:55:55.999Z</time></trkpt><trkpt lat="43.81371375781" lon="12.281433390104016"><ele>696.0</ele><time>2026-04-11T12:55:56.999Z</time></trkpt><trkpt lat="43.81382353564882" lon="12.281381909453174"><ele>689.5</ele><time>2026-04-11T12:55:57.999Z</time></trkpt><trkpt lat="43.81393297486511" lon="12.281328732425312"><ele>683.0</ele><time>2026-04-11T12:55:58.999Z</time></trkpt><trkpt lat="43.814044105063616" lon="12.281284896107888"><ele>676.5</ele><time>2026-04-11T12:55:59.999Z</time></trkpt><trkpt lat="43.81415816543761" lon="12.281266247567155"><ele>670.0</ele><time>2026-04-11T12:56:00.999Z</time></trkpt><trkpt lat="43.81426237039684" lon="12.281217315384003"><ele>669.5</ele><time>2026-04-11T12:56:01.999Z</time></trkpt><trkpt lat="43.81436527397176" lon="12.281185165491578"><ele>669.0</ele><time>2026-04-11T12:56:02.999Z</time></trkpt><trkpt lat="43.81446648725073" lon="12.28115090229025"><ele>668.5</ele><time>2026-04-11T12:56:03.999Z</time></trkpt><trkpt lat="43.814555798691295" lon="12.281117175936636"><ele>668.0</ele><time>2026-04-11T12:56:04.999Z</time></trkpt><trkpt lat="43.81463408878392" lon="12.281091237669617"><ele>667.5</ele><time>2026-04-11T12:56:05.999Z</time></trkpt><trkpt lat="43.81469671084555" lon="12.281079518322379"><ele>667.0</ele><time>2026-04-11T12:56:06.999Z</time></trkpt><trkpt lat="43.8147618410068" lon="12.281099648353297"><ele>667.0</ele><time>2026-04-11T12:56:07.999Z</time></trkpt><trkpt lat="43.81481805767534" lon="12.281176031939275"><ele>667.0</ele><time>2026-04-11T12:56:08.999Z</time></trkpt><trkpt lat="43.81485353671727" lon="12.281290362812227"><ele>667.0</ele><time>2026-04-11T12:56:09.999Z</time></trkpt><trkpt lat="43.81487577938948" lon="12.281403848716842"><ele>667.0</ele><time>2026-04-11T12:56:10.999Z</time></trkpt><trkpt lat="43.81489973841892" lon="12.281505699307171"><ele>667.0</ele><time>2026-04-11T12:56:11.999Z</time></trkpt><trkpt lat="43.81490049352053" lon="12.281601766362817"><ele>667.0</ele><time>2026-04-11T12:56:12.999Z</time></trkpt><trkpt lat="43.81496026506634" lon="12.281753708962368"><ele>667.0</ele><time>2026-04-11T12:56:14.999Z</time></trkpt><trkpt lat="43.81504696892507" lon="12.281768967229855"><ele>667.0</ele><time>2026-04-11T12:56:15.999Z</time></trkpt><trkpt lat="43.8151208110829" lon="12.281696850735283"><ele>667.0</ele><time>2026-04-11T12:56:16.999Z</time></trkpt><trkpt lat="43.815131565004855" lon="12.28156697560896"><ele>667.0</ele><time>2026-04-11T12:56:17.999Z</time></trkpt><trkpt lat="43.81513994316465" lon="12.281463053942856"><ele>667.0</ele><time>2026-04-11T12:56:18.999Z</time></trkpt><trkpt lat="43.81513305280074" lon="12.281350934120352"><ele>667.0</ele><time>2026-04-11T12:56:19.999Z</time></trkpt><trkpt lat="43.815144204829124" lon="12.281242711651831"><ele>667.0</ele><time>2026-04-11T12:56:20.999Z</time></trkpt><trkpt lat="43.815146353520284" lon="12.281111501202313"><ele>667.0</ele><time>2026-04-11T12:56:21.999Z</time></trkpt><trkpt lat="43.8151464170805" lon="12.280986078357014"><ele>667.0</ele><time>2026-04-11T12:56:22.999Z</time></trkpt><trkpt lat="43.81516091328788" lon="12.280853107915702"><ele>667.0</ele><time>2026-04-11T12:56:23.999Z</time></trkpt><trkpt lat="43.815180729283746" lon="12.280733148211846"><ele>667.0</ele><time>2026-04-11T12:56:24.999Z</time></trkpt><trkpt lat="43.815206942208874" lon="12.280597616516902"><ele>664.0</ele><time>2026-04-11T12:56:25.999Z</time></trkpt><trkpt lat="43.8152632361416" lon="12.28049552076001"><ele>661.0</ele><time>2026-04-11T12:56:26.999Z</time></trkpt><trkpt lat="43.81532162457248" lon="12.280404801087164"><ele>658.0</ele><time>2026-04-11T12:56:27.999Z</time></trkpt><trkpt lat="43.81540232720957" lon="12.280357498061125"><ele>655.0</ele><time>2026-04-11T12:56:28.999Z</time></trkpt><trkpt lat="43.81550521638904" lon="12.280332844602611"><ele>652.0</ele><time>2026-04-11T12:56:29.999Z</time></trkpt><trkpt lat="43.8156065324317" lon="12.280366667121895"><ele>652.0</ele><time>2026-04-11T12:56:30.999Z</time></trkpt><trkpt lat="43.81569335631439" lon="12.280431348154899"><ele>652.0</ele><time>2026-04-11T12:56:31.999Z</time></trkpt><trkpt lat="43.815774339902134" lon="12.280461156523941"><ele>652.0</ele><time>2026-04-11T12:56:32.999Z</time></trkpt><trkpt lat="43.81584781646552" lon="12.280491782396702"><ele>652.0</ele><time>2026-04-11T12:56:33.999Z</time></trkpt><trkpt lat="43.81592760713827" lon="12.280456736366428"><ele>652.0</ele><time>2026-04-11T12:56:35Z</time></trkpt><trkpt lat="43.81600624760155" lon="12.280375817921291"><ele>652.0</ele><time>2026-04-11T12:56:36Z</time></trkpt><trkpt lat="43.81605632799891" lon="12.28027126558406"><ele>649.4</ele><time>2026-04-11T12:56:37Z</time></trkpt><trkpt lat="43.816102345656645" lon="12.280151775986353"><ele>646.8000000000001</ele><time>2026-04-11T12:56:38Z</time></trkpt><trkpt lat="43.816152529472205" lon="12.280014702906072"><ele>644.2</ele><time>2026-04-11T12:56:39Z</time></trkpt><trkpt lat="43.816192946956185" lon="12.279870373025153"><ele>641.6</ele><time>2026-04-11T12:56:40Z</time></trkpt><trkpt lat="43.816220835399186" lon="12.279751732912974"><ele>639.0</ele><time>2026-04-11T12:56:41Z</time></trkpt><trkpt lat="43.816222241448635" lon="12.279629965166423"><ele>639.3333333333334</ele><time>2026-04-11T12:56:42Z</time></trkpt><trkpt lat="43.81619712724474" lon="12.279516572137373"><ele>639.6666666666666</ele><time>2026-04-11T12:56:43Z</time></trkpt><trkpt lat="43.81613459389342" lon="12.279435124129115"><ele>640.0</ele><time>2026-04-11T12:56:44Z</time></trkpt><trkpt lat="43.81605720271414" lon="12.27941310164512"><ele>640.3333333333333</ele><time>2026-04-11T12:56:45Z</time></trkpt><trkpt lat="43.81596751281662" lon="12.27944111273413"><ele>640.6666666666666</ele><time>2026-04-11T12:56:46Z</time></trkpt><trkpt lat="43.81588148252878" lon="12.279485727029225"><ele>641.0</ele><time>2026-04-11T12:56:47Z</time></trkpt><trkpt lat="43.81579525687349" lon="12.279507713025724"><ele>641.0</ele><time>2026-04-11T12:56:48Z</time></trkpt><trkpt lat="43.81570730675513" lon="12.279461208229108"><ele>641.0</ele><time>2026-04-11T12:56:49Z</time></trkpt><trkpt lat="43.81560177270384" lon="12.279449024637184"><ele>641.0</ele><time>2026-04-11T12:56:50Z</time></trkpt><trkpt lat="43.81549992436957" lon="12.279388152209888"><ele>641.0</ele><time>2026-04-11T12:56:51Z</time></trkpt><trkpt lat="43.81540418439679" lon="12.279343513385161"><ele>641.0</ele><time>2026-04-11T12:56:52Z</time></trkpt><trkpt lat="43.81530937100309" lon="12.279289948704205"><ele>641.0</ele><time>2026-04-11T12:56:53Z</time></trkpt><trkpt lat="43.81524371658226" lon="12.279254981107746"><ele>641.0</ele><time>2026-04-11T12:56:54Z</time></trkpt><trkpt lat="43.815221028551434" lon="12.279159040810521"><ele>641.0</ele><time>2026-04-11T12:56:55Z</time></trkpt><trkpt lat="43.81522618177871" lon="12.279035260333071"><ele>641.0</ele><time>2026-04-11T12:56:56Z</time></trkpt><trkpt lat="43.815289302062034" lon="12.278930533803875"><ele>641.0</ele><time>2026-04-11T12:56:57Z</time></trkpt><trkpt lat="43.81539538874385" lon="12.278922229451458"><ele>641.0</ele><time>2026-04-11T12:56:58Z</time></trkpt><trkpt lat="43.81548811296278" lon="12.278863751779525"><ele>639.0</ele><time>2026-04-11T12:56:59Z</time></trkpt><trkpt lat="43.81557438909306" lon="12.27883525622374"><ele>637.0</ele><time>2026-04-11T12:57:00Z</time></trkpt><trkpt lat="43.815653840121556" lon="12.27878559013434"><ele>635.0</ele><time>2026-04-11T12:57:01Z</time></trkpt><trkpt lat="43.81573161657914" lon="12.278719685425017"><ele>633.0</ele><time>2026-04-11T12:57:02Z</time></trkpt><trkpt lat="43.815801631702996" lon="12.278643876742276"><ele>631.0</ele><time>2026-04-11T12:57:03Z</time></trkpt><trkpt lat="43.8158661549438" lon="12.27855133824032"><ele>629.0</ele><time>2026-04-11T12:57:04Z</time></trkpt><trkpt lat="43.81593418561038" lon="12.278448184611939"><ele>628.8</ele><time>2026-04-11T12:57:05Z</time></trkpt><trkpt lat="43.81599839684463" lon="12.278330784314294"><ele>628.5999999999999</ele><time>2026-04-11T12:57:06Z</time></trkpt><trkpt lat="43.81605386770295" lon="12.278215768375553"><ele>628.4</ele><time>2026-04-11T12:57:07Z</time></trkpt><trkpt lat="43.81611250206436" lon="12.278104014228433"><ele>628.1999999999999</ele><time>2026-04-11T12:57:08Z</time></trkpt><trkpt lat="43.81618054423213" lon="12.277991537271395"><ele>628.0</ele><time>2026-04-11T12:57:09Z</time></trkpt><trkpt lat="43.816245777439164" lon="12.277870633395684"><ele>626.6</ele><time>2026-04-11T12:57:10Z</time></trkpt><trkpt lat="43.81630633359156" lon="12.277763714984038"><ele>625.1999999999999</ele><time>2026-04-11T12:57:11Z</time></trkpt><trkpt lat="43.8163669152555" lon="12.277663814142942"><ele>623.8</ele><time>2026-04-11T12:57:12Z</time></trkpt><trkpt lat="43.81642534076994" lon="12.277564953757382"><ele>622.4</ele><time>2026-04-11T12:57:13Z</time></trkpt><trkpt lat="43.81648341059355" lon="12.27745664104888"><ele>621.0</ele><time>2026-04-11T12:57:14Z</time></trkpt><trkpt lat="43.816543075123555" lon="12.277352568254363"><ele>619.8</ele><time>2026-04-11T12:57:15Z</time></trkpt><trkpt lat="43.81660149699064" lon="12.277241999680657"><ele>618.6</ele><time>2026-04-11T12:57:16Z</time></trkpt><trkpt lat="43.81667279157512" lon="12.27713097894107"><ele>617.4</ele><time>2026-04-11T12:57:17Z</time></trkpt><trkpt lat="43.81674836291139" lon="12.27700812485395"><ele>616.2</ele><time>2026-04-11T12:57:18Z</time></trkpt><trkpt lat="43.816839058609084" lon="12.276902006360046"><ele>615.0</ele><time>2026-04-11T12:57:19Z</time></trkpt><trkpt lat="43.81692301638524" lon="12.276785583655991"><ele>614.75</ele><time>2026-04-11T12:57:20Z</time></trkpt><trkpt lat="43.81699712107333" lon="12.276650872754631"><ele>614.5</ele><time>2026-04-11T12:57:21Z</time></trkpt><trkpt lat="43.81709138152516" lon="12.276540304104769"><ele>614.25</ele><time>2026-04-11T12:57:22Z</time></trkpt><trkpt lat="43.81717262042926" lon="12.276427580628903"><ele>614.0</ele><time>2026-04-11T12:57:23Z</time></trkpt><trkpt lat="43.81726002065894" lon="12.276314347142458"><ele>613.5</ele><time>2026-04-11T12:57:23.999Z</time></trkpt><trkpt lat="43.81734693180753" lon="12.276212339676771"><ele>613.0</ele><time>2026-04-11T12:57:24.999Z</time></trkpt><trkpt lat="43.817434262842745" lon="12.276108880878025"><ele>612.5</ele><time>2026-04-11T12:57:25.999Z</time></trkpt><trkpt lat="43.81752328507987" lon="12.275997435863912"><ele>612.0</ele><time>2026-04-11T12:57:26.999Z</time></trkpt><trkpt lat="43.81761177362234" lon="12.275884333977748"><ele>612.0</ele><time>2026-04-11T12:57:27.999Z</time></trkpt><trkpt lat="43.81770194186965" lon="12.275775352146786"><ele>612.0</ele><time>2026-04-11T12:57:28.999Z</time></trkpt><trkpt lat="43.817786813813875" lon="12.275665765816472"><ele>612.0</ele><time>2026-04-11T12:57:29.999Z</time></trkpt><trkpt lat="43.81787046741629" lon="12.2755569703209"><ele>612.0</ele><time>2026-04-11T12:57:30.999Z</time></trkpt><trkpt lat="43.817952710596785" lon="12.27545281560533"><ele>611.2</ele><time>2026-04-11T12:57:31.999Z</time></trkpt><trkpt lat="43.818037870897435" lon="12.275356770159847"><ele>610.4000000000001</ele><time>2026-04-11T12:57:32.999Z</time></trkpt><trkpt lat="43.81811616998399" lon="12.275257961739465"><ele>609.5999999999999</ele><time>2026-04-11T12:57:33.999Z</time></trkpt><trkpt lat="43.81819181478197" lon="12.275160720937311"><ele>608.8</ele><time>2026-04-11T12:57:34.999Z</time></trkpt><trkpt lat="43.818269643825055" lon="12.27506281702313"><ele>608.0</ele><time>2026-04-11T12:57:35.999Z</time></trkpt><trkpt lat="43.818343497881486" lon="12.274965525138288"><ele>608.0</ele><time>2026-04-11T12:57:36.999Z</time></trkpt><trkpt lat="43.818407579775666" lon="12.274860854072832"><ele>608.0</ele><time>2026-04-11T12:57:37.999Z</time></trkpt><trkpt lat="43.81845948306206" lon="12.274731638376911"><ele>608.0</ele><time>2026-04-11T12:57:38.999Z</time></trkpt><trkpt lat="43.81849025979514" lon="12.274599437323928"><ele>608.0</ele><time>2026-04-11T12:57:39.999Z</time></trkpt><trkpt lat="43.81849335505079" lon="12.274439564430462"><ele>608.0</ele><time>2026-04-11T12:57:40.999Z</time></trkpt><trkpt lat="43.81848462272815" lon="12.274276604468385"><ele>606.75</ele><time>2026-04-11T12:57:41.999Z</time></trkpt><trkpt lat="43.81847845116318" lon="12.274111947974706"><ele>605.5</ele><time>2026-04-11T12:57:42.999Z</time></trkpt><trkpt lat="43.81848261112123" lon="12.273945400400857"><ele>604.25</ele><time>2026-04-11T12:57:43.999Z</time></trkpt><trkpt lat="43.818498623295504" lon="12.273786116451475"><ele>603.0</ele><time>2026-04-11T12:57:44.999Z</time></trkpt><trkpt lat="43.81851863158611" lon="12.273627572656189"><ele>603.75</ele><time>2026-04-11T12:57:45.999Z</time></trkpt><trkpt lat="43.818544829937935" lon="12.273473492667195"><ele>604.5</ele><time>2026-04-11T12:57:46.999Z</time></trkpt><trkpt lat="43.818581591092915" lon="12.273322997597619"><ele>605.25</ele><time>2026-04-11T12:57:47.999Z</time></trkpt><trkpt lat="43.818618400421734" lon="12.273175088151003"><ele>606.0</ele><time>2026-04-11T12:57:48.999Z</time></trkpt><trkpt lat="43.81865270996934" lon="12.273032248557602"><ele>606.0</ele><time>2026-04-11T12:57:49.999Z</time></trkpt><trkpt lat="43.81868486499077" lon="12.272890724213982"><ele>606.0</ele><time>2026-04-11T12:57:50.999Z</time></trkpt><trkpt lat="43.818716614304016" lon="12.272750948119802"><ele>606.0</ele><time>2026-04-11T12:57:51.999Z</time></trkpt><trkpt lat="43.818744941091786" lon="12.272610243838631"><ele>606.0</ele><time>2026-04-11T12:57:52.999Z</time></trkpt><trkpt lat="43.818772113950104" lon="12.272470058828139"><ele>606.0</ele><time>2026-04-11T12:57:53.999Z</time></trkpt><trkpt lat="43.818793154072786" lon="12.272329088728046"><ele>604.8</ele><time>2026-04-11T12:57:54.999Z</time></trkpt><trkpt lat="43.81880681311576" lon="12.272183987953786"><ele>603.6</ele><time>2026-04-11T12:57:55.999Z</time></trkpt><trkpt lat="43.818810546965395" lon="12.272042024304477"><ele>602.4</ele><time>2026-04-11T12:57:56.999Z</time></trkpt><trkpt lat="43.818796703852826" lon="12.271891892688888"><ele>601.2</ele><time>2026-04-11T12:57:57.999Z</time></trkpt><trkpt lat="43.81877578265044" lon="12.271742712963817"><ele>600.0</ele><time>2026-04-11T12:57:58.999Z</time></trkpt><trkpt lat="43.81874867001554" lon="12.271593109621412"><ele>598.0</ele><time>2026-04-11T12:57:59.999Z</time></trkpt><trkpt lat="43.81871023476174" lon="12.271440185599268"><ele>596.0</ele><time>2026-04-11T12:58:00.999Z</time></trkpt><trkpt lat="43.81867268009592" lon="12.271290158259662"><ele>594.0</ele><time>2026-04-11T12:58:01.999Z</time></trkpt><trkpt lat="43.818636046222565" lon="12.271139872852114"><ele>592.0</ele><time>2026-04-11T12:58:02.999Z</time></trkpt><trkpt lat="43.8186004181634" lon="12.270988649695232"><ele>592.0</ele><time>2026-04-11T12:58:03.999Z</time></trkpt><trkpt lat="43.81856739168844" lon="12.270835522260715"><ele>592.0</ele><time>2026-04-11T12:58:04.999Z</time></trkpt><trkpt lat="43.81853457414695" lon="12.270682929611734"><ele>592.0</ele><time>2026-04-11T12:58:05.999Z</time></trkpt><trkpt lat="43.81849996367237" lon="12.27053295703812"><ele>592.0</ele><time>2026-04-11T12:58:06.999Z</time></trkpt><trkpt lat="43.81846428314975" lon="12.270384928795004"><ele>591.0</ele><time>2026-04-11T12:58:07.999Z</time></trkpt><trkpt lat="43.818428838426776" lon="12.270237798576005"><ele>590.0</ele><time>2026-04-11T12:58:08.999Z</time></trkpt><trkpt lat="43.81839498252014" lon="12.270089871241037"><ele>589.0</ele><time>2026-04-11T12:58:09.999Z</time></trkpt><trkpt lat="43.81835948694152" lon="12.2699441349361"><ele>588.0</ele><time>2026-04-11T12:58:10.999Z</time></trkpt><trkpt lat="43.81832502068945" lon="12.26979937097654"><ele>587.0</ele><time>2026-04-11T12:58:11.999Z</time></trkpt><trkpt lat="43.81829177928234" lon="12.269655300762173"><ele>586.8000000000001</ele><time>2026-04-11T12:58:12.999Z</time></trkpt><trkpt lat="43.818259653272705" lon="12.269514629182732"><ele>586.6</ele><time>2026-04-11T12:58:13.999Z</time></trkpt><trkpt lat="43.81822440580333" lon="12.269377779666732"><ele>586.4000000000001</ele><time>2026-04-11T12:58:14.999Z</time></trkpt><trkpt lat="43.81819613894099" lon="12.26924144757598"><ele>586.2</ele><time>2026-04-11T12:58:15.999Z</time></trkpt><trkpt lat="43.81816865174022" lon="12.269104742918469"><ele>586.0</ele><time>2026-04-11T12:58:16.999Z</time></trkpt><trkpt lat="43.81814209902183" lon="12.268967413553073"><ele>584.8</ele><time>2026-04-11T12:58:17.999Z</time></trkpt><trkpt lat="43.818118922790646" lon="12.268829270390734"><ele>583.6</ele><time>2026-04-11T12:58:18.999Z</time></trkpt><trkpt lat="43.818093856710796" lon="12.268690006383059"><ele>582.4</ele><time>2026-04-11T12:58:19.999Z</time></trkpt><trkpt lat="43.81807130497131" lon="12.268547444865602"><ele>581.2</ele><time>2026-04-11T12:58:20.999Z</time></trkpt><trkpt lat="43.81804711355493" lon="12.268402609677901"><ele>580.0</ele><time>2026-04-11T12:58:21.999Z</time></trkpt><trkpt lat="43.81802980291336" lon="12.268251172688489"><ele>578.8</ele><time>2026-04-11T12:58:22.999Z</time></trkpt><trkpt lat="43.81802375293378" lon="12.268095159006558"><ele>577.6</ele><time>2026-04-11T12:58:23.999Z</time></trkpt><trkpt lat="43.81803235518764" lon="12.267943580271762"><ele>576.4</ele><time>2026-04-11T12:58:24.999Z</time></trkpt><trkpt lat="43.81804664723169" lon="12.267795191843486"><ele>575.2</ele><time>2026-04-11T12:58:25.999Z</time></trkpt><trkpt lat="43.81807523912567" lon="12.267662681630542"><ele>574.0</ele><time>2026-04-11T12:58:26.999Z</time></trkpt><trkpt lat="43.81808961795346" lon="12.267547775579988"><ele>574.0</ele><time>2026-04-11T12:58:27.999Z</time></trkpt><trkpt lat="43.8180887467925" lon="12.26744543457704"><ele>574.0</ele><time>2026-04-11T12:58:28.999Z</time></trkpt><trkpt lat="43.81811949417234" lon="12.267360012566819"><ele>574.0</ele><time>2026-04-11T12:58:29.999Z</time></trkpt><trkpt lat="43.81816287690676" lon="12.267281612261344"><ele>574.0</ele><time>2026-04-11T12:58:30.999Z</time></trkpt><trkpt lat="43.8182390280979" lon="12.26721528021097"><ele>574.0</ele><time>2026-04-11T12:58:31.999Z</time></trkpt><trkpt lat="43.81832891885387" lon="12.267148167858398"><ele>574.0</ele><time>2026-04-11T12:58:32.999Z</time></trkpt><trkpt lat="43.81841248549083" lon="12.267082802273293"><ele>572.6666666666667</ele><time>2026-04-11T12:58:33.999Z</time></trkpt><trkpt lat="43.818472010385335" lon="12.267040710669018"><ele>571.3333333333334</ele><time>2026-04-11T12:58:34.999Z</time></trkpt><trkpt lat="43.81853628965733" lon="12.266999092138205"><ele>570.0</ele><time>2026-04-11T12:58:35.999Z</time></trkpt><trkpt lat="43.81860981050286" lon="12.266951056778826"><ele>568.6666666666666</ele><time>2026-04-11T12:58:36.999Z</time></trkpt><trkpt lat="43.81868011499589" lon="12.266906052620001"><ele>567.3333333333333</ele><time>2026-04-11T12:58:37.999Z</time></trkpt><trkpt lat="43.81875394458553" lon="12.266864672481114"><ele>566.0</ele><time>2026-04-11T12:58:38.999Z</time></trkpt><trkpt lat="43.81882432515361" lon="12.266815316090474"><ele>565.6666666666666</ele><time>2026-04-11T12:58:39.999Z</time></trkpt><trkpt lat="43.81888254930778" lon="12.26675954064458"><ele>565.3333333333333</ele><time>2026-04-11T12:58:41Z</time></trkpt><trkpt lat="43.81894629739727" lon="12.266701747819905"><ele>565.0</ele><time>2026-04-11T12:58:42Z</time></trkpt><trkpt lat="43.8190120994365" lon="12.266642418424802"><ele>564.6666666666666</ele><time>2026-04-11T12:58:43Z</time></trkpt><trkpt lat="43.81907819879423" lon="12.266585330095637"><ele>564.3333333333334</ele><time>2026-04-11T12:58:44Z</time></trkpt><trkpt lat="43.81914328272637" lon="12.266525755381263"><ele>564.0</ele><time>2026-04-11T12:58:45Z</time></trkpt><trkpt lat="43.81920651731377" lon="12.26646559223175"><ele>562.3333333333334</ele><time>2026-04-11T12:58:46Z</time></trkpt><trkpt lat="43.81927591695209" lon="12.266409827327859"><ele>560.6666666666666</ele><time>2026-04-11T12:58:47Z</time></trkpt><trkpt lat="43.819348820942814" lon="12.266370940568427"><ele>559.0</ele><time>2026-04-11T12:58:48Z</time></trkpt><trkpt lat="43.81942199504513" lon="12.26634992914542"><ele>557.3333333333333</ele><time>2026-04-11T12:58:49Z</time></trkpt><trkpt lat="43.8195082542281" lon="12.266357401501486"><ele>555.6666666666666</ele><time>2026-04-11T12:58:50Z</time></trkpt><trkpt lat="43.819595091235215" lon="12.266375440454473"><ele>554.0</ele><time>2026-04-11T12:58:51Z</time></trkpt><trkpt lat="43.81968980939646" lon="12.26639643969496"><ele>555.25</ele><time>2026-04-11T12:58:52Z</time></trkpt><trkpt lat="43.819797298713034" lon="12.26641621926319"><ele>556.5</ele><time>2026-04-11T12:58:53Z</time></trkpt><trkpt lat="43.819916361333256" lon="12.266430092782482"><ele>557.75</ele><time>2026-04-11T12:58:54Z</time></trkpt><trkpt lat="43.820030221297635" lon="12.266443345386165"><ele>559.0</ele><time>2026-04-11T12:58:55Z</time></trkpt><trkpt lat="43.8201376055532" lon="12.266450802801018"><ele>557.25</ele><time>2026-04-11T12:58:56Z</time></trkpt><trkpt lat="43.82025944873002" lon="12.266456566104239"><ele>555.5</ele><time>2026-04-11T12:58:57Z</time></trkpt><trkpt lat="43.82037562404313" lon="12.266448930629911"><ele>553.75</ele><time>2026-04-11T12:58:58Z</time></trkpt><trkpt lat="43.82049256326627" lon="12.266448582255391"><ele>552.0</ele><time>2026-04-11T12:58:59Z</time></trkpt><trkpt lat="43.820605375263405" lon="12.266479443165219"><ele>552.0</ele><time>2026-04-11T12:59:00Z</time></trkpt><trkpt lat="43.82072584121142" lon="12.266497727234913"><ele>552.0</ele><time>2026-04-11T12:59:01Z</time></trkpt><trkpt lat="43.82085361206611" lon="12.266540186991904"><ele>552.0</ele><time>2026-04-11T12:59:02Z</time></trkpt><trkpt lat="43.82097587932406" lon="12.26658030798167"><ele>552.0</ele><time>2026-04-11T12:59:03Z</time></trkpt><trkpt lat="43.82109756040843" lon="12.26661556315197"><ele>550.25</ele><time>2026-04-11T12:59:04Z</time></trkpt><trkpt lat="43.82121541181668" lon="12.266655263604772"><ele>548.5</ele><time>2026-04-11T12:59:05Z</time></trkpt><trkpt lat="43.821338408443516" lon="12.266690244025112"><ele>546.75</ele><time>2026-04-11T12:59:06Z</time></trkpt><trkpt lat="43.82145410365866" lon="12.266726190019572"><ele>545.0</ele><time>2026-04-11T12:59:07Z</time></trkpt><trkpt lat="43.82157615005095" lon="12.266758434998746"><ele>545.0</ele><time>2026-04-11T12:59:08Z</time></trkpt><trkpt lat="43.82168760816824" lon="12.266814588681632"><ele>545.0</ele><time>2026-04-11T12:59:09Z</time></trkpt><trkpt lat="43.821807474879876" lon="12.266833064751244"><ele>545.0</ele><time>2026-04-11T12:59:10Z</time></trkpt><trkpt lat="43.82192091649476" lon="12.266868217761177"><ele>545.0</ele><time>2026-04-11T12:59:11Z</time></trkpt><trkpt lat="43.82203343918091" lon="12.266905562282084"><ele>545.2</ele><time>2026-04-11T12:59:12Z</time></trkpt><trkpt lat="43.82213875273755" lon="12.266949216482406"><ele>545.4</ele><time>2026-04-11T12:59:13Z</time></trkpt><trkpt lat="43.82223511953076" lon="12.267013433680265"><ele>545.6</ele><time>2026-04-11T12:59:14Z</time></trkpt><trkpt lat="43.8223058676216" lon="12.267134331171777"><ele>545.8</ele><time>2026-04-11T12:59:15Z</time></trkpt><trkpt lat="43.82239080680456" lon="12.267227058227013"><ele>546.0</ele><time>2026-04-11T12:59:16Z</time></trkpt><trkpt lat="43.82247708677575" lon="12.26731979437316"><ele>546.0</ele><time>2026-04-11T12:59:17Z</time></trkpt><trkpt lat="43.822569195557726" lon="12.2674187954543"><ele>546.0</ele><time>2026-04-11T12:59:18Z</time></trkpt><trkpt lat="43.822647166114365" lon="12.267502600337234"><ele>546.0</ele><time>2026-04-11T12:59:19Z</time></trkpt><trkpt lat="43.82273050817603" lon="12.26758318750158"><ele>546.0</ele><time>2026-04-11T12:59:20Z</time></trkpt><trkpt lat="43.822813473982265" lon="12.267646968124566"><ele>546.0</ele><time>2026-04-11T12:59:21Z</time></trkpt><trkpt lat="43.822919504039355" lon="12.267707364653294"><ele>542.5</ele><time>2026-04-11T12:59:22Z</time></trkpt><trkpt lat="43.82302623832438" lon="12.267756285831432"><ele>539.0</ele><time>2026-04-11T12:59:23Z</time></trkpt><trkpt lat="43.82313307402015" lon="12.267802039042731"><ele>535.5</ele><time>2026-04-11T12:59:24Z</time></trkpt><trkpt lat="43.82324644208293" lon="12.26785001931946"><ele>532.0</ele><time>2026-04-11T12:59:25Z</time></trkpt><trkpt lat="43.82336312921024" lon="12.267899404231011"><ele>532.0</ele><time>2026-04-11T12:59:26Z</time></trkpt><trkpt lat="43.823478679145246" lon="12.267948307906561"><ele>532.0</ele><time>2026-04-11T12:59:27Z</time></trkpt><trkpt lat="43.82359808110994" lon="12.267975552321"><ele>532.0</ele><time>2026-04-11T12:59:28Z</time></trkpt><trkpt lat="43.82370965602987" lon="12.26802762350738"><ele>532.0</ele><time>2026-04-11T12:59:29Z</time></trkpt><trkpt lat="43.823823270601785" lon="12.26808165507704"><ele>533.5</ele><time>2026-04-11T12:59:30Z</time></trkpt><trkpt lat="43.8239320420909" lon="12.268129097463849"><ele>535.0</ele><time>2026-04-11T12:59:31Z</time></trkpt><trkpt lat="43.824041439352946" lon="12.268173560682161"><ele>536.5</ele><time>2026-04-11T12:59:32Z</time></trkpt><trkpt lat="43.82415284933187" lon="12.268219389528914"><ele>538.0</ele><time>2026-04-11T12:59:33Z</time></trkpt><trkpt lat="43.8242607948138" lon="12.268264197519004"><ele>534.75</ele><time>2026-04-11T12:59:34Z</time></trkpt><trkpt lat="43.82437054017923" lon="12.268306056818053"><ele>531.5</ele><time>2026-04-11T12:59:34.999Z</time></trkpt><trkpt lat="43.82448196280671" lon="12.268351980932126"><ele>528.25</ele><time>2026-04-11T12:59:35.999Z</time></trkpt><trkpt lat="43.824590310640595" lon="12.268412443618711"><ele>525.0</ele><time>2026-04-11T12:59:36.999Z</time></trkpt><trkpt lat="43.82469726822608" lon="12.268482881703296"><ele>525.0</ele><time>2026-04-11T12:59:37.999Z</time></trkpt><trkpt lat="43.824804749003064" lon="12.268563682848347"><ele>525.0</ele><time>2026-04-11T12:59:38.999Z</time></trkpt><trkpt lat="43.82490410414719" lon="12.268675693467923"><ele>525.0</ele><time>2026-04-11T12:59:39.999Z</time></trkpt><trkpt lat="43.82498165210347" lon="12.268799833193846"><ele>525.0</ele><time>2026-04-11T12:59:40.999Z</time></trkpt><trkpt lat="43.82505108134116" lon="12.268935609797074"><ele>522.0</ele><time>2026-04-11T12:59:41.999Z</time></trkpt><trkpt lat="43.82509856366324" lon="12.269082945967698"><ele>519.0</ele><time>2026-04-11T12:59:42.999Z</time></trkpt><trkpt lat="43.82513567295066" lon="12.269236121784443"><ele>516.0</ele><time>2026-04-11T12:59:43.999Z</time></trkpt><trkpt lat="43.825159088200934" lon="12.269401126817142"><ele>513.0</ele><time>2026-04-11T12:59:44.999Z</time></trkpt><trkpt lat="43.825177090798405" lon="12.269566367194159"><ele>513.0</ele><time>2026-04-11T12:59:45.999Z</time></trkpt><trkpt lat="43.82519857462061" lon="12.26972968196862"><ele>513.0</ele><time>2026-04-11T12:59:46.999Z</time></trkpt><trkpt lat="43.82521754115001" lon="12.269893281826553"><ele>513.0</ele><time>2026-04-11T12:59:47.999Z</time></trkpt><trkpt lat="43.82522946999903" lon="12.270057551000956"><ele>513.0</ele><time>2026-04-11T12:59:48.999Z</time></trkpt><trkpt lat="43.82523653913162" lon="12.270217048280632"><ele>513.0</ele><time>2026-04-11T12:59:49.999Z</time></trkpt><trkpt lat="43.825254714069715" lon="12.270369087302928"><ele>513.0</ele><time>2026-04-11T12:59:50.999Z</time></trkpt><trkpt lat="43.82528884193422" lon="12.27051402837777"><ele>513.0</ele><time>2026-04-11T12:59:51.999Z</time></trkpt><trkpt lat="43.82532883440245" lon="12.270653667656607"><ele>513.0</ele><time>2026-04-11T12:59:52.999Z</time></trkpt><trkpt lat="43.825371769797485" lon="12.270802544070893"><ele>513.0</ele><time>2026-04-11T12:59:53.999Z</time></trkpt><trkpt lat="43.82540517694272" lon="12.270956181609076"><ele>513.0</ele><time>2026-04-11T12:59:54.999Z</time></trkpt><trkpt lat="43.8254234232852" lon="12.271121499074955"><ele>513.0</ele><time>2026-04-11T12:59:55.999Z</time></trkpt><trkpt lat="43.825422477367205" lon="12.271293955340292"><ele>513.0</ele><time>2026-04-11T12:59:56.999Z</time></trkpt><trkpt lat="43.825409825278705" lon="12.271467368095168"><ele>513.0</ele><time>2026-04-11T12:59:57.999Z</time></trkpt><trkpt lat="43.82538262869411" lon="12.271637221665591"><ele>513.25</ele><time>2026-04-11T12:59:58.999Z</time></trkpt><trkpt lat="43.82536140032969" lon="12.271804265711273"><ele>513.5</ele><time>2026-04-11T12:59:59.999Z</time></trkpt><trkpt lat="43.82534558427528" lon="12.271976221331636"><ele>513.75</ele><time>2026-04-11T13:00:00.999Z</time></trkpt><trkpt lat="43.825328945303255" lon="12.272151549168811"><ele>514.0</ele><time>2026-04-11T13:00:01.999Z</time></trkpt><trkpt lat="43.82531761024209" lon="12.27232617991003"><ele>512.5</ele><time>2026-04-11T13:00:02.999Z</time></trkpt><trkpt lat="43.825312744485764" lon="12.272502535475203"><ele>511.0</ele><time>2026-04-11T13:00:03.999Z</time></trkpt><trkpt lat="43.82530814251217" lon="12.272675782350415"><ele>509.5</ele><time>2026-04-11T13:00:04.999Z</time></trkpt><trkpt lat="43.82530068263525" lon="12.272846594660109"><ele>508.0</ele><time>2026-04-11T13:00:05.999Z</time></trkpt><trkpt lat="43.82529482505698" lon="12.273018297330186"><ele>506.5</ele><time>2026-04-11T13:00:06.999Z</time></trkpt><trkpt lat="43.82528991081604" lon="12.273194475618137"><ele>505.0</ele><time>2026-04-11T13:00:07.999Z</time></trkpt><trkpt lat="43.82529007095004" lon="12.273366840433553"><ele>503.5</ele><time>2026-04-11T13:00:08.999Z</time></trkpt><trkpt lat="43.82528614127227" lon="12.273539866246667"><ele>502.0</ele><time>2026-04-11T13:00:09.999Z</time></trkpt><trkpt lat="43.82527200252221" lon="12.27371092085734"><ele>502.0</ele><time>2026-04-11T13:00:10.999Z</time></trkpt><trkpt lat="43.825244660630574" lon="12.273878707851866"><ele>502.0</ele><time>2026-04-11T13:00:11.999Z</time></trkpt><trkpt lat="43.82520302749341" lon="12.274041364322041"><ele>502.0</ele><time>2026-04-11T13:00:12.999Z</time></trkpt><trkpt lat="43.825141661185455" lon="12.274194808060468"><ele>502.0</ele><time>2026-04-11T13:00:13.999Z</time></trkpt><trkpt lat="43.82506817923663" lon="12.274331201375468"><ele>505.0</ele><time>2026-04-11T13:00:14.999Z</time></trkpt><trkpt lat="43.824992421177996" lon="12.274465180988939"><ele>508.0</ele><time>2026-04-11T13:00:15.999Z</time></trkpt><trkpt lat="43.82491659953242" lon="12.274599427534058"><ele>511.0</ele><time>2026-04-11T13:00:16.999Z</time></trkpt><trkpt lat="43.82484286982136" lon="12.27472942110969"><ele>514.0</ele><time>2026-04-11T13:00:17.999Z</time></trkpt><trkpt lat="43.82476776812953" lon="12.274855863189494"><ele>514.0</ele><time>2026-04-11T13:00:18.999Z</time></trkpt><trkpt lat="43.82469294295882" lon="12.274984445020348"><ele>514.0</ele><time>2026-04-11T13:00:19.999Z</time></trkpt><trkpt lat="43.82461689708282" lon="12.275106760211429"><ele>514.0</ele><time>2026-04-11T13:00:20.999Z</time></trkpt><trkpt lat="43.824549113443226" lon="12.275232159025633"><ele>514.0</ele><time>2026-04-11T13:00:21.999Z</time></trkpt><trkpt lat="43.82448126671997" lon="12.275356235841716"><ele>514.0</ele><time>2026-04-11T13:00:22.999Z</time></trkpt><trkpt lat="43.82444640096098" lon="12.275518889591487"><ele>514.0</ele><time>2026-04-11T13:00:23.999Z</time></trkpt><trkpt lat="43.824446389391646" lon="12.275696218733527"><ele>514.0</ele><time>2026-04-11T13:00:24.999Z</time></trkpt><trkpt lat="43.824474056204096" lon="12.275879937022324"><ele>514.0</ele><time>2026-04-11T13:00:25.999Z</time></trkpt><trkpt lat="43.82452975997671" lon="12.27604124648773"><ele>512.0</ele><time>2026-04-11T13:00:26.999Z</time></trkpt><trkpt lat="43.82456987640667" lon="12.276204691185667"><ele>510.0</ele><time>2026-04-11T13:00:27.999Z</time></trkpt><trkpt lat="43.824596557617056" lon="12.2763705060213"><ele>508.0</ele><time>2026-04-11T13:00:28.999Z</time></trkpt><trkpt lat="43.82459915738508" lon="12.27654255331802"><ele>506.0</ele><time>2026-04-11T13:00:29.999Z</time></trkpt><trkpt lat="43.82458430903537" lon="12.27671452079273"><ele>505.75</ele><time>2026-04-11T13:00:30.999Z</time></trkpt><trkpt lat="43.82454309861864" lon="12.276875768548722"><ele>505.5</ele><time>2026-04-11T13:00:31.999Z</time></trkpt><trkpt lat="43.82448788396722" lon="12.277020968697938"><ele>505.25</ele><time>2026-04-11T13:00:32.999Z</time></trkpt><trkpt lat="43.82442140669319" lon="12.27715791945945"><ele>505.0</ele><time>2026-04-11T13:00:33.999Z</time></trkpt><trkpt lat="43.82435561141599" lon="12.277296460657029"><ele>507.0</ele><time>2026-04-11T13:00:34.999Z</time></trkpt><trkpt lat="43.824292491253246" lon="12.277432515912697"><ele>509.0</ele><time>2026-04-11T13:00:35.999Z</time></trkpt><trkpt lat="43.8242403740649" lon="12.27757511514601"><ele>511.0</ele><time>2026-04-11T13:00:36.999Z</time></trkpt><trkpt lat="43.824185128913356" lon="12.277719416005562"><ele>513.0</ele><time>2026-04-11T13:00:37.999Z</time></trkpt><trkpt lat="43.824178150976785" lon="12.27788726318514"><ele>513.0</ele><time>2026-04-11T13:00:38.999Z</time></trkpt><trkpt lat="43.82420108122657" lon="12.278057077240064"><ele>513.0</ele><time>2026-04-11T13:00:39.999Z</time></trkpt><trkpt lat="43.82427433989917" lon="12.278212399895088"><ele>513.0</ele><time>2026-04-11T13:00:40.999Z</time></trkpt><trkpt lat="43.82432684451269" lon="12.278368602988357"><ele>513.0</ele><time>2026-04-11T13:00:41.999Z</time></trkpt><trkpt lat="43.824379494839064" lon="12.278522797083458"><ele>508.5</ele><time>2026-04-11T13:00:42.999Z</time></trkpt><trkpt lat="43.82442960857787" lon="12.27866894747308"><ele>504.0</ele><time>2026-04-11T13:00:43.999Z</time></trkpt><trkpt lat="43.824479772976765" lon="12.278816881152968"><ele>499.5</ele><time>2026-04-11T13:00:44.999Z</time></trkpt><trkpt lat="43.8245323614507" lon="12.27896344028001"><ele>495.0</ele><time>2026-04-11T13:00:46Z</time></trkpt><trkpt lat="43.8245830955422" lon="12.279121756782006"><ele>495.0</ele><time>2026-04-11T13:00:47Z</time></trkpt><trkpt lat="43.824678004551366" lon="12.279248789675123"><ele>495.0</ele><time>2026-04-11T13:00:48Z</time></trkpt><trkpt lat="43.824808731716594" lon="12.279309820618037"><ele>495.0</ele><time>2026-04-11T13:00:49Z</time></trkpt><trkpt lat="43.824938331780906" lon="12.279359707294859"><ele>495.0</ele><time>2026-04-11T13:00:50Z</time></trkpt><trkpt lat="43.82506582821975" lon="12.279389400254663"><ele>491.25</ele><time>2026-04-11T13:00:51Z</time></trkpt><trkpt lat="43.82519745408001" lon="12.279416874269849"><ele>487.5</ele><time>2026-04-11T13:00:52Z</time></trkpt><trkpt lat="43.82532062131097" lon="12.27944691208176"><ele>483.75</ele><time>2026-04-11T13:00:53Z</time></trkpt><trkpt lat="43.825430040813885" lon="12.279505849081618"><ele>480.0</ele><time>2026-04-11T13:00:54Z</time></trkpt><trkpt lat="43.82552286193843" lon="12.27960551471449"><ele>480.0</ele><time>2026-04-11T13:00:55Z</time></trkpt><trkpt lat="43.82558126123699" lon="12.279732826515529"><ele>480.0</ele><time>2026-04-11T13:00:56Z</time></trkpt><trkpt lat="43.82562839308924" lon="12.279902036483849"><ele>480.0</ele><time>2026-04-11T13:00:57Z</time></trkpt><trkpt lat="43.82563669166693" lon="12.280086262470743"><ele>480.0</ele><time>2026-04-11T13:00:58Z</time></trkpt><trkpt lat="43.825627847929816" lon="12.280261513803433"><ele>482.0</ele><time>2026-04-11T13:00:59Z</time></trkpt><trkpt lat="43.82560974337198" lon="12.280429334329662"><ele>484.0</ele><time>2026-04-11T13:01:00Z</time></trkpt><trkpt lat="43.825611426544405" lon="12.280591123488891"><ele>486.0</ele><time>2026-04-11T13:01:01Z</time></trkpt><trkpt lat="43.825639495047774" lon="12.280750285700805"><ele>488.0</ele><time>2026-04-11T13:01:02Z</time></trkpt><trkpt lat="43.82569492316627" lon="12.280900473029394"><ele>488.5</ele><time>2026-04-11T13:01:03Z</time></trkpt><trkpt lat="43.825786306976006" lon="12.281023590111957"><ele>489.0</ele><time>2026-04-11T13:01:04Z</time></trkpt><trkpt lat="43.82589692306631" lon="12.28110641984231"><ele>489.5</ele><time>2026-04-11T13:01:05Z</time></trkpt><trkpt lat="43.826013809400415" lon="12.28113516851524"><ele>490.0</ele><time>2026-04-11T13:01:06Z</time></trkpt><trkpt lat="43.82613508631311" lon="12.281121043739873"><ele>487.5</ele><time>2026-04-11T13:01:07Z</time></trkpt><trkpt lat="43.82625137695477" lon="12.281097378784843"><ele>485.0</ele><time>2026-04-11T13:01:08Z</time></trkpt><trkpt lat="43.82637369644304" lon="12.281069324630518"><ele>482.5</ele><time>2026-04-11T13:01:09Z</time></trkpt><trkpt lat="43.82650208079884" lon="12.281051731770592"><ele>480.0</ele><time>2026-04-11T13:01:10Z</time></trkpt><trkpt lat="43.82663440501287" lon="12.281057762404615"><ele>480.0</ele><time>2026-04-11T13:01:11Z</time></trkpt><trkpt lat="43.826771969935436" lon="12.281101052342766"><ele>480.0</ele><time>2026-04-11T13:01:12Z</time></trkpt><trkpt lat="43.82690882604619" lon="12.281175845705391"><ele>480.0</ele><time>2026-04-11T13:01:13Z</time></trkpt><trkpt lat="43.82702322022487" lon="12.281296349273541"><ele>480.0</ele><time>2026-04-11T13:01:14Z</time></trkpt><trkpt lat="43.82712968564637" lon="12.281391113867416"><ele>478.5</ele><time>2026-04-11T13:01:15Z</time></trkpt><trkpt lat="43.827229246131694" lon="12.281481896526014"><ele>477.0</ele><time>2026-04-11T13:01:16Z</time></trkpt><trkpt lat="43.82732819989047" lon="12.281567847418051"><ele>475.5</ele><time>2026-04-11T13:01:17Z</time></trkpt><trkpt lat="43.82743724777709" lon="12.281634932490615"><ele>474.0</ele><time>2026-04-11T13:01:18Z</time></trkpt><trkpt lat="43.827554469538676" lon="12.281647985710668"><ele>475.0</ele><time>2026-04-11T13:01:19Z</time></trkpt><trkpt lat="43.827672751038314" lon="12.28166071708472"><ele>476.0</ele><time>2026-04-11T13:01:20Z</time></trkpt><trkpt lat="43.82778589730089" lon="12.281596561448582"><ele>477.0</ele><time>2026-04-11T13:01:21Z</time></trkpt><trkpt lat="43.82789734634469" lon="12.281527310983465"><ele>478.0</ele><time>2026-04-11T13:01:22Z</time></trkpt><trkpt lat="43.827997966626" lon="12.281433869369973"><ele>476.0</ele><time>2026-04-11T13:01:23Z</time></trkpt><trkpt lat="43.82809904450161" lon="12.281328419228148"><ele>474.0</ele><time>2026-04-11T13:01:24Z</time></trkpt><trkpt lat="43.82820357510149" lon="12.281225699260046"><ele>472.0</ele><time>2026-04-11T13:01:25Z</time></trkpt><trkpt lat="43.82830479892209" lon="12.281135395995104"><ele>470.0</ele><time>2026-04-11T13:01:26Z</time></trkpt><trkpt lat="43.82842279503525" lon="12.281070942469896"><ele>469.75</ele><time>2026-04-11T13:01:27Z</time></trkpt><trkpt lat="43.82854671103191" lon="12.281028706445447"><ele>469.5</ele><time>2026-04-11T13:01:28Z</time></trkpt><trkpt lat="43.82867097909863" lon="12.281001098850572"><ele>469.25</ele><time>2026-04-11T13:01:29Z</time></trkpt><trkpt lat="43.82879011397162" lon="12.28096642550191"><ele>469.0</ele><time>2026-04-11T13:01:30Z</time></trkpt><trkpt lat="43.82891308530142" lon="12.280954500092633"><ele>469.0</ele><time>2026-04-11T13:01:31Z</time></trkpt><trkpt lat="43.829037322693075" lon="12.280904470012048"><ele>469.0</ele><time>2026-04-11T13:01:32Z</time></trkpt><trkpt lat="43.82915208727177" lon="12.280876013523356"><ele>469.0</ele><time>2026-04-11T13:01:33Z</time></trkpt><trkpt lat="43.82926614134154" lon="12.280855029453141"><ele>469.0</ele><time>2026-04-11T13:01:34Z</time></trkpt><trkpt lat="43.8293800105926" lon="12.280844021236916"><ele>468.75</ele><time>2026-04-11T13:01:35Z</time></trkpt><trkpt lat="43.829499177305806" lon="12.28085003025407"><ele>468.5</ele><time>2026-04-11T13:01:36Z</time></trkpt><trkpt lat="43.82962119252525" lon="12.280865845959207"><ele>468.25</ele><time>2026-04-11T13:01:37Z</time></trkpt><trkpt lat="43.82974580711814" lon="12.28088538349114"><ele>468.0</ele><time>2026-04-11T13:01:38Z</time></trkpt><trkpt lat="43.82987214618107" lon="12.28089817162498"><ele>468.0</ele><time>2026-04-11T13:01:39Z</time></trkpt><trkpt lat="43.829999153180395" lon="12.280911348288152"><ele>468.0</ele><time>2026-04-11T13:01:40Z</time></trkpt><trkpt lat="43.83012327250555" lon="12.28092667209755"><ele>468.0</ele><time>2026-04-11T13:01:41Z</time></trkpt><trkpt lat="43.83024550368691" lon="12.280941663128539"><ele>468.0</ele><time>2026-04-11T13:01:42Z</time></trkpt><trkpt lat="43.83036671390717" lon="12.28095805902046"><ele>467.5</ele><time>2026-04-11T13:01:42.999Z</time></trkpt><trkpt lat="43.83048659960827" lon="12.280974814003363"><ele>467.0</ele><time>2026-04-11T13:01:43.999Z</time></trkpt><trkpt lat="43.83060724865182" lon="12.281002113956411"><ele>466.5</ele><time>2026-04-11T13:01:44.999Z</time></trkpt><trkpt lat="43.830728038180084" lon="12.281029429591433"><ele>466.0</ele><time>2026-04-11T13:01:45.999Z</time></trkpt><trkpt lat="43.83084114983432" lon="12.281084217027788"><ele>466.0</ele><time>2026-04-11T13:01:46.999Z</time></trkpt><trkpt lat="43.830945954144546" lon="12.2811651943465"><ele>466.0</ele><time>2026-04-11T13:01:47.999Z</time></trkpt><trkpt lat="43.83103821380516" lon="12.281269598069706"><ele>466.0</ele><time>2026-04-11T13:01:48.999Z</time></trkpt><trkpt lat="43.83110898533104" lon="12.281387564834803"><ele>466.0</ele><time>2026-04-11T13:01:49.999Z</time></trkpt><trkpt lat="43.83116962850576" lon="12.2815129905594"><ele>466.25</ele><time>2026-04-11T13:01:50.999Z</time></trkpt><trkpt lat="43.83121065294718" lon="12.28166430508776"><ele>466.5</ele><time>2026-04-11T13:01:51.999Z</time></trkpt><trkpt lat="43.83126448441784" lon="12.281814713150627"><ele>466.75</ele><time>2026-04-11T13:01:52.999Z</time></trkpt><trkpt lat="43.83131840844026" lon="12.281967906311436"><ele>467.0</ele><time>2026-04-11T13:01:53.999Z</time></trkpt><trkpt lat="43.83137215839303" lon="12.282123427078632"><ele>467.5</ele><time>2026-04-11T13:01:54.999Z</time></trkpt><trkpt lat="43.83142436539055" lon="12.282274846570388"><ele>468.0</ele><time>2026-04-11T13:01:55.999Z</time></trkpt><trkpt lat="43.83147558708238" lon="12.28242341066891"><ele>468.5</ele><time>2026-04-11T13:01:56.999Z</time></trkpt><trkpt lat="43.83152804286052" lon="12.282573340537478"><ele>469.0</ele><time>2026-04-11T13:01:57.999Z</time></trkpt><trkpt lat="43.83158665883857" lon="12.282720570523031"><ele>469.0</ele><time>2026-04-11T13:01:58.999Z</time></trkpt><trkpt lat="43.831675871319874" lon="12.282850989534868"><ele>469.0</ele><time>2026-04-11T13:01:59.999Z</time></trkpt><trkpt lat="43.83180445159605" lon="12.282932480879257"><ele>469.0</ele><time>2026-04-11T13:02:00.999Z</time></trkpt><trkpt lat="43.83193858158806" lon="12.282946345598235"><ele>469.0</ele><time>2026-04-11T13:02:01.999Z</time></trkpt><trkpt lat="43.83206810116915" lon="12.28291526336219"><ele>468.0</ele><time>2026-04-11T13:02:02.999Z</time></trkpt><trkpt lat="43.83219692823054" lon="12.282902048007246"><ele>467.0</ele><time>2026-04-11T13:02:03.999Z</time></trkpt><trkpt lat="43.83232614582129" lon="12.28289199543455"><ele>466.0</ele><time>2026-04-11T13:02:04.999Z</time></trkpt><trkpt lat="43.83245040538537" lon="12.282906513618702"><ele>465.0</ele><time>2026-04-11T13:02:05.999Z</time></trkpt><trkpt lat="43.83257285428054" lon="12.282899349432753"><ele>466.5</ele><time>2026-04-11T13:02:06.999Z</time></trkpt><trkpt lat="43.8326946005394" lon="12.28289161147378"><ele>468.0</ele><time>2026-04-11T13:02:07.999Z</time></trkpt><trkpt lat="43.832820470632775" lon="12.282883611422141"><ele>469.5</ele><time>2026-04-11T13:02:08.999Z</time></trkpt><trkpt lat="43.832944624857944" lon="12.282876275846945"><ele>471.0</ele><time>2026-04-11T13:02:09.999Z</time></trkpt><trkpt lat="43.83306763001777" lon="12.282851044843017"><ele>471.0</ele><time>2026-04-11T13:02:10.999Z</time></trkpt><trkpt lat="43.83319371425645" lon="12.282845857928796"><ele>471.0</ele><time>2026-04-11T13:02:11.999Z</time></trkpt><trkpt lat="43.83332254763494" lon="12.282840787370523"><ele>471.0</ele><time>2026-04-11T13:02:12.999Z</time></trkpt><trkpt lat="43.83345222760409" lon="12.282828748727766"><ele>471.0</ele><time>2026-04-11T13:02:13.999Z</time></trkpt><trkpt lat="43.833580776296216" lon="12.282813805359595"><ele>470.5</ele><time>2026-04-11T13:02:14.999Z</time></trkpt><trkpt lat="43.833708741490426" lon="12.282802532371603"><ele>470.0</ele><time>2026-04-11T13:02:15.999Z</time></trkpt><trkpt lat="43.833836994072136" lon="12.282800615285995"><ele>469.5</ele><time>2026-04-11T13:02:16.999Z</time></trkpt><trkpt lat="43.83396638139621" lon="12.282799724100432"><ele>469.0</ele><time>2026-04-11T13:02:17.999Z</time></trkpt><trkpt lat="43.83409200051372" lon="12.28278905550873"><ele>469.0</ele><time>2026-04-11T13:02:18.999Z</time></trkpt><trkpt lat="43.83421901374044" lon="12.282781916681008"><ele>469.0</ele><time>2026-04-11T13:02:19.999Z</time></trkpt><trkpt lat="43.834344813714466" lon="12.282775376055625"><ele>469.0</ele><time>2026-04-11T13:02:20.999Z</time></trkpt><trkpt lat="43.834468247769344" lon="12.282769753153921"><ele>469.0</ele><time>2026-04-11T13:02:21.999Z</time></trkpt><trkpt lat="43.834595598963595" lon="12.28276260461451"><ele>468.5</ele><time>2026-04-11T13:02:22.999Z</time></trkpt><trkpt lat="43.83472618938103" lon="12.282756155590441"><ele>468.0</ele><time>2026-04-11T13:02:23.999Z</time></trkpt><trkpt lat="43.834858117608114" lon="12.282748960598774"><ele>467.5</ele><time>2026-04-11T13:02:24.999Z</time></trkpt><trkpt lat="43.83499477481868" lon="12.282736905677108"><ele>467.0</ele><time>2026-04-11T13:02:25.999Z</time></trkpt><trkpt lat="43.835130620465655" lon="12.282725216673699"><ele>466.25</ele><time>2026-04-11T13:02:26.999Z</time></trkpt><trkpt lat="43.8352635480262" lon="12.282717088996382"><ele>465.5</ele><time>2026-04-11T13:02:27.999Z</time></trkpt><trkpt lat="43.835395612127066" lon="12.282714657862321"><ele>464.75</ele><time>2026-04-11T13:02:28.999Z</time></trkpt><trkpt lat="43.835530981285395" lon="12.282726184618369"><ele>464.0</ele><time>2026-04-11T13:02:29.999Z</time></trkpt><trkpt lat="43.83566891481296" lon="12.282747820506714"><ele>464.0</ele><time>2026-04-11T13:02:30.999Z</time></trkpt><trkpt lat="43.83580052348328" lon="12.282769036815761"><ele>464.0</ele><time>2026-04-11T13:02:31.999Z</time></trkpt><trkpt lat="43.83592944785105" lon="12.28279453821936"><ele>464.0</ele><time>2026-04-11T13:02:32.999Z</time></trkpt><trkpt lat="43.83605785904139" lon="12.282822528073119"><ele>464.0</ele><time>2026-04-11T13:02:33.999Z</time></trkpt><trkpt lat="43.836179802958284" lon="12.282851573438297"><ele>463.75</ele><time>2026-04-11T13:02:34.999Z</time></trkpt><trkpt lat="43.836307875410654" lon="12.282874454998627"><ele>463.5</ele><time>2026-04-11T13:02:35.999Z</time></trkpt><trkpt lat="43.836431253633535" lon="12.282899160129666"><ele>463.25</ele><time>2026-04-11T13:02:36.999Z</time></trkpt><trkpt lat="43.836551052943385" lon="12.282926726366892"><ele>463.0</ele><time>2026-04-11T13:02:37.999Z</time></trkpt><trkpt lat="43.836668624902074" lon="12.282964690406782"><ele>463.0</ele><time>2026-04-11T13:02:38.999Z</time></trkpt><trkpt lat="43.83678278891909" lon="12.283018160165128"><ele>463.0</ele><time>2026-04-11T13:02:39.999Z</time></trkpt><trkpt lat="43.8368908035266" lon="12.28309820299303"><ele>463.0</ele><time>2026-04-11T13:02:40.999Z</time></trkpt><trkpt lat="43.8369796179052" lon="12.283216509443033"><ele>463.0</ele><time>2026-04-11T13:02:41.999Z</time></trkpt><trkpt lat="43.837071231261184" lon="12.283333399388582"><ele>461.75</ele><time>2026-04-11T13:02:42.999Z</time></trkpt><trkpt lat="43.837162063348316" lon="12.283450130822708"><ele>460.5</ele><time>2026-04-11T13:02:43.999Z</time></trkpt><trkpt lat="43.83725111895351" lon="12.283567113792012"><ele>459.25</ele><time>2026-04-11T13:02:44.999Z</time></trkpt><trkpt lat="43.83733997852806" lon="12.283684124836775"><ele>458.0</ele><time>2026-04-11T13:02:45.999Z</time></trkpt><trkpt lat="43.83742735323216" lon="12.283801041985665"><ele>458.0</ele><time>2026-04-11T13:02:46.999Z</time></trkpt><trkpt lat="43.837517952704104" lon="12.283921992267173"><ele>458.0</ele><time>2026-04-11T13:02:47.999Z</time></trkpt><trkpt lat="43.8376208471794" lon="12.284026825508265"><ele>458.0</ele><time>2026-04-11T13:02:48.999Z</time></trkpt><trkpt lat="43.83770524568194" lon="12.284149067021012"><ele>458.0</ele><time>2026-04-11T13:02:49.999Z</time></trkpt><trkpt lat="43.837793006550505" lon="12.284263669970752"><ele>456.5</ele><time>2026-04-11T13:02:51Z</time></trkpt><trkpt lat="43.83788167828395" lon="12.28437970616741"><ele>455.0</ele><time>2026-04-11T13:02:52Z</time></trkpt><trkpt lat="43.837967802958474" lon="12.28449620706588"><ele>453.5</ele><time>2026-04-11T13:02:53Z</time></trkpt><trkpt lat="43.838053485230304" lon="12.284602925851528"><ele>452.0</ele><time>2026-04-11T13:02:54Z</time></trkpt><trkpt lat="43.838132934645415" lon="12.28471502281461"><ele>453.25</ele><time>2026-04-11T13:02:55Z</time></trkpt><trkpt lat="43.83820147744838" lon="12.284842258827622"><ele>454.5</ele><time>2026-04-11T13:02:56Z</time></trkpt><trkpt lat="43.838263865422135" lon="12.284979828190242"><ele>455.75</ele><time>2026-04-11T13:02:57Z</time></trkpt><trkpt lat="43.83831572884568" lon="12.285124646817861"><ele>457.0</ele><time>2026-04-11T13:02:58Z</time></trkpt><trkpt lat="43.83836135754493" lon="12.285269016900537"><ele>457.0</ele><time>2026-04-11T13:02:59Z</time></trkpt><trkpt lat="43.83840022486832" lon="12.285409561387933"><ele>457.00000000000006</ele><time>2026-04-11T13:03:00Z</time></trkpt><trkpt lat="43.83844844777315" lon="12.28554745031446"><ele>457.00000000000006</ele><time>2026-04-11T13:03:01Z</time></trkpt><trkpt lat="43.838503344929286" lon="12.285679195670323"><ele>457.0</ele><time>2026-04-11T13:03:02Z</time></trkpt><trkpt lat="43.83857487772133" lon="12.285794135304736"><ele>457.0</ele><time>2026-04-11T13:03:03Z</time></trkpt><trkpt lat="43.83866270041897" lon="12.285883950937368"><ele>456.75</ele><time>2026-04-11T13:03:04Z</time></trkpt><trkpt lat="43.83878203938202" lon="12.285929383281795"><ele>456.5</ele><time>2026-04-11T13:03:05Z</time></trkpt><trkpt lat="43.838898344786266" lon="12.285956210792056"><ele>456.25</ele><time>2026-04-11T13:03:06Z</time></trkpt><trkpt lat="43.8390298479173" lon="12.285966455609277"><ele>456.0</ele><time>2026-04-11T13:03:07Z</time></trkpt><trkpt lat="43.83916282594104" lon="12.285974251895878"><ele>456.0</ele><time>2026-04-11T13:03:08Z</time></trkpt><trkpt lat="43.83929461928004" lon="12.285996069297022"><ele>456.0</ele><time>2026-04-11T13:03:09Z</time></trkpt><trkpt lat="43.83942068872166" lon="12.286013594327402"><ele>456.0</ele><time>2026-04-11T13:03:10Z</time></trkpt><trkpt lat="43.83954977850955" lon="12.286031155772621"><ele>456.0</ele><time>2026-04-11T13:03:11Z</time></trkpt><trkpt lat="43.839674533428905" lon="12.286044601071689"><ele>455.5</ele><time>2026-04-11T13:03:12Z</time></trkpt><trkpt lat="43.83979346536493" lon="12.286061792455454"><ele>455.0</ele><time>2026-04-11T13:03:13Z</time></trkpt><trkpt lat="43.83991697604542" lon="12.286074991542254"><ele>454.5</ele><time>2026-04-11T13:03:14Z</time></trkpt><trkpt lat="43.840041305405215" lon="12.286088387929613"><ele>454.0</ele><time>2026-04-11T13:03:15Z</time></trkpt><trkpt lat="43.840165642888415" lon="12.286099284545767"><ele>454.0</ele><time>2026-04-11T13:03:16Z</time></trkpt><trkpt lat="43.840296352670904" lon="12.286089457988892"><ele>454.0</ele><time>2026-04-11T13:03:17Z</time></trkpt><trkpt lat="43.84042741923655" lon="12.286059012426033"><ele>454.0</ele><time>2026-04-11T13:03:18Z</time></trkpt><trkpt lat="43.8405628935539" lon="12.286009821913764"><ele>454.0</ele><time>2026-04-11T13:03:19Z</time></trkpt><trkpt lat="43.840693822747056" lon="12.285947386712389"><ele>454.0</ele><time>2026-04-11T13:03:20Z</time></trkpt><trkpt lat="43.84081293032324" lon="12.285875796749009"><ele>454.0</ele><time>2026-04-11T13:03:21Z</time></trkpt><trkpt lat="43.840928961403556" lon="12.28581466643477"><ele>454.0</ele><time>2026-04-11T13:03:22Z</time></trkpt><trkpt lat="43.84104672265833" lon="12.285756757008123"><ele>454.0</ele><time>2026-04-11T13:03:23Z</time></trkpt><trkpt lat="43.84116041623216" lon="12.285704790421992"><ele>455.2</ele><time>2026-04-11T13:03:24Z</time></trkpt><trkpt lat="43.84126799670932" lon="12.285647320127152"><ele>456.4</ele><time>2026-04-11T13:03:25Z</time></trkpt><trkpt lat="43.841371130373766" lon="12.285588046664651"><ele>457.6</ele><time>2026-04-11T13:03:26Z</time></trkpt><trkpt lat="43.84147339985981" lon="12.285541672879205"><ele>458.8</ele><time>2026-04-11T13:03:27Z</time></trkpt><trkpt lat="43.84156906830241" lon="12.285494781523935"><ele>460.0</ele><time>2026-04-11T13:03:28Z</time></trkpt><trkpt lat="43.84165998622673" lon="12.285447884906352"><ele>459.0</ele><time>2026-04-11T13:03:29Z</time></trkpt><trkpt lat="43.841748402800974" lon="12.285383241333745"><ele>458.0</ele><time>2026-04-11T13:03:30Z</time></trkpt><trkpt lat="43.84182046231097" lon="12.285287584834313"><ele>457.0</ele><time>2026-04-11T13:03:31Z</time></trkpt><trkpt lat="43.841878007793376" lon="12.285179905051542"><ele>456.0</ele><time>2026-04-11T13:03:32Z</time></trkpt><trkpt lat="43.84191582390333" lon="12.28506697584099"><ele>455.0</ele><time>2026-04-11T13:03:33Z</time></trkpt><trkpt lat="43.84196133135513" lon="12.284969528085258"><ele>455.0</ele><time>2026-04-11T13:03:34Z</time></trkpt><trkpt lat="43.84201667022301" lon="12.28487173000182"><ele>455.0</ele><time>2026-04-11T13:03:35Z</time></trkpt><trkpt lat="43.84208411975764" lon="12.284787429106212"><ele>455.0</ele><time>2026-04-11T13:03:35.999Z</time></trkpt><trkpt lat="43.84215995488731" lon="12.284712615516726"><ele>455.0</ele><time>2026-04-11T13:03:36.999Z</time></trkpt><trkpt lat="43.842241906910864" lon="12.284641679810951"><ele>455.0</ele><time>2026-04-11T13:03:37.999Z</time></trkpt><trkpt lat="43.842326510393114" lon="12.284567203188246"><ele>453.0</ele><time>2026-04-11T13:03:38.999Z</time></trkpt><trkpt lat="43.84241639513338" lon="12.284489789519741"><ele>451.0</ele><time>2026-04-11T13:03:39.999Z</time></trkpt><trkpt lat="43.84250258849655" lon="12.284408731120726"><ele>449.0</ele><time>2026-04-11T13:03:40.999Z</time></trkpt><trkpt lat="43.84258774395045" lon="12.284334104090114"><ele>447.0</ele><time>2026-04-11T13:03:41.999Z</time></trkpt><trkpt lat="43.842664998948706" lon="12.284271123431411"><ele>445.0</ele><time>2026-04-11T13:03:42.999Z</time></trkpt><trkpt lat="43.842742470690574" lon="12.284207445605526"><ele>444.33333333333337</ele><time>2026-04-11T13:03:43.999Z</time></trkpt><trkpt lat="43.842818361787955" lon="12.28414159722162"><ele>443.6666666666667</ele><time>2026-04-11T13:03:44.999Z</time></trkpt><trkpt lat="43.842892981701155" lon="12.284073063621909"><ele>443.0</ele><time>2026-04-11T13:03:45.999Z</time></trkpt><trkpt lat="43.84296745593383" lon="12.284006503407715"><ele>442.33333333333337</ele><time>2026-04-11T13:03:46.999Z</time></trkpt><trkpt lat="43.84304345171368" lon="12.283946702397442"><ele>441.6666666666667</ele><time>2026-04-11T13:03:47.999Z</time></trkpt><trkpt lat="43.84312728114194" lon="12.28390207207869"><ele>441.0</ele><time>2026-04-11T13:03:48.999Z</time></trkpt><trkpt lat="43.84321646651509" lon="12.283886039032268"><ele>441.0</ele><time>2026-04-11T13:03:49.999Z</time></trkpt><trkpt lat="43.843295617077885" lon="12.283903586689947"><ele>441.0</ele><time>2026-04-11T13:03:50.999Z</time></trkpt><trkpt lat="43.84336474794359" lon="12.283958371505944"><ele>441.0</ele><time>2026-04-11T13:03:51.999Z</time></trkpt><trkpt lat="43.84342277232037" lon="12.28404514589335"><ele>441.0</ele><time>2026-04-11T13:03:52.999Z</time></trkpt><trkpt lat="43.84346275015271" lon="12.284160807054421"><ele>441.0</ele><time>2026-04-11T13:03:53.999Z</time></trkpt><trkpt lat="43.84348904562856" lon="12.28429930267965"><ele>441.0</ele><time>2026-04-11T13:03:54.999Z</time></trkpt><trkpt lat="43.84350329286018" lon="12.284447062628406"><ele>437.5</ele><time>2026-04-11T13:03:55.999Z</time></trkpt><trkpt lat="43.84350917161007" lon="12.28460426778815"><ele>434.0</ele><time>2026-04-11T13:03:56.999Z</time></trkpt><trkpt lat="43.843531535087294" lon="12.28476345317412"><ele>430.5</ele><time>2026-04-11T13:03:57.999Z</time></trkpt><trkpt lat="43.84356103296699" lon="12.284920073993314"><ele>427.0</ele><time>2026-04-11T13:03:58.999Z</time></trkpt><trkpt lat="43.84361109087268" lon="12.285073952149268"><ele>427.0</ele><time>2026-04-11T13:03:59.999Z</time></trkpt><trkpt lat="43.84369737750482" lon="12.285206791806718"><ele>427.0</ele><time>2026-04-11T13:04:00.999Z</time></trkpt><trkpt lat="43.843777040664655" lon="12.28532938081389"><ele>427.0</ele><time>2026-04-11T13:04:01.999Z</time></trkpt><trkpt lat="43.843855839776445" lon="12.285439192817071"><ele>427.0</ele><time>2026-04-11T13:04:02.999Z</time></trkpt><trkpt lat="43.843930984600945" lon="12.285535323166265"><ele>428.0</ele><time>2026-04-11T13:04:03.999Z</time></trkpt><trkpt lat="43.84401941812545" lon="12.285608600399193"><ele>429.00000000000006</ele><time>2026-04-11T13:04:04.999Z</time></trkpt><trkpt lat="43.84410703467428" lon="12.285680361696341"><ele>430.00000000000006</ele><time>2026-04-11T13:04:05.999Z</time></trkpt><trkpt lat="43.84420875820362" lon="12.28573136270438"><ele>431.0</ele><time>2026-04-11T13:04:06.999Z</time></trkpt><trkpt lat="43.84432583129266" lon="12.285705913817477"><ele>432.0</ele><time>2026-04-11T13:04:07.999Z</time></trkpt><trkpt lat="43.844429928290786" lon="12.285653804802653"><ele>428.0</ele><time>2026-04-11T13:04:08.999Z</time></trkpt><trkpt lat="43.84453190234531" lon="12.285555176259985"><ele>424.0</ele><time>2026-04-11T13:04:09.999Z</time></trkpt><trkpt lat="43.84462176967795" lon="12.285435460597974"><ele>420.0</ele><time>2026-04-11T13:04:10.999Z</time></trkpt><trkpt lat="43.84471296489752" lon="12.285312129923557"><ele>416.0</ele><time>2026-04-11T13:04:11.999Z</time></trkpt><trkpt lat="43.84480712237956" lon="12.28518890412006"><ele>416.0</ele><time>2026-04-11T13:04:12.999Z</time></trkpt><trkpt lat="43.844903606551284" lon="12.285062498922846"><ele>416.0</ele><time>2026-04-11T13:04:13.999Z</time></trkpt><trkpt lat="43.84500048868576" lon="12.284934627550061"><ele>416.0</ele><time>2026-04-11T13:04:14.999Z</time></trkpt><trkpt lat="43.845098009410044" lon="12.284805517877894"><ele>416.0</ele><time>2026-04-11T13:04:15.999Z</time></trkpt><trkpt lat="43.84519820280736" lon="12.284678365083176"><ele>413.75</ele><time>2026-04-11T13:04:16.999Z</time></trkpt><trkpt lat="43.84529878165515" lon="12.284552429020687"><ele>411.5</ele><time>2026-04-11T13:04:17.999Z</time></trkpt><trkpt lat="43.84540433004334" lon="12.284430434768726"><ele>409.25</ele><time>2026-04-11T13:04:18.999Z</time></trkpt><trkpt lat="43.845514024066404" lon="12.284313702252845"><ele>407.0</ele><time>2026-04-11T13:04:19.999Z</time></trkpt><trkpt lat="43.845628918361015" lon="12.284204123312477"><ele>407.0</ele><time>2026-04-11T13:04:20.999Z</time></trkpt><trkpt lat="43.845744540167175" lon="12.284097866815014"><ele>407.0</ele><time>2026-04-11T13:04:21.999Z</time></trkpt><trkpt lat="43.84586310807413" lon="12.283995156637772"><ele>407.0</ele><time>2026-04-11T13:04:22.999Z</time></trkpt><trkpt lat="43.84598109869202" lon="12.283894664082434"><ele>407.0</ele><time>2026-04-11T13:04:23.999Z</time></trkpt><trkpt lat="43.846094367343056" lon="12.283794712060885"><ele>406.5</ele><time>2026-04-11T13:04:24.999Z</time></trkpt><trkpt lat="43.84620556120548" lon="12.283699738642468"><ele>406.0</ele><time>2026-04-11T13:04:25.999Z</time></trkpt><trkpt lat="43.846311035536395" lon="12.283607326398515"><ele>405.5</ele><time>2026-04-11T13:04:26.999Z</time></trkpt><trkpt lat="43.84641041137104" lon="12.283517610646046"><ele>405.0</ele><time>2026-04-11T13:04:27.999Z</time></trkpt><trkpt lat="43.846505157286785" lon="12.283433471409083"><ele>405.0</ele><time>2026-04-11T13:04:28.999Z</time></trkpt><trkpt lat="43.84659743103518" lon="12.283355269176553"><ele>405.0</ele><time>2026-04-11T13:04:29.999Z</time></trkpt><trkpt lat="43.84668713023731" lon="12.283278687109092"><ele>405.0</ele><time>2026-04-11T13:04:30.999Z</time></trkpt><trkpt lat="43.846775077349804" lon="12.283202665742557"><ele>405.0</ele><time>2026-04-11T13:04:31.999Z</time></trkpt><trkpt lat="43.846864153014884" lon="12.283125207517658"><ele>405.0</ele><time>2026-04-11T13:04:32.999Z</time></trkpt><trkpt lat="43.84695410500147" lon="12.283044808676197"><ele>404.2</ele><time>2026-04-11T13:04:33.999Z</time></trkpt><trkpt lat="43.84704186456063" lon="12.282964872263912"><ele>403.4</ele><time>2026-04-11T13:04:34.999Z</time></trkpt><trkpt lat="43.847131867503315" lon="12.282886105345623"><ele>402.6</ele><time>2026-04-11T13:04:35.999Z</time></trkpt><trkpt lat="43.847223573813665" lon="12.282808700807209"><ele>401.8</ele><time>2026-04-11T13:04:36.999Z</time></trkpt><trkpt lat="43.84731829579967" lon="12.2827303378061"><ele>401.0</ele><time>2026-04-11T13:04:37.999Z</time></trkpt><trkpt lat="43.84741217288006" lon="12.282650388008221"><ele>401.0</ele><time>2026-04-11T13:04:38.999Z</time></trkpt><trkpt lat="43.84750575879005" lon="12.282567561184528"><ele>401.0</ele><time>2026-04-11T13:04:39.999Z</time></trkpt><trkpt lat="43.847601835365055" lon="12.282484574827599"><ele>401.0</ele><time>2026-04-11T13:04:40.999Z</time></trkpt><trkpt lat="43.847691107790155" lon="12.282402449498267"><ele>401.0</ele><time>2026-04-11T13:04:41.999Z</time></trkpt><trkpt lat="43.84778192107312" lon="12.282322614422888"><ele>401.0</ele><time>2026-04-11T13:04:42.999Z</time></trkpt><trkpt lat="43.847870497177816" lon="12.282240127968427"><ele>400.6</ele><time>2026-04-11T13:04:43.999Z</time></trkpt><trkpt lat="43.84795905238735" lon="12.282158511920157"><ele>400.20000000000005</ele><time>2026-04-11T13:04:44.999Z</time></trkpt><trkpt lat="43.8480498407847" lon="12.282080065311513"><ele>399.79999999999995</ele><time>2026-04-11T13:04:45.999Z</time></trkpt><trkpt lat="43.848142368839774" lon="12.28200286367782"><ele>399.4</ele><time>2026-04-11T13:04:46.999Z</time></trkpt><trkpt lat="43.84824101286972" lon="12.281923204311779"><ele>399.0</ele><time>2026-04-11T13:04:47.999Z</time></trkpt><trkpt lat="43.84833902015868" lon="12.281841345389415"><ele>399.0</ele><time>2026-04-11T13:04:48.999Z</time></trkpt><trkpt lat="43.84843781373199" lon="12.281753341222418"><ele>399.0</ele><time>2026-04-11T13:04:49.999Z</time></trkpt><trkpt lat="43.848539908029196" lon="12.28166001255477"><ele>399.0</ele><time>2026-04-11T13:04:50.999Z</time></trkpt><trkpt lat="43.84864635405171" lon="12.281566280195177"><ele>399.0</ele><time>2026-04-11T13:04:51.999Z</time></trkpt><trkpt lat="43.84876295187255" lon="12.281492079814448"><ele>396.75</ele><time>2026-04-11T13:04:52.999Z</time></trkpt><trkpt lat="43.848869378670976" lon="12.281399937125336"><ele>394.5</ele><time>2026-04-11T13:04:53.999Z</time></trkpt><trkpt lat="43.84897539185857" lon="12.281308152605149"><ele>392.25</ele><time>2026-04-11T13:04:54.999Z</time></trkpt><trkpt lat="43.849075112984" lon="12.281196930534696"><ele>390.0</ele><time>2026-04-11T13:04:56Z</time></trkpt><trkpt lat="43.84918283967518" lon="12.28111835863324"><ele>390.0</ele><time>2026-04-11T13:04:57Z</time></trkpt><trkpt lat="43.849285807707254" lon="12.281035785564685"><ele>390.0</ele><time>2026-04-11T13:04:58Z</time></trkpt><trkpt lat="43.84939075561164" lon="12.28095697540802"><ele>390.0</ele><time>2026-04-11T13:04:59Z</time></trkpt><trkpt lat="43.84949442179279" lon="12.280887644176653"><ele>390.0</ele><time>2026-04-11T13:05:00Z</time></trkpt><trkpt lat="43.84959883384777" lon="12.28081806196101"><ele>389.25</ele><time>2026-04-11T13:05:01Z</time></trkpt><trkpt lat="43.84970714739064" lon="12.280756869824234"><ele>388.5</ele><time>2026-04-11T13:05:02Z</time></trkpt><trkpt lat="43.849813557111425" lon="12.280694165878026"><ele>387.75</ele><time>2026-04-11T13:05:03Z</time></trkpt><trkpt lat="43.84992149424762" lon="12.28062607140878"><ele>387.0</ele><time>2026-04-11T13:05:04Z</time></trkpt><trkpt lat="43.85003044401419" lon="12.280557831667524"><ele>384.5</ele><time>2026-04-11T13:05:05Z</time></trkpt><trkpt lat="43.85013970899411" lon="12.280489684421156"><ele>382.0</ele><time>2026-04-11T13:05:06Z</time></trkpt><trkpt lat="43.85025021851529" lon="12.280419127943157"><ele>379.5</ele><time>2026-04-11T13:05:07Z</time></trkpt><trkpt lat="43.850357339951806" lon="12.280338282754775"><ele>377.0</ele><time>2026-04-11T13:05:08Z</time></trkpt><trkpt lat="43.850460264791025" lon="12.28024940767377"><ele>377.0</ele><time>2026-04-11T13:05:09Z</time></trkpt><trkpt lat="43.85056148443412" lon="12.280144246044069"><ele>377.0</ele><time>2026-04-11T13:05:10Z</time></trkpt><trkpt lat="43.85066135496669" lon="12.280028888446735"><ele>377.0</ele><time>2026-04-11T13:05:11Z</time></trkpt><trkpt lat="43.85075422794316" lon="12.279912607053474"><ele>377.0</ele><time>2026-04-11T13:05:12Z</time></trkpt><trkpt lat="43.85084932728887" lon="12.279802333450757"><ele>375.75</ele><time>2026-04-11T13:05:13Z</time></trkpt><trkpt lat="43.85094058906214" lon="12.279693369465258"><ele>374.5</ele><time>2026-04-11T13:05:14Z</time></trkpt><trkpt lat="43.85102742918596" lon="12.279584826827938"><ele>373.25</ele><time>2026-04-11T13:05:15Z</time></trkpt><trkpt lat="43.8511145325493" lon="12.279482279959572"><ele>372.0</ele><time>2026-04-11T13:05:16Z</time></trkpt><trkpt lat="43.85120246255995" lon="12.279382588190872"><ele>372.0</ele><time>2026-04-11T13:05:17Z</time></trkpt><trkpt lat="43.85129728350354" lon="12.279287380881888"><ele>372.0</ele><time>2026-04-11T13:05:18Z</time></trkpt><trkpt lat="43.85139891992482" lon="12.279206821276544"><ele>372.0</ele><time>2026-04-11T13:05:19Z</time></trkpt><trkpt lat="43.85151187299012" lon="12.279159512136763"><ele>372.0</ele><time>2026-04-11T13:05:20Z</time></trkpt><trkpt lat="43.8516279032879" lon="12.279138031062752"><ele>372.0</ele><time>2026-04-11T13:05:21Z</time></trkpt><trkpt lat="43.85174526884013" lon="12.27915380452491"><ele>372.0</ele><time>2026-04-11T13:05:22Z</time></trkpt><trkpt lat="43.85186647175623" lon="12.2792053281681"><ele>372.0</ele><time>2026-04-11T13:05:23Z</time></trkpt><trkpt lat="43.85197736674599" lon="12.27930041489942"><ele>372.0</ele><time>2026-04-11T13:05:24Z</time></trkpt><trkpt lat="43.85209817868301" lon="12.27936116276477"><ele>370.6</ele><time>2026-04-11T13:05:25Z</time></trkpt><trkpt lat="43.852211194174345" lon="12.279437487919784"><ele>369.20000000000005</ele><time>2026-04-11T13:05:26Z</time></trkpt><trkpt lat="43.85230167924043" lon="12.27952380490084"><ele>367.8</ele><time>2026-04-11T13:05:27Z</time></trkpt><trkpt lat="43.85238954884488" lon="12.279576698859621"><ele>366.4</ele><time>2026-04-11T13:05:28Z</time></trkpt><trkpt lat="43.852447418849856" lon="12.279679872235858"><ele>365.0</ele><time>2026-04-11T13:05:29Z</time></trkpt><trkpt lat="43.85247195682188" lon="12.27981204760727"><ele>365.0</ele><time>2026-04-11T13:05:30Z</time></trkpt><trkpt lat="43.85245609253983" lon="12.279953870189706"><ele>365.0</ele><time>2026-04-11T13:05:31Z</time></trkpt><trkpt lat="43.8523974604609" lon="12.280086362169152"><ele>365.0</ele><time>2026-04-11T13:05:32Z</time></trkpt><trkpt lat="43.85231814064537" lon="12.280210936107673"><ele>365.0</ele><time>2026-04-11T13:05:33Z</time></trkpt><trkpt lat="43.8522371320203" lon="12.280339518118923"><ele>365.0</ele><time>2026-04-11T13:05:34Z</time></trkpt><trkpt lat="43.852158170070915" lon="12.280465599243547"><ele>365.0</ele><time>2026-04-11T13:05:35Z</time></trkpt><trkpt lat="43.85207866499178" lon="12.28058950965121"><ele>365.0</ele><time>2026-04-11T13:05:36Z</time></trkpt><trkpt lat="43.852003430714596" lon="12.280720149890833"><ele>365.0</ele><time>2026-04-11T13:05:37Z</time></trkpt><trkpt lat="43.85193725125853" lon="12.280864273112577"><ele>364.0</ele><time>2026-04-11T13:05:38Z</time></trkpt><trkpt lat="43.85187477847659" lon="12.281010115191256"><ele>363.0</ele><time>2026-04-11T13:05:39Z</time></trkpt><trkpt lat="43.85182562831462" lon="12.281166446137865"><ele>362.0</ele><time>2026-04-11T13:05:40Z</time></trkpt><trkpt lat="43.85179201335229" lon="12.281332232881418"><ele>361.0</ele><time>2026-04-11T13:05:41Z</time></trkpt><trkpt lat="43.85177664448231" lon="12.281503864208625"><ele>361.0</ele><time>2026-04-11T13:05:42Z</time></trkpt><trkpt lat="43.85177523204211" lon="12.281673869022413"><ele>361.0</ele><time>2026-04-11T13:05:43Z</time></trkpt><trkpt lat="43.85177335443502" lon="12.281857688311971"><ele>361.0</ele><time>2026-04-11T13:05:44Z</time></trkpt><trkpt lat="43.85179434134681" lon="12.2820410996238"><ele>361.0</ele><time>2026-04-11T13:05:45Z</time></trkpt><trkpt lat="43.85183178474929" lon="12.282212755944986"><ele>356.6</ele><time>2026-04-11T13:05:46Z</time></trkpt><trkpt lat="43.85184964966516" lon="12.282370511166663"><ele>352.20000000000005</ele><time>2026-04-11T13:05:47Z</time></trkpt><trkpt lat="43.85187164462567" lon="12.282502788634288"><ele>347.79999999999995</ele><time>2026-04-11T13:05:48Z</time></trkpt><trkpt lat="43.85189344877346" lon="12.282623407249242"><ele>343.4</ele><time>2026-04-11T13:05:49Z</time></trkpt><trkpt lat="43.85192570266299" lon="12.282733450357169"><ele>339.0</ele><time>2026-04-11T13:05:50Z</time></trkpt><trkpt lat="43.85197112160087" lon="12.282821607598382"><ele>339.0</ele><time>2026-04-11T13:05:51Z</time></trkpt><trkpt lat="43.85205821461309" lon="12.282863952675585"><ele>339.0</ele><time>2026-04-11T13:05:52Z</time></trkpt><trkpt lat="43.852159766983895" lon="12.282824932511161"><ele>339.0</ele><time>2026-04-11T13:05:53Z</time></trkpt><trkpt lat="43.85221110924268" lon="12.282700081122613"><ele>339.0</ele><time>2026-04-11T13:05:54Z</time></trkpt><trkpt lat="43.8522469058241" lon="12.282572941712322"><ele>339.0</ele><time>2026-04-11T13:05:55Z</time></trkpt><trkpt lat="43.85227230227791" lon="12.282427377184531"><ele>339.0</ele><time>2026-04-11T13:05:56Z</time></trkpt><trkpt lat="43.852297693308046" lon="12.282270049299683"><ele>339.0</ele><time>2026-04-11T13:05:57Z</time></trkpt><trkpt lat="43.85233583179397" lon="12.282106993365419"><ele>339.0</ele><time>2026-04-11T13:05:58Z</time></trkpt><trkpt lat="43.852371035059825" lon="12.281934680543344"><ele>339.0</ele><time>2026-04-11T13:05:59Z</time></trkpt><trkpt lat="43.85243093028308" lon="12.281779498751645"><ele>339.75</ele><time>2026-04-11T13:06:00Z</time></trkpt><trkpt lat="43.85249855965686" lon="12.281636404151408"><ele>340.5</ele><time>2026-04-11T13:06:01Z</time></trkpt><trkpt lat="43.85259325009396" lon="12.281503545621085"><ele>341.25</ele><time>2026-04-11T13:06:02Z</time></trkpt><trkpt lat="43.85270738200421" lon="12.28141395651644"><ele>342.0</ele><time>2026-04-11T13:06:03Z</time></trkpt><trkpt lat="43.85283201158632" lon="12.281321107736273"><ele>340.0</ele><time>2026-04-11T13:06:03.999Z</time></trkpt><trkpt lat="43.85295297340023" lon="12.281233324113959"><ele>338.0</ele><time>2026-04-11T13:06:04.999Z</time></trkpt><trkpt lat="43.853072975572175" lon="12.281146236871859"><ele>336.0</ele><time>2026-04-11T13:06:05.999Z</time></trkpt><trkpt lat="43.85319523558788" lon="12.281057510974541"><ele>334.0</ele><time>2026-04-11T13:06:06.999Z</time></trkpt><trkpt lat="43.85330907245098" lon="12.280974897960503"><ele>334.0</ele><time>2026-04-11T13:06:07.999Z</time></trkpt><trkpt lat="43.85340585385518" lon="12.280878951574898"><ele>334.0</ele><time>2026-04-11T13:06:08.999Z</time></trkpt><trkpt lat="43.85350470807359" lon="12.28081624939938"><ele>334.0</ele><time>2026-04-11T13:06:09.999Z</time></trkpt><trkpt lat="43.853588442092864" lon="12.280752235744176"><ele>334.0</ele><time>2026-04-11T13:06:10.999Z</time></trkpt><trkpt lat="43.85366285764277" lon="12.280684564164424"><ele>334.0</ele><time>2026-04-11T13:06:11.999Z</time></trkpt><trkpt lat="43.853745267692375" lon="12.280633937305682"><ele>332.6</ele><time>2026-04-11T13:06:12.999Z</time></trkpt><trkpt lat="43.85380102078644" lon="12.280552930673498"><ele>331.2</ele><time>2026-04-11T13:06:13.999Z</time></trkpt><trkpt lat="43.85387677314206" lon="12.28047138830422"><ele>329.8</ele><time>2026-04-11T13:06:15.999Z</time></trkpt><trkpt lat="43.85393041433979" lon="12.280415309479187"><ele>328.40000000000003</ele><time>2026-04-11T13:06:17.999Z</time></trkpt><trkpt lat="43.85386586953457" lon="12.280584860682499"><ele>327.0</ele><time>2026-04-11T13:06:21.999Z</time></trkpt><trkpt lat="43.85392662142783" lon="12.280733679056816"><ele>326.0</ele><time>2026-04-11T13:06:22.999Z</time></trkpt><trkpt lat="43.8539178029815" lon="12.280858816477792"><ele>325.0</ele><time>2026-04-11T13:06:23.999Z</time></trkpt><trkpt lat="43.85389793676138" lon="12.280993127824418"><ele>324.0</ele><time>2026-04-11T13:06:24.999Z</time></trkpt><trkpt lat="43.85387791877367" lon="12.281142934946896"><ele>323.0</ele><time>2026-04-11T13:06:25.999Z</time></trkpt><trkpt lat="43.85385879017341" lon="12.281297623953897"><ele>322.0</ele><time>2026-04-11T13:06:26.999Z</time></trkpt><trkpt lat="43.85384124677548" lon="12.281444789277622"><ele>322.0</ele><time>2026-04-11T13:06:27.999Z</time></trkpt><trkpt lat="43.85383279052547" lon="12.281591368289849"><ele>322.0</ele><time>2026-04-11T13:06:28.999Z</time></trkpt><trkpt lat="43.85384565913146" lon="12.281737085067967"><ele>322.0</ele><time>2026-04-11T13:06:29.999Z</time></trkpt><trkpt lat="43.85390197325199" lon="12.281883234581485"><ele>322.0</ele><time>2026-04-11T13:06:30.999Z</time></trkpt><trkpt lat="43.85397131122672" lon="12.282014889304905"><ele>322.0</ele><time>2026-04-11T13:06:31.999Z</time></trkpt><trkpt lat="43.85404894460228" lon="12.28214091677511"><ele>322.0</ele><time>2026-04-11T13:06:32.999Z</time></trkpt><trkpt lat="43.85412209873189" lon="12.282252047943208"><ele>322.0</ele><time>2026-04-11T13:06:33.999Z</time></trkpt><trkpt lat="43.854210155376585" lon="12.282344208533134"><ele>322.0</ele><time>2026-04-11T13:06:34.999Z</time></trkpt><trkpt lat="43.8543085230997" lon="12.282393693211233"><ele>322.0</ele><time>2026-04-11T13:06:35.999Z</time></trkpt><trkpt lat="43.854426836601256" lon="12.282389576069962"><ele>322.0</ele><time>2026-04-11T13:06:36.999Z</time></trkpt><trkpt lat="43.854545894209394" lon="12.282344441570018"><ele>321.5</ele><time>2026-04-11T13:06:37.999Z</time></trkpt><trkpt lat="43.854654716690945" lon="12.28228879625261"><ele>321.0</ele><time>2026-04-11T13:06:38.999Z</time></trkpt><trkpt lat="43.85476968188826" lon="12.28222672832815"><ele>320.5</ele><time>2026-04-11T13:06:39.999Z</time></trkpt><trkpt lat="43.85488315303214" lon="12.282159794789795"><ele>320.0</ele><time>2026-04-11T13:06:40.999Z</time></trkpt><trkpt lat="43.85499395450157" lon="12.28211414498704"><ele>320.0</ele><time>2026-04-11T13:06:41.999Z</time></trkpt><trkpt lat="43.855108686875184" lon="12.282076020539721"><ele>320.0</ele><time>2026-04-11T13:06:42.999Z</time></trkpt><trkpt lat="43.855220055714256" lon="12.282057190498785"><ele>320.0</ele><time>2026-04-11T13:06:43.999Z</time></trkpt><trkpt lat="43.85532765208258" lon="12.282046013175286"><ele>320.0</ele><time>2026-04-11T13:06:44.999Z</time></trkpt><trkpt lat="43.8554357493777" lon="12.282025486726024"><ele>320.0</ele><time>2026-04-11T13:06:45.999Z</time></trkpt><trkpt lat="43.85555325621874" lon="12.28202007200181"><ele>322.75</ele><time>2026-04-11T13:06:46.999Z</time></trkpt><trkpt lat="43.85566422311685" lon="12.281974814414822"><ele>325.5</ele><time>2026-04-11T13:06:47.999Z</time></trkpt><trkpt lat="43.85577327894379" lon="12.281917007794565"><ele>328.25</ele><time>2026-04-11T13:06:48.999Z</time></trkpt><trkpt lat="43.855874864908216" lon="12.281819126938473"><ele>331.0</ele><time>2026-04-11T13:06:49.999Z</time></trkpt><trkpt lat="43.85595132591343" lon="12.281697288365322"><ele>331.0</ele><time>2026-04-11T13:06:50.999Z</time></trkpt><trkpt lat="43.85599007202922" lon="12.281545718891477"><ele>331.0</ele><time>2026-04-11T13:06:51.999Z</time></trkpt><trkpt lat="43.856032490182706" lon="12.281394485224844"><ele>331.0</ele><time>2026-04-11T13:06:52.999Z</time></trkpt><trkpt lat="43.85607474082507" lon="12.281232211549153"><ele>331.0</ele><time>2026-04-11T13:06:53.999Z</time></trkpt><trkpt lat="43.85611586328023" lon="12.281058452254111"><ele>331.0</ele><time>2026-04-11T13:06:54.999Z</time></trkpt><trkpt lat="43.85617051775278" lon="12.280904162821763"><ele>331.0</ele><time>2026-04-11T13:06:55.999Z</time></trkpt><trkpt lat="43.85626276623543" lon="12.28078166966784"><ele>331.0</ele><time>2026-04-11T13:06:56.999Z</time></trkpt><trkpt lat="43.85636956241554" lon="12.280687609455958"><ele>331.0</ele><time>2026-04-11T13:06:57.999Z</time></trkpt><trkpt lat="43.85648551687875" lon="12.280625000339095"><ele>331.0</ele><time>2026-04-11T13:06:58.999Z</time></trkpt><trkpt lat="43.85661230647833" lon="12.280601322567232"><ele>331.0</ele><time>2026-04-11T13:06:59.999Z</time></trkpt><trkpt lat="43.85673910827018" lon="12.280553544174694"><ele>331.0</ele><time>2026-04-11T13:07:01Z</time></trkpt><trkpt lat="43.85685536656493" lon="12.280480789377368"><ele>331.0</ele><time>2026-04-11T13:07:02Z</time></trkpt><trkpt lat="43.856973937995534" lon="12.280435278770884"><ele>327.75</ele><time>2026-04-11T13:07:03Z</time></trkpt><trkpt lat="43.85709112336133" lon="12.280392589502892"><ele>324.5</ele><time>2026-04-11T13:07:04Z</time></trkpt><trkpt lat="43.857207751078036" lon="12.280351540091013"><ele>321.25</ele><time>2026-04-11T13:07:05Z</time></trkpt><trkpt lat="43.85732522038464" lon="12.28029740656924"><ele>318.0</ele><time>2026-04-11T13:07:06Z</time></trkpt><trkpt lat="43.85743994832579" lon="12.280238391477281"><ele>318.0</ele><time>2026-04-11T13:07:07Z</time></trkpt><trkpt lat="43.85755109927604" lon="12.280181136679698"><ele>318.0</ele><time>2026-04-11T13:07:08Z</time></trkpt><trkpt lat="43.85765837593318" lon="12.280122503614137"><ele>318.0</ele><time>2026-04-11T13:07:09Z</time></trkpt><trkpt lat="43.85776461016055" lon="12.280067345484255"><ele>318.0</ele><time>2026-04-11T13:07:10Z</time></trkpt><trkpt lat="43.857870872072354" lon="12.2800143619547"><ele>318.75</ele><time>2026-04-11T13:07:11Z</time></trkpt><trkpt lat="43.85798181958666" lon="12.279970478805946"><ele>319.5</ele><time>2026-04-11T13:07:12Z</time></trkpt><trkpt lat="43.858098449213" lon="12.279941626409421"><ele>320.25</ele><time>2026-04-11T13:07:13Z</time></trkpt><trkpt lat="43.85821816253639" lon="12.27992675156171"><ele>321.0</ele><time>2026-04-11T13:07:14Z</time></trkpt><trkpt lat="43.85833835784518" lon="12.279936197589429"><ele>319.0</ele><time>2026-04-11T13:07:15Z</time></trkpt><trkpt lat="43.85845623267768" lon="12.279972671999788"><ele>317.0</ele><time>2026-04-11T13:07:16Z</time></trkpt><trkpt lat="43.858563405728425" lon="12.280035916878466"><ele>315.0</ele><time>2026-04-11T13:07:17Z</time></trkpt><trkpt lat="43.85866959039026" lon="12.280108680073647"><ele>313.0</ele><time>2026-04-11T13:07:18Z</time></trkpt><trkpt lat="43.85875394099348" lon="12.280225344510297"><ele>313.0</ele><time>2026-04-11T13:07:19Z</time></trkpt><trkpt lat="43.85884403140387" lon="12.280342371639431"><ele>313.0</ele><time>2026-04-11T13:07:20Z</time></trkpt><trkpt lat="43.85892395102493" lon="12.280473074714644"><ele>313.0</ele><time>2026-04-11T13:07:21Z</time></trkpt><trkpt lat="43.85899560567474" lon="12.280611224293706"><ele>313.0</ele><time>2026-04-11T13:07:22Z</time></trkpt><trkpt lat="43.859062020344666" lon="12.280756614023801"><ele>315.25</ele><time>2026-04-11T13:07:23Z</time></trkpt><trkpt lat="43.85913044446491" lon="12.280902211177526"><ele>317.5</ele><time>2026-04-11T13:07:24Z</time></trkpt><trkpt lat="43.859209879989024" lon="12.281032435496487"><ele>319.75</ele><time>2026-04-11T13:07:25Z</time></trkpt><trkpt lat="43.85927609775319" lon="12.281173726891593"><ele>322.0</ele><time>2026-04-11T13:07:26Z</time></trkpt><trkpt lat="43.859343951264364" lon="12.281318241908139"><ele>319.75</ele><time>2026-04-11T13:07:27Z</time></trkpt><trkpt lat="43.85941678285792" lon="12.281465367685316"><ele>317.5</ele><time>2026-04-11T13:07:28Z</time></trkpt><trkpt lat="43.85949428204671" lon="12.281614225630943"><ele>315.25</ele><time>2026-04-11T13:07:29Z</time></trkpt><trkpt lat="43.85957711960546" lon="12.281758933066806"><ele>313.0</ele><time>2026-04-11T13:07:30Z</time></trkpt><trkpt lat="43.85967577491987" lon="12.281892707542088"><ele>313.0</ele><time>2026-04-11T13:07:31Z</time></trkpt><trkpt lat="43.85977555883377" lon="12.28201427649177"><ele>313.0</ele><time>2026-04-11T13:07:32Z</time></trkpt><trkpt lat="43.85988088793626" lon="12.282130482955393"><ele>313.0</ele><time>2026-04-11T13:07:33Z</time></trkpt><trkpt lat="43.85998789919802" lon="12.282234936957309"><ele>313.0</ele><time>2026-04-11T13:07:34Z</time></trkpt><trkpt lat="43.86009260432065" lon="12.282330148648429"><ele>312.25</ele><time>2026-04-11T13:07:35Z</time></trkpt><trkpt lat="43.86019807504417" lon="12.282418565189591"><ele>311.5</ele><time>2026-04-11T13:07:36Z</time></trkpt><trkpt lat="43.860304263711924" lon="12.282503547821403"><ele>310.75</ele><time>2026-04-11T13:07:37Z</time></trkpt><trkpt lat="43.860416288851305" lon="12.282583466383802"><ele>310.0</ele><time>2026-04-11T13:07:38Z</time></trkpt><trkpt lat="43.860526921209825" lon="12.282671196808277"><ele>310.0</ele><time>2026-04-11T13:07:39Z</time></trkpt><trkpt lat="43.860635017130534" lon="12.28275806614243"><ele>310.0</ele><time>2026-04-11T13:07:40Z</time></trkpt><trkpt lat="43.860737199399594" lon="12.28283941972443"><ele>310.0</ele><time>2026-04-11T13:07:41Z</time></trkpt><trkpt lat="43.860839728028886" lon="12.28292437707946"><ele>310.0</ele><time>2026-04-11T13:07:42Z</time></trkpt><trkpt lat="43.860942242773554" lon="12.283019388131486"><ele>310.75</ele><time>2026-04-11T13:07:43Z</time></trkpt><trkpt lat="43.861040641289215" lon="12.283119186496394"><ele>311.5</ele><time>2026-04-11T13:07:44Z</time></trkpt><trkpt lat="43.861140712381484" lon="12.283224098578806"><ele>312.25</ele><time>2026-04-11T13:07:45Z</time></trkpt><trkpt lat="43.86124257504415" lon="12.283333340290998"><ele>313.0</ele><time>2026-04-11T13:07:46Z</time></trkpt><trkpt lat="43.861342382853316" lon="12.283442594561208"><ele>313.0</ele><time>2026-04-11T13:07:47Z</time></trkpt><trkpt lat="43.86144108503867" lon="12.28354435959669"><ele>313.0</ele><time>2026-04-11T13:07:48Z</time></trkpt><trkpt lat="43.86153620978114" lon="12.283640058790716"><ele>313.0</ele><time>2026-04-11T13:07:49Z</time></trkpt><trkpt lat="43.86165549379239" lon="12.283691340342454"><ele>313.0</ele><time>2026-04-11T13:07:50Z</time></trkpt><trkpt lat="43.86178080179782" lon="12.283720939429088"><ele>313.75</ele><time>2026-04-11T13:07:51Z</time></trkpt><trkpt lat="43.8619071328779" lon="12.283698774271485"><ele>314.5</ele><time>2026-04-11T13:07:52Z</time></trkpt><trkpt lat="43.862026970246646" lon="12.283654051302033"><ele>315.25</ele><time>2026-04-11T13:07:53Z</time></trkpt><trkpt lat="43.8621382561172" lon="12.283600658701056"><ele>316.0</ele><time>2026-04-11T13:07:54Z</time></trkpt><trkpt lat="43.86224946450307" lon="12.283534167454373"><ele>316.0</ele><time>2026-04-11T13:07:55Z</time></trkpt><trkpt lat="43.86234714402589" lon="12.283446128572649"><ele>316.0</ele><time>2026-04-11T13:07:56Z</time></trkpt><trkpt lat="43.86244127370085" lon="12.283357414603683"><ele>316.0</ele><time>2026-04-11T13:07:57Z</time></trkpt><trkpt lat="43.86254038329503" lon="12.283281040978599"><ele>316.0</ele><time>2026-04-11T13:07:58Z</time></trkpt><trkpt lat="43.86264938484422" lon="12.283225331746873"><ele>315.8</ele><time>2026-04-11T13:07:59Z</time></trkpt><trkpt lat="43.86277023031593" lon="12.283200386709607"><ele>315.6</ele><time>2026-04-11T13:08:00Z</time></trkpt><trkpt lat="43.862884932242515" lon="12.283183114988136"><ele>315.4</ele><time>2026-04-11T13:08:01Z</time></trkpt><trkpt lat="43.862987864095764" lon="12.283173309483493"><ele>315.2</ele><time>2026-04-11T13:08:02Z</time></trkpt><trkpt lat="43.86308323995103" lon="12.28319301779218"><ele>315.0</ele><time>2026-04-11T13:08:03Z</time></trkpt><trkpt lat="43.86317245807746" lon="12.283237623844485"><ele>315.0</ele><time>2026-04-11T13:08:04Z</time></trkpt><trkpt lat="43.863257491851535" lon="12.283301147826982"><ele>315.0</ele><time>2026-04-11T13:08:05Z</time></trkpt><trkpt lat="43.86333652727063" lon="12.283380464740842"><ele>315.0</ele><time>2026-04-11T13:08:06Z</time></trkpt><trkpt lat="43.86341450874004" lon="12.283474684334609"><ele>315.0</ele><time>2026-04-11T13:08:07Z</time></trkpt><trkpt lat="43.86348613476247" lon="12.283573226241872"><ele>315.0</ele><time>2026-04-11T13:08:07.999Z</time></trkpt><trkpt lat="43.86355518570588" lon="12.283661541965076"><ele>313.8</ele><time>2026-04-11T13:08:08.999Z</time></trkpt><trkpt lat="43.86362298996083" lon="12.2837391494253"><ele>312.6</ele><time>2026-04-11T13:08:09.999Z</time></trkpt><trkpt lat="43.86369683393589" lon="12.283801506027862"><ele>311.4</ele><time>2026-04-11T13:08:10.999Z</time></trkpt><trkpt lat="43.86378066801363" lon="12.283842269579011"><ele>310.2</ele><time>2026-04-11T13:08:11.999Z</time></trkpt><trkpt lat="43.8638727029034" lon="12.28384030677716"><ele>309.0</ele><time>2026-04-11T13:08:12.999Z</time></trkpt><trkpt lat="43.86396882488452" lon="12.283799763112592"><ele>309.0</ele><time>2026-04-11T13:08:13.999Z</time></trkpt><trkpt lat="43.86404945217397" lon="12.283737273772816"><ele>309.0</ele><time>2026-04-11T13:08:14.999Z</time></trkpt><trkpt lat="43.86411133166112" lon="12.283662391898986"><ele>309.0</ele><time>2026-04-11T13:08:15.999Z</time></trkpt><trkpt lat="43.86416860835292" lon="12.28358880700906"><ele>309.0</ele><time>2026-04-11T13:08:16.999Z</time></trkpt><trkpt lat="43.86422289400977" lon="12.28352095181382"><ele>309.0</ele><time>2026-04-11T13:08:17.999Z</time></trkpt><trkpt lat="43.864284058191075" lon="12.283458146621195"><ele>309.0</ele><time>2026-04-11T13:08:18.999Z</time></trkpt><trkpt lat="43.86435577386104" lon="12.283405555162544"><ele>307.0</ele><time>2026-04-11T13:08:19.999Z</time></trkpt><trkpt lat="43.86443578006349" lon="12.283376648469435"><ele>305.0</ele><time>2026-04-11T13:08:20.999Z</time></trkpt><trkpt lat="43.864528865739814" lon="12.283380781576783"><ele>303.0</ele><time>2026-04-11T13:08:21.999Z</time></trkpt><trkpt lat="43.86462374965399" lon="12.283412041659881"><ele>301.0</ele><time>2026-04-11T13:08:22.999Z</time></trkpt><trkpt lat="43.86471899484121" lon="12.283477414545512"><ele>299.0</ele><time>2026-04-11T13:08:23.999Z</time></trkpt><trkpt lat="43.86480042537317" lon="12.283545402029812"><ele>299.0</ele><time>2026-04-11T13:08:24.999Z</time></trkpt><trkpt lat="43.86488314411826" lon="12.283612500967351"><ele>299.0</ele><time>2026-04-11T13:08:25.999Z</time></trkpt><trkpt lat="43.8649567200252" lon="12.283678525937338"><ele>299.0</ele><time>2026-04-11T13:08:26.999Z</time></trkpt><trkpt lat="43.86503710522521" lon="12.283728207933946"><ele>299.0</ele><time>2026-04-11T13:08:27.999Z</time></trkpt><trkpt lat="43.8651184793917" lon="12.28378680498639"><ele>299.0</ele><time>2026-04-11T13:08:28.999Z</time></trkpt><trkpt lat="43.86522181957427" lon="12.283782594146796"><ele>297.2</ele><time>2026-04-11T13:08:29.999Z</time></trkpt><trkpt lat="43.86532424295199" lon="12.283777028096129"><ele>295.4</ele><time>2026-04-11T13:08:30.999Z</time></trkpt><trkpt lat="43.86542180621775" lon="12.283745914491801"><ele>293.6</ele><time>2026-04-11T13:08:31.999Z</time></trkpt><trkpt lat="43.86550898661445" lon="12.283703513835134"><ele>291.8</ele><time>2026-04-11T13:08:32.999Z</time></trkpt><trkpt lat="43.865601104516195" lon="12.28366131993809"><ele>290.0</ele><time>2026-04-11T13:08:33.999Z</time></trkpt><trkpt lat="43.86569189149115" lon="12.283614633419432"><ele>290.0</ele><time>2026-04-11T13:08:34.999Z</time></trkpt><trkpt lat="43.86578377403489" lon="12.283574342738437"><ele>290.0</ele><time>2026-04-11T13:08:35.999Z</time></trkpt><trkpt lat="43.865873585637814" lon="12.28355487630603"><ele>290.0</ele><time>2026-04-11T13:08:36.999Z</time></trkpt><trkpt lat="43.86595736658492" lon="12.283553278828185"><ele>290.0</ele><time>2026-04-11T13:08:37.999Z</time></trkpt><trkpt lat="43.86603754167939" lon="12.283569514912234"><ele>290.0</ele><time>2026-04-11T13:08:38.999Z</time></trkpt><trkpt lat="43.866112637826724" lon="12.28360554932435"><ele>290.0</ele><time>2026-04-11T13:08:39.999Z</time></trkpt><trkpt lat="43.866186626789606" lon="12.283656654167268"><ele>289.5</ele><time>2026-04-11T13:08:40.999Z</time></trkpt><trkpt lat="43.86624251248236" lon="12.283746907566723"><ele>289.0</ele><time>2026-04-11T13:08:41.999Z</time></trkpt><trkpt lat="43.866302034908614" lon="12.283831587857115"><ele>288.5</ele><time>2026-04-11T13:08:42.999Z</time></trkpt><trkpt lat="43.866362084262086" lon="12.28392236248836"><ele>288.0</ele><time>2026-04-11T13:08:43.999Z</time></trkpt><trkpt lat="43.86641878106983" lon="12.284013460753958"><ele>287.5</ele><time>2026-04-11T13:08:44.999Z</time></trkpt><trkpt lat="43.866475752717626" lon="12.284105937459035"><ele>287.0</ele><time>2026-04-11T13:08:45.999Z</time></trkpt><trkpt lat="43.866528881746376" lon="12.284193481723673"><ele>287.0</ele><time>2026-04-11T13:08:46.999Z</time></trkpt><trkpt lat="43.8665743935122" lon="12.284268474696525"><ele>287.0</ele><time>2026-04-11T13:08:47.999Z</time></trkpt><trkpt lat="43.866622737970125" lon="12.284348135230706"><ele>287.0</ele><time>2026-04-11T13:08:48.999Z</time></trkpt><trkpt lat="43.866675380833456" lon="12.28443276850297"><ele>287.0</ele><time>2026-04-11T13:08:49.999Z</time></trkpt><trkpt lat="43.86673064316745" lon="12.2845201762223"><ele>287.0</ele><time>2026-04-11T13:08:50.999Z</time></trkpt><trkpt lat="43.86678838453503" lon="12.284611504964918"><ele>287.0</ele><time>2026-04-11T13:08:51.999Z</time></trkpt><trkpt lat="43.86684762208456" lon="12.28470520021195"><ele>286.6</ele><time>2026-04-11T13:08:52.999Z</time></trkpt><trkpt lat="43.86690841297213" lon="12.284801352311161"><ele>286.2</ele><time>2026-04-11T13:08:53.999Z</time></trkpt><trkpt lat="43.86697430169236" lon="12.284902473279434"><ele>285.8</ele><time>2026-04-11T13:08:54.999Z</time></trkpt><trkpt lat="43.8670471590474" lon="12.285004449425875"><ele>285.4</ele><time>2026-04-11T13:08:55.999Z</time></trkpt><trkpt lat="43.86712752732566" lon="12.285098928288582"><ele>285.0</ele><time>2026-04-11T13:08:56.999Z</time></trkpt><trkpt lat="43.86722582608639" lon="12.285179920385946"><ele>285.0</ele><time>2026-04-11T13:08:57.999Z</time></trkpt><trkpt lat="43.8673383821392" lon="12.285229755729924"><ele>285.0</ele><time>2026-04-11T13:08:58.999Z</time></trkpt><trkpt lat="43.86746918202913" lon="12.28522200958042"><ele>285.0</ele><time>2026-04-11T13:08:59.999Z</time></trkpt><trkpt lat="43.86760060172942" lon="12.285139623981177"><ele>285.0</ele><time>2026-04-11T13:09:00.999Z</time></trkpt><trkpt lat="43.86774353851577" lon="12.285069199557705"><ele>283.5</ele><time>2026-04-11T13:09:01.999Z</time></trkpt><trkpt lat="43.86786482997577" lon="12.284982841097388"><ele>282.0</ele><time>2026-04-11T13:09:02.999Z</time></trkpt><trkpt lat="43.86799025675807" lon="12.284886434821914"><ele>280.5</ele><time>2026-04-11T13:09:03.999Z</time></trkpt><trkpt lat="43.86811377759998" lon="12.284798791247436"><ele>279.0</ele><time>2026-04-11T13:09:04.999Z</time></trkpt><trkpt lat="43.868234798386005" lon="12.284718137471227"><ele>279.0</ele><time>2026-04-11T13:09:05.999Z</time></trkpt><trkpt lat="43.868347282133215" lon="12.284639755112591"><ele>279.0</ele><time>2026-04-11T13:09:07Z</time></trkpt><trkpt lat="43.86845262165855" lon="12.284564783925429"><ele>279.0</ele><time>2026-04-11T13:09:08Z</time></trkpt><trkpt lat="43.868551494569935" lon="12.284494696306067"><ele>279.0</ele><time>2026-04-11T13:09:09Z</time></trkpt><trkpt lat="43.86865233208081" lon="12.2844242767167"><ele>280.75</ele><time>2026-04-11T13:09:10Z</time></trkpt><trkpt lat="43.868759633286025" lon="12.28435125759408"><ele>282.5</ele><time>2026-04-11T13:09:11Z</time></trkpt><trkpt lat="43.868870593462354" lon="12.284279265435694"><ele>284.25</ele><time>2026-04-11T13:09:12Z</time></trkpt><trkpt lat="43.868958478373195" lon="12.284142036515068"><ele>286.0</ele><time>2026-04-11T13:09:13Z</time></trkpt><trkpt lat="43.86910550503059" lon="12.284150096009745"><ele>286.0</ele><time>2026-04-11T13:09:14Z</time></trkpt><trkpt lat="43.869231397473285" lon="12.284116015269085"><ele>286.0</ele><time>2026-04-11T13:09:15Z</time></trkpt><trkpt lat="43.869361174302185" lon="12.284106853084435"><ele>286.0</ele><time>2026-04-11T13:09:16Z</time></trkpt><trkpt lat="43.86949249568708" lon="12.284100755867094"><ele>286.0</ele><time>2026-04-11T13:09:17Z</time></trkpt><trkpt lat="43.86962068819078" lon="12.284093812882377"><ele>286.25</ele><time>2026-04-11T13:09:18Z</time></trkpt><trkpt lat="43.869746750058844" lon="12.284094103501188"><ele>286.5</ele><time>2026-04-11T13:09:19Z</time></trkpt><trkpt lat="43.8698687673503" lon="12.284092832516478"><ele>286.75</ele><time>2026-04-11T13:09:20Z</time></trkpt><trkpt lat="43.86999555464776" lon="12.284099371797499"><ele>287.0</ele><time>2026-04-11T13:09:21Z</time></trkpt><trkpt lat="43.8701184319877" lon="12.284098667199133"><ele>286.25</ele><time>2026-04-11T13:09:22Z</time></trkpt><trkpt lat="43.87024578184834" lon="12.284093830985052"><ele>285.5</ele><time>2026-04-11T13:09:23Z</time></trkpt><trkpt lat="43.87037452390227" lon="12.284091607119677"><ele>284.75</ele><time>2026-04-11T13:09:24Z</time></trkpt><trkpt lat="43.870506904617926" lon="12.284085215351027"><ele>284.0</ele><time>2026-04-11T13:09:25Z</time></trkpt><trkpt lat="43.87064264186369" lon="12.284055429419764"><ele>284.0</ele><time>2026-04-11T13:09:26Z</time></trkpt><trkpt lat="43.87077222485664" lon="12.284026571822249"><ele>284.0</ele><time>2026-04-11T13:09:27Z</time></trkpt><trkpt lat="43.870894985700964" lon="12.283993197749385"><ele>284.0</ele><time>2026-04-11T13:09:28Z</time></trkpt><trkpt lat="43.8710192054056" lon="12.283954492787164"><ele>284.0</ele><time>2026-04-11T13:09:29Z</time></trkpt><trkpt lat="43.87113994989198" lon="12.283913681814678"><ele>286.5</ele><time>2026-04-11T13:09:30Z</time></trkpt><trkpt lat="43.87126040497679" lon="12.283872614179412"><ele>289.0</ele><time>2026-04-11T13:09:31Z</time></trkpt><trkpt lat="43.871386405319036" lon="12.283837776502896"><ele>291.5</ele><time>2026-04-11T13:09:32Z</time></trkpt><trkpt lat="43.871508577456325" lon="12.283805931390226"><ele>294.0</ele><time>2026-04-11T13:09:33Z</time></trkpt><trkpt lat="43.87162455156649" lon="12.283768928975148"><ele>294.0</ele><time>2026-04-11T13:09:34Z</time></trkpt><trkpt lat="43.87174320857764" lon="12.283735287643024"><ele>294.0</ele><time>2026-04-11T13:09:35Z</time></trkpt><trkpt lat="43.871862203485755" lon="12.28369426521009"><ele>294.0</ele><time>2026-04-11T13:09:36Z</time></trkpt><trkpt lat="43.87198366058243" lon="12.28364585130573"><ele>294.0</ele><time>2026-04-11T13:09:37Z</time></trkpt><trkpt lat="43.87211056039489" lon="12.283593096715734"><ele>293.0</ele><time>2026-04-11T13:09:38Z</time></trkpt><trkpt lat="43.872235178457316" lon="12.283540435985874"><ele>292.0</ele><time>2026-04-11T13:09:39Z</time></trkpt><trkpt lat="43.87235938938332" lon="12.28349539173607"><ele>291.0</ele><time>2026-04-11T13:09:40Z</time></trkpt><trkpt lat="43.87248391161128" lon="12.283447035253216"><ele>290.0</ele><time>2026-04-11T13:09:41Z</time></trkpt><trkpt lat="43.87260947003354" lon="12.283397195564627"><ele>290.0</ele><time>2026-04-11T13:09:42Z</time></trkpt><trkpt lat="43.87273172889354" lon="12.28334674241779"><ele>290.0</ele><time>2026-04-11T13:09:43Z</time></trkpt><trkpt lat="43.87285156411446" lon="12.283289892922816"><ele>290.0</ele><time>2026-04-11T13:09:44Z</time></trkpt><trkpt lat="43.87296836719885" lon="12.283228659842054"><ele>290.0</ele><time>2026-04-11T13:09:45Z</time></trkpt><trkpt lat="43.87307973101576" lon="12.283157805757096"><ele>292.75</ele><time>2026-04-11T13:09:46Z</time></trkpt><trkpt lat="43.87318791862804" lon="12.283084040391131"><ele>295.5</ele><time>2026-04-11T13:09:47Z</time></trkpt><trkpt lat="43.87329454816907" lon="12.283010977369738"><ele>298.25</ele><time>2026-04-11T13:09:48Z</time></trkpt><trkpt lat="43.873397714136836" lon="12.282936490363715"><ele>301.0</ele><time>2026-04-11T13:09:49Z</time></trkpt><trkpt lat="43.873501533809645" lon="12.28285835220993"><ele>301.0</ele><time>2026-04-11T13:09:50Z</time></trkpt><trkpt lat="43.87360716713883" lon="12.28278351760543"><ele>301.0</ele><time>2026-04-11T13:09:51Z</time></trkpt><trkpt lat="43.87371727810293" lon="12.282717978309233"><ele>301.0</ele><time>2026-04-11T13:09:52Z</time></trkpt><trkpt lat="43.87383208087332" lon="12.282665571300356"><ele>301.0</ele><time>2026-04-11T13:09:53Z</time></trkpt><trkpt lat="43.873949423225135" lon="12.282629938745558"><ele>301.0</ele><time>2026-04-11T13:09:54Z</time></trkpt><trkpt lat="43.87406965814985" lon="12.28261009745272"><ele>301.0</ele><time>2026-04-11T13:09:55Z</time></trkpt><trkpt lat="43.87419028918621" lon="12.282602648916676"><ele>301.0</ele><time>2026-04-11T13:09:56Z</time></trkpt><trkpt lat="43.874308022845675" lon="12.282594511558578"><ele>301.0</ele><time>2026-04-11T13:09:57Z</time></trkpt><trkpt lat="43.87442755504697" lon="12.282586172889756"><ele>302.5</ele><time>2026-04-11T13:09:58Z</time></trkpt><trkpt lat="43.87455067539908" lon="12.282576501571608"><ele>304.0</ele><time>2026-04-11T13:09:59Z</time></trkpt><trkpt lat="43.874675468562934" lon="12.282564185021938"><ele>305.5</ele><time>2026-04-11T13:10:00Z</time></trkpt><trkpt lat="43.87480489665345" lon="12.28255205378608"><ele>307.0</ele><time>2026-04-11T13:10:01Z</time></trkpt><trkpt lat="43.87492931983" lon="12.282555974686577"><ele>307.0</ele><time>2026-04-11T13:10:02Z</time></trkpt><trkpt lat="43.87505211669801" lon="12.282590056546253"><ele>307.0</ele><time>2026-04-11T13:10:03Z</time></trkpt><trkpt lat="43.87516124856409" lon="12.28267286059547"><ele>307.0</ele><time>2026-04-11T13:10:04Z</time></trkpt><trkpt lat="43.875249896383494" lon="12.282765200510001"><ele>307.0</ele><time>2026-04-11T13:10:05Z</time></trkpt><trkpt lat="43.87534041853388" lon="12.28286465330464"><ele>306.75</ele><time>2026-04-11T13:10:06Z</time></trkpt><trkpt lat="43.875438660869385" lon="12.282975228462366"><ele>306.5</ele><time>2026-04-11T13:10:07Z</time></trkpt><trkpt lat="43.8755373472795" lon="12.28306961908135"><ele>306.25</ele><time>2026-04-11T13:10:08Z</time></trkpt><trkpt lat="43.87563784518206" lon="12.283140289665669"><ele>306.0</ele><time>2026-04-11T13:10:09Z</time></trkpt><trkpt lat="43.87574015165319" lon="12.283156934644047"><ele>306.0</ele><time>2026-04-11T13:10:10Z</time></trkpt><trkpt lat="43.87582771283241" lon="12.283106282413131"><ele>306.0</ele><time>2026-04-11T13:10:11Z</time></trkpt><trkpt lat="43.87591644314939" lon="12.283030712785648"><ele>306.0</ele><time>2026-04-11T13:10:12Z</time></trkpt><trkpt lat="43.87597571602591" lon="12.282904471891365"><ele>306.0</ele><time>2026-04-11T13:10:13Z</time></trkpt><trkpt lat="43.87603700183745" lon="12.282769014010784"><ele>306.0</ele><time>2026-04-11T13:10:14Z</time></trkpt><trkpt lat="43.876091723748495" lon="12.282619851030843"><ele>305.25</ele><time>2026-04-11T13:10:15Z</time></trkpt><trkpt lat="43.87614933052537" lon="12.282464781327029"><ele>304.5</ele><time>2026-04-11T13:10:16Z</time></trkpt><trkpt lat="43.87619985200281" lon="12.282311840784695"><ele>303.75</ele><time>2026-04-11T13:10:17Z</time></trkpt><trkpt lat="43.87627538582396" lon="12.28215750019545"><ele>303.0</ele><time>2026-04-11T13:10:18Z</time></trkpt><trkpt lat="43.876359797006984" lon="12.282022185439343"><ele>303.0</ele><time>2026-04-11T13:10:19Z</time></trkpt><trkpt lat="43.87647340839242" lon="12.281911905296642"><ele>303.0</ele><time>2026-04-11T13:10:19.999Z</time></trkpt><trkpt lat="43.876582874429985" lon="12.281787690519058"><ele>303.0</ele><time>2026-04-11T13:10:20.999Z</time></trkpt><trkpt lat="43.876689519437186" lon="12.28167110806904"><ele>303.0</ele><time>2026-04-11T13:10:21.999Z</time></trkpt><trkpt lat="43.87678875786017" lon="12.281557260282232"><ele>303.75</ele><time>2026-04-11T13:10:22.999Z</time></trkpt><trkpt lat="43.87687543235521" lon="12.281445725599028"><ele>304.5</ele><time>2026-04-11T13:10:23.999Z</time></trkpt><trkpt lat="43.876936816089" lon="12.281302627259103"><ele>305.25</ele><time>2026-04-11T13:10:24.999Z</time></trkpt><trkpt lat="43.876969209284034" lon="12.281136325855334"><ele>306.0</ele><time>2026-04-11T13:10:25.999Z</time></trkpt><trkpt lat="43.87697949351949" lon="12.28097632329047"><ele>306.0</ele><time>2026-04-11T13:10:26.999Z</time></trkpt><trkpt lat="43.87697945907416" lon="12.2808353109611"><ele>306.0</ele><time>2026-04-11T13:10:27.999Z</time></trkpt><trkpt lat="43.877010741521545" lon="12.280697472559703"><ele>306.0</ele><time>2026-04-11T13:10:28.999Z</time></trkpt><trkpt lat="43.87708074595217" lon="12.280578207579865"><ele>306.0</ele><time>2026-04-11T13:10:29.999Z</time></trkpt><trkpt lat="43.87716607654532" lon="12.280483370805175"><ele>306.0</ele><time>2026-04-11T13:10:30.999Z</time></trkpt><trkpt lat="43.8772714470887" lon="12.2804244023232"><ele>309.0</ele><time>2026-04-11T13:10:31.999Z</time></trkpt><trkpt lat="43.87738436843293" lon="12.280411247845795"><ele>312.0</ele><time>2026-04-11T13:10:32.999Z</time></trkpt><trkpt lat="43.87749322990055" lon="12.280405416083017"><ele>315.0</ele><time>2026-04-11T13:10:33.999Z</time></trkpt><trkpt lat="43.87760085242328" lon="12.2804292794748"><ele>318.0</ele><time>2026-04-11T13:10:34.999Z</time></trkpt><trkpt lat="43.877719433486455" lon="12.28047776783906"><ele>317.5</ele><time>2026-04-11T13:10:35.999Z</time></trkpt><trkpt lat="43.87784051692665" lon="12.280550981612647"><ele>317.0</ele><time>2026-04-11T13:10:36.999Z</time></trkpt><trkpt lat="43.877956653693886" lon="12.28063054378531"><ele>316.5</ele><time>2026-04-11T13:10:37.999Z</time></trkpt><trkpt lat="43.8780691820322" lon="12.280710386852682"><ele>316.0</ele><time>2026-04-11T13:10:38.999Z</time></trkpt><trkpt lat="43.8781808629532" lon="12.280789905964056"><ele>316.0</ele><time>2026-04-11T13:10:39.999Z</time></trkpt><trkpt lat="43.87829158760025" lon="12.280868744191348"><ele>316.0</ele><time>2026-04-11T13:10:40.999Z</time></trkpt><trkpt lat="43.878410208874115" lon="12.28092894623714"><ele>316.0</ele><time>2026-04-11T13:10:41.999Z</time></trkpt><trkpt lat="43.87851994045728" lon="12.28102158004819"><ele>316.0</ele><time>2026-04-11T13:10:42.999Z</time></trkpt><trkpt lat="43.878632415725434" lon="12.281107516678983"><ele>320.25</ele><time>2026-04-11T13:10:43.999Z</time></trkpt><trkpt lat="43.8787472434035" lon="12.28117958093592"><ele>324.5</ele><time>2026-04-11T13:10:44.999Z</time></trkpt><trkpt lat="43.87887071531364" lon="12.281233553532402"><ele>328.75</ele><time>2026-04-11T13:10:45.999Z</time></trkpt><trkpt lat="43.878988687573134" lon="12.281281134102011"><ele>333.0</ele><time>2026-04-11T13:10:46.999Z</time></trkpt><trkpt lat="43.87910248654411" lon="12.28133015115442"><ele>333.0</ele><time>2026-04-11T13:10:47.999Z</time></trkpt><trkpt lat="43.87922229553318" lon="12.281379236571103"><ele>333.0</ele><time>2026-04-11T13:10:48.999Z</time></trkpt><trkpt lat="43.879347741796536" lon="12.281428230973532"><ele>333.0</ele><time>2026-04-11T13:10:49.999Z</time></trkpt><trkpt lat="43.8794726724627" lon="12.28147818360874"><ele>333.0</ele><time>2026-04-11T13:10:50.999Z</time></trkpt><trkpt lat="43.879596495582405" lon="12.281532303199551"><ele>330.0</ele><time>2026-04-11T13:10:51.999Z</time></trkpt><trkpt lat="43.879720407186205" lon="12.281590123156544"><ele>327.0</ele><time>2026-04-11T13:10:52.999Z</time></trkpt><trkpt lat="43.87984070510011" lon="12.28164321002758"><ele>324.0</ele><time>2026-04-11T13:10:53.999Z</time></trkpt><trkpt lat="43.87996404098654" lon="12.281694871466168"><ele>321.0</ele><time>2026-04-11T13:10:54.999Z</time></trkpt><trkpt lat="43.88008382405497" lon="12.281747543778344"><ele>325.5</ele><time>2026-04-11T13:10:55.999Z</time></trkpt><trkpt lat="43.88020826830395" lon="12.281802284601845"><ele>330.0</ele><time>2026-04-11T13:10:56.999Z</time></trkpt><trkpt lat="43.880326918293775" lon="12.281863110515571"><ele>334.5</ele><time>2026-04-11T13:10:57.999Z</time></trkpt><trkpt lat="43.88044276768392" lon="12.281940796270378"><ele>339.0</ele><time>2026-04-11T13:10:58.999Z</time></trkpt><trkpt lat="43.88055038379964" lon="12.282039674006706"><ele>339.0</ele><time>2026-04-11T13:10:59.999Z</time></trkpt><trkpt lat="43.88063482711685" lon="12.28216885144057"><ele>339.0</ele><time>2026-04-11T13:11:00.999Z</time></trkpt><trkpt lat="43.88071349021319" lon="12.282297045435197"><ele>339.0</ele><time>2026-04-11T13:11:01.999Z</time></trkpt><trkpt lat="43.880794603914296" lon="12.282425218965498"><ele>339.0</ele><time>2026-04-11T13:11:02.999Z</time></trkpt><trkpt lat="43.880876140639394" lon="12.282553651620432"><ele>338.5</ele><time>2026-04-11T13:11:03.999Z</time></trkpt><trkpt lat="43.88095660306215" lon="12.282680392086673"><ele>338.0</ele><time>2026-04-11T13:11:04.999Z</time></trkpt><trkpt lat="43.88103723025379" lon="12.282807940413702"><ele>337.5</ele><time>2026-04-11T13:11:05.999Z</time></trkpt><trkpt lat="43.88111712252588" lon="12.282934673418278"><ele>337.0</ele><time>2026-04-11T13:11:06.999Z</time></trkpt><trkpt lat="43.881206840130524" lon="12.283055912543361"><ele>334.5</ele><time>2026-04-11T13:11:07.999Z</time></trkpt><trkpt lat="43.881286982194176" lon="12.283181696615523"><ele>332.0</ele><time>2026-04-11T13:11:08.999Z</time></trkpt><trkpt lat="43.881365321591055" lon="12.283307957605517"><ele>329.5</ele><time>2026-04-11T13:11:09.999Z</time></trkpt><trkpt lat="43.881444066056474" lon="12.283436880365759"><ele>327.0</ele><time>2026-04-11T13:11:10.999Z</time></trkpt><trkpt lat="43.881523872278855" lon="12.283559584338448"><ele>327.0</ele><time>2026-04-11T13:11:12Z</time></trkpt><trkpt lat="43.88160839718919" lon="12.283665565433836"><ele>327.0</ele><time>2026-04-11T13:11:13Z</time></trkpt><trkpt lat="43.88170740102197" lon="12.283755832810023"><ele>327.0</ele><time>2026-04-11T13:11:14Z</time></trkpt><trkpt lat="43.88181608439165" lon="12.283830142112878"><ele>327.0</ele><time>2026-04-11T13:11:15Z</time></trkpt><trkpt lat="43.881932221817465" lon="12.283882035656891"><ele>327.75</ele><time>2026-04-11T13:11:16Z</time></trkpt><trkpt lat="43.88205444914611" lon="12.283910189773264"><ele>328.5</ele><time>2026-04-11T13:11:17Z</time></trkpt><trkpt lat="43.88217990555771" lon="12.283919298790178"><ele>329.25</ele><time>2026-04-11T13:11:18Z</time></trkpt><trkpt lat="43.88230988563828" lon="12.28392248886261"><ele>330.0</ele><time>2026-04-11T13:11:19Z</time></trkpt><trkpt lat="43.88244009992656" lon="12.28391556412774"><ele>330.0</ele><time>2026-04-11T13:11:20Z</time></trkpt><trkpt lat="43.88256807918731" lon="12.283891755256883"><ele>330.0</ele><time>2026-04-11T13:11:21Z</time></trkpt><trkpt lat="43.88269445658793" lon="12.283841510164647"><ele>330.0</ele><time>2026-04-11T13:11:22Z</time></trkpt><trkpt lat="43.882814302940574" lon="12.283774435045414"><ele>330.0</ele><time>2026-04-11T13:11:23Z</time></trkpt><trkpt lat="43.8829285197355" lon="12.283695359274379"><ele>327.25</ele><time>2026-04-11T13:11:24Z</time></trkpt><trkpt lat="43.883046516739" lon="12.283613694181742"><ele>324.5</ele><time>2026-04-11T13:11:25Z</time></trkpt><trkpt lat="43.88316333773429" lon="12.283523625261521"><ele>321.75</ele><time>2026-04-11T13:11:26Z</time></trkpt><trkpt lat="43.88328134496961" lon="12.28342892258704"><ele>319.0</ele><time>2026-04-11T13:11:27Z</time></trkpt><trkpt lat="43.883393212810134" lon="12.283334354505765"><ele>320.75</ele><time>2026-04-11T13:11:28Z</time></trkpt><trkpt lat="43.8835048893158" lon="12.283241597482602"><ele>322.5</ele><time>2026-04-11T13:11:29Z</time></trkpt><trkpt lat="43.883619362900916" lon="12.283163537709429"><ele>324.25</ele><time>2026-04-11T13:11:30Z</time></trkpt><trkpt lat="43.88374408646908" lon="12.283096507978481"><ele>326.0</ele><time>2026-04-11T13:11:31Z</time></trkpt><trkpt lat="43.88387269022839" lon="12.283074265932227"><ele>322.5</ele><time>2026-04-11T13:11:32Z</time></trkpt><trkpt lat="43.88400762385869" lon="12.283129240420928"><ele>319.0</ele><time>2026-04-11T13:11:33Z</time></trkpt><trkpt lat="43.884141036643044" lon="12.283178389449013"><ele>315.5</ele><time>2026-04-11T13:11:34Z</time></trkpt><trkpt lat="43.88426743112051" lon="12.28320605450035"><ele>312.0</ele><time>2026-04-11T13:11:35Z</time></trkpt><trkpt lat="43.88438854603843" lon="12.28325580816423"><ele>312.0</ele><time>2026-04-11T13:11:36Z</time></trkpt><trkpt lat="43.88449792445797" lon="12.283330022086675"><ele>312.0</ele><time>2026-04-11T13:11:37Z</time></trkpt><trkpt lat="43.88460977832181" lon="12.283398803830986"><ele>312.0</ele><time>2026-04-11T13:11:38Z</time></trkpt><trkpt lat="43.884716084637404" lon="12.283480379344612"><ele>312.0</ele><time>2026-04-11T13:11:39Z</time></trkpt><trkpt lat="43.88482580156475" lon="12.283559444496177"><ele>312.0</ele><time>2026-04-11T13:11:40Z</time></trkpt><trkpt lat="43.88490062871789" lon="12.283701253402565"><ele>312.0</ele><time>2026-04-11T13:11:41Z</time></trkpt><trkpt lat="43.884969997701454" lon="12.283845443869973"><ele>312.0</ele><time>2026-04-11T13:11:42Z</time></trkpt><trkpt lat="43.88502160895737" lon="12.284000944290604"><ele>312.0</ele><time>2026-04-11T13:11:43Z</time></trkpt><trkpt lat="43.88506849281294" lon="12.284152105219599"><ele>309.25</ele><time>2026-04-11T13:11:44Z</time></trkpt><trkpt lat="43.88510724656947" lon="12.284290572905956"><ele>306.5</ele><time>2026-04-11T13:11:45Z</time></trkpt><trkpt lat="43.885163913605375" lon="12.284417108576347"><ele>303.75</ele><time>2026-04-11T13:11:46Z</time></trkpt><trkpt lat="43.88525306631611" lon="12.284520286925739"><ele>301.0</ele><time>2026-04-11T13:11:47Z</time></trkpt><trkpt lat="43.8853643814743" lon="12.284583950509147"><ele>301.0</ele><time>2026-04-11T13:11:48Z</time></trkpt><trkpt lat="43.885488862637025" lon="12.28458005268945"><ele>301.0</ele><time>2026-04-11T13:11:49Z</time></trkpt><trkpt lat="43.885601953295854" lon="12.28459668534001"><ele>301.0</ele><time>2026-04-11T13:11:50Z</time></trkpt><trkpt lat="43.885720606157896" lon="12.284613544466389"><ele>301.0</ele><time>2026-04-11T13:11:51Z</time></trkpt><trkpt lat="43.88583702494489" lon="12.284643819478582"><ele>300.75</ele><time>2026-04-11T13:11:52Z</time></trkpt><trkpt lat="43.885948834921955" lon="12.28468989576467"><ele>300.5</ele><time>2026-04-11T13:11:53Z</time></trkpt><trkpt lat="43.88605564141198" lon="12.28480181832634"><ele>300.25</ele><time>2026-04-11T13:11:54Z</time></trkpt><trkpt lat="43.886156168979575" lon="12.284929270729373"><ele>300.0</ele><time>2026-04-11T13:11:55Z</time></trkpt><trkpt lat="43.886253876173704" lon="12.285055034262838"><ele>298.25</ele><time>2026-04-11T13:11:56Z</time></trkpt><trkpt lat="43.886343477718455" lon="12.285169489208492"><ele>296.5</ele><time>2026-04-11T13:11:57Z</time></trkpt><trkpt lat="43.88643663487888" lon="12.285280061957009"><ele>294.75</ele><time>2026-04-11T13:11:58Z</time></trkpt><trkpt lat="43.886535478703685" lon="12.28538151319407"><ele>293.0</ele><time>2026-04-11T13:11:59Z</time></trkpt><trkpt lat="43.88664780304293" lon="12.285454047696645"><ele>292.75</ele><time>2026-04-11T13:12:00Z</time></trkpt><trkpt lat="43.886767213881306" lon="12.285477536630099"><ele>292.5</ele><time>2026-04-11T13:12:01Z</time></trkpt><trkpt lat="43.886882515015124" lon="12.285493874732424"><ele>292.25</ele><time>2026-04-11T13:12:02Z</time></trkpt><trkpt lat="43.88700206807604" lon="12.285477353867888"><ele>292.0</ele><time>2026-04-11T13:12:03Z</time></trkpt><trkpt lat="43.887121639104066" lon="12.285452665665627"><ele>292.0</ele><time>2026-04-11T13:12:04Z</time></trkpt><trkpt lat="43.88723964657842" lon="12.285427788566299"><ele>292.0</ele><time>2026-04-11T13:12:05Z</time></trkpt><trkpt lat="43.88735720031926" lon="12.285424148283482"><ele>292.0</ele><time>2026-04-11T13:12:06Z</time></trkpt><trkpt lat="43.88746406739833" lon="12.285441826159627"><ele>292.0</ele><time>2026-04-11T13:12:07Z</time></trkpt><trkpt lat="43.887554615354766" lon="12.28554413812197"><ele>290.75</ele><time>2026-04-11T13:12:08Z</time></trkpt><trkpt lat="43.8876559739624" lon="12.285648721491023"><ele>289.5</ele><time>2026-04-11T13:12:09Z</time></trkpt><trkpt lat="43.887742737228955" lon="12.285765935715814"><ele>288.25</ele><time>2026-04-11T13:12:10Z</time></trkpt><trkpt lat="43.887830924832755" lon="12.285879456007377"><ele>287.0</ele><time>2026-04-11T13:12:11Z</time></trkpt><trkpt lat="43.88791474046949" lon="12.285986585126796"><ele>287.0</ele><time>2026-04-11T13:12:12Z</time></trkpt><trkpt lat="43.88799429424452" lon="12.286088266958552"><ele>287.0</ele><time>2026-04-11T13:12:13Z</time></trkpt><trkpt lat="43.88807003542399" lon="12.28618693135609"><ele>287.0</ele><time>2026-04-11T13:12:14Z</time></trkpt><trkpt lat="43.888164571554555" lon="12.286276148216846"><ele>287.0</ele><time>2026-04-11T13:12:15Z</time></trkpt><trkpt lat="43.88823658968912" lon="12.28640006322511"><ele>287.0</ele><time>2026-04-11T13:12:16Z</time></trkpt><trkpt lat="43.88829027118873" lon="12.286524929964598"><ele>286.8</ele><time>2026-04-11T13:12:17Z</time></trkpt><trkpt lat="43.88831515086031" lon="12.286644527569747"><ele>286.6</ele><time>2026-04-11T13:12:18Z</time></trkpt><trkpt lat="43.888330541559526" lon="12.286775792685415"><ele>286.40000000000003</ele><time>2026-04-11T13:12:19Z</time></trkpt><trkpt lat="43.88832863487967" lon="12.286910020572273"><ele>286.2</ele><time>2026-04-11T13:12:20Z</time></trkpt><trkpt lat="43.888301205988604" lon="12.287030763745772"><ele>286.0</ele><time>2026-04-11T13:12:21Z</time></trkpt><trkpt lat="43.88838413104757" lon="12.287186856756938"><ele>285.2</ele><time>2026-04-11T13:12:22Z</time></trkpt><trkpt lat="43.88841137695014" lon="12.287329303263448"><ele>284.40000000000003</ele><time>2026-04-11T13:12:23Z</time></trkpt><trkpt lat="43.88844746520566" lon="12.287470824797808"><ele>283.6</ele><time>2026-04-11T13:12:24Z</time></trkpt><trkpt lat="43.88849753577311" lon="12.28760951609771"><ele>282.8</ele><time>2026-04-11T13:12:25Z</time></trkpt><trkpt lat="43.88856606493097" lon="12.287734345123344"><ele>282.0</ele><time>2026-04-11T13:12:26Z</time></trkpt><trkpt lat="43.888649209844814" lon="12.287850185497115"><ele>283.0</ele><time>2026-04-11T13:12:27Z</time></trkpt><trkpt lat="43.88875797555072" lon="12.287953918924696"><ele>284.0</ele><time>2026-04-11T13:12:28Z</time></trkpt><trkpt lat="43.888867860334045" lon="12.288034887649149"><ele>285.0</ele><time>2026-04-11T13:12:29Z</time></trkpt><trkpt lat="43.888984284984275" lon="12.288087492149167"><ele>286.0</ele><time>2026-04-11T13:12:29.999Z</time></trkpt><trkpt lat="43.889099551376184" lon="12.288126216012406"><ele>286.0</ele><time>2026-04-11T13:12:30.999Z</time></trkpt><trkpt lat="43.889218427657774" lon="12.288169434895718"><ele>286.0</ele><time>2026-04-11T13:12:31.999Z</time></trkpt><trkpt lat="43.88932978164551" lon="12.288208316764646"><ele>286.0</ele><time>2026-04-11T13:12:32.999Z</time></trkpt><trkpt lat="43.88943913824155" lon="12.28825004827407"><ele>286.0</ele><time>2026-04-11T13:12:33.999Z</time></trkpt><trkpt lat="43.889546517453375" lon="12.288290441520397"><ele>286.8</ele><time>2026-04-11T13:12:34.999Z</time></trkpt><trkpt lat="43.88964970600711" lon="12.288331674065905"><ele>287.6</ele><time>2026-04-11T13:12:35.999Z</time></trkpt><trkpt lat="43.88975698089277" lon="12.288371440361749"><ele>288.4</ele><time>2026-04-11T13:12:36.999Z</time></trkpt><trkpt lat="43.889867601666616" lon="12.288411170213957"><ele>289.2</ele><time>2026-04-11T13:12:37.999Z</time></trkpt><trkpt lat="43.889976383515695" lon="12.288449125679577"><ele>290.0</ele><time>2026-04-11T13:12:38.999Z</time></trkpt><trkpt lat="43.89008847815847" lon="12.288488168330437"><ele>291.25</ele><time>2026-04-11T13:12:39.999Z</time></trkpt><trkpt lat="43.8902066057695" lon="12.288532836673982"><ele>292.5</ele><time>2026-04-11T13:12:40.999Z</time></trkpt><trkpt lat="43.89032396043642" lon="12.288576744276135"><ele>293.75</ele><time>2026-04-11T13:12:41.999Z</time></trkpt><trkpt lat="43.89044259100748" lon="12.288620909019427"><ele>295.0</ele><time>2026-04-11T13:12:42.999Z</time></trkpt><trkpt lat="43.8905616980884" lon="12.288665425325988"><ele>295.0</ele><time>2026-04-11T13:12:43.999Z</time></trkpt><trkpt lat="43.89067672868369" lon="12.288715743823206"><ele>295.0</ele><time>2026-04-11T13:12:44.999Z</time></trkpt><trkpt lat="43.89078454708843" lon="12.288756244140808"><ele>295.0</ele><time>2026-04-11T13:12:45.999Z</time></trkpt><trkpt lat="43.89088915376731" lon="12.288795114554446"><ele>295.0</ele><time>2026-04-11T13:12:46.999Z</time></trkpt><trkpt lat="43.89099320122476" lon="12.28882776917844"><ele>295.0</ele><time>2026-04-11T13:12:47.999Z</time></trkpt><trkpt lat="43.89110168755106" lon="12.288859774189417"><ele>294.6</ele><time>2026-04-11T13:12:48.999Z</time></trkpt><trkpt lat="43.89121592978516" lon="12.288895289478587"><ele>294.2</ele><time>2026-04-11T13:12:49.999Z</time></trkpt><trkpt lat="43.89132390935075" lon="12.288930516288078"><ele>293.8</ele><time>2026-04-11T13:12:50.999Z</time></trkpt><trkpt lat="43.89142467843853" lon="12.288971158455553"><ele>293.4</ele><time>2026-04-11T13:12:51.999Z</time></trkpt><trkpt lat="43.89151900766966" lon="12.289004186429493"><ele>293.0</ele><time>2026-04-11T13:12:52.999Z</time></trkpt><trkpt lat="43.89160792845771" lon="12.289039111983602"><ele>293.0</ele><time>2026-04-11T13:12:53.999Z</time></trkpt><trkpt lat="43.89169401146693" lon="12.289067856645843"><ele>293.0</ele><time>2026-04-11T13:12:54.999Z</time></trkpt><trkpt lat="43.891779802860825" lon="12.289098209111065"><ele>293.0</ele><time>2026-04-11T13:12:55.999Z</time></trkpt><trkpt lat="43.89186481024136" lon="12.289128315404533"><ele>293.0</ele><time>2026-04-11T13:12:56.999Z</time></trkpt><trkpt lat="43.89194918303763" lon="12.289157057957256"><ele>293.0</ele><time>2026-04-11T13:12:57.999Z</time></trkpt><trkpt lat="43.89203064948273" lon="12.289185155350003"><ele>293.0</ele><time>2026-04-11T13:12:58.999Z</time></trkpt><trkpt lat="43.89211621719971" lon="12.289215095354402"><ele>293.0</ele><time>2026-04-11T13:12:59.999Z</time></trkpt><trkpt lat="43.892198389276565" lon="12.289244473924946"><ele>293.0</ele><time>2026-04-11T13:13:00.999Z</time></trkpt><trkpt lat="43.89227684768236" lon="12.289270938528556"><ele>293.0</ele><time>2026-04-11T13:13:01.999Z</time></trkpt><trkpt lat="43.89235462951862" lon="12.289297327497868"><ele>293.0</ele><time>2026-04-11T13:13:02.999Z</time></trkpt><trkpt lat="43.89242972409004" lon="12.289322068237997"><ele>293.0</ele><time>2026-04-11T13:13:03.999Z</time></trkpt><trkpt lat="43.89249924147918" lon="12.289344583200862"><ele>293.0</ele><time>2026-04-11T13:13:04.999Z</time></trkpt><trkpt lat="43.89257062616971" lon="12.289372392629849"><ele>293.0</ele><time>2026-04-11T13:13:05.999Z</time></trkpt><trkpt lat="43.89264132513784" lon="12.289398378285933"><ele>293.0</ele><time>2026-04-11T13:13:06.999Z</time></trkpt><trkpt lat="43.89271342335342" lon="12.289426968863092"><ele>293.0</ele><time>2026-04-11T13:13:07.999Z</time></trkpt><trkpt lat="43.892785939963254" lon="12.289453277874538"><ele>293.0</ele><time>2026-04-11T13:13:08.999Z</time></trkpt><trkpt lat="43.89286672391983" lon="12.289477795323656"><ele>293.0</ele><time>2026-04-11T13:13:09.999Z</time></trkpt><trkpt lat="43.892951962487324" lon="12.289502309181236"><ele>293.0</ele><time>2026-04-11T13:13:10.999Z</time></trkpt><trkpt lat="43.89303459193454" lon="12.2895254539718"><ele>293.0</ele><time>2026-04-11T13:13:11.999Z</time></trkpt><trkpt lat="43.89311632588703" lon="12.289534550489003"><ele>293.0</ele><time>2026-04-11T13:13:12.999Z</time></trkpt><trkpt lat="43.893197345546085" lon="12.289532410790097"><ele>293.0</ele><time>2026-04-11T13:13:13.999Z</time></trkpt><trkpt lat="43.893279568302646" lon="12.289511982471867"><ele>293.0</ele><time>2026-04-11T13:13:14.999Z</time></trkpt><trkpt lat="43.893366230461766" lon="12.289499529666951"><ele>293.0</ele><time>2026-04-11T13:13:15.999Z</time></trkpt><trkpt lat="43.89345431296838" lon="12.289481363605947"><ele>293.0</ele><time>2026-04-11T13:13:16.999Z</time></trkpt><trkpt lat="43.89354082504033" lon="12.289459005040241"><ele>292.5</ele><time>2026-04-11T13:13:18Z</time></trkpt><trkpt lat="43.893628202341176" lon="12.28944020759337"><ele>292.0</ele><time>2026-04-11T13:13:19Z</time></trkpt><trkpt lat="43.89371306287604" lon="12.289421101127864"><ele>291.5</ele><time>2026-04-11T13:13:20Z</time></trkpt><trkpt lat="43.893796154677275" lon="12.28940001028098"><ele>291.0</ele><time>2026-04-11T13:13:21Z</time></trkpt><trkpt lat="43.89387145289415" lon="12.289379820035354"><ele>290.5</ele><time>2026-04-11T13:13:22Z</time></trkpt><trkpt lat="43.89394756576315" lon="12.289362853737336"><ele>290.0</ele><time>2026-04-11T13:13:23Z</time></trkpt><trkpt lat="43.89403303367896" lon="12.289345064706943"><ele>290.0</ele><time>2026-04-11T13:13:24Z</time></trkpt><trkpt lat="43.89411799798058" lon="12.289325845184642"><ele>290.0</ele><time>2026-04-11T13:13:25Z</time></trkpt><trkpt lat="43.89419700813448" lon="12.28930364534437"><ele>290.0</ele><time>2026-04-11T13:13:26Z</time></trkpt><trkpt lat="43.89428230387178" lon="12.289284454440665"><ele>290.0</ele><time>2026-04-11T13:13:27Z</time></trkpt><trkpt lat="43.894368004240086" lon="12.289264432197042"><ele>290.0</ele><time>2026-04-11T13:13:28Z</time></trkpt><trkpt lat="43.89445383029515" lon="12.289242315060912"><ele>290.0</ele><time>2026-04-11T13:13:29Z</time></trkpt><trkpt lat="43.894539365212204" lon="12.289216254543156"><ele>289.6666666666667</ele><time>2026-04-11T13:13:30Z</time></trkpt><trkpt lat="43.89462005782859" lon="12.289174818885803"><ele>289.33333333333337</ele><time>2026-04-11T13:13:31Z</time></trkpt><trkpt lat="43.894696157454774" lon="12.289120689721235"><ele>289.0</ele><time>2026-04-11T13:13:32Z</time></trkpt><trkpt lat="43.894772586147155" lon="12.28906066762052"><ele>288.6666666666667</ele><time>2026-04-11T13:13:33Z</time></trkpt><trkpt lat="43.89484636022644" lon="12.288996116292132"><ele>288.3333333333333</ele><time>2026-04-11T13:13:34Z</time></trkpt><trkpt lat="43.8949069421339" lon="12.288915678267697"><ele>288.0</ele><time>2026-04-11T13:13:35Z</time></trkpt><trkpt lat="43.89496356443506" lon="12.288829798124517"><ele>288.0</ele><time>2026-04-11T13:13:36Z</time></trkpt><trkpt lat="43.89501886397756" lon="12.288737143101486"><ele>288.0</ele><time>2026-04-11T13:13:37Z</time></trkpt><trkpt lat="43.89506431984641" lon="12.288634680771047"><ele>288.0</ele><time>2026-04-11T13:13:38Z</time></trkpt><trkpt lat="43.895100514504136" lon="12.288527639036797"><ele>288.0</ele><time>2026-04-11T13:13:39Z</time></trkpt><trkpt lat="43.89513596615404" lon="12.288419214183909"><ele>288.0</ele><time>2026-04-11T13:13:40Z</time></trkpt><trkpt lat="43.89516594154271" lon="12.288313240136636"><ele>288.0</ele><time>2026-04-11T13:13:41Z</time></trkpt><trkpt lat="43.89519966381668" lon="12.288209413915158"><ele>286.8</ele><time>2026-04-11T13:13:41.999Z</time></trkpt><trkpt lat="43.895248152866884" lon="12.288106751628398"><ele>285.6</ele><time>2026-04-11T13:13:42.999Z</time></trkpt><trkpt lat="43.89530502891352" lon="12.28800690550282"><ele>284.4</ele><time>2026-04-11T13:13:43.999Z</time></trkpt><trkpt lat="43.89536534378217" lon="12.287912076968073"><ele>283.2</ele><time>2026-04-11T13:13:44.999Z</time></trkpt><trkpt lat="43.8954306299181" lon="12.287825499272294"><ele>282.0</ele><time>2026-04-11T13:13:45.999Z</time></trkpt><trkpt lat="43.89549894514132" lon="12.287746548097761"><ele>282.0</ele><time>2026-04-11T13:13:46.999Z</time></trkpt><trkpt lat="43.89557564204743" lon="12.287678450245378"><ele>282.0</ele><time>2026-04-11T13:13:47.999Z</time></trkpt><trkpt lat="43.895655507469264" lon="12.287638366797209"><ele>282.0</ele><time>2026-04-11T13:13:48.999Z</time></trkpt><trkpt lat="43.895731552579" lon="12.287608607306835"><ele>282.0</ele><time>2026-04-11T13:13:49.999Z</time></trkpt><trkpt lat="43.89581226384294" lon="12.287591012094524"><ele>282.0</ele><time>2026-04-11T13:13:50.999Z</time></trkpt><trkpt lat="43.8958907302137" lon="12.287602067503977"><ele>282.0</ele><time>2026-04-11T13:13:51.999Z</time></trkpt><trkpt lat="43.895966631726786" lon="12.287641432641458"><ele>281.8</ele><time>2026-04-11T13:13:52.999Z</time></trkpt><trkpt lat="43.89603745668434" lon="12.287699688944766"><ele>281.6</ele><time>2026-04-11T13:13:53.999Z</time></trkpt><trkpt lat="43.896118705676706" lon="12.287776070748473"><ele>281.40000000000003</ele><time>2026-04-11T13:13:54.999Z</time></trkpt><trkpt lat="43.89622371585546" lon="12.287871567075516"><ele>281.2</ele><time>2026-04-11T13:13:55.999Z</time></trkpt><trkpt lat="43.89632429424235" lon="12.287957142533267"><ele>281.0</ele><time>2026-04-11T13:13:56.999Z</time></trkpt><trkpt lat="43.89641948436369" lon="12.288038134070158"><ele>280.40000000000003</ele><time>2026-04-11T13:13:57.999Z</time></trkpt><trkpt lat="43.89650489878779" lon="12.288112363954317"><ele>279.8</ele><time>2026-04-11T13:13:58.999Z</time></trkpt><trkpt lat="43.89659176025538" lon="12.28818860570871"><ele>279.20000000000005</ele><time>2026-04-11T13:13:59.999Z</time></trkpt><trkpt lat="43.89668007539899" lon="12.288267917072421"><ele>278.6</ele><time>2026-04-11T13:14:00.999Z</time></trkpt><trkpt lat="43.896764978168285" lon="12.288344164168624"><ele>278.0</ele><time>2026-04-11T13:14:01.999Z</time></trkpt><trkpt lat="43.89684887856546" lon="12.288419866773415"><ele>278.0</ele><time>2026-04-11T13:14:02.999Z</time></trkpt><trkpt lat="43.896935349843595" lon="12.288497899796784"><ele>278.0</ele><time>2026-04-11T13:14:03.999Z</time></trkpt><trkpt lat="43.897017888971156" lon="12.28857238287205"><ele>278.0</ele><time>2026-04-11T13:14:04.999Z</time></trkpt><trkpt lat="43.897099449630936" lon="12.288645982992835"><ele>278.0</ele><time>2026-04-11T13:14:05.999Z</time></trkpt><trkpt lat="43.89719599800676" lon="12.288680862124789"><ele>278.0</ele><time>2026-04-11T13:14:06.999Z</time></trkpt><trkpt lat="43.897272650958314" lon="12.288754409136653"><ele>278.0</ele><time>2026-04-11T13:14:07.999Z</time></trkpt><trkpt lat="43.897347764653496" lon="12.28882609338599"><ele>278.0</ele><time>2026-04-11T13:14:08.999Z</time></trkpt><trkpt lat="43.89742265426029" lon="12.28889693213335"><ele>278.0</ele><time>2026-04-11T13:14:09.999Z</time></trkpt><trkpt lat="43.89749599065115" lon="12.288964052442955"><ele>278.0</ele><time>2026-04-11T13:14:10.999Z</time></trkpt><trkpt lat="43.89755705335745" lon="12.28901722220366"><ele>278.0</ele><time>2026-04-11T13:14:11.999Z</time></trkpt><trkpt lat="43.89766589238973" lon="12.289069387745554"><ele>277.0</ele><time>2026-04-11T13:14:13.998Z</time></trkpt><trkpt lat="43.89773707842643" lon="12.289166938240589"><ele>276.0</ele><time>2026-04-11T13:14:15.998Z</time></trkpt><trkpt lat="43.89786754451625" lon="12.28897095072708"><ele>275.0</ele><time>2026-04-11T13:14:16.998Z</time></trkpt><trkpt lat="43.89795137025934" lon="12.288932043876796"><ele>274.0</ele><time>2026-04-11T13:14:17.998Z</time></trkpt><trkpt lat="43.898043541920984" lon="12.288913224447892"><ele>274.0</ele><time>2026-04-11T13:14:18.998Z</time></trkpt><trkpt lat="43.89814472050297" lon="12.288910112564555"><ele>274.0</ele><time>2026-04-11T13:14:19.998Z</time></trkpt><trkpt lat="43.89824354035611" lon="12.288904520592162"><ele>274.0</ele><time>2026-04-11T13:14:20.998Z</time></trkpt><trkpt lat="43.8983393586871" lon="12.28891126048068"><ele>274.0</ele><time>2026-04-11T13:14:21.998Z</time></trkpt><trkpt lat="43.89843450668089" lon="12.288920929685776"><ele>274.0</ele><time>2026-04-11T13:14:22.998Z</time></trkpt><trkpt lat="43.898537214848865" lon="12.288955281782881"><ele>271.8</ele><time>2026-04-11T13:14:23.998Z</time></trkpt><trkpt lat="43.898640161681946" lon="12.289001154995228"><ele>269.59999999999997</ele><time>2026-04-11T13:14:24.998Z</time></trkpt><trkpt lat="43.89873910885734" lon="12.289054258376808"><ele>267.4</ele><time>2026-04-11T13:14:25.998Z</time></trkpt><trkpt lat="43.898827271241274" lon="12.28914544511798"><ele>265.2</ele><time>2026-04-11T13:14:26.998Z</time></trkpt><trkpt lat="43.898915733365115" lon="12.289224438234632"><ele>263.0</ele><time>2026-04-11T13:14:27.998Z</time></trkpt><trkpt lat="43.89901282634951" lon="12.289288997592982"><ele>263.0</ele><time>2026-04-11T13:14:28.998Z</time></trkpt><trkpt lat="43.89909498434104" lon="12.289388205148658"><ele>263.0</ele><time>2026-04-11T13:14:29.998Z</time></trkpt><trkpt lat="43.89917294145053" lon="12.289500483354457"><ele>263.0</ele><time>2026-04-11T13:14:30.998Z</time></trkpt><trkpt lat="43.899245876789976" lon="12.28961637941463"><ele>263.0</ele><time>2026-04-11T13:14:31.998Z</time></trkpt><trkpt lat="43.89931848866542" lon="12.289741786202178"><ele>263.0</ele><time>2026-04-11T13:14:32.998Z</time></trkpt><trkpt lat="43.89937631646585" lon="12.28989059250588"><ele>263.25</ele><time>2026-04-11T13:14:33.998Z</time></trkpt><trkpt lat="43.89944763985066" lon="12.290017771509236"><ele>263.5</ele><time>2026-04-11T13:14:34.998Z</time></trkpt><trkpt lat="43.899519044276914" lon="12.29014509508249"><ele>263.75</ele><time>2026-04-11T13:14:35.998Z</time></trkpt><trkpt lat="43.89958897099964" lon="12.290270064350993"><ele>264.0</ele><time>2026-04-11T13:14:36.998Z</time></trkpt><trkpt lat="43.899658155011885" lon="12.290393943140433"><ele>264.0</ele><time>2026-04-11T13:14:37.998Z</time></trkpt><trkpt lat="43.8997263815107" lon="12.290515674039101"><ele>264.0</ele><time>2026-04-11T13:14:38.998Z</time></trkpt><trkpt lat="43.89979321793806" lon="12.290632896069681"><ele>264.0</ele><time>2026-04-11T13:14:39.998Z</time></trkpt><trkpt lat="43.89985909824133" lon="12.290746454452071"><ele>264.0</ele><time>2026-04-11T13:14:40.998Z</time></trkpt><trkpt lat="43.89993523417245" lon="12.290844914995168"><ele>264.0</ele><time>2026-04-11T13:14:41.998Z</time></trkpt><trkpt lat="43.8999930160641" lon="12.290958793271711"><ele>264.59999999999997</ele><time>2026-04-11T13:14:42.998Z</time></trkpt><trkpt lat="43.900049631967015" lon="12.291077087569954"><ele>265.2</ele><time>2026-04-11T13:14:43.998Z</time></trkpt><trkpt lat="43.900101473530064" lon="12.291210077713012"><ele>265.79999999999995</ele><time>2026-04-11T13:14:44.998Z</time></trkpt><trkpt lat="43.90014008907912" lon="12.291361010766103"><ele>266.4</ele><time>2026-04-11T13:14:45.998Z</time></trkpt><trkpt lat="43.90015985634513" lon="12.291516959670554"><ele>267.0</ele><time>2026-04-11T13:14:46.998Z</time></trkpt><trkpt lat="43.90017166671024" lon="12.291682815031264"><ele>265.6</ele><time>2026-04-11T13:14:47.998Z</time></trkpt><trkpt lat="43.90018262561228" lon="12.291838802186192"><ele>264.2</ele><time>2026-04-11T13:14:48.998Z</time></trkpt><trkpt lat="43.900191327239945" lon="12.291991453097753"><ele>262.8</ele><time>2026-04-11T13:14:49.998Z</time></trkpt><trkpt lat="43.90019957331048" lon="12.292143737120005"><ele>261.4</ele><time>2026-04-11T13:14:50.998Z</time></trkpt><trkpt lat="43.90021064336145" lon="12.292293036074843"><ele>260.0</ele><time>2026-04-11T13:14:51.998Z</time></trkpt><trkpt lat="43.90022046799455" lon="12.292440505308035"><ele>259.2</ele><time>2026-04-11T13:14:52.998Z</time></trkpt><trkpt lat="43.90022485730722" lon="12.292579433203269"><ele>258.4</ele><time>2026-04-11T13:14:53.998Z</time></trkpt><trkpt lat="43.9002248585992" lon="12.292716058634891"><ele>257.6</ele><time>2026-04-11T13:14:54.998Z</time></trkpt><trkpt lat="43.90022907941345" lon="12.292854245790245"><ele>256.8</ele><time>2026-04-11T13:14:55.998Z</time></trkpt><trkpt lat="43.90023781243818" lon="12.292986769382592"><ele>256.0</ele><time>2026-04-11T13:14:56.998Z</time></trkpt><trkpt lat="43.90025352709373" lon="12.29312040329784"><ele>255.20000000000002</ele><time>2026-04-11T13:14:57.998Z</time></trkpt><trkpt lat="43.900277022677535" lon="12.293248493239044"><ele>254.40000000000003</ele><time>2026-04-11T13:14:58.998Z</time></trkpt><trkpt lat="43.90031447741698" lon="12.293373757313955"><ele>253.6</ele><time>2026-04-11T13:14:59.998Z</time></trkpt><trkpt lat="43.90037080386635" lon="12.293489751855773"><ele>252.8</ele><time>2026-04-11T13:15:00.998Z</time></trkpt><trkpt lat="43.9004389965618" lon="12.293600224777222"><ele>252.0</ele><time>2026-04-11T13:15:01.998Z</time></trkpt><trkpt lat="43.90051377853487" lon="12.293701917725944"><ele>252.0</ele><time>2026-04-11T13:15:02.998Z</time></trkpt><trkpt lat="43.90059149418753" lon="12.293795053499327"><ele>252.0</ele><time>2026-04-11T13:15:03.998Z</time></trkpt><trkpt lat="43.90067578669455" lon="12.293893200761982"><ele>252.0</ele><time>2026-04-11T13:15:04.998Z</time></trkpt><trkpt lat="43.900765688501785" lon="12.293992506378858"><ele>252.0</ele><time>2026-04-11T13:15:05.998Z</time></trkpt><trkpt lat="43.900856326236514" lon="12.294086814809374"><ele>252.0</ele><time>2026-04-11T13:15:06.998Z</time></trkpt><trkpt lat="43.900946554570275" lon="12.294186273173779"><ele>250.75</ele><time>2026-04-11T13:15:07.998Z</time></trkpt><trkpt lat="43.90103611431617" lon="12.294282747877809"><ele>249.5</ele><time>2026-04-11T13:15:08.998Z</time></trkpt><trkpt lat="43.90112808193731" lon="12.294377444587033"><ele>248.25</ele><time>2026-04-11T13:15:09.998Z</time></trkpt><trkpt lat="43.90121574597665" lon="12.29447434736466"><ele>247.0</ele><time>2026-04-11T13:15:10.998Z</time></trkpt><trkpt lat="43.901307450463854" lon="12.294566942606245"><ele>247.0</ele><time>2026-04-11T13:15:11.998Z</time></trkpt><trkpt lat="43.90140104842093" lon="12.29465376080305"><ele>247.0</ele><time>2026-04-11T13:15:12.998Z</time></trkpt><trkpt lat="43.90150094385783" lon="12.294737690106187"><ele>247.0</ele><time>2026-04-11T13:15:13.998Z</time></trkpt><trkpt lat="43.90161190368501" lon="12.294814591239616"><ele>247.0</ele><time>2026-04-11T13:15:14.998Z</time></trkpt><trkpt lat="43.901726902367905" lon="12.294880438946628"><ele>245.25</ele><time>2026-04-11T13:15:15.998Z</time></trkpt><trkpt lat="43.90184475140704" lon="12.2949288052305"><ele>243.5</ele><time>2026-04-11T13:15:16.998Z</time></trkpt><trkpt lat="43.90196499788995" lon="12.294966925152453"><ele>241.75</ele><time>2026-04-11T13:15:17.998Z</time></trkpt><trkpt lat="43.90208305296095" lon="12.295002422851569"><ele>240.0</ele><time>2026-04-11T13:15:18.998Z</time></trkpt><trkpt lat="43.90219943228295" lon="12.295035235742578"><ele>240.0</ele><time>2026-04-11T13:15:19.998Z</time></trkpt><trkpt lat="43.90231596858886" lon="12.29505884102364"><ele>240.0</ele><time>2026-04-11T13:15:20.998Z</time></trkpt><trkpt lat="43.90242735367474" lon="12.29508421241989"><ele>240.0</ele><time>2026-04-11T13:15:21.998Z</time></trkpt><trkpt lat="43.90253625032721" lon="12.295105995832662"><ele>240.0</ele><time>2026-04-11T13:15:22.999Z</time></trkpt><trkpt lat="43.90264647069383" lon="12.295126115799102"><ele>239.5</ele><time>2026-04-11T13:15:23.999Z</time></trkpt><trkpt lat="43.90275790317046" lon="12.29513809080731"><ele>239.0</ele><time>2026-04-11T13:15:24.999Z</time></trkpt><trkpt lat="43.902868249439024" lon="12.295128917461206"><ele>238.5</ele><time>2026-04-11T13:15:25.999Z</time></trkpt><trkpt lat="43.90297802401048" lon="12.295099400189669"><ele>238.0</ele><time>2026-04-11T13:15:26.999Z</time></trkpt><trkpt lat="43.9030872238983" lon="12.295036711084851"><ele>238.0</ele><time>2026-04-11T13:15:27.999Z</time></trkpt><trkpt lat="43.90319224891664" lon="12.294949324247854"><ele>238.0</ele><time>2026-04-11T13:15:28.999Z</time></trkpt><trkpt lat="43.903287693229146" lon="12.294833521996617"><ele>238.0</ele><time>2026-04-11T13:15:29.999Z</time></trkpt><trkpt lat="43.903365546376186" lon="12.294696900434934"><ele>238.0</ele><time>2026-04-11T13:15:30.999Z</time></trkpt><trkpt lat="43.90343626337589" lon="12.29455340831828"><ele>237.75</ele><time>2026-04-11T13:15:31.999Z</time></trkpt><trkpt lat="43.90350988561013" lon="12.294403151882882"><ele>237.5</ele><time>2026-04-11T13:15:33Z</time></trkpt><trkpt lat="43.90358623206545" lon="12.294254426813355"><ele>237.25</ele><time>2026-04-11T13:15:34Z</time></trkpt><trkpt lat="43.90367238404827" lon="12.294112531810285"><ele>237.0</ele><time>2026-04-11T13:15:35Z</time></trkpt><trkpt lat="43.90376654617488" lon="12.29397722366353"><ele>240.0</ele><time>2026-04-11T13:15:36Z</time></trkpt><trkpt lat="43.90386294767155" lon="12.29385825420705"><ele>243.0</ele><time>2026-04-11T13:15:37Z</time></trkpt><trkpt lat="43.903956818145545" lon="12.293754524609982"><ele>246.0</ele><time>2026-04-11T13:15:38Z</time></trkpt><trkpt lat="43.90404851571123" lon="12.293654114744077"><ele>249.0</ele><time>2026-04-11T13:15:39Z</time></trkpt><trkpt lat="43.90414610096193" lon="12.29355515809292"><ele>246.75</ele><time>2026-04-11T13:15:40Z</time></trkpt><trkpt lat="43.90425251959712" lon="12.293463174327321"><ele>244.5</ele><time>2026-04-11T13:15:41Z</time></trkpt><trkpt lat="43.90437145492979" lon="12.293388032422055"><ele>242.25</ele><time>2026-04-11T13:15:42Z</time></trkpt><trkpt lat="43.90449441567178" lon="12.293340054114372"><ele>240.0</ele><time>2026-04-11T13:15:43Z</time></trkpt><trkpt lat="43.90462794574788" lon="12.293321199142824"><ele>240.0</ele><time>2026-04-11T13:15:44Z</time></trkpt><trkpt lat="43.904759119411075" lon="12.293328942447825"><ele>240.0</ele><time>2026-04-11T13:15:45Z</time></trkpt><trkpt lat="43.90489473964961" lon="12.293384740798407"><ele>240.0</ele><time>2026-04-11T13:15:46Z</time></trkpt><trkpt lat="43.90503373347932" lon="12.293429428285421"><ele>240.0</ele><time>2026-04-11T13:15:47Z</time></trkpt><trkpt lat="43.90516656308941" lon="12.293474692865056"><ele>240.5</ele><time>2026-04-11T13:15:48Z</time></trkpt><trkpt lat="43.90529126935247" lon="12.293517951182066"><ele>241.0</ele><time>2026-04-11T13:15:49Z</time></trkpt><trkpt lat="43.90541476543191" lon="12.293557932941294"><ele>241.5</ele><time>2026-04-11T13:15:50Z</time></trkpt><trkpt lat="43.90553996728045" lon="12.293592138229402"><ele>242.0</ele><time>2026-04-11T13:15:51Z</time></trkpt><trkpt lat="43.90566675997852" lon="12.293600018740607"><ele>242.0</ele><time>2026-04-11T13:15:52Z</time></trkpt><trkpt lat="43.90578615674602" lon="12.293622339110758"><ele>242.0</ele><time>2026-04-11T13:15:53Z</time></trkpt><trkpt lat="43.90590336800306" lon="12.293640775985873"><ele>242.0</ele><time>2026-04-11T13:15:54Z</time></trkpt><trkpt lat="43.90601622838592" lon="12.29365933624985"><ele>242.0</ele><time>2026-04-11T13:15:55Z</time></trkpt><trkpt lat="43.90613632587113" lon="12.29368180274938"><ele>241.75</ele><time>2026-04-11T13:15:56Z</time></trkpt><trkpt lat="43.90625951119734" lon="12.293707518372223"><ele>241.5</ele><time>2026-04-11T13:15:57Z</time></trkpt><trkpt lat="43.90637644298832" lon="12.293730538586825"><ele>241.25</ele><time>2026-04-11T13:15:58Z</time></trkpt><trkpt lat="43.906490106772516" lon="12.293758258053783"><ele>241.0</ele><time>2026-04-11T13:15:59Z</time></trkpt><trkpt lat="43.906606110035455" lon="12.29378663755867"><ele>241.0</ele><time>2026-04-11T13:16:00Z</time></trkpt><trkpt lat="43.906723055203045" lon="12.293814037286214"><ele>241.0</ele><time>2026-04-11T13:16:01Z</time></trkpt><trkpt lat="43.90684452218747" lon="12.293843697292331"><ele>241.0</ele><time>2026-04-11T13:16:02Z</time></trkpt><trkpt lat="43.9069670589527" lon="12.29387330734642"><ele>241.0</ele><time>2026-04-11T13:16:03Z</time></trkpt><trkpt lat="43.90708455440244" lon="12.293898924163582"><ele>239.5</ele><time>2026-04-11T13:16:04Z</time></trkpt><trkpt lat="43.90720408179512" lon="12.293926132915878"><ele>238.0</ele><time>2026-04-11T13:16:05Z</time></trkpt><trkpt lat="43.90732417938836" lon="12.293953062077042"><ele>236.5</ele><time>2026-04-11T13:16:06Z</time></trkpt><trkpt lat="43.90744540005216" lon="12.293982823635915"><ele>235.0</ele><time>2026-04-11T13:16:07Z</time></trkpt><trkpt lat="43.90756680830319" lon="12.294012981036683"><ele>236.0</ele><time>2026-04-11T13:16:08Z</time></trkpt><trkpt lat="43.907684863111356" lon="12.294036940943641"><ele>237.0</ele><time>2026-04-11T13:16:09Z</time></trkpt><trkpt lat="43.907804316371106" lon="12.29406584115309"><ele>238.0</ele><time>2026-04-11T13:16:10Z</time></trkpt><trkpt lat="43.907925077361874" lon="12.294099794136418"><ele>239.0</ele><time>2026-04-11T13:16:11Z</time></trkpt><trkpt lat="43.90804037867659" lon="12.294135610969889"><ele>239.0</ele><time>2026-04-11T13:16:12Z</time></trkpt><trkpt lat="43.90814926519229" lon="12.294188679826572"><ele>239.0</ele><time>2026-04-11T13:16:13Z</time></trkpt><trkpt lat="43.90825196570336" lon="12.29427216315262"><ele>239.0</ele><time>2026-04-11T13:16:14Z</time></trkpt><trkpt lat="43.908336426725164" lon="12.294389374793761"><ele>239.0</ele><time>2026-04-11T13:16:15Z</time></trkpt><trkpt lat="43.90840140308008" lon="12.294536178659527"><ele>240.25</ele><time>2026-04-11T13:16:16Z</time></trkpt><trkpt lat="43.90845310241579" lon="12.294693538275343"><ele>241.5</ele><time>2026-04-11T13:16:17Z</time></trkpt><trkpt lat="43.90850011241729" lon="12.294859584631922"><ele>242.75</ele><time>2026-04-11T13:16:18Z</time></trkpt><trkpt lat="43.90855214105222" lon="12.295028852831134"><ele>244.0</ele><time>2026-04-11T13:16:19Z</time></trkpt><trkpt lat="43.908606941048404" lon="12.29520083485853"><ele>244.0</ele><time>2026-04-11T13:16:20Z</time></trkpt><trkpt lat="43.908664246974865" lon="12.295368146969933"><ele>244.0</ele><time>2026-04-11T13:16:21Z</time></trkpt><trkpt lat="43.90872077394389" lon="12.295533290770923"><ele>244.0</ele><time>2026-04-11T13:16:22Z</time></trkpt><trkpt lat="43.90877389221281" lon="12.295698780465962"><ele>244.0</ele><time>2026-04-11T13:16:23Z</time></trkpt><trkpt lat="43.908826521602236" lon="12.295861412996636"><ele>243.5</ele><time>2026-04-11T13:16:24Z</time></trkpt><trkpt lat="43.90887959311906" lon="12.296018631242129"><ele>243.0</ele><time>2026-04-11T13:16:25Z</time></trkpt><trkpt lat="43.90892750841049" lon="12.296175109041648"><ele>242.5</ele><time>2026-04-11T13:16:26Z</time></trkpt><trkpt lat="43.90897255456258" lon="12.296331897210633"><ele>242.0</ele><time>2026-04-11T13:16:27Z</time></trkpt><trkpt lat="43.90901127582377" lon="12.296487913238394"><ele>241.75</ele><time>2026-04-11T13:16:28Z</time></trkpt><trkpt lat="43.90904300496327" lon="12.296644342860038"><ele>241.5</ele><time>2026-04-11T13:16:29Z</time></trkpt><trkpt lat="43.90907190490263" lon="12.296800845256016"><ele>241.25</ele><time>2026-04-11T13:16:30Z</time></trkpt><trkpt lat="43.90910742810264" lon="12.296949897423898"><ele>241.0</ele><time>2026-04-11T13:16:31Z</time></trkpt><trkpt lat="43.90916536951257" lon="12.297088292995635"><ele>241.0</ele><time>2026-04-11T13:16:32Z</time></trkpt><trkpt lat="43.90923557080913" lon="12.297221766376625"><ele>241.0</ele><time>2026-04-11T13:16:33Z</time></trkpt><trkpt lat="43.90930827760119" lon="12.297355036705802"><ele>241.0</ele><time>2026-04-11T13:16:34Z</time></trkpt><trkpt lat="43.9093835072941" lon="12.297490723361232"><ele>241.0</ele><time>2026-04-11T13:16:35Z</time></trkpt><trkpt lat="43.90945964698147" lon="12.29762447493567"><ele>242.25</ele><time>2026-04-11T13:16:36Z</time></trkpt><trkpt lat="43.909540737153364" lon="12.297758406508043"><ele>243.5</ele><time>2026-04-11T13:16:37Z</time></trkpt><trkpt lat="43.90962843029277" lon="12.297891094526676"><ele>244.75</ele><time>2026-04-11T13:16:38Z</time></trkpt><trkpt lat="43.90972731502497" lon="12.298016090003866"><ele>246.0</ele><time>2026-04-11T13:16:39Z</time></trkpt><trkpt lat="43.9098375748288" lon="12.298114258480418"><ele>246.5</ele><time>2026-04-11T13:16:40Z</time></trkpt><trkpt lat="43.909946827605" lon="12.298206759216178"><ele>247.0</ele><time>2026-04-11T13:16:41Z</time></trkpt><trkpt lat="43.91005844367818" lon="12.298295737736487"><ele>247.5</ele><time>2026-04-11T13:16:42Z</time></trkpt><trkpt lat="43.91016757956328" lon="12.29837918729313"><ele>248.0</ele><time>2026-04-11T13:16:43Z</time></trkpt><trkpt lat="43.910271749213365" lon="12.298466670739696"><ele>248.0</ele><time>2026-04-11T13:16:44Z</time></trkpt><trkpt lat="43.91037222541476" lon="12.298575977486504"><ele>248.0</ele><time>2026-04-11T13:16:45Z</time></trkpt><trkpt lat="43.910462444569" lon="12.298704792482487"><ele>248.0</ele><time>2026-04-11T13:16:46Z</time></trkpt><trkpt lat="43.91052009073957" lon="12.298869098526692"><ele>248.0</ele><time>2026-04-11T13:16:47Z</time></trkpt><trkpt lat="43.91055410341665" lon="12.299057275127463"><ele>247.5</ele><time>2026-04-11T13:16:48Z</time></trkpt><trkpt lat="43.91056068486864" lon="12.299253065059423"><ele>247.0</ele><time>2026-04-11T13:16:49Z</time></trkpt><trkpt lat="43.91056368518644" lon="12.299442113219582"><ele>246.5</ele><time>2026-04-11T13:16:50Z</time></trkpt><trkpt lat="43.91056013055798" lon="12.299627349968047"><ele>246.0</ele><time>2026-04-11T13:16:51Z</time></trkpt><trkpt lat="43.91055447012179" lon="12.299811013203346"><ele>246.0</ele><time>2026-04-11T13:16:52Z</time></trkpt><trkpt lat="43.910543994896415" lon="12.299995914399807"><ele>246.0</ele><time>2026-04-11T13:16:53Z</time></trkpt><trkpt lat="43.91052508422454" lon="12.300183300018144"><ele>246.0</ele><time>2026-04-11T13:16:54Z</time></trkpt><trkpt lat="43.91050005245992" lon="12.300367884559591"><ele>246.0</ele><time>2026-04-11T13:16:55Z</time></trkpt><trkpt lat="43.91048049969048" lon="12.300550487315101"><ele>246.75</ele><time>2026-04-11T13:16:56Z</time></trkpt><trkpt lat="43.91045978452249" lon="12.300729830503029"><ele>247.5</ele><time>2026-04-11T13:16:57Z</time></trkpt><trkpt lat="43.91043693398161" lon="12.300905768077623"><ele>248.25</ele><time>2026-04-11T13:16:57.999Z</time></trkpt><trkpt lat="43.91040983926212" lon="12.301074200476473"><ele>249.0</ele><time>2026-04-11T13:16:58.999Z</time></trkpt><trkpt lat="43.91037460198846" lon="12.301241636270788"><ele>249.0</ele><time>2026-04-11T13:16:59.999Z</time></trkpt><trkpt lat="43.91033531208419" lon="12.30140615990497"><ele>249.0</ele><time>2026-04-11T13:17:00.999Z</time></trkpt><trkpt lat="43.91029866545645" lon="12.301560224413704"><ele>249.0</ele><time>2026-04-11T13:17:01.999Z</time></trkpt><trkpt lat="43.910271660728895" lon="12.30171185987159"><ele>249.0</ele><time>2026-04-11T13:17:02.999Z</time></trkpt><trkpt lat="43.91025889962331" lon="12.301862461245792"><ele>249.2</ele><time>2026-04-11T13:17:03.999Z</time></trkpt><trkpt lat="43.91024984714083" lon="12.302008627717926"><ele>249.39999999999998</ele><time>2026-04-11T13:17:04.999Z</time></trkpt><trkpt lat="43.910236747676194" lon="12.302160049692297"><ele>249.6</ele><time>2026-04-11T13:17:05.999Z</time></trkpt><trkpt lat="43.91020364676953" lon="12.302308570555839"><ele>249.8</ele><time>2026-04-11T13:17:06.999Z</time></trkpt><trkpt lat="43.91014860222677" lon="12.302441862803665"><ele>250.0</ele><time>2026-04-11T13:17:07.999Z</time></trkpt><trkpt lat="43.91008779065786" lon="12.302552486869335"><ele>248.2</ele><time>2026-04-11T13:17:08.999Z</time></trkpt><trkpt lat="43.910039206495746" lon="12.30267402967216"><ele>246.4</ele><time>2026-04-11T13:17:09.999Z</time></trkpt><trkpt lat="43.90999485399637" lon="12.30280040163099"><ele>244.60000000000002</ele><time>2026-04-11T13:17:10.999Z</time></trkpt><trkpt lat="43.90999998184617" lon="12.302948612049489"><ele>242.8</ele><time>2026-04-11T13:17:11.999Z</time></trkpt><trkpt lat="43.9100503762664" lon="12.303095643407"><ele>241.0</ele><time>2026-04-11T13:17:12.999Z</time></trkpt><trkpt lat="43.91013745043248" lon="12.303212667006092"><ele>241.0</ele><time>2026-04-11T13:17:13.999Z</time></trkpt><trkpt lat="43.91023306826828" lon="12.303309477787428"><ele>241.0</ele><time>2026-04-11T13:17:14.999Z</time></trkpt><trkpt lat="43.910319238725904" lon="12.303428033654814"><ele>241.0</ele><time>2026-04-11T13:17:15.999Z</time></trkpt><trkpt lat="43.91040878720089" lon="12.303548867953046"><ele>241.0</ele><time>2026-04-11T13:17:16.999Z</time></trkpt><trkpt lat="43.91050418519423" lon="12.30366793104662"><ele>241.0</ele><time>2026-04-11T13:17:17.999Z</time></trkpt><trkpt lat="43.910593279513364" lon="12.303776044295256"><ele>241.0</ele><time>2026-04-11T13:17:18.999Z</time></trkpt><trkpt lat="43.91068519963054" lon="12.303879915447988"><ele>241.0</ele><time>2026-04-11T13:17:19.999Z</time></trkpt><trkpt lat="43.91079056694954" lon="12.303966094500066"><ele>241.0</ele><time>2026-04-11T13:17:20.999Z</time></trkpt><trkpt lat="43.9109057289951" lon="12.304039137288322"><ele>238.5</ele><time>2026-04-11T13:17:21.999Z</time></trkpt><trkpt lat="43.91103186013945" lon="12.304098042112939"><ele>236.0</ele><time>2026-04-11T13:17:22.999Z</time></trkpt><trkpt lat="43.91116572297066" lon="12.30414047354067"><ele>233.5</ele><time>2026-04-11T13:17:23.999Z</time></trkpt><trkpt lat="43.9113099331729" lon="12.304163670781776"><ele>231.0</ele><time>2026-04-11T13:17:24.999Z</time></trkpt><trkpt lat="43.91146043098841" lon="12.304185274182421"><ele>231.0</ele><time>2026-04-11T13:17:25.999Z</time></trkpt><trkpt lat="43.91161390833677" lon="12.304206141112939"><ele>231.0</ele><time>2026-04-11T13:17:26.999Z</time></trkpt><trkpt lat="43.91176464662541" lon="12.304216346752613"><ele>231.0</ele><time>2026-04-11T13:17:28Z</time></trkpt><trkpt lat="43.91191037597971" lon="12.304243023584068"><ele>231.0</ele><time>2026-04-11T13:17:29Z</time></trkpt><trkpt lat="43.912054461197954" lon="12.304252959971599"><ele>231.0</ele><time>2026-04-11T13:17:30Z</time></trkpt><trkpt lat="43.91219788027516" lon="12.304276490259847"><ele>231.0</ele><time>2026-04-11T13:17:31Z</time></trkpt><trkpt lat="43.912333178260425" lon="12.30430212712231"><ele>231.0</ele><time>2026-04-11T13:17:32Z</time></trkpt><trkpt lat="43.9124673764955" lon="12.304329013454764"><ele>230.25</ele><time>2026-04-11T13:17:33Z</time></trkpt><trkpt lat="43.91260010243457" lon="12.304378009290946"><ele>229.5</ele><time>2026-04-11T13:17:34Z</time></trkpt><trkpt lat="43.9127331528906" lon="12.304441749955142"><ele>228.75</ele><time>2026-04-11T13:17:35Z</time></trkpt><trkpt lat="43.91285754541619" lon="12.304501648099619"><ele>228.0</ele><time>2026-04-11T13:17:36Z</time></trkpt><trkpt lat="43.912976864687465" lon="12.3045607218209"><ele>228.0</ele><time>2026-04-11T13:17:37Z</time></trkpt><trkpt lat="43.91309360342517" lon="12.304619684937316"><ele>228.0</ele><time>2026-04-11T13:17:38Z</time></trkpt><trkpt lat="43.913211331264584" lon="12.304677301867814"><ele>228.0</ele><time>2026-04-11T13:17:39Z</time></trkpt><trkpt lat="43.91332844848561" lon="12.304736626944845"><ele>228.0</ele><time>2026-04-11T13:17:40Z</time></trkpt><trkpt lat="43.91344524919042" lon="12.304798394896668"><ele>228.75</ele><time>2026-04-11T13:17:41Z</time></trkpt><trkpt lat="43.913561515215896" lon="12.304862077370746"><ele>229.5</ele><time>2026-04-11T13:17:42Z</time></trkpt><trkpt lat="43.91368367957996" lon="12.304923423845102"><ele>230.25</ele><time>2026-04-11T13:17:43Z</time></trkpt><trkpt lat="43.91380612994876" lon="12.3049836872607"><ele>231.0</ele><time>2026-04-11T13:17:44Z</time></trkpt><trkpt lat="43.913931526700694" lon="12.30504633774378"><ele>231.0</ele><time>2026-04-11T13:17:45Z</time></trkpt><trkpt lat="43.91405359059943" lon="12.305109377878539"><ele>231.0</ele><time>2026-04-11T13:17:46Z</time></trkpt><trkpt lat="43.91417515655283" lon="12.305168984968345"><ele>231.0</ele><time>2026-04-11T13:17:47Z</time></trkpt><trkpt lat="43.91429670369882" lon="12.305236672406808"><ele>231.0</ele><time>2026-04-11T13:17:48Z</time></trkpt><trkpt lat="43.914418329891284" lon="12.305300935565121"><ele>231.25</ele><time>2026-04-11T13:17:49Z</time></trkpt><trkpt lat="43.91453896177996" lon="12.305368919839434"><ele>231.5</ele><time>2026-04-11T13:17:50Z</time></trkpt><trkpt lat="43.914665143880896" lon="12.305430847499453"><ele>231.75</ele><time>2026-04-11T13:17:51Z</time></trkpt><trkpt lat="43.91478424729873" lon="12.305491481379661"><ele>232.0</ele><time>2026-04-11T13:17:52Z</time></trkpt><trkpt lat="43.914903255837785" lon="12.305553573857205"><ele>232.0</ele><time>2026-04-11T13:17:53Z</time></trkpt><trkpt lat="43.915016181578416" lon="12.305614775114503"><ele>232.0</ele><time>2026-04-11T13:17:54Z</time></trkpt><trkpt lat="43.91512821263704" lon="12.305676302239064"><ele>232.0</ele><time>2026-04-11T13:17:55Z</time></trkpt><trkpt lat="43.91524468070024" lon="12.305730417252128"><ele>232.0</ele><time>2026-04-11T13:17:56Z</time></trkpt><trkpt lat="43.91535811067198" lon="12.305793845616783"><ele>232.0</ele><time>2026-04-11T13:17:57Z</time></trkpt><trkpt lat="43.91548232379839" lon="12.305846730529181"><ele>232.0</ele><time>2026-04-11T13:17:58Z</time></trkpt><trkpt lat="43.915607517476566" lon="12.305907066038074"><ele>232.0</ele><time>2026-04-11T13:17:59Z</time></trkpt><trkpt lat="43.91574101867616" lon="12.305962514305785"><ele>232.0</ele><time>2026-04-11T13:18:00Z</time></trkpt><trkpt lat="43.91587597673842" lon="12.306012680014414"><ele>232.5</ele><time>2026-04-11T13:18:01Z</time></trkpt><trkpt lat="43.916013411755486" lon="12.30606067251187"><ele>233.0</ele><time>2026-04-11T13:18:02Z</time></trkpt><trkpt lat="43.91615069295645" lon="12.30610263447112"><ele>233.5</ele><time>2026-04-11T13:18:03Z</time></trkpt><trkpt lat="43.91627508844588" lon="12.306144358238013"><ele>234.0</ele><time>2026-04-11T13:18:04Z</time></trkpt><trkpt lat="43.916392071838864" lon="12.306191549055907"><ele>234.0</ele><time>2026-04-11T13:18:05Z</time></trkpt><trkpt lat="43.91650083978205" lon="12.30625159827027"><ele>234.0</ele><time>2026-04-11T13:18:06Z</time></trkpt><trkpt lat="43.916609407139354" lon="12.306331626489913"><ele>234.0</ele><time>2026-04-11T13:18:07Z</time></trkpt><trkpt lat="43.916714574862986" lon="12.306432855585076"><ele>234.0</ele><time>2026-04-11T13:18:08Z</time></trkpt><trkpt lat="43.9168144901353" lon="12.30655262055263"><ele>233.0</ele><time>2026-04-11T13:18:09Z</time></trkpt><trkpt lat="43.916912145520584" lon="12.306686369758514"><ele>232.0</ele><time>2026-04-11T13:18:10Z</time></trkpt><trkpt lat="43.917010705564074" lon="12.306819420215781"><ele>231.0</ele><time>2026-04-11T13:18:11Z</time></trkpt><trkpt lat="43.917103226430235" lon="12.306947178507984"><ele>230.0</ele><time>2026-04-11T13:18:12Z</time></trkpt><trkpt lat="43.91719052374284" lon="12.307074488426945"><ele>230.0</ele><time>2026-04-11T13:18:13Z</time></trkpt><trkpt lat="43.917280385796126" lon="12.307199939029706"><ele>230.0</ele><time>2026-04-11T13:18:14Z</time></trkpt><trkpt lat="43.91737173973776" lon="12.307332431096945"><ele>230.0</ele><time>2026-04-11T13:18:15Z</time></trkpt><trkpt lat="43.917461970570216" lon="12.307462909184094"><ele>230.0</ele><time>2026-04-11T13:18:16Z</time></trkpt><trkpt lat="43.917549008967384" lon="12.307585780574854"><ele>229.75</ele><time>2026-04-11T13:18:17Z</time></trkpt><trkpt lat="43.91763262697376" lon="12.3077091684971"><ele>229.5</ele><time>2026-04-11T13:18:18Z</time></trkpt><trkpt lat="43.917719671896194" lon="12.307829869053348"><ele>229.25</ele><time>2026-04-11T13:18:19Z</time></trkpt><trkpt lat="43.91780921460123" lon="12.307956065898189"><ele>229.0</ele><time>2026-04-11T13:18:20Z</time></trkpt><trkpt lat="43.917901885124294" lon="12.308086972431736"><ele>228.25</ele><time>2026-04-11T13:18:21Z</time></trkpt><trkpt lat="43.917996318595385" lon="12.308221199667535"><ele>227.5</ele><time>2026-04-11T13:18:22Z</time></trkpt><trkpt lat="43.91809062107277" lon="12.308356879171846"><ele>226.75</ele><time>2026-04-11T13:18:23Z</time></trkpt><trkpt lat="43.91817970428685" lon="12.308482815992585"><ele>226.0</ele><time>2026-04-11T13:18:24Z</time></trkpt><trkpt lat="43.918268115782354" lon="12.308613663943959"><ele>226.0</ele><time>2026-04-11T13:18:25Z</time></trkpt><trkpt lat="43.918358062123374" lon="12.308743056700385"><ele>226.0</ele><time>2026-04-11T13:18:26Z</time></trkpt><trkpt lat="43.91844534914833" lon="12.308866383032296"><ele>226.0</ele><time>2026-04-11T13:18:27Z</time></trkpt><trkpt lat="43.91853285609629" lon="12.308990329619292"><ele>226.0</ele><time>2026-04-11T13:18:28Z</time></trkpt><trkpt lat="43.918622801857246" lon="12.309111259393449"><ele>225.5</ele><time>2026-04-11T13:18:29Z</time></trkpt><trkpt lat="43.91871121297974" lon="12.309232762171725"><ele>225.0</ele><time>2026-04-11T13:18:30Z</time></trkpt><trkpt lat="43.9188000354781" lon="12.309356524652548"><ele>224.5</ele><time>2026-04-11T13:18:31Z</time></trkpt><trkpt lat="43.918887353599935" lon="12.309479953082834"><ele>224.0</ele><time>2026-04-11T13:18:32Z</time></trkpt><trkpt lat="43.91897257087224" lon="12.309607056373498"><ele>224.0</ele><time>2026-04-11T13:18:33Z</time></trkpt><trkpt lat="43.91906110828102" lon="12.309730590215437"><ele>224.0</ele><time>2026-04-11T13:18:34Z</time></trkpt><trkpt lat="43.919147241551286" lon="12.309856103070139"><ele>224.0</ele><time>2026-04-11T13:18:35Z</time></trkpt><trkpt lat="43.919236251153166" lon="12.309982407333361"><ele>224.0</ele><time>2026-04-11T13:18:36Z</time></trkpt><trkpt lat="43.91932383612238" lon="12.310100574594397"><ele>224.0</ele><time>2026-04-11T13:18:37Z</time></trkpt><trkpt lat="43.919412638342834" lon="12.31022520607957"><ele>224.0</ele><time>2026-04-11T13:18:38Z</time></trkpt><trkpt lat="43.919502284978805" lon="12.310356601964438"><ele>224.0</ele><time>2026-04-11T13:18:39Z</time></trkpt><trkpt lat="43.91957623737999" lon="12.310513680450008"><ele>224.0</ele><time>2026-04-11T13:18:40Z</time></trkpt><trkpt lat="43.91965320886277" lon="12.310660358585288"><ele>222.5</ele><time>2026-04-11T13:18:41Z</time></trkpt><trkpt lat="43.91972571681522" lon="12.310812652764413"><ele>221.0</ele><time>2026-04-11T13:18:42Z</time></trkpt><trkpt lat="43.91979488837824" lon="12.310967500983748"><ele>219.5</ele><time>2026-04-11T13:18:43Z</time></trkpt><trkpt lat="43.919867070000436" lon="12.311132868039836"><ele>218.0</ele><time>2026-04-11T13:18:44Z</time></trkpt><trkpt lat="43.91994381798742" lon="12.311291250177062"><ele>217.75</ele><time>2026-04-11T13:18:45Z</time></trkpt><trkpt lat="43.92000894402975" lon="12.311446806121983"><ele>217.5</ele><time>2026-04-11T13:18:46Z</time></trkpt><trkpt lat="43.92008487244883" lon="12.311584664568791"><ele>217.25</ele><time>2026-04-11T13:18:47Z</time></trkpt><trkpt lat="43.92017860327308" lon="12.311706941755439"><ele>217.0</ele><time>2026-04-11T13:18:48Z</time></trkpt><trkpt lat="43.920279577817254" lon="12.31181098230072"><ele>217.0</ele><time>2026-04-11T13:18:49Z</time></trkpt><trkpt lat="43.920379060773094" lon="12.311915621715281"><ele>217.0</ele><time>2026-04-11T13:18:50Z</time></trkpt><trkpt lat="43.92048380379153" lon="12.312017168996942"><ele>217.0</ele><time>2026-04-11T13:18:51Z</time></trkpt><trkpt lat="43.92059183792857" lon="12.312113184706282"><ele>217.0</ele><time>2026-04-11T13:18:52Z</time></trkpt><trkpt lat="43.92069083957495" lon="12.31220807142457"><ele>214.75</ele><time>2026-04-11T13:18:53Z</time></trkpt><trkpt lat="43.92078416333406" lon="12.312302066245515"><ele>212.5</ele><time>2026-04-11T13:18:54Z</time></trkpt><trkpt lat="43.92088098443655" lon="12.312392236716672"><ele>210.25</ele><time>2026-04-11T13:18:55Z</time></trkpt><trkpt lat="43.92097540770502" lon="12.312486198409186"><ele>208.0</ele><time>2026-04-11T13:18:56Z</time></trkpt><trkpt lat="43.92107255057761" lon="12.312579920545254"><ele>208.0</ele><time>2026-04-11T13:18:57Z</time></trkpt><trkpt lat="43.9211720252482" lon="12.312672200716781"><ele>208.0</ele><time>2026-04-11T13:18:58Z</time></trkpt><trkpt lat="43.9212760148405" lon="12.312767363382616"><ele>208.0</ele><time>2026-04-11T13:18:59Z</time></trkpt><trkpt lat="43.92137452919047" lon="12.312861116490819"><ele>208.0</ele><time>2026-04-11T13:18:59.999Z</time></trkpt><trkpt lat="43.92147025041572" lon="12.312954121395801"><ele>208.0</ele><time>2026-04-11T13:19:00.999Z</time></trkpt><trkpt lat="43.92156381945355" lon="12.313044195703549"><ele>208.0</ele><time>2026-04-11T13:19:01.999Z</time></trkpt><trkpt lat="43.921658642716345" lon="12.31313999078147"><ele>208.0</ele><time>2026-04-11T13:19:02.999Z</time></trkpt><trkpt lat="43.9217535485184" lon="12.313249645871355"><ele>208.0</ele><time>2026-04-11T13:19:03.999Z</time></trkpt><trkpt lat="43.92184548823535" lon="12.313372230045665"><ele>209.25</ele><time>2026-04-11T13:19:04.999Z</time></trkpt><trkpt lat="43.92193815586995" lon="12.313501314431011"><ele>210.5</ele><time>2026-04-11T13:19:05.999Z</time></trkpt><trkpt lat="43.92201972208574" lon="12.313634324291275"><ele>211.75</ele><time>2026-04-11T13:19:06.999Z</time></trkpt><trkpt lat="43.92210230525692" lon="12.313767841320201"><ele>213.0</ele><time>2026-04-11T13:19:07.999Z</time></trkpt><trkpt lat="43.92218105732334" lon="12.313901006702453"><ele>212.75</ele><time>2026-04-11T13:19:08.999Z</time></trkpt><trkpt lat="43.92225659431165" lon="12.314029242812847"><ele>212.5</ele><time>2026-04-11T13:19:09.999Z</time></trkpt><trkpt lat="43.92233566535026" lon="12.314158913707356"><ele>212.25</ele><time>2026-04-11T13:19:10.999Z</time></trkpt><trkpt lat="43.922414376326444" lon="12.314286007638628"><ele>212.0</ele><time>2026-04-11T13:19:11.999Z</time></trkpt><trkpt lat="43.92249087278745" lon="12.31441039167091"><ele>212.0</ele><time>2026-04-11T13:19:12.999Z</time></trkpt><trkpt lat="43.92256232945108" lon="12.314525202128841"><ele>212.0</ele><time>2026-04-11T13:19:13.999Z</time></trkpt><trkpt lat="43.9226321161786" lon="12.314635993203225"><ele>212.0</ele><time>2026-04-11T13:19:14.999Z</time></trkpt><trkpt lat="43.92270011930791" lon="12.314749662303491"><ele>212.0</ele><time>2026-04-11T13:19:15.999Z</time></trkpt><trkpt lat="43.922766711899726" lon="12.314866180346586"><ele>212.0</ele><time>2026-04-11T13:19:16.999Z</time></trkpt><trkpt lat="43.92282937742981" lon="12.3149837684148"><ele>213.0</ele><time>2026-04-11T13:19:17.999Z</time></trkpt><trkpt lat="43.92289114433114" lon="12.315110307813082"><ele>214.0</ele><time>2026-04-11T13:19:18.999Z</time></trkpt><trkpt lat="43.92294547131002" lon="12.315243396612164"><ele>215.0</ele><time>2026-04-11T13:19:19.999Z</time></trkpt><trkpt lat="43.92299244938976" lon="12.315382672085502"><ele>216.0</ele><time>2026-04-11T13:19:20.999Z</time></trkpt><trkpt lat="43.92303405484985" lon="12.315525368557731"><ele>217.0</ele><time>2026-04-11T13:19:21.999Z</time></trkpt><trkpt lat="43.923072732297655" lon="12.315669326282501"><ele>217.0</ele><time>2026-04-11T13:19:22.999Z</time></trkpt><trkpt lat="43.92310836668938" lon="12.315810062378446"><ele>217.0</ele><time>2026-04-11T13:19:23.999Z</time></trkpt><trkpt lat="43.92314952520897" lon="12.315943175638449"><ele>217.0</ele><time>2026-04-11T13:19:24.999Z</time></trkpt><trkpt lat="43.92319663719396" lon="12.31607618504989"><ele>217.0</ele><time>2026-04-11T13:19:25.999Z</time></trkpt><trkpt lat="43.9232526369562" lon="12.316203129971669"><ele>217.0</ele><time>2026-04-11T13:19:26.999Z</time></trkpt><trkpt lat="43.923322229838696" lon="12.31632121165958"><ele>216.0</ele><time>2026-04-11T13:19:27.999Z</time></trkpt><trkpt lat="43.92340316631382" lon="12.316433493115815"><ele>215.0</ele><time>2026-04-11T13:19:28.999Z</time></trkpt><trkpt lat="43.92348851609149" lon="12.316549194873632"><ele>214.0</ele><time>2026-04-11T13:19:29.999Z</time></trkpt><trkpt lat="43.9235714787456" lon="12.316663186149354"><ele>213.0</ele><time>2026-04-11T13:19:30.999Z</time></trkpt><trkpt lat="43.923657684765665" lon="12.316777168047023"><ele>213.0</ele><time>2026-04-11T13:19:31.999Z</time></trkpt><trkpt lat="43.9237462293003" lon="12.316894650236701"><ele>213.0</ele><time>2026-04-11T13:19:32.999Z</time></trkpt><trkpt lat="43.92383457567316" lon="12.317006551399535"><ele>213.0</ele><time>2026-04-11T13:19:34Z</time></trkpt><trkpt lat="43.92391902199126" lon="12.317119607266907"><ele>213.0</ele><time>2026-04-11T13:19:35Z</time></trkpt><trkpt lat="43.924003573599826" lon="12.317236761005955"><ele>213.0</ele><time>2026-04-11T13:19:36Z</time></trkpt><trkpt lat="43.924081299640136" lon="12.317354350132907"><ele>213.0</ele><time>2026-04-11T13:19:37Z</time></trkpt><trkpt lat="43.92416481160317" lon="12.317466594181617"><ele>213.0</ele><time>2026-04-11T13:19:38Z</time></trkpt><trkpt lat="43.92425861432316" lon="12.317569603336988"><ele>213.0</ele><time>2026-04-11T13:19:39Z</time></trkpt><trkpt lat="43.92434962608875" lon="12.317676686698507"><ele>213.5</ele><time>2026-04-11T13:19:40Z</time></trkpt><trkpt lat="43.92445199758116" lon="12.317772055659898"><ele>214.0</ele><time>2026-04-11T13:19:41Z</time></trkpt><trkpt lat="43.924561500775084" lon="12.317857398951212"><ele>214.5</ele><time>2026-04-11T13:19:42Z</time></trkpt><trkpt lat="43.924681161368724" lon="12.317928777719953"><ele>215.0</ele><time>2026-04-11T13:19:43Z</time></trkpt><trkpt lat="43.92480423889574" lon="12.317986683041562"><ele>215.0</ele><time>2026-04-11T13:19:44Z</time></trkpt><trkpt lat="43.92492301759549" lon="12.318041857438127"><ele>215.0</ele><time>2026-04-11T13:19:45Z</time></trkpt><trkpt lat="43.92504088831184" lon="12.318096879373469"><ele>215.0</ele><time>2026-04-11T13:19:46Z</time></trkpt><trkpt lat="43.925161887922016" lon="12.318159741740088"><ele>215.0</ele><time>2026-04-11T13:19:47Z</time></trkpt><trkpt lat="43.9252869052492" lon="12.318223949543635"><ele>214.25</ele><time>2026-04-11T13:19:48Z</time></trkpt><trkpt lat="43.92540561156928" lon="12.31831433415801"><ele>213.5</ele><time>2026-04-11T13:19:49Z</time></trkpt><trkpt lat="43.925512337678995" lon="12.31843184525827"><ele>212.75</ele><time>2026-04-11T13:19:50Z</time></trkpt><trkpt lat="43.92559038285897" lon="12.318583027638736"><ele>212.0</ele><time>2026-04-11T13:19:51Z</time></trkpt><trkpt lat="43.92568603808116" lon="12.318713478732363"><ele>212.0</ele><time>2026-04-11T13:19:52Z</time></trkpt><trkpt lat="43.92576595445842" lon="12.318857843440533"><ele>212.0</ele><time>2026-04-11T13:19:53Z</time></trkpt><trkpt lat="43.9258450453049" lon="12.3189967627385"><ele>212.0</ele><time>2026-04-11T13:19:54Z</time></trkpt><trkpt lat="43.9259230032111" lon="12.319131699627835"><ele>212.0</ele><time>2026-04-11T13:19:55Z</time></trkpt><trkpt lat="43.926001615627456" lon="12.319266262408934"><ele>211.75</ele><time>2026-04-11T13:19:56Z</time></trkpt><trkpt lat="43.926076433410124" lon="12.319396553496608"><ele>211.5</ele><time>2026-04-11T13:19:57Z</time></trkpt><trkpt lat="43.92614910022047" lon="12.31952510953515"><ele>211.25</ele><time>2026-04-11T13:19:58Z</time></trkpt><trkpt lat="43.92622368738413" lon="12.319655608199238"><ele>211.0</ele><time>2026-04-11T13:19:59Z</time></trkpt><trkpt lat="43.926301640211946" lon="12.319789919855193"><ele>211.0</ele><time>2026-04-11T13:20:00Z</time></trkpt><trkpt lat="43.92638125667429" lon="12.319924923953595"><ele>211.0</ele><time>2026-04-11T13:20:01Z</time></trkpt><trkpt lat="43.92645462296783" lon="12.320051756943519"><ele>211.0</ele><time>2026-04-11T13:20:02Z</time></trkpt><trkpt lat="43.926525662961744" lon="12.320184971332564"><ele>211.0</ele><time>2026-04-11T13:20:03Z</time></trkpt><trkpt lat="43.92659959957018" lon="12.320313421284222"><ele>211.0</ele><time>2026-04-11T13:20:04Z</time></trkpt><trkpt lat="43.9266720695096" lon="12.320440086093082"><ele>211.0</ele><time>2026-04-11T13:20:05Z</time></trkpt><trkpt lat="43.92674746413263" lon="12.320567803645144"><ele>211.0</ele><time>2026-04-11T13:20:06Z</time></trkpt><trkpt lat="43.92682205257895" lon="12.320696737450211"><ele>211.0</ele><time>2026-04-11T13:20:07Z</time></trkpt><trkpt lat="43.926900214088825" lon="12.320829287036682"><ele>210.25</ele><time>2026-04-11T13:20:08Z</time></trkpt><trkpt lat="43.92698129818663" lon="12.320965739250967"><ele>209.5</ele><time>2026-04-11T13:20:09Z</time></trkpt><trkpt lat="43.92706452721774" lon="12.321106568717955"><ele>208.75</ele><time>2026-04-11T13:20:10Z</time></trkpt><trkpt lat="43.92714133457861" lon="12.32124339136716"><ele>208.0</ele><time>2026-04-11T13:20:11Z</time></trkpt><trkpt lat="43.92721948781084" lon="12.3213816863952"><ele>207.5</ele><time>2026-04-11T13:20:12Z</time></trkpt><trkpt lat="43.92730104831231" lon="12.321521880043882"><ele>207.0</ele><time>2026-04-11T13:20:13Z</time></trkpt><trkpt lat="43.92738121293747" lon="12.32166217514102"><ele>206.5</ele><time>2026-04-11T13:20:14Z</time></trkpt><trkpt lat="43.927464930073924" lon="12.321794097611031"><ele>206.0</ele><time>2026-04-11T13:20:15Z</time></trkpt><trkpt lat="43.92754781829368" lon="12.321918161823415"><ele>205.5</ele><time>2026-04-11T13:20:16Z</time></trkpt><trkpt lat="43.92762564442465" lon="12.322040475043934"><ele>205.0</ele><time>2026-04-11T13:20:17Z</time></trkpt><trkpt lat="43.927707758508795" lon="12.322155011692823"><ele>204.5</ele><time>2026-04-11T13:20:18Z</time></trkpt><trkpt lat="43.927799753749866" lon="12.322268546970815"><ele>204.0</ele><time>2026-04-11T13:20:19Z</time></trkpt><trkpt lat="43.92788575817558" lon="12.322376750928818"><ele>203.5</ele><time>2026-04-11T13:20:20Z</time></trkpt><trkpt lat="43.9279709856063" lon="12.322487507746754"><ele>203.0</ele><time>2026-04-11T13:20:21Z</time></trkpt><trkpt lat="43.92805642045191" lon="12.322591731267513"><ele>202.5</ele><time>2026-04-11T13:20:22Z</time></trkpt><trkpt lat="43.928142664895745" lon="12.322692798991248"><ele>202.0</ele><time>2026-04-11T13:20:23Z</time></trkpt><trkpt lat="43.9282264584306" lon="12.322792875508558"><ele>202.0</ele><time>2026-04-11T13:20:24Z</time></trkpt><trkpt lat="43.92830665170975" lon="12.3228881462278"><ele>202.0</ele><time>2026-04-11T13:20:25Z</time></trkpt><trkpt lat="43.92837649215008" lon="12.322983548142172"><ele>202.0</ele><time>2026-04-11T13:20:26Z</time></trkpt><trkpt lat="43.928433058206" lon="12.323085564434974"><ele>202.0</ele><time>2026-04-11T13:20:27Z</time></trkpt><trkpt lat="43.92847404434599" lon="12.323195761630272"><ele>202.0</ele><time>2026-04-11T13:20:28Z</time></trkpt><trkpt lat="43.92853665276043" lon="12.32330398832943"><ele>202.25</ele><time>2026-04-11T13:20:29Z</time></trkpt><trkpt lat="43.928626285120735" lon="12.323377302387838"><ele>202.5</ele><time>2026-04-11T13:20:30Z</time></trkpt><trkpt lat="43.92872724778065" lon="12.323448171191997"><ele>202.75</ele><time>2026-04-11T13:20:31Z</time></trkpt><trkpt lat="43.928824103810705" lon="12.323526654378652"><ele>203.0</ele><time>2026-04-11T13:20:32Z</time></trkpt><trkpt lat="43.928922734776314" lon="12.323626072280119"><ele>203.0</ele><time>2026-04-11T13:20:33Z</time></trkpt><trkpt lat="43.929016269959206" lon="12.323727986671722"><ele>203.0</ele><time>2026-04-11T13:20:34Z</time></trkpt><trkpt lat="43.929105130423146" lon="12.32382848916258"><ele>203.0</ele><time>2026-04-11T13:20:35Z</time></trkpt><trkpt lat="43.92919250610353" lon="12.323926086925743"><ele>203.0</ele><time>2026-04-11T13:20:36Z</time></trkpt><trkpt lat="43.92926694952913" lon="12.324044024402752"><ele>202.60000000000002</ele><time>2026-04-11T13:20:37Z</time></trkpt><trkpt lat="43.92936121585046" lon="12.324127919011884"><ele>202.20000000000002</ele><time>2026-04-11T13:20:38Z</time></trkpt><trkpt lat="43.92943557011747" lon="12.324233105689963"><ele>201.8</ele><time>2026-04-11T13:20:39Z</time></trkpt><trkpt lat="43.92950941744054" lon="12.324331355625972"><ele>201.4</ele><time>2026-04-11T13:20:40Z</time></trkpt><trkpt lat="43.92959182748467" lon="12.324433263748888"><ele>201.0</ele><time>2026-04-11T13:20:41Z</time></trkpt><trkpt lat="43.92967812922275" lon="12.324541169194928"><ele>201.0</ele><time>2026-04-11T13:20:42Z</time></trkpt><trkpt lat="43.92977019431322" lon="12.324655091675675"><ele>201.0</ele><time>2026-04-11T13:20:43Z</time></trkpt><trkpt lat="43.92986643743629" lon="12.324776221451854"><ele>201.0</ele><time>2026-04-11T13:20:44Z</time></trkpt><trkpt lat="43.9299618461183" lon="12.324904423769672"><ele>201.0</ele><time>2026-04-11T13:20:45Z</time></trkpt><trkpt lat="43.930050147705686" lon="12.325034734859395"><ele>201.0</ele><time>2026-04-11T13:20:46Z</time></trkpt><trkpt lat="43.93012955219174" lon="12.325166301456969"><ele>201.0</ele><time>2026-04-11T13:20:47Z</time></trkpt><trkpt lat="43.930205519749535" lon="12.325304318510677"><ele>201.0</ele><time>2026-04-11T13:20:48Z</time></trkpt><trkpt lat="43.93028108143358" lon="12.325447067829561"><ele>201.0</ele><time>2026-04-11T13:20:49Z</time></trkpt><trkpt lat="43.9303548786481" lon="12.325587160171358"><ele>200.5</ele><time>2026-04-11T13:20:50Z</time></trkpt><trkpt lat="43.9304272138783" lon="12.325726078294958"><ele>200.0</ele><time>2026-04-11T13:20:51Z</time></trkpt><trkpt lat="43.93049809450273" lon="12.3258627398228"><ele>199.5</ele><time>2026-04-11T13:20:52Z</time></trkpt><trkpt lat="43.930562793036806" lon="12.32599592000401"><ele>199.0</ele><time>2026-04-11T13:20:53Z</time></trkpt><trkpt lat="43.93062735252359" lon="12.326126384582752"><ele>199.0</ele><time>2026-04-11T13:20:54Z</time></trkpt><trkpt lat="43.93069360287081" lon="12.326257778241416"><ele>199.0</ele><time>2026-04-11T13:20:55Z</time></trkpt><trkpt lat="43.930764102049324" lon="12.326393860348347"><ele>199.0</ele><time>2026-04-11T13:20:56Z</time></trkpt><trkpt lat="43.9308311531179" lon="12.326537831860442"><ele>199.0</ele><time>2026-04-11T13:20:57Z</time></trkpt><trkpt lat="43.930889903325394" lon="12.326696880959107"><ele>198.5</ele><time>2026-04-11T13:20:58Z</time></trkpt><trkpt lat="43.93093505938514" lon="12.326865266484042"><ele>198.0</ele><time>2026-04-11T13:20:59Z</time></trkpt><trkpt lat="43.930970032531185" lon="12.327035320541196"><ele>197.5</ele><time>2026-04-11T13:21:00Z</time></trkpt><trkpt lat="43.93100076409629" lon="12.327209278677726"><ele>197.0</ele><time>2026-04-11T13:21:01Z</time></trkpt><trkpt lat="43.93102885495309" lon="12.327379166797138"><ele>197.0</ele><time>2026-04-11T13:21:02Z</time></trkpt><trkpt lat="43.931059934799855" lon="12.327542063284382"><ele>197.0</ele><time>2026-04-11T13:21:03Z</time></trkpt><trkpt lat="43.9310902414623" lon="12.327705174593167"><ele>197.0</ele><time>2026-04-11T13:21:04Z</time></trkpt><trkpt lat="43.93111773471321" lon="12.327865203671442"><ele>197.0</ele><time>2026-04-11T13:21:05Z</time></trkpt><trkpt lat="43.93114370647763" lon="12.328031295661464"><ele>196.5</ele><time>2026-04-11T13:21:06Z</time></trkpt><trkpt lat="43.931171863308556" lon="12.328201459138384"><ele>196.0</ele><time>2026-04-11T13:21:07Z</time></trkpt><trkpt lat="43.93120236063554" lon="12.32837580966753"><ele>195.5</ele><time>2026-04-11T13:21:08Z</time></trkpt><trkpt lat="43.931232055933535" lon="12.328551609178579"><ele>195.0</ele><time>2026-04-11T13:21:09Z</time></trkpt><trkpt lat="43.93126329570092" lon="12.32873086809361"><ele>194.75</ele><time>2026-04-11T13:21:10Z</time></trkpt><trkpt lat="43.93129445012319" lon="12.328905638389646"><ele>194.5</ele><time>2026-04-11T13:21:11Z</time></trkpt><trkpt lat="43.93132647775633" lon="12.329077982103772"><ele>194.25</ele><time>2026-04-11T13:21:12Z</time></trkpt><trkpt lat="43.93135779113515" lon="12.329242502953996"><ele>194.0</ele><time>2026-04-11T13:21:13Z</time></trkpt><trkpt lat="43.93138524729527" lon="12.329404700895559"><ele>194.0</ele><time>2026-04-11T13:21:14Z</time></trkpt><trkpt lat="43.93141041095382" lon="12.329565743177362"><ele>194.0</ele><time>2026-04-11T13:21:14.999Z</time></trkpt><trkpt lat="43.93143622036082" lon="12.32973028240644"><ele>194.0</ele><time>2026-04-11T13:21:15.999Z</time></trkpt><trkpt lat="43.93146414270363" lon="12.32989467309337"><ele>194.0</ele><time>2026-04-11T13:21:16.999Z</time></trkpt><trkpt lat="43.931490129617735" lon="12.330059025032982"><ele>193.5</ele><time>2026-04-11T13:21:17.999Z</time></trkpt><trkpt lat="43.931517368027414" lon="12.33021701189265"><ele>193.0</ele><time>2026-04-11T13:21:18.999Z</time></trkpt><trkpt lat="43.931544038672115" lon="12.330381031451715"><ele>192.5</ele><time>2026-04-11T13:21:19.999Z</time></trkpt><trkpt lat="43.931573451450845" lon="12.330547985583811"><ele>192.0</ele><time>2026-04-11T13:21:20.999Z</time></trkpt><trkpt lat="43.93160392220135" lon="12.330709856196057"><ele>190.75</ele><time>2026-04-11T13:21:21.999Z</time></trkpt><trkpt lat="43.93163168364085" lon="12.330873754379134"><ele>189.5</ele><time>2026-04-11T13:21:22.999Z</time></trkpt><trkpt lat="43.93165980646699" lon="12.331039575849587"><ele>188.25</ele><time>2026-04-11T13:21:23.999Z</time></trkpt><trkpt lat="43.93169152475606" lon="12.331207804967567"><ele>187.0</ele><time>2026-04-11T13:21:24.999Z</time></trkpt><trkpt lat="43.931728477071346" lon="12.331375581084512"><ele>186.0</ele><time>2026-04-11T13:21:25.999Z</time></trkpt><trkpt lat="43.93176850506385" lon="12.331548235756628"><ele>185.0</ele><time>2026-04-11T13:21:26.999Z</time></trkpt><trkpt lat="43.93181591268511" lon="12.331719055206491"><ele>184.0</ele><time>2026-04-11T13:21:27.999Z</time></trkpt><trkpt lat="43.93187904346588" lon="12.331877616729258"><ele>183.0</ele><time>2026-04-11T13:21:28.999Z</time></trkpt><trkpt lat="43.93195503025555" lon="12.332034709193914"><ele>183.0</ele><time>2026-04-11T13:21:29.999Z</time></trkpt><trkpt lat="43.93204463439179" lon="12.332172829016047"><ele>183.0</ele><time>2026-04-11T13:21:30.999Z</time></trkpt><trkpt lat="43.932146551289186" lon="12.33230603011021"><ele>183.0</ele><time>2026-04-11T13:21:31.999Z</time></trkpt><trkpt lat="43.93223969851793" lon="12.332435983955213"><ele>183.0</ele><time>2026-04-11T13:21:32.999Z</time></trkpt><trkpt lat="43.93232524020268" lon="12.332570106061008"><ele>183.0</ele><time>2026-04-11T13:21:33.999Z</time></trkpt><trkpt lat="43.9324130240681" lon="12.33269707534443"><ele>183.0</ele><time>2026-04-11T13:21:34.999Z</time></trkpt><trkpt lat="43.93250623488652" lon="12.332826971229235"><ele>183.0</ele><time>2026-04-11T13:21:35.999Z</time></trkpt><trkpt lat="43.932596280070975" lon="12.332955660179605"><ele>183.0</ele><time>2026-04-11T13:21:36.999Z</time></trkpt><trkpt lat="43.932684188227164" lon="12.333076898746778"><ele>183.75</ele><time>2026-04-11T13:21:37.999Z</time></trkpt><trkpt lat="43.93276947808156" lon="12.333199329735443"><ele>184.5</ele><time>2026-04-11T13:21:38.999Z</time></trkpt><trkpt lat="43.93285620933713" lon="12.333325564313363"><ele>185.25</ele><time>2026-04-11T13:21:40Z</time></trkpt><trkpt lat="43.93294076015786" lon="12.333450493333634"><ele>186.0</ele><time>2026-04-11T13:21:41Z</time></trkpt><trkpt lat="43.933029097343876" lon="12.333573937688717"><ele>186.0</ele><time>2026-04-11T13:21:42Z</time></trkpt><trkpt lat="43.93311905204584" lon="12.333698972390456"><ele>186.0</ele><time>2026-04-11T13:21:43Z</time></trkpt><trkpt lat="43.933203108411654" lon="12.333822117821784"><ele>186.0</ele><time>2026-04-11T13:21:44Z</time></trkpt><trkpt lat="43.93328911682874" lon="12.33394513234522"><ele>186.0</ele><time>2026-04-11T13:21:45Z</time></trkpt><trkpt lat="43.933374175265605" lon="12.33406611209469"><ele>185.0</ele><time>2026-04-11T13:21:46Z</time></trkpt><trkpt lat="43.933461042295" lon="12.334191761220792"><ele>184.0</ele><time>2026-04-11T13:21:47Z</time></trkpt><trkpt lat="43.93355045769523" lon="12.33431882471684"><ele>183.0</ele><time>2026-04-11T13:21:48Z</time></trkpt><trkpt lat="43.93364065930448" lon="12.33444441085193"><ele>182.0</ele><time>2026-04-11T13:21:49Z</time></trkpt><trkpt lat="43.933728525541085" lon="12.334573046096653"><ele>182.0</ele><time>2026-04-11T13:21:50Z</time></trkpt><trkpt lat="43.93381638991192" lon="12.334697197748355"><ele>182.0</ele><time>2026-04-11T13:21:51Z</time></trkpt><trkpt lat="43.933899709680084" lon="12.334816945725658"><ele>182.0</ele><time>2026-04-11T13:21:52Z</time></trkpt><trkpt lat="43.93397916730498" lon="12.334937613423058"><ele>182.0</ele><time>2026-04-11T13:21:53Z</time></trkpt><trkpt lat="43.93406494101579" lon="12.335056157244445"><ele>181.75</ele><time>2026-04-11T13:21:54Z</time></trkpt><trkpt lat="43.934154149043906" lon="12.335176512049928"><ele>181.5</ele><time>2026-04-11T13:21:55Z</time></trkpt><trkpt lat="43.93424083291618" lon="12.33529928910551"><ele>181.25</ele><time>2026-04-11T13:21:56Z</time></trkpt><trkpt lat="43.934326452694116" lon="12.335425167637538"><ele>181.0</ele><time>2026-04-11T13:21:57Z</time></trkpt><trkpt lat="43.934414406620554" lon="12.335551694838461"><ele>182.25</ele><time>2026-04-11T13:21:58Z</time></trkpt><trkpt lat="43.93450523247857" lon="12.335679234951016"><ele>183.5</ele><time>2026-04-11T13:21:59Z</time></trkpt><trkpt lat="43.93459392460978" lon="12.335806159869282"><ele>184.75</ele><time>2026-04-11T13:22:00Z</time></trkpt><trkpt lat="43.93467933153282" lon="12.335937117321574"><ele>186.0</ele><time>2026-04-11T13:22:01Z</time></trkpt><trkpt lat="43.93476068615182" lon="12.336053983684977"><ele>186.0</ele><time>2026-04-11T13:22:02Z</time></trkpt><trkpt lat="43.93484603355951" lon="12.336174355367152"><ele>186.0</ele><time>2026-04-11T13:22:03Z</time></trkpt><trkpt lat="43.93493143199682" lon="12.336298741114806"><ele>186.0</ele><time>2026-04-11T13:22:04Z</time></trkpt><trkpt lat="43.935020820272854" lon="12.336424559402206"><ele>186.0</ele><time>2026-04-11T13:22:05Z</time></trkpt><trkpt lat="43.93511479217172" lon="12.336552486362033"><ele>188.5</ele><time>2026-04-11T13:22:06Z</time></trkpt><trkpt lat="43.93520295230363" lon="12.33667550746943"><ele>191.0</ele><time>2026-04-11T13:22:07Z</time></trkpt><trkpt lat="43.93528751864394" lon="12.33679866815238"><ele>193.5</ele><time>2026-04-11T13:22:08Z</time></trkpt><trkpt lat="43.935372354120716" lon="12.336924543136426"><ele>196.0</ele><time>2026-04-11T13:22:09Z</time></trkpt><trkpt lat="43.93545647798008" lon="12.337051239832435"><ele>196.0</ele><time>2026-04-11T13:22:10Z</time></trkpt><trkpt lat="43.935539819307564" lon="12.337184010413045"><ele>196.0</ele><time>2026-04-11T13:22:11Z</time></trkpt><trkpt lat="43.935614854770805" lon="12.337328442154803"><ele>196.0</ele><time>2026-04-11T13:22:12Z</time></trkpt><trkpt lat="43.9356767098782" lon="12.337485363927218"><ele>196.0</ele><time>2026-04-11T13:22:13Z</time></trkpt><trkpt lat="43.935726411328616" lon="12.33765947379503"><ele>194.25</ele><time>2026-04-11T13:22:14Z</time></trkpt><trkpt lat="43.93576286437477" lon="12.337824634950348"><ele>192.5</ele><time>2026-04-11T13:22:15Z</time></trkpt><trkpt lat="43.93578201812027" lon="12.337990714186514"><ele>190.75</ele><time>2026-04-11T13:22:16Z</time></trkpt><trkpt lat="43.935794722150156" lon="12.33815697991919"><ele>189.0</ele><time>2026-04-11T13:22:17Z</time></trkpt><trkpt lat="43.935791943034324" lon="12.338335332689237"><ele>188.25</ele><time>2026-04-11T13:22:18Z</time></trkpt><trkpt lat="43.935780235887506" lon="12.338508925378184"><ele>187.5</ele><time>2026-04-11T13:22:19Z</time></trkpt><trkpt lat="43.93576986731925" lon="12.338691631719138"><ele>186.75</ele><time>2026-04-11T13:22:20Z</time></trkpt><trkpt lat="43.9357619357724" lon="12.338866406515034"><ele>186.0</ele><time>2026-04-11T13:22:21Z</time></trkpt><trkpt lat="43.93575023212375" lon="12.339041987467894"><ele>186.0</ele><time>2026-04-11T13:22:22Z</time></trkpt><trkpt lat="43.93574152426928" lon="12.339208396358"><ele>186.0</ele><time>2026-04-11T13:22:23Z</time></trkpt><trkpt lat="43.93574203537405" lon="12.339374977599302"><ele>186.0</ele><time>2026-04-11T13:22:24Z</time></trkpt><trkpt lat="43.93574973795619" lon="12.339545153747737"><ele>186.0</ele><time>2026-04-11T13:22:25Z</time></trkpt><trkpt lat="43.935773285978705" lon="12.339715429392207"><ele>186.5</ele><time>2026-04-11T13:22:26Z</time></trkpt><trkpt lat="43.935809034500906" lon="12.339880537967518"><ele>187.0</ele><time>2026-04-11T13:22:27Z</time></trkpt><trkpt lat="43.93584099972965" lon="12.340039885433997"><ele>187.5</ele><time>2026-04-11T13:22:28Z</time></trkpt><trkpt lat="43.93587413356736" lon="12.340194637221407"><ele>188.0</ele><time>2026-04-11T13:22:29Z</time></trkpt><trkpt lat="43.93590767936082" lon="12.340353047209009"><ele>190.0</ele><time>2026-04-11T13:22:30Z</time></trkpt><trkpt lat="43.9359409840034" lon="12.34051002630948"><ele>192.0</ele><time>2026-04-11T13:22:31Z</time></trkpt><trkpt lat="43.93597464550495" lon="12.340664845677328"><ele>194.0</ele><time>2026-04-11T13:22:32Z</time></trkpt><trkpt lat="43.936008686159944" lon="12.340821423498939"><ele>196.0</ele><time>2026-04-11T13:22:33Z</time></trkpt><trkpt lat="43.93604341860854" lon="12.340977889230608"><ele>196.0</ele><time>2026-04-11T13:22:34Z</time></trkpt><trkpt lat="43.93607667399637" lon="12.341134689887756"><ele>196.0</ele><time>2026-04-11T13:22:35Z</time></trkpt><trkpt lat="43.93611143499698" lon="12.341291776188147"><ele>196.0</ele><time>2026-04-11T13:22:36Z</time></trkpt><trkpt lat="43.93614169461766" lon="12.34145098272611"><ele>196.0</ele><time>2026-04-11T13:22:37Z</time></trkpt><trkpt lat="43.93616349304433" lon="12.341616023766962"><ele>196.0</ele><time>2026-04-11T13:22:38Z</time></trkpt><trkpt lat="43.93617082696523" lon="12.341781984638484"><ele>196.0</ele><time>2026-04-11T13:22:39Z</time></trkpt><trkpt lat="43.93615163873524" lon="12.341951260998496"><ele>196.0</ele><time>2026-04-11T13:22:40Z</time></trkpt><trkpt lat="43.93611652297124" lon="12.342106726864076"><ele>196.0</ele><time>2026-04-11T13:22:41Z</time></trkpt><trkpt lat="43.93606959549337" lon="12.342255640335702"><ele>196.0</ele><time>2026-04-11T13:22:42Z</time></trkpt><trkpt lat="43.93600502860055" lon="12.342388123852183"><ele>196.0</ele><time>2026-04-11T13:22:43Z</time></trkpt><trkpt lat="43.93592716053696" lon="12.342510805769587"><ele>196.0</ele><time>2026-04-11T13:22:44Z</time></trkpt><trkpt lat="43.935824489697275" lon="12.34261795160832"><ele>196.0</ele><time>2026-04-11T13:22:45Z</time></trkpt><trkpt lat="43.93572042969028" lon="12.342685822489678"><ele>192.5</ele><time>2026-04-11T13:22:46Z</time></trkpt><trkpt lat="43.93562319339484" lon="12.342753774488385"><ele>189.0</ele><time>2026-04-11T13:22:47Z</time></trkpt><trkpt lat="43.935519531282985" lon="12.342818069058206"><ele>185.5</ele><time>2026-04-11T13:22:48Z</time></trkpt><trkpt lat="43.9354106099974" lon="12.342887050151068"><ele>182.0</ele><time>2026-04-11T13:22:49Z</time></trkpt><trkpt lat="43.93530019069738" lon="12.342953521265562"><ele>182.0</ele><time>2026-04-11T13:22:50Z</time></trkpt><trkpt lat="43.93519781395628" lon="12.34301774209889"><ele>182.0</ele><time>2026-04-11T13:22:51Z</time></trkpt><trkpt lat="43.93509325123054" lon="12.343086965990794"><ele>182.0</ele><time>2026-04-11T13:22:52Z</time></trkpt><trkpt lat="43.9349876799742" lon="12.343157156850932"><ele>182.0</ele><time>2026-04-11T13:22:53Z</time></trkpt><trkpt lat="43.934879828145256" lon="12.343229428973121"><ele>181.25</ele><time>2026-04-11T13:22:54Z</time></trkpt><trkpt lat="43.93478281781007" lon="12.343308868975809"><ele>180.5</ele><time>2026-04-11T13:22:55Z</time></trkpt><trkpt lat="43.93468848154719" lon="12.34339643262852"><ele>179.75</ele><time>2026-04-11T13:22:56Z</time></trkpt><trkpt lat="43.93463018093234" lon="12.34354410727285"><ele>179.0</ele><time>2026-04-11T13:22:57Z</time></trkpt><trkpt lat="43.934595564226136" lon="12.34370671812359"><ele>179.0</ele><time>2026-04-11T13:22:57.999Z</time></trkpt><trkpt lat="43.934552165970146" lon="12.343863694258463"><ele>179.0</ele><time>2026-04-11T13:22:58.999Z</time></trkpt><trkpt lat="43.93451782916207" lon="12.344034282713517"><ele>179.0</ele><time>2026-04-11T13:22:59.999Z</time></trkpt><trkpt lat="43.93449803766623" lon="12.34420884437982"><ele>179.0</ele><time>2026-04-11T13:23:00.999Z</time></trkpt><trkpt lat="43.93448511024446" lon="12.344386342398618"><ele>179.0</ele><time>2026-04-11T13:23:01.999Z</time></trkpt><trkpt lat="43.934498670736666" lon="12.344561117573774"><ele>179.0</ele><time>2026-04-11T13:23:02.999Z</time></trkpt><trkpt lat="43.934540624528616" lon="12.344735938743446"><ele>179.0</ele><time>2026-04-11T13:23:03.999Z</time></trkpt><trkpt lat="43.93459955844476" lon="12.344901126967441"><ele>179.0</ele><time>2026-04-11T13:23:04.999Z</time></trkpt><trkpt lat="43.934667597763436" lon="12.34505553093403"><ele>179.75</ele><time>2026-04-11T13:23:05.999Z</time></trkpt><trkpt lat="43.93473415702885" lon="12.345196737121926"><ele>180.5</ele><time>2026-04-11T13:23:06.999Z</time></trkpt><trkpt lat="43.93480105343063" lon="12.345338480169842"><ele>181.25</ele><time>2026-04-11T13:23:07.999Z</time></trkpt><trkpt lat="43.93487026261281" lon="12.345477559325886"><ele>182.0</ele><time>2026-04-11T13:23:08.999Z</time></trkpt><trkpt lat="43.93493374863813" lon="12.345610554519576"><ele>181.0</ele><time>2026-04-11T13:23:09.999Z</time></trkpt><trkpt lat="43.935002860113165" lon="12.345745114659758"><ele>180.0</ele><time>2026-04-11T13:23:10.999Z</time></trkpt><trkpt lat="43.93507493232584" lon="12.345881102853541"><ele>179.0</ele><time>2026-04-11T13:23:11.999Z</time></trkpt><trkpt lat="43.93515591702776" lon="12.346009223658616"><ele>178.0</ele><time>2026-04-11T13:23:12.999Z</time></trkpt><trkpt lat="43.93525494765381" lon="12.346116525125675"><ele>178.0</ele><time>2026-04-11T13:23:13.999Z</time></trkpt><trkpt lat="43.935365278237406" lon="12.34620765078331"><ele>178.0</ele><time>2026-04-11T13:23:14.999Z</time></trkpt><trkpt lat="43.93548026592628" lon="12.346284953227565"><ele>178.0</ele><time>2026-04-11T13:23:15.999Z</time></trkpt><trkpt lat="43.93559217068791" lon="12.346341382692074"><ele>178.0</ele><time>2026-04-11T13:23:16.999Z</time></trkpt><trkpt lat="43.93570186508161" lon="12.34639526396676"><ele>179.25</ele><time>2026-04-11T13:23:17.999Z</time></trkpt><trkpt lat="43.93581398098205" lon="12.346457928890139"><ele>180.5</ele><time>2026-04-11T13:23:18.999Z</time></trkpt><trkpt lat="43.93593092829991" lon="12.346523160373081"><ele>181.75</ele><time>2026-04-11T13:23:19.999Z</time></trkpt><trkpt lat="43.9360466468672" lon="12.346586900148635"><ele>183.0</ele><time>2026-04-11T13:23:20.998Z</time></trkpt><trkpt lat="43.93616553319552" lon="12.34665420648562"><ele>183.0</ele><time>2026-04-11T13:23:21.998Z</time></trkpt><trkpt lat="43.93628348228815" lon="12.346715761923493"><ele>183.0</ele><time>2026-04-11T13:23:22.998Z</time></trkpt><trkpt lat="43.93640043482985" lon="12.346775992506402"><ele>183.0</ele><time>2026-04-11T13:23:23.998Z</time></trkpt><trkpt lat="43.93651441187382" lon="12.346838229187776"><ele>183.0</ele><time>2026-04-11T13:23:24.998Z</time></trkpt><trkpt lat="43.93662869109005" lon="12.346893600727238"><ele>180.75</ele><time>2026-04-11T13:23:25.998Z</time></trkpt><trkpt lat="43.936747455588886" lon="12.346949586940319"><ele>178.5</ele><time>2026-04-11T13:23:26.998Z</time></trkpt><trkpt lat="43.93686722172861" lon="12.347012317889885"><ele>176.25</ele><time>2026-04-11T13:23:27.998Z</time></trkpt><trkpt lat="43.93698666091442" lon="12.347082764201232"><ele>174.0</ele><time>2026-04-11T13:23:28.998Z</time></trkpt><trkpt lat="43.93709997877972" lon="12.34716831984885"><ele>176.5</ele><time>2026-04-11T13:23:29.998Z</time></trkpt><trkpt lat="43.93720778051301" lon="12.34726081182091"><ele>179.0</ele><time>2026-04-11T13:23:30.998Z</time></trkpt><trkpt lat="43.937306687579564" lon="12.347359232155625"><ele>181.5</ele><time>2026-04-11T13:23:31.998Z</time></trkpt><trkpt lat="43.9374031733901" lon="12.347452212377252"><ele>184.0</ele><time>2026-04-11T13:23:32.998Z</time></trkpt><trkpt lat="43.937500733581714" lon="12.347546521328223"><ele>181.5</ele><time>2026-04-11T13:23:33.998Z</time></trkpt><trkpt lat="43.93760115541747" lon="12.347641865385267"><ele>179.0</ele><time>2026-04-11T13:23:34.998Z</time></trkpt><trkpt lat="43.93770029486963" lon="12.34773925991682"><ele>176.5</ele><time>2026-04-11T13:23:35.998Z</time></trkpt><trkpt lat="43.937797016832235" lon="12.347832984103064"><ele>174.0</ele><time>2026-04-11T13:23:36.998Z</time></trkpt><trkpt lat="43.937896930706444" lon="12.347934250086684"><ele>174.0</ele><time>2026-04-11T13:23:37.998Z</time></trkpt><trkpt lat="43.9379874250401" lon="12.348041198798882"><ele>174.0</ele><time>2026-04-11T13:23:38.998Z</time></trkpt><trkpt lat="43.93807165933962" lon="12.348161701460278"><ele>174.0</ele><time>2026-04-11T13:23:39.998Z</time></trkpt><trkpt lat="43.93814895359536" lon="12.348298055567824"><ele>174.0</ele><time>2026-04-11T13:23:40.998Z</time></trkpt><trkpt lat="43.93821260913637" lon="12.348450422556791"><ele>176.0</ele><time>2026-04-11T13:23:41.998Z</time></trkpt><trkpt lat="43.93825952593978" lon="12.348615015596723"><ele>178.0</ele><time>2026-04-11T13:23:42.998Z</time></trkpt><trkpt lat="43.93828797760501" lon="12.34878950679419"><ele>180.0</ele><time>2026-04-11T13:23:43.998Z</time></trkpt><trkpt lat="43.938307286714235" lon="12.348965296022467"><ele>182.0</ele><time>2026-04-11T13:23:44.998Z</time></trkpt><trkpt lat="43.938316873164844" lon="12.349145610089007"><ele>182.25</ele><time>2026-04-11T13:23:45.999Z</time></trkpt><trkpt lat="43.9383184631436" lon="12.349323057510475"><ele>182.5</ele><time>2026-04-11T13:23:46.999Z</time></trkpt><trkpt lat="43.938288286882134" lon="12.34949503186032"><ele>182.75</ele><time>2026-04-11T13:23:47.999Z</time></trkpt><trkpt lat="43.93826929122129" lon="12.34966588329839"><ele>183.0</ele><time>2026-04-11T13:23:48.999Z</time></trkpt><trkpt lat="43.93824964068512" lon="12.349840063235646"><ele>182.0</ele><time>2026-04-11T13:23:49.999Z</time></trkpt><trkpt lat="43.93823789180955" lon="12.350019798654738"><ele>181.0</ele><time>2026-04-11T13:23:50.999Z</time></trkpt><trkpt lat="43.93821693724568" lon="12.3501923078711"><ele>180.0</ele><time>2026-04-11T13:23:51.999Z</time></trkpt><trkpt lat="43.9381971424474" lon="12.350362684970065"><ele>179.0</ele><time>2026-04-11T13:23:52.999Z</time></trkpt><trkpt lat="43.9381782057001" lon="12.350535675277849"><ele>178.25</ele><time>2026-04-11T13:23:53.999Z</time></trkpt><trkpt lat="43.938162059244455" lon="12.350709991531744"><ele>177.5</ele><time>2026-04-11T13:23:54.999Z</time></trkpt><trkpt lat="43.938167077384726" lon="12.350891856368893"><ele>176.75</ele><time>2026-04-11T13:23:55.999Z</time></trkpt><trkpt lat="43.9381926550423" lon="12.351073774696559"><ele>176.0</ele><time>2026-04-11T13:23:56.999Z</time></trkpt><trkpt lat="43.93823921991081" lon="12.351245352466226"><ele>176.75</ele><time>2026-04-11T13:23:57.999Z</time></trkpt><trkpt lat="43.93830254018723" lon="12.351407045915384"><ele>177.5</ele><time>2026-04-11T13:23:58.999Z</time></trkpt><trkpt lat="43.938365379265015" lon="12.351564836859916"><ele>178.25</ele><time>2026-04-11T13:23:59.999Z</time></trkpt><trkpt lat="43.93846160220214" lon="12.351689638186802"><ele>179.0</ele><time>2026-04-11T13:24:00.999Z</time></trkpt><trkpt lat="43.93854527042218" lon="12.351830507219153"><ele>177.0</ele><time>2026-04-11T13:24:01.999Z</time></trkpt><trkpt lat="43.93863790310455" lon="12.351969810973763"><ele>175.0</ele><time>2026-04-11T13:24:02.999Z</time></trkpt><trkpt lat="43.938729026830714" lon="12.352104461218605"><ele>173.0</ele><time>2026-04-11T13:24:03.999Z</time></trkpt><trkpt lat="43.9388156837782" lon="12.352239734566163"><ele>171.0</ele><time>2026-04-11T13:24:04.999Z</time></trkpt><trkpt lat="43.93890185944141" lon="12.352369215398967"><ele>171.0</ele><time>2026-04-11T13:24:05.999Z</time></trkpt><trkpt lat="43.938985009883886" lon="12.352499175084354"><ele>171.0</ele><time>2026-04-11T13:24:06.999Z</time></trkpt><trkpt lat="43.93906745820778" lon="12.352622408794858"><ele>171.0</ele><time>2026-04-11T13:24:07.999Z</time></trkpt><trkpt lat="43.93915554282866" lon="12.352754257830028"><ele>171.0</ele><time>2026-04-11T13:24:08.999Z</time></trkpt><trkpt lat="43.93924120468548" lon="12.352880578930264"><ele>169.75</ele><time>2026-04-11T13:24:09.999Z</time></trkpt><trkpt lat="43.93933271438281" lon="12.35300713724752"><ele>168.5</ele><time>2026-04-11T13:24:10.999Z</time></trkpt><trkpt lat="43.939427114499495" lon="12.353122450224365"><ele>167.25</ele><time>2026-04-11T13:24:11.999Z</time></trkpt><trkpt lat="43.93952051054809" lon="12.353239158317148"><ele>166.0</ele><time>2026-04-11T13:24:12.999Z</time></trkpt><trkpt lat="43.93961843276321" lon="12.353355088882045"><ele>166.0</ele><time>2026-04-11T13:24:13.999Z</time></trkpt><trkpt lat="43.939723256382365" lon="12.353467409263082"><ele>166.0</ele><time>2026-04-11T13:24:14.999Z</time></trkpt><trkpt lat="43.93983047635694" lon="12.353578877783209"><ele>166.0</ele><time>2026-04-11T13:24:15.999Z</time></trkpt><trkpt lat="43.9399410298263" lon="12.35368857721211"><ele>166.0</ele><time>2026-04-11T13:24:16.999Z</time></trkpt><trkpt lat="43.94005180987428" lon="12.353794684601587"><ele>165.25</ele><time>2026-04-11T13:24:17.999Z</time></trkpt><trkpt lat="43.940162302451526" lon="12.35389802171592"><ele>164.5</ele><time>2026-04-11T13:24:18.999Z</time></trkpt><trkpt lat="43.940273864138355" lon="12.354000297064417"><ele>163.75</ele><time>2026-04-11T13:24:19.999Z</time></trkpt><trkpt lat="43.94038498385888" lon="12.354100719474408"><ele>163.0</ele><time>2026-04-11T13:24:20.999Z</time></trkpt><trkpt lat="43.94049402353819" lon="12.354199871032353"><ele>163.0</ele><time>2026-04-11T13:24:21.999Z</time></trkpt><trkpt lat="43.940601129767096" lon="12.354298556364599"><ele>163.0</ele><time>2026-04-11T13:24:22.999Z</time></trkpt><trkpt lat="43.9407063709402" lon="12.354393768605128"><ele>163.0</ele><time>2026-04-11T13:24:23.999Z</time></trkpt><trkpt lat="43.94081005553934" lon="12.354489062180399"><ele>163.0</ele><time>2026-04-11T13:24:24.999Z</time></trkpt><trkpt lat="43.94091276756852" lon="12.354578860395664"><ele>163.0</ele><time>2026-04-11T13:24:25.999Z</time></trkpt><trkpt lat="43.941014902544424" lon="12.354668510729441"><ele>163.0</ele><time>2026-04-11T13:24:26.999Z</time></trkpt><trkpt lat="43.941120283909626" lon="12.354761259416502"><ele>163.0</ele><time>2026-04-11T13:24:27.999Z</time></trkpt><trkpt lat="43.94122101609733" lon="12.354852654400537"><ele>163.0</ele><time>2026-04-11T13:24:28.999Z</time></trkpt><trkpt lat="43.941322177173866" lon="12.354942820256717"><ele>163.0</ele><time>2026-04-11T13:24:29.999Z</time></trkpt><trkpt lat="43.94142547571283" lon="12.355034695715736"><ele>163.0</ele><time>2026-04-11T13:24:30.999Z</time></trkpt><trkpt lat="43.941528756520064" lon="12.355128709832387"><ele>163.0</ele><time>2026-04-11T13:24:31.999Z</time></trkpt><trkpt lat="43.94163266299367" lon="12.355220064712123"><ele>163.0</ele><time>2026-04-11T13:24:32.999Z</time></trkpt><trkpt lat="43.94173812019764" lon="12.355312287006434"><ele>162.5</ele><time>2026-04-11T13:24:33.999Z</time></trkpt><trkpt lat="43.94184884634277" lon="12.355409257032887"><ele>162.0</ele><time>2026-04-11T13:24:34.999Z</time></trkpt><trkpt lat="43.941953367879655" lon="12.35550910093931"><ele>161.5</ele><time>2026-04-11T13:24:35.999Z</time></trkpt><trkpt lat="43.942060002377424" lon="12.355609557948727"><ele>161.0</ele><time>2026-04-11T13:24:36.999Z</time></trkpt><trkpt lat="43.94216166757488" lon="12.355703802532267"><ele>161.0</ele><time>2026-04-11T13:24:37.999Z</time></trkpt><trkpt lat="43.94226120038222" lon="12.355795219974238"><ele>161.0</ele><time>2026-04-11T13:24:38.999Z</time></trkpt><trkpt lat="43.9423612132828" lon="12.355887241791962"><ele>161.0</ele><time>2026-04-11T13:24:39.999Z</time></trkpt><trkpt lat="43.94246239859324" lon="12.355978171161079"><ele>161.0</ele><time>2026-04-11T13:24:40.999Z</time></trkpt><trkpt lat="43.94256218762204" lon="12.35606559006848"><ele>161.0</ele><time>2026-04-11T13:24:41.999Z</time></trkpt><trkpt lat="43.94266435761258" lon="12.35615716224086"><ele>161.0</ele><time>2026-04-11T13:24:42.999Z</time></trkpt><trkpt lat="43.94277006965607" lon="12.356253706578553"><ele>161.0</ele><time>2026-04-11T13:24:43.999Z</time></trkpt><trkpt lat="43.94287446610186" lon="12.35635281426184"><ele>161.0</ele><time>2026-04-11T13:24:44.999Z</time></trkpt><trkpt lat="43.942980215498636" lon="12.356453658831759"><ele>161.25</ele><time>2026-04-11T13:24:45.999Z</time></trkpt><trkpt lat="43.943085165160866" lon="12.356559637448335"><ele>161.5</ele><time>2026-04-11T13:24:46.999Z</time></trkpt><trkpt lat="43.94318525853187" lon="12.356668885692178"><ele>161.75</ele><time>2026-04-11T13:24:47.999Z</time></trkpt><trkpt lat="43.94328071554361" lon="12.35678372069991"><ele>162.0</ele><time>2026-04-11T13:24:48.999Z</time></trkpt><trkpt lat="43.943366956018025" lon="12.35691240038459"><ele>161.75</ele><time>2026-04-11T13:24:49.999Z</time></trkpt><trkpt lat="43.943456795764796" lon="12.357042032466678"><ele>161.5</ele><time>2026-04-11T13:24:50.999Z</time></trkpt><trkpt lat="43.94353697113798" lon="12.357174592940158"><ele>161.25</ele><time>2026-04-11T13:24:51.999Z</time></trkpt><trkpt lat="43.943617765474166" lon="12.357307034919828"><ele>161.0</ele><time>2026-04-11T13:24:52.999Z</time></trkpt><trkpt lat="43.9437003696596" lon="12.357435762415554"><ele>160.75</ele><time>2026-04-11T13:24:53.999Z</time></trkpt><trkpt lat="43.943784667723264" lon="12.357567608724068"><ele>160.5</ele><time>2026-04-11T13:24:54.999Z</time></trkpt><trkpt lat="43.94386821419476" lon="12.35770163728981"><ele>160.25</ele><time>2026-04-11T13:24:55.999Z</time></trkpt><trkpt lat="43.943954459792515" lon="12.357839882134689"><ele>160.0</ele><time>2026-04-11T13:24:56.999Z</time></trkpt><trkpt lat="43.94403773681645" lon="12.357982143462497"><ele>160.5</ele><time>2026-04-11T13:24:57.999Z</time></trkpt><trkpt lat="43.944118205638354" lon="12.358116999194555"><ele>161.0</ele><time>2026-04-11T13:24:58.999Z</time></trkpt><trkpt lat="43.944198907940084" lon="12.358245604218366"><ele>161.5</ele><time>2026-04-11T13:24:59.999Z</time></trkpt><trkpt lat="43.9442804411715" lon="12.358374144455249"><ele>162.0</ele><time>2026-04-11T13:25:00.999Z</time></trkpt><trkpt lat="43.94436122738749" lon="12.358503518310656"><ele>161.5</ele><time>2026-04-11T13:25:01.999Z</time></trkpt><trkpt lat="43.94444257262479" lon="12.358637416699402"><ele>161.0</ele><time>2026-04-11T13:25:02.999Z</time></trkpt><trkpt lat="43.94452402656263" lon="12.358769781144213"><ele>160.5</ele><time>2026-04-11T13:25:03.999Z</time></trkpt><trkpt lat="43.944605284232374" lon="12.358903019551537"><ele>160.0</ele><time>2026-04-11T13:25:04.999Z</time></trkpt><trkpt lat="43.94468708636354" lon="12.35903893961206"><ele>160.0</ele><time>2026-04-11T13:25:05.999Z</time></trkpt><trkpt lat="43.94477179148909" lon="12.359177042979178"><ele>160.0</ele><time>2026-04-11T13:25:06.999Z</time></trkpt><trkpt lat="43.94485751070405" lon="12.359317097911365"><ele>160.0</ele><time>2026-04-11T13:25:07.999Z</time></trkpt><trkpt lat="43.94494620369672" lon="12.359448499421177"><ele>160.0</ele><time>2026-04-11T13:25:08.999Z</time></trkpt><trkpt lat="43.94503232013284" lon="12.359581625179036"><ele>160.0</ele><time>2026-04-11T13:25:09.999Z</time></trkpt><trkpt lat="43.94511658812598" lon="12.35971300892352"><ele>160.0</ele><time>2026-04-11T13:25:10.999Z</time></trkpt><trkpt lat="43.945202331995176" lon="12.359852696983072"><ele>160.0</ele><time>2026-04-11T13:25:11.999Z</time></trkpt><trkpt lat="43.94528954424349" lon="12.359989673008895"><ele>160.0</ele><time>2026-04-11T13:25:12.999Z</time></trkpt><trkpt lat="43.94538371052717" lon="12.360121240573479"><ele>160.0</ele><time>2026-04-11T13:25:13.999Z</time></trkpt><trkpt lat="43.94548174193356" lon="12.360246038703938"><ele>160.0</ele><time>2026-04-11T13:25:14.999Z</time></trkpt><trkpt lat="43.945584921303265" lon="12.360360603427429"><ele>160.0</ele><time>2026-04-11T13:25:15.999Z</time></trkpt><trkpt lat="43.9456910971539" lon="12.360459862809678"><ele>160.0</ele><time>2026-04-11T13:25:16.999Z</time></trkpt><trkpt lat="43.94579938044704" lon="12.360555161663765"><ele>160.25</ele><time>2026-04-11T13:25:17.999Z</time></trkpt><trkpt lat="43.945907951660445" lon="12.360640978147808"><ele>160.5</ele><time>2026-04-11T13:25:18.999Z</time></trkpt><trkpt lat="43.94601581219803" lon="12.360721139557693"><ele>160.75</ele><time>2026-04-11T13:25:19.999Z</time></trkpt><trkpt lat="43.94612079579106" lon="12.360794331437562"><ele>161.0</ele><time>2026-04-11T13:25:20.999Z</time></trkpt><trkpt lat="43.94621384060997" lon="12.360862159270956"><ele>161.0</ele><time>2026-04-11T13:25:21.999Z</time></trkpt><trkpt lat="43.94629954895818" lon="12.36092863373626"><ele>161.0</ele><time>2026-04-11T13:25:22.999Z</time></trkpt><trkpt lat="43.946389339649976" lon="12.36099338586731"><ele>161.0</ele><time>2026-04-11T13:25:23.999Z</time></trkpt><trkpt lat="43.946481139856004" lon="12.361061138223834"><ele>161.0</ele><time>2026-04-11T13:25:24.999Z</time></trkpt><trkpt lat="43.94657514041749" lon="12.361132999881358"><ele>161.0</ele><time>2026-04-11T13:25:25.998Z</time></trkpt><trkpt lat="43.94666856857652" lon="12.361213580948897"><ele>161.5</ele><time>2026-04-11T13:25:26.998Z</time></trkpt><trkpt lat="43.94676517877111" lon="12.361299023478656"><ele>162.0</ele><time>2026-04-11T13:25:27.998Z</time></trkpt><trkpt lat="43.946865592618046" lon="12.36138603583766"><ele>162.5</ele><time>2026-04-11T13:25:28.998Z</time></trkpt><trkpt lat="43.946964388364925" lon="12.361479682445108"><ele>163.0</ele><time>2026-04-11T13:25:29.998Z</time></trkpt><trkpt lat="43.947062265278085" lon="12.36157898217506"><ele>163.0</ele><time>2026-04-11T13:25:30.998Z</time></trkpt><trkpt lat="43.94715692833504" lon="12.36166960473567"><ele>163.0</ele><time>2026-04-11T13:25:31.998Z</time></trkpt><trkpt lat="43.9472452022433" lon="12.361758610207469"><ele>163.0</ele><time>2026-04-11T13:25:32.998Z</time></trkpt><trkpt lat="43.947332026877" lon="12.361847438564197"><ele>163.0</ele><time>2026-04-11T13:25:33.998Z</time></trkpt><trkpt lat="43.947420939071236" lon="12.361941451257577"><ele>163.0</ele><time>2026-04-11T13:25:34.998Z</time></trkpt><trkpt lat="43.94751397716468" lon="12.362039867233731"><ele>163.0</ele><time>2026-04-11T13:25:35.998Z</time></trkpt><trkpt lat="43.94760716999599" lon="12.36214465824016"><ele>163.0</ele><time>2026-04-11T13:25:36.998Z</time></trkpt><trkpt lat="43.94770078473534" lon="12.362257491541216"><ele>163.0</ele><time>2026-04-11T13:25:37.998Z</time></trkpt><trkpt lat="43.94779472822778" lon="12.362379762906706"><ele>163.0</ele><time>2026-04-11T13:25:38.998Z</time></trkpt><trkpt lat="43.94788545136189" lon="12.362506532372835"><ele>163.0</ele><time>2026-04-11T13:25:39.998Z</time></trkpt><trkpt lat="43.947967876311" lon="12.362631601172287"><ele>163.0</ele><time>2026-04-11T13:25:40.998Z</time></trkpt><trkpt lat="43.948046588572105" lon="12.362756265535335"><ele>163.0</ele><time>2026-04-11T13:25:41.998Z</time></trkpt><trkpt lat="43.948125742966354" lon="12.362887344007637"><ele>163.0</ele><time>2026-04-11T13:25:42.998Z</time></trkpt><trkpt lat="43.948195953357974" lon="12.363021569044607"><ele>162.5</ele><time>2026-04-11T13:25:43.998Z</time></trkpt><trkpt lat="43.948260518436825" lon="12.363163668848028"><ele>162.0</ele><time>2026-04-11T13:25:44.998Z</time></trkpt><trkpt lat="43.94831949312896" lon="12.363308538849811"><ele>161.5</ele><time>2026-04-11T13:25:45.998Z</time></trkpt><trkpt lat="43.94837886782054" lon="12.363458139396917"><ele>161.0</ele><time>2026-04-11T13:25:46.998Z</time></trkpt><trkpt lat="43.948436750913764" lon="12.363608026954726"><ele>161.0</ele><time>2026-04-11T13:25:47.998Z</time></trkpt><trkpt lat="43.948489577866404" lon="12.363750567815735"><ele>161.0</ele><time>2026-04-11T13:25:48.998Z</time></trkpt><trkpt lat="43.948541488640494" lon="12.363891293553943"><ele>161.0</ele><time>2026-04-11T13:25:49.998Z</time></trkpt><trkpt lat="43.948595853505374" lon="12.364035141710305"><ele>161.0</ele><time>2026-04-11T13:25:50.998Z</time></trkpt><trkpt lat="43.94865297172994" lon="12.364183186687171"><ele>161.0</ele><time>2026-04-11T13:25:51.999Z</time></trkpt><trkpt lat="43.948708320018135" lon="12.364335549208727"><ele>161.0</ele><time>2026-04-11T13:25:52.999Z</time></trkpt><trkpt lat="43.948768464030145" lon="12.364488271745072"><ele>161.0</ele><time>2026-04-11T13:25:53.999Z</time></trkpt><trkpt lat="43.948830601354565" lon="12.36463732207087"><ele>161.0</ele><time>2026-04-11T13:25:54.999Z</time></trkpt><trkpt lat="43.94889363176021" lon="12.364781981504157"><ele>162.5</ele><time>2026-04-11T13:25:55.999Z</time></trkpt><trkpt lat="43.948960927631134" lon="12.364922151861691"><ele>164.0</ele><time>2026-04-11T13:25:56.999Z</time></trkpt><trkpt lat="43.9490319359612" lon="12.365058185466443"><ele>165.5</ele><time>2026-04-11T13:25:57.999Z</time></trkpt><trkpt lat="43.94910767661258" lon="12.365188884334806"><ele>167.0</ele><time>2026-04-11T13:25:58.999Z</time></trkpt><trkpt lat="43.94918318023317" lon="12.36531687200916"><ele>167.0</ele><time>2026-04-11T13:25:59.999Z</time></trkpt><trkpt lat="43.94926014246348" lon="12.365441897831053"><ele>167.0</ele><time>2026-04-11T13:26:00.999Z</time></trkpt><trkpt lat="43.949340603819245" lon="12.365561613754766"><ele>167.0</ele><time>2026-04-11T13:26:01.999Z</time></trkpt><trkpt lat="43.94942206942089" lon="12.365680059780944"><ele>167.0</ele><time>2026-04-11T13:26:02.999Z</time></trkpt><trkpt lat="43.949505189011425" lon="12.365796300466474"><ele>167.0</ele><time>2026-04-11T13:26:03.999Z</time></trkpt><trkpt lat="43.9495930135665" lon="12.365909627892757"><ele>167.0</ele><time>2026-04-11T13:26:04.999Z</time></trkpt><trkpt lat="43.94968251573383" lon="12.366022785661574"><ele>167.0</ele><time>2026-04-11T13:26:05.999Z</time></trkpt><trkpt lat="43.94977791585899" lon="12.366134070862936"><ele>167.0</ele><time>2026-04-11T13:26:06.999Z</time></trkpt><trkpt lat="43.94987352690842" lon="12.366241347088101"><ele>167.0</ele><time>2026-04-11T13:26:07.999Z</time></trkpt><trkpt lat="43.949964574307835" lon="12.36634157201121"><ele>167.0</ele><time>2026-04-11T13:26:08.999Z</time></trkpt><trkpt lat="43.95005754385206" lon="12.366443330262834"><ele>167.0</ele><time>2026-04-11T13:26:09.999Z</time></trkpt><trkpt lat="43.95015470492702" lon="12.366545815554947"><ele>167.0</ele><time>2026-04-11T13:26:10.999Z</time></trkpt><trkpt lat="43.950246375348264" lon="12.366645453290907"><ele>164.5</ele><time>2026-04-11T13:26:11.999Z</time></trkpt><trkpt lat="43.95033788754333" lon="12.366741090216872"><ele>162.0</ele><time>2026-04-11T13:26:12.999Z</time></trkpt><trkpt lat="43.95042642364124" lon="12.366842083541647"><ele>159.5</ele><time>2026-04-11T13:26:13.999Z</time></trkpt><trkpt lat="43.95051702420102" lon="12.366944321053257"><ele>157.0</ele><time>2026-04-11T13:26:14.999Z</time></trkpt><trkpt lat="43.950607808355706" lon="12.367047851967243"><ele>157.0</ele><time>2026-04-11T13:26:15.999Z</time></trkpt><trkpt lat="43.95069708033885" lon="12.367149900353319"><ele>157.0</ele><time>2026-04-11T13:26:16.999Z</time></trkpt><trkpt lat="43.950789819112956" lon="12.367254685572805"><ele>157.0</ele><time>2026-04-11T13:26:17.999Z</time></trkpt><trkpt lat="43.950885755702295" lon="12.367361749276306"><ele>157.0</ele><time>2026-04-11T13:26:18.999Z</time></trkpt><trkpt lat="43.95098350913147" lon="12.367473167948466"><ele>157.75</ele><time>2026-04-11T13:26:19.999Z</time></trkpt><trkpt lat="43.95107696652362" lon="12.367582136338303"><ele>158.5</ele><time>2026-04-11T13:26:20.999Z</time></trkpt><trkpt lat="43.951169183111" lon="12.367689561061626"><ele>159.25</ele><time>2026-04-11T13:26:21.999Z</time></trkpt><trkpt lat="43.95125937839959" lon="12.367793506966347"><ele>160.0</ele><time>2026-04-11T13:26:22.999Z</time></trkpt><trkpt lat="43.95135180162108" lon="12.367894955360423"><ele>160.0</ele><time>2026-04-11T13:26:23.999Z</time></trkpt><trkpt lat="43.95144229648721" lon="12.368001707416347"><ele>160.0</ele><time>2026-04-11T13:26:24.999Z</time></trkpt><trkpt lat="43.95153700559948" lon="12.368112184042172"><ele>160.0</ele><time>2026-04-11T13:26:25.999Z</time></trkpt><trkpt lat="43.95162637648004" lon="12.36822050543507"><ele>160.0</ele><time>2026-04-11T13:26:26.999Z</time></trkpt><trkpt lat="43.95171229057411" lon="12.368329568363876"><ele>161.25</ele><time>2026-04-11T13:26:27.999Z</time></trkpt><trkpt lat="43.951798411872545" lon="12.36844566399783"><ele>162.5</ele><time>2026-04-11T13:26:28.999Z</time></trkpt><trkpt lat="43.951881140345066" lon="12.36857065789844"><ele>163.75</ele><time>2026-04-11T13:26:29.999Z</time></trkpt><trkpt lat="43.9519609493639" lon="12.368704873646735"><ele>165.0</ele><time>2026-04-11T13:26:30.999Z</time></trkpt><trkpt lat="43.95202010231182" lon="12.368820134042085"><ele>165.5</ele><time>2026-04-11T13:26:31.999Z</time></trkpt><trkpt lat="43.952097531968235" lon="12.368960560121105"><ele>166.0</ele><time>2026-04-11T13:26:32.999Z</time></trkpt><trkpt lat="43.95218138607816" lon="12.369119017479326"><ele>166.5</ele><time>2026-04-11T13:26:33.999Z</time></trkpt><trkpt lat="43.9522516852681" lon="12.369276659298285"><ele>167.0</ele><time>2026-04-11T13:26:34.999Z</time></trkpt><trkpt lat="43.95231339003679" lon="12.369431938725684"><ele>167.0</ele><time>2026-04-11T13:26:35.999Z</time></trkpt><trkpt lat="43.95237280853619" lon="12.369588054979323"><ele>167.0</ele><time>2026-04-11T13:26:36.999Z</time></trkpt><trkpt lat="43.95244814351001" lon="12.369738974122402"><ele>167.0</ele><time>2026-04-11T13:26:37.999Z</time></trkpt><trkpt lat="43.952502497314555" lon="12.36989788896582"><ele>167.0</ele><time>2026-04-11T13:26:38.999Z</time></trkpt><trkpt lat="43.95255471300186" lon="12.370053807189102"><ele>166.25</ele><time>2026-04-11T13:26:39.999Z</time></trkpt><trkpt lat="43.952600256042174" lon="12.370208708829956"><ele>165.5</ele><time>2026-04-11T13:26:40.999Z</time></trkpt><trkpt lat="43.95264166730198" lon="12.370364697867494"><ele>164.75</ele><time>2026-04-11T13:26:41.999Z</time></trkpt><trkpt lat="43.95268310155193" lon="12.37051615094275"><ele>164.0</ele><time>2026-04-11T13:26:42.999Z</time></trkpt><trkpt lat="43.95272552881403" lon="12.3706665146517"><ele>164.0</ele><time>2026-04-11T13:26:43.999Z</time></trkpt><trkpt lat="43.952769223484836" lon="12.37081782013859"><ele>164.0</ele><time>2026-04-11T13:26:44.999Z</time></trkpt><trkpt lat="43.95281229693331" lon="12.370972593943675"><ele>164.0</ele><time>2026-04-11T13:26:45.999Z</time></trkpt><trkpt lat="43.95285346266014" lon="12.371134713208741"><ele>164.0</ele><time>2026-04-11T13:26:46.999Z</time></trkpt><trkpt lat="43.95289383107595" lon="12.371281975668749"><ele>164.0</ele><time>2026-04-11T13:26:47.999Z</time></trkpt><trkpt lat="43.95293702331228" lon="12.371430639879671"><ele>164.0</ele><time>2026-04-11T13:26:48.999Z</time></trkpt><trkpt lat="43.95297860842602" lon="12.37157471096433"><ele>164.0</ele><time>2026-04-11T13:26:49.999Z</time></trkpt><trkpt lat="43.953018423136925" lon="12.371725841308672"><ele>164.0</ele><time>2026-04-11T13:26:50.999Z</time></trkpt><trkpt lat="43.95306126011452" lon="12.371879951646777"><ele>164.0</ele><time>2026-04-11T13:26:51.999Z</time></trkpt><trkpt lat="43.95310141313331" lon="12.372030997418822"><ele>164.0</ele><time>2026-04-11T13:26:52.999Z</time></trkpt><trkpt lat="43.95314221278653" lon="12.372172167744274"><ele>164.0</ele><time>2026-04-11T13:26:53.999Z</time></trkpt><trkpt lat="43.953184414114325" lon="12.372306870118429"><ele>164.0</ele><time>2026-04-11T13:26:54.999Z</time></trkpt><trkpt lat="43.95322212371551" lon="12.37243991818571"><ele>164.0</ele><time>2026-04-11T13:26:55.999Z</time></trkpt><trkpt lat="43.95326006005395" lon="12.372568098168292"><ele>164.2</ele><time>2026-04-11T13:26:56.999Z</time></trkpt><trkpt lat="43.953292765630145" lon="12.3726894018345"><ele>164.39999999999998</ele><time>2026-04-11T13:26:57.999Z</time></trkpt><trkpt lat="43.953306742312975" lon="12.372813458163654"><ele>164.6</ele><time>2026-04-11T13:26:58.999Z</time></trkpt><trkpt lat="43.95330084509781" lon="12.372937406037192"><ele>164.8</ele><time>2026-04-11T13:26:59.999Z</time></trkpt><trkpt lat="43.953293969223274" lon="12.373047203999059"><ele>165.0</ele><time>2026-04-11T13:27:00.999Z</time></trkpt><trkpt lat="43.95334145594478" lon="12.373166276895816"><ele>164.2</ele><time>2026-04-11T13:27:01.999Z</time></trkpt><trkpt lat="43.95341582977705" lon="12.37327390086193"><ele>163.4</ele><time>2026-04-11T13:27:02.999Z</time></trkpt><trkpt lat="43.9534866538908" lon="12.373375445198857"><ele>162.60000000000002</ele><time>2026-04-11T13:27:03.999Z</time></trkpt><trkpt lat="43.953544116905455" lon="12.373492017673911"><ele>161.8</ele><time>2026-04-11T13:27:04.999Z</time></trkpt><trkpt lat="43.953585249426574" lon="12.373637192919418"><ele>161.0</ele><time>2026-04-11T13:27:05.999Z</time></trkpt><trkpt lat="43.95361365817452" lon="12.373774951423304"><ele>161.25</ele><time>2026-04-11T13:27:06.999Z</time></trkpt><trkpt lat="43.95366072596741" lon="12.373932701659902"><ele>161.5</ele><time>2026-04-11T13:27:07.999Z</time></trkpt><trkpt lat="43.95370093244134" lon="12.374083041492263"><ele>161.75</ele><time>2026-04-11T13:27:08.999Z</time></trkpt><trkpt lat="43.95374121001725" lon="12.374223896967731"><ele>162.0</ele><time>2026-04-11T13:27:09.999Z</time></trkpt><trkpt lat="43.953790772206574" lon="12.374361324907316"><ele>162.0</ele><time>2026-04-11T13:27:10.999Z</time></trkpt><trkpt lat="43.95383302108254" lon="12.374491619268309"><ele>162.0</ele><time>2026-04-11T13:27:11.999Z</time></trkpt><trkpt lat="43.953871922321554" lon="12.374625737665287"><ele>162.0</ele><time>2026-04-11T13:27:12.999Z</time></trkpt><trkpt lat="43.95390797016504" lon="12.374760382680687"><ele>162.0</ele><time>2026-04-11T13:27:13.999Z</time></trkpt><trkpt lat="43.95394688396608" lon="12.374901292414485"><ele>162.0</ele><time>2026-04-11T13:27:14.999Z</time></trkpt><trkpt lat="43.95398518790556" lon="12.375040236337354"><ele>162.2</ele><time>2026-04-11T13:27:15.999Z</time></trkpt><trkpt lat="43.954027617694706" lon="12.375180752811557"><ele>162.39999999999998</ele><time>2026-04-11T13:27:16.999Z</time></trkpt><trkpt lat="43.954069608564446" lon="12.375324302335217"><ele>162.60000000000002</ele><time>2026-04-11T13:27:17.999Z</time></trkpt><trkpt lat="43.95411224694827" lon="12.37546964091673"><ele>162.8</ele><time>2026-04-11T13:27:18.999Z</time></trkpt><trkpt lat="43.95415005859262" lon="12.37560940677483"><ele>163.0</ele><time>2026-04-11T13:27:19.999Z</time></trkpt><trkpt lat="43.95418840623544" lon="12.375755067493868"><ele>161.25</ele><time>2026-04-11T13:27:20.999Z</time></trkpt><trkpt lat="43.95422891722378" lon="12.375893539157452"><ele>159.5</ele><time>2026-04-11T13:27:21.999Z</time></trkpt><trkpt lat="43.954274311205026" lon="12.376044128143437"><ele>157.75</ele><time>2026-04-11T13:27:22.999Z</time></trkpt><trkpt lat="43.95432225283958" lon="12.37619594872634"><ele>156.0</ele><time>2026-04-11T13:27:23.999Z</time></trkpt><trkpt lat="43.95436895833968" lon="12.376347137677433"><ele>156.25</ele><time>2026-04-11T13:27:24.999Z</time></trkpt><trkpt lat="43.95442364408146" lon="12.376496920147934"><ele>156.5</ele><time>2026-04-11T13:27:25.999Z</time></trkpt><trkpt lat="43.954481774186256" lon="12.376649657583112"><ele>156.75</ele><time>2026-04-11T13:27:26.999Z</time></trkpt><trkpt lat="43.95453679973044" lon="12.376795487932313"><ele>157.0</ele><time>2026-04-11T13:27:27.999Z</time></trkpt><trkpt lat="43.954597617210084" lon="12.376953947607301"><ele>157.0</ele><time>2026-04-11T13:27:28.999Z</time></trkpt><trkpt lat="43.95464948943165" lon="12.377098722799463"><ele>157.0</ele><time>2026-04-11T13:27:29.999Z</time></trkpt><trkpt lat="43.95471535358041" lon="12.377251287554333"><ele>157.0</ele><time>2026-04-11T13:27:30.999Z</time></trkpt><trkpt lat="43.95477765197488" lon="12.377402664872411"><ele>157.0</ele><time>2026-04-11T13:27:31.999Z</time></trkpt><trkpt lat="43.95483543225775" lon="12.377550498236545"><ele>158.0</ele><time>2026-04-11T13:27:32.999Z</time></trkpt><trkpt lat="43.95489713604589" lon="12.377700582580106"><ele>159.0</ele><time>2026-04-11T13:27:33.999Z</time></trkpt><trkpt lat="43.9549577819226" lon="12.377846951162665"><ele>160.0</ele><time>2026-04-11T13:27:34.999Z</time></trkpt><trkpt lat="43.95501610525803" lon="12.37799146535669"><ele>161.0</ele><time>2026-04-11T13:27:35.999Z</time></trkpt><trkpt lat="43.95507217088746" lon="12.378129825988337"><ele>159.0</ele><time>2026-04-11T13:27:36.999Z</time></trkpt><trkpt lat="43.95513067400613" lon="12.378266790763984"><ele>157.0</ele><time>2026-04-11T13:27:37.999Z</time></trkpt><trkpt lat="43.95518765356778" lon="12.378402237907926"><ele>155.0</ele><time>2026-04-11T13:27:38.999Z</time></trkpt><trkpt lat="43.95523525667397" lon="12.378541243384957"><ele>153.0</ele><time>2026-04-11T13:27:39.999Z</time></trkpt><trkpt lat="43.95528557678123" lon="12.378674664869044"><ele>151.0</ele><time>2026-04-11T13:27:40.999Z</time></trkpt><trkpt lat="43.955345628559904" lon="12.37880536090402"><ele>151.5</ele><time>2026-04-11T13:27:41.999Z</time></trkpt><trkpt lat="43.955403240781884" lon="12.378936928103169"><ele>152.0</ele><time>2026-04-11T13:27:42.999Z</time></trkpt><trkpt lat="43.955465967353675" lon="12.379070356499803"><ele>152.5</ele><time>2026-04-11T13:27:43.999Z</time></trkpt><trkpt lat="43.955524152387845" lon="12.379212561654695"><ele>153.0</ele><time>2026-04-11T13:27:44.999Z</time></trkpt><trkpt lat="43.955590044754146" lon="12.379365159956318"><ele>153.0</ele><time>2026-04-11T13:27:45.999Z</time></trkpt><trkpt lat="43.95564786173628" lon="12.379510287752048"><ele>153.0</ele><time>2026-04-11T13:27:46.999Z</time></trkpt><trkpt lat="43.95571048754376" lon="12.379658870648436"><ele>153.0</ele><time>2026-04-11T13:27:47.999Z</time></trkpt><trkpt lat="43.95577923577133" lon="12.379809813648695"><ele>153.0</ele><time>2026-04-11T13:27:48.999Z</time></trkpt><trkpt lat="43.9558470626761" lon="12.379965475272012"><ele>151.5</ele><time>2026-04-11T13:27:49.999Z</time></trkpt><trkpt lat="43.955916396914695" lon="12.380124500778372"><ele>150.0</ele><time>2026-04-11T13:27:50.998Z</time></trkpt><trkpt lat="43.955979744257704" lon="12.380289230091563"><ele>148.5</ele><time>2026-04-11T13:27:51.998Z</time></trkpt><trkpt lat="43.95604170535572" lon="12.380448766928788"><ele>147.0</ele><time>2026-04-11T13:27:52.998Z</time></trkpt><trkpt lat="43.95609974148488" lon="12.380602710508711"><ele>147.0</ele><time>2026-04-11T13:27:53.998Z</time></trkpt><trkpt lat="43.9561573012255" lon="12.380752902754281"><ele>147.0</ele><time>2026-04-11T13:27:54.998Z</time></trkpt><trkpt lat="43.95621331417428" lon="12.380895030358383"><ele>147.0</ele><time>2026-04-11T13:27:55.998Z</time></trkpt><trkpt lat="43.956276201497445" lon="12.381040771653707"><ele>147.0</ele><time>2026-04-11T13:27:56.998Z</time></trkpt><trkpt lat="43.95634085163995" lon="12.381187963775401"><ele>147.0</ele><time>2026-04-11T13:27:58Z</time></trkpt><trkpt lat="43.95641031318437" lon="12.381339717405178"><ele>147.0</ele><time>2026-04-11T13:27:59Z</time></trkpt><trkpt lat="43.95646818329771" lon="12.381484177485262"><ele>147.0</ele><time>2026-04-11T13:28:00Z</time></trkpt><trkpt lat="43.95652577851575" lon="12.38163169235953"><ele>147.0</ele><time>2026-04-11T13:28:01Z</time></trkpt><trkpt lat="43.9565804762113" lon="12.381771803574276"><ele>148.0</ele><time>2026-04-11T13:28:02Z</time></trkpt><trkpt lat="43.95663731430682" lon="12.381906956469887"><ele>149.0</ele><time>2026-04-11T13:28:03Z</time></trkpt><trkpt lat="43.95669304271373" lon="12.38204065326268"><ele>150.0</ele><time>2026-04-11T13:28:04Z</time></trkpt><trkpt lat="43.95675179965329" lon="12.382168035343687"><ele>151.0</ele><time>2026-04-11T13:28:05Z</time></trkpt><trkpt lat="43.95680275555189" lon="12.382290320038305"><ele>152.0</ele><time>2026-04-11T13:28:06Z</time></trkpt><trkpt lat="43.956849958259454" lon="12.38242021265102"><ele>149.6</ele><time>2026-04-11T13:28:07Z</time></trkpt><trkpt lat="43.956897522509244" lon="12.382539069204963"><ele>147.2</ele><time>2026-04-11T13:28:08Z</time></trkpt><trkpt lat="43.956955463675854" lon="12.38266412053586"><ele>144.8</ele><time>2026-04-11T13:28:09Z</time></trkpt><trkpt lat="43.957014091263765" lon="12.382781776672589"><ele>142.4</ele><time>2026-04-11T13:28:10Z</time></trkpt><trkpt lat="43.957063448809876" lon="12.382898574599473"><ele>140.0</ele><time>2026-04-11T13:28:11Z</time></trkpt><trkpt lat="43.95710928718662" lon="12.383011806113862"><ele>141.75</ele><time>2026-04-11T13:28:12Z</time></trkpt><trkpt lat="43.95715392389847" lon="12.383129033461541"><ele>143.5</ele><time>2026-04-11T13:28:13Z</time></trkpt><trkpt lat="43.95721218065933" lon="12.383272393885502"><ele>145.25</ele><time>2026-04-11T13:28:14Z</time></trkpt><trkpt lat="43.95726899030948" lon="12.38342334265806"><ele>147.0</ele><time>2026-04-11T13:28:15Z</time></trkpt><trkpt lat="43.95733862417859" lon="12.383580220480052"><ele>147.0</ele><time>2026-04-11T13:28:16Z</time></trkpt><trkpt lat="43.95740687467349" lon="12.383748921602747"><ele>147.0</ele><time>2026-04-11T13:28:17Z</time></trkpt><trkpt lat="43.95747813473017" lon="12.383926385646948"><ele>147.0</ele><time>2026-04-11T13:28:18Z</time></trkpt><trkpt lat="43.95755501691744" lon="12.384109782171096"><ele>147.0</ele><time>2026-04-11T13:28:19Z</time></trkpt><trkpt lat="43.95762582733409" lon="12.384307826509547"><ele>143.75</ele><time>2026-04-11T13:28:20Z</time></trkpt><trkpt lat="43.9576868599843" lon="12.3845040275111"><ele>140.5</ele><time>2026-04-11T13:28:21Z</time></trkpt><trkpt lat="43.957747388381236" lon="12.384698092518045"><ele>137.25</ele><time>2026-04-11T13:28:22Z</time></trkpt><trkpt lat="43.95779009500551" lon="12.384880985794226"><ele>134.0</ele><time>2026-04-11T13:28:23Z</time></trkpt><trkpt lat="43.957823205423374" lon="12.385067544588338"><ele>134.25</ele><time>2026-04-11T13:28:24Z</time></trkpt><trkpt lat="43.95784524308715" lon="12.385259583087858"><ele>134.5</ele><time>2026-04-11T13:28:24.999Z</time></trkpt><trkpt lat="43.9578609455247" lon="12.385457456435438"><ele>134.75</ele><time>2026-04-11T13:28:25.999Z</time></trkpt><trkpt lat="43.95786874389407" lon="12.385653559075621"><ele>135.0</ele><time>2026-04-11T13:28:26.999Z</time></trkpt><trkpt lat="43.957864979811205" lon="12.38585863436426"><ele>135.0</ele><time>2026-04-11T13:28:27.999Z</time></trkpt><trkpt lat="43.957854285093305" lon="12.386044145547883"><ele>135.0</ele><time>2026-04-11T13:28:28.999Z</time></trkpt><trkpt lat="43.95783612288047" lon="12.386232519828631"><ele>135.0</ele><time>2026-04-11T13:28:29.999Z</time></trkpt><trkpt lat="43.95781140112278" lon="12.386411585988046"><ele>135.0</ele><time>2026-04-11T13:28:30.999Z</time></trkpt><trkpt lat="43.95778172644472" lon="12.386583436608984"><ele>134.75</ele><time>2026-04-11T13:28:31.999Z</time></trkpt><trkpt lat="43.95773756239319" lon="12.386766838070823"><ele>134.5</ele><time>2026-04-11T13:28:32.999Z</time></trkpt><trkpt lat="43.95769259039604" lon="12.386935201620489"><ele>134.25</ele><time>2026-04-11T13:28:33.999Z</time></trkpt><trkpt lat="43.95764667815435" lon="12.387110921599792"><ele>134.0</ele><time>2026-04-11T13:28:34.999Z</time></trkpt><trkpt lat="43.95759744256666" lon="12.38729085577287"><ele>135.0</ele><time>2026-04-11T13:28:35.999Z</time></trkpt><trkpt lat="43.95755363160131" lon="12.387466555247617"><ele>136.0</ele><time>2026-04-11T13:28:36.999Z</time></trkpt><trkpt lat="43.95750813232896" lon="12.387640435641034"><ele>137.0</ele><time>2026-04-11T13:28:37.999Z</time></trkpt><trkpt lat="43.95746321110186" lon="12.387807818692316"><ele>138.0</ele><time>2026-04-11T13:28:38.999Z</time></trkpt><trkpt lat="43.95741850537977" lon="12.38797133189296"><ele>137.0</ele><time>2026-04-11T13:28:39.999Z</time></trkpt><trkpt lat="43.95737423786695" lon="12.38814125684921"><ele>136.0</ele><time>2026-04-11T13:28:40.999Z</time></trkpt><trkpt lat="43.95732880014844" lon="12.388317553804045"><ele>135.0</ele><time>2026-04-11T13:28:41.999Z</time></trkpt><trkpt lat="43.95728724346819" lon="12.388490368259994"><ele>134.0</ele><time>2026-04-11T13:28:42.999Z</time></trkpt><trkpt lat="43.957241098348675" lon="12.388663220548114"><ele>134.0</ele><time>2026-04-11T13:28:43.999Z</time></trkpt><trkpt lat="43.95719749340679" lon="12.388825104760102"><ele>134.0</ele><time>2026-04-11T13:28:44.999Z</time></trkpt><trkpt lat="43.95714809805606" lon="12.388990960298004"><ele>134.0</ele><time>2026-04-11T13:28:45.999Z</time></trkpt><trkpt lat="43.95710899747531" lon="12.389152228557602"><ele>134.0</ele><time>2026-04-11T13:28:46.999Z</time></trkpt><trkpt lat="43.95707321461944" lon="12.389326526610565"><ele>133.25</ele><time>2026-04-11T13:28:47.999Z</time></trkpt><trkpt lat="43.95704499215829" lon="12.389496172675258"><ele>132.5</ele><time>2026-04-11T13:28:48.999Z</time></trkpt><trkpt lat="43.95701762863054" lon="12.389668958891496"><ele>131.75</ele><time>2026-04-11T13:28:49.999Z</time></trkpt><trkpt lat="43.956992743916786" lon="12.389849162002676"><ele>131.0</ele><time>2026-04-11T13:28:50.999Z</time></trkpt><trkpt lat="43.95697388035101" lon="12.390022708924416"><ele>131.0</ele><time>2026-04-11T13:28:51.999Z</time></trkpt><trkpt lat="43.956960789045034" lon="12.390195707169665"><ele>131.0</ele><time>2026-04-11T13:28:52.999Z</time></trkpt><trkpt lat="43.95695060689371" lon="12.39036687104645"><ele>131.0</ele><time>2026-04-11T13:28:53.999Z</time></trkpt><trkpt lat="43.95694420257752" lon="12.390545744040775"><ele>131.0</ele><time>2026-04-11T13:28:54.999Z</time></trkpt><trkpt lat="43.95694247422202" lon="12.390726962336746"><ele>130.75</ele><time>2026-04-11T13:28:55.999Z</time></trkpt><trkpt lat="43.95694607920363" lon="12.390906897634563"><ele>130.5</ele><time>2026-04-11T13:28:56.999Z</time></trkpt><trkpt lat="43.956956228904495" lon="12.391085198782644"><ele>130.25</ele><time>2026-04-11T13:28:57.999Z</time></trkpt><trkpt lat="43.95696869057373" lon="12.391260665864255"><ele>130.0</ele><time>2026-04-11T13:28:58.999Z</time></trkpt><trkpt lat="43.956985230473045" lon="12.391436329752784"><ele>130.0</ele><time>2026-04-11T13:28:59.999Z</time></trkpt><trkpt lat="43.95700451893086" lon="12.391605198905896"><ele>130.0</ele><time>2026-04-11T13:29:00.999Z</time></trkpt><trkpt lat="43.957027627889126" lon="12.391765076583676"><ele>130.0</ele><time>2026-04-11T13:29:01.999Z</time></trkpt><trkpt lat="43.95705812699701" lon="12.391919932832183"><ele>130.0</ele><time>2026-04-11T13:29:02.999Z</time></trkpt><trkpt lat="43.95709509343168" lon="12.392071022835546"><ele>130.25</ele><time>2026-04-11T13:29:03.999Z</time></trkpt><trkpt lat="43.95713374767129" lon="12.392227795718476"><ele>130.5</ele><time>2026-04-11T13:29:04.999Z</time></trkpt><trkpt lat="43.957176752006546" lon="12.392380041381736"><ele>130.75</ele><time>2026-04-11T13:29:05.999Z</time></trkpt><trkpt lat="43.95721941738965" lon="12.392532953317092"><ele>131.0</ele><time>2026-04-11T13:29:06.999Z</time></trkpt><trkpt lat="43.95726301485959" lon="12.392686020815917"><ele>131.0</ele><time>2026-04-11T13:29:07.999Z</time></trkpt><trkpt lat="43.95731315905994" lon="12.392838450783188"><ele>131.0</ele><time>2026-04-11T13:29:08.999Z</time></trkpt><trkpt lat="43.95736576545202" lon="12.392989700369416"><ele>131.0</ele><time>2026-04-11T13:29:09.999Z</time></trkpt><trkpt lat="43.95741994669104" lon="12.393146928964761"><ele>131.0</ele><time>2026-04-11T13:29:10.999Z</time></trkpt><trkpt lat="43.95747348264847" lon="12.393311682377313"><ele>130.25</ele><time>2026-04-11T13:29:11.999Z</time></trkpt><trkpt lat="43.957530325301974" lon="12.39347025767568"><ele>129.5</ele><time>2026-04-11T13:29:12.999Z</time></trkpt><trkpt lat="43.9575864608116" lon="12.393620410731677"><ele>128.75</ele><time>2026-04-11T13:29:13.999Z</time></trkpt><trkpt lat="43.957641062837695" lon="12.39377088551748"><ele>128.0</ele><time>2026-04-11T13:29:14.999Z</time></trkpt><trkpt lat="43.95769584814644" lon="12.39391707457099"><ele>128.0</ele><time>2026-04-11T13:29:15.999Z</time></trkpt><trkpt lat="43.95775210508697" lon="12.39407095262064"><ele>128.0</ele><time>2026-04-11T13:29:16.999Z</time></trkpt><trkpt lat="43.957805046717084" lon="12.394229040235743"><ele>128.0</ele><time>2026-04-11T13:29:17.999Z</time></trkpt><trkpt lat="43.957860074355615" lon="12.39438341870248"><ele>128.0</ele><time>2026-04-11T13:29:18.999Z</time></trkpt><trkpt lat="43.957914828083595" lon="12.39453512727462"><ele>129.0</ele><time>2026-04-11T13:29:19.999Z</time></trkpt><trkpt lat="43.95796797259451" lon="12.394686958422534"><ele>130.0</ele><time>2026-04-11T13:29:20.999Z</time></trkpt><trkpt lat="43.958022539882734" lon="12.394839268068095"><ele>131.0</ele><time>2026-04-11T13:29:21.999Z</time></trkpt><trkpt lat="43.958076366544695" lon="12.394994277786573"><ele>132.0</ele><time>2026-04-11T13:29:22.999Z</time></trkpt><trkpt lat="43.95813102498019" lon="12.39514893991459"><ele>132.0</ele><time>2026-04-11T13:29:23.999Z</time></trkpt><trkpt lat="43.95818667562349" lon="12.395303011685428"><ele>132.0</ele><time>2026-04-11T13:29:24.999Z</time></trkpt><trkpt lat="43.95824461255789" lon="12.395460134273762"><ele>132.0</ele><time>2026-04-11T13:29:25.999Z</time></trkpt><trkpt lat="43.95829998028924" lon="12.395621001885084"><ele>132.0</ele><time>2026-04-11T13:29:26.999Z</time></trkpt><trkpt lat="43.958353621197276" lon="12.395774056023825"><ele>131.5</ele><time>2026-04-11T13:29:27.999Z</time></trkpt><trkpt lat="43.958405412445856" lon="12.395924922247792"><ele>131.0</ele><time>2026-04-11T13:29:28.999Z</time></trkpt><trkpt lat="43.958457273417466" lon="12.39608037187719"><ele>130.5</ele><time>2026-04-11T13:29:29.999Z</time></trkpt><trkpt lat="43.958511441765936" lon="12.396233459144781"><ele>130.0</ele><time>2026-04-11T13:29:30.999Z</time></trkpt><trkpt lat="43.95856510528701" lon="12.396383415890169"><ele>130.0</ele><time>2026-04-11T13:29:31.999Z</time></trkpt><trkpt lat="43.95861854494602" lon="12.396531756711406"><ele>130.0</ele><time>2026-04-11T13:29:32.999Z</time></trkpt><trkpt lat="43.95867069549604" lon="12.396675089088319"><ele>130.0</ele><time>2026-04-11T13:29:33.999Z</time></trkpt><trkpt lat="43.95871980644385" lon="12.396808228924646"><ele>130.0</ele><time>2026-04-11T13:29:34.999Z</time></trkpt><trkpt lat="43.95876169041459" lon="12.396928446984122"><ele>130.0</ele><time>2026-04-11T13:29:35.999Z</time></trkpt><trkpt lat="43.958799206508566" lon="12.397035071506705"><ele>130.0</ele><time>2026-04-11T13:29:36.999Z</time></trkpt><trkpt lat="43.95882728109335" lon="12.39712239525758"><ele>130.0</ele><time>2026-04-11T13:29:37.999Z</time></trkpt><trkpt lat="43.95885709572416" lon="12.397262539114891"><ele>130.0</ele><time>2026-04-11T13:29:39.999Z</time></trkpt><trkpt lat="43.958888951735126" lon="12.397354403041177"><ele>130.0</ele><time>2026-04-11T13:29:41.999Z</time></trkpt><trkpt lat="43.958926034092315" lon="12.397431325424042"><ele>130.0</ele><time>2026-04-11T13:29:44.999Z</time></trkpt><trkpt lat="43.95895886042563" lon="12.3975247449772"><ele>130.0</ele><time>2026-04-11T13:30:52.999Z</time></trkpt><trkpt lat="43.959000718834034" lon="12.397609530134467"><ele>130.33333333333334</ele><time>2026-04-11T13:30:53.999Z</time></trkpt><trkpt lat="43.95904926292583" lon="12.397700070318395"><ele>130.66666666666669</ele><time>2026-04-11T13:30:54.999Z</time></trkpt><trkpt lat="43.959093065198985" lon="12.397787166892194"><ele>131.0</ele><time>2026-04-11T13:30:55.999Z</time></trkpt><trkpt lat="43.959138332470005" lon="12.397882060023633"><ele>131.33333333333334</ele><time>2026-04-11T13:30:56.999Z</time></trkpt><trkpt lat="43.959194243669494" lon="12.397991152745705"><ele>131.66666666666666</ele><time>2026-04-11T13:30:57.999Z</time></trkpt><trkpt lat="43.95924367774347" lon="12.398107687278495"><ele>132.0</ele><time>2026-04-11T13:30:58.999Z</time></trkpt><trkpt lat="43.959299809598534" lon="12.398221646970214"><ele>132.0</ele><time>2026-04-11T13:30:59.999Z</time></trkpt><trkpt lat="43.959357476606755" lon="12.398343313716952"><ele>132.0</ele><time>2026-04-11T13:31:00.999Z</time></trkpt><trkpt lat="43.95942592228088" lon="12.39846939939726"><ele>132.0</ele><time>2026-04-11T13:31:01.999Z</time></trkpt><trkpt lat="43.95949687276555" lon="12.398598351340388"><ele>132.0</ele><time>2026-04-11T13:31:02.999Z</time></trkpt><trkpt lat="43.9595704081282" lon="12.398736158745454"><ele>130.6</ele><time>2026-04-11T13:31:03.999Z</time></trkpt><trkpt lat="43.9596352305469" lon="12.398869407808133"><ele>129.2</ele><time>2026-04-11T13:31:04.999Z</time></trkpt><trkpt lat="43.959700784537716" lon="12.39899175686094"><ele>127.8</ele><time>2026-04-11T13:31:05.999Z</time></trkpt><trkpt lat="43.9597647405418" lon="12.399107037718693"><ele>126.4</ele><time>2026-04-11T13:31:06.999Z</time></trkpt><trkpt lat="43.959827917758034" lon="12.399222466454681"><ele>125.0</ele><time>2026-04-11T13:31:07.999Z</time></trkpt><trkpt lat="43.95989150211208" lon="12.399350506437887"><ele>125.0</ele><time>2026-04-11T13:31:08.999Z</time></trkpt><trkpt lat="43.95996341924549" lon="12.399477208451344"><ele>125.0</ele><time>2026-04-11T13:31:09.999Z</time></trkpt><trkpt lat="43.96003585215918" lon="12.39961212126105"><ele>125.0</ele><time>2026-04-11T13:31:10.999Z</time></trkpt><trkpt lat="43.96011094197499" lon="12.399752772847283"><ele>125.0</ele><time>2026-04-11T13:31:11.999Z</time></trkpt><trkpt lat="43.960189251065984" lon="12.399902783641886"><ele>125.0</ele><time>2026-04-11T13:31:12.999Z</time></trkpt><trkpt lat="43.96026953726083" lon="12.400052100052644"><ele>125.0</ele><time>2026-04-11T13:31:13.999Z</time></trkpt><trkpt lat="43.960348755381894" lon="12.400200654661852"><ele>125.0</ele><time>2026-04-11T13:31:14.999Z</time></trkpt><trkpt lat="43.96042777315475" lon="12.400343895440466"><ele>125.0</ele><time>2026-04-11T13:31:15.999Z</time></trkpt><trkpt lat="43.96050165817279" lon="12.400481981938444"><ele>126.0</ele><time>2026-04-11T13:31:16.999Z</time></trkpt><trkpt lat="43.960574475701485" lon="12.40061394563661"><ele>127.0</ele><time>2026-04-11T13:31:17.999Z</time></trkpt><trkpt lat="43.96064840018158" lon="12.4007399084913"><ele>128.0</ele><time>2026-04-11T13:31:18.999Z</time></trkpt><trkpt lat="43.960729111060026" lon="12.400858756249502"><ele>129.0</ele><time>2026-04-11T13:31:19.999Z</time></trkpt><trkpt lat="43.960806109112504" lon="12.400965688868103"><ele>129.4</ele><time>2026-04-11T13:31:20.999Z</time></trkpt><trkpt lat="43.9608794951575" lon="12.40106973728456"><ele>129.8</ele><time>2026-04-11T13:31:21.999Z</time></trkpt><trkpt lat="43.960954987604254" lon="12.401169186066705"><ele>130.2</ele><time>2026-04-11T13:31:22.999Z</time></trkpt><trkpt lat="43.961034521576586" lon="12.401258024934023"><ele>130.6</ele><time>2026-04-11T13:31:23.999Z</time></trkpt><trkpt lat="43.961113637320786" lon="12.401335557968189"><ele>131.0</ele><time>2026-04-11T13:31:24.999Z</time></trkpt><trkpt lat="43.96118425947975" lon="12.40142112909711"><ele>131.0</ele><time>2026-04-11T13:31:25.999Z</time></trkpt><trkpt lat="43.96124126145139" lon="12.401519653749633"><ele>131.0</ele><time>2026-04-11T13:31:26.999Z</time></trkpt><trkpt lat="43.9612897272754" lon="12.401622188635487"><ele>131.0</ele><time>2026-04-11T13:31:27.999Z</time></trkpt><trkpt lat="43.96134196372465" lon="12.401723506011857"><ele>131.0</ele><time>2026-04-11T13:31:28.999Z</time></trkpt><trkpt lat="43.96141638806999" lon="12.401796496797106"><ele>131.0</ele><time>2026-04-11T13:31:29.999Z</time></trkpt><trkpt lat="43.96151159341876" lon="12.401824769327694"><ele>131.0</ele><time>2026-04-11T13:31:30.999Z</time></trkpt><trkpt lat="43.96161612336418" lon="12.401837279123232"><ele>131.0</ele><time>2026-04-11T13:31:31.999Z</time></trkpt><trkpt lat="43.961725319082355" lon="12.401871821259487"><ele>131.0</ele><time>2026-04-11T13:31:32.999Z</time></trkpt><trkpt lat="43.96183125733982" lon="12.40192941886461"><ele>131.0</ele><time>2026-04-11T13:31:33.999Z</time></trkpt><trkpt lat="43.96194009392137" lon="12.401994569237612"><ele>131.0</ele><time>2026-04-11T13:31:34.999Z</time></trkpt><trkpt lat="43.96204613765938" lon="12.402058543762088"><ele>130.6</ele><time>2026-04-11T13:31:35.999Z</time></trkpt><trkpt lat="43.96215184227815" lon="12.402122242852329"><ele>130.2</ele><time>2026-04-11T13:31:36.999Z</time></trkpt><trkpt lat="43.96225368581945" lon="12.402182146705375"><ele>129.8</ele><time>2026-04-11T13:31:37.999Z</time></trkpt><trkpt lat="43.962347817987876" lon="12.402242149576809"><ele>129.4</ele><time>2026-04-11T13:31:38.999Z</time></trkpt><trkpt lat="43.962445577248005" lon="12.402305481371641"><ele>129.0</ele><time>2026-04-11T13:31:39.999Z</time></trkpt><trkpt lat="43.96254822956396" lon="12.402365595525962"><ele>129.0</ele><time>2026-04-11T13:31:40.999Z</time></trkpt><trkpt lat="43.96265308117301" lon="12.40242118638924"><ele>129.0</ele><time>2026-04-11T13:31:41.999Z</time></trkpt><trkpt lat="43.9627588306384" lon="12.40247900361775"><ele>129.0</ele><time>2026-04-11T13:31:42.999Z</time></trkpt><trkpt lat="43.96286140087847" lon="12.40254229782236"><ele>129.0</ele><time>2026-04-11T13:31:43.999Z</time></trkpt><trkpt lat="43.962970765149656" lon="12.402612150859447"><ele>129.0</ele><time>2026-04-11T13:31:44.999Z</time></trkpt><trkpt lat="43.96308305899219" lon="12.402683159239768"><ele>129.0</ele><time>2026-04-11T13:31:45.999Z</time></trkpt><trkpt lat="43.96319495968949" lon="12.402756133776732"><ele>129.0</ele><time>2026-04-11T13:31:46.999Z</time></trkpt><trkpt lat="43.96330284994825" lon="12.40283729014275"><ele>129.0</ele><time>2026-04-11T13:31:47.999Z</time></trkpt><trkpt lat="43.963405672477215" lon="12.402919425464411"><ele>129.0</ele><time>2026-04-11T13:31:48.999Z</time></trkpt><trkpt lat="43.963508882923" lon="12.403004368457424"><ele>129.0</ele><time>2026-04-11T13:31:49.999Z</time></trkpt><trkpt lat="43.96360670087886" lon="12.403095602331321"><ele>129.0</ele><time>2026-04-11T13:31:50.999Z</time></trkpt><trkpt lat="43.963704930570366" lon="12.403185752138427"><ele>129.0</ele><time>2026-04-11T13:31:51.999Z</time></trkpt><trkpt lat="43.96380056508516" lon="12.403277685722827"><ele>129.0</ele><time>2026-04-11T13:31:52.999Z</time></trkpt><trkpt lat="43.96389727197234" lon="12.403372639198702"><ele>129.0</ele><time>2026-04-11T13:31:53.999Z</time></trkpt><trkpt lat="43.96398986318958" lon="12.40347120330225"><ele>129.0</ele><time>2026-04-11T13:31:54.999Z</time></trkpt><trkpt lat="43.96407871980721" lon="12.403574558490318"><ele>129.0</ele><time>2026-04-11T13:31:55.999Z</time></trkpt><trkpt lat="43.964167068045114" lon="12.403687134132507"><ele>127.0</ele><time>2026-04-11T13:31:56.999Z</time></trkpt><trkpt lat="43.964261144097904" lon="12.4038046622521"><ele>125.0</ele><time>2026-04-11T13:31:57.999Z</time></trkpt><trkpt lat="43.964346669902106" lon="12.403924717216904"><ele>123.0</ele><time>2026-04-11T13:31:58.999Z</time></trkpt><trkpt lat="43.96443409661235" lon="12.40403981939176"><ele>121.0</ele><time>2026-04-11T13:31:59.999Z</time></trkpt><trkpt lat="43.964518881945665" lon="12.4041557142974"><ele>121.0</ele><time>2026-04-11T13:32:00.999Z</time></trkpt><trkpt lat="43.96459990107898" lon="12.404272293433179"><ele>121.0</ele><time>2026-04-11T13:32:01.999Z</time></trkpt><trkpt lat="43.96468222568632" lon="12.404404090769951"><ele>121.0</ele><time>2026-04-11T13:32:02.999Z</time></trkpt><trkpt lat="43.96476201166286" lon="12.404530675567813"><ele>121.0</ele><time>2026-04-11T13:32:03.999Z</time></trkpt><trkpt lat="43.9648439488382" lon="12.404644914391465"><ele>120.75</ele><time>2026-04-11T13:32:04.999Z</time></trkpt><trkpt lat="43.96492958708748" lon="12.40476050638278"><ele>120.5</ele><time>2026-04-11T13:32:05.999Z</time></trkpt><trkpt lat="43.96501371508386" lon="12.404874226841333"><ele>120.25</ele><time>2026-04-11T13:32:06.999Z</time></trkpt><trkpt lat="43.965101450592336" lon="12.40499401574208"><ele>120.0</ele><time>2026-04-11T13:32:07.999Z</time></trkpt><trkpt lat="43.965188072505946" lon="12.40510978032265"><ele>120.0</ele><time>2026-04-11T13:32:08.999Z</time></trkpt><trkpt lat="43.96527329776399" lon="12.405226058455517"><ele>120.0</ele><time>2026-04-11T13:32:10Z</time></trkpt><trkpt lat="43.96536248786223" lon="12.405343547784545"><ele>120.0</ele><time>2026-04-11T13:32:11Z</time></trkpt><trkpt lat="43.96545612645652" lon="12.40546567616552"><ele>120.0</ele><time>2026-04-11T13:32:12Z</time></trkpt><trkpt lat="43.965547305343" lon="12.405582764492495"><ele>119.5</ele><time>2026-04-11T13:32:13Z</time></trkpt><trkpt lat="43.96563722830645" lon="12.405698128855354"><ele>119.0</ele><time>2026-04-11T13:32:14Z</time></trkpt><trkpt lat="43.9657297839833" lon="12.405819473700157"><ele>118.5</ele><time>2026-04-11T13:32:15Z</time></trkpt><trkpt lat="43.96582324822624" lon="12.405943404512522"><ele>118.0</ele><time>2026-04-11T13:32:16Z</time></trkpt><trkpt lat="43.96591329335478" lon="12.406069776992425"><ele>118.0</ele><time>2026-04-11T13:32:17Z</time></trkpt><trkpt lat="43.965999087249415" lon="12.406208208225385"><ele>118.0</ele><time>2026-04-11T13:32:18Z</time></trkpt><trkpt lat="43.966080707555996" lon="12.4063466043621"><ele>118.0</ele><time>2026-04-11T13:32:19Z</time></trkpt><trkpt lat="43.96615945371628" lon="12.40648329283333"><ele>118.0</ele><time>2026-04-11T13:32:20Z</time></trkpt><trkpt lat="43.96623253036889" lon="12.406623896009199"><ele>118.25</ele><time>2026-04-11T13:32:21Z</time></trkpt><trkpt lat="43.96630361873048" lon="12.40676630981709"><ele>118.5</ele><time>2026-04-11T13:32:22Z</time></trkpt><trkpt lat="43.96637264140942" lon="12.406911682200423"><ele>118.75</ele><time>2026-04-11T13:32:23Z</time></trkpt><trkpt lat="43.966445712590264" lon="12.407064498266893"><ele>119.0</ele><time>2026-04-11T13:32:24Z</time></trkpt><trkpt lat="43.966517909531355" lon="12.407220548825588"><ele>118.25</ele><time>2026-04-11T13:32:25Z</time></trkpt><trkpt lat="43.96658969103203" lon="12.407376598196922"><ele>117.5</ele><time>2026-04-11T13:32:26Z</time></trkpt><trkpt lat="43.966658372146235" lon="12.407526831605006"><ele>116.75</ele><time>2026-04-11T13:32:27Z</time></trkpt><trkpt lat="43.96672945989264" lon="12.407676136936578"><ele>116.0</ele><time>2026-04-11T13:32:28Z</time></trkpt><trkpt lat="43.96680637707348" lon="12.407835662170552"><ele>116.33333333333333</ele><time>2026-04-11T13:32:29Z</time></trkpt><trkpt lat="43.966886737594386" lon="12.4080039998899"><ele>116.66666666666666</ele><time>2026-04-11T13:32:30Z</time></trkpt><trkpt lat="43.96696561234749" lon="12.408182909456043"><ele>117.0</ele><time>2026-04-11T13:32:31Z</time></trkpt><trkpt lat="43.96704697596215" lon="12.408369030142667"><ele>117.0</ele><time>2026-04-11T13:32:32Z</time></trkpt><trkpt lat="43.96712877318022" lon="12.408563044772492"><ele>117.0</ele><time>2026-04-11T13:32:33Z</time></trkpt><trkpt lat="43.967207748953186" lon="12.408753910746587"><ele>117.0</ele><time>2026-04-11T13:32:34Z</time></trkpt><trkpt lat="43.96728296145584" lon="12.408932175072374"><ele>117.0</ele><time>2026-04-11T13:32:35Z</time></trkpt><trkpt lat="43.96735878474759" lon="12.409102882455379"><ele>117.0</ele><time>2026-04-11T13:32:36Z</time></trkpt><trkpt lat="43.96743387653791" lon="12.409265431974724"><ele>117.0</ele><time>2026-04-11T13:32:37Z</time></trkpt><trkpt lat="43.96750671485091" lon="12.409427220171068"><ele>117.0</ele><time>2026-04-11T13:32:38Z</time></trkpt><trkpt lat="43.96758026725069" lon="12.40959575992606"><ele>116.25</ele><time>2026-04-11T13:32:39Z</time></trkpt><trkpt lat="43.96765706426849" lon="12.409764934993806"><ele>115.5</ele><time>2026-04-11T13:32:40Z</time></trkpt><trkpt lat="43.967730109381584" lon="12.409931609293709"><ele>114.75</ele><time>2026-04-11T13:32:41Z</time></trkpt><trkpt lat="43.96780392833672" lon="12.410093077873064"><ele>114.0</ele><time>2026-04-11T13:32:42Z</time></trkpt><trkpt lat="43.96787590199853" lon="12.410247378086723"><ele>114.0</ele><time>2026-04-11T13:32:43Z</time></trkpt><trkpt lat="43.96794414212613" lon="12.410395717041329"><ele>114.0</ele><time>2026-04-11T13:32:44Z</time></trkpt><trkpt lat="43.96801704687025" lon="12.410537802094796"><ele>114.0</ele><time>2026-04-11T13:32:45Z</time></trkpt><trkpt lat="43.96809347381912" lon="12.410679956868002"><ele>114.0</ele><time>2026-04-11T13:32:46Z</time></trkpt><trkpt lat="43.96817382172618" lon="12.41081954385783"><ele>114.0</ele><time>2026-04-11T13:32:47Z</time></trkpt><trkpt lat="43.96825678326667" lon="12.410957765099077"><ele>114.0</ele><time>2026-04-11T13:32:48Z</time></trkpt><trkpt lat="43.96834596442302" lon="12.411091055692939"><ele>114.0</ele><time>2026-04-11T13:32:49Z</time></trkpt><trkpt lat="43.968439388674575" lon="12.411220448056017"><ele>114.0</ele><time>2026-04-11T13:32:50Z</time></trkpt><trkpt lat="43.96853672938193" lon="12.411344113472147"><ele>115.0</ele><time>2026-04-11T13:32:51Z</time></trkpt><trkpt lat="43.96863973168109" lon="12.411463133537586"><ele>116.0</ele><time>2026-04-11T13:32:52Z</time></trkpt><trkpt lat="43.96874663512384" lon="12.411574657820141"><ele>117.0</ele><time>2026-04-11T13:32:52.999Z</time></trkpt><trkpt lat="43.96885579277257" lon="12.411673483719284"><ele>118.0</ele><time>2026-04-11T13:32:53.999Z</time></trkpt><trkpt lat="43.9689679955596" lon="12.411768667595643"><ele>118.0</ele><time>2026-04-11T13:32:54.999Z</time></trkpt><trkpt lat="43.969079678054" lon="12.411858778651585"><ele>118.0</ele><time>2026-04-11T13:32:55.999Z</time></trkpt><trkpt lat="43.96919662837686" lon="12.411944884924932"><ele>118.0</ele><time>2026-04-11T13:32:56.999Z</time></trkpt><trkpt lat="43.96931849001557" lon="12.41202348743463"><ele>118.0</ele><time>2026-04-11T13:32:57.999Z</time></trkpt><trkpt lat="43.969449541352816" lon="12.412089118188533"><ele>118.25</ele><time>2026-04-11T13:32:58.999Z</time></trkpt><trkpt lat="43.96957971116846" lon="12.41214857012967"><ele>118.5</ele><time>2026-04-11T13:32:59.999Z</time></trkpt><trkpt lat="43.96971287502484" lon="12.412205638503128"><ele>118.75</ele><time>2026-04-11T13:33:00.999Z</time></trkpt><trkpt lat="43.96984653863554" lon="12.412253725850428"><ele>119.0</ele><time>2026-04-11T13:33:01.999Z</time></trkpt><trkpt lat="43.969978429379516" lon="12.412294920719884"><ele>118.0</ele><time>2026-04-11T13:33:02.999Z</time></trkpt><trkpt lat="43.97011089662579" lon="12.412328163692393"><ele>117.0</ele><time>2026-04-11T13:33:03.999Z</time></trkpt><trkpt lat="43.97024329125762" lon="12.412349974115799"><ele>116.0</ele><time>2026-04-11T13:33:04.999Z</time></trkpt><trkpt lat="43.97037355436668" lon="12.412366713716137"><ele>115.0</ele><time>2026-04-11T13:33:05.999Z</time></trkpt><trkpt lat="43.970503832428776" lon="12.412375390644991"><ele>115.0</ele><time>2026-04-11T13:33:06.999Z</time></trkpt><trkpt lat="43.97062871839781" lon="12.412378137712423"><ele>115.0</ele><time>2026-04-11T13:33:07.999Z</time></trkpt><trkpt lat="43.970764098299824" lon="12.41237127461959"><ele>115.0</ele><time>2026-04-11T13:33:08.999Z</time></trkpt><trkpt lat="43.970898654432" lon="12.412352416806998"><ele>115.0</ele><time>2026-04-11T13:33:09.999Z</time></trkpt><trkpt lat="43.97102905807166" lon="12.412326823779889"><ele>115.5</ele><time>2026-04-11T13:33:10.999Z</time></trkpt><trkpt lat="43.971163511854996" lon="12.412291819647074"><ele>116.0</ele><time>2026-04-11T13:33:11.999Z</time></trkpt><trkpt lat="43.97129843880909" lon="12.412252746214072"><ele>116.5</ele><time>2026-04-11T13:33:12.999Z</time></trkpt><trkpt lat="43.97142867296541" lon="12.41221176447293"><ele>117.0</ele><time>2026-04-11T13:33:13.999Z</time></trkpt><trkpt lat="43.97155892174957" lon="12.412167954984566"><ele>116.5</ele><time>2026-04-11T13:33:14.999Z</time></trkpt><trkpt lat="43.971683513999295" lon="12.412127810057914"><ele>116.0</ele><time>2026-04-11T13:33:15.999Z</time></trkpt><trkpt lat="43.97180348397302" lon="12.412082783707827"><ele>115.5</ele><time>2026-04-11T13:33:16.999Z</time></trkpt><trkpt lat="43.97192131902956" lon="12.412036564378978"><ele>115.0</ele><time>2026-04-11T13:33:17.999Z</time></trkpt><trkpt lat="43.972032747681354" lon="12.411985868364349"><ele>116.5</ele><time>2026-04-11T13:33:18.999Z</time></trkpt><trkpt lat="43.97214152323089" lon="12.411935654475823"><ele>118.0</ele><time>2026-04-11T13:33:19.999Z</time></trkpt><trkpt lat="43.97224741475566" lon="12.411893395035658"><ele>119.5</ele><time>2026-04-11T13:33:20.999Z</time></trkpt><trkpt lat="43.972356380741736" lon="12.41187550820712"><ele>121.0</ele><time>2026-04-11T13:33:21.999Z</time></trkpt><trkpt lat="43.9724714738831" lon="12.411880416087513"><ele>122.4</ele><time>2026-04-11T13:33:22.999Z</time></trkpt><trkpt lat="43.972561446113744" lon="12.41192518308032"><ele>123.8</ele><time>2026-04-11T13:33:23.999Z</time></trkpt><trkpt lat="43.972664615578104" lon="12.41195528641392"><ele>125.20000000000002</ele><time>2026-04-11T13:33:24.999Z</time></trkpt><trkpt lat="43.972761557737705" lon="12.411944331486504"><ele>126.60000000000001</ele><time>2026-04-11T13:33:25.999Z</time></trkpt><trkpt lat="43.97286270231158" lon="12.411911769196683"><ele>128.0</ele><time>2026-04-11T13:33:26.999Z</time></trkpt><trkpt lat="43.97295131652535" lon="12.411875571471027"><ele>128.0</ele><time>2026-04-11T13:33:27.999Z</time></trkpt><trkpt lat="43.97303244954334" lon="12.411830045923864"><ele>128.0</ele><time>2026-04-11T13:33:28.999Z</time></trkpt><trkpt lat="43.973117312292224" lon="12.411782173199333"><ele>128.0</ele><time>2026-04-11T13:33:29.999Z</time></trkpt><trkpt lat="43.97320164447766" lon="12.41173943271637"><ele>128.0</ele><time>2026-04-11T13:33:30.999Z</time></trkpt><trkpt lat="43.973291198852316" lon="12.411693775094125"><ele>128.0</ele><time>2026-04-11T13:33:31.999Z</time></trkpt><trkpt lat="43.973386408995296" lon="12.411645758211481"><ele>129.4</ele><time>2026-04-11T13:33:32.999Z</time></trkpt><trkpt lat="43.973483617578836" lon="12.41159590700239"><ele>130.8</ele><time>2026-04-11T13:33:33.999Z</time></trkpt><trkpt lat="43.97358246885363" lon="12.411551506557934"><ele>132.2</ele><time>2026-04-11T13:33:34.999Z</time></trkpt><trkpt lat="43.97368805048684" lon="12.411511007947292"><ele>133.6</ele><time>2026-04-11T13:33:35.999Z</time></trkpt><trkpt lat="43.97379519459283" lon="12.41148047019335"><ele>135.0</ele><time>2026-04-11T13:33:36.999Z</time></trkpt><trkpt lat="43.97389961964663" lon="12.411452739784352"><ele>135.0</ele><time>2026-04-11T13:33:37.999Z</time></trkpt><trkpt lat="43.974006110356356" lon="12.411423696752264"><ele>135.0</ele><time>2026-04-11T13:33:38.999Z</time></trkpt><trkpt lat="43.97411438090902" lon="12.411394085092283"><ele>135.0</ele><time>2026-04-11T13:33:39.999Z</time></trkpt><trkpt lat="43.974218438075724" lon="12.41136043862799"><ele>135.0</ele><time>2026-04-11T13:33:40.999Z</time></trkpt><trkpt lat="43.974321733951065" lon="12.4113200343536"><ele>135.0</ele><time>2026-04-11T13:33:41.999Z</time></trkpt><trkpt lat="43.974425830676815" lon="12.411280869785944"><ele>133.75</ele><time>2026-04-11T13:33:42.999Z</time></trkpt><trkpt lat="43.974532591285865" lon="12.411239589559443"><ele>132.5</ele><time>2026-04-11T13:33:43.999Z</time></trkpt><trkpt lat="43.9746388572411" lon="12.411192181994265"><ele>131.25</ele><time>2026-04-11T13:33:44.999Z</time></trkpt><trkpt lat="43.97474844775712" lon="12.41113881729271"><ele>130.0</ele><time>2026-04-11T13:33:45.999Z</time></trkpt><trkpt lat="43.97485588969636" lon="12.411083950410143"><ele>130.0</ele><time>2026-04-11T13:33:46.999Z</time></trkpt><trkpt lat="43.97496109461529" lon="12.41102608492236"><ele>130.0</ele><time>2026-04-11T13:33:47.999Z</time></trkpt><trkpt lat="43.97506801354689" lon="12.410970759979485"><ele>130.0</ele><time>2026-04-11T13:33:48.999Z</time></trkpt><trkpt lat="43.975175319922386" lon="12.410915249668788"><ele>130.0</ele><time>2026-04-11T13:33:49.999Z</time></trkpt><trkpt lat="43.975287637854755" lon="12.410859206979076"><ele>132.5</ele><time>2026-04-11T13:33:50.999Z</time></trkpt><trkpt lat="43.97539881741035" lon="12.41080182436621"><ele>135.0</ele><time>2026-04-11T13:33:51.999Z</time></trkpt><trkpt lat="43.97551035994312" lon="12.4107446449833"><ele>137.5</ele><time>2026-04-11T13:33:52.999Z</time></trkpt><trkpt lat="43.975624884423084" lon="12.410686309989591"><ele>140.0</ele><time>2026-04-11T13:33:53.999Z</time></trkpt><trkpt lat="43.975740467256514" lon="12.4106242863601"><ele>140.0</ele><time>2026-04-11T13:33:54.999Z</time></trkpt><trkpt lat="43.97585330169964" lon="12.410568055775432"><ele>140.0</ele><time>2026-04-11T13:33:55.999Z</time></trkpt><trkpt lat="43.97596513252921" lon="12.41051883971857"><ele>140.0</ele><time>2026-04-11T13:33:56.999Z</time></trkpt><trkpt lat="43.97607655495267" lon="12.410475170704688"><ele>140.0</ele><time>2026-04-11T13:33:57.999Z</time></trkpt><trkpt lat="43.97618438801919" lon="12.410437306251486"><ele>138.75</ele><time>2026-04-11T13:33:58.999Z</time></trkpt><trkpt lat="43.97629695447874" lon="12.410405936626875"><ele>137.5</ele><time>2026-04-11T13:33:59.999Z</time></trkpt><trkpt lat="43.97640757397757" lon="12.410377503902094"><ele>136.25</ele><time>2026-04-11T13:34:00.999Z</time></trkpt><trkpt lat="43.97652137179399" lon="12.410348488756915"><ele>135.0</ele><time>2026-04-11T13:34:01.999Z</time></trkpt><trkpt lat="43.97663678554848" lon="12.410319540314427"><ele>135.75</ele><time>2026-04-11T13:34:02.999Z</time></trkpt><trkpt lat="43.97675689983871" lon="12.410294800824014"><ele>136.5</ele><time>2026-04-11T13:34:03.999Z</time></trkpt><trkpt lat="43.976876274403374" lon="12.410274824565988"><ele>137.25</ele><time>2026-04-11T13:34:04.999Z</time></trkpt><trkpt lat="43.9769990089589" lon="12.410256708811495"><ele>138.0</ele><time>2026-04-11T13:34:05.999Z</time></trkpt><trkpt lat="43.97712090298834" lon="12.410243934130676"><ele>138.0</ele><time>2026-04-11T13:34:06.999Z</time></trkpt><trkpt lat="43.97724476527453" lon="12.410233305306637"><ele>138.0</ele><time>2026-04-11T13:34:07.999Z</time></trkpt><trkpt lat="43.97736669110449" lon="12.410228014675985"><ele>138.0</ele><time>2026-04-11T13:34:08.999Z</time></trkpt><trkpt lat="43.977485385424664" lon="12.410226679282681"><ele>138.0</ele><time>2026-04-11T13:34:09.999Z</time></trkpt><trkpt lat="43.97759877440583" lon="12.410225545085128"><ele>138.25</ele><time>2026-04-11T13:34:10.999Z</time></trkpt><trkpt lat="43.9777239196503" lon="12.410235793439611"><ele>138.5</ele><time>2026-04-11T13:34:11.999Z</time></trkpt><trkpt lat="43.97783743689668" lon="12.410233060869833"><ele>138.75</ele><time>2026-04-11T13:34:12.999Z</time></trkpt><trkpt lat="43.97794981428441" lon="12.410244330329189"><ele>139.0</ele><time>2026-04-11T13:34:13.999Z</time></trkpt><trkpt lat="43.97807019838423" lon="12.410262360652483"><ele>139.0</ele><time>2026-04-11T13:34:14.999Z</time></trkpt><trkpt lat="43.97818688558284" lon="12.410262439062084"><ele>139.0</ele><time>2026-04-11T13:34:16Z</time></trkpt><trkpt lat="43.97830391999905" lon="12.41026449271228"><ele>139.0</ele><time>2026-04-11T13:34:17Z</time></trkpt><trkpt lat="43.97842454983564" lon="12.410271858257492"><ele>139.0</ele><time>2026-04-11T13:34:18Z</time></trkpt><trkpt lat="43.97854685361989" lon="12.410278375700273"><ele>140.0</ele><time>2026-04-11T13:34:19Z</time></trkpt><trkpt lat="43.97866434132437" lon="12.410285972758828"><ele>141.0</ele><time>2026-04-11T13:34:20Z</time></trkpt><trkpt lat="43.97877993530988" lon="12.410289930688483"><ele>142.0</ele><time>2026-04-11T13:34:21Z</time></trkpt><trkpt lat="43.97889185763892" lon="12.410295361572269"><ele>143.0</ele><time>2026-04-11T13:34:22Z</time></trkpt><trkpt lat="43.97901048266339" lon="12.410295059539743"><ele>143.0</ele><time>2026-04-11T13:34:23Z</time></trkpt><trkpt lat="43.97912254845213" lon="12.410296469523374"><ele>143.0</ele><time>2026-04-11T13:34:24Z</time></trkpt><trkpt lat="43.97924179557272" lon="12.410295879762362"><ele>143.0</ele><time>2026-04-11T13:34:25Z</time></trkpt><trkpt lat="43.97936418954891" lon="12.410307733025606"><ele>143.0</ele><time>2026-04-11T13:34:26Z</time></trkpt><trkpt lat="43.97949289270297" lon="12.410316577229926"><ele>143.25</ele><time>2026-04-11T13:34:27Z</time></trkpt><trkpt lat="43.97961516462207" lon="12.410325226044938"><ele>143.5</ele><time>2026-04-11T13:34:28Z</time></trkpt><trkpt lat="43.979736066796086" lon="12.410326589047834"><ele>143.75</ele><time>2026-04-11T13:34:29Z</time></trkpt><trkpt lat="43.979862220905495" lon="12.41033040003592"><ele>144.0</ele><time>2026-04-11T13:34:30Z</time></trkpt><trkpt lat="43.97998684230781" lon="12.41033637775134"><ele>144.25</ele><time>2026-04-11T13:34:31Z</time></trkpt><trkpt lat="43.98011337028465" lon="12.410338284569045"><ele>144.5</ele><time>2026-04-11T13:34:32Z</time></trkpt><trkpt lat="43.98023806212293" lon="12.410347581459"><ele>144.75</ele><time>2026-04-11T13:34:33Z</time></trkpt><trkpt lat="43.98036311695485" lon="12.41035763562424"><ele>145.0</ele><time>2026-04-11T13:34:34Z</time></trkpt><trkpt lat="43.98049241547126" lon="12.410371603563924"><ele>145.0</ele><time>2026-04-11T13:34:35Z</time></trkpt><trkpt lat="43.980613987116335" lon="12.410379847210502"><ele>145.0</ele><time>2026-04-11T13:34:36Z</time></trkpt><trkpt lat="43.980744178297684" lon="12.410385077344268"><ele>145.0</ele><time>2026-04-11T13:34:37Z</time></trkpt><trkpt lat="43.98087471043796" lon="12.410391582137967"><ele>145.0</ele><time>2026-04-11T13:34:38Z</time></trkpt><trkpt lat="43.98100234710353" lon="12.410398011203604"><ele>145.5</ele><time>2026-04-11T13:34:39Z</time></trkpt><trkpt lat="43.981129808046084" lon="12.410406714248415"><ele>146.0</ele><time>2026-04-11T13:34:40Z</time></trkpt><trkpt lat="43.98126039124466" lon="12.410405859777784"><ele>146.5</ele><time>2026-04-11T13:34:41Z</time></trkpt><trkpt lat="43.98138851858853" lon="12.410420750469846"><ele>147.0</ele><time>2026-04-11T13:34:42Z</time></trkpt><trkpt lat="43.981518794182136" lon="12.410433499030695"><ele>147.0</ele><time>2026-04-11T13:34:43Z</time></trkpt><trkpt lat="43.98164374598851" lon="12.410430194987782"><ele>147.0</ele><time>2026-04-11T13:34:44Z</time></trkpt><trkpt lat="43.98177781948656" lon="12.410434044985955"><ele>147.0</ele><time>2026-04-11T13:34:45Z</time></trkpt><trkpt lat="43.981911174650534" lon="12.4104423396381"><ele>147.0</ele><time>2026-04-11T13:34:46Z</time></trkpt><trkpt lat="43.98204066282617" lon="12.410445590983295"><ele>145.75</ele><time>2026-04-11T13:34:47Z</time></trkpt><trkpt lat="43.98217261487658" lon="12.410451503541257"><ele>144.5</ele><time>2026-04-11T13:34:48Z</time></trkpt><trkpt lat="43.98230077209857" lon="12.410458648174512"><ele>143.25</ele><time>2026-04-11T13:34:49Z</time></trkpt><trkpt lat="43.982425393988294" lon="12.410464153620508"><ele>142.0</ele><time>2026-04-11T13:34:50Z</time></trkpt><trkpt lat="43.98254771751301" lon="12.410468387159904"><ele>139.5</ele><time>2026-04-11T13:34:51Z</time></trkpt><trkpt lat="43.982675404066576" lon="12.410475530569007"><ele>137.0</ele><time>2026-04-11T13:34:52Z</time></trkpt><trkpt lat="43.98279982905385" lon="12.410478293137338"><ele>134.5</ele><time>2026-04-11T13:34:53Z</time></trkpt><trkpt lat="43.98293513913692" lon="12.410480065785636"><ele>132.0</ele><time>2026-04-11T13:34:54Z</time></trkpt><trkpt lat="43.98307139560599" lon="12.410481276547255"><ele>132.0</ele><time>2026-04-11T13:34:55Z</time></trkpt><trkpt lat="43.98320722742869" lon="12.410484568412986"><ele>132.0</ele><time>2026-04-11T13:34:56Z</time></trkpt><trkpt lat="43.983342026888224" lon="12.410491768442453"><ele>132.0</ele><time>2026-04-11T13:34:57Z</time></trkpt><trkpt lat="43.98347841128086" lon="12.41049606945385"><ele>132.0</ele><time>2026-04-11T13:34:58Z</time></trkpt><trkpt lat="43.983612259168616" lon="12.410500109595523"><ele>134.0</ele><time>2026-04-11T13:34:59Z</time></trkpt><trkpt lat="43.9837357430498" lon="12.410510481938733"><ele>136.0</ele><time>2026-04-11T13:35:00Z</time></trkpt><trkpt lat="43.983877539862725" lon="12.410522555189917"><ele>138.0</ele><time>2026-04-11T13:35:01Z</time></trkpt><trkpt lat="43.9840153550633" lon="12.410531397232322"><ele>140.0</ele><time>2026-04-11T13:35:02Z</time></trkpt><trkpt lat="43.984154944112085" lon="12.4105274263373"><ele>139.33333333333331</ele><time>2026-04-11T13:35:03Z</time></trkpt><trkpt lat="43.9843018126746" lon="12.410511456265358"><ele>138.66666666666666</ele><time>2026-04-11T13:35:04Z</time></trkpt><trkpt lat="43.984453097076226" lon="12.410484093690899"><ele>138.0</ele><time>2026-04-11T13:35:04.999Z</time></trkpt><trkpt lat="43.9846039104879" lon="12.41046226120201"><ele>135.0</ele><time>2026-04-11T13:35:05.999Z</time></trkpt><trkpt lat="43.984753074769465" lon="12.410446203624682"><ele>132.0</ele><time>2026-04-11T13:35:06.999Z</time></trkpt><trkpt lat="43.98489944835831" lon="12.410429483294532"><ele>129.0</ele><time>2026-04-11T13:35:07.999Z</time></trkpt><trkpt lat="43.98504156151157" lon="12.410418986035378"><ele>126.0</ele><time>2026-04-11T13:35:08.999Z</time></trkpt><trkpt lat="43.98518080743898" lon="12.410411753917664"><ele>125.0</ele><time>2026-04-11T13:35:09.999Z</time></trkpt><trkpt lat="43.9853223158781" lon="12.410407441249822"><ele>124.0</ele><time>2026-04-11T13:35:10.999Z</time></trkpt><trkpt lat="43.98545855093695" lon="12.410418144238239"><ele>123.0</ele><time>2026-04-11T13:35:11.999Z</time></trkpt><trkpt lat="43.9855926265564" lon="12.410434981184546"><ele>122.0</ele><time>2026-04-11T13:35:12.999Z</time></trkpt><trkpt lat="43.9857227180933" lon="12.410461866257956"><ele>122.0</ele><time>2026-04-11T13:35:13.999Z</time></trkpt><trkpt lat="43.98585757124592" lon="12.410496937844036"><ele>122.0</ele><time>2026-04-11T13:35:14.999Z</time></trkpt><trkpt lat="43.985989568000385" lon="12.410551904684633"><ele>122.0</ele><time>2026-04-11T13:35:15.999Z</time></trkpt><trkpt lat="43.98612094743302" lon="12.410625131204114"><ele>122.0</ele><time>2026-04-11T13:35:16.999Z</time></trkpt><trkpt lat="43.98625664888577" lon="12.410710536484814"><ele>122.0</ele><time>2026-04-11T13:35:17.999Z</time></trkpt><trkpt lat="43.9863879471546" lon="12.410806920644571"><ele>122.0</ele><time>2026-04-11T13:35:18.999Z</time></trkpt><trkpt lat="43.98650961709117" lon="12.410907515300623"><ele>122.0</ele><time>2026-04-11T13:35:19.999Z</time></trkpt><trkpt lat="43.98662486485637" lon="12.411026338668266"><ele>122.0</ele><time>2026-04-11T13:35:20.999Z</time></trkpt><trkpt lat="43.9867374627206" lon="12.4111537413007"><ele>121.0</ele><time>2026-04-11T13:35:21.999Z</time></trkpt><trkpt lat="43.986846774440345" lon="12.411290103365934"><ele>120.0</ele><time>2026-04-11T13:35:22.999Z</time></trkpt><trkpt lat="43.98695186128303" lon="12.411434602303572"><ele>119.0</ele><time>2026-04-11T13:35:23.999Z</time></trkpt><trkpt lat="43.98704997266939" lon="12.411585459460687"><ele>118.0</ele><time>2026-04-11T13:35:24.999Z</time></trkpt><trkpt lat="43.987141167646975" lon="12.411735862958993"><ele>118.0</ele><time>2026-04-11T13:35:25.999Z</time></trkpt><trkpt lat="43.987234273731886" lon="12.411889060445555"><ele>118.0</ele><time>2026-04-11T13:35:26.999Z</time></trkpt><trkpt lat="43.987326447569245" lon="12.412043311611066"><ele>118.0</ele><time>2026-04-11T13:35:27.999Z</time></trkpt><trkpt lat="43.98741957829705" lon="12.412193971156707"><ele>118.0</ele><time>2026-04-11T13:35:28.999Z</time></trkpt><trkpt lat="43.98750909657617" lon="12.412336225401951"><ele>116.25</ele><time>2026-04-11T13:35:29.999Z</time></trkpt><trkpt lat="43.98759301429081" lon="12.412471742346167"><ele>114.5</ele><time>2026-04-11T13:35:30.999Z</time></trkpt><trkpt lat="43.98767865434062" lon="12.412609493416525"><ele>112.75</ele><time>2026-04-11T13:35:31.999Z</time></trkpt><trkpt lat="43.987760301500884" lon="12.412747841233951"><ele>111.0</ele><time>2026-04-11T13:35:32.999Z</time></trkpt><trkpt lat="43.987840543938105" lon="12.41288101348673"><ele>112.5</ele><time>2026-04-11T13:35:33.999Z</time></trkpt><trkpt lat="43.98792545312006" lon="12.413011389152965"><ele>114.0</ele><time>2026-04-11T13:35:34.999Z</time></trkpt><trkpt lat="43.98801743432984" lon="12.413139534664632"><ele>115.5</ele><time>2026-04-11T13:35:35.999Z</time></trkpt><trkpt lat="43.98810753359066" lon="12.41326534268758"><ele>117.0</ele><time>2026-04-11T13:35:36.999Z</time></trkpt><trkpt lat="43.98820654781708" lon="12.41338473451084"><ele>117.0</ele><time>2026-04-11T13:35:37.999Z</time></trkpt><trkpt lat="43.98830932581671" lon="12.413490042202344"><ele>117.0</ele><time>2026-04-11T13:35:38.999Z</time></trkpt><trkpt lat="43.98841164459334" lon="12.413591731186921"><ele>117.0</ele><time>2026-04-11T13:35:39.999Z</time></trkpt><trkpt lat="43.98851639170039" lon="12.413682140029984"><ele>117.0</ele><time>2026-04-11T13:35:40.999Z</time></trkpt><trkpt lat="43.988621787315616" lon="12.413763141965307"><ele>116.5</ele><time>2026-04-11T13:35:41.999Z</time></trkpt><trkpt lat="43.98872434829367" lon="12.413842494422047"><ele>116.0</ele><time>2026-04-11T13:35:42.999Z</time></trkpt><trkpt lat="43.98882522347961" lon="12.413914645591007"><ele>115.5</ele><time>2026-04-11T13:35:43.999Z</time></trkpt><trkpt lat="43.98893032420681" lon="12.413979320480784"><ele>115.0</ele><time>2026-04-11T13:35:44.999Z</time></trkpt><trkpt lat="43.98903592267001" lon="12.414042082859188"><ele>115.0</ele><time>2026-04-11T13:35:45.999Z</time></trkpt><trkpt lat="43.9891414897798" lon="12.414105900692846"><ele>115.0</ele><time>2026-04-11T13:35:46.999Z</time></trkpt><trkpt lat="43.989248137211646" lon="12.414170365543486"><ele>115.0</ele><time>2026-04-11T13:35:47.999Z</time></trkpt><trkpt lat="43.989355441752615" lon="12.414234076093502"><ele>115.0</ele><time>2026-04-11T13:35:48.999Z</time></trkpt><trkpt lat="43.989462463627035" lon="12.41429929082893"><ele>113.25</ele><time>2026-04-11T13:35:49.999Z</time></trkpt><trkpt lat="43.98956848608992" lon="12.414365253987256"><ele>111.5</ele><time>2026-04-11T13:35:50.999Z</time></trkpt><trkpt lat="43.98967554712084" lon="12.414434506885039"><ele>109.75</ele><time>2026-04-11T13:35:51.999Z</time></trkpt><trkpt lat="43.98978215102291" lon="12.41451031370219"><ele>108.0</ele><time>2026-04-11T13:35:52.999Z</time></trkpt><trkpt lat="43.98988736507618" lon="12.414592901827415"><ele>107.5</ele><time>2026-04-11T13:35:53.999Z</time></trkpt><trkpt lat="43.98998982157142" lon="12.414681075900644"><ele>107.0</ele><time>2026-04-11T13:35:54.999Z</time></trkpt><trkpt lat="43.99008857163578" lon="12.41477516055705"><ele>106.5</ele><time>2026-04-11T13:35:55.999Z</time></trkpt><trkpt lat="43.9901859494075" lon="12.414869093077279"><ele>106.0</ele><time>2026-04-11T13:35:56.999Z</time></trkpt><trkpt lat="43.990282438553606" lon="12.414962827054074"><ele>106.0</ele><time>2026-04-11T13:35:57.999Z</time></trkpt><trkpt lat="43.99037701202886" lon="12.41505501220071"><ele>106.0</ele><time>2026-04-11T13:35:58.999Z</time></trkpt><trkpt lat="43.99046858248999" lon="12.415146884775691"><ele>106.0</ele><time>2026-04-11T13:35:59.999Z</time></trkpt><trkpt lat="43.99055858948362" lon="12.415236404838938"><ele>106.0</ele><time>2026-04-11T13:36:00.999Z</time></trkpt><trkpt lat="43.99064611628957" lon="12.415324858151696"><ele>106.0</ele><time>2026-04-11T13:36:01.999Z</time></trkpt><trkpt lat="43.99072978947289" lon="12.415411710416496"><ele>105.6</ele><time>2026-04-11T13:36:02.999Z</time></trkpt><trkpt lat="43.990815597968094" lon="12.415495654660457"><ele>105.19999999999999</ele><time>2026-04-11T13:36:03.999Z</time></trkpt><trkpt lat="43.99090365826166" lon="12.41558064207754"><ele>104.80000000000001</ele><time>2026-04-11T13:36:04.999Z</time></trkpt><trkpt lat="43.99099187758779" lon="12.415666537975493"><ele>104.4</ele><time>2026-04-11T13:36:05.999Z</time></trkpt><trkpt lat="43.9910779603109" lon="12.415756061034397"><ele>104.0</ele><time>2026-04-11T13:36:06.999Z</time></trkpt><trkpt lat="43.99116317609392" lon="12.415848167902281"><ele>104.0</ele><time>2026-04-11T13:36:07.999Z</time></trkpt><trkpt lat="43.99123991875932" lon="12.415951390823189"><ele>104.0</ele><time>2026-04-11T13:36:08.999Z</time></trkpt><trkpt lat="43.99130410487123" lon="12.41606313916097"><ele>104.0</ele><time>2026-04-11T13:36:09.999Z</time></trkpt><trkpt lat="43.9913637814154" lon="12.416177981862852"><ele>104.0</ele><time>2026-04-11T13:36:10.999Z</time></trkpt><trkpt lat="43.991442522993054" lon="12.416272213528162"><ele>104.0</ele><time>2026-04-11T13:36:11.999Z</time></trkpt><trkpt lat="43.991539324697854" lon="12.41633339004508"><ele>104.0</ele><time>2026-04-11T13:36:12.999Z</time></trkpt><trkpt lat="43.99164445852084" lon="12.41637626432639"><ele>104.0</ele><time>2026-04-11T13:36:13.999Z</time></trkpt><trkpt lat="43.991751214008204" lon="12.416438393455888"><ele>104.0</ele><time>2026-04-11T13:36:14.999Z</time></trkpt><trkpt lat="43.99184412242284" lon="12.416538994706377"><ele>104.0</ele><time>2026-04-11T13:36:15.999Z</time></trkpt><trkpt lat="43.991940858384105" lon="12.41664970911653"><ele>104.0</ele><time>2026-04-11T13:36:16.999Z</time></trkpt><trkpt lat="43.99204431363298" lon="12.416755888969428"><ele>104.0</ele><time>2026-04-11T13:36:17.999Z</time></trkpt><trkpt lat="43.99214691400893" lon="12.41686472578228"><ele>104.0</ele><time>2026-04-11T13:36:18.999Z</time></trkpt><trkpt lat="43.99224348432597" lon="12.416983150487363"><ele>104.0</ele><time>2026-04-11T13:36:19.999Z</time></trkpt><trkpt lat="43.992338793761675" lon="12.41710357750574"><ele>103.75</ele><time>2026-04-11T13:36:21Z</time></trkpt><trkpt lat="43.99242931093994" lon="12.417216516648113"><ele>103.5</ele><time>2026-04-11T13:36:22Z</time></trkpt><trkpt lat="43.99251681776892" lon="12.417323820356959"><ele>103.25</ele><time>2026-04-11T13:36:23Z</time></trkpt><trkpt lat="43.992601691370346" lon="12.417435130845812"><ele>103.0</ele><time>2026-04-11T13:36:24Z</time></trkpt><trkpt lat="43.99268761311231" lon="12.417552157019694"><ele>103.0</ele><time>2026-04-11T13:36:25Z</time></trkpt><trkpt lat="43.99277473783264" lon="12.417673728194645"><ele>103.0</ele><time>2026-04-11T13:36:26Z</time></trkpt><trkpt lat="43.992863464889226" lon="12.417796829993614"><ele>103.0</ele><time>2026-04-11T13:36:27Z</time></trkpt><trkpt lat="43.992951734948946" lon="12.417922079899478"><ele>103.0</ele><time>2026-04-11T13:36:28Z</time></trkpt><trkpt lat="43.993037829156236" lon="12.418048287611715"><ele>103.0</ele><time>2026-04-11T13:36:29Z</time></trkpt><trkpt lat="43.99311575857672" lon="12.418173480653442"><ele>103.0</ele><time>2026-04-11T13:36:30Z</time></trkpt><trkpt lat="43.993190144063966" lon="12.41828590143042"><ele>103.0</ele><time>2026-04-11T13:36:31Z</time></trkpt><trkpt lat="43.99326925530478" lon="12.418394771889533"><ele>103.0</ele><time>2026-04-11T13:36:32Z</time></trkpt><trkpt lat="43.9933548611553" lon="12.418499852761212"><ele>103.00000000000001</ele><time>2026-04-11T13:36:33Z</time></trkpt><trkpt lat="43.993434493782686" lon="12.418595131578874"><ele>103.0</ele><time>2026-04-11T13:36:34Z</time></trkpt><trkpt lat="43.9935085700887" lon="12.418678978679944"><ele>103.0</ele><time>2026-04-11T13:36:35Z</time></trkpt><trkpt lat="43.99356630558784" lon="12.418755553147456"><ele>103.0</ele><time>2026-04-11T13:36:36Z</time></trkpt><trkpt lat="43.993615261854245" lon="12.418828895890933"><ele>103.00000000000001</ele><time>2026-04-11T13:36:37Z</time></trkpt><trkpt lat="43.99365619463035" lon="12.41891371983967"><ele>103.0</ele><time>2026-04-11T13:36:38Z</time></trkpt><trkpt lat="43.993693687453494" lon="12.418999901528888"><ele>103.14285714285714</ele><time>2026-04-11T13:36:39Z</time></trkpt><trkpt lat="43.99372921556698" lon="12.419077094915606"><ele>103.28571428571428</ele><time>2026-04-11T13:36:40Z</time></trkpt><trkpt lat="43.993770727462305" lon="12.419145546839264"><ele>103.42857142857142</ele><time>2026-04-11T13:36:41Z</time></trkpt><trkpt lat="43.993813011031556" lon="12.41921481663105"><ele>103.57142857142857</ele><time>2026-04-11T13:36:42Z</time></trkpt><trkpt lat="43.99386159964974" lon="12.419290789916216"><ele>103.71428571428572</ele><time>2026-04-11T13:36:43Z</time></trkpt><trkpt lat="43.993915336366626" lon="12.41937461660484"><ele>103.85714285714285</ele><time>2026-04-11T13:36:44Z</time></trkpt><trkpt lat="43.99397093946579" lon="12.41945935603148"><ele>104.0</ele><time>2026-04-11T13:36:45Z</time></trkpt><trkpt lat="43.994032232354286" lon="12.419550202130221"><ele>104.0</ele><time>2026-04-11T13:36:46Z</time></trkpt><trkpt lat="43.99410146932477" lon="12.419642221063482"><ele>104.0</ele><time>2026-04-11T13:36:47Z</time></trkpt><trkpt lat="43.99416875657039" lon="12.419740967132018"><ele>104.0</ele><time>2026-04-11T13:36:48Z</time></trkpt><trkpt lat="43.994242356202946" lon="12.419848992953302"><ele>104.0</ele><time>2026-04-11T13:36:49Z</time></trkpt><trkpt lat="43.99431509027805" lon="12.419961104254243"><ele>104.0</ele><time>2026-04-11T13:36:50Z</time></trkpt><trkpt lat="43.99438407253323" lon="12.420072477153749"><ele>104.0</ele><time>2026-04-11T13:36:51Z</time></trkpt><trkpt lat="43.9944523338087" lon="12.420179324694754"><ele>104.0</ele><time>2026-04-11T13:36:52Z</time></trkpt><trkpt lat="43.99452126887913" lon="12.420286324227009"><ele>104.0</ele><time>2026-04-11T13:36:53Z</time></trkpt><trkpt lat="43.99458451970056" lon="12.420390570439476"><ele>104.0</ele><time>2026-04-11T13:36:54Z</time></trkpt><trkpt lat="43.99464512313336" lon="12.420490585828464"><ele>104.0</ele><time>2026-04-11T13:36:55Z</time></trkpt><trkpt lat="43.99470921903809" lon="12.42058701687498"><ele>104.0</ele><time>2026-04-11T13:36:56Z</time></trkpt><trkpt lat="43.994775383783264" lon="12.420687239880088"><ele>104.0</ele><time>2026-04-11T13:36:57Z</time></trkpt><trkpt lat="43.9948447536613" lon="12.42078733399188"><ele>104.0</ele><time>2026-04-11T13:36:58Z</time></trkpt><trkpt lat="43.99491121152748" lon="12.420882714139294"><ele>104.0</ele><time>2026-04-11T13:36:59Z</time></trkpt><trkpt lat="43.994979834116535" lon="12.420984574948065"><ele>104.0</ele><time>2026-04-11T13:37:00Z</time></trkpt><trkpt lat="43.99505253450688" lon="12.421085441489826"><ele>103.6</ele><time>2026-04-11T13:37:01Z</time></trkpt><trkpt lat="43.99512541688795" lon="12.42119036070382"><ele>103.2</ele><time>2026-04-11T13:37:02Z</time></trkpt><trkpt lat="43.99519881538183" lon="12.421304343903394"><ele>102.8</ele><time>2026-04-11T13:37:03Z</time></trkpt><trkpt lat="43.99527425213216" lon="12.421421169444326"><ele>102.39999999999999</ele><time>2026-04-11T13:37:04Z</time></trkpt><trkpt lat="43.9953520805724" lon="12.421535569623725"><ele>102.0</ele><time>2026-04-11T13:37:05Z</time></trkpt><trkpt lat="43.99542652051567" lon="12.421648550161132"><ele>102.0</ele><time>2026-04-11T13:37:06Z</time></trkpt><trkpt lat="43.995501341691224" lon="12.421761791308173"><ele>102.0</ele><time>2026-04-11T13:37:07Z</time></trkpt><trkpt lat="43.99557765331019" lon="12.421876576832643"><ele>102.0</ele><time>2026-04-11T13:37:07.999Z</time></trkpt><trkpt lat="43.9956539547538" lon="12.42199155225939"><ele>102.0</ele><time>2026-04-11T13:37:08.999Z</time></trkpt><trkpt lat="43.99573343142254" lon="12.422104046356868"><ele>102.0</ele><time>2026-04-11T13:37:09.999Z</time></trkpt><trkpt lat="43.995813468679984" lon="12.422223178365181"><ele>102.0</ele><time>2026-04-11T13:37:10.999Z</time></trkpt><trkpt lat="43.99589540257046" lon="12.422340718645795"><ele>102.0</ele><time>2026-04-11T13:37:11.999Z</time></trkpt><trkpt lat="43.99597698589145" lon="12.422458313603174"><ele>102.0</ele><time>2026-04-11T13:37:12.999Z</time></trkpt><trkpt lat="43.99605968108834" lon="12.422578617841824"><ele>102.0</ele><time>2026-04-11T13:37:13.999Z</time></trkpt><trkpt lat="43.996140554255085" lon="12.42269473025368"><ele>102.0</ele><time>2026-04-11T13:37:14.999Z</time></trkpt><trkpt lat="43.99621590650723" lon="12.422806085964737"><ele>102.0</ele><time>2026-04-11T13:37:15.999Z</time></trkpt><trkpt lat="43.99628914276547" lon="12.422915961600214"><ele>102.0</ele><time>2026-04-11T13:37:16.999Z</time></trkpt><trkpt lat="43.99636330157787" lon="12.423023288389624"><ele>102.0</ele><time>2026-04-11T13:37:17.999Z</time></trkpt><trkpt lat="43.996437621880126" lon="12.423127419324265"><ele>102.0</ele><time>2026-04-11T13:37:18.999Z</time></trkpt><trkpt lat="43.996508397312866" lon="12.42323031066867"><ele>102.0</ele><time>2026-04-11T13:37:19.999Z</time></trkpt><trkpt lat="43.996581878964975" lon="12.423337301924864"><ele>102.0</ele><time>2026-04-11T13:37:20.999Z</time></trkpt><trkpt lat="43.996649718070536" lon="12.423441918659456"><ele>102.0</ele><time>2026-04-11T13:37:21.999Z</time></trkpt><trkpt lat="43.99671416183719" lon="12.423543989412568"><ele>102.0</ele><time>2026-04-11T13:37:22.999Z</time></trkpt><trkpt lat="43.99677898818256" lon="12.423639983365518"><ele>102.0</ele><time>2026-04-11T13:37:23.999Z</time></trkpt><trkpt lat="43.99683957426447" lon="12.42373189998554"><ele>102.0</ele><time>2026-04-11T13:37:24.999Z</time></trkpt><trkpt lat="43.99689346183527" lon="12.423819927055703"><ele>102.0</ele><time>2026-04-11T13:37:25.999Z</time></trkpt><trkpt lat="43.99693811802835" lon="12.423908190493156"><ele>102.0</ele><time>2026-04-11T13:37:26.999Z</time></trkpt><trkpt lat="43.99697214502055" lon="12.423987381173422"><ele>102.0</ele><time>2026-04-11T13:37:27.999Z</time></trkpt><trkpt lat="43.99701709904501" lon="12.424140659072926"><ele>102.0</ele><time>2026-04-11T13:37:29.999Z</time></trkpt><trkpt lat="43.99702295578592" lon="12.424229811304492"><ele>102.0</ele><time>2026-04-11T13:37:30.999Z</time></trkpt><trkpt lat="43.997033388769644" lon="12.424322696337725"><ele>102.0</ele><time>2026-04-11T13:37:31.999Z</time></trkpt><trkpt lat="43.997068630758136" lon="12.424408026559725"><ele>102.0</ele><time>2026-04-11T13:37:32.999Z</time></trkpt><trkpt lat="43.99712648165286" lon="12.424472700921724"><ele>102.0</ele><time>2026-04-11T13:37:33.999Z</time></trkpt><trkpt lat="43.997203885744135" lon="12.424509956637058"><ele>102.0</ele><time>2026-04-11T13:37:34.999Z</time></trkpt><trkpt lat="43.99728559148304" lon="12.424523868364462"><ele>102.0</ele><time>2026-04-11T13:37:35.999Z</time></trkpt><trkpt lat="43.99737238051829" lon="12.42454485783003"><ele>102.0</ele><time>2026-04-11T13:37:36.999Z</time></trkpt><trkpt lat="43.99744298742205" lon="12.424612686990457"><ele>101.6</ele><time>2026-04-11T13:37:37.999Z</time></trkpt><trkpt lat="43.9975106360045" lon="12.424698982446674"><ele>101.19999999999999</ele><time>2026-04-11T13:37:38.999Z</time></trkpt><trkpt lat="43.99757929277474" lon="12.424782377584968"><ele>100.8</ele><time>2026-04-11T13:37:39.999Z</time></trkpt><trkpt lat="43.997641001797405" lon="12.424875252685949"><ele>100.4</ele><time>2026-04-11T13:37:40.999Z</time></trkpt><trkpt lat="43.997705314457306" lon="12.4249729479845"><ele>100.0</ele><time>2026-04-11T13:37:41.999Z</time></trkpt><trkpt lat="43.997775120729315" lon="12.425077324487416"><ele>100.0</ele><time>2026-04-11T13:37:42.999Z</time></trkpt><trkpt lat="43.997839015166626" lon="12.425178640391225"><ele>100.0</ele><time>2026-04-11T13:37:43.999Z</time></trkpt><trkpt lat="43.99790715865057" lon="12.425268413226403"><ele>100.0</ele><time>2026-04-11T13:37:44.999Z</time></trkpt><trkpt lat="43.997981807177325" lon="12.425348543479396"><ele>100.0</ele><time>2026-04-11T13:37:45.999Z</time></trkpt><trkpt lat="43.99804916549532" lon="12.425426140692917"><ele>100.0</ele><time>2026-04-11T13:37:46.999Z</time></trkpt><trkpt lat="43.99811872597158" lon="12.42549751381482"><ele>100.00000000000001</ele><time>2026-04-11T13:37:47.999Z</time></trkpt><trkpt lat="43.998179260889586" lon="12.425560683235409"><ele>100.0</ele><time>2026-04-11T13:37:48.999Z</time></trkpt><trkpt lat="43.99824435972032" lon="12.4256226667836"><ele>100.0</ele><time>2026-04-11T13:37:49.999Z</time></trkpt><trkpt lat="43.99830284301153" lon="12.425687479678695"><ele>100.0</ele><time>2026-04-11T13:37:50.999Z</time></trkpt><trkpt lat="43.99836727637123" lon="12.425750395015173"><ele>100.00000000000001</ele><time>2026-04-11T13:37:51.999Z</time></trkpt><trkpt lat="43.99842726052356" lon="12.425810050967893"><ele>100.0</ele><time>2026-04-11T13:37:52.999Z</time></trkpt><trkpt lat="43.998486903809514" lon="12.425867914365073"><ele>100.00000000000001</ele><time>2026-04-11T13:37:53.999Z</time></trkpt><trkpt lat="43.99854856239104" lon="12.425932415727752"><ele>100.0</ele><time>2026-04-11T13:37:54.999Z</time></trkpt><trkpt lat="43.998608071883744" lon="12.42599574817845"><ele>100.0</ele><time>2026-04-11T13:37:55.999Z</time></trkpt><trkpt lat="43.99867532805537" lon="12.426071346366832"><ele>100.0</ele><time>2026-04-11T13:37:56.999Z</time></trkpt><trkpt lat="43.998744323587395" lon="12.42614623811769"><ele>100.00000000000001</ele><time>2026-04-11T13:37:57.999Z</time></trkpt><trkpt lat="43.99881874484176" lon="12.42622016550042"><ele>100.0</ele><time>2026-04-11T13:37:58.999Z</time></trkpt><trkpt lat="43.99888761623028" lon="12.426294517099292"><ele>100.16666666666667</ele><time>2026-04-11T13:37:59.999Z</time></trkpt><trkpt lat="43.99895413972072" lon="12.42636287875482"><ele>100.33333333333334</ele><time>2026-04-11T13:38:00.999Z</time></trkpt><trkpt lat="43.999018257885275" lon="12.426426158465931"><ele>100.5</ele><time>2026-04-11T13:38:01.999Z</time></trkpt><trkpt lat="43.999079550048165" lon="12.426496322657053"><ele>100.66666666666666</ele><time>2026-04-11T13:38:02.999Z</time></trkpt><trkpt lat="43.99914150860052" lon="12.426561336359264"><ele>100.83333333333333</ele><time>2026-04-11T13:38:03.999Z</time></trkpt><trkpt lat="43.99919693424595" lon="12.42661388626528"><ele>101.0</ele><time>2026-04-11T13:38:04.999Z</time></trkpt><trkpt lat="43.99927696807154" lon="12.426720351901206"><ele>100.83333333333333</ele><time>2026-04-11T13:38:06.999Z</time></trkpt><trkpt lat="43.999314807599006" lon="12.426881726688187"><ele>100.66666666666666</ele><time>2026-04-11T13:38:08.999Z</time></trkpt><trkpt lat="43.99932496569368" lon="12.426979959440251"><ele>100.5</ele><time>2026-04-11T13:38:09.999Z</time></trkpt><trkpt lat="43.99936207075776" lon="12.42707266774134"><ele>100.33333333333334</ele><time>2026-04-11T13:38:10.999Z</time></trkpt><trkpt lat="43.99942691240461" lon="12.427138339998079"><ele>100.16666666666667</ele><time>2026-04-11T13:38:11.999Z</time></trkpt><trkpt lat="43.99950985812095" lon="12.427164950683773"><ele>100.0</ele><time>2026-04-11T13:38:12.999Z</time></trkpt><trkpt lat="43.99958070703288" lon="12.427163125725455"><ele>100.0</ele><time>2026-04-11T13:38:13.999Z</time></trkpt><trkpt lat="43.99966226452409" lon="12.42712190769112"><ele>100.0</ele><time>2026-04-11T13:38:14.999Z</time></trkpt><trkpt lat="43.99975007828122" lon="12.427135957946465"><ele>100.0</ele><time>2026-04-11T13:38:15.999Z</time></trkpt><trkpt lat="43.999844462498565" lon="12.427143669943135"><ele>100.0</ele><time>2026-04-11T13:38:16.999Z</time></trkpt><trkpt lat="43.99991617953192" lon="12.427289500467033"><ele>100.0</ele><time>2026-04-11T13:38:17.999Z</time></trkpt><trkpt lat="43.99999091972899" lon="12.427377226270604"><ele>100.0</ele><time>2026-04-11T13:38:18.999Z</time></trkpt><trkpt lat="44.00007544405055" lon="12.427452814071762"><ele>100.0</ele><time>2026-04-11T13:38:19.999Z</time></trkpt><trkpt lat="44.000150977648914" lon="12.427533640269571"><ele>100.0</ele><time>2026-04-11T13:38:20.999Z</time></trkpt><trkpt lat="44.000225457890544" lon="12.427614615080211"><ele>100.0</ele><time>2026-04-11T13:38:21.999Z</time></trkpt><trkpt lat="44.00029938517126" lon="12.42769595274857"><ele>100.0</ele><time>2026-04-11T13:38:22.999Z</time></trkpt><trkpt lat="44.00038017159351" lon="12.4277770319973"><ele>100.0</ele><time>2026-04-11T13:38:23.999Z</time></trkpt><trkpt lat="44.0004641970898" lon="12.427858603179207"><ele>100.0</ele><time>2026-04-11T13:38:24.999Z</time></trkpt><trkpt lat="44.000550432333156" lon="12.427942878014317"><ele>100.0</ele><time>2026-04-11T13:38:25.999Z</time></trkpt><trkpt lat="44.00062912006267" lon="12.428032295004945"><ele>100.0</ele><time>2026-04-11T13:38:27Z</time></trkpt><trkpt lat="44.0007074471719" lon="12.428123150724863"><ele>100.0</ele><time>2026-04-11T13:38:28Z</time></trkpt><trkpt lat="44.00079089142223" lon="12.428212061994655"><ele>99.8</ele><time>2026-04-11T13:38:29Z</time></trkpt><trkpt lat="44.00087162383879" lon="12.428307231970232"><ele>99.6</ele><time>2026-04-11T13:38:30Z</time></trkpt><trkpt lat="44.0009420773293" lon="12.428430200546751"><ele>99.4</ele><time>2026-04-11T13:38:31Z</time></trkpt><trkpt lat="44.00101115290827" lon="12.428553166079197"><ele>99.2</ele><time>2026-04-11T13:38:32Z</time></trkpt><trkpt lat="44.001076512326186" lon="12.428676440247479"><ele>99.0</ele><time>2026-04-11T13:38:33Z</time></trkpt><trkpt lat="44.001146980005345" lon="12.428793146497767"><ele>98.80000000000001</ele><time>2026-04-11T13:38:34Z</time></trkpt><trkpt lat="44.001203522655246" lon="12.428910015506645"><ele>98.60000000000001</ele><time>2026-04-11T13:38:35Z</time></trkpt><trkpt lat="44.0012597894469" lon="12.429027144429147"><ele>98.4</ele><time>2026-04-11T13:38:36Z</time></trkpt><trkpt lat="44.00131254751967" lon="12.429141585721212"><ele>98.2</ele><time>2026-04-11T13:38:37Z</time></trkpt><trkpt lat="44.00136756081633" lon="12.429247802181964"><ele>98.0</ele><time>2026-04-11T13:38:38Z</time></trkpt><trkpt lat="44.001418401974675" lon="12.429349788657051"><ele>98.0</ele><time>2026-04-11T13:38:39Z</time></trkpt><trkpt lat="44.0014716640631" lon="12.429457444017574"><ele>98.0</ele><time>2026-04-11T13:38:40Z</time></trkpt><trkpt lat="44.00152740200442" lon="12.429564756730283"><ele>98.0</ele><time>2026-04-11T13:38:41Z</time></trkpt><trkpt lat="44.00157990333183" lon="12.429668163999493"><ele>98.0</ele><time>2026-04-11T13:38:42Z</time></trkpt><trkpt lat="44.00162928995857" lon="12.429786241575437"><ele>98.0</ele><time>2026-04-11T13:38:43Z</time></trkpt><trkpt lat="44.00168312851" lon="12.429888971212154"><ele>97.60000000000001</ele><time>2026-04-11T13:38:44Z</time></trkpt><trkpt lat="44.00173641919104" lon="12.42998881744898"><ele>97.2</ele><time>2026-04-11T13:38:45Z</time></trkpt><trkpt lat="44.001784396019815" lon="12.430090876982257"><ele>96.8</ele><time>2026-04-11T13:38:46Z</time></trkpt><trkpt lat="44.00183246539879" lon="12.430190245244308"><ele>96.4</ele><time>2026-04-11T13:38:47Z</time></trkpt><trkpt lat="44.00188148081809" lon="12.430290852505019"><ele>96.0</ele><time>2026-04-11T13:38:48Z</time></trkpt><trkpt lat="44.00185153264418" lon="12.430455552985956"><ele>95.66666666666667</ele><time>2026-04-11T13:38:49Z</time></trkpt><trkpt lat="44.00189424710686" lon="12.430543239659846"><ele>95.33333333333333</ele><time>2026-04-11T13:38:50Z</time></trkpt><trkpt lat="44.00193711825167" lon="12.430631470903375"><ele>95.0</ele><time>2026-04-11T13:38:51Z</time></trkpt><trkpt lat="44.0019865072543" lon="12.430733074457944"><ele>94.66666666666666</ele><time>2026-04-11T13:38:52Z</time></trkpt><trkpt lat="44.00203329015283" lon="12.43082931200863"><ele>94.33333333333333</ele><time>2026-04-11T13:38:53Z</time></trkpt><trkpt lat="44.00208169016937" lon="12.43092808565653"><ele>94.0</ele><time>2026-04-11T13:38:54Z</time></trkpt><trkpt lat="44.00213260025576" lon="12.431030542225798"><ele>94.0</ele><time>2026-04-11T13:38:55Z</time></trkpt><trkpt lat="44.002182452124394" lon="12.431130413816653"><ele>94.0</ele><time>2026-04-11T13:38:56Z</time></trkpt><trkpt lat="44.00223212333398" lon="12.431229923351033"><ele>94.0</ele><time>2026-04-11T13:38:57Z</time></trkpt><trkpt lat="44.00228052504771" lon="12.431326883567854"><ele>94.0</ele><time>2026-04-11T13:38:58Z</time></trkpt><trkpt lat="44.00232814379489" lon="12.43142401472786"><ele>94.0</ele><time>2026-04-11T13:38:59Z</time></trkpt><trkpt lat="44.00244601482063" lon="12.431449914583723"><ele>94.0</ele><time>2026-04-11T13:39:00Z</time></trkpt><trkpt lat="44.00249262929548" lon="12.431545882712744"><ele>94.0</ele><time>2026-04-11T13:39:01Z</time></trkpt><trkpt lat="44.00253972143846" lon="12.431637816265098"><ele>94.0</ele><time>2026-04-11T13:39:02Z</time></trkpt><trkpt lat="44.00259066014839" lon="12.431731773079415"><ele>94.0</ele><time>2026-04-11T13:39:03Z</time></trkpt><trkpt lat="44.00264270887846" lon="12.431833236169531"><ele>94.0</ele><time>2026-04-11T13:39:04Z</time></trkpt><trkpt lat="44.00261984173277" lon="12.432011191972418"><ele>94.0</ele><time>2026-04-11T13:39:05Z</time></trkpt><trkpt lat="44.00276119334517" lon="12.43205125774171"><ele>94.0</ele><time>2026-04-11T13:39:06Z</time></trkpt><trkpt lat="44.00281642200806" lon="12.432165818499863"><ele>94.0</ele><time>2026-04-11T13:39:07Z</time></trkpt><trkpt lat="44.00287486714153" lon="12.432283756099617"><ele>94.0</ele><time>2026-04-11T13:39:08Z</time></trkpt><trkpt lat="44.00293837136007" lon="12.432393940474684"><ele>94.0</ele><time>2026-04-11T13:39:09Z</time></trkpt><trkpt lat="44.003005241427765" lon="12.432519306970418"><ele>93.6</ele><time>2026-04-11T13:39:10Z</time></trkpt><trkpt lat="44.00306630037953" lon="12.43264600503854"><ele>93.2</ele><time>2026-04-11T13:39:11Z</time></trkpt><trkpt lat="44.00312531663149" lon="12.432765935482424"><ele>92.8</ele><time>2026-04-11T13:39:12Z</time></trkpt><trkpt lat="44.003178615569986" lon="12.432885764215492"><ele>92.39999999999999</ele><time>2026-04-11T13:39:13Z</time></trkpt><trkpt lat="44.00323259673364" lon="12.433005643749336"><ele>92.0</ele><time>2026-04-11T13:39:14Z</time></trkpt><trkpt lat="44.00320971473935" lon="12.433201176293649"><ele>91.6</ele><time>2026-04-11T13:39:15Z</time></trkpt><trkpt lat="44.00334655028819" lon="12.433239199746199"><ele>91.19999999999999</ele><time>2026-04-11T13:39:16Z</time></trkpt><trkpt lat="44.003398816075475" lon="12.433345138787534"><ele>90.8</ele><time>2026-04-11T13:39:16.999Z</time></trkpt><trkpt lat="44.003458055142076" lon="12.43346084284225"><ele>90.4</ele><time>2026-04-11T13:39:17.999Z</time></trkpt><trkpt lat="44.003508988072454" lon="12.433570805734277"><ele>90.0</ele><time>2026-04-11T13:39:18.999Z</time></trkpt><trkpt lat="44.00355905760034" lon="12.433674183733904"><ele>89.8</ele><time>2026-04-11T13:39:19.999Z</time></trkpt><trkpt lat="44.00352852568479" lon="12.433845459750676"><ele>89.6</ele><time>2026-04-11T13:39:20.999Z</time></trkpt><trkpt lat="44.003648183513576" lon="12.433869552114425"><ele>89.4</ele><time>2026-04-11T13:39:21.999Z</time></trkpt><trkpt lat="44.00369343131229" lon="12.433960653398023"><ele>89.2</ele><time>2026-04-11T13:39:22.999Z</time></trkpt><trkpt lat="44.00373498146639" lon="12.43404679481806"><ele>89.0</ele><time>2026-04-11T13:39:23.999Z</time></trkpt><trkpt lat="44.00377787692122" lon="12.434131968497665"><ele>89.0</ele><time>2026-04-11T13:39:24.999Z</time></trkpt><trkpt lat="44.0037453104171" lon="12.434283524462977"><ele>89.0</ele><time>2026-04-11T13:39:25.999Z</time></trkpt><trkpt lat="44.00381343392046" lon="12.434419848289709"><ele>89.0</ele><time>2026-04-11T13:39:27.999Z</time></trkpt><trkpt lat="44.003875778365554" lon="12.434544843280134"><ele>89.0</ele><time>2026-04-11T13:39:29.999Z</time></trkpt><trkpt lat="44.00397632642464" lon="12.43455283511212"><ele>89.0</ele><time>2026-04-11T13:39:30.999Z</time></trkpt><trkpt lat="44.00403998109558" lon="12.4346871780799"><ele>89.16666666666667</ele><time>2026-04-11T13:39:32.999Z</time></trkpt><trkpt lat="44.0041011220173" lon="12.434834827701268"><ele>89.33333333333334</ele><time>2026-04-11T13:39:34.999Z</time></trkpt><trkpt lat="44.00413999622671" lon="12.43490971839989"><ele>89.5</ele><time>2026-04-11T13:39:35.999Z</time></trkpt><trkpt lat="44.0041846422067" lon="12.434980731389722"><ele>89.66666666666667</ele><time>2026-04-11T13:39:36.999Z</time></trkpt><trkpt lat="44.0042277425533" lon="12.435053332553558"><ele>89.83333333333333</ele><time>2026-04-11T13:39:37.999Z</time></trkpt><trkpt lat="44.0042690845962" lon="12.435132501824265"><ele>90.0</ele><time>2026-04-11T13:39:38.999Z</time></trkpt><trkpt lat="44.0043097950287" lon="12.435212484083195"><ele>90.0</ele><time>2026-04-11T13:39:39.999Z</time></trkpt><trkpt lat="44.00435007254549" lon="12.435285929734716"><ele>90.0</ele><time>2026-04-11T13:39:40.999Z</time></trkpt><trkpt lat="44.0043840345766" lon="12.43536006735921"><ele>90.0</ele><time>2026-04-11T13:39:41.999Z</time></trkpt><trkpt lat="44.004424416334004" lon="12.435434607080932"><ele>90.0</ele><time>2026-04-11T13:39:42.999Z</time></trkpt><trkpt lat="44.00446673750713" lon="12.435512701648483"><ele>90.0</ele><time>2026-04-11T13:39:43.999Z</time></trkpt><trkpt lat="44.00452386081944" lon="12.435629816500356"><ele>90.0</ele><time>2026-04-11T13:39:45.999Z</time></trkpt><trkpt lat="44.004574085420806" lon="12.43572460486458"><ele>89.83333333333333</ele><time>2026-04-11T13:39:47.999Z</time></trkpt><trkpt lat="44.00464384722786" lon="12.435837591190761"><ele>89.66666666666667</ele><time>2026-04-11T13:39:49.999Z</time></trkpt><trkpt lat="44.00469134250851" lon="12.435910053894812"><ele>89.5</ele><time>2026-04-11T13:39:50.999Z</time></trkpt><trkpt lat="44.00474496594472" lon="12.435990932836672"><ele>89.33333333333334</ele><time>2026-04-11T13:39:51.999Z</time></trkpt><trkpt lat="44.004804604951026" lon="12.436076351176274"><ele>89.16666666666667</ele><time>2026-04-11T13:39:52.999Z</time></trkpt><trkpt lat="44.00486614609211" lon="12.436174382405067"><ele>89.0</ele><time>2026-04-11T13:39:53.999Z</time></trkpt><trkpt lat="44.00492811861501" lon="12.43627107377312"><ele>89.2</ele><time>2026-04-11T13:39:54.999Z</time></trkpt><trkpt lat="44.00499365226955" lon="12.436371425115425"><ele>89.4</ele><time>2026-04-11T13:39:55.999Z</time></trkpt><trkpt lat="44.00507258409502" lon="12.436469710786893"><ele>89.6</ele><time>2026-04-11T13:39:56.999Z</time></trkpt><trkpt lat="44.00514606126196" lon="12.436566074599504"><ele>89.8</ele><time>2026-04-11T13:39:57.999Z</time></trkpt><trkpt lat="44.005213024779735" lon="12.436666202933441"><ele>90.0</ele><time>2026-04-11T13:39:58.999Z</time></trkpt><trkpt lat="44.005278656523195" lon="12.436763819778262"><ele>89.5</ele><time>2026-04-11T13:39:59.999Z</time></trkpt><trkpt lat="44.005344286477495" lon="12.43685571953357"><ele>89.0</ele><time>2026-04-11T13:40:00.999Z</time></trkpt><trkpt lat="44.00539833393253" lon="12.436936492005495"><ele>88.5</ele><time>2026-04-11T13:40:01.999Z</time></trkpt><trkpt lat="44.005443865300144" lon="12.437000244427004"><ele>88.0</ele><time>2026-04-11T13:40:02.999Z</time></trkpt><trkpt lat="44.005535868392414" lon="12.437121370541306"><ele>87.5</ele><time>2026-04-11T13:40:04.999Z</time></trkpt><trkpt lat="44.00558342677546" lon="12.437185854186577"><ele>87.0</ele><time>2026-04-11T13:40:05.999Z</time></trkpt><trkpt lat="44.00564028523046" lon="12.437247306889075"><ele>86.83333333333333</ele><time>2026-04-11T13:40:06.999Z</time></trkpt><trkpt lat="44.0057017519751" lon="12.437314232953888"><ele>86.66666666666667</ele><time>2026-04-11T13:40:07.999Z</time></trkpt><trkpt lat="44.00576588885901" lon="12.437391809834908"><ele>86.5</ele><time>2026-04-11T13:40:08.999Z</time></trkpt><trkpt lat="44.00582780854558" lon="12.437471332714377"><ele>86.33333333333334</ele><time>2026-04-11T13:40:09.999Z</time></trkpt><trkpt lat="44.005891444299756" lon="12.437555544255618"><ele>86.16666666666667</ele><time>2026-04-11T13:40:10.999Z</time></trkpt><trkpt lat="44.005955228718975" lon="12.437641589227002"><ele>86.0</ele><time>2026-04-11T13:40:11.999Z</time></trkpt><trkpt lat="44.006008153982634" lon="12.437743771040475"><ele>85.83333333333334</ele><time>2026-04-11T13:40:12.999Z</time></trkpt><trkpt lat="44.00607191213395" lon="12.43783287571221"><ele>85.66666666666667</ele><time>2026-04-11T13:40:13.999Z</time></trkpt><trkpt lat="44.00613217600293" lon="12.437918458267072"><ele>85.5</ele><time>2026-04-11T13:40:14.999Z</time></trkpt><trkpt lat="44.006201033953694" lon="12.43799456728194"><ele>85.33333333333333</ele><time>2026-04-11T13:40:15.999Z</time></trkpt><trkpt lat="44.00625918865734" lon="12.438058311193705"><ele>85.16666666666666</ele><time>2026-04-11T13:40:16.999Z</time></trkpt><trkpt lat="44.00632981358169" lon="12.438146252224717"><ele>85.0</ele><time>2026-04-11T13:40:18.999Z</time></trkpt><trkpt lat="44.0064020641711" lon="12.438282394815559"><ele>85.0</ele><time>2026-04-11T13:40:20.999Z</time></trkpt><trkpt lat="44.00646416356993" lon="12.438352970401228"><ele>85.0</ele><time>2026-04-11T13:40:21.999Z</time></trkpt><trkpt lat="44.00652807871719" lon="12.438432341171449"><ele>85.0</ele><time>2026-04-11T13:40:22.999Z</time></trkpt><trkpt lat="44.00659886857536" lon="12.438522115105572"><ele>85.0</ele><time>2026-04-11T13:40:23.999Z</time></trkpt><trkpt lat="44.00667512375719" lon="12.438620111328506"><ele>85.0</ele><time>2026-04-11T13:40:24.999Z</time></trkpt><trkpt lat="44.006750915981996" lon="12.438718257506483"><ele>84.6</ele><time>2026-04-11T13:40:25.999Z</time></trkpt><trkpt lat="44.00682690571164" lon="12.438817467416483"><ele>84.2</ele><time>2026-04-11T13:40:26.999Z</time></trkpt><trkpt lat="44.00689915905059" lon="12.438915366028134"><ele>83.80000000000001</ele><time>2026-04-11T13:40:27.999Z</time></trkpt><trkpt lat="44.0069683213276" lon="12.439011651152422"><ele>83.4</ele><time>2026-04-11T13:40:28.999Z</time></trkpt><trkpt lat="44.007041387582355" lon="12.439111121324222"><ele>83.0</ele><time>2026-04-11T13:40:29.999Z</time></trkpt><trkpt lat="44.007114954287196" lon="12.439212243900533"><ele>83.0</ele><time>2026-04-11T13:40:30.999Z</time></trkpt><trkpt lat="44.00718811359726" lon="12.439308292173102"><ele>83.0</ele><time>2026-04-11T13:40:31.999Z</time></trkpt><trkpt lat="44.00725647180036" lon="12.4394027574448"><ele>83.0</ele><time>2026-04-11T13:40:33Z</time></trkpt><trkpt lat="44.00732622143053" lon="12.439496478393563"><ele>83.0</ele><time>2026-04-11T13:40:34Z</time></trkpt><trkpt lat="44.00739550387612" lon="12.439588338846978"><ele>83.0</ele><time>2026-04-11T13:40:35Z</time></trkpt><trkpt lat="44.00746913043203" lon="12.43968512420797"><ele>82.80000000000001</ele><time>2026-04-11T13:40:36Z</time></trkpt><trkpt lat="44.00754182276699" lon="12.439786107440328"><ele>82.6</ele><time>2026-04-11T13:40:37Z</time></trkpt><trkpt lat="44.00761799958339" lon="12.439890783693153"><ele>82.4</ele><time>2026-04-11T13:40:38Z</time></trkpt><trkpt lat="44.00769652684537" lon="12.439994734676576"><ele>82.19999999999999</ele><time>2026-04-11T13:40:39Z</time></trkpt><trkpt lat="44.007775327366026" lon="12.440098785444805"><ele>82.0</ele><time>2026-04-11T13:40:40Z</time></trkpt><trkpt lat="44.00785581064776" lon="12.440203943556659"><ele>82.0</ele><time>2026-04-11T13:40:41Z</time></trkpt><trkpt lat="44.00793588455716" lon="12.440308911479233"><ele>82.0</ele><time>2026-04-11T13:40:42Z</time></trkpt><trkpt lat="44.00801898512738" lon="12.440417526734224"><ele>82.0</ele><time>2026-04-11T13:40:43Z</time></trkpt><trkpt lat="44.00810121931187" lon="12.440536177489669"><ele>82.0</ele><time>2026-04-11T13:40:44Z</time></trkpt><trkpt lat="44.00818213339749" lon="12.440644553300837"><ele>81.75</ele><time>2026-04-11T13:40:45Z</time></trkpt><trkpt lat="44.00826680745981" lon="12.440757434339847"><ele>81.5</ele><time>2026-04-11T13:40:46Z</time></trkpt><trkpt lat="44.00834875407757" lon="12.44086941730573"><ele>81.25</ele><time>2026-04-11T13:40:47Z</time></trkpt><trkpt lat="44.00843710785053" lon="12.440982377223758"><ele>81.0</ele><time>2026-04-11T13:40:48Z</time></trkpt><trkpt lat="44.00852037216965" lon="12.441096373258318"><ele>80.8</ele><time>2026-04-11T13:40:49Z</time></trkpt><trkpt lat="44.00859967711342" lon="12.441205404308887"><ele>80.6</ele><time>2026-04-11T13:40:50Z</time></trkpt><trkpt lat="44.008677923964186" lon="12.441314276405082"><ele>80.4</ele><time>2026-04-11T13:40:51Z</time></trkpt><trkpt lat="44.0087565303441" lon="12.44141953725118"><ele>80.2</ele><time>2026-04-11T13:40:52Z</time></trkpt><trkpt lat="44.00883380509615" lon="12.441519358642353"><ele>80.0</ele><time>2026-04-11T13:40:53Z</time></trkpt><trkpt lat="44.008906052056425" lon="12.441618002667427"><ele>79.83333333333334</ele><time>2026-04-11T13:40:54Z</time></trkpt><trkpt lat="44.00897420890649" lon="12.441714621664268"><ele>79.66666666666667</ele><time>2026-04-11T13:40:55Z</time></trkpt><trkpt lat="44.00904005929685" lon="12.441809063509472"><ele>79.5</ele><time>2026-04-11T13:40:56Z</time></trkpt><trkpt lat="44.00910806965982" lon="12.441890803084645"><ele>79.33333333333333</ele><time>2026-04-11T13:40:57Z</time></trkpt><trkpt lat="44.009169324323906" lon="12.44196696840545"><ele>79.16666666666666</ele><time>2026-04-11T13:40:58Z</time></trkpt><trkpt lat="44.00923555632453" lon="12.442027355423324"><ele>79.0</ele><time>2026-04-11T13:40:59Z</time></trkpt><trkpt lat="44.00929275939636" lon="12.442093994617048"><ele>79.16666666666666</ele><time>2026-04-11T13:41:00Z</time></trkpt><trkpt lat="44.00934329478226" lon="12.442172394766343"><ele>79.33333333333333</ele><time>2026-04-11T13:41:01Z</time></trkpt><trkpt lat="44.00939305347135" lon="12.44224853013502"><ele>79.5</ele><time>2026-04-11T13:41:02Z</time></trkpt><trkpt lat="44.00944469341784" lon="12.44231417063481"><ele>79.66666666666667</ele><time>2026-04-11T13:41:03Z</time></trkpt><trkpt lat="44.009502127474015" lon="12.442387345971724"><ele>79.83333333333334</ele><time>2026-04-11T13:41:04Z</time></trkpt><trkpt lat="44.009542077529474" lon="12.442461998427586"><ele>80.0</ele><time>2026-04-11T13:41:05Z</time></trkpt><trkpt lat="44.009611692027676" lon="12.442574861244779"><ele>80.0</ele><time>2026-04-11T13:41:07Z</time></trkpt><trkpt lat="44.00967974950403" lon="12.442663759287868"><ele>80.0</ele><time>2026-04-11T13:41:09Z</time></trkpt><trkpt lat="44.00973914496536" lon="12.442756896056611"><ele>80.0</ele><time>2026-04-11T13:41:11Z</time></trkpt><trkpt lat="44.0097865401397" lon="12.442843736912813"><ele>80.0</ele><time>2026-04-11T13:41:13Z</time></trkpt><trkpt lat="44.00985564309586" lon="12.442949445420407"><ele>80.0</ele><time>2026-04-11T13:41:16Z</time></trkpt><trkpt lat="44.009905124428656" lon="12.443006099923556"><ele>80.0</ele><time>2026-04-11T13:41:20Z</time></trkpt><trkpt lat="44.00996000781404" lon="12.443087279328575"><ele>79.66666666666667</ele><time>2026-04-11T13:41:34.999Z</time></trkpt><trkpt lat="44.01000921351396" lon="12.443168594346998"><ele>79.33333333333334</ele><time>2026-04-11T13:41:36.999Z</time></trkpt><trkpt lat="44.01007244536696" lon="12.443230530482198"><ele>79.0</ele><time>2026-04-11T13:41:39.999Z</time></trkpt><trkpt lat="44.01014908487627" lon="12.443322512045714"><ele>78.66666666666667</ele><time>2026-04-11T13:41:42.999Z</time></trkpt><trkpt lat="44.0102287834752" lon="12.443429595473887"><ele>78.33333333333333</ele><time>2026-04-11T13:41:44.999Z</time></trkpt><trkpt lat="44.01028210541866" lon="12.443496988408642"><ele>78.0</ele><time>2026-04-11T13:41:45.999Z</time></trkpt><trkpt lat="44.010342319306936" lon="12.443573893972347"><ele>78.0</ele><time>2026-04-11T13:41:46.999Z</time></trkpt><trkpt lat="44.010407269147564" lon="12.443659092567739"><ele>78.0</ele><time>2026-04-11T13:41:47.999Z</time></trkpt><trkpt lat="44.010473865213015" lon="12.44375045414159"><ele>78.0</ele><time>2026-04-11T13:41:48.999Z</time></trkpt><trkpt lat="44.01054912537182" lon="12.443848672998861"><ele>78.0</ele><time>2026-04-11T13:41:49.999Z</time></trkpt><trkpt lat="44.01063346343403" lon="12.443953995760346"><ele>78.0</ele><time>2026-04-11T13:41:50.999Z</time></trkpt><trkpt lat="44.0107217722981" lon="12.444069820684675"><ele>78.5</ele><time>2026-04-11T13:41:51.999Z</time></trkpt><trkpt lat="44.01081457938951" lon="12.444187571762424"><ele>79.0</ele><time>2026-04-11T13:41:52.999Z</time></trkpt><trkpt lat="44.01090657150646" lon="12.444310793318229"><ele>79.5</ele><time>2026-04-11T13:41:53.999Z</time></trkpt><trkpt lat="44.01100492202914" lon="12.444434784195773"><ele>80.0</ele><time>2026-04-11T13:41:54.999Z</time></trkpt><trkpt lat="44.011103002882734" lon="12.444560027722579"><ele>80.5</ele><time>2026-04-11T13:41:55.999Z</time></trkpt><trkpt lat="44.01120058557331" lon="12.444687552727373"><ele>81.0</ele><time>2026-04-11T13:41:56.999Z</time></trkpt><trkpt lat="44.01129993867253" lon="12.444819400688976"><ele>81.5</ele><time>2026-04-11T13:41:57.999Z</time></trkpt><trkpt lat="44.011401303991974" lon="12.444956972882329"><ele>82.0</ele><time>2026-04-11T13:41:58.999Z</time></trkpt><trkpt lat="44.01150475635864" lon="12.445095537736803"><ele>82.0</ele><time>2026-04-11T13:41:59.999Z</time></trkpt><trkpt lat="44.01160995202315" lon="12.445234231605644"><ele>82.0</ele><time>2026-04-11T13:42:00.999Z</time></trkpt><trkpt lat="44.01171264779191" lon="12.445377332281671"><ele>82.0</ele><time>2026-04-11T13:42:01.999Z</time></trkpt><trkpt lat="44.0118164942412" lon="12.445520418520852"><ele>82.0</ele><time>2026-04-11T13:42:02.999Z</time></trkpt><trkpt lat="44.011921212309055" lon="12.445650713501816"><ele>80.75</ele><time>2026-04-11T13:42:03.999Z</time></trkpt><trkpt lat="44.01202037793102" lon="12.445784831216258"><ele>79.5</ele><time>2026-04-11T13:42:04.999Z</time></trkpt><trkpt lat="44.01212223770776" lon="12.44592112017221"><ele>78.25</ele><time>2026-04-11T13:42:05.999Z</time></trkpt><trkpt lat="44.01222122180809" lon="12.446046601860921"><ele>77.0</ele><time>2026-04-11T13:42:06.999Z</time></trkpt><trkpt lat="44.01231853439644" lon="12.446164906136538"><ele>77.0</ele><time>2026-04-11T13:42:07.999Z</time></trkpt><trkpt lat="44.01241988484642" lon="12.446266854092459"><ele>77.0</ele><time>2026-04-11T13:42:08.999Z</time></trkpt><trkpt lat="44.012525077746005" lon="12.446349284196451"><ele>77.0</ele><time>2026-04-11T13:42:09.999Z</time></trkpt><trkpt lat="44.01262567664488" lon="12.44643850543763"><ele>77.0</ele><time>2026-04-11T13:42:10.999Z</time></trkpt><trkpt lat="44.01271343904048" lon="12.446549865135871"><ele>76.2</ele><time>2026-04-11T13:42:11.999Z</time></trkpt><trkpt lat="44.01279312805448" lon="12.446662430229372"><ele>75.4</ele><time>2026-04-11T13:42:12.999Z</time></trkpt><trkpt lat="44.012859991580925" lon="12.446743438517657"><ele>74.6</ele><time>2026-04-11T13:42:13.999Z</time></trkpt><trkpt lat="44.012923402544985" lon="12.44682211814349"><ele>73.8</ele><time>2026-04-11T13:42:14.999Z</time></trkpt><trkpt lat="44.01297408410611" lon="12.446920506738671"><ele>73.0</ele><time>2026-04-11T13:42:15.999Z</time></trkpt><trkpt lat="44.013015739911644" lon="12.447033267605628"><ele>72.8</ele><time>2026-04-11T13:42:16.999Z</time></trkpt><trkpt lat="44.013067210054814" lon="12.447144841734998"><ele>72.6</ele><time>2026-04-11T13:42:17.999Z</time></trkpt><trkpt lat="44.01313229290352" lon="12.4472522083309"><ele>72.4</ele><time>2026-04-11T13:42:18.999Z</time></trkpt><trkpt lat="44.0132066998664" lon="12.447360231319365"><ele>72.2</ele><time>2026-04-11T13:42:19.999Z</time></trkpt><trkpt lat="44.01328785221503" lon="12.447468747513621"><ele>72.0</ele><time>2026-04-11T13:42:20.999Z</time></trkpt><trkpt lat="44.01337636338756" lon="12.447578579738522"><ele>72.0</ele><time>2026-04-11T13:42:21.999Z</time></trkpt><trkpt lat="44.01346864376772" lon="12.447690952277522"><ele>72.0</ele><time>2026-04-11T13:42:22.999Z</time></trkpt><trkpt lat="44.01356870698311" lon="12.447800548002721"><ele>72.0</ele><time>2026-04-11T13:42:23.999Z</time></trkpt><trkpt lat="44.01367512595273" lon="12.447907184046155"><ele>72.0</ele><time>2026-04-11T13:42:24.999Z</time></trkpt><trkpt lat="44.01378733935219" lon="12.448013287983034"><ele>72.0</ele><time>2026-04-11T13:42:25.999Z</time></trkpt><trkpt lat="44.01390697436071" lon="12.448115844129639"><ele>72.0</ele><time>2026-04-11T13:42:26.999Z</time></trkpt><trkpt lat="44.01402679830656" lon="12.448214962645219"><ele>72.0</ele><time>2026-04-11T13:42:27.999Z</time></trkpt><trkpt lat="44.014144054675796" lon="12.44830875436954"><ele>72.0</ele><time>2026-04-11T13:42:28.999Z</time></trkpt><trkpt lat="44.014263868665175" lon="12.44840492907359"><ele>72.0</ele><time>2026-04-11T13:42:29.999Z</time></trkpt><trkpt lat="44.01437755294348" lon="12.448494561733193"><ele>72.0</ele><time>2026-04-11T13:42:30.999Z</time></trkpt><trkpt lat="44.01448355277537" lon="12.44858024610537"><ele>72.0</ele><time>2026-04-11T13:42:31.999Z</time></trkpt><trkpt lat="44.014582147692416" lon="12.448660081857701"><ele>72.0</ele><time>2026-04-11T13:42:32.999Z</time></trkpt><trkpt lat="44.014678746620774" lon="12.448736609454686"><ele>72.0</ele><time>2026-04-11T13:42:33.999Z</time></trkpt><trkpt lat="44.01477518703392" lon="12.448813432420009"><ele>72.0</ele><time>2026-04-11T13:42:34.999Z</time></trkpt><trkpt lat="44.01487285438477" lon="12.448891139954462"><ele>72.0</ele><time>2026-04-11T13:42:35.999Z</time></trkpt><trkpt lat="44.01496668140728" lon="12.448961413002754"><ele>72.0</ele><time>2026-04-11T13:42:36.999Z</time></trkpt><trkpt lat="44.01506236556192" lon="12.449041902131558"><ele>72.0</ele><time>2026-04-11T13:42:37.999Z</time></trkpt><trkpt lat="44.015157699628936" lon="12.44911560803778"><ele>71.6</ele><time>2026-04-11T13:42:39Z</time></trkpt><trkpt lat="44.01525385759025" lon="12.449188128302335"><ele>71.2</ele><time>2026-04-11T13:42:40Z</time></trkpt><trkpt lat="44.01534938294403" lon="12.449265355888942"><ele>70.8</ele><time>2026-04-11T13:42:41Z</time></trkpt><trkpt lat="44.01544330485019" lon="12.449343596676318"><ele>70.4</ele><time>2026-04-11T13:42:42Z</time></trkpt><trkpt lat="44.015536675233015" lon="12.44942151797238"><ele>70.0</ele><time>2026-04-11T13:42:43Z</time></trkpt><trkpt lat="44.01563183147697" lon="12.449498432224985"><ele>70.0</ele><time>2026-04-11T13:42:44Z</time></trkpt><trkpt lat="44.01572730073159" lon="12.4495751700257"><ele>70.0</ele><time>2026-04-11T13:42:45Z</time></trkpt><trkpt lat="44.01582872491332" lon="12.449654577371499"><ele>70.0</ele><time>2026-04-11T13:42:46Z</time></trkpt><trkpt lat="44.01593721884819" lon="12.449739338840244"><ele>70.0</ele><time>2026-04-11T13:42:47Z</time></trkpt><trkpt lat="44.01605056108266" lon="12.449831065241629"><ele>69.5</ele><time>2026-04-11T13:42:48Z</time></trkpt><trkpt lat="44.01616907633856" lon="12.449924448986675"><ele>69.0</ele><time>2026-04-11T13:42:49Z</time></trkpt><trkpt lat="44.01629085241066" lon="12.450022695033004"><ele>68.5</ele><time>2026-04-11T13:42:50Z</time></trkpt><trkpt lat="44.01641825134312" lon="12.45012309901259"><ele>68.0</ele><time>2026-04-11T13:42:51Z</time></trkpt><trkpt lat="44.016543846547584" lon="12.450219625125282"><ele>67.75</ele><time>2026-04-11T13:42:52Z</time></trkpt><trkpt lat="44.01666598908808" lon="12.45031122256017"><ele>67.5</ele><time>2026-04-11T13:42:53Z</time></trkpt><trkpt lat="44.016783321078556" lon="12.45040182917874"><ele>67.25</ele><time>2026-04-11T13:42:54Z</time></trkpt><trkpt lat="44.01689548750242" lon="12.450487891094541"><ele>67.0</ele><time>2026-04-11T13:42:55Z</time></trkpt><trkpt lat="44.01700619150073" lon="12.450570936779418"><ele>67.5</ele><time>2026-04-11T13:42:56Z</time></trkpt><trkpt lat="44.01711490827951" lon="12.450650526819667"><ele>68.0</ele><time>2026-04-11T13:42:57Z</time></trkpt><trkpt lat="44.01721717227369" lon="12.450727501159776"><ele>68.5</ele><time>2026-04-11T13:42:58Z</time></trkpt><trkpt lat="44.017316411241225" lon="12.450800233373029"><ele>69.0</ele><time>2026-04-11T13:42:59Z</time></trkpt><trkpt lat="44.01740220163617" lon="12.45088953198218"><ele>68.8</ele><time>2026-04-11T13:43:00Z</time></trkpt><trkpt lat="44.01749389985814" lon="12.450961818846645"><ele>68.60000000000001</ele><time>2026-04-11T13:43:01Z</time></trkpt><trkpt lat="44.01758637120934" lon="12.451036512597284"><ele>68.4</ele><time>2026-04-11T13:43:02Z</time></trkpt><trkpt lat="44.017679414720064" lon="12.451117657100886"><ele>68.2</ele><time>2026-04-11T13:43:03Z</time></trkpt><trkpt lat="44.017778382394745" lon="12.451195779058747"><ele>68.0</ele><time>2026-04-11T13:43:04Z</time></trkpt><trkpt lat="44.01787537027368" lon="12.451278595429118"><ele>68.0</ele><time>2026-04-11T13:43:05Z</time></trkpt><trkpt lat="44.01798163177131" lon="12.451366978980992"><ele>68.0</ele><time>2026-04-11T13:43:06Z</time></trkpt><trkpt lat="44.01809110462965" lon="12.451447417699606"><ele>68.0</ele><time>2026-04-11T13:43:07Z</time></trkpt><trkpt lat="44.01820679131081" lon="12.451531610060712"><ele>68.0</ele><time>2026-04-11T13:43:08Z</time></trkpt><trkpt lat="44.01832187366853" lon="12.451623158524178"><ele>67.25</ele><time>2026-04-11T13:43:09Z</time></trkpt><trkpt lat="44.01843933416473" lon="12.451712947298804"><ele>66.5</ele><time>2026-04-11T13:43:10Z</time></trkpt><trkpt lat="44.01855216279167" lon="12.451800091838386"><ele>65.75</ele><time>2026-04-11T13:43:11Z</time></trkpt><trkpt lat="44.01865976634274" lon="12.451887792770693"><ele>65.0</ele><time>2026-04-11T13:43:12Z</time></trkpt><trkpt lat="44.01876315419479" lon="12.451972207026973"><ele>65.0</ele><time>2026-04-11T13:43:13Z</time></trkpt><trkpt lat="44.01886454596779" lon="12.452053920389988"><ele>65.0</ele><time>2026-04-11T13:43:14Z</time></trkpt><trkpt lat="44.01895979768217" lon="12.452133128341373"><ele>65.0</ele><time>2026-04-11T13:43:15Z</time></trkpt><trkpt lat="44.01904615798306" lon="12.45220226097195"><ele>65.0</ele><time>2026-04-11T13:43:16Z</time></trkpt><trkpt lat="44.019118574264276" lon="12.452262775155601"><ele>65.0</ele><time>2026-04-11T13:43:17Z</time></trkpt><trkpt lat="44.019177395639595" lon="12.452308298428672"><ele>65.0</ele><time>2026-04-11T13:43:18Z</time></trkpt><trkpt lat="44.01924864546673" lon="12.452369626245922"><ele>65.0</ele><time>2026-04-11T13:43:20Z</time></trkpt><trkpt lat="44.0193173972735" lon="12.452405330870125"><ele>65.0</ele><time>2026-04-11T13:43:38.999Z</time></trkpt><trkpt lat="44.019403844893205" lon="12.452487511331901"><ele>65.0</ele><time>2026-04-11T13:43:40.999Z</time></trkpt><trkpt lat="44.019463626677464" lon="12.452537618011332"><ele>65.0</ele><time>2026-04-11T13:43:41.999Z</time></trkpt><trkpt lat="44.01953297709651" lon="12.452597767206035"><ele>65.0</ele><time>2026-04-11T13:43:42.999Z</time></trkpt><trkpt lat="44.01960991757683" lon="12.452662373688154"><ele>65.0</ele><time>2026-04-11T13:43:43.999Z</time></trkpt><trkpt lat="44.01971211045162" lon="12.452731669941661"><ele>65.0</ele><time>2026-04-11T13:43:44.999Z</time></trkpt><trkpt lat="44.01981168750188" lon="12.452813291025123"><ele>65.0</ele><time>2026-04-11T13:43:45.999Z</time></trkpt><trkpt lat="44.01990719212946" lon="12.452893591898205"><ele>65.0</ele><time>2026-04-11T13:43:46.999Z</time></trkpt><trkpt lat="44.019995621623096" lon="12.45298913080365"><ele>64.5</ele><time>2026-04-11T13:43:47.999Z</time></trkpt><trkpt lat="44.02008259744357" lon="12.45311011836889"><ele>64.0</ele><time>2026-04-11T13:43:48.999Z</time></trkpt><trkpt lat="44.020167026059916" lon="12.453245457593198"><ele>63.5</ele><time>2026-04-11T13:43:49.999Z</time></trkpt><trkpt lat="44.02024760980315" lon="12.453390427557288"><ele>63.0</ele><time>2026-04-11T13:43:50.999Z</time></trkpt><trkpt lat="44.02032459890581" lon="12.45355016674666"><ele>63.0</ele><time>2026-04-11T13:43:51.999Z</time></trkpt><trkpt lat="44.020400336851054" lon="12.453716808334315"><ele>63.0</ele><time>2026-04-11T13:43:52.999Z</time></trkpt><trkpt lat="44.02047692853685" lon="12.453886935306208"><ele>63.0</ele><time>2026-04-11T13:43:53.999Z</time></trkpt><trkpt lat="44.02055224620096" lon="12.454055149038192"><ele>63.0</ele><time>2026-04-11T13:43:54.999Z</time></trkpt><trkpt lat="44.02061311946043" lon="12.454237020693911"><ele>63.0</ele><time>2026-04-11T13:43:55.999Z</time></trkpt><trkpt lat="44.0206864476205" lon="12.454405199655726"><ele>63.0</ele><time>2026-04-11T13:43:56.999Z</time></trkpt><trkpt lat="44.020757051066994" lon="12.45456712125698"><ele>63.0</ele><time>2026-04-11T13:43:57.999Z</time></trkpt><trkpt lat="44.020824007202236" lon="12.454721481790246"><ele>63.0</ele><time>2026-04-11T13:43:58.999Z</time></trkpt><trkpt lat="44.0208950573342" lon="12.45486593743936"><ele>63.0</ele><time>2026-04-11T13:43:59.999Z</time></trkpt><trkpt lat="44.02096335644515" lon="12.455012428333486"><ele>63.0</ele><time>2026-04-11T13:44:00.999Z</time></trkpt><trkpt lat="44.021025749963684" lon="12.455154603190056"><ele>63.0</ele><time>2026-04-11T13:44:01.999Z</time></trkpt><trkpt lat="44.021090536255734" lon="12.455289833111513"><ele>63.0</ele><time>2026-04-11T13:44:02.999Z</time></trkpt><trkpt lat="44.021151754616646" lon="12.455421667633058"><ele>63.75</ele><time>2026-04-11T13:44:03.999Z</time></trkpt><trkpt lat="44.0212178100308" lon="12.455549947920899"><ele>64.5</ele><time>2026-04-11T13:44:04.999Z</time></trkpt><trkpt lat="44.02128391100348" lon="12.455680423235481"><ele>65.25</ele><time>2026-04-11T13:44:05.999Z</time></trkpt><trkpt lat="44.02135113933635" lon="12.45581247551999"><ele>66.0</ele><time>2026-04-11T13:44:06.999Z</time></trkpt><trkpt lat="44.02142797561549" lon="12.455942155558791"><ele>66.0</ele><time>2026-04-11T13:44:07.999Z</time></trkpt><trkpt lat="44.02151053977205" lon="12.456074526111419"><ele>66.0</ele><time>2026-04-11T13:44:08.999Z</time></trkpt><trkpt lat="44.02160297364445" lon="12.456210334940794"><ele>66.0</ele><time>2026-04-11T13:44:09.999Z</time></trkpt><trkpt lat="44.0217021276933" lon="12.456348001461187"><ele>66.0</ele><time>2026-04-11T13:44:10.999Z</time></trkpt><trkpt lat="44.02179947900018" lon="12.456482716314769"><ele>65.0</ele><time>2026-04-11T13:44:11.999Z</time></trkpt><trkpt lat="44.021890727480994" lon="12.456599706980278"><ele>64.0</ele><time>2026-04-11T13:44:12.999Z</time></trkpt><trkpt lat="44.02198309417354" lon="12.456704098390759"><ele>63.0</ele><time>2026-04-11T13:44:13.999Z</time></trkpt><trkpt lat="44.02206965347849" lon="12.456811640295081"><ele>62.0</ele><time>2026-04-11T13:44:14.999Z</time></trkpt><trkpt lat="44.022161986329536" lon="12.45692226653549"><ele>62.0</ele><time>2026-04-11T13:44:15.999Z</time></trkpt><trkpt lat="44.02225650751597" lon="12.457031968926282"><ele>62.0</ele><time>2026-04-11T13:44:16.999Z</time></trkpt><trkpt lat="44.02235156347537" lon="12.457142831990948"><ele>62.0</ele><time>2026-04-11T13:44:17.999Z</time></trkpt><trkpt lat="44.02244434173557" lon="12.457261215655155"><ele>62.0</ele><time>2026-04-11T13:44:18.999Z</time></trkpt><trkpt lat="44.02253957921549" lon="12.45738069432822"><ele>61.25</ele><time>2026-04-11T13:44:19.999Z</time></trkpt><trkpt lat="44.022636647139834" lon="12.457502069624686"><ele>60.5</ele><time>2026-04-11T13:44:20.999Z</time></trkpt><trkpt lat="44.02273588166915" lon="12.457622003232592"><ele>59.75</ele><time>2026-04-11T13:44:21.999Z</time></trkpt><trkpt lat="44.022833023130794" lon="12.457737858530505"><ele>59.0</ele><time>2026-04-11T13:44:22.999Z</time></trkpt><trkpt lat="44.02292903321567" lon="12.457854598187756"><ele>59.0</ele><time>2026-04-11T13:44:23.999Z</time></trkpt><trkpt lat="44.02302374361913" lon="12.457969412168735"><ele>59.0</ele><time>2026-04-11T13:44:24.999Z</time></trkpt><trkpt lat="44.0231131972284" lon="12.458080050663296"><ele>59.0</ele><time>2026-04-11T13:44:25.999Z</time></trkpt><trkpt lat="44.02320443389663" lon="12.458191854367968"><ele>59.0</ele><time>2026-04-11T13:44:26.999Z</time></trkpt><trkpt lat="44.0232940316857" lon="12.458300781322036"><ele>58.5</ele><time>2026-04-11T13:44:27.999Z</time></trkpt><trkpt lat="44.02338017717419" lon="12.45840788942133"><ele>58.0</ele><time>2026-04-11T13:44:28.999Z</time></trkpt><trkpt lat="44.02346712969007" lon="12.458517078818392"><ele>57.5</ele><time>2026-04-11T13:44:29.999Z</time></trkpt><trkpt lat="44.02355868449888" lon="12.458630014786605"><ele>57.0</ele><time>2026-04-11T13:44:30.999Z</time></trkpt><trkpt lat="44.023651898904305" lon="12.458743739522241"><ele>57.0</ele><time>2026-04-11T13:44:31.999Z</time></trkpt><trkpt lat="44.023746342162944" lon="12.458857567398049"><ele>57.0</ele><time>2026-04-11T13:44:32.999Z</time></trkpt><trkpt lat="44.02383752422693" lon="12.458966138838354"><ele>57.0</ele><time>2026-04-11T13:44:33.999Z</time></trkpt><trkpt lat="44.02392576863722" lon="12.459069388359223"><ele>57.0</ele><time>2026-04-11T13:44:34.999Z</time></trkpt><trkpt lat="44.024012458503215" lon="12.459173287003436"><ele>57.0</ele><time>2026-04-11T13:44:35.999Z</time></trkpt><trkpt lat="44.02410090623031" lon="12.459278916632629"><ele>57.0</ele><time>2026-04-11T13:44:36.999Z</time></trkpt><trkpt lat="44.024189907146145" lon="12.459388494868879"><ele>57.0</ele><time>2026-04-11T13:44:37.999Z</time></trkpt><trkpt lat="44.02428416730117" lon="12.459497917884852"><ele>57.0</ele><time>2026-04-11T13:44:38.999Z</time></trkpt><trkpt lat="44.024375386620065" lon="12.45960266546757"><ele>56.8</ele><time>2026-04-11T13:44:39.999Z</time></trkpt><trkpt lat="44.0244622937591" lon="12.459707826596532"><ele>56.6</ele><time>2026-04-11T13:44:40.999Z</time></trkpt><trkpt lat="44.024546051094894" lon="12.45980564429996"><ele>56.39999999999999</ele><time>2026-04-11T13:44:41.999Z</time></trkpt><trkpt lat="44.02462645134275" lon="12.459898457513027"><ele>56.199999999999996</ele><time>2026-04-11T13:44:42.999Z</time></trkpt><trkpt lat="44.02470686222555" lon="12.459983830104198"><ele>56.0</ele><time>2026-04-11T13:44:43.999Z</time></trkpt><trkpt lat="44.02479016375164" lon="12.460049636402173"><ele>56.0</ele><time>2026-04-11T13:44:45Z</time></trkpt><trkpt lat="44.02487625072627" lon="12.460104736917213"><ele>55.99999999999999</ele><time>2026-04-11T13:44:46Z</time></trkpt><trkpt lat="44.02496302782549" lon="12.460182943159108"><ele>55.99999999999999</ele><time>2026-04-11T13:44:47Z</time></trkpt><trkpt lat="44.025047096179875" lon="12.460284974205175"><ele>56.0</ele><time>2026-04-11T13:44:48Z</time></trkpt><trkpt lat="44.02512359586993" lon="12.460400087301517"><ele>56.0</ele><time>2026-04-11T13:44:49Z</time></trkpt><trkpt lat="44.02521198599243" lon="12.460517957455314"><ele>55.5</ele><time>2026-04-11T13:44:50Z</time></trkpt><trkpt lat="44.02529904153731" lon="12.460641389994768"><ele>55.0</ele><time>2026-04-11T13:44:51Z</time></trkpt><trkpt lat="44.02538364194593" lon="12.460775815470267"><ele>54.5</ele><time>2026-04-11T13:44:52Z</time></trkpt><trkpt lat="44.025469083384046" lon="12.460914418840149"><ele>54.0</ele><time>2026-04-11T13:44:53Z</time></trkpt><trkpt lat="44.02556466408428" lon="12.461042640472177"><ele>54.0</ele><time>2026-04-11T13:44:54Z</time></trkpt><trkpt lat="44.02566385431571" lon="12.461163797723476"><ele>54.0</ele><time>2026-04-11T13:44:55Z</time></trkpt><trkpt lat="44.02576551379621" lon="12.461292926553924"><ele>54.0</ele><time>2026-04-11T13:44:56Z</time></trkpt><trkpt lat="44.02586438667346" lon="12.461418438332055"><ele>54.0</ele><time>2026-04-11T13:44:57Z</time></trkpt><trkpt lat="44.02595861537457" lon="12.461550952535896"><ele>53.5</ele><time>2026-04-11T13:44:58Z</time></trkpt><trkpt lat="44.02604890545361" lon="12.46168856406562"><ele>53.0</ele><time>2026-04-11T13:44:59Z</time></trkpt><trkpt lat="44.026133073561276" lon="12.461825383927348"><ele>52.5</ele><time>2026-04-11T13:45:00Z</time></trkpt><trkpt lat="44.02621041548408" lon="12.461961151337347"><ele>52.0</ele><time>2026-04-11T13:45:01Z</time></trkpt><trkpt lat="44.026289216556826" lon="12.462098785039707"><ele>52.25</ele><time>2026-04-11T13:45:02Z</time></trkpt><trkpt lat="44.026371107152926" lon="12.46223855446526"><ele>52.5</ele><time>2026-04-11T13:45:03Z</time></trkpt><trkpt lat="44.026458036356715" lon="12.462384734048644"><ele>52.75</ele><time>2026-04-11T13:45:04Z</time></trkpt><trkpt lat="44.026544135593944" lon="12.462535647788247"><ele>53.0</ele><time>2026-04-11T13:45:05Z</time></trkpt><trkpt lat="44.02662903534089" lon="12.462686041186885"><ele>52.75</ele><time>2026-04-11T13:45:06Z</time></trkpt><trkpt lat="44.02671433916939" lon="12.462843078745788"><ele>52.5</ele><time>2026-04-11T13:45:07Z</time></trkpt><trkpt lat="44.026800298241504" lon="12.46300948868497"><ele>52.25</ele><time>2026-04-11T13:45:08Z</time></trkpt><trkpt lat="44.026884224777454" lon="12.46318170998351"><ele>52.0</ele><time>2026-04-11T13:45:09Z</time></trkpt><trkpt lat="44.02696553208236" lon="12.463343167482375"><ele>52.0</ele><time>2026-04-11T13:45:10Z</time></trkpt><trkpt lat="44.027050562292835" lon="12.46349663496748"><ele>52.0</ele><time>2026-04-11T13:45:11Z</time></trkpt><trkpt lat="44.027130904033726" lon="12.463644357920483"><ele>52.0</ele><time>2026-04-11T13:45:12Z</time></trkpt><trkpt lat="44.027209112481614" lon="12.463789159446693"><ele>52.0</ele><time>2026-04-11T13:45:13Z</time></trkpt><trkpt lat="44.02728804105963" lon="12.463933683772542"><ele>51.75</ele><time>2026-04-11T13:45:14Z</time></trkpt><trkpt lat="44.02736797319293" lon="12.46408158385304"><ele>51.5</ele><time>2026-04-11T13:45:15Z</time></trkpt><trkpt lat="44.027446371233474" lon="12.464232034403462"><ele>51.25</ele><time>2026-04-11T13:45:16Z</time></trkpt><trkpt lat="44.02752848345628" lon="12.464381392998916"><ele>51.0</ele><time>2026-04-11T13:45:17Z</time></trkpt><trkpt lat="44.02761247835794" lon="12.464530082986832"><ele>50.25</ele><time>2026-04-11T13:45:18Z</time></trkpt><trkpt lat="44.027696505432694" lon="12.46468022563099"><ele>49.5</ele><time>2026-04-11T13:45:19Z</time></trkpt><trkpt lat="44.02777802716489" lon="12.464832544461164"><ele>48.75</ele><time>2026-04-11T13:45:20Z</time></trkpt><trkpt lat="44.02785993383028" lon="12.464982599282033"><ele>48.0</ele><time>2026-04-11T13:45:21Z</time></trkpt><trkpt lat="44.02794136449227" lon="12.465129746408822"><ele>48.0</ele><time>2026-04-11T13:45:22Z</time></trkpt><trkpt lat="44.02802240054125" lon="12.465276573545312"><ele>48.0</ele><time>2026-04-11T13:45:23Z</time></trkpt><trkpt lat="44.02810188692709" lon="12.465422789486565"><ele>48.0</ele><time>2026-04-11T13:45:24Z</time></trkpt><trkpt lat="44.02818006272687" lon="12.465565886585317"><ele>48.0</ele><time>2026-04-11T13:45:25Z</time></trkpt><trkpt lat="44.02825788404102" lon="12.46570816104577"><ele>48.0</ele><time>2026-04-11T13:45:26Z</time></trkpt><trkpt lat="44.02833453582753" lon="12.465850034684307"><ele>48.0</ele><time>2026-04-11T13:45:27Z</time></trkpt><trkpt lat="44.02841313181088" lon="12.465992321235698"><ele>48.0</ele><time>2026-04-11T13:45:28Z</time></trkpt><trkpt lat="44.02849238822134" lon="12.466135385503229"><ele>48.0</ele><time>2026-04-11T13:45:29Z</time></trkpt><trkpt lat="44.028569133196385" lon="12.466276272520952"><ele>47.75</ele><time>2026-04-11T13:45:30Z</time></trkpt><trkpt lat="44.028645922836674" lon="12.466417510283394"><ele>47.5</ele><time>2026-04-11T13:45:31Z</time></trkpt><trkpt lat="44.02872159322275" lon="12.466557365091505"><ele>47.25</ele><time>2026-04-11T13:45:32Z</time></trkpt><trkpt lat="44.02879851639329" lon="12.466694347732208"><ele>47.0</ele><time>2026-04-11T13:45:33Z</time></trkpt><trkpt lat="44.028874234100066" lon="12.46683171484364"><ele>47.0</ele><time>2026-04-11T13:45:34Z</time></trkpt><trkpt lat="44.02894911318735" lon="12.466968193591041"><ele>47.0</ele><time>2026-04-11T13:45:35Z</time></trkpt><trkpt lat="44.029023105246374" lon="12.467104602540497"><ele>47.0</ele><time>2026-04-11T13:45:36Z</time></trkpt><trkpt lat="44.029098504986244" lon="12.467238840594632"><ele>47.0</ele><time>2026-04-11T13:45:37Z</time></trkpt><trkpt lat="44.02917367921854" lon="12.4673732241547"><ele>47.0</ele><time>2026-04-11T13:45:38Z</time></trkpt><trkpt lat="44.02924921468546" lon="12.467505571779677"><ele>47.0</ele><time>2026-04-11T13:45:39Z</time></trkpt><trkpt lat="44.02932430002716" lon="12.467638494878415"><ele>47.0</ele><time>2026-04-11T13:45:40Z</time></trkpt><trkpt lat="44.02939982793612" lon="12.467766826081052"><ele>47.0</ele><time>2026-04-11T13:45:41Z</time></trkpt><trkpt lat="44.02947417038753" lon="12.467890614816861"><ele>47.0</ele><time>2026-04-11T13:45:41.999Z</time></trkpt><trkpt lat="44.02954671532637" lon="12.468006719472204"><ele>47.0</ele><time>2026-04-11T13:45:42.999Z</time></trkpt><trkpt lat="44.02961535358709" lon="12.468119413335133"><ele>47.0</ele><time>2026-04-11T13:45:43.999Z</time></trkpt><trkpt lat="44.02968178281781" lon="12.468227904567103"><ele>47.0</ele><time>2026-04-11T13:45:44.999Z</time></trkpt><trkpt lat="44.029746317992576" lon="12.46833485556996"><ele>47.0</ele><time>2026-04-11T13:45:45.999Z</time></trkpt><trkpt lat="44.02980972110956" lon="12.468439852223256"><ele>47.0</ele><time>2026-04-11T13:45:46.999Z</time></trkpt><trkpt lat="44.02987518059556" lon="12.46853756663048"><ele>47.0</ele><time>2026-04-11T13:45:47.999Z</time></trkpt><trkpt lat="44.029943218879176" lon="12.468633110825996"><ele>47.0</ele><time>2026-04-11T13:45:48.999Z</time></trkpt><trkpt lat="44.030006289890736" lon="12.46872481217985"><ele>47.0</ele><time>2026-04-11T13:45:49.999Z</time></trkpt><trkpt lat="44.03006481050099" lon="12.46881467831799"><ele>47.0</ele><time>2026-04-11T13:45:50.999Z</time></trkpt><trkpt lat="44.030114788936544" lon="12.468900300885489"><ele>47.14285714285714</ele><time>2026-04-11T13:45:51.999Z</time></trkpt><trkpt lat="44.030159885667125" lon="12.46898167112697"><ele>47.285714285714285</ele><time>2026-04-11T13:45:52.999Z</time></trkpt><trkpt lat="44.030203776832785" lon="12.469053456367966"><ele>47.42857142857143</ele><time>2026-04-11T13:45:53.999Z</time></trkpt><trkpt lat="44.03024786206704" lon="12.469116222487406"><ele>47.57142857142857</ele><time>2026-04-11T13:45:54.999Z</time></trkpt><trkpt lat="44.03030327827968" lon="12.469213530437157"><ele>47.714285714285715</ele><time>2026-04-11T13:45:56.999Z</time></trkpt><trkpt lat="44.03034861254759" lon="12.469284232381892"><ele>47.857142857142854</ele><time>2026-04-11T13:45:59.999Z</time></trkpt><trkpt lat="44.030391794046295" lon="12.469365875018996"><ele>48.0</ele><time>2026-04-11T13:46:01.999Z</time></trkpt><trkpt lat="44.030444690579756" lon="12.469458798104702"><ele>48.0</ele><time>2026-04-11T13:46:03.999Z</time></trkpt><trkpt lat="44.030509459776916" lon="12.469559272860021"><ele>48.0</ele><time>2026-04-11T13:46:05.999Z</time></trkpt><trkpt lat="44.030580410541134" lon="12.46966877638251"><ele>48.0</ele><time>2026-04-11T13:46:07.999Z</time></trkpt><trkpt lat="44.030634917578816" lon="12.469795617894366"><ele>48.0</ele><time>2026-04-11T13:46:09.999Z</time></trkpt><trkpt lat="44.030599337846866" lon="12.469921311838071"><ele>48.0</ele><time>2026-04-11T13:46:11.999Z</time></trkpt><trkpt lat="44.03054576942167" lon="12.469971726329184"><ele>47.666666666666664</ele><time>2026-04-11T13:46:12.999Z</time></trkpt><trkpt lat="44.03048721565669" lon="12.470037999823461"><ele>47.333333333333336</ele><time>2026-04-11T13:46:13.999Z</time></trkpt><trkpt lat="44.03042640436239" lon="12.470127400849936"><ele>47.0</ele><time>2026-04-11T13:46:14.999Z</time></trkpt><trkpt lat="44.03037535161486" lon="12.47021238698556"><ele>46.66666666666667</ele><time>2026-04-11T13:46:15.999Z</time></trkpt><trkpt lat="44.030324316345016" lon="12.470297341322992"><ele>46.333333333333336</ele><time>2026-04-11T13:46:16.999Z</time></trkpt><trkpt lat="44.03027770555746" lon="12.470391525798794"><ele>46.0</ele><time>2026-04-11T13:46:17.999Z</time></trkpt><trkpt lat="44.03024015554126" lon="12.470493592217991"><ele>45.8</ele><time>2026-04-11T13:46:18.999Z</time></trkpt><trkpt lat="44.030204056542814" lon="12.47058902282423"><ele>45.599999999999994</ele><time>2026-04-11T13:46:19.999Z</time></trkpt><trkpt lat="44.030153478088536" lon="12.470696657968775"><ele>45.4</ele><time>2026-04-11T13:46:20.999Z</time></trkpt><trkpt lat="44.03009718866874" lon="12.47080020508424"><ele>45.2</ele><time>2026-04-11T13:46:21.999Z</time></trkpt><trkpt lat="44.03004296996261" lon="12.470903123084495"><ele>45.0</ele><time>2026-04-11T13:46:22.999Z</time></trkpt><trkpt lat="44.029981628276914" lon="12.471006036426687"><ele>45.4</ele><time>2026-04-11T13:46:23.999Z</time></trkpt><trkpt lat="44.02990935098761" lon="12.471104877936895"><ele>45.8</ele><time>2026-04-11T13:46:24.999Z</time></trkpt><trkpt lat="44.029831136534106" lon="12.471198080184625"><ele>46.2</ele><time>2026-04-11T13:46:25.999Z</time></trkpt><trkpt lat="44.02975056554366" lon="12.471289378684904"><ele>46.6</ele><time>2026-04-11T13:46:26.999Z</time></trkpt><trkpt lat="44.029674124381835" lon="12.471369959223383"><ele>47.0</ele><time>2026-04-11T13:46:27.999Z</time></trkpt><trkpt lat="44.02959978236078" lon="12.471444558173978"><ele>47.6</ele><time>2026-04-11T13:46:28.999Z</time></trkpt><trkpt lat="44.0295271478372" lon="12.471526275751161"><ele>48.2</ele><time>2026-04-11T13:46:29.999Z</time></trkpt><trkpt lat="44.029453133311364" lon="12.471610561015632"><ele>48.8</ele><time>2026-04-11T13:46:30.999Z</time></trkpt><trkpt lat="44.0293793292196" lon="12.471691049818979"><ele>49.4</ele><time>2026-04-11T13:46:31.999Z</time></trkpt><trkpt lat="44.02930738544712" lon="12.47177554899275"><ele>50.0</ele><time>2026-04-11T13:46:32.999Z</time></trkpt><trkpt lat="44.02923612294478" lon="12.471862347080855"><ele>50.0</ele><time>2026-04-11T13:46:33.999Z</time></trkpt><trkpt lat="44.029171700303706" lon="12.471958740714857"><ele>50.0</ele><time>2026-04-11T13:46:34.999Z</time></trkpt><trkpt lat="44.02910570599894" lon="12.472057301374038"><ele>50.0</ele><time>2026-04-11T13:46:35.999Z</time></trkpt><trkpt lat="44.029043378562626" lon="12.47215950682866"><ele>50.0</ele><time>2026-04-11T13:46:36.999Z</time></trkpt><trkpt lat="44.02898281845829" lon="12.472260693195508"><ele>50.0</ele><time>2026-04-11T13:46:37.999Z</time></trkpt><trkpt lat="44.028926356747704" lon="12.472366904370181"><ele>49.8</ele><time>2026-04-11T13:46:38.999Z</time></trkpt><trkpt lat="44.028858911379196" lon="12.472479454592234"><ele>49.6</ele><time>2026-04-11T13:46:39.999Z</time></trkpt><trkpt lat="44.02878635850314" lon="12.472597270673747"><ele>49.400000000000006</ele><time>2026-04-11T13:46:40.999Z</time></trkpt><trkpt lat="44.02871065410527" lon="12.472712263061144"><ele>49.2</ele><time>2026-04-11T13:46:41.999Z</time></trkpt><trkpt lat="44.02863723253131" lon="12.472824576956613"><ele>49.0</ele><time>2026-04-11T13:46:42.999Z</time></trkpt><trkpt lat="44.028567357726175" lon="12.472934106274243"><ele>48.800000000000004</ele><time>2026-04-11T13:46:43.999Z</time></trkpt><trkpt lat="44.02849534986063" lon="12.47303913261151"><ele>48.6</ele><time>2026-04-11T13:46:44.999Z</time></trkpt><trkpt lat="44.02842666590722" lon="12.473147615883757"><ele>48.4</ele><time>2026-04-11T13:46:45.999Z</time></trkpt><trkpt lat="44.02836672426003" lon="12.473269823609867"><ele>48.2</ele><time>2026-04-11T13:46:46.999Z</time></trkpt><trkpt lat="44.02832061299305" lon="12.473407720572926"><ele>48.0</ele><time>2026-04-11T13:46:47.999Z</time></trkpt><trkpt lat="44.02828277361958" lon="12.473556142362119"><ele>47.75</ele><time>2026-04-11T13:46:48.999Z</time></trkpt><trkpt lat="44.02825229645893" lon="12.473716630321686"><ele>47.5</ele><time>2026-04-11T13:46:49.999Z</time></trkpt><trkpt lat="44.0282287349404" lon="12.473888212490415"><ele>47.25</ele><time>2026-04-11T13:46:51Z</time></trkpt><trkpt lat="44.028204786387775" lon="12.474051521746178"><ele>47.0</ele><time>2026-04-11T13:46:52Z</time></trkpt><trkpt lat="44.02817100131056" lon="12.474210370227384"><ele>47.5</ele><time>2026-04-11T13:46:53Z</time></trkpt><trkpt lat="44.02811785914581" lon="12.474364850133275"><ele>48.0</ele><time>2026-04-11T13:46:54Z</time></trkpt><trkpt lat="44.02805478964435" lon="12.474497500858496"><ele>48.5</ele><time>2026-04-11T13:46:55Z</time></trkpt><trkpt lat="44.027992976241876" lon="12.474639273384765"><ele>49.0</ele><time>2026-04-11T13:46:56Z</time></trkpt><trkpt lat="44.02793224427379" lon="12.474785193703678"><ele>49.0</ele><time>2026-04-11T13:46:57Z</time></trkpt><trkpt lat="44.027909576380864" lon="12.474960565319149"><ele>49.0</ele><time>2026-04-11T13:46:58Z</time></trkpt><trkpt lat="44.02787906401635" lon="12.475137598998431"><ele>49.0</ele><time>2026-04-11T13:46:59Z</time></trkpt><trkpt lat="44.02785547176046" lon="12.475323168226172"><ele>49.0</ele><time>2026-04-11T13:47:00Z</time></trkpt><trkpt lat="44.02783474868152" lon="12.475506450698091"><ele>49.0</ele><time>2026-04-11T13:47:01Z</time></trkpt><trkpt lat="44.02781597292334" lon="12.475686921362247"><ele>49.0</ele><time>2026-04-11T13:47:02Z</time></trkpt><trkpt lat="44.027797137699885" lon="12.475863002071023"><ele>49.0</ele><time>2026-04-11T13:47:03Z</time></trkpt><trkpt lat="44.027779545684574" lon="12.476044381845854"><ele>49.0</ele><time>2026-04-11T13:47:04Z</time></trkpt><trkpt lat="44.027757258005174" lon="12.476225673772747"><ele>49.0</ele><time>2026-04-11T13:47:05Z</time></trkpt><trkpt lat="44.02773171207579" lon="12.476403022807236"><ele>49.0</ele><time>2026-04-11T13:47:06Z</time></trkpt><trkpt lat="44.027703434917704" lon="12.47657530830259"><ele>49.0</ele><time>2026-04-11T13:47:07Z</time></trkpt><trkpt lat="44.027664293328264" lon="12.47674634797141"><ele>49.0</ele><time>2026-04-11T13:47:08Z</time></trkpt><trkpt lat="44.02760996396388" lon="12.476918368367814"><ele>49.0</ele><time>2026-04-11T13:47:09Z</time></trkpt><trkpt lat="44.02754956949899" lon="12.477086211308281"><ele>49.0</ele><time>2026-04-11T13:47:10Z</time></trkpt><trkpt lat="44.027487490552964" lon="12.477254851241554"><ele>49.0</ele><time>2026-04-11T13:47:11Z</time></trkpt><trkpt lat="44.027420454997404" lon="12.477427261783456"><ele>49.0</ele><time>2026-04-11T13:47:12Z</time></trkpt><trkpt lat="44.02734757821165" lon="12.477595656368221"><ele>49.0</ele><time>2026-04-11T13:47:13Z</time></trkpt><trkpt lat="44.02727183709469" lon="12.477768184997924"><ele>49.0</ele><time>2026-04-11T13:47:14Z</time></trkpt><trkpt lat="44.02720326849363" lon="12.477955549617453"><ele>49.0</ele><time>2026-04-11T13:47:15Z</time></trkpt><trkpt lat="44.02712474452291" lon="12.478143459874017"><ele>49.0</ele><time>2026-04-11T13:47:16Z</time></trkpt><trkpt lat="44.02704806760424" lon="12.4783367086274"><ele>49.0</ele><time>2026-04-11T13:47:17Z</time></trkpt><trkpt lat="44.02697075212836" lon="12.478541789213367"><ele>49.0</ele><time>2026-04-11T13:47:18Z</time></trkpt><trkpt lat="44.02689680870485" lon="12.47874041196608"><ele>49.33333333333333</ele><time>2026-04-11T13:47:19Z</time></trkpt><trkpt lat="44.02682269881142" lon="12.478945526885378"><ele>49.66666666666667</ele><time>2026-04-11T13:47:20Z</time></trkpt><trkpt lat="44.02675777569371" lon="12.479139820326555"><ele>50.0</ele><time>2026-04-11T13:47:21Z</time></trkpt><trkpt lat="44.02670229753994" lon="12.479334073151383"><ele>50.0</ele><time>2026-04-11T13:47:22Z</time></trkpt><trkpt lat="44.02664956989487" lon="12.479518677194099"><ele>50.0</ele><time>2026-04-11T13:47:23Z</time></trkpt><trkpt lat="44.02660645187414" lon="12.479697138845022"><ele>50.0</ele><time>2026-04-11T13:47:24Z</time></trkpt><trkpt lat="44.02656607120072" lon="12.4798775725334"><ele>50.0</ele><time>2026-04-11T13:47:25Z</time></trkpt><trkpt lat="44.026522975832805" lon="12.48005908163029"><ele>51.5</ele><time>2026-04-11T13:47:26Z</time></trkpt><trkpt lat="44.0264745263943" lon="12.480241457651543"><ele>53.0</ele><time>2026-04-11T13:47:27Z</time></trkpt><trkpt lat="44.02643139941183" lon="12.480415728645182"><ele>54.5</ele><time>2026-04-11T13:47:28Z</time></trkpt><trkpt lat="44.026387118757434" lon="12.480592436635206"><ele>56.0</ele><time>2026-04-11T13:47:29Z</time></trkpt><trkpt lat="44.02634836251833" lon="12.480766133336525"><ele>56.0</ele><time>2026-04-11T13:47:30Z</time></trkpt><trkpt lat="44.02630046930608" lon="12.4809329960509"><ele>56.0</ele><time>2026-04-11T13:47:31Z</time></trkpt><trkpt lat="44.02624980378885" lon="12.481107585763704"><ele>56.0</ele><time>2026-04-11T13:47:32Z</time></trkpt><trkpt lat="44.02620095030532" lon="12.481286014756389"><ele>56.0</ele><time>2026-04-11T13:47:33Z</time></trkpt><trkpt lat="44.02615675829746" lon="12.48147615610367"><ele>55.5</ele><time>2026-04-11T13:47:34Z</time></trkpt><trkpt lat="44.02611363484147" lon="12.481672396898169"><ele>55.0</ele><time>2026-04-11T13:47:35Z</time></trkpt><trkpt lat="44.02606952128505" lon="12.481866144613836"><ele>54.5</ele><time>2026-04-11T13:47:36Z</time></trkpt><trkpt lat="44.026025126828564" lon="12.482062662575421"><ele>54.0</ele><time>2026-04-11T13:47:37Z</time></trkpt><trkpt lat="44.02598022177904" lon="12.482255100605961"><ele>53.25</ele><time>2026-04-11T13:47:38Z</time></trkpt><trkpt lat="44.02593393989062" lon="12.482437884156619"><ele>52.5</ele><time>2026-04-11T13:47:39Z</time></trkpt><trkpt lat="44.02588075988968" lon="12.48261754800295"><ele>51.75</ele><time>2026-04-11T13:47:40Z</time></trkpt><trkpt lat="44.02581475046515" lon="12.482786779849102"><ele>51.0</ele><time>2026-04-11T13:47:41Z</time></trkpt><trkpt lat="44.025733765167914" lon="12.482944516700403"><ele>52.75</ele><time>2026-04-11T13:47:42Z</time></trkpt><trkpt lat="44.02563658926315" lon="12.483089138520024"><ele>54.5</ele><time>2026-04-11T13:47:43Z</time></trkpt><trkpt lat="44.0255319467958" lon="12.483220522506862"><ele>56.25</ele><time>2026-04-11T13:47:44Z</time></trkpt><trkpt lat="44.02542535992172" lon="12.483360380197492"><ele>58.0</ele><time>2026-04-11T13:47:45Z</time></trkpt><trkpt lat="44.02532115564734" lon="12.483499075371466"><ele>58.0</ele><time>2026-04-11T13:47:46Z</time></trkpt><trkpt lat="44.025224766928005" lon="12.483658110905647"><ele>58.0</ele><time>2026-04-11T13:47:47Z</time></trkpt><trkpt lat="44.02513611191102" lon="12.483831638803817"><ele>58.0</ele><time>2026-04-11T13:47:48Z</time></trkpt><trkpt lat="44.025046850652934" lon="12.484012263230015"><ele>57.666666666666664</ele><time>2026-04-11T13:47:49Z</time></trkpt><trkpt lat="44.024954280655535" lon="12.484194417192011"><ele>57.33333333333333</ele><time>2026-04-11T13:47:49.999Z</time></trkpt><trkpt lat="44.024860455534785" lon="12.484378032179029"><ele>57.0</ele><time>2026-04-11T13:47:50.999Z</time></trkpt><trkpt lat="44.024770076065565" lon="12.484565001403293"><ele>57.66666666666667</ele><time>2026-04-11T13:47:51.999Z</time></trkpt><trkpt lat="44.02467607899022" lon="12.48475208221309"><ele>58.333333333333336</ele><time>2026-04-11T13:47:52.999Z</time></trkpt><trkpt lat="44.024578164281884" lon="12.484931622429638"><ele>59.0</ele><time>2026-04-11T13:47:53.999Z</time></trkpt><trkpt lat="44.024475283527615" lon="12.485102462900374"><ele>59.0</ele><time>2026-04-11T13:47:54.999Z</time></trkpt><trkpt lat="44.024368532924825" lon="12.485262369456665"><ele>59.0</ele><time>2026-04-11T13:47:55.999Z</time></trkpt><trkpt lat="44.024252998341" lon="12.485402508449338"><ele>59.0</ele><time>2026-04-11T13:47:56.999Z</time></trkpt><trkpt lat="44.02412090720486" lon="12.485505776415286"><ele>60.75</ele><time>2026-04-11T13:47:57.999Z</time></trkpt><trkpt lat="44.0239845135885" lon="12.485581504876"><ele>62.5</ele><time>2026-04-11T13:47:58.999Z</time></trkpt><trkpt lat="44.02385541903933" lon="12.485658222651933"><ele>64.25</ele><time>2026-04-11T13:47:59.999Z</time></trkpt><trkpt lat="44.02372649478319" lon="12.485732603106975"><ele>66.0</ele><time>2026-04-11T13:48:00.999Z</time></trkpt><trkpt lat="44.02360379539693" lon="12.485809897044492"><ele>66.0</ele><time>2026-04-11T13:48:01.999Z</time></trkpt><trkpt lat="44.02349592657025" lon="12.485886818727817"><ele>66.0</ele><time>2026-04-11T13:48:02.999Z</time></trkpt><trkpt lat="44.02339957670612" lon="12.485972483841381"><ele>66.0</ele><time>2026-04-11T13:48:03.999Z</time></trkpt><trkpt lat="44.02331195193565" lon="12.486071362917746"><ele>66.0</ele><time>2026-04-11T13:48:04.999Z</time></trkpt><trkpt lat="44.02324487060742" lon="12.48617713572459"><ele>68.2</ele><time>2026-04-11T13:48:05.999Z</time></trkpt><trkpt lat="44.023182718109496" lon="12.48629203901436"><ele>70.39999999999999</ele><time>2026-04-11T13:48:06.999Z</time></trkpt><trkpt lat="44.02312448084657" lon="12.486418700698227"><ele>72.6</ele><time>2026-04-11T13:48:07.999Z</time></trkpt><trkpt lat="44.023068763426444" lon="12.486548737412974"><ele>74.8</ele><time>2026-04-11T13:48:08.999Z</time></trkpt><trkpt lat="44.02301101326414" lon="12.486675201182285"><ele>77.0</ele><time>2026-04-11T13:48:09.999Z</time></trkpt><trkpt lat="44.02295318554631" lon="12.486802694626423"><ele>77.0</ele><time>2026-04-11T13:48:10.999Z</time></trkpt><trkpt lat="44.02289708181671" lon="12.48692923655414"><ele>77.0</ele><time>2026-04-11T13:48:11.999Z</time></trkpt><trkpt lat="44.0228437603071" lon="12.487059025922344"><ele>77.0</ele><time>2026-04-11T13:48:12.999Z</time></trkpt><trkpt lat="44.02279347455536" lon="12.487188548702285"><ele>77.0</ele><time>2026-04-11T13:48:13.999Z</time></trkpt><trkpt lat="44.02274249896145" lon="12.487315808025524"><ele>77.0</ele><time>2026-04-11T13:48:14.999Z</time></trkpt><trkpt lat="44.02268980284538" lon="12.487443853178538"><ele>78.6</ele><time>2026-04-11T13:48:15.999Z</time></trkpt><trkpt lat="44.02264479197892" lon="12.487576856868522"><ele>80.2</ele><time>2026-04-11T13:48:16.999Z</time></trkpt><trkpt lat="44.02259582728279" lon="12.487705654861651"><ele>81.8</ele><time>2026-04-11T13:48:17.999Z</time></trkpt><trkpt lat="44.02254919613463" lon="12.487813859471617"><ele>83.4</ele><time>2026-04-11T13:48:18.999Z</time></trkpt><trkpt lat="44.02248936742166" lon="12.487933284523436"><ele>85.0</ele><time>2026-04-11T13:48:19.999Z</time></trkpt><trkpt lat="44.02242372759565" lon="12.48805376179529"><ele>88.25</ele><time>2026-04-11T13:48:20.999Z</time></trkpt><trkpt lat="44.02235450297465" lon="12.488175199938746"><ele>91.5</ele><time>2026-04-11T13:48:21.999Z</time></trkpt><trkpt lat="44.02228285017557" lon="12.488298837134057"><ele>94.75</ele><time>2026-04-11T13:48:22.999Z</time></trkpt><trkpt lat="44.02221150750808" lon="12.488421502155688"><ele>98.0</ele><time>2026-04-11T13:48:23.999Z</time></trkpt><trkpt lat="44.022138805583786" lon="12.488547325855526"><ele>98.0</ele><time>2026-04-11T13:48:24.999Z</time></trkpt><trkpt lat="44.02206803399627" lon="12.488675601829998"><ele>98.0</ele><time>2026-04-11T13:48:25.999Z</time></trkpt><trkpt lat="44.02199534381556" lon="12.488801468317831"><ele>98.0</ele><time>2026-04-11T13:48:26.999Z</time></trkpt><trkpt lat="44.02190723958225" lon="12.488905582218134"><ele>98.0</ele><time>2026-04-11T13:48:27.999Z</time></trkpt><trkpt lat="44.02180046049723" lon="12.488972969835391"><ele>98.0</ele><time>2026-04-11T13:48:28.999Z</time></trkpt><trkpt lat="44.021687459763356" lon="12.489004781629967"><ele>98.0</ele><time>2026-04-11T13:48:29.999Z</time></trkpt><trkpt lat="44.021575136120326" lon="12.489002006637692"><ele>98.0</ele><time>2026-04-11T13:48:30.999Z</time></trkpt><trkpt lat="44.02147214458234" lon="12.48895484725463"><ele>98.0</ele><time>2026-04-11T13:48:31.999Z</time></trkpt><trkpt lat="44.021363805188734" lon="12.48895387948604"><ele>98.0</ele><time>2026-04-11T13:48:32.999Z</time></trkpt><trkpt lat="44.021262704068924" lon="12.488991936323085"><ele>100.99999999999999</ele><time>2026-04-11T13:48:33.999Z</time></trkpt><trkpt lat="44.0211996448448" lon="12.489067294296069"><ele>104.0</ele><time>2026-04-11T13:48:34.999Z</time></trkpt><trkpt lat="44.02113955869801" lon="12.489154965917828"><ele>107.0</ele><time>2026-04-11T13:48:35.999Z</time></trkpt><trkpt lat="44.02110606322776" lon="12.489267311886147"><ele>110.0</ele><time>2026-04-11T13:48:36.999Z</time></trkpt><trkpt lat="44.021085479391154" lon="12.489379507381368"><ele>112.99999999999999</ele><time>2026-04-11T13:48:37.999Z</time></trkpt><trkpt lat="44.021068552524966" lon="12.48949453871363"><ele>116.0</ele><time>2026-04-11T13:48:38.999Z</time></trkpt><trkpt lat="44.02106092536083" lon="12.489624036042763"><ele>117.0</ele><time>2026-04-11T13:48:39.999Z</time></trkpt><trkpt lat="44.02106258126215" lon="12.489760968816068"><ele>118.0</ele><time>2026-04-11T13:48:40.999Z</time></trkpt><trkpt lat="44.021073921575464" lon="12.489894480095145"><ele>119.0</ele><time>2026-04-11T13:48:41.999Z</time></trkpt><trkpt lat="44.02108985098359" lon="12.490035882625504"><ele>120.0</ele><time>2026-04-11T13:48:42.999Z</time></trkpt><trkpt lat="44.0211051716331" lon="12.490178275196092"><ele>121.0</ele><time>2026-04-11T13:48:43.999Z</time></trkpt><trkpt lat="44.021120376955125" lon="12.490322459689606"><ele>121.6</ele><time>2026-04-11T13:48:44.999Z</time></trkpt><trkpt lat="44.02113077639671" lon="12.490468340796223"><ele>122.19999999999999</ele><time>2026-04-11T13:48:45.999Z</time></trkpt><trkpt lat="44.02113733025408" lon="12.490619530239114"><ele>122.80000000000001</ele><time>2026-04-11T13:48:46.999Z</time></trkpt><trkpt lat="44.02113936885253" lon="12.490774720753333"><ele>123.4</ele><time>2026-04-11T13:48:47.999Z</time></trkpt><trkpt lat="44.02112358381464" lon="12.490923723556591"><ele>124.0</ele><time>2026-04-11T13:48:48.999Z</time></trkpt><trkpt lat="44.021095937046226" lon="12.491061851354013"><ele>124.0</ele><time>2026-04-11T13:48:49.999Z</time></trkpt><trkpt lat="44.02106433916162" lon="12.491195107935104"><ele>124.0</ele><time>2026-04-11T13:48:50.999Z</time></trkpt><trkpt lat="44.021008137723875" lon="12.491308311100262"><ele>124.0</ele><time>2026-04-11T13:48:51.999Z</time></trkpt><trkpt lat="44.02095135046279" lon="12.49141835691272"><ele>124.0</ele><time>2026-04-11T13:48:52.999Z</time></trkpt><trkpt lat="44.020886680018556" lon="12.491523074763343"><ele>124.0</ele><time>2026-04-11T13:48:53.999Z</time></trkpt><trkpt lat="44.02081852916028" lon="12.491629899177271"><ele>124.80000000000001</ele><time>2026-04-11T13:48:54.999Z</time></trkpt><trkpt lat="44.020748644892244" lon="12.491738120245214"><ele>125.60000000000001</ele><time>2026-04-11T13:48:55.999Z</time></trkpt><trkpt lat="44.02067892626367" lon="12.491845873673736"><ele>126.4</ele><time>2026-04-11T13:48:57Z</time></trkpt><trkpt lat="44.02060999006417" lon="12.491944520748591"><ele>127.2</ele><time>2026-04-11T13:48:58Z</time></trkpt><trkpt lat="44.02053752246149" lon="12.492034961609587"><ele>128.0</ele><time>2026-04-11T13:48:59Z</time></trkpt><trkpt lat="44.020455375098656" lon="12.492121450000957"><ele>128.0</ele><time>2026-04-11T13:49:00Z</time></trkpt><trkpt lat="44.02036907474311" lon="12.492200142465554"><ele>128.0</ele><time>2026-04-11T13:49:01Z</time></trkpt><trkpt lat="44.020283310977156" lon="12.492276989603214"><ele>128.0</ele><time>2026-04-11T13:49:02Z</time></trkpt><trkpt lat="44.02019590706258" lon="12.492352284166573"><ele>128.0</ele><time>2026-04-11T13:49:03Z</time></trkpt><trkpt lat="44.0201153915181" lon="12.492420496729544"><ele>128.0</ele><time>2026-04-11T13:49:04Z</time></trkpt><trkpt lat="44.02004252892203" lon="12.492484752275015"><ele>128.83333333333331</ele><time>2026-04-11T13:49:05Z</time></trkpt><trkpt lat="44.01996873204789" lon="12.492551362284493"><ele>129.66666666666666</ele><time>2026-04-11T13:49:06Z</time></trkpt><trkpt lat="44.0199106443993" lon="12.492637430177082"><ele>130.5</ele><time>2026-04-11T13:49:07Z</time></trkpt><trkpt lat="44.01985354822443" lon="12.492703502791361"><ele>131.33333333333334</ele><time>2026-04-11T13:49:08Z</time></trkpt><trkpt lat="44.01979706582146" lon="12.492768050309069"><ele>132.16666666666669</ele><time>2026-04-11T13:49:09Z</time></trkpt><trkpt lat="44.019749593583846" lon="12.492836769356927"><ele>133.0</ele><time>2026-04-11T13:49:10Z</time></trkpt><trkpt lat="44.01968757860103" lon="12.492945612939586"><ele>133.0</ele><time>2026-04-11T13:49:12Z</time></trkpt><trkpt lat="44.01966093529634" lon="12.493028483401737"><ele>133.0</ele><time>2026-04-11T13:49:15Z</time></trkpt><trkpt lat="44.01963193176483" lon="12.493117501600839"><ele>133.0</ele><time>2026-04-11T13:49:31Z</time></trkpt><trkpt lat="44.019573172840666" lon="12.49325748094061"><ele>133.0</ele><time>2026-04-11T13:49:33Z</time></trkpt><trkpt lat="44.01954344044683" lon="12.493342912167135"><ele>133.0</ele><time>2026-04-11T13:49:34Z</time></trkpt><trkpt lat="44.01950577669233" lon="12.493463083192777"><ele>133.0</ele><time>2026-04-11T13:49:35Z</time></trkpt><trkpt lat="44.01947219430374" lon="12.493579627455295"><ele>133.0</ele><time>2026-04-11T13:49:36Z</time></trkpt><trkpt lat="44.01943877629834" lon="12.493691940534317"><ele>133.0</ele><time>2026-04-11T13:49:37Z</time></trkpt><trkpt lat="44.01940666000653" lon="12.49381652873131"><ele>133.0</ele><time>2026-04-11T13:49:38Z</time></trkpt><trkpt lat="44.01937838345825" lon="12.493942061383835"><ele>133.0</ele><time>2026-04-11T13:49:39Z</time></trkpt><trkpt lat="44.01935946285739" lon="12.494077649144314"><ele>133.0</ele><time>2026-04-11T13:49:40Z</time></trkpt><trkpt lat="44.01935083313094" lon="12.49422280565626"><ele>132.6</ele><time>2026-04-11T13:49:41Z</time></trkpt><trkpt lat="44.01935128562611" lon="12.494374585597612"><ele>132.20000000000002</ele><time>2026-04-11T13:49:42Z</time></trkpt><trkpt lat="44.01935673239369" lon="12.494526802832647"><ele>131.8</ele><time>2026-04-11T13:49:43Z</time></trkpt><trkpt lat="44.01937443066665" lon="12.494682123283877"><ele>131.4</ele><time>2026-04-11T13:49:44Z</time></trkpt><trkpt lat="44.01939640480541" lon="12.494835292325824"><ele>131.0</ele><time>2026-04-11T13:49:45Z</time></trkpt><trkpt lat="44.019421583458225" lon="12.494987161353773"><ele>130.5</ele><time>2026-04-11T13:49:46Z</time></trkpt><trkpt lat="44.01944667467681" lon="12.49513536501709"><ele>130.0</ele><time>2026-04-11T13:49:47Z</time></trkpt><trkpt lat="44.019473158275055" lon="12.495297402986356"><ele>129.5</ele><time>2026-04-11T13:49:48Z</time></trkpt><trkpt lat="44.01946439819435" lon="12.495453190607341"><ele>129.0</ele><time>2026-04-11T13:49:49Z</time></trkpt><trkpt lat="44.01941206281865" lon="12.495603268308516"><ele>128.5</ele><time>2026-04-11T13:49:50Z</time></trkpt><trkpt lat="44.01933633409198" lon="12.495748363135437"><ele>128.0</ele><time>2026-04-11T13:49:51Z</time></trkpt><trkpt lat="44.019254943560135" lon="12.49588132595197"><ele>127.5</ele><time>2026-04-11T13:49:52Z</time></trkpt><trkpt lat="44.01917162226978" lon="12.496017816485985"><ele>127.0</ele><time>2026-04-11T13:49:53Z</time></trkpt><trkpt lat="44.01908593442602" lon="12.496146105417887"><ele>128.2</ele><time>2026-04-11T13:49:54Z</time></trkpt><trkpt lat="44.0189981120734" lon="12.496258604243648"><ele>129.39999999999998</ele><time>2026-04-11T13:49:55Z</time></trkpt><trkpt lat="44.01892274909789" lon="12.49635998465324"><ele>130.60000000000002</ele><time>2026-04-11T13:49:56Z</time></trkpt><trkpt lat="44.01884682577319" lon="12.496453315488614"><ele>131.8</ele><time>2026-04-11T13:49:57Z</time></trkpt><trkpt lat="44.018771783932344" lon="12.4965430398628"><ele>133.0</ele><time>2026-04-11T13:49:58Z</time></trkpt><trkpt lat="44.0187021234046" lon="12.496633644060669"><ele>133.0</ele><time>2026-04-11T13:49:59Z</time></trkpt><trkpt lat="44.018633523974785" lon="12.496724137437242"><ele>133.0</ele><time>2026-04-11T13:50:00Z</time></trkpt><trkpt lat="44.01857070173709" lon="12.49681868360546"><ele>133.0</ele><time>2026-04-11T13:50:00.999Z</time></trkpt><trkpt lat="44.018506172598606" lon="12.496912332383603"><ele>133.0</ele><time>2026-04-11T13:50:01.999Z</time></trkpt><trkpt lat="44.01844098068206" lon="12.497007859764787"><ele>133.0</ele><time>2026-04-11T13:50:02.999Z</time></trkpt><trkpt lat="44.018377690328094" lon="12.497096609574859"><ele>131.5</ele><time>2026-04-11T13:50:03.999Z</time></trkpt><trkpt lat="44.01832070086288" lon="12.49717134738958"><ele>130.0</ele><time>2026-04-11T13:50:04.999Z</time></trkpt><trkpt lat="44.0182712786863" lon="12.497229402250067"><ele>128.5</ele><time>2026-04-11T13:50:05.999Z</time></trkpt><trkpt lat="44.018195145749324" lon="12.497288766727202"><ele>127.0</ele><time>2026-04-11T13:50:07.999Z</time></trkpt><trkpt lat="44.0181456976427" lon="12.497387346663432"><ele>125.50000000000001</ele><time>2026-04-11T13:50:09.999Z</time></trkpt><trkpt lat="44.01811666246297" lon="12.497474921197371"><ele>124.0</ele><time>2026-04-11T13:50:10.999Z</time></trkpt><trkpt lat="44.018057413443465" lon="12.497564632638134"><ele>124.0</ele><time>2026-04-11T13:50:11.999Z</time></trkpt><trkpt lat="44.01799362936909" lon="12.497637118837954"><ele>124.0</ele><time>2026-04-11T13:50:12.999Z</time></trkpt><trkpt lat="44.01789172081163" lon="12.497718979129596"><ele>124.0</ele><time>2026-04-11T13:50:13.999Z</time></trkpt><trkpt lat="44.01778677184891" lon="12.497825327844968"><ele>124.0</ele><time>2026-04-11T13:50:14.999Z</time></trkpt><trkpt lat="44.01768570111117" lon="12.497948873694705"><ele>123.0</ele><time>2026-04-11T13:50:15.999Z</time></trkpt><trkpt lat="44.01758122789073" lon="12.498068977847083"><ele>122.0</ele><time>2026-04-11T13:50:16.999Z</time></trkpt><trkpt lat="44.017479217122236" lon="12.498185419843535"><ele>121.0</ele><time>2026-04-11T13:50:17.999Z</time></trkpt><trkpt lat="44.017371674770345" lon="12.498305231015692"><ele>120.0</ele><time>2026-04-11T13:50:18.999Z</time></trkpt><trkpt lat="44.01726292233981" lon="12.498425321112055"><ele>119.25</ele><time>2026-04-11T13:50:19.999Z</time></trkpt><trkpt lat="44.017148435173716" lon="12.498543347338689"><ele>118.5</ele><time>2026-04-11T13:50:20.999Z</time></trkpt><trkpt lat="44.01702987396988" lon="12.498649390022155"><ele>117.75</ele><time>2026-04-11T13:50:21.999Z</time></trkpt><trkpt lat="44.016917969693786" lon="12.498762192965374"><ele>117.0</ele><time>2026-04-11T13:50:22.999Z</time></trkpt><trkpt lat="44.01680427492255" lon="12.498861315861667"><ele>116.25</ele><time>2026-04-11T13:50:23.999Z</time></trkpt><trkpt lat="44.01668987233679" lon="12.498958367084644"><ele>115.5</ele><time>2026-04-11T13:50:24.999Z</time></trkpt><trkpt lat="44.01657695852011" lon="12.499056321288196"><ele>114.75</ele><time>2026-04-11T13:50:25.999Z</time></trkpt><trkpt lat="44.016455657744466" lon="12.499156198788867"><ele>114.0</ele><time>2026-04-11T13:50:26.999Z</time></trkpt><trkpt lat="44.01632550755163" lon="12.499261247314186"><ele>111.33333333333334</ele><time>2026-04-11T13:50:27.999Z</time></trkpt><trkpt lat="44.01619243599171" lon="12.499368770512984"><ele>108.66666666666667</ele><time>2026-04-11T13:50:28.999Z</time></trkpt><trkpt lat="44.01605433426691" lon="12.499480192234369"><ele>106.0</ele><time>2026-04-11T13:50:29.999Z</time></trkpt><trkpt lat="44.015920117739284" lon="12.499596099436836"><ele>101.66666666666667</ele><time>2026-04-11T13:50:30.999Z</time></trkpt><trkpt lat="44.01577296663088" lon="12.499725646583984"><ele>97.33333333333334</ele><time>2026-04-11T13:50:31.999Z</time></trkpt><trkpt lat="44.015627871490345" lon="12.499845646046445"><ele>93.0</ele><time>2026-04-11T13:50:32.999Z</time></trkpt><trkpt lat="44.015481455918334" lon="12.499968062847366"><ele>93.0</ele><time>2026-04-11T13:50:33.999Z</time></trkpt><trkpt lat="44.015336849801514" lon="12.500090235730784"><ele>93.0</ele><time>2026-04-11T13:50:34.999Z</time></trkpt><trkpt lat="44.01519661230028" lon="12.50021613943874"><ele>93.0</ele><time>2026-04-11T13:50:35.999Z</time></trkpt><trkpt lat="44.015058087744876" lon="12.500347329822413"><ele>92.0</ele><time>2026-04-11T13:50:36.999Z</time></trkpt><trkpt lat="44.01492174886677" lon="12.500475398565058"><ele>91.0</ele><time>2026-04-11T13:50:37.999Z</time></trkpt><trkpt lat="44.01478608240564" lon="12.500596401471107"><ele>90.0</ele><time>2026-04-11T13:50:38.999Z</time></trkpt><trkpt lat="44.01464718171336" lon="12.500719376383588"><ele>90.0</ele><time>2026-04-11T13:50:39.999Z</time></trkpt><trkpt lat="44.01451005641389" lon="12.500842841045705"><ele>90.0</ele><time>2026-04-11T13:50:40.999Z</time></trkpt><trkpt lat="44.014379593349254" lon="12.500961764099772"><ele>90.0</ele><time>2026-04-11T13:50:41.999Z</time></trkpt><trkpt lat="44.014251268801274" lon="12.501079044174231"><ele>89.33333333333333</ele><time>2026-04-11T13:50:42.999Z</time></trkpt><trkpt lat="44.01412554682702" lon="12.501199192599742"><ele>88.66666666666666</ele><time>2026-04-11T13:50:43.999Z</time></trkpt><trkpt lat="44.01400084271187" lon="12.50131482563754"><ele>88.0</ele><time>2026-04-11T13:50:44.999Z</time></trkpt><trkpt lat="44.01387631840409" lon="12.50142537270328"><ele>88.0</ele><time>2026-04-11T13:50:45.999Z</time></trkpt><trkpt lat="44.013756162289916" lon="12.50153177069669"><ele>88.0</ele><time>2026-04-11T13:50:46.999Z</time></trkpt><trkpt lat="44.01363807903827" lon="12.501623695946488"><ele>88.0</ele><time>2026-04-11T13:50:47.999Z</time></trkpt><trkpt lat="44.01352241744288" lon="12.501716666277986"><ele>88.0</ele><time>2026-04-11T13:50:48.999Z</time></trkpt><trkpt lat="44.01341004481951" lon="12.501799549673601"><ele>88.0</ele><time>2026-04-11T13:50:49.999Z</time></trkpt><trkpt lat="44.01330490985891" lon="12.501879235561812"><ele>88.0</ele><time>2026-04-11T13:50:50.999Z</time></trkpt><trkpt lat="44.0131907255066" lon="12.501962831688045"><ele>88.0</ele><time>2026-04-11T13:50:51.999Z</time></trkpt><trkpt lat="44.013076456802466" lon="12.502045249433515"><ele>88.0</ele><time>2026-04-11T13:50:52.999Z</time></trkpt><trkpt lat="44.0129625106078" lon="12.50213160284735"><ele>88.0</ele><time>2026-04-11T13:50:53.999Z</time></trkpt><trkpt lat="44.012851815598786" lon="12.502220285296417"><ele>88.0</ele><time>2026-04-11T13:50:54.999Z</time></trkpt><trkpt lat="44.012738175143696" lon="12.502311231128578"><ele>88.0</ele><time>2026-04-11T13:50:55.999Z</time></trkpt><trkpt lat="44.01262354830042" lon="12.502400094754213"><ele>88.0</ele><time>2026-04-11T13:50:56.999Z</time></trkpt><trkpt lat="44.012506091290604" lon="12.502486224841036"><ele>89.5</ele><time>2026-04-11T13:50:57.999Z</time></trkpt><trkpt lat="44.01238782034243" lon="12.502571163175134"><ele>91.0</ele><time>2026-04-11T13:50:58.999Z</time></trkpt><trkpt lat="44.012270475425765" lon="12.502655814188426"><ele>92.5</ele><time>2026-04-11T13:50:59.999Z</time></trkpt><trkpt lat="44.01215761188757" lon="12.502739364619385"><ele>94.0</ele><time>2026-04-11T13:51:00.999Z</time></trkpt><trkpt lat="44.01205194464906" lon="12.502823335221152"><ele>94.0</ele><time>2026-04-11T13:51:01.999Z</time></trkpt><trkpt lat="44.01194936067175" lon="12.502907318720299"><ele>94.0</ele><time>2026-04-11T13:51:03Z</time></trkpt><trkpt lat="44.011848106607914" lon="12.502992313251584"><ele>94.0</ele><time>2026-04-11T13:51:04Z</time></trkpt><trkpt lat="44.01174669465778" lon="12.50308542464288"><ele>94.0</ele><time>2026-04-11T13:51:05Z</time></trkpt><trkpt lat="44.01164216757149" lon="12.503182502353049"><ele>89.75</ele><time>2026-04-11T13:51:06Z</time></trkpt><trkpt lat="44.01153625658972" lon="12.503280219668513"><ele>85.5</ele><time>2026-04-11T13:51:07Z</time></trkpt><trkpt lat="44.011427712801726" lon="12.503382166928214"><ele>81.25</ele><time>2026-04-11T13:51:08Z</time></trkpt><trkpt lat="44.011321803689256" lon="12.503485674302965"><ele>77.0</ele><time>2026-04-11T13:51:09Z</time></trkpt><trkpt lat="44.011217005086614" lon="12.503587958351735"><ele>77.0</ele><time>2026-04-11T13:51:10Z</time></trkpt><trkpt lat="44.0111157633225" lon="12.50368951148633"><ele>77.0</ele><time>2026-04-11T13:51:11Z</time></trkpt><trkpt lat="44.01101533755246" lon="12.503799569094001"><ele>77.0</ele><time>2026-04-11T13:51:12Z</time></trkpt><trkpt lat="44.01091296515607" lon="12.503906543703895"><ele>77.0</ele><time>2026-04-11T13:51:13Z</time></trkpt><trkpt lat="44.010800038757644" lon="12.50399636119998"><ele>73.5</ele><time>2026-04-11T13:51:14Z</time></trkpt><trkpt lat="44.01067838254545" lon="12.504044958186647"><ele>70.0</ele><time>2026-04-11T13:51:15Z</time></trkpt><trkpt lat="44.010553369849326" lon="12.50406016576483"><ele>66.5</ele><time>2026-04-11T13:51:16Z</time></trkpt><trkpt lat="44.01044684728687" lon="12.504036277806396"><ele>63.0</ele><time>2026-04-11T13:51:17Z</time></trkpt><trkpt lat="44.01035716510286" lon="12.504011526712297"><ele>63.0</ele><time>2026-04-11T13:51:18Z</time></trkpt><trkpt lat="44.010262957824054" lon="12.504011826408941"><ele>63.0</ele><time>2026-04-11T13:51:19Z</time></trkpt><trkpt lat="44.01018888657088" lon="12.504107352914444"><ele>63.0</ele><time>2026-04-11T13:51:20Z</time></trkpt><trkpt lat="44.010125752636135" lon="12.504221024857003"><ele>63.0</ele><time>2026-04-11T13:51:21Z</time></trkpt><trkpt lat="44.01007408433167" lon="12.504334831856136"><ele>63.0</ele><time>2026-04-11T13:51:22Z</time></trkpt><trkpt lat="44.010017005664245" lon="12.504447335331296"><ele>61.0</ele><time>2026-04-11T13:51:23Z</time></trkpt><trkpt lat="44.00994247585787" lon="12.504545478287913"><ele>59.0</ele><time>2026-04-11T13:51:24Z</time></trkpt><trkpt lat="44.009852982181876" lon="12.504612713471207"><ele>57.0</ele><time>2026-04-11T13:51:25Z</time></trkpt><trkpt lat="44.00976359237452" lon="12.504642282897022"><ele>55.0</ele><time>2026-04-11T13:51:26Z</time></trkpt><trkpt lat="44.00967509765386" lon="12.504630969342829"><ele>53.0</ele><time>2026-04-11T13:51:27Z</time></trkpt><trkpt lat="44.00958439022268" lon="12.504597116267348"><ele>53.0</ele><time>2026-04-11T13:51:28Z</time></trkpt><trkpt lat="44.00949930134084" lon="12.504557038816692"><ele>53.0</ele><time>2026-04-11T13:51:29Z</time></trkpt><trkpt lat="44.009405172578035" lon="12.504524776798984"><ele>53.0</ele><time>2026-04-11T13:51:30Z</time></trkpt><trkpt lat="44.00933269319053" lon="12.504562421918502"><ele>53.0</ele><time>2026-04-11T13:51:31Z</time></trkpt><trkpt lat="44.00929737491261" lon="12.50472122259226"><ele>53.0</ele><time>2026-04-11T13:51:33Z</time></trkpt><trkpt lat="44.00927058278597" lon="12.504897280140518"><ele>53.0</ele><time>2026-04-11T13:51:35Z</time></trkpt><trkpt lat="44.00927465902243" lon="12.505118238684693"><ele>53.0</ele><time>2026-04-11T13:51:37Z</time></trkpt><trkpt lat="44.00924235345164" lon="12.505283014949095"><ele>53.0</ele><time>2026-04-11T13:51:38Z</time></trkpt><trkpt lat="44.00921385517192" lon="12.505466199828234"><ele>53.0</ele><time>2026-04-11T13:51:39Z</time></trkpt><trkpt lat="44.00918857829556" lon="12.505653258149021"><ele>52.0</ele><time>2026-04-11T13:51:40Z</time></trkpt><trkpt lat="44.00916323370127" lon="12.5058486114278"><ele>51.0</ele><time>2026-04-11T13:51:41Z</time></trkpt><trkpt lat="44.009136404640586" lon="12.506038859192351"><ele>50.0</ele><time>2026-04-11T13:51:42Z</time></trkpt><trkpt lat="44.009117050664514" lon="12.50620595110826"><ele>49.0</ele><time>2026-04-11T13:51:43Z</time></trkpt><trkpt lat="44.009085325086254" lon="12.506380339006792"><ele>47.33333333333333</ele><time>2026-04-11T13:51:44Z</time></trkpt><trkpt lat="44.009025308568155" lon="12.506573113032236"><ele>45.666666666666664</ele><time>2026-04-11T13:51:45Z</time></trkpt><trkpt lat="44.0089398509732" lon="12.506738406734227"><ele>44.0</ele><time>2026-04-11T13:51:46Z</time></trkpt><trkpt lat="44.008825238459636" lon="12.506904140326322"><ele>44.0</ele><time>2026-04-11T13:51:47Z</time></trkpt><trkpt lat="44.0087109738107" lon="12.507018299842596"><ele>44.0</ele><time>2026-04-11T13:51:48Z</time></trkpt><trkpt lat="44.00860567415573" lon="12.507146787880014"><ele>44.0</ele><time>2026-04-11T13:51:49Z</time></trkpt><trkpt lat="44.00850964264966" lon="12.50726798876333"><ele>44.0</ele><time>2026-04-11T13:51:50Z</time></trkpt><trkpt lat="44.00841593860559" lon="12.507378142965123"><ele>45.0</ele><time>2026-04-11T13:51:50.999Z</time></trkpt><trkpt lat="44.00831685086293" lon="12.507497100813264"><ele>46.0</ele><time>2026-04-11T13:51:51.999Z</time></trkpt><trkpt lat="44.00822365936761" lon="12.507613183649676"><ele>47.0</ele><time>2026-04-11T13:51:52.999Z</time></trkpt><trkpt lat="44.008136165028304" lon="12.507719383621843"><ele>48.0</ele><time>2026-04-11T13:51:53.999Z</time></trkpt><trkpt lat="44.008047782548594" lon="12.507808619887602"><ele>48.0</ele><time>2026-04-11T13:51:54.999Z</time></trkpt><trkpt lat="44.007934793491174" lon="12.507897544694307"><ele>48.0</ele><time>2026-04-11T13:51:55.999Z</time></trkpt><trkpt lat="44.00782148139286" lon="12.507969075577881"><ele>48.0</ele><time>2026-04-11T13:51:56.999Z</time></trkpt><trkpt lat="44.00772050595759" lon="12.507970453743111"><ele>48.0</ele><time>2026-04-11T13:51:57.999Z</time></trkpt><trkpt lat="44.007609840231225" lon="12.507971136924407"><ele>47.25</ele><time>2026-04-11T13:51:58.999Z</time></trkpt><trkpt lat="44.007495142457834" lon="12.50801732888815"><ele>46.5</ele><time>2026-04-11T13:51:59.999Z</time></trkpt><trkpt lat="44.00739011276682" lon="12.508101373558402"><ele>45.75</ele><time>2026-04-11T13:52:00.999Z</time></trkpt><trkpt lat="44.0072945484354" lon="12.508208712328573"><ele>45.0</ele><time>2026-04-11T13:52:01.999Z</time></trkpt><trkpt lat="44.00719515203637" lon="12.508337672118301"><ele>44.75</ele><time>2026-04-11T13:52:02.999Z</time></trkpt><trkpt lat="44.007091334676545" lon="12.508463348178744"><ele>44.5</ele><time>2026-04-11T13:52:03.999Z</time></trkpt><trkpt lat="44.006983586103985" lon="12.508579416602242"><ele>44.25</ele><time>2026-04-11T13:52:04.999Z</time></trkpt><trkpt lat="44.006880113908416" lon="12.50869910765299"><ele>44.0</ele><time>2026-04-11T13:52:05.999Z</time></trkpt><trkpt lat="44.00677934788305" lon="12.508802740805109"><ele>44.0</ele><time>2026-04-11T13:52:06.999Z</time></trkpt><trkpt lat="44.00667669676694" lon="12.508920036337312"><ele>44.0</ele><time>2026-04-11T13:52:07.999Z</time></trkpt><trkpt lat="44.006565159160985" lon="12.50903243416035"><ele>44.0</ele><time>2026-04-11T13:52:08.999Z</time></trkpt><trkpt lat="44.006453087021285" lon="12.509151169492284"><ele>44.0</ele><time>2026-04-11T13:52:09.999Z</time></trkpt><trkpt lat="44.006351930210634" lon="12.509288589794094"><ele>44.0</ele><time>2026-04-11T13:52:10.999Z</time></trkpt><trkpt lat="44.00627108934635" lon="12.509440161611197"><ele>44.0</ele><time>2026-04-11T13:52:11.999Z</time></trkpt><trkpt lat="44.00620791132111" lon="12.509608304732948"><ele>44.0</ele><time>2026-04-11T13:52:12.999Z</time></trkpt><trkpt lat="44.0061520999815" lon="12.509769711062447"><ele>44.0</ele><time>2026-04-11T13:52:13.999Z</time></trkpt><trkpt lat="44.00609030966182" lon="12.5099214395712"><ele>44.0</ele><time>2026-04-11T13:52:14.999Z</time></trkpt><trkpt lat="44.00602723882282" lon="12.510067555367966"><ele>44.0</ele><time>2026-04-11T13:52:15.999Z</time></trkpt><trkpt lat="44.0059627735758" lon="12.510209047902975"><ele>44.0</ele><time>2026-04-11T13:52:16.999Z</time></trkpt><trkpt lat="44.005880855629215" lon="12.510329517303221"><ele>44.0</ele><time>2026-04-11T13:52:17.999Z</time></trkpt><trkpt lat="44.005788052423476" lon="12.510440375649324"><ele>44.75</ele><time>2026-04-11T13:52:18.999Z</time></trkpt><trkpt lat="44.005688533674004" lon="12.510550036347228"><ele>45.5</ele><time>2026-04-11T13:52:19.999Z</time></trkpt><trkpt lat="44.005582203651464" lon="12.510658724825388"><ele>46.25</ele><time>2026-04-11T13:52:20.999Z</time></trkpt><trkpt lat="44.00547324605754" lon="12.510768988986031"><ele>47.0</ele><time>2026-04-11T13:52:21.999Z</time></trkpt><trkpt lat="44.00536824690984" lon="12.510886010254978"><ele>47.0</ele><time>2026-04-11T13:52:22.999Z</time></trkpt><trkpt lat="44.00526711248304" lon="12.51101441081914"><ele>47.0</ele><time>2026-04-11T13:52:23.999Z</time></trkpt><trkpt lat="44.005177235881355" lon="12.511143560268202"><ele>47.0</ele><time>2026-04-11T13:52:24.999Z</time></trkpt><trkpt lat="44.005096349010415" lon="12.511283976176305"><ele>47.0</ele><time>2026-04-11T13:52:25.999Z</time></trkpt><trkpt lat="44.00501684077877" lon="12.511418170098029"><ele>47.75</ele><time>2026-04-11T13:52:26.999Z</time></trkpt><trkpt lat="44.00493711053589" lon="12.511553349298271"><ele>48.5</ele><time>2026-04-11T13:52:27.999Z</time></trkpt><trkpt lat="44.00485890220136" lon="12.511679847449948"><ele>49.25</ele><time>2026-04-11T13:52:28.999Z</time></trkpt><trkpt lat="44.004765874178446" lon="12.51179382046696"><ele>50.0</ele><time>2026-04-11T13:52:29.999Z</time></trkpt><trkpt lat="44.004657621143046" lon="12.511878243398456"><ele>50.0</ele><time>2026-04-11T13:52:30.999Z</time></trkpt><trkpt lat="44.00454028075468" lon="12.511932200086274"><ele>50.0</ele><time>2026-04-11T13:52:31.999Z</time></trkpt><trkpt lat="44.00442155791887" lon="12.511978178059135"><ele>50.0</ele><time>2026-04-11T13:52:32.999Z</time></trkpt><trkpt lat="44.00430369795981" lon="12.512001109205348"><ele>50.0</ele><time>2026-04-11T13:52:33.999Z</time></trkpt><trkpt lat="44.004187895426725" lon="12.512031114961534"><ele>50.4</ele><time>2026-04-11T13:52:34.999Z</time></trkpt><trkpt lat="44.00407395046517" lon="12.512065934230431"><ele>50.8</ele><time>2026-04-11T13:52:35.999Z</time></trkpt><trkpt lat="44.00396501784385" lon="12.512109632462609"><ele>51.2</ele><time>2026-04-11T13:52:36.999Z</time></trkpt><trkpt lat="44.003869891733345" lon="12.512177616410478"><ele>51.6</ele><time>2026-04-11T13:52:37.999Z</time></trkpt><trkpt lat="44.00378899654138" lon="12.51226565855776"><ele>52.0</ele><time>2026-04-11T13:52:38.999Z</time></trkpt><trkpt lat="44.003718785170115" lon="12.512378722422365"><ele>50.25</ele><time>2026-04-11T13:52:39.999Z</time></trkpt><trkpt lat="44.0036808246228" lon="12.512516156734991"><ele>48.5</ele><time>2026-04-11T13:52:40.999Z</time></trkpt><trkpt lat="44.00368627744925" lon="12.512678702726928"><ele>46.75</ele><time>2026-04-11T13:52:41.999Z</time></trkpt><trkpt lat="44.003721861275295" lon="12.512841457053419"><ele>45.0</ele><time>2026-04-11T13:52:42.999Z</time></trkpt><trkpt lat="44.00376798668132" lon="12.51300765871011"><ele>45.0</ele><time>2026-04-11T13:52:43.999Z</time></trkpt><trkpt lat="44.0038147388929" lon="12.513177180323035"><ele>45.0</ele><time>2026-04-11T13:52:44.999Z</time></trkpt><trkpt lat="44.003867358603486" lon="12.513341043927383"><ele>45.0</ele><time>2026-04-11T13:52:45.999Z</time></trkpt><trkpt lat="44.00391948848997" lon="12.51349979185052"><ele>45.0</ele><time>2026-04-11T13:52:46.999Z</time></trkpt><trkpt lat="44.0039707719329" lon="12.513658824305864"><ele>45.5</ele><time>2026-04-11T13:52:47.999Z</time></trkpt><trkpt lat="44.00402301041474" lon="12.513823628857867"><ele>46.0</ele><time>2026-04-11T13:52:48.999Z</time></trkpt><trkpt lat="44.00407661557866" lon="12.513991514007436"><ele>46.5</ele><time>2026-04-11T13:52:49.999Z</time></trkpt><trkpt lat="44.00412533337059" lon="12.514159679136418"><ele>47.0</ele><time>2026-04-11T13:52:50.999Z</time></trkpt><trkpt lat="44.004165948632796" lon="12.514326508427704"><ele>47.0</ele><time>2026-04-11T13:52:51.999Z</time></trkpt><trkpt lat="44.00417198707659" lon="12.514508390846895"><ele>47.0</ele><time>2026-04-11T13:52:52.999Z</time></trkpt><trkpt lat="44.00414966842673" lon="12.514693083554949"><ele>47.0</ele><time>2026-04-11T13:52:53.999Z</time></trkpt><trkpt lat="44.004109572812595" lon="12.514859680401921"><ele>47.0</ele><time>2026-04-11T13:52:54.999Z</time></trkpt><trkpt lat="44.00406761868143" lon="12.515025845005836"><ele>47.0</ele><time>2026-04-11T13:52:55.999Z</time></trkpt><trkpt lat="44.00402933559748" lon="12.515196469052027"><ele>47.0</ele><time>2026-04-11T13:52:56.999Z</time></trkpt><trkpt lat="44.003989702330976" lon="12.515369807377114"><ele>47.0</ele><time>2026-04-11T13:52:57.999Z</time></trkpt><trkpt lat="44.003950726500086" lon="12.515538792181824"><ele>47.0</ele><time>2026-04-11T13:52:58.999Z</time></trkpt><trkpt lat="44.00391245960375" lon="12.515705408072186"><ele>46.25</ele><time>2026-04-11T13:52:59.999Z</time></trkpt><trkpt lat="44.00387469528655" lon="12.515871785708217"><ele>45.5</ele><time>2026-04-11T13:53:00.999Z</time></trkpt><trkpt lat="44.00382861769282" lon="12.516039378781718"><ele>44.75</ele><time>2026-04-11T13:53:01.999Z</time></trkpt><trkpt lat="44.00377363675352" lon="12.516207153212259"><ele>44.0</ele><time>2026-04-11T13:53:02.999Z</time></trkpt><trkpt lat="44.00371100476076" lon="12.516373405627357"><ele>43.25</ele><time>2026-04-11T13:53:03.999Z</time></trkpt><trkpt lat="44.003643878318314" lon="12.516534072625534"><ele>42.5</ele><time>2026-04-11T13:53:04.999Z</time></trkpt><trkpt lat="44.003574293513886" lon="12.516692945678928"><ele>41.75</ele><time>2026-04-11T13:53:05.999Z</time></trkpt><trkpt lat="44.00350145965551" lon="12.516850303320588"><ele>41.0</ele><time>2026-04-11T13:53:06.999Z</time></trkpt><trkpt lat="44.00342929140576" lon="12.517009021793477"><ele>40.75</ele><time>2026-04-11T13:53:07.998Z</time></trkpt><trkpt lat="44.003360392731004" lon="12.517165608412704"><ele>40.5</ele><time>2026-04-11T13:53:09Z</time></trkpt><trkpt lat="44.00329827609268" lon="12.51731751607681"><ele>40.25</ele><time>2026-04-11T13:53:10Z</time></trkpt><trkpt lat="44.003242438215246" lon="12.517463703229435"><ele>40.0</ele><time>2026-04-11T13:53:11Z</time></trkpt><trkpt lat="44.0031915897445" lon="12.517610367628059"><ele>40.75</ele><time>2026-04-11T13:53:12Z</time></trkpt><trkpt lat="44.00315327278184" lon="12.517762667260538"><ele>41.5</ele><time>2026-04-11T13:53:13Z</time></trkpt><trkpt lat="44.00311916761992" lon="12.517923752218904"><ele>42.25</ele><time>2026-04-11T13:53:14Z</time></trkpt><trkpt lat="44.00308177782727" lon="12.51808978348933"><ele>43.0</ele><time>2026-04-11T13:53:15Z</time></trkpt><trkpt lat="44.00304534974557" lon="12.518256612382098"><ele>43.0</ele><time>2026-04-11T13:53:16Z</time></trkpt><trkpt lat="44.00301097266542" lon="12.518426853479408"><ele>43.0</ele><time>2026-04-11T13:53:17Z</time></trkpt><trkpt lat="44.002975277738436" lon="12.518598223890452"><ele>43.0</ele><time>2026-04-11T13:53:18Z</time></trkpt><trkpt lat="44.002935505151584" lon="12.518772218529659"><ele>43.0</ele><time>2026-04-11T13:53:19Z</time></trkpt><trkpt lat="44.00289754442421" lon="12.518943866892773"><ele>42.75</ele><time>2026-04-11T13:53:20Z</time></trkpt><trkpt lat="44.00286393873066" lon="12.519106458390853"><ele>42.5</ele><time>2026-04-11T13:53:21Z</time></trkpt><trkpt lat="44.0028311131528" lon="12.519262492405483"><ele>42.25</ele><time>2026-04-11T13:53:22Z</time></trkpt><trkpt lat="44.00280122460601" lon="12.519423578942417"><ele>42.0</ele><time>2026-04-11T13:53:23Z</time></trkpt><trkpt lat="44.00277077035513" lon="12.519584565674881"><ele>42.0</ele><time>2026-04-11T13:53:24Z</time></trkpt><trkpt lat="44.00273982390329" lon="12.519747902021418"><ele>42.0</ele><time>2026-04-11T13:53:25Z</time></trkpt><trkpt lat="44.00270811878623" lon="12.519915867275436"><ele>42.0</ele><time>2026-04-11T13:53:26Z</time></trkpt><trkpt lat="44.00267566544266" lon="12.52008598710744"><ele>42.0</ele><time>2026-04-11T13:53:27Z</time></trkpt><trkpt lat="44.00264171286867" lon="12.520246858165224"><ele>41.5</ele><time>2026-04-11T13:53:28Z</time></trkpt><trkpt lat="44.00260932310337" lon="12.520406153661389"><ele>41.0</ele><time>2026-04-11T13:53:29Z</time></trkpt><trkpt lat="44.002573549574485" lon="12.520564729677252"><ele>40.5</ele><time>2026-04-11T13:53:30Z</time></trkpt><trkpt lat="44.00253202660743" lon="12.520722080823273"><ele>40.0</ele><time>2026-04-11T13:53:31Z</time></trkpt><trkpt lat="44.002470482431754" lon="12.520877313649512"><ele>40.5</ele><time>2026-04-11T13:53:32Z</time></trkpt><trkpt lat="44.00240433235759" lon="12.521022581488275"><ele>41.0</ele><time>2026-04-11T13:53:33Z</time></trkpt><trkpt lat="44.0023240743067" lon="12.521164806056094"><ele>41.5</ele><time>2026-04-11T13:53:34Z</time></trkpt><trkpt lat="44.00224062525703" lon="12.52129856106874"><ele>42.0</ele><time>2026-04-11T13:53:35Z</time></trkpt><trkpt lat="44.00215853626633" lon="12.521434354619212"><ele>42.0</ele><time>2026-04-11T13:53:36Z</time></trkpt><trkpt lat="44.00207763873855" lon="12.521569555873045"><ele>42.0</ele><time>2026-04-11T13:53:37Z</time></trkpt><trkpt lat="44.001999920461564" lon="12.52170305101191"><ele>42.0</ele><time>2026-04-11T13:53:38Z</time></trkpt><trkpt lat="44.00192134157108" lon="12.521834287024323"><ele>42.0</ele><time>2026-04-11T13:53:39Z</time></trkpt><trkpt lat="44.00184195562719" lon="12.521961789089536"><ele>41.25</ele><time>2026-04-11T13:53:40Z</time></trkpt><trkpt lat="44.00176391459685" lon="12.522089437566049"><ele>40.5</ele><time>2026-04-11T13:53:41Z</time></trkpt><trkpt lat="44.00168543652093" lon="12.522218925159017"><ele>39.75</ele><time>2026-04-11T13:53:42Z</time></trkpt><trkpt lat="44.00160630950555" lon="12.522348849719698"><ele>39.0</ele><time>2026-04-11T13:53:43Z</time></trkpt><trkpt lat="44.001526377698994" lon="12.522482072457596"><ele>39.0</ele><time>2026-04-11T13:53:44Z</time></trkpt><trkpt lat="44.00144601759579" lon="12.522617997355015"><ele>39.0</ele><time>2026-04-11T13:53:45Z</time></trkpt><trkpt lat="44.00136434284457" lon="12.52275688826333"><ele>39.0</ele><time>2026-04-11T13:53:46Z</time></trkpt><trkpt lat="44.00128247673883" lon="12.522896923010936"><ele>39.0</ele><time>2026-04-11T13:53:47Z</time></trkpt><trkpt lat="44.00120813257707" lon="12.523037003467397"><ele>39.25</ele><time>2026-04-11T13:53:48Z</time></trkpt><trkpt lat="44.00113275682516" lon="12.523179685449547"><ele>39.5</ele><time>2026-04-11T13:53:49Z</time></trkpt><trkpt lat="44.00106120980567" lon="12.523330548014357"><ele>39.75</ele><time>2026-04-11T13:53:50Z</time></trkpt><trkpt lat="44.00099467431807" lon="12.523489825972609"><ele>40.0</ele><time>2026-04-11T13:53:51Z</time></trkpt><trkpt lat="44.00093041454831" lon="12.523654026285119"><ele>40.0</ele><time>2026-04-11T13:53:52Z</time></trkpt><trkpt lat="44.00087006969904" lon="12.523819294358244"><ele>40.0</ele><time>2026-04-11T13:53:53Z</time></trkpt><trkpt lat="44.00081645871936" lon="12.52398616117009"><ele>40.0</ele><time>2026-04-11T13:53:54Z</time></trkpt><trkpt lat="44.000765541941675" lon="12.52414726511907"><ele>40.0</ele><time>2026-04-11T13:53:55Z</time></trkpt><trkpt lat="44.00071673436727" lon="12.52430213031505"><ele>41.6</ele><time>2026-04-11T13:53:56Z</time></trkpt><trkpt lat="44.000668982538876" lon="12.524454596567052"><ele>43.2</ele><time>2026-04-11T13:53:57Z</time></trkpt><trkpt lat="44.00062591666977" lon="12.52459947071938"><ele>44.8</ele><time>2026-04-11T13:53:58Z</time></trkpt><trkpt lat="44.000590890029606" lon="12.524743058679316"><ele>46.4</ele><time>2026-04-11T13:53:59Z</time></trkpt><trkpt lat="44.00056032144602" lon="12.524880331969628"><ele>48.0</ele><time>2026-04-11T13:54:00Z</time></trkpt><trkpt lat="44.0005313520894" lon="12.525026178222438"><ele>49.25</ele><time>2026-04-11T13:54:01Z</time></trkpt><trkpt lat="44.000504261698346" lon="12.525174738192275"><ele>50.5</ele><time>2026-04-11T13:54:02Z</time></trkpt><trkpt lat="44.000471034812236" lon="12.525327461393882"><ele>51.75</ele><time>2026-04-11T13:54:03Z</time></trkpt><trkpt lat="44.00043449905535" lon="12.525480815455403"><ele>53.0</ele><time>2026-04-11T13:54:04Z</time></trkpt><trkpt lat="44.000398957499776" lon="12.52563874081684"><ele>53.5</ele><time>2026-04-11T13:54:05Z</time></trkpt><trkpt lat="44.000365885188415" lon="12.525797215311059"><ele>54.0</ele><time>2026-04-11T13:54:06Z</time></trkpt><trkpt lat="44.00033075347256" lon="12.525952499577535"><ele>54.5</ele><time>2026-04-11T13:54:07Z</time></trkpt><trkpt lat="44.00029542949987" lon="12.52610123564598"><ele>55.0</ele><time>2026-04-11T13:54:08Z</time></trkpt><trkpt lat="44.000260448004546" lon="12.526250167200955"><ele>55.0</ele><time>2026-04-11T13:54:09Z</time></trkpt><trkpt lat="44.00022077878733" lon="12.526393791931905"><ele>55.0</ele><time>2026-04-11T13:54:10Z</time></trkpt><trkpt lat="44.00017012610173" lon="12.52652855862638"><ele>55.0</ele><time>2026-04-11T13:54:11Z</time></trkpt><trkpt lat="44.00010565232475" lon="12.526645072078397"><ele>55.0</ele><time>2026-04-11T13:54:12Z</time></trkpt><trkpt lat="44.000030275502795" lon="12.526744818256592"><ele>55.0</ele><time>2026-04-11T13:54:13Z</time></trkpt><trkpt lat="43.99994393616781" lon="12.5268213612292"><ele>55.0</ele><time>2026-04-11T13:54:14Z</time></trkpt><trkpt lat="43.999854925062714" lon="12.526884872352039"><ele>55.0</ele><time>2026-04-11T13:54:15Z</time></trkpt><trkpt lat="43.99976300672545" lon="12.526949378496036"><ele>55.0</ele><time>2026-04-11T13:54:16Z</time></trkpt><trkpt lat="43.999669472695246" lon="12.527019074445208"><ele>55.0</ele><time>2026-04-11T13:54:17Z</time></trkpt><trkpt lat="43.99957453586563" lon="12.527101882597657"><ele>55.0</ele><time>2026-04-11T13:54:17.999Z</time></trkpt><trkpt lat="43.99948009528763" lon="12.527198413264657"><ele>53.75</ele><time>2026-04-11T13:54:18.999Z</time></trkpt><trkpt lat="43.99938513675563" lon="12.527299256501621"><ele>52.5</ele><time>2026-04-11T13:54:19.999Z</time></trkpt><trkpt lat="43.999294735175695" lon="12.527409300767603"><ele>51.25</ele><time>2026-04-11T13:54:20.999Z</time></trkpt><trkpt lat="43.99920436572405" lon="12.527520616366647"><ele>50.0</ele><time>2026-04-11T13:54:21.999Z</time></trkpt><trkpt lat="43.99911841635067" lon="12.527625348259132"><ele>51.6</ele><time>2026-04-11T13:54:22.999Z</time></trkpt><trkpt lat="43.99903523227325" lon="12.527724224016692"><ele>53.2</ele><time>2026-04-11T13:54:23.999Z</time></trkpt><trkpt lat="43.9989574868175" lon="12.527820914286247"><ele>54.8</ele><time>2026-04-11T13:54:24.999Z</time></trkpt><trkpt lat="43.99888151475214" lon="12.527906294230402"><ele>56.4</ele><time>2026-04-11T13:54:25.999Z</time></trkpt><trkpt lat="43.99880920781603" lon="12.52799264763049"><ele>58.0</ele><time>2026-04-11T13:54:26.999Z</time></trkpt><trkpt lat="43.998743101488365" lon="12.528071323227538"><ele>57.99999999999999</ele><time>2026-04-11T13:54:27.999Z</time></trkpt><trkpt lat="43.998684913126645" lon="12.528136641803014"><ele>58.0</ele><time>2026-04-11T13:54:28.999Z</time></trkpt><trkpt lat="43.9986351279533" lon="12.528191853220788"><ele>58.0</ele><time>2026-04-11T13:54:29.999Z</time></trkpt><trkpt lat="43.99854641093031" lon="12.528274425496598"><ele>58.0</ele><time>2026-04-11T13:54:31.999Z</time></trkpt><trkpt lat="43.998477212119866" lon="12.528336795398411"><ele>57.99999999999999</ele><time>2026-04-11T13:54:33.999Z</time></trkpt><trkpt lat="43.998423852645004" lon="12.52840448715287"><ele>58.0</ele><time>2026-04-11T13:54:41.999Z</time></trkpt><trkpt lat="43.99844460448307" lon="12.528572292721"><ele>58.0</ele><time>2026-04-11T13:54:44.999Z</time></trkpt><trkpt lat="43.99848300431238" lon="12.52866666417222"><ele>58.0</ele><time>2026-04-11T13:54:45.999Z</time></trkpt><trkpt lat="43.9985279840759" lon="12.528775478972452"><ele>58.0</ele><time>2026-04-11T13:54:46.999Z</time></trkpt><trkpt lat="43.99857747353681" lon="12.528892767395028"><ele>58.0</ele><time>2026-04-11T13:54:47.999Z</time></trkpt><trkpt lat="43.998630678392026" lon="12.529015032395717"><ele>58.0</ele><time>2026-04-11T13:54:48.999Z</time></trkpt><trkpt lat="43.99868356846489" lon="12.52913345839641"><ele>58.25</ele><time>2026-04-11T13:54:49.999Z</time></trkpt><trkpt lat="43.99875002424603" lon="12.529257347537062"><ele>58.5</ele><time>2026-04-11T13:54:50.999Z</time></trkpt><trkpt lat="43.99882322420442" lon="12.529388012141647"><ele>58.75</ele><time>2026-04-11T13:54:51.999Z</time></trkpt><trkpt lat="43.998896720886336" lon="12.52952072921038"><ele>59.0</ele><time>2026-04-11T13:54:52.999Z</time></trkpt><trkpt lat="43.99896737201155" lon="12.529657118814965"><ele>59.25</ele><time>2026-04-11T13:54:53.999Z</time></trkpt><trkpt lat="43.99903721587561" lon="12.529788013316402"><ele>59.5</ele><time>2026-04-11T13:54:54.999Z</time></trkpt><trkpt lat="43.999104858683204" lon="12.52991967801018"><ele>59.75</ele><time>2026-04-11T13:54:55.999Z</time></trkpt><trkpt lat="43.999169409738855" lon="12.530049802061137"><ele>60.0</ele><time>2026-04-11T13:54:56.999Z</time></trkpt><trkpt lat="43.9992320154359" lon="12.530179134115459"><ele>59.2</ele><time>2026-04-11T13:54:57.999Z</time></trkpt><trkpt lat="43.99929336899036" lon="12.530305367822802"><ele>58.4</ele><time>2026-04-11T13:54:58.999Z</time></trkpt><trkpt lat="43.99935357005473" lon="12.530430288702965"><ele>57.599999999999994</ele><time>2026-04-11T13:54:59.999Z</time></trkpt><trkpt lat="43.9994124130407" lon="12.530554805493905"><ele>56.8</ele><time>2026-04-11T13:55:00.999Z</time></trkpt><trkpt lat="43.99947439620166" lon="12.530682285298434"><ele>56.0</ele><time>2026-04-11T13:55:01.999Z</time></trkpt><trkpt lat="43.99954208727783" lon="12.530811436559945"><ele>56.0</ele><time>2026-04-11T13:55:02.999Z</time></trkpt><trkpt lat="43.99961009041629" lon="12.530944640441268"><ele>56.0</ele><time>2026-04-11T13:55:03.999Z</time></trkpt><trkpt lat="43.999680454397456" lon="12.531078545425895"><ele>56.0</ele><time>2026-04-11T13:55:04.999Z</time></trkpt><trkpt lat="43.99975767160875" lon="12.53121076039283"><ele>56.0</ele><time>2026-04-11T13:55:05.999Z</time></trkpt><trkpt lat="43.99984083411244" lon="12.531341625059728"><ele>55.75</ele><time>2026-04-11T13:55:06.999Z</time></trkpt><trkpt lat="43.99992691903586" lon="12.531464267604335"><ele>55.5</ele><time>2026-04-11T13:55:07.999Z</time></trkpt><trkpt lat="44.00001696542024" lon="12.531580692481867"><ele>55.25</ele><time>2026-04-11T13:55:08.999Z</time></trkpt><trkpt lat="44.00011229634666" lon="12.531701325059647"><ele>55.0</ele><time>2026-04-11T13:55:09.999Z</time></trkpt><trkpt lat="44.00020985248592" lon="12.531822795228365"><ele>55.0</ele><time>2026-04-11T13:55:10.999Z</time></trkpt><trkpt lat="44.00030412088312" lon="12.531943164908476"><ele>55.0</ele><time>2026-04-11T13:55:11.999Z</time></trkpt><trkpt lat="44.000383851964685" lon="12.532046922778347"><ele>55.0</ele><time>2026-04-11T13:55:12.999Z</time></trkpt><trkpt lat="44.00043488171404" lon="12.532111252793685"><ele>55.0</ele><time>2026-04-11T13:55:13.999Z</time></trkpt><trkpt lat="44.00052075190133" lon="12.532227845230627"><ele>55.0</ele><time>2026-04-11T13:55:16Z</time></trkpt><trkpt lat="44.00056960280278" lon="12.532288611550937"><ele>54.8</ele><time>2026-04-11T13:55:17Z</time></trkpt><trkpt lat="44.00061584253646" lon="12.53234861309331"><ele>54.6</ele><time>2026-04-11T13:55:18Z</time></trkpt><trkpt lat="44.000669626492574" lon="12.532470790951999"><ele>54.400000000000006</ele><time>2026-04-11T13:55:20Z</time></trkpt><trkpt lat="44.00060350352659" lon="12.53262434297098"><ele>54.2</ele><time>2026-04-11T13:55:22Z</time></trkpt><trkpt lat="44.000538607163406" lon="12.532694315681576"><ele>54.0</ele><time>2026-04-11T13:55:23Z</time></trkpt><trkpt lat="44.00046876885898" lon="12.532777956877796"><ele>54.0</ele><time>2026-04-11T13:55:24Z</time></trkpt><trkpt lat="44.00039293426972" lon="12.532880567148483"><ele>54.0</ele><time>2026-04-11T13:55:25Z</time></trkpt><trkpt lat="44.00030918778595" lon="12.532999309607066"><ele>54.0</ele><time>2026-04-11T13:55:26Z</time></trkpt><trkpt lat="44.00022137579203" lon="12.533118493932207"><ele>54.0</ele><time>2026-04-11T13:55:27Z</time></trkpt><trkpt lat="44.000129028597726" lon="12.533250454713498"><ele>52.5</ele><time>2026-04-11T13:55:28Z</time></trkpt><trkpt lat="44.00002880359311" lon="12.533383026006147"><ele>51.0</ele><time>2026-04-11T13:55:29Z</time></trkpt><trkpt lat="43.999930058271765" lon="12.533511514675551"><ele>49.5</ele><time>2026-04-11T13:55:30Z</time></trkpt><trkpt lat="43.99983662370093" lon="12.533642261557402"><ele>48.0</ele><time>2026-04-11T13:55:31Z</time></trkpt><trkpt lat="43.99974768463732" lon="12.53376948966596"><ele>46.599999999999994</ele><time>2026-04-11T13:55:32Z</time></trkpt><trkpt lat="43.99966226683093" lon="12.533889313691407"><ele>45.199999999999996</ele><time>2026-04-11T13:55:33Z</time></trkpt><trkpt lat="43.99958886585054" lon="12.533988029318031"><ele>43.8</ele><time>2026-04-11T13:55:34Z</time></trkpt><trkpt lat="43.99951467391061" lon="12.534092439085354"><ele>42.4</ele><time>2026-04-11T13:55:35Z</time></trkpt><trkpt lat="43.999443900615" lon="12.53419445388462"><ele>41.0</ele><time>2026-04-11T13:55:36Z</time></trkpt><trkpt lat="43.999370980035536" lon="12.53428848477197"><ele>41.0</ele><time>2026-04-11T13:55:37Z</time></trkpt><trkpt lat="43.999292386064944" lon="12.534357652862363"><ele>41.0</ele><time>2026-04-11T13:55:38Z</time></trkpt><trkpt lat="43.999198326861034" lon="12.53439056344862"><ele>41.0</ele><time>2026-04-11T13:55:39Z</time></trkpt><trkpt lat="43.999108041572796" lon="12.534343308002065"><ele>41.0</ele><time>2026-04-11T13:55:40Z</time></trkpt><trkpt lat="43.99901777328913" lon="12.534283569565769"><ele>41.0</ele><time>2026-04-11T13:55:41Z</time></trkpt><trkpt lat="43.99891887671057" lon="12.53422593553647"><ele>40.75</ele><time>2026-04-11T13:55:42Z</time></trkpt><trkpt lat="43.998818901513644" lon="12.5341665439773"><ele>40.5</ele><time>2026-04-11T13:55:43Z</time></trkpt><trkpt lat="43.99871339460266" lon="12.534103865993961"><ele>40.25</ele><time>2026-04-11T13:55:44Z</time></trkpt><trkpt lat="43.998608876807936" lon="12.534033950628162"><ele>40.0</ele><time>2026-04-11T13:55:45Z</time></trkpt><trkpt lat="43.9985009394329" lon="12.533977494902613"><ele>40.0</ele><time>2026-04-11T13:55:46Z</time></trkpt><trkpt lat="43.99841353990785" lon="12.533890763765672"><ele>40.0</ele><time>2026-04-11T13:55:47Z</time></trkpt><trkpt lat="43.9983308688969" lon="12.533799133496915"><ele>40.0</ele><time>2026-04-11T13:55:48Z</time></trkpt><trkpt lat="43.998271861605964" lon="12.533682878251701"><ele>40.0</ele><time>2026-04-11T13:55:49Z</time></trkpt><trkpt lat="43.998190976478234" lon="12.533587166873058"><ele>40.0</ele><time>2026-04-11T13:55:50Z</time></trkpt><trkpt lat="43.99812459805736" lon="12.533469908289913"><ele>40.8</ele><time>2026-04-11T13:55:51Z</time></trkpt><trkpt lat="43.99807107470079" lon="12.533340119944283"><ele>41.6</ele><time>2026-04-11T13:55:52Z</time></trkpt><trkpt lat="43.99799655423373" lon="12.533229896893145"><ele>42.400000000000006</ele><time>2026-04-11T13:55:53Z</time></trkpt><trkpt lat="43.99794104116255" lon="12.533098798267226"><ele>43.2</ele><time>2026-04-11T13:55:54Z</time></trkpt><trkpt lat="43.99788197539313" lon="12.532964209055425"><ele>44.0</ele><time>2026-04-11T13:55:55Z</time></trkpt><trkpt lat="43.997818537314046" lon="12.532833785738605"><ele>44.25</ele><time>2026-04-11T13:55:56Z</time></trkpt><trkpt lat="43.997770011503384" lon="12.532703070340395"><ele>44.5</ele><time>2026-04-11T13:55:57Z</time></trkpt><trkpt lat="43.9976810888386" lon="12.53259506070302"><ele>44.75</ele><time>2026-04-11T13:55:58Z</time></trkpt><trkpt lat="43.99759419880661" lon="12.532486139609876"><ele>45.0</ele><time>2026-04-11T13:55:59Z</time></trkpt><trkpt lat="43.99749469272356" lon="12.532391501925781"><ele>45.0</ele><time>2026-04-11T13:56:00Z</time></trkpt><trkpt lat="43.99739107230434" lon="12.532304963965647"><ele>45.0</ele><time>2026-04-11T13:56:01Z</time></trkpt><trkpt lat="43.99728265507109" lon="12.532236491563905"><ele>45.0</ele><time>2026-04-11T13:56:02Z</time></trkpt><trkpt lat="43.997170034663114" lon="12.532171370623315"><ele>45.0</ele><time>2026-04-11T13:56:03Z</time></trkpt><trkpt lat="43.997056826213516" lon="12.532107976727419"><ele>46.0</ele><time>2026-04-11T13:56:04Z</time></trkpt><trkpt lat="43.9969413516367" lon="12.53204091875109"><ele>47.0</ele><time>2026-04-11T13:56:05Z</time></trkpt><trkpt lat="43.99682355526125" lon="12.531975836211123"><ele>48.0</ele><time>2026-04-11T13:56:06Z</time></trkpt><trkpt lat="43.99670523239888" lon="12.531913705477347"><ele>49.0</ele><time>2026-04-11T13:56:07Z</time></trkpt><trkpt lat="43.996585167592876" lon="12.531849350689393"><ele>49.0</ele><time>2026-04-11T13:56:08Z</time></trkpt><trkpt lat="43.99646959563279" lon="12.5317832261736"><ele>49.0</ele><time>2026-04-11T13:56:09Z</time></trkpt><trkpt lat="43.996357536114516" lon="12.531713112388097"><ele>49.0</ele><time>2026-04-11T13:56:10Z</time></trkpt><trkpt lat="43.99625176384834" lon="12.531621258157063"><ele>49.0</ele><time>2026-04-11T13:56:11Z</time></trkpt><trkpt lat="43.99616331815596" lon="12.531516356252256"><ele>49.0</ele><time>2026-04-11T13:56:12Z</time></trkpt><trkpt lat="43.99607910701206" lon="12.531412588298462"><ele>49.0</ele><time>2026-04-11T13:56:13Z</time></trkpt><trkpt lat="43.99599795840797" lon="12.53130451667124"><ele>49.0</ele><time>2026-04-11T13:56:14Z</time></trkpt><trkpt lat="43.99591855323317" lon="12.531198172969349"><ele>49.0</ele><time>2026-04-11T13:56:15Z</time></trkpt><trkpt lat="43.99583614997706" lon="12.531094295795507"><ele>49.0</ele><time>2026-04-11T13:56:16Z</time></trkpt><trkpt lat="43.995749615673525" lon="12.530986870446139"><ele>49.25</ele><time>2026-04-11T13:56:17Z</time></trkpt><trkpt lat="43.99565889425693" lon="12.530871676580016"><ele>49.5</ele><time>2026-04-11T13:56:18Z</time></trkpt><trkpt lat="43.99556804831595" lon="12.530754832599168"><ele>49.75</ele><time>2026-04-11T13:56:19Z</time></trkpt><trkpt lat="43.99547381969478" lon="12.530632434955509"><ele>50.0</ele><time>2026-04-11T13:56:20Z</time></trkpt><trkpt lat="43.99537619603135" lon="12.530505509084309"><ele>51.0</ele><time>2026-04-11T13:56:21Z</time></trkpt><trkpt lat="43.995277469562126" lon="12.530373240329823"><ele>52.0</ele><time>2026-04-11T13:56:22Z</time></trkpt><trkpt lat="43.9951856866588" lon="12.5302513526919"><ele>53.0</ele><time>2026-04-11T13:56:23Z</time></trkpt><trkpt lat="43.99509868164189" lon="12.530133008470683"><ele>54.0</ele><time>2026-04-11T13:56:24Z</time></trkpt><trkpt lat="43.995014618717526" lon="12.53001813488352"><ele>53.333333333333336</ele><time>2026-04-11T13:56:25Z</time></trkpt><trkpt lat="43.994943620553165" lon="12.529918842990435"><ele>52.66666666666667</ele><time>2026-04-11T13:56:26Z</time></trkpt><trkpt lat="43.99487734789042" lon="12.529832081017279"><ele>52.0</ele><time>2026-04-11T13:56:27Z</time></trkpt><trkpt lat="43.994806883441086" lon="12.529773731841718"><ele>51.333333333333336</ele><time>2026-04-11T13:56:28Z</time></trkpt><trkpt lat="43.99473158309706" lon="12.529756933463831"><ele>50.66666666666667</ele><time>2026-04-11T13:56:28.999Z</time></trkpt><trkpt lat="43.99465085928892" lon="12.52980049195113"><ele>50.0</ele><time>2026-04-11T13:56:29.999Z</time></trkpt><trkpt lat="43.994566452353716" lon="12.529870461536598"><ele>50.0</ele><time>2026-04-11T13:56:30.999Z</time></trkpt><trkpt lat="43.994485511375224" lon="12.52995141396591"><ele>50.0</ele><time>2026-04-11T13:56:31.999Z</time></trkpt><trkpt lat="43.994398382381675" lon="12.530035811215823"><ele>50.0</ele><time>2026-04-11T13:56:32.999Z</time></trkpt><trkpt lat="43.994304355248396" lon="12.530135572228724"><ele>50.0</ele><time>2026-04-11T13:56:33.999Z</time></trkpt><trkpt lat="43.994215339014936" lon="12.530247030896307"><ele>50.0</ele><time>2026-04-11T13:56:34.999Z</time></trkpt><trkpt lat="43.994128530074434" lon="12.530364058204944"><ele>48.75</ele><time>2026-04-11T13:56:35.999Z</time></trkpt><trkpt lat="43.994031742722555" lon="12.530478671262422"><ele>47.5</ele><time>2026-04-11T13:56:36.999Z</time></trkpt><trkpt lat="43.9939197298094" lon="12.530572229243734"><ele>46.25</ele><time>2026-04-11T13:56:37.999Z</time></trkpt><trkpt lat="43.9937993798412" lon="12.530631550787621"><ele>45.0</ele><time>2026-04-11T13:56:38.999Z</time></trkpt><trkpt lat="43.99368275702857" lon="12.530685235055744"><ele>45.0</ele><time>2026-04-11T13:56:39.999Z</time></trkpt><trkpt lat="43.99356959802693" lon="12.530733595632704"><ele>45.0</ele><time>2026-04-11T13:56:40.999Z</time></trkpt><trkpt lat="43.993462202017945" lon="12.530784628006172"><ele>45.0</ele><time>2026-04-11T13:56:41.999Z</time></trkpt><trkpt lat="43.99335686218008" lon="12.530828547180198"><ele>45.0</ele><time>2026-04-11T13:56:42.999Z</time></trkpt><trkpt lat="43.99325900666833" lon="12.530869780965837"><ele>45.0</ele><time>2026-04-11T13:56:43.999Z</time></trkpt><trkpt lat="43.99315838590425" lon="12.530908587999697"><ele>45.0</ele><time>2026-04-11T13:56:44.999Z</time></trkpt><trkpt lat="43.993054044799216" lon="12.530950364231874"><ele>45.0</ele><time>2026-04-11T13:56:45.999Z</time></trkpt><trkpt lat="43.992943115515175" lon="12.53099514375208"><ele>45.0</ele><time>2026-04-11T13:56:46.999Z</time></trkpt><trkpt lat="43.992821441198764" lon="12.53104153296512"><ele>45.0</ele><time>2026-04-11T13:56:47.999Z</time></trkpt><trkpt lat="43.99269416217277" lon="12.531092901646016"><ele>45.0</ele><time>2026-04-11T13:56:48.999Z</time></trkpt><trkpt lat="43.99256508002613" lon="12.53114506754314"><ele>45.0</ele><time>2026-04-11T13:56:49.999Z</time></trkpt><trkpt lat="43.99243023482518" lon="12.531202707898471"><ele>45.0</ele><time>2026-04-11T13:56:50.999Z</time></trkpt><trkpt lat="43.99229365522323" lon="12.531255342494982"><ele>45.0</ele><time>2026-04-11T13:56:51.999Z</time></trkpt><trkpt lat="43.99215738553929" lon="12.531305783680377"><ele>43.5</ele><time>2026-04-11T13:56:52.999Z</time></trkpt><trkpt lat="43.99202266875454" lon="12.5313577616825"><ele>42.0</ele><time>2026-04-11T13:56:53.999Z</time></trkpt><trkpt lat="43.99190005395106" lon="12.531405882217012"><ele>40.5</ele><time>2026-04-11T13:56:54.999Z</time></trkpt><trkpt lat="43.991777823617184" lon="12.531452582110578"><ele>39.0</ele><time>2026-04-11T13:56:55.999Z</time></trkpt><trkpt lat="43.991657647717865" lon="12.531499930089284"><ele>37.5</ele><time>2026-04-11T13:56:56.999Z</time></trkpt><trkpt lat="43.99153879251534" lon="12.531544648635276"><ele>36.0</ele><time>2026-04-11T13:56:57.999Z</time></trkpt><trkpt lat="43.991425406874235" lon="12.53158629577296"><ele>34.5</ele><time>2026-04-11T13:56:58.999Z</time></trkpt><trkpt lat="43.991311768396876" lon="12.531627340268964"><ele>33.0</ele><time>2026-04-11T13:56:59.999Z</time></trkpt><trkpt lat="43.99120143465001" lon="12.531668598514111"><ele>33.0</ele><time>2026-04-11T13:57:00.999Z</time></trkpt><trkpt lat="43.991095265150925" lon="12.531711137298556"><ele>33.0</ele><time>2026-04-11T13:57:01.999Z</time></trkpt><trkpt lat="43.99099040195299" lon="12.53175156107762"><ele>33.0</ele><time>2026-04-11T13:57:02.999Z</time></trkpt><trkpt lat="43.990893989620126" lon="12.53179574644817"><ele>33.0</ele><time>2026-04-11T13:57:03.999Z</time></trkpt><trkpt lat="43.99080179482811" lon="12.531844491400328"><ele>33.0</ele><time>2026-04-11T13:57:04.999Z</time></trkpt><trkpt lat="43.990717980743476" lon="12.531887816627952"><ele>34.666666666666664</ele><time>2026-04-11T13:57:05.999Z</time></trkpt><trkpt lat="43.99063801889457" lon="12.53193591866414"><ele>36.333333333333336</ele><time>2026-04-11T13:57:06.999Z</time></trkpt><trkpt lat="43.99056290656761" lon="12.531983086075169"><ele>38.0</ele><time>2026-04-11T13:57:07.999Z</time></trkpt><trkpt lat="43.9904993035096" lon="12.532031723425513"><ele>39.66666666666667</ele><time>2026-04-11T13:57:08.999Z</time></trkpt><trkpt lat="43.990401718471695" lon="12.532109080233909"><ele>41.333333333333336</ele><time>2026-04-11T13:57:10.999Z</time></trkpt><trkpt lat="43.99034861645746" lon="12.532160219776486"><ele>43.0</ele><time>2026-04-11T13:57:12.999Z</time></trkpt><trkpt lat="43.990259688608965" lon="12.53221275418291"><ele>43.2</ele><time>2026-04-11T13:58:12Z</time></trkpt><trkpt lat="43.99018262523865" lon="12.532244277376352"><ele>43.4</ele><time>2026-04-11T13:58:14Z</time></trkpt><trkpt lat="43.990100047681274" lon="12.532297714426614"><ele>43.6</ele><time>2026-04-11T13:58:16Z</time></trkpt><trkpt lat="43.990033103911074" lon="12.532386411159322"><ele>43.800000000000004</ele><time>2026-04-11T13:58:18Z</time></trkpt><trkpt lat="43.99001182993106" lon="12.532566015324376"><ele>44.0</ele><time>2026-04-11T13:58:20Z</time></trkpt><trkpt lat="43.990040236446376" lon="12.532694056014762"><ele>44.0</ele><time>2026-04-11T13:58:21Z</time></trkpt><trkpt lat="43.990072178469525" lon="12.532828315019703"><ele>44.0</ele><time>2026-04-11T13:58:22Z</time></trkpt><trkpt lat="43.99010776304364" lon="12.532958536834789"><ele>44.0</ele><time>2026-04-11T13:58:23Z</time></trkpt><trkpt lat="43.99014497015804" lon="12.533097200313042"><ele>44.0</ele><time>2026-04-11T13:58:24Z</time></trkpt><trkpt lat="43.9901851284946" lon="12.533249494455687"><ele>44.0</ele><time>2026-04-11T13:58:25Z</time></trkpt><trkpt lat="43.990230711160415" lon="12.53341359260992"><ele>44.5</ele><time>2026-04-11T13:58:26Z</time></trkpt><trkpt lat="43.99027607986735" lon="12.533583549685295"><ele>45.0</ele><time>2026-04-11T13:58:27Z</time></trkpt><trkpt lat="43.99032050963099" lon="12.533749484734408"><ele>45.5</ele><time>2026-04-11T13:58:28Z</time></trkpt><trkpt lat="43.99036900473352" lon="12.533920633604922"><ele>46.0</ele><time>2026-04-11T13:58:29Z</time></trkpt><trkpt lat="43.99042301194183" lon="12.53409886430572"><ele>46.25</ele><time>2026-04-11T13:58:30Z</time></trkpt><trkpt lat="43.990480349679764" lon="12.534273745513513"><ele>46.5</ele><time>2026-04-11T13:58:31Z</time></trkpt><trkpt lat="43.99053078696115" lon="12.534431773134369"><ele>46.75</ele><time>2026-04-11T13:58:32Z</time></trkpt><trkpt lat="43.99059309845769" lon="12.534576293097015"><ele>47.0</ele><time>2026-04-11T13:58:33Z</time></trkpt><trkpt lat="43.99066379162328" lon="12.534702232691114"><ele>47.0</ele><time>2026-04-11T13:58:34Z</time></trkpt><trkpt lat="43.99073593956514" lon="12.534839112101896"><ele>47.0</ele><time>2026-04-11T13:58:35Z</time></trkpt><trkpt lat="43.990821805864606" lon="12.534978970689808"><ele>47.0</ele><time>2026-04-11T13:58:36Z</time></trkpt><trkpt lat="43.99092011272938" lon="12.535123540399166"><ele>47.0</ele><time>2026-04-11T13:58:37Z</time></trkpt><trkpt lat="43.991028321013275" lon="12.535269491639639"><ele>46.25</ele><time>2026-04-11T13:58:38Z</time></trkpt><trkpt lat="43.9911478726133" lon="12.535404457302949"><ele>45.5</ele><time>2026-04-11T13:58:38.999Z</time></trkpt><trkpt lat="43.99127056455266" lon="12.535524360440892"><ele>44.75</ele><time>2026-04-11T13:58:39.999Z</time></trkpt><trkpt lat="43.991392236607446" lon="12.535632003747443"><ele>44.0</ele><time>2026-04-11T13:58:40.999Z</time></trkpt><trkpt lat="43.991503908956176" lon="12.535738275321073"><ele>44.0</ele><time>2026-04-11T13:58:41.999Z</time></trkpt><trkpt lat="43.99162284371799" lon="12.53583309581007"><ele>44.0</ele><time>2026-04-11T13:58:42.999Z</time></trkpt><trkpt lat="43.991741175409295" lon="12.535920288816731"><ele>44.0</ele><time>2026-04-11T13:58:43.999Z</time></trkpt><trkpt lat="43.99184611039085" lon="12.53600971278772"><ele>44.0</ele><time>2026-04-11T13:58:44.999Z</time></trkpt><trkpt lat="43.99195132923251" lon="12.53609481832712"><ele>44.0</ele><time>2026-04-11T13:58:45.999Z</time></trkpt><trkpt lat="43.992058807094345" lon="12.53618582002752"><ele>44.0</ele><time>2026-04-11T13:58:46.999Z</time></trkpt><trkpt lat="43.99217113499647" lon="12.536278837463419"><ele>44.0</ele><time>2026-04-11T13:58:47.999Z</time></trkpt><trkpt lat="43.99228705762" lon="12.536374008427204"><ele>44.0</ele><time>2026-04-11T13:58:48.999Z</time></trkpt><trkpt lat="43.99240486067882" lon="12.536470230247485"><ele>44.25</ele><time>2026-04-11T13:58:49.999Z</time></trkpt><trkpt lat="43.99252005949631" lon="12.536563664680699"><ele>44.5</ele><time>2026-04-11T13:58:50.999Z</time></trkpt><trkpt lat="43.99263367782798" lon="12.536659095264893"><ele>44.75</ele><time>2026-04-11T13:58:51.999Z</time></trkpt><trkpt lat="43.99274635435363" lon="12.536756095788487"><ele>45.0</ele><time>2026-04-11T13:58:52.999Z</time></trkpt><trkpt lat="43.99285427031612" lon="12.536844782071237"><ele>45.0</ele><time>2026-04-11T13:58:53.999Z</time></trkpt><trkpt lat="43.99295680690061" lon="12.536932064022803"><ele>45.0</ele><time>2026-04-11T13:58:54.999Z</time></trkpt><trkpt lat="43.993059421389134" lon="12.537019063095476"><ele>45.0</ele><time>2026-04-11T13:58:55.999Z</time></trkpt><trkpt lat="43.993163563937735" lon="12.537104151276026"><ele>45.0</ele><time>2026-04-11T13:58:56.999Z</time></trkpt><trkpt lat="43.99326906256274" lon="12.53719058205013"><ele>45.25</ele><time>2026-04-11T13:58:57.999Z</time></trkpt><trkpt lat="43.99337974950129" lon="12.537280111556635"><ele>45.5</ele><time>2026-04-11T13:58:58.999Z</time></trkpt><trkpt lat="43.99349308567944" lon="12.537373243478275"><ele>45.75</ele><time>2026-04-11T13:58:59.999Z</time></trkpt><trkpt lat="43.99359174564335" lon="12.537462899811798"><ele>46.0</ele><time>2026-04-11T13:59:00.999Z</time></trkpt><trkpt lat="43.99368932107389" lon="12.537546385601093"><ele>46.0</ele><time>2026-04-11T13:59:01.999Z</time></trkpt><trkpt lat="43.99378693004574" lon="12.537621051688348"><ele>46.0</ele><time>2026-04-11T13:59:02.999Z</time></trkpt><trkpt lat="43.993881189935976" lon="12.537700406799267"><ele>46.0</ele><time>2026-04-11T13:59:03.999Z</time></trkpt><trkpt lat="43.993965301041875" lon="12.537782141227195"><ele>46.0</ele><time>2026-04-11T13:59:04.999Z</time></trkpt><trkpt lat="43.99404836716685" lon="12.537858874152176"><ele>46.0</ele><time>2026-04-11T13:59:05.999Z</time></trkpt><trkpt lat="43.99413583119822" lon="12.537937356748904"><ele>45.4</ele><time>2026-04-11T13:59:06.999Z</time></trkpt><trkpt lat="43.994231989741124" lon="12.53799353026108"><ele>44.8</ele><time>2026-04-11T13:59:07.999Z</time></trkpt><trkpt lat="43.994309136613765" lon="12.538085590434978"><ele>44.199999999999996</ele><time>2026-04-11T13:59:08.999Z</time></trkpt><trkpt lat="43.99439743040459" lon="12.53815838548549"><ele>43.599999999999994</ele><time>2026-04-11T13:59:09.999Z</time></trkpt><trkpt lat="43.99449062814331" lon="12.538211662947901"><ele>43.0</ele><time>2026-04-11T13:59:10.999Z</time></trkpt><trkpt lat="43.99457258368206" lon="12.53828040514366"><ele>43.0</ele><time>2026-04-11T13:59:11.999Z</time></trkpt><trkpt lat="43.99464816009579" lon="12.538343796724396"><ele>43.0</ele><time>2026-04-11T13:59:12.999Z</time></trkpt><trkpt lat="43.99471030144605" lon="12.53842233178738"><ele>43.0</ele><time>2026-04-11T13:59:13.999Z</time></trkpt><trkpt lat="43.99477762835247" lon="12.538475624568894"><ele>43.0</ele><time>2026-04-11T13:59:14.999Z</time></trkpt><trkpt lat="43.994846884513805" lon="12.538531176446362"><ele>43.0</ele><time>2026-04-11T13:59:15.999Z</time></trkpt><trkpt lat="43.99491659927835" lon="12.538588242758879"><ele>43.0</ele><time>2026-04-11T13:59:16.999Z</time></trkpt><trkpt lat="43.994980516277714" lon="12.538644769633496"><ele>42.66666666666667</ele><time>2026-04-11T13:59:17.999Z</time></trkpt><trkpt lat="43.995048937924025" lon="12.538706992864759"><ele>42.333333333333336</ele><time>2026-04-11T13:59:18.999Z</time></trkpt><trkpt lat="43.995115782822005" lon="12.538758565000046"><ele>42.0</ele><time>2026-04-11T13:59:19.999Z</time></trkpt><trkpt lat="43.99517813606721" lon="12.538809601753414"><ele>41.666666666666664</ele><time>2026-04-11T13:59:20.999Z</time></trkpt><trkpt lat="43.99523848743727" lon="12.538860027829521"><ele>41.33333333333333</ele><time>2026-04-11T13:59:21.999Z</time></trkpt><trkpt lat="43.995294214243714" lon="12.538908622536269"><ele>41.0</ele><time>2026-04-11T13:59:22.999Z</time></trkpt><trkpt lat="43.99538314818418" lon="12.538990000721093"><ele>40.8</ele><time>2026-04-11T13:59:24.999Z</time></trkpt><trkpt lat="43.99544938274455" lon="12.539044310218834"><ele>40.599999999999994</ele><time>2026-04-11T13:59:27Z</time></trkpt><trkpt lat="43.995514944250964" lon="12.53910044600562"><ele>40.4</ele><time>2026-04-11T13:59:30Z</time></trkpt><trkpt lat="43.995599022779636" lon="12.539288273513712"><ele>40.2</ele><time>2026-04-11T13:59:55Z</time></trkpt><trkpt lat="43.99557270682178" lon="12.539372609099443"><ele>40.0</ele><time>2026-04-11T13:59:56Z</time></trkpt><trkpt lat="43.99554942688923" lon="12.53946918210933"><ele>40.0</ele><time>2026-04-11T13:59:57Z</time></trkpt><trkpt lat="43.99553339421898" lon="12.53958527176664"><ele>40.0</ele><time>2026-04-11T13:59:58Z</time></trkpt><trkpt lat="43.99551400298071" lon="12.539719629980409"><ele>40.0</ele><time>2026-04-11T13:59:59Z</time></trkpt><trkpt lat="43.99549447261417" lon="12.539844778958523"><ele>40.0</ele><time>2026-04-11T14:00:00Z</time></trkpt><trkpt lat="43.99547674546855" lon="12.539963400567858"><ele>40.0</ele><time>2026-04-11T14:00:01Z</time></trkpt><trkpt lat="43.99546213060297" lon="12.540079016451003"><ele>40.0</ele><time>2026-04-11T14:00:02Z</time></trkpt><trkpt lat="43.99542887978522" lon="12.540195647786556"><ele>40.0</ele><time>2026-04-11T14:00:03Z</time></trkpt><trkpt lat="43.99542663622699" lon="12.540320547007495"><ele>40.0</ele><time>2026-04-11T14:00:04Z</time></trkpt><trkpt lat="43.99540445599417" lon="12.540439272033439"><ele>40.0</ele><time>2026-04-11T14:00:05Z</time></trkpt><trkpt lat="43.99538323745592" lon="12.54055448554258"><ele>40.0</ele><time>2026-04-11T14:00:06Z</time></trkpt><trkpt lat="43.995342012681654" lon="12.540663689483756"><ele>40.0</ele><time>2026-04-11T14:00:07Z</time></trkpt><trkpt lat="43.995311112515274" lon="12.54077822039095"><ele>40.0</ele><time>2026-04-11T14:00:08Z</time></trkpt><trkpt lat="43.99527773040461" lon="12.540894478532579"><ele>40.0</ele><time>2026-04-11T14:00:09Z</time></trkpt><trkpt lat="43.995241434395204" lon="12.541005198197865"><ele>40.0</ele><time>2026-04-11T14:00:10Z</time></trkpt><trkpt lat="43.995219533728154" lon="12.541118955301972"><ele>40.0</ele><time>2026-04-11T14:00:11Z</time></trkpt><trkpt lat="43.99516475165721" lon="12.54121580496655"><ele>40.0</ele><time>2026-04-11T14:00:12Z</time></trkpt><trkpt lat="43.9951247689231" lon="12.541314742908773"><ele>40.0</ele><time>2026-04-11T14:00:13Z</time></trkpt><trkpt lat="43.99508368236907" lon="12.54141693642334"><ele>40.0</ele><time>2026-04-11T14:00:14Z</time></trkpt><trkpt lat="43.99504160739997" lon="12.541521554353059"><ele>41.333333333333336</ele><time>2026-04-11T14:00:15Z</time></trkpt><trkpt lat="43.994997654509696" lon="12.541625072255764"><ele>42.66666666666667</ele><time>2026-04-11T14:00:16Z</time></trkpt><trkpt lat="43.994951603032156" lon="12.54173162437628"><ele>44.0</ele><time>2026-04-11T14:00:17Z</time></trkpt><trkpt lat="43.99490747053993" lon="12.541836039366288"><ele>45.333333333333336</ele><time>2026-04-11T14:00:18Z</time></trkpt><trkpt lat="43.99486888160364" lon="12.541932989965444"><ele>46.666666666666664</ele><time>2026-04-11T14:00:19Z</time></trkpt><trkpt lat="43.994832708787925" lon="12.542028314701998"><ele>48.0</ele><time>2026-04-11T14:00:20Z</time></trkpt><trkpt lat="43.99479794772654" lon="12.54211991980076"><ele>48.833333333333336</ele><time>2026-04-11T14:00:21Z</time></trkpt><trkpt lat="43.99476557687041" lon="12.542217006084167"><ele>49.66666666666667</ele><time>2026-04-11T14:00:22Z</time></trkpt><trkpt lat="43.99473245185477" lon="12.542324495204067"><ele>50.5</ele><time>2026-04-11T14:00:23Z</time></trkpt><trkpt lat="43.99470254332306" lon="12.542433031669379"><ele>51.333333333333336</ele><time>2026-04-11T14:00:24Z</time></trkpt><trkpt lat="43.99467775451896" lon="12.542544209412254"><ele>52.16666666666667</ele><time>2026-04-11T14:00:25Z</time></trkpt><trkpt lat="43.994655907456355" lon="12.542651853453288"><ele>53.0</ele><time>2026-04-11T14:00:26Z</time></trkpt><trkpt lat="43.994635977070246" lon="12.54275936275194"><ele>53.00000000000001</ele><time>2026-04-11T14:00:27Z</time></trkpt><trkpt lat="43.9946182105157" lon="12.542865206062325"><ele>53.0</ele><time>2026-04-11T14:00:28Z</time></trkpt><trkpt lat="43.99459992339188" lon="12.542970547309594"><ele>53.0</ele><time>2026-04-11T14:00:29Z</time></trkpt><trkpt lat="43.99457935472337" lon="12.543075973927502"><ele>53.0</ele><time>2026-04-11T14:00:30Z</time></trkpt><trkpt lat="43.994555562599686" lon="12.543181966115068"><ele>53.00000000000001</ele><time>2026-04-11T14:00:31Z</time></trkpt><trkpt lat="43.99452937237931" lon="12.543286366454236"><ele>53.0</ele><time>2026-04-11T14:00:32Z</time></trkpt><trkpt lat="43.99450077586266" lon="12.543391703350816"><ele>54.00000000000001</ele><time>2026-04-11T14:00:33Z</time></trkpt><trkpt lat="43.994470747968236" lon="12.543499834487877"><ele>55.0</ele><time>2026-04-11T14:00:34Z</time></trkpt><trkpt lat="43.994441290166485" lon="12.543605912693113"><ele>56.0</ele><time>2026-04-11T14:00:35Z</time></trkpt><trkpt lat="43.994412531859645" lon="12.543708509788127"><ele>57.0</ele><time>2026-04-11T14:00:36Z</time></trkpt><trkpt lat="43.99438417606831" lon="12.54380967022373"><ele>58.00000000000001</ele><time>2026-04-11T14:00:37Z</time></trkpt><trkpt lat="43.994358342863585" lon="12.543901831187785"><ele>59.0</ele><time>2026-04-11T14:00:38Z</time></trkpt><trkpt lat="43.99431795523488" lon="12.544040473498962"><ele>60.16666666666667</ele><time>2026-04-11T14:00:40Z</time></trkpt><trkpt lat="43.99429023322277" lon="12.544135071146755"><ele>61.333333333333336</ele><time>2026-04-11T14:00:41Z</time></trkpt><trkpt lat="43.99426644684701" lon="12.544222892778265"><ele>62.5</ele><time>2026-04-11T14:00:42Z</time></trkpt><trkpt lat="43.99424219168942" lon="12.544314498588228"><ele>63.66666666666667</ele><time>2026-04-11T14:00:43Z</time></trkpt><trkpt lat="43.99421542432415" lon="12.544420372090368"><ele>64.83333333333333</ele><time>2026-04-11T14:00:44Z</time></trkpt><trkpt lat="43.994189361941906" lon="12.544535626394898"><ele>66.0</ele><time>2026-04-11T14:00:45Z</time></trkpt><trkpt lat="43.99417205732281" lon="12.544652546025388"><ele>68.39999999999999</ele><time>2026-04-11T14:00:46Z</time></trkpt><trkpt lat="43.99415921997199" lon="12.544778472210124"><ele>70.8</ele><time>2026-04-11T14:00:47Z</time></trkpt><trkpt lat="43.99415279810431" lon="12.544925375504524"><ele>73.19999999999999</ele><time>2026-04-11T14:00:48Z</time></trkpt><trkpt lat="43.99416707767712" lon="12.545071945125088"><ele>75.6</ele><time>2026-04-11T14:00:48.999Z</time></trkpt><trkpt lat="43.99416878925604" lon="12.545205435068349"><ele>78.0</ele><time>2026-04-11T14:00:49.999Z</time></trkpt><trkpt lat="43.99417664903545" lon="12.545334503095225"><ele>80.4</ele><time>2026-04-11T14:00:50.999Z</time></trkpt><trkpt lat="43.99419022848416" lon="12.54546458873793"><ele>82.8</ele><time>2026-04-11T14:00:51.999Z</time></trkpt><trkpt lat="43.99420705497449" lon="12.545591010091496"><ele>85.2</ele><time>2026-04-11T14:00:52.999Z</time></trkpt><trkpt lat="43.994228174994255" lon="12.545714913095305"><ele>87.6</ele><time>2026-04-11T14:00:53.999Z</time></trkpt><trkpt lat="43.99425804710055" lon="12.545831193058193"><ele>90.0</ele><time>2026-04-11T14:00:54.999Z</time></trkpt><trkpt lat="43.99428646756064" lon="12.545940667054987"><ele>90.0</ele><time>2026-04-11T14:00:55.999Z</time></trkpt><trkpt lat="43.994306221668296" lon="12.54604531821668"><ele>90.0</ele><time>2026-04-11T14:00:56.999Z</time></trkpt><trkpt lat="43.994332790941506" lon="12.54614477985029"><ele>90.0</ele><time>2026-04-11T14:00:57.999Z</time></trkpt><trkpt lat="43.99435038401585" lon="12.54623228378275"><ele>90.0</ele><time>2026-04-11T14:00:58.999Z</time></trkpt><trkpt lat="43.99437762497493" lon="12.546392755318784"><ele>90.0</ele><time>2026-04-11T14:01:00.999Z</time></trkpt><trkpt lat="43.99442365195425" lon="12.546555460284118"><ele>90.2</ele><time>2026-04-11T14:01:02.999Z</time></trkpt><trkpt lat="43.994464034690786" lon="12.546662414063933"><ele>90.4</ele><time>2026-04-11T14:01:03.999Z</time></trkpt><trkpt lat="43.99450362121756" lon="12.546771449701792"><ele>90.6</ele><time>2026-04-11T14:01:04.999Z</time></trkpt><trkpt lat="43.994547042722914" lon="12.546891986135837"><ele>90.8</ele><time>2026-04-11T14:01:05.999Z</time></trkpt><trkpt lat="43.99459506211966" lon="12.54701349172815"><ele>91.0</ele><time>2026-04-11T14:01:06.999Z</time></trkpt><trkpt lat="43.994644348331775" lon="12.547119676543081"><ele>91.0</ele><time>2026-04-11T14:01:07.999Z</time></trkpt><trkpt lat="43.9946925350004" lon="12.547220051045354"><ele>91.0</ele><time>2026-04-11T14:01:08.999Z</time></trkpt><trkpt lat="43.99474729613682" lon="12.547322022310603"><ele>91.0</ele><time>2026-04-11T14:01:09.999Z</time></trkpt><trkpt lat="43.99481518155454" lon="12.547428517060357"><ele>91.0</ele><time>2026-04-11T14:01:10.999Z</time></trkpt><trkpt lat="43.99489079721965" lon="12.547538840917655"><ele>91.0</ele><time>2026-04-11T14:01:11.999Z</time></trkpt><trkpt lat="43.99496721820446" lon="12.54765196876889"><ele>91.75</ele><time>2026-04-11T14:01:12.999Z</time></trkpt><trkpt lat="43.995046177334785" lon="12.547762908132036"><ele>92.5</ele><time>2026-04-11T14:01:13.999Z</time></trkpt><trkpt lat="43.995128766609234" lon="12.547873954682599"><ele>93.25</ele><time>2026-04-11T14:01:14.999Z</time></trkpt><trkpt lat="43.995212959416165" lon="12.54799261300024"><ele>94.0</ele><time>2026-04-11T14:01:15.999Z</time></trkpt><trkpt lat="43.99530064590749" lon="12.548114730547873"><ele>91.5</ele><time>2026-04-11T14:01:16.999Z</time></trkpt><trkpt lat="43.99539193835091" lon="12.54824157541341"><ele>89.0</ele><time>2026-04-11T14:01:17.999Z</time></trkpt><trkpt lat="43.99548341688813" lon="12.548372019857023"><ele>86.5</ele><time>2026-04-11T14:01:18.999Z</time></trkpt><trkpt lat="43.99557487507969" lon="12.548502707545557"><ele>84.0</ele><time>2026-04-11T14:01:19.999Z</time></trkpt><trkpt lat="43.995667689968464" lon="12.548631352161044"><ele>83.0</ele><time>2026-04-11T14:01:20.999Z</time></trkpt><trkpt lat="43.99575836655146" lon="12.548765171239765"><ele>82.0</ele><time>2026-04-11T14:01:21.999Z</time></trkpt><trkpt lat="43.99584005464466" lon="12.548910325034194"><ele>81.0</ele><time>2026-04-11T14:01:22.999Z</time></trkpt><trkpt lat="43.9959038674563" lon="12.549068032934347"><ele>80.0</ele><time>2026-04-11T14:01:23.999Z</time></trkpt><trkpt lat="43.99594350570827" lon="12.549240375956566"><ele>82.0</ele><time>2026-04-11T14:01:24.999Z</time></trkpt><trkpt lat="43.99593818987711" lon="12.549414184895689"><ele>84.0</ele><time>2026-04-11T14:01:25.999Z</time></trkpt><trkpt lat="43.99593678902923" lon="12.549590691278674"><ele>86.0</ele><time>2026-04-11T14:01:26.999Z</time></trkpt><trkpt lat="43.99593425310096" lon="12.549766065728473"><ele>88.0</ele><time>2026-04-11T14:01:27.999Z</time></trkpt><trkpt lat="43.99594404837521" lon="12.549933906918609"><ele>88.0</ele><time>2026-04-11T14:01:28.999Z</time></trkpt><trkpt lat="43.99593608015181" lon="12.550088930331821"><ele>88.0</ele><time>2026-04-11T14:01:29.999Z</time></trkpt><trkpt lat="43.99593490865447" lon="12.550245035870859"><ele>88.0</ele><time>2026-04-11T14:01:30.999Z</time></trkpt><trkpt lat="43.995933630237246" lon="12.550401720972054"><ele>88.0</ele><time>2026-04-11T14:01:31.999Z</time></trkpt><trkpt lat="43.99593684873396" lon="12.550559724286948"><ele>86.25</ele><time>2026-04-11T14:01:33Z</time></trkpt><trkpt lat="43.99595024868646" lon="12.550698779166934"><ele>84.5</ele><time>2026-04-11T14:01:34Z</time></trkpt><trkpt lat="43.995985188893926" lon="12.550838969038717"><ele>82.75</ele><time>2026-04-11T14:01:35Z</time></trkpt><trkpt lat="43.99604865013985" lon="12.550982298710146"><ele>81.0</ele><time>2026-04-11T14:01:36Z</time></trkpt><trkpt lat="43.99612017405303" lon="12.551119223590891"><ele>79.0</ele><time>2026-04-11T14:01:37Z</time></trkpt><trkpt lat="43.996198313395595" lon="12.55125579613401"><ele>77.0</ele><time>2026-04-11T14:01:38Z</time></trkpt><trkpt lat="43.99627431240462" lon="12.551394145233571"><ele>75.0</ele><time>2026-04-11T14:01:39Z</time></trkpt><trkpt lat="43.99635046765136" lon="12.55153047840154"><ele>73.0</ele><time>2026-04-11T14:01:40Z</time></trkpt><trkpt lat="43.996426247080535" lon="12.55167131087126"><ele>73.0</ele><time>2026-04-11T14:01:41Z</time></trkpt><trkpt lat="43.99649996378932" lon="12.551816360444676"><ele>73.0</ele><time>2026-04-11T14:01:42Z</time></trkpt><trkpt lat="43.99657419789742" lon="12.551953300043944"><ele>73.0</ele><time>2026-04-11T14:01:43Z</time></trkpt><trkpt lat="43.99664419944203" lon="12.55209212182605"><ele>73.0</ele><time>2026-04-11T14:01:44Z</time></trkpt><trkpt lat="43.9967098421621" lon="12.552236386780779"><ele>74.0</ele><time>2026-04-11T14:01:45Z</time></trkpt><trkpt lat="43.99676359096864" lon="12.55238406659965"><ele>75.0</ele><time>2026-04-11T14:01:46Z</time></trkpt><trkpt lat="43.99679568448663" lon="12.5525356824309"><ele>76.0</ele><time>2026-04-11T14:01:47Z</time></trkpt><trkpt lat="43.996827274659694" lon="12.552686080825387"><ele>77.0</ele><time>2026-04-11T14:01:48Z</time></trkpt><trkpt lat="43.99686277992905" lon="12.552832572340444"><ele>75.8</ele><time>2026-04-11T14:01:49Z</time></trkpt><trkpt lat="43.99689786193078" lon="12.552978983082475"><ele>74.6</ele><time>2026-04-11T14:01:50Z</time></trkpt><trkpt lat="43.996933313056246" lon="12.553123341230895"><ele>73.39999999999999</ele><time>2026-04-11T14:01:51Z</time></trkpt><trkpt lat="43.99697058941294" lon="12.553263056974366"><ele>72.2</ele><time>2026-04-11T14:01:52Z</time></trkpt><trkpt lat="43.99701207046282" lon="12.553400018740097"><ele>71.0</ele><time>2026-04-11T14:01:53Z</time></trkpt><trkpt lat="43.99705901939459" lon="12.55353758108707"><ele>71.0</ele><time>2026-04-11T14:01:54Z</time></trkpt><trkpt lat="43.997110039832926" lon="12.553678715666685"><ele>71.0</ele><time>2026-04-11T14:01:55Z</time></trkpt><trkpt lat="43.997147292681326" lon="12.553830486464015"><ele>71.0</ele><time>2026-04-11T14:01:56Z</time></trkpt><trkpt lat="43.99716419512364" lon="12.553994277467613"><ele>71.0</ele><time>2026-04-11T14:01:57Z</time></trkpt><trkpt lat="43.99716231877838" lon="12.554163014574144"><ele>69.25</ele><time>2026-04-11T14:01:58Z</time></trkpt><trkpt lat="43.99713280451444" lon="12.554334365630169"><ele>67.5</ele><time>2026-04-11T14:01:59Z</time></trkpt><trkpt lat="43.9971108774862" lon="12.554505805732179"><ele>65.75</ele><time>2026-04-11T14:02:00Z</time></trkpt><trkpt lat="43.99709963675058" lon="12.55468370960162"><ele>64.0</ele><time>2026-04-11T14:02:01Z</time></trkpt><trkpt lat="43.997103380157796" lon="12.55486341469542"><ele>62.0</ele><time>2026-04-11T14:02:02Z</time></trkpt><trkpt lat="43.99711396069594" lon="12.555044600377933"><ele>60.0</ele><time>2026-04-11T14:02:03Z</time></trkpt><trkpt lat="43.99713112061059" lon="12.555229587541504"><ele>58.0</ele><time>2026-04-11T14:02:04Z</time></trkpt><trkpt lat="43.997147509266064" lon="12.555410481627924"><ele>56.0</ele><time>2026-04-11T14:02:05Z</time></trkpt><trkpt lat="43.997163897655106" lon="12.55559098545841"><ele>54.5</ele><time>2026-04-11T14:02:06Z</time></trkpt><trkpt lat="43.99717980567462" lon="12.555771239446797"><ele>53.0</ele><time>2026-04-11T14:02:07Z</time></trkpt><trkpt lat="43.99720819481335" lon="12.55595090734687"><ele>51.5</ele><time>2026-04-11T14:02:08Z</time></trkpt><trkpt lat="43.997218695914356" lon="12.55613419601647"><ele>50.0</ele><time>2026-04-11T14:02:09Z</time></trkpt><trkpt lat="43.997230854133" lon="12.55631666372996"><ele>48.75</ele><time>2026-04-11T14:02:10Z</time></trkpt><trkpt lat="43.997244429845814" lon="12.55649848026435"><ele>47.5</ele><time>2026-04-11T14:02:11Z</time></trkpt><trkpt lat="43.99725896309088" lon="12.556678271744342"><ele>46.25</ele><time>2026-04-11T14:02:12Z</time></trkpt><trkpt lat="43.99727204865549" lon="12.55685686544331"><ele>45.0</ele><time>2026-04-11T14:02:13Z</time></trkpt><trkpt lat="43.99728179343016" lon="12.557034998831055"><ele>44.25</ele><time>2026-04-11T14:02:14Z</time></trkpt><trkpt lat="43.9972954066466" lon="12.55720927640034"><ele>43.5</ele><time>2026-04-11T14:02:15Z</time></trkpt><trkpt lat="43.99730842247408" lon="12.557382148544821"><ele>42.75</ele><time>2026-04-11T14:02:16Z</time></trkpt><trkpt lat="43.997314097727" lon="12.557552149697157"><ele>42.0</ele><time>2026-04-11T14:02:17Z</time></trkpt><trkpt lat="43.99732308617824" lon="12.557720219815549"><ele>41.75</ele><time>2026-04-11T14:02:18Z</time></trkpt><trkpt lat="43.99732259224356" lon="12.557887141300686"><ele>41.5</ele><time>2026-04-11T14:02:19Z</time></trkpt><trkpt lat="43.99730770578607" lon="12.558051295068099"><ele>41.25</ele><time>2026-04-11T14:02:20Z</time></trkpt><trkpt lat="43.997244693498104" lon="12.558195895526827"><ele>41.0</ele><time>2026-04-11T14:02:21Z</time></trkpt><trkpt lat="43.99720314606595" lon="12.558348417581847"><ele>41.0</ele><time>2026-04-11T14:02:22Z</time></trkpt><trkpt lat="43.997163488345166" lon="12.558501305377636"><ele>41.0</ele><time>2026-04-11T14:02:23Z</time></trkpt><trkpt lat="43.99713250991295" lon="12.55866737372712"><ele>41.0</ele><time>2026-04-11T14:02:24Z</time></trkpt><trkpt lat="43.99711955589106" lon="12.558843457672246"><ele>41.0</ele><time>2026-04-11T14:02:25Z</time></trkpt><trkpt lat="43.99712550528507" lon="12.559019757806556"><ele>40.25</ele><time>2026-04-11T14:02:26Z</time></trkpt><trkpt lat="43.99712218523822" lon="12.559194657712276"><ele>39.5</ele><time>2026-04-11T14:02:27Z</time></trkpt><trkpt lat="43.99712038553446" lon="12.559371375166979"><ele>38.75</ele><time>2026-04-11T14:02:28Z</time></trkpt><trkpt lat="43.99712193508688" lon="12.559551430768709"><ele>38.0</ele><time>2026-04-11T14:02:29Z</time></trkpt><trkpt lat="43.99711650848678" lon="12.55972258967978"><ele>37.5</ele><time>2026-04-11T14:02:30Z</time></trkpt><trkpt lat="43.99710654395221" lon="12.559894313566977"><ele>37.0</ele><time>2026-04-11T14:02:31Z</time></trkpt><trkpt lat="43.99709440328682" lon="12.560052190915117"><ele>36.5</ele><time>2026-04-11T14:02:32Z</time></trkpt><trkpt lat="43.997070003039546" lon="12.560224545014401"><ele>36.0</ele><time>2026-04-11T14:02:33Z</time></trkpt><trkpt lat="43.99704628428077" lon="12.560393287001713"><ele>36.0</ele><time>2026-04-11T14:02:34Z</time></trkpt><trkpt lat="43.99701627222189" lon="12.560557128002502"><ele>36.0</ele><time>2026-04-11T14:02:35Z</time></trkpt><trkpt lat="43.99698623028628" lon="12.560713466584764"><ele>36.0</ele><time>2026-04-11T14:02:36Z</time></trkpt><trkpt lat="43.99697234422618" lon="12.560876987737753"><ele>36.0</ele><time>2026-04-11T14:02:37Z</time></trkpt><trkpt lat="43.99695981839919" lon="12.561040458689604"><ele>36.0</ele><time>2026-04-11T14:02:38Z</time></trkpt><trkpt lat="43.99694443669834" lon="12.561196382657768"><ele>36.0</ele><time>2026-04-11T14:02:39Z</time></trkpt><trkpt lat="43.99692635244959" lon="12.561350904755468"><ele>36.0</ele><time>2026-04-11T14:02:40Z</time></trkpt><trkpt lat="43.99690743079758" lon="12.561514554093982"><ele>36.0</ele><time>2026-04-11T14:02:41Z</time></trkpt><trkpt lat="43.99688579520701" lon="12.561685164351333"><ele>36.0</ele><time>2026-04-11T14:02:42Z</time></trkpt><trkpt lat="43.99686425555775" lon="12.561859122541916"><ele>36.0</ele><time>2026-04-11T14:02:43Z</time></trkpt><trkpt lat="43.996847653913164" lon="12.562032812880005"><ele>36.0</ele><time>2026-04-11T14:02:44Z</time></trkpt><trkpt lat="43.996818695350015" lon="12.562197895141475"><ele>36.0</ele><time>2026-04-11T14:02:45Z</time></trkpt><trkpt lat="43.99683488730637" lon="12.56237528297105"><ele>35.25</ele><time>2026-04-11T14:02:46Z</time></trkpt><trkpt lat="43.996915903258106" lon="12.562539953850436"><ele>34.5</ele><time>2026-04-11T14:02:47Z</time></trkpt><trkpt lat="43.99698733012378" lon="12.562700365256894"><ele>33.75</ele><time>2026-04-11T14:02:48Z</time></trkpt><trkpt lat="43.99705371304335" lon="12.56286311765667"><ele>33.0</ele><time>2026-04-11T14:02:49Z</time></trkpt><trkpt lat="43.99711740220053" lon="12.563020261618489"><ele>33.0</ele><time>2026-04-11T14:02:50Z</time></trkpt><trkpt lat="43.9971825219924" lon="12.563170689215651"><ele>33.0</ele><time>2026-04-11T14:02:51Z</time></trkpt><trkpt lat="43.9972564568197" lon="12.563311229474763"><ele>33.0</ele><time>2026-04-11T14:02:52Z</time></trkpt><trkpt lat="43.99734295615575" lon="12.563436912451142"><ele>33.0</ele><time>2026-04-11T14:02:53Z</time></trkpt><trkpt lat="43.99743604573334" lon="12.563544268806435"><ele>32.8</ele><time>2026-04-11T14:02:54Z</time></trkpt><trkpt lat="43.9975340681993" lon="12.563644142966268"><ele>32.599999999999994</ele><time>2026-04-11T14:02:55Z</time></trkpt><trkpt lat="43.99762625341031" lon="12.563732942380707"><ele>32.400000000000006</ele><time>2026-04-11T14:02:56Z</time></trkpt><trkpt lat="43.997715221001435" lon="12.56381532084411"><ele>32.2</ele><time>2026-04-11T14:02:57Z</time></trkpt><trkpt lat="43.997795009654865" lon="12.56389268634803"><ele>32.0</ele><time>2026-04-11T14:02:58Z</time></trkpt><trkpt lat="43.99786751043206" lon="12.56397306154001"><ele>32.0</ele><time>2026-04-11T14:02:59Z</time></trkpt><trkpt lat="43.997944325190716" lon="12.564058915290026"><ele>32.0</ele><time>2026-04-11T14:03:00Z</time></trkpt><trkpt lat="43.99801554313351" lon="12.564149258397807"><ele>32.0</ele><time>2026-04-11T14:03:00.999Z</time></trkpt><trkpt lat="43.998086584232034" lon="12.564242311307924"><ele>32.0</ele><time>2026-04-11T14:03:01.999Z</time></trkpt><trkpt lat="43.99816396560241" lon="12.564341698860432"><ele>32.0</ele><time>2026-04-11T14:03:02.999Z</time></trkpt><trkpt lat="43.99824274375017" lon="12.564442001181176"><ele>32.25</ele><time>2026-04-11T14:03:03.999Z</time></trkpt><trkpt lat="43.99832714423996" lon="12.564547731489936"><ele>32.5</ele><time>2026-04-11T14:03:04.999Z</time></trkpt><trkpt lat="43.99841553961265" lon="12.564655605786887"><ele>32.75</ele><time>2026-04-11T14:03:05.999Z</time></trkpt><trkpt lat="43.998509477285026" lon="12.564764281051412"><ele>33.0</ele><time>2026-04-11T14:03:06.999Z</time></trkpt><trkpt lat="43.99860242606159" lon="12.564878006726786"><ele>33.0</ele><time>2026-04-11T14:03:07.999Z</time></trkpt><trkpt lat="43.998698545597065" lon="12.564997158033561"><ele>33.0</ele><time>2026-04-11T14:03:08.999Z</time></trkpt><trkpt lat="43.99879785867853" lon="12.565114797753795"><ele>33.0</ele><time>2026-04-11T14:03:09.999Z</time></trkpt><trkpt lat="43.998892488711036" lon="12.56522705633303"><ele>33.0</ele><time>2026-04-11T14:03:10.999Z</time></trkpt><trkpt lat="43.998990154923085" lon="12.565337073387752"><ele>33.0</ele><time>2026-04-11T14:03:11.999Z</time></trkpt><trkpt lat="43.99908837153675" lon="12.565451147663525"><ele>33.0</ele><time>2026-04-11T14:03:12.999Z</time></trkpt><trkpt lat="43.99918528056319" lon="12.565565404890368"><ele>33.0</ele><time>2026-04-11T14:03:13.999Z</time></trkpt><trkpt lat="43.999286498657405" lon="12.565678549628458"><ele>33.0</ele><time>2026-04-11T14:03:14.999Z</time></trkpt><trkpt lat="43.99939026620607" lon="12.56579401294995"><ele>33.0</ele><time>2026-04-11T14:03:15.999Z</time></trkpt><trkpt lat="43.999493424518235" lon="12.565913221082074"><ele>33.0</ele><time>2026-04-11T14:03:16.999Z</time></trkpt><trkpt lat="43.99959367964282" lon="12.56603548852497"><ele>33.0</ele><time>2026-04-11T14:03:17.999Z</time></trkpt><trkpt lat="43.999687456593406" lon="12.566151853054203"><ele>33.0</ele><time>2026-04-11T14:03:18.999Z</time></trkpt><trkpt lat="43.9997807003259" lon="12.566274795932381"><ele>32.75</ele><time>2026-04-11T14:03:19.999Z</time></trkpt><trkpt lat="43.99987319814593" lon="12.566397898420044"><ele>32.5</ele><time>2026-04-11T14:03:20.999Z</time></trkpt><trkpt lat="43.99996617501675" lon="12.566522483340478"><ele>32.25</ele><time>2026-04-11T14:03:21.999Z</time></trkpt><trkpt lat="44.00005685148838" lon="12.56663800752997"><ele>32.0</ele><time>2026-04-11T14:03:22.999Z</time></trkpt><trkpt lat="44.00014931568679" lon="12.56675493695536"><ele>32.0</ele><time>2026-04-11T14:03:23.999Z</time></trkpt><trkpt lat="44.00024584314048" lon="12.566875688403181"><ele>32.0</ele><time>2026-04-11T14:03:24.999Z</time></trkpt><trkpt lat="44.000349780661686" lon="12.566988149305763"><ele>32.0</ele><time>2026-04-11T14:03:25.999Z</time></trkpt><trkpt lat="44.00046404868532" lon="12.567088512818682"><ele>32.0</ele><time>2026-04-11T14:03:26.999Z</time></trkpt><trkpt lat="44.00058921458138" lon="12.567174385051024"><ele>32.0</ele><time>2026-04-11T14:03:27.999Z</time></trkpt><trkpt lat="44.00072076830259" lon="12.567232786547562"><ele>32.0</ele><time>2026-04-11T14:03:28.999Z</time></trkpt><trkpt lat="44.00085544582823" lon="12.567270555277842"><ele>32.0</ele><time>2026-04-11T14:03:29.999Z</time></trkpt><trkpt lat="44.000982732799955" lon="12.567297760840633"><ele>32.0</ele><time>2026-04-11T14:03:30.999Z</time></trkpt><trkpt lat="44.00110462601201" lon="12.567316809148778"><ele>32.0</ele><time>2026-04-11T14:03:31.999Z</time></trkpt><trkpt lat="44.00121891708786" lon="12.567329669013782"><ele>32.0</ele><time>2026-04-11T14:03:32.999Z</time></trkpt><trkpt lat="44.001326006848316" lon="12.567340389328205"><ele>32.0</ele><time>2026-04-11T14:03:33.999Z</time></trkpt><trkpt lat="44.00143039871185" lon="12.567353523639275"><ele>32.0</ele><time>2026-04-11T14:03:34.999Z</time></trkpt><trkpt lat="44.00153406299842" lon="12.567379360815416"><ele>32.0</ele><time>2026-04-11T14:03:35.999Z</time></trkpt><trkpt lat="44.00163005157929" lon="12.567420806955848"><ele>31.8</ele><time>2026-04-11T14:03:36.999Z</time></trkpt><trkpt lat="44.001726957387184" lon="12.56748002299142"><ele>31.6</ele><time>2026-04-11T14:03:37.999Z</time></trkpt><trkpt lat="44.00181409901594" lon="12.567567323161999"><ele>31.400000000000002</ele><time>2026-04-11T14:03:39Z</time></trkpt><trkpt lat="44.00189516078139" lon="12.56767284610732"><ele>31.200000000000003</ele><time>2026-04-11T14:03:40Z</time></trkpt><trkpt lat="44.001975168667656" lon="12.567788186514065"><ele>31.0</ele><time>2026-04-11T14:03:41Z</time></trkpt><trkpt lat="44.00204541448071" lon="12.567903644441063"><ele>30.8</ele><time>2026-04-11T14:03:42Z</time></trkpt><trkpt lat="44.00211573134097" lon="12.568019386500797"><ele>30.6</ele><time>2026-04-11T14:03:43Z</time></trkpt><trkpt lat="44.00218738006469" lon="12.56813243202135"><ele>30.4</ele><time>2026-04-11T14:03:44Z</time></trkpt><trkpt lat="44.002259675159365" lon="12.568249478772303"><ele>30.2</ele><time>2026-04-11T14:03:45Z</time></trkpt><trkpt lat="44.00232934503772" lon="12.568365847219107"><ele>30.0</ele><time>2026-04-11T14:03:46Z</time></trkpt><trkpt lat="44.00239223452664" lon="12.56847302975181"><ele>30.0</ele><time>2026-04-11T14:03:47Z</time></trkpt><trkpt lat="44.00247061941681" lon="12.56857981534346"><ele>30.0</ele><time>2026-04-11T14:03:48Z</time></trkpt><trkpt lat="44.00253178575032" lon="12.568681316399413"><ele>30.0</ele><time>2026-04-11T14:03:49Z</time></trkpt><trkpt lat="44.0026183729949" lon="12.568775596938508"><ele>30.0</ele><time>2026-04-11T14:03:50Z</time></trkpt><trkpt lat="44.002717691489934" lon="12.568871375126202"><ele>30.0</ele><time>2026-04-11T14:03:51Z</time></trkpt><trkpt lat="44.0028207989034" lon="12.568969200831935"><ele>30.0</ele><time>2026-04-11T14:03:52Z</time></trkpt><trkpt lat="44.002935199111384" lon="12.569052802284686"><ele>30.0</ele><time>2026-04-11T14:03:53Z</time></trkpt><trkpt lat="44.00306830658503" lon="12.569116985841854"><ele>30.0</ele><time>2026-04-11T14:03:54Z</time></trkpt><trkpt lat="44.003205410565045" lon="12.569162388778716"><ele>30.0</ele><time>2026-04-11T14:03:55Z</time></trkpt><trkpt lat="44.00335044804984" lon="12.569181629213809"><ele>29.75</ele><time>2026-04-11T14:03:56Z</time></trkpt><trkpt lat="44.00349036670294" lon="12.569176123030303"><ele>29.5</ele><time>2026-04-11T14:03:57Z</time></trkpt><trkpt lat="44.0036218738582" lon="12.569171417702385"><ele>29.25</ele><time>2026-04-11T14:03:58Z</time></trkpt><trkpt lat="44.00374790623499" lon="12.56917762038052"><ele>29.0</ele><time>2026-04-11T14:03:59Z</time></trkpt><trkpt lat="44.00386977519505" lon="12.569188593996643"><ele>29.0</ele><time>2026-04-11T14:04:00Z</time></trkpt><trkpt lat="44.00399296090508" lon="12.56921994507757"><ele>29.0</ele><time>2026-04-11T14:04:01Z</time></trkpt><trkpt lat="44.004116844720876" lon="12.569262835163412"><ele>29.0</ele><time>2026-04-11T14:04:02Z</time></trkpt><trkpt lat="44.00424368125443" lon="12.569325421111675"><ele>29.0</ele><time>2026-04-11T14:04:03Z</time></trkpt><trkpt lat="44.00436550691053" lon="12.56940402501122"><ele>28.75</ele><time>2026-04-11T14:04:04Z</time></trkpt><trkpt lat="44.00448172757294" lon="12.569503439110047"><ele>28.5</ele><time>2026-04-11T14:04:05Z</time></trkpt><trkpt lat="44.004585544759536" lon="12.569621551387705"><ele>28.25</ele><time>2026-04-11T14:04:06Z</time></trkpt><trkpt lat="44.00467671705391" lon="12.569743140745132"><ele>28.0</ele><time>2026-04-11T14:04:07Z</time></trkpt><trkpt lat="44.004754042876755" lon="12.569864469051751"><ele>28.0</ele><time>2026-04-11T14:04:08Z</time></trkpt><trkpt lat="44.00482394498157" lon="12.569986143569919"><ele>27.999999999999996</ele><time>2026-04-11T14:04:09Z</time></trkpt><trkpt lat="44.0048849447177" lon="12.570106334685368"><ele>27.999999999999996</ele><time>2026-04-11T14:04:10Z</time></trkpt><trkpt lat="44.00493076238071" lon="12.570216141482444"><ele>28.0</ele><time>2026-04-11T14:04:11Z</time></trkpt><trkpt lat="44.004972738636305" lon="12.570314835720099"><ele>28.0</ele><time>2026-04-11T14:04:12Z</time></trkpt><trkpt lat="44.00500985869244" lon="12.570410225907349"><ele>28.166666666666668</ele><time>2026-04-11T14:04:13Z</time></trkpt><trkpt lat="44.00504221614734" lon="12.570491237693417"><ele>28.333333333333336</ele><time>2026-04-11T14:04:14Z</time></trkpt><trkpt lat="44.00509362337827" lon="12.570622811985045"><ele>28.5</ele><time>2026-04-11T14:04:16Z</time></trkpt><trkpt lat="44.005129076344154" lon="12.570706641463058"><ele>28.666666666666664</ele><time>2026-04-11T14:04:18Z</time></trkpt><trkpt lat="44.00516007881152" lon="12.570794268323741"><ele>28.833333333333332</ele><time>2026-04-11T14:04:21Z</time></trkpt><trkpt lat="44.00511170297415" lon="12.570881930621606"><ele>29.0</ele><time>2026-04-11T14:04:24Z</time></trkpt><trkpt lat="44.005034212960915" lon="12.570959289898058"><ele>28.833333333333332</ele><time>2026-04-11T14:04:27Z</time></trkpt><trkpt lat="44.00495712160734" lon="12.571043285130832"><ele>28.666666666666664</ele><time>2026-04-11T14:04:29Z</time></trkpt><trkpt lat="44.00487896945141" lon="12.571124717550791"><ele>28.5</ele><time>2026-04-11T14:04:31Z</time></trkpt><trkpt lat="44.004813224113846" lon="12.571193805237533"><ele>28.333333333333336</ele><time>2026-04-11T14:04:33Z</time></trkpt><trkpt lat="44.00475266602976" lon="12.571259971029034"><ele>28.166666666666668</ele><time>2026-04-11T14:04:35Z</time></trkpt><trkpt lat="44.00469397599931" lon="12.571328893663237"><ele>28.0</ele><time>2026-04-11T14:04:37Z</time></trkpt><trkpt lat="44.0046255488074" lon="12.571411458080378"><ele>28.000000000000004</ele><time>2026-04-11T14:04:39Z</time></trkpt><trkpt lat="44.004573086054066" lon="12.571461458686013"><ele>28.0</ele><time>2026-04-11T14:04:40Z</time></trkpt><trkpt lat="44.00450910237536" lon="12.57151530124051"><ele>28.0</ele><time>2026-04-11T14:04:41Z</time></trkpt><trkpt lat="44.00445247875162" lon="12.571595623412444"><ele>28.0</ele><time>2026-04-11T14:04:42Z</time></trkpt><trkpt lat="44.004387628174655" lon="12.571673783971702"><ele>28.000000000000004</ele><time>2026-04-11T14:04:43Z</time></trkpt><trkpt lat="44.00429519286066" lon="12.571741547997473"><ele>28.0</ele><time>2026-04-11T14:04:44Z</time></trkpt><trkpt lat="44.00419399716504" lon="12.5718044618092"><ele>28.0</ele><time>2026-04-11T14:04:45Z</time></trkpt><trkpt lat="44.004083877621404" lon="12.571871743771796"><ele>28.0</ele><time>2026-04-11T14:04:46Z</time></trkpt><trkpt lat="44.00396373818325" lon="12.571936831216584"><ele>28.0</ele><time>2026-04-11T14:04:47Z</time></trkpt><trkpt lat="44.003836018044204" lon="12.571990021961982"><ele>28.0</ele><time>2026-04-11T14:04:48Z</time></trkpt><trkpt lat="44.00369828358335" lon="12.572028380987941"><ele>28.0</ele><time>2026-04-11T14:04:49Z</time></trkpt><trkpt lat="44.00355351007697" lon="12.572050824637227"><ele>28.0</ele><time>2026-04-11T14:04:50Z</time></trkpt><trkpt lat="44.00340850429256" lon="12.572070826926472"><ele>28.0</ele><time>2026-04-11T14:04:51Z</time></trkpt><trkpt lat="44.003254922420346" lon="12.572069241867425"><ele>28.0</ele><time>2026-04-11T14:04:52Z</time></trkpt><trkpt lat="44.00309754489649" lon="12.572063024842157"><ele>28.0</ele><time>2026-04-11T14:04:53Z</time></trkpt><trkpt lat="44.002937307921066" lon="12.572056586496172"><ele>28.0</ele><time>2026-04-11T14:04:54Z</time></trkpt><trkpt lat="44.00277485286786" lon="12.57204829764963"><ele>28.0</ele><time>2026-04-11T14:04:55Z</time></trkpt><trkpt lat="44.00260987783104" lon="12.572041571160243"><ele>28.333333333333336</ele><time>2026-04-11T14:04:56Z</time></trkpt><trkpt lat="44.002442676960186" lon="12.572038461071116"><ele>28.666666666666664</ele><time>2026-04-11T14:04:57Z</time></trkpt><trkpt lat="44.0022690824147" lon="12.572024723664578"><ele>29.0</ele><time>2026-04-11T14:04:58Z</time></trkpt><trkpt lat="44.002093260337254" lon="12.572012679817034"><ele>29.0</ele><time>2026-04-11T14:04:58.999Z</time></trkpt><trkpt lat="44.00191465604439" lon="12.572004474963828"><ele>29.0</ele><time>2026-04-11T14:04:59.999Z</time></trkpt><trkpt lat="44.0017338650477" lon="12.572002979521299"><ele>29.0</ele><time>2026-04-11T14:05:00.999Z</time></trkpt><trkpt lat="44.001551294617364" lon="12.572013895745323"><ele>29.333333333333332</ele><time>2026-04-11T14:05:01.999Z</time></trkpt><trkpt lat="44.00136770295323" lon="12.572031708121465"><ele>29.666666666666664</ele><time>2026-04-11T14:05:02.999Z</time></trkpt><trkpt lat="44.001184484648036" lon="12.572057090107542"><ele>30.0</ele><time>2026-04-11T14:05:03.999Z</time></trkpt><trkpt lat="44.00100020420396" lon="12.572085326643966"><ele>31.0</ele><time>2026-04-11T14:05:04.999Z</time></trkpt><trkpt lat="44.000814977134375" lon="12.572117513042471"><ele>32.0</ele><time>2026-04-11T14:05:05.999Z</time></trkpt><trkpt lat="44.000628723168894" lon="12.572147302843765"><ele>33.0</ele><time>2026-04-11T14:05:06.999Z</time></trkpt><trkpt lat="44.000443082289465" lon="12.572177735818972"><ele>33.0</ele><time>2026-04-11T14:05:07.998Z</time></trkpt><trkpt lat="44.00025589345955" lon="12.572207411019326"><ele>33.0</ele><time>2026-04-11T14:05:08.998Z</time></trkpt><trkpt lat="44.000070107984406" lon="12.572240394962932"><ele>33.0</ele><time>2026-04-11T14:05:09.998Z</time></trkpt><trkpt lat="43.999881290659104" lon="12.572273315891376"><ele>33.0</ele><time>2026-04-11T14:05:10.998Z</time></trkpt><trkpt lat="43.999691567998944" lon="12.572313541597397"><ele>33.0</ele><time>2026-04-11T14:05:11.998Z</time></trkpt><trkpt lat="43.9995037238668" lon="12.572359396156275"><ele>33.0</ele><time>2026-04-11T14:05:12.998Z</time></trkpt><trkpt lat="43.99931624996096" lon="12.57242079153216"><ele>33.0</ele><time>2026-04-11T14:05:13.998Z</time></trkpt><trkpt lat="43.999127866284184" lon="12.572484761551577"><ele>33.0</ele><time>2026-04-11T14:05:14.998Z</time></trkpt><trkpt lat="43.998939408775605" lon="12.572551844568824"><ele>33.0</ele><time>2026-04-11T14:05:15.998Z</time></trkpt><trkpt lat="43.998748411568165" lon="12.572620772077226"><ele>33.0</ele><time>2026-04-11T14:05:16.998Z</time></trkpt><trkpt lat="43.99855443579348" lon="12.57267694320034"><ele>33.0</ele><time>2026-04-11T14:05:17.998Z</time></trkpt><trkpt lat="43.99835793229952" lon="12.572716372908168"><ele>33.0</ele><time>2026-04-11T14:05:18.998Z</time></trkpt><trkpt lat="43.998160721093605" lon="12.572744203125097"><ele>33.333333333333336</ele><time>2026-04-11T14:05:19.998Z</time></trkpt><trkpt lat="43.997964560544794" lon="12.572758183230624"><ele>33.66666666666667</ele><time>2026-04-11T14:05:20.998Z</time></trkpt><trkpt lat="43.997767766537045" lon="12.572767633839957"><ele>34.0</ele><time>2026-04-11T14:05:21.998Z</time></trkpt><trkpt lat="43.99757237729656" lon="12.57278228851408"><ele>33.66666666666667</ele><time>2026-04-11T14:05:22.998Z</time></trkpt><trkpt lat="43.99738038491909" lon="12.572794308345607"><ele>33.333333333333336</ele><time>2026-04-11T14:05:23.998Z</time></trkpt><trkpt lat="43.99720326125166" lon="12.57280852167983"><ele>33.0</ele><time>2026-04-11T14:05:24.998Z</time></trkpt><trkpt lat="43.99703344115719" lon="12.572807364285284"><ele>33.0</ele><time>2026-04-11T14:05:25.998Z</time></trkpt><trkpt lat="43.99686857701781" lon="12.572785176830187"><ele>33.0</ele><time>2026-04-11T14:05:26.998Z</time></trkpt><trkpt lat="43.99671145510899" lon="12.572742645976376"><ele>33.0</ele><time>2026-04-11T14:05:27.998Z</time></trkpt><trkpt lat="43.996553850144785" lon="12.57267362833714"><ele>33.666666666666664</ele><time>2026-04-11T14:05:28.998Z</time></trkpt><trkpt lat="43.996400418356224" lon="12.572575055676364"><ele>34.33333333333333</ele><time>2026-04-11T14:05:29.998Z</time></trkpt><trkpt lat="43.996249574238846" lon="12.57245734697724"><ele>35.0</ele><time>2026-04-11T14:05:30.998Z</time></trkpt><trkpt lat="43.99609704870081" lon="12.57233620582745"><ele>35.0</ele><time>2026-04-11T14:05:31.998Z</time></trkpt><trkpt lat="43.995942031321775" lon="12.572213731691017"><ele>35.0</ele><time>2026-04-11T14:05:32.998Z</time></trkpt><trkpt lat="43.99578587179941" lon="12.572090405635569"><ele>35.0</ele><time>2026-04-11T14:05:33.998Z</time></trkpt><trkpt lat="43.995628054663854" lon="12.57196555596551"><ele>34.666666666666664</ele><time>2026-04-11T14:05:34.998Z</time></trkpt><trkpt lat="43.99546533504556" lon="12.571848497539863"><ele>34.333333333333336</ele><time>2026-04-11T14:05:35.998Z</time></trkpt><trkpt lat="43.99529975052401" lon="12.571735210027539"><ele>34.0</ele><time>2026-04-11T14:05:36.998Z</time></trkpt><trkpt lat="43.99511118722319" lon="12.571701435128709"><ele>34.333333333333336</ele><time>2026-04-11T14:05:37.998Z</time></trkpt><trkpt lat="43.99492615000291" lon="12.57167592480212"><ele>34.666666666666664</ele><time>2026-04-11T14:05:38.998Z</time></trkpt><trkpt lat="43.99474051192146" lon="12.571671143056673"><ele>35.0</ele><time>2026-04-11T14:05:39.998Z</time></trkpt><trkpt lat="43.99455507555802" lon="12.571679005183235"><ele>35.0</ele><time>2026-04-11T14:05:40.998Z</time></trkpt><trkpt lat="43.9943681000222" lon="12.57169697925846"><ele>35.0</ele><time>2026-04-11T14:05:41.998Z</time></trkpt><trkpt lat="43.99418406209045" lon="12.571720267532"><ele>35.0</ele><time>2026-04-11T14:05:42.998Z</time></trkpt><trkpt lat="43.993996887474545" lon="12.571738751400979"><ele>35.33333333333333</ele><time>2026-04-11T14:05:43.998Z</time></trkpt><trkpt lat="43.99380913388062" lon="12.57176213931739"><ele>35.666666666666664</ele><time>2026-04-11T14:05:44.999Z</time></trkpt><trkpt lat="43.99361885949413" lon="12.571788523349625"><ele>36.0</ele><time>2026-04-11T14:05:45.999Z</time></trkpt><trkpt lat="43.99343094714197" lon="12.571806953167204"><ele>36.333333333333336</ele><time>2026-04-11T14:05:46.999Z</time></trkpt><trkpt lat="43.99323999301866" lon="12.571822814192142"><ele>36.66666666666667</ele><time>2026-04-11T14:05:47.999Z</time></trkpt><trkpt lat="43.993049782269374" lon="12.571839455535928"><ele>37.0</ele><time>2026-04-11T14:05:49Z</time></trkpt><trkpt lat="43.99285911936386" lon="12.57185610758337"><ele>37.0</ele><time>2026-04-11T14:05:49.999Z</time></trkpt><trkpt lat="43.99266809009744" lon="12.571875849674123"><ele>37.0</ele><time>2026-04-11T14:05:51Z</time></trkpt><trkpt lat="43.992476108455556" lon="12.571898429813197"><ele>37.0</ele><time>2026-04-11T14:05:52Z</time></trkpt><trkpt lat="43.99228133060338" lon="12.571920557094563"><ele>37.66666666666667</ele><time>2026-04-11T14:05:52.999Z</time></trkpt><trkpt lat="43.99208709336515" lon="12.571939351299838"><ele>38.333333333333336</ele><time>2026-04-11T14:05:54Z</time></trkpt><trkpt lat="43.99189117129611" lon="12.571954587332675"><ele>39.0</ele><time>2026-04-11T14:05:55Z</time></trkpt><trkpt lat="43.99169603116261" lon="12.571967739302611"><ele>39.333333333333336</ele><time>2026-04-11T14:05:55.999Z</time></trkpt><trkpt lat="43.991503032047056" lon="12.57198155170558"><ele>39.66666666666667</ele><time>2026-04-11T14:05:57Z</time></trkpt><trkpt lat="43.991321853533776" lon="12.57199293735246"><ele>40.0</ele><time>2026-04-11T14:05:58Z</time></trkpt><trkpt lat="43.9911452158374" lon="12.572006510830452"><ele>40.0</ele><time>2026-04-11T14:05:59Z</time></trkpt><trkpt lat="43.99096833034137" lon="12.572019574969062"><ele>40.0</ele><time>2026-04-11T14:05:59.999Z</time></trkpt><trkpt lat="43.99079227058357" lon="12.572039982750674"><ele>40.0</ele><time>2026-04-11T14:06:00.999Z</time></trkpt><trkpt lat="43.990616271686044" lon="12.572059557288734"><ele>40.0</ele><time>2026-04-11T14:06:01.999Z</time></trkpt><trkpt lat="43.99044024846898" lon="12.572076051094317"><ele>40.0</ele><time>2026-04-11T14:06:02.999Z</time></trkpt><trkpt lat="43.99026517764985" lon="12.572088612357705"><ele>40.0</ele><time>2026-04-11T14:06:03.999Z</time></trkpt><trkpt lat="43.990090075500966" lon="12.572101295569302"><ele>40.333333333333336</ele><time>2026-04-11T14:06:04.999Z</time></trkpt><trkpt lat="43.989923343477635" lon="12.572110918053946"><ele>40.666666666666664</ele><time>2026-04-11T14:06:05.999Z</time></trkpt><trkpt lat="43.98976305155572" lon="12.572121303504597"><ele>41.0</ele><time>2026-04-11T14:06:06.999Z</time></trkpt><trkpt lat="43.98960392634612" lon="12.57213040069415"><ele>41.0</ele><time>2026-04-11T14:06:07.999Z</time></trkpt><trkpt lat="43.98944775832367" lon="12.572132724295459"><ele>41.0</ele><time>2026-04-11T14:06:08.999Z</time></trkpt><trkpt lat="43.98930003661825" lon="12.572132504031853"><ele>41.0</ele><time>2026-04-11T14:06:09.999Z</time></trkpt><trkpt lat="43.989155882580526" lon="12.572119744940888"><ele>41.0</ele><time>2026-04-11T14:06:10.999Z</time></trkpt><trkpt lat="43.98901082685246" lon="12.572104202014062"><ele>41.0</ele><time>2026-04-11T14:06:11.999Z</time></trkpt><trkpt lat="43.98886871837536" lon="12.572086487418941"><ele>41.0</ele><time>2026-04-11T14:06:12.999Z</time></trkpt><trkpt lat="43.98873348042996" lon="12.572067206812743"><ele>41.0</ele><time>2026-04-11T14:06:13.999Z</time></trkpt><trkpt lat="43.9885979523624" lon="12.572039431880519"><ele>41.0</ele><time>2026-04-11T14:06:14.999Z</time></trkpt><trkpt lat="43.98845997180553" lon="12.571998577725157"><ele>41.0</ele><time>2026-04-11T14:06:15.999Z</time></trkpt><trkpt lat="43.98831927704846" lon="12.571947034923175"><ele>41.0</ele><time>2026-04-11T14:06:16.999Z</time></trkpt><trkpt lat="43.98817942970837" lon="12.571873252624638"><ele>41.0</ele><time>2026-04-11T14:06:17.999Z</time></trkpt><trkpt lat="43.98804516550711" lon="12.571780211937234"><ele>41.0</ele><time>2026-04-11T14:06:18.999Z</time></trkpt><trkpt lat="43.98790964825223" lon="12.571676659388759"><ele>41.0</ele><time>2026-04-11T14:06:19.999Z</time></trkpt><trkpt lat="43.9877782250494" lon="12.571560521940757"><ele>41.0</ele><time>2026-04-11T14:06:20.999Z</time></trkpt><trkpt lat="43.98765001813671" lon="12.571445415498356"><ele>41.0</ele><time>2026-04-11T14:06:21.999Z</time></trkpt><trkpt lat="43.987531904557336" lon="12.571340344388197"><ele>41.0</ele><time>2026-04-11T14:06:22.999Z</time></trkpt><trkpt lat="43.987426473416136" lon="12.571240673385207"><ele>41.5</ele><time>2026-04-11T14:06:23.999Z</time></trkpt><trkpt lat="43.987322612933006" lon="12.571149249164737"><ele>42.0</ele><time>2026-04-11T14:06:24.999Z</time></trkpt><trkpt lat="43.98721918933436" lon="12.571060488798427"><ele>42.5</ele><time>2026-04-11T14:06:25.999Z</time></trkpt><trkpt lat="43.987114019106045" lon="12.570980539007168"><ele>43.0</ele><time>2026-04-11T14:06:26.999Z</time></trkpt><trkpt lat="43.98701357004037" lon="12.570906477925668"><ele>43.0</ele><time>2026-04-11T14:06:27.999Z</time></trkpt><trkpt lat="43.98691277185776" lon="12.570834134572785"><ele>43.0</ele><time>2026-04-11T14:06:28.999Z</time></trkpt><trkpt lat="43.98680942561803" lon="12.570764364368141"><ele>43.0</ele><time>2026-04-11T14:06:29.999Z</time></trkpt><trkpt lat="43.98671232191697" lon="12.570673902644465"><ele>43.0</ele><time>2026-04-11T14:06:30.999Z</time></trkpt><trkpt lat="43.98660662881079" lon="12.570606699001443"><ele>43.25</ele><time>2026-04-11T14:06:31.999Z</time></trkpt><trkpt lat="43.98649978282621" lon="12.570542363963371"><ele>43.5</ele><time>2026-04-11T14:06:32.999Z</time></trkpt><trkpt lat="43.98638363143904" lon="12.570501393923848"><ele>43.75</ele><time>2026-04-11T14:06:33.999Z</time></trkpt><trkpt lat="43.9862698981724" lon="12.570443022167687"><ele>44.0</ele><time>2026-04-11T14:06:34.999Z</time></trkpt><trkpt lat="43.98615232534899" lon="12.570388581047052"><ele>44.25</ele><time>2026-04-11T14:06:35.999Z</time></trkpt><trkpt lat="43.9860318571678" lon="12.570339711095823"><ele>44.5</ele><time>2026-04-11T14:06:36.999Z</time></trkpt><trkpt lat="43.985907254691895" lon="12.570288736947722"><ele>44.75</ele><time>2026-04-11T14:06:37.999Z</time></trkpt><trkpt lat="43.985778094806896" lon="12.57024351797649"><ele>45.0</ele><time>2026-04-11T14:06:38.999Z</time></trkpt><trkpt lat="43.98564590197232" lon="12.570205714571003"><ele>45.0</ele><time>2026-04-11T14:06:39.999Z</time></trkpt><trkpt lat="43.98550930349055" lon="12.570174813187274"><ele>45.0</ele><time>2026-04-11T14:06:40.999Z</time></trkpt><trkpt lat="43.98536485546572" lon="12.570156547867326"><ele>45.0</ele><time>2026-04-11T14:06:41.999Z</time></trkpt><trkpt lat="43.98521655290015" lon="12.570133111265866"><ele>45.0</ele><time>2026-04-11T14:06:42.999Z</time></trkpt><trkpt lat="43.98506210740051" lon="12.570118665973897"><ele>45.333333333333336</ele><time>2026-04-11T14:06:43.999Z</time></trkpt><trkpt lat="43.984902785813624" lon="12.570111046363092"><ele>45.66666666666667</ele><time>2026-04-11T14:06:44.999Z</time></trkpt><trkpt lat="43.98474306587271" lon="12.570106559507577"><ele>46.0</ele><time>2026-04-11T14:06:45.999Z</time></trkpt><trkpt lat="43.984594268404884" lon="12.57010155830992"><ele>46.0</ele><time>2026-04-11T14:06:46.999Z</time></trkpt><trkpt lat="43.98444954248915" lon="12.570101877208648"><ele>46.0</ele><time>2026-04-11T14:06:47.999Z</time></trkpt><trkpt lat="43.9843178425482" lon="12.570101614345834"><ele>46.0</ele><time>2026-04-11T14:06:48.999Z</time></trkpt><trkpt lat="43.98419871548777" lon="12.570099236966424"><ele>46.0</ele><time>2026-04-11T14:06:49.999Z</time></trkpt><trkpt lat="43.9840960409171" lon="12.57009670527607"><ele>45.833333333333336</ele><time>2026-04-11T14:06:50.999Z</time></trkpt><trkpt lat="43.98400083217926" lon="12.5700876295362"><ele>45.66666666666667</ele><time>2026-04-11T14:06:51.999Z</time></trkpt><trkpt lat="43.98391480489247" lon="12.570060907123239"><ele>45.5</ele><time>2026-04-11T14:06:52.999Z</time></trkpt><trkpt lat="43.98382719855391" lon="12.570001409266272"><ele>45.333333333333336</ele><time>2026-04-11T14:06:53.999Z</time></trkpt><trkpt lat="43.98376939871933" lon="12.569957951782866"><ele>45.166666666666664</ele><time>2026-04-11T14:06:54.999Z</time></trkpt><trkpt lat="43.98370326669247" lon="12.569956923814699"><ele>45.0</ele><time>2026-04-11T14:06:55.999Z</time></trkpt><trkpt lat="43.98361938348281" lon="12.570090427536291"><ele>45.0</ele><time>2026-04-11T14:06:57.999Z</time></trkpt><trkpt lat="43.9835949898125" lon="12.570190283472032"><ele>45.0</ele><time>2026-04-11T14:06:58.999Z</time></trkpt><trkpt lat="43.983539235412294" lon="12.570270895728811"><ele>45.0</ele><time>2026-04-11T14:06:59.999Z</time></trkpt><trkpt lat="43.983453555701544" lon="12.57032841662131"><ele>45.0</ele><time>2026-04-11T14:07:00.999Z</time></trkpt><trkpt lat="43.983350553524126" lon="12.570363770243372"><ele>45.0</ele><time>2026-04-11T14:07:01.999Z</time></trkpt><trkpt lat="43.98324613103313" lon="12.57039198797301"><ele>44.6</ele><time>2026-04-11T14:07:02.999Z</time></trkpt><trkpt lat="43.98314471944399" lon="12.570420684994927"><ele>44.2</ele><time>2026-04-11T14:07:03.999Z</time></trkpt><trkpt lat="43.983042462616865" lon="12.57043582727683"><ele>43.8</ele><time>2026-04-11T14:07:04.999Z</time></trkpt><trkpt lat="43.982946995107234" lon="12.570443171997203"><ele>43.4</ele><time>2026-04-11T14:07:05.999Z</time></trkpt><trkpt lat="43.982855322887296" lon="12.57044535576832"><ele>43.0</ele><time>2026-04-11T14:07:06.999Z</time></trkpt><trkpt lat="43.98276806865626" lon="12.570443415527743"><ele>43.0</ele><time>2026-04-11T14:07:07.999Z</time></trkpt><trkpt lat="43.9826807264332" lon="12.570447345418163"><ele>43.0</ele><time>2026-04-11T14:07:08.999Z</time></trkpt><trkpt lat="43.98259597723364" lon="12.570451992319677"><ele>43.0</ele><time>2026-04-11T14:07:09.999Z</time></trkpt><trkpt lat="43.98250928530441" lon="12.570455665661939"><ele>43.0</ele><time>2026-04-11T14:07:10.999Z</time></trkpt><trkpt lat="43.98242582407829" lon="12.570467412496864"><ele>43.0</ele><time>2026-04-11T14:07:11.999Z</time></trkpt><trkpt lat="43.982347089612425" lon="12.570456190952655"><ele>43.0</ele><time>2026-04-11T14:07:12.999Z</time></trkpt><trkpt lat="43.9822756955183" lon="12.570467878253606"><ele>42.599999999999994</ele><time>2026-04-11T14:07:13.999Z</time></trkpt><trkpt lat="43.982208989937256" lon="12.570484385252913"><ele>42.199999999999996</ele><time>2026-04-11T14:07:14.999Z</time></trkpt><trkpt lat="43.98209011120502" lon="12.570521326447887"><ele>41.8</ele><time>2026-04-11T14:07:16.999Z</time></trkpt><trkpt lat="43.98202734944765" lon="12.570544350466822"><ele>41.4</ele><time>2026-04-11T14:07:17.999Z</time></trkpt><trkpt lat="43.981899384479235" lon="12.570595763027795"><ele>41.0</ele><time>2026-04-11T14:07:19.999Z</time></trkpt><trkpt lat="43.98182417017288" lon="12.570628198965847"><ele>41.0</ele><time>2026-04-11T14:07:20.999Z</time></trkpt><trkpt lat="43.98174497487974" lon="12.570661724139777"><ele>41.0</ele><time>2026-04-11T14:07:21.998Z</time></trkpt><trkpt lat="43.98165652228294" lon="12.570697986689622"><ele>41.0</ele><time>2026-04-11T14:07:22.998Z</time></trkpt><trkpt lat="43.981567225972206" lon="12.57073484805609"><ele>41.0</ele><time>2026-04-11T14:07:23.998Z</time></trkpt><trkpt lat="43.98148218254894" lon="12.570770451596918"><ele>41.0</ele><time>2026-04-11T14:07:24.998Z</time></trkpt><trkpt lat="43.98139229346859" lon="12.570808162132654"><ele>40.199999999999996</ele><time>2026-04-11T14:07:25.998Z</time></trkpt><trkpt lat="43.981298982973556" lon="12.570850235738442"><ele>39.4</ele><time>2026-04-11T14:07:26.998Z</time></trkpt><trkpt lat="43.98120523998553" lon="12.570912271056244"><ele>38.6</ele><time>2026-04-11T14:07:27.998Z</time></trkpt><trkpt lat="43.981099648670146" lon="12.570952922129841"><ele>37.8</ele><time>2026-04-11T14:07:28.998Z</time></trkpt><trkpt lat="43.98099965504527" lon="12.571026341727544"><ele>37.0</ele><time>2026-04-11T14:07:29.998Z</time></trkpt><trkpt lat="43.98089731028026" lon="12.57112330865771"><ele>36.75</ele><time>2026-04-11T14:07:30.998Z</time></trkpt><trkpt lat="43.980793195419764" lon="12.57122568051497"><ele>36.5</ele><time>2026-04-11T14:07:31.998Z</time></trkpt><trkpt lat="43.9806926264603" lon="12.571337206122552"><ele>36.25</ele><time>2026-04-11T14:07:32.998Z</time></trkpt><trkpt lat="43.98059397742715" lon="12.571467557077606"><ele>36.0</ele><time>2026-04-11T14:07:33.998Z</time></trkpt><trkpt lat="43.98049300820386" lon="12.571606028262245"><ele>36.0</ele><time>2026-04-11T14:07:34.998Z</time></trkpt><trkpt lat="43.98039096700766" lon="12.571739532159434"><ele>36.0</ele><time>2026-04-11T14:07:35.998Z</time></trkpt><trkpt lat="43.980288043426214" lon="12.571876327886773"><ele>36.0</ele><time>2026-04-11T14:07:36.998Z</time></trkpt><trkpt lat="43.98018319789005" lon="12.5720199683864"><ele>36.0</ele><time>2026-04-11T14:07:37.998Z</time></trkpt><trkpt lat="43.98007726362534" lon="12.572165203715102"><ele>37.0</ele><time>2026-04-11T14:07:38.998Z</time></trkpt><trkpt lat="43.979967489671914" lon="12.572307813386239"><ele>38.0</ele><time>2026-04-11T14:07:39.998Z</time></trkpt><trkpt lat="43.97985438030345" lon="12.57244884445855"><ele>39.0</ele><time>2026-04-11T14:07:40.998Z</time></trkpt><trkpt lat="43.97973988211022" lon="12.572592553725748"><ele>39.0</ele><time>2026-04-11T14:07:41.998Z</time></trkpt><trkpt lat="43.97962166708733" lon="12.57273452360946"><ele>39.0</ele><time>2026-04-11T14:07:42.998Z</time></trkpt><trkpt lat="43.97950234978961" lon="12.57287795553269"><ele>39.0</ele><time>2026-04-11T14:07:43.998Z</time></trkpt><trkpt lat="43.97938520059926" lon="12.573027338429545"><ele>40.0</ele><time>2026-04-11T14:07:44.998Z</time></trkpt><trkpt lat="43.97926717551593" lon="12.573176547976331"><ele>41.0</ele><time>2026-04-11T14:07:45.998Z</time></trkpt><trkpt lat="43.979149368209" lon="12.57332726468306"><ele>42.0</ele><time>2026-04-11T14:07:46.998Z</time></trkpt><trkpt lat="43.97903179943601" lon="12.573483406207906"><ele>43.333333333333336</ele><time>2026-04-11T14:07:47.998Z</time></trkpt><trkpt lat="43.97891275004878" lon="12.573638724352831"><ele>44.66666666666667</ele><time>2026-04-11T14:07:48.998Z</time></trkpt><trkpt lat="43.978802949888596" lon="12.573779665490937"><ele>46.0</ele><time>2026-04-11T14:07:50Z</time></trkpt><trkpt lat="43.97869402272982" lon="12.573921781736994"><ele>46.0</ele><time>2026-04-11T14:07:51Z</time></trkpt><trkpt lat="43.97858842844753" lon="12.57406548407102"><ele>46.0</ele><time>2026-04-11T14:07:52Z</time></trkpt><trkpt lat="43.978482147475226" lon="12.57421177869986"><ele>46.0</ele><time>2026-04-11T14:07:53Z</time></trkpt><trkpt lat="43.97838064334325" lon="12.574347005543132"><ele>46.0</ele><time>2026-04-11T14:07:54Z</time></trkpt><trkpt lat="43.978281184101" lon="12.574474655285202"><ele>46.5</ele><time>2026-04-11T14:07:55Z</time></trkpt><trkpt lat="43.978192082487546" lon="12.57458700058569"><ele>47.0</ele><time>2026-04-11T14:07:56Z</time></trkpt><trkpt lat="43.97810639049255" lon="12.574705673650106"><ele>47.5</ele><time>2026-04-11T14:07:57Z</time></trkpt><trkpt lat="43.978015920698375" lon="12.574820691873468"><ele>48.0</ele><time>2026-04-11T14:07:58Z</time></trkpt><trkpt lat="43.97791646575094" lon="12.574930191561576"><ele>48.0</ele><time>2026-04-11T14:07:59Z</time></trkpt><trkpt lat="43.97780718476909" lon="12.575032088400501"><ele>48.0</ele><time>2026-04-11T14:08:00Z</time></trkpt><trkpt lat="43.97769080688116" lon="12.575134207989231"><ele>48.0</ele><time>2026-04-11T14:08:01Z</time></trkpt><trkpt lat="43.977564562789055" lon="12.575234545842791"><ele>48.0</ele><time>2026-04-11T14:08:02Z</time></trkpt><trkpt lat="43.97744023440789" lon="12.575326944569515"><ele>48.66666666666667</ele><time>2026-04-11T14:08:03Z</time></trkpt><trkpt lat="43.97730501809428" lon="12.575413030986988"><ele>49.333333333333336</ele><time>2026-04-11T14:08:04Z</time></trkpt><trkpt lat="43.97716486453156" lon="12.575495679525634"><ele>50.0</ele><time>2026-04-11T14:08:05Z</time></trkpt><trkpt lat="43.97701730846479" lon="12.575575072877985"><ele>50.0</ele><time>2026-04-11T14:08:06Z</time></trkpt><trkpt lat="43.9768631238258" lon="12.575643458126018"><ele>50.0</ele><time>2026-04-11T14:08:07Z</time></trkpt><trkpt lat="43.97671023223416" lon="12.57570193667905"><ele>50.0</ele><time>2026-04-11T14:08:08Z</time></trkpt><trkpt lat="43.97656274155343" lon="12.575752103440276"><ele>50.25</ele><time>2026-04-11T14:08:09Z</time></trkpt><trkpt lat="43.97641881437446" lon="12.575792637446986"><ele>50.5</ele><time>2026-04-11T14:08:10Z</time></trkpt><trkpt lat="43.97628166271389" lon="12.57583088713774"><ele>50.75</ele><time>2026-04-11T14:08:10.999Z</time></trkpt><trkpt lat="43.9761496400905" lon="12.575861708034564"><ele>51.0</ele><time>2026-04-11T14:08:11.999Z</time></trkpt><trkpt lat="43.97602333150007" lon="12.575892959017422"><ele>51.0</ele><time>2026-04-11T14:08:12.999Z</time></trkpt><trkpt lat="43.97590322019831" lon="12.575927371000013"><ele>51.0</ele><time>2026-04-11T14:08:13.999Z</time></trkpt><trkpt lat="43.97578261832051" lon="12.575961200829305"><ele>51.0</ele><time>2026-04-11T14:08:14.999Z</time></trkpt><trkpt lat="43.975664606287374" lon="12.575991734086184"><ele>51.0</ele><time>2026-04-11T14:08:15.999Z</time></trkpt><trkpt lat="43.975545278836876" lon="12.5760238695117"><ele>51.25</ele><time>2026-04-11T14:08:16.999Z</time></trkpt><trkpt lat="43.975426150230454" lon="12.576054554566085"><ele>51.5</ele><time>2026-04-11T14:08:17.999Z</time></trkpt><trkpt lat="43.97530913192777" lon="12.576085755872125"><ele>51.75</ele><time>2026-04-11T14:08:18.999Z</time></trkpt><trkpt lat="43.975191464277934" lon="12.576116176690565"><ele>52.0</ele><time>2026-04-11T14:08:19.999Z</time></trkpt><trkpt lat="43.97507377794142" lon="12.576145672059631"><ele>52.25</ele><time>2026-04-11T14:08:20.999Z</time></trkpt><trkpt lat="43.97495364968407" lon="12.576170719037682"><ele>52.5</ele><time>2026-04-11T14:08:21.999Z</time></trkpt><trkpt lat="43.97483180838337" lon="12.576199512815856"><ele>52.75</ele><time>2026-04-11T14:08:22.999Z</time></trkpt><trkpt lat="43.97471067861426" lon="12.576233619721958"><ele>53.0</ele><time>2026-04-11T14:08:23.999Z</time></trkpt><trkpt lat="43.97458700861132" lon="12.576267719805035"><ele>53.25</ele><time>2026-04-11T14:08:24.999Z</time></trkpt><trkpt lat="43.97446178181776" lon="12.57629974706843"><ele>53.5</ele><time>2026-04-11T14:08:25.999Z</time></trkpt><trkpt lat="43.974333514543645" lon="12.576328399383572"><ele>53.75</ele><time>2026-04-11T14:08:26.999Z</time></trkpt><trkpt lat="43.97420351372261" lon="12.576356010903847"><ele>54.0</ele><time>2026-04-11T14:08:27.999Z</time></trkpt><trkpt lat="43.974073118854655" lon="12.576383854877939"><ele>54.25</ele><time>2026-04-11T14:08:28.999Z</time></trkpt><trkpt lat="43.973942767592916" lon="12.576408351035347"><ele>54.5</ele><time>2026-04-11T14:08:29.999Z</time></trkpt><trkpt lat="43.973810946218904" lon="12.57643151360093"><ele>54.75</ele><time>2026-04-11T14:08:30.999Z</time></trkpt><trkpt lat="43.97367729770033" lon="12.576452196998558"><ele>55.0</ele><time>2026-04-11T14:08:31.999Z</time></trkpt><trkpt lat="43.97354394471748" lon="12.57646695571539"><ele>55.0</ele><time>2026-04-11T14:08:32.999Z</time></trkpt><trkpt lat="43.97340920850919" lon="12.57648082879752"><ele>55.0</ele><time>2026-04-11T14:08:33.999Z</time></trkpt><trkpt lat="43.9732796892337" lon="12.576472988895812"><ele>55.0</ele><time>2026-04-11T14:08:34.999Z</time></trkpt><trkpt lat="43.97315740445161" lon="12.576479477018225"><ele>55.0</ele><time>2026-04-11T14:08:35.999Z</time></trkpt><trkpt lat="43.97304061620195" lon="12.576482553658424"><ele>54.83333333333333</ele><time>2026-04-11T14:08:36.999Z</time></trkpt><trkpt lat="43.97293256776807" lon="12.576478252464465"><ele>54.666666666666664</ele><time>2026-04-11T14:08:37.999Z</time></trkpt><trkpt lat="43.97283679796843" lon="12.576470547120113"><ele>54.5</ele><time>2026-04-11T14:08:38.999Z</time></trkpt><trkpt lat="43.972750987787755" lon="12.576408024600108"><ele>54.33333333333333</ele><time>2026-04-11T14:08:39.999Z</time></trkpt><trkpt lat="43.972695020922934" lon="12.57634358765859"><ele>54.166666666666664</ele><time>2026-04-11T14:08:40.999Z</time></trkpt><trkpt lat="43.97262232090417" lon="12.576320055183773"><ele>54.0</ele><time>2026-04-11T14:08:41.999Z</time></trkpt><trkpt lat="43.97255110635791" lon="12.576368593277124"><ele>54.333333333333336</ele><time>2026-04-11T14:08:42.999Z</time></trkpt><trkpt lat="43.97249736639899" lon="12.576439740801986"><ele>54.66666666666667</ele><time>2026-04-11T14:08:43.999Z</time></trkpt><trkpt lat="43.972466439757056" lon="12.576537766771668"><ele>55.0</ele><time>2026-04-11T14:08:44.999Z</time></trkpt><trkpt lat="43.97239922738111" lon="12.576576159269823"><ele>55.333333333333336</ele><time>2026-04-11T14:08:45.999Z</time></trkpt><trkpt lat="43.972319312030976" lon="12.576592556860847"><ele>55.66666666666667</ele><time>2026-04-11T14:08:46.999Z</time></trkpt><trkpt lat="43.972234923350584" lon="12.576597464008612"><ele>56.0</ele><time>2026-04-11T14:08:47.999Z</time></trkpt><trkpt lat="43.97214466926012" lon="12.5766097572561"><ele>56.0</ele><time>2026-04-11T14:08:48.999Z</time></trkpt><trkpt lat="43.97204548685656" lon="12.576614140263127"><ele>55.99999999999999</ele><time>2026-04-11T14:08:49.999Z</time></trkpt><trkpt lat="43.97194013451339" lon="12.576612876487236"><ele>55.99999999999999</ele><time>2026-04-11T14:08:50.999Z</time></trkpt><trkpt lat="43.971831624964096" lon="12.576607486672149"><ele>56.0</ele><time>2026-04-11T14:08:51.999Z</time></trkpt><trkpt lat="43.9717167193434" lon="12.576590316084772"><ele>56.0</ele><time>2026-04-11T14:08:52.999Z</time></trkpt><trkpt lat="43.971597229869786" lon="12.576564534484506"><ele>55.75</ele><time>2026-04-11T14:08:53.999Z</time></trkpt><trkpt lat="43.97147549335388" lon="12.576527440762579"><ele>55.5</ele><time>2026-04-11T14:08:54.999Z</time></trkpt><trkpt lat="43.97135104254154" lon="12.57648105696115"><ele>55.25</ele><time>2026-04-11T14:08:55.999Z</time></trkpt><trkpt lat="43.9712218366829" lon="12.576434226245176"><ele>55.0</ele><time>2026-04-11T14:08:56.999Z</time></trkpt><trkpt lat="43.97110172023655" lon="12.576391912180858"><ele>55.0</ele><time>2026-04-11T14:08:57.999Z</time></trkpt><trkpt lat="43.970991161677674" lon="12.576350490033605"><ele>55.0</ele><time>2026-04-11T14:08:58.999Z</time></trkpt><trkpt lat="43.97088608354336" lon="12.57630925379954"><ele>55.0</ele><time>2026-04-11T14:08:59.999Z</time></trkpt><trkpt lat="43.97078763415517" lon="12.576270002334201"><ele>55.0</ele><time>2026-04-11T14:09:00.999Z</time></trkpt><trkpt lat="43.97069410315457" lon="12.57623352652205"><ele>55.0</ele><time>2026-04-11T14:09:01.999Z</time></trkpt><trkpt lat="43.97060750501858" lon="12.576200321053243"><ele>55.33333333333333</ele><time>2026-04-11T14:09:02.999Z</time></trkpt><trkpt lat="43.97052413139317" lon="12.576165203209374"><ele>55.666666666666664</ele><time>2026-04-11T14:09:03.999Z</time></trkpt><trkpt lat="43.97044318249419" lon="12.576131330414675"><ele>56.0</ele><time>2026-04-11T14:09:04.999Z</time></trkpt><trkpt lat="43.97036618323182" lon="12.576099323670963"><ele>56.33333333333333</ele><time>2026-04-11T14:09:05.999Z</time></trkpt><trkpt lat="43.97029780325523" lon="12.576060662228626"><ele>56.666666666666664</ele><time>2026-04-11T14:09:06.999Z</time></trkpt><trkpt lat="43.970226244522586" lon="12.576045828627297"><ele>57.0</ele><time>2026-04-11T14:09:08.999Z</time></trkpt><trkpt lat="43.970183168647075" lon="12.576245029243896"><ele>57.5</ele><time>2026-04-11T14:09:09.999Z</time></trkpt><trkpt lat="43.970166087055816" lon="12.576334232410382"><ele>58.0</ele><time>2026-04-11T14:09:10.999Z</time></trkpt><trkpt lat="43.9701477860876" lon="12.576429723464152"><ele>58.5</ele><time>2026-04-11T14:09:11.999Z</time></trkpt><trkpt lat="43.97012530689638" lon="12.576540042244355"><ele>59.0</ele><time>2026-04-11T14:09:12.999Z</time></trkpt><trkpt lat="43.970102172576425" lon="12.576654838089484"><ele>59.5</ele><time>2026-04-11T14:09:13.999Z</time></trkpt><trkpt lat="43.97007414790317" lon="12.576763183303097"><ele>60.0</ele><time>2026-04-11T14:09:14.999Z</time></trkpt><trkpt lat="43.97004595440906" lon="12.576873718355834"><ele>61.333333333333336</ele><time>2026-04-11T14:09:15.999Z</time></trkpt><trkpt lat="43.97001945285428" lon="12.576986961642096"><ele>62.66666666666667</ele><time>2026-04-11T14:09:16.999Z</time></trkpt><trkpt lat="43.96998872870815" lon="12.577098712051255"><ele>64.0</ele><time>2026-04-11T14:09:17.999Z</time></trkpt><trkpt lat="43.9699617834705" lon="12.577213029973045"><ele>65.33333333333334</ele><time>2026-04-11T14:09:18.999Z</time></trkpt><trkpt lat="43.96993359254084" lon="12.577328659282212"><ele>66.66666666666667</ele><time>2026-04-11T14:09:19.999Z</time></trkpt><trkpt lat="43.969903053745114" lon="12.577443303701642"><ele>68.0</ele><time>2026-04-11T14:09:20.999Z</time></trkpt><trkpt lat="43.96987413369946" lon="12.57756160610163"><ele>69.0</ele><time>2026-04-11T14:09:21.999Z</time></trkpt><trkpt lat="43.9698466416589" lon="12.577682828604452"><ele>70.0</ele><time>2026-04-11T14:09:22.999Z</time></trkpt><trkpt lat="43.96981726931219" lon="12.577806740256987"><ele>71.0</ele><time>2026-04-11T14:09:23.999Z</time></trkpt><trkpt lat="43.9697828068549" lon="12.577931080613617"><ele>72.0</ele><time>2026-04-11T14:09:24.999Z</time></trkpt><trkpt lat="43.969745576766826" lon="12.578057350957987"><ele>73.0</ele><time>2026-04-11T14:09:25.999Z</time></trkpt><trkpt lat="43.969708400574056" lon="12.578188323971874"><ele>74.0</ele><time>2026-04-11T14:09:26.999Z</time></trkpt><trkpt lat="43.96967748358065" lon="12.578311299965412"><ele>75.0</ele><time>2026-04-11T14:09:27.999Z</time></trkpt><trkpt lat="43.9696461834826" lon="12.578426893984622"><ele>76.0</ele><time>2026-04-11T14:09:28.999Z</time></trkpt><trkpt lat="43.96961295480584" lon="12.578538355910863"><ele>77.0</ele><time>2026-04-11T14:09:29.998Z</time></trkpt><trkpt lat="43.969591223408734" lon="12.578630415230336"><ele>78.0</ele><time>2026-04-11T14:09:30.998Z</time></trkpt><trkpt lat="43.96954742148445" lon="12.578707634578386"><ele>79.0</ele><time>2026-04-11T14:09:31.998Z</time></trkpt><trkpt lat="43.96958693070842" lon="12.57884514991741"><ele>79.80000000000001</ele><time>2026-04-11T14:09:32.998Z</time></trkpt><trkpt lat="43.969618723214055" lon="12.578960730476151"><ele>80.60000000000001</ele><time>2026-04-11T14:09:33.998Z</time></trkpt><trkpt lat="43.9696723305442" lon="12.579079777669373"><ele>81.4</ele><time>2026-04-11T14:09:34.998Z</time></trkpt><trkpt lat="43.96973441442489" lon="12.57920337354976"><ele>82.2</ele><time>2026-04-11T14:09:35.998Z</time></trkpt><trkpt lat="43.969803673258156" lon="12.579338955283276"><ele>83.0</ele><time>2026-04-11T14:09:36.998Z</time></trkpt><trkpt lat="43.969879029743616" lon="12.57948784199673"><ele>82.5</ele><time>2026-04-11T14:09:37.998Z</time></trkpt><trkpt lat="43.969959697592415" lon="12.57964772466625"><ele>82.0</ele><time>2026-04-11T14:09:38.998Z</time></trkpt><trkpt lat="43.97003500339435" lon="12.579813072355092"><ele>81.5</ele><time>2026-04-11T14:09:39.998Z</time></trkpt><trkpt lat="43.97010531559679" lon="12.579988104584599"><ele>81.0</ele><time>2026-04-11T14:09:40.998Z</time></trkpt><trkpt lat="43.97017778380161" lon="12.580168952269728"><ele>83.0</ele><time>2026-04-11T14:09:41.998Z</time></trkpt><trkpt lat="43.970237699314715" lon="12.58036822402246"><ele>85.0</ele><time>2026-04-11T14:09:42.998Z</time></trkpt><trkpt lat="43.97025654253412" lon="12.580570360747156"><ele>87.0</ele><time>2026-04-11T14:09:43.998Z</time></trkpt><trkpt lat="43.970245390645005" lon="12.580774290457832"><ele>89.0</ele><time>2026-04-11T14:09:44.998Z</time></trkpt><trkpt lat="43.970240347672515" lon="12.58099227065786"><ele>89.33333333333334</ele><time>2026-04-11T14:09:45.998Z</time></trkpt><trkpt lat="43.97024860813005" lon="12.58120639194925"><ele>89.66666666666667</ele><time>2026-04-11T14:09:46.998Z</time></trkpt><trkpt lat="43.97026011055696" lon="12.581421869938962"><ele>90.0</ele><time>2026-04-11T14:09:47.998Z</time></trkpt><trkpt lat="43.97027557620233" lon="12.581635801635361"><ele>90.0</ele><time>2026-04-11T14:09:48.998Z</time></trkpt><trkpt lat="43.97028006340804" lon="12.581851641573145"><ele>90.0</ele><time>2026-04-11T14:09:49.998Z</time></trkpt><trkpt lat="43.97031545739503" lon="12.582062726591108"><ele>90.0</ele><time>2026-04-11T14:09:50.998Z</time></trkpt><trkpt lat="43.97033425986782" lon="12.582276238789145"><ele>90.0</ele><time>2026-04-11T14:09:51.998Z</time></trkpt><trkpt lat="43.97035642745612" lon="12.582492315948937"><ele>90.0</ele><time>2026-04-11T14:09:52.998Z</time></trkpt><trkpt lat="43.97035878685404" lon="12.582712254342333"><ele>90.0</ele><time>2026-04-11T14:09:53.998Z</time></trkpt><trkpt lat="43.97034401824949" lon="12.582927730484714"><ele>90.0</ele><time>2026-04-11T14:09:54.998Z</time></trkpt><trkpt lat="43.97030147968544" lon="12.583134888685302"><ele>90.0</ele><time>2026-04-11T14:09:56Z</time></trkpt><trkpt lat="43.970261699601934" lon="12.583338586220133"><ele>90.0</ele><time>2026-04-11T14:09:57Z</time></trkpt><trkpt lat="43.97022589630351" lon="12.583538499771345"><ele>90.0</ele><time>2026-04-11T14:09:58Z</time></trkpt><trkpt lat="43.97019916782101" lon="12.583738383232335"><ele>90.0</ele><time>2026-04-11T14:09:59Z</time></trkpt><trkpt lat="43.97019524302555" lon="12.583939545234742"><ele>90.0</ele><time>2026-04-11T14:10:00Z</time></trkpt><trkpt lat="43.97022074689626" lon="12.584129752685941"><ele>90.0</ele><time>2026-04-11T14:10:01Z</time></trkpt><trkpt lat="43.97022937805963" lon="12.58432015776459"><ele>90.0</ele><time>2026-04-11T14:10:02Z</time></trkpt><trkpt lat="43.97023501423131" lon="12.58450607272946"><ele>90.0</ele><time>2026-04-11T14:10:03Z</time></trkpt><trkpt lat="43.970244400462654" lon="12.584694088497276"><ele>90.0</ele><time>2026-04-11T14:10:04Z</time></trkpt><trkpt lat="43.97025443931343" lon="12.584886151321658"><ele>90.0</ele><time>2026-04-11T14:10:05Z</time></trkpt><trkpt lat="43.97026164650803" lon="12.585089805230076"><ele>89.5</ele><time>2026-04-11T14:10:06Z</time></trkpt><trkpt lat="43.97027360584712" lon="12.585296604025029"><ele>89.0</ele><time>2026-04-11T14:10:07Z</time></trkpt><trkpt lat="43.970290408813426" lon="12.585492734087572"><ele>88.5</ele><time>2026-04-11T14:10:08Z</time></trkpt><trkpt lat="43.9703092944047" lon="12.585687936799589"><ele>88.0</ele><time>2026-04-11T14:10:09Z</time></trkpt><trkpt lat="43.970335200557386" lon="12.585878032615883"><ele>87.25</ele><time>2026-04-11T14:10:10Z</time></trkpt><trkpt lat="43.9703700513679" lon="12.586061229811921"><ele>86.5</ele><time>2026-04-11T14:10:11Z</time></trkpt><trkpt lat="43.97042007484529" lon="12.586246626422795"><ele>85.75</ele><time>2026-04-11T14:10:12Z</time></trkpt><trkpt lat="43.9704934115699" lon="12.58643150388926"><ele>85.0</ele><time>2026-04-11T14:10:13Z</time></trkpt><trkpt lat="43.97057715352932" lon="12.58661204221908"><ele>83.66666666666666</ele><time>2026-04-11T14:10:14Z</time></trkpt><trkpt lat="43.970661517170136" lon="12.586785889048715"><ele>82.33333333333333</ele><time>2026-04-11T14:10:15Z</time></trkpt><trkpt lat="43.97074755594273" lon="12.586965203815266"><ele>81.0</ele><time>2026-04-11T14:10:16Z</time></trkpt><trkpt lat="43.97083921051286" lon="12.587144710626598"><ele>75.66666666666667</ele><time>2026-04-11T14:10:17Z</time></trkpt><trkpt lat="43.97093201040265" lon="12.587330690074962"><ele>70.33333333333334</ele><time>2026-04-11T14:10:18Z</time></trkpt><trkpt lat="43.97102254751895" lon="12.587517280398387"><ele>65.0</ele><time>2026-04-11T14:10:19Z</time></trkpt><trkpt lat="43.97111371910907" lon="12.587703770813691"><ele>64.66666666666667</ele><time>2026-04-11T14:10:20Z</time></trkpt><trkpt lat="43.97120341513596" lon="12.587885500773703"><ele>64.33333333333333</ele><time>2026-04-11T14:10:21Z</time></trkpt><trkpt lat="43.97129095953486" lon="12.588057898597976"><ele>64.0</ele><time>2026-04-11T14:10:21.999Z</time></trkpt><trkpt lat="43.971376667327405" lon="12.588226266339976"><ele>64.0</ele><time>2026-04-11T14:10:22.999Z</time></trkpt><trkpt lat="43.97145883385371" lon="12.588389246048608"><ele>64.0</ele><time>2026-04-11T14:10:23.999Z</time></trkpt><trkpt lat="43.97153520273455" lon="12.588551103483004"><ele>64.0</ele><time>2026-04-11T14:10:24.999Z</time></trkpt><trkpt lat="43.97161032375663" lon="12.588706373762085"><ele>64.0</ele><time>2026-04-11T14:10:25.999Z</time></trkpt><trkpt lat="43.97168340346448" lon="12.58885396339582"><ele>62.2</ele><time>2026-04-11T14:10:26.999Z</time></trkpt><trkpt lat="43.97175349477262" lon="12.588993151276629"><ele>60.400000000000006</ele><time>2026-04-11T14:10:27.999Z</time></trkpt><trkpt lat="43.97182418341583" lon="12.58912197640255"><ele>58.6</ele><time>2026-04-11T14:10:28.999Z</time></trkpt><trkpt lat="43.971890865217354" lon="12.589250574489354"><ele>56.8</ele><time>2026-04-11T14:10:29.999Z</time></trkpt><trkpt lat="43.9719318056519" lon="12.589371514775472"><ele>55.0</ele><time>2026-04-11T14:10:30.999Z</time></trkpt><trkpt lat="43.97194692470616" lon="12.589493014943303"><ele>55.6</ele><time>2026-04-11T14:10:31.999Z</time></trkpt><trkpt lat="43.97193051573219" lon="12.589616618047875"><ele>56.2</ele><time>2026-04-11T14:10:32.999Z</time></trkpt><trkpt lat="43.97185909982825" lon="12.58971834060677"><ele>56.8</ele><time>2026-04-11T14:10:33.999Z</time></trkpt><trkpt lat="43.97180875860511" lon="12.589856921921522"><ele>57.4</ele><time>2026-04-11T14:10:34.999Z</time></trkpt><trkpt lat="43.971728122407775" lon="12.58998206326807"><ele>58.0</ele><time>2026-04-11T14:10:35.999Z</time></trkpt><trkpt lat="43.97165790897741" lon="12.590118449676147"><ele>58.25</ele><time>2026-04-11T14:10:36.999Z</time></trkpt><trkpt lat="43.97158775453583" lon="12.590252231315244"><ele>58.5</ele><time>2026-04-11T14:10:37.999Z</time></trkpt><trkpt lat="43.97151205944916" lon="12.590396052492835"><ele>58.75</ele><time>2026-04-11T14:10:38.999Z</time></trkpt><trkpt lat="43.97143762771399" lon="12.590537033635215"><ele>59.0</ele><time>2026-04-11T14:10:39.999Z</time></trkpt><trkpt lat="43.97136268332047" lon="12.590678746615405"><ele>57.75</ele><time>2026-04-11T14:10:40.999Z</time></trkpt><trkpt lat="43.971300389364366" lon="12.590835260677997"><ele>56.5</ele><time>2026-04-11T14:10:41.999Z</time></trkpt><trkpt lat="43.97120204712908" lon="12.59096024549745"><ele>55.25</ele><time>2026-04-11T14:10:42.999Z</time></trkpt><trkpt lat="43.97110836932729" lon="12.591094915942753"><ele>54.0</ele><time>2026-04-11T14:10:43.999Z</time></trkpt><trkpt lat="43.97101741210572" lon="12.59124665434949"><ele>52.25</ele><time>2026-04-11T14:10:44.999Z</time></trkpt><trkpt lat="43.97091878452804" lon="12.591391899417014"><ele>50.5</ele><time>2026-04-11T14:10:45.999Z</time></trkpt><trkpt lat="43.97082009426215" lon="12.591540827848094"><ele>48.75</ele><time>2026-04-11T14:10:46.999Z</time></trkpt><trkpt lat="43.97072281529582" lon="12.591688867339787"><ele>47.0</ele><time>2026-04-11T14:10:47.999Z</time></trkpt><trkpt lat="43.97063279251398" lon="12.591842186415485"><ele>45.5</ele><time>2026-04-11T14:10:48.999Z</time></trkpt><trkpt lat="43.97053743588459" lon="12.59199296850939"><ele>44.0</ele><time>2026-04-11T14:10:49.999Z</time></trkpt><trkpt lat="43.97043563263454" lon="12.592136839504455"><ele>42.5</ele><time>2026-04-11T14:10:50.999Z</time></trkpt><trkpt lat="43.970335004187966" lon="12.59226930281844"><ele>41.0</ele><time>2026-04-11T14:10:51.999Z</time></trkpt><trkpt lat="43.9702357578041" lon="12.592397707255236"><ele>39.75</ele><time>2026-04-11T14:10:52.999Z</time></trkpt><trkpt lat="43.970134214833465" lon="12.592523631142061"><ele>38.5</ele><time>2026-04-11T14:10:53.999Z</time></trkpt><trkpt lat="43.97003679906689" lon="12.592643007196674"><ele>37.25</ele><time>2026-04-11T14:10:54.999Z</time></trkpt><trkpt lat="43.96994252878502" lon="12.592752225375698"><ele>36.0</ele><time>2026-04-11T14:10:55.999Z</time></trkpt><trkpt lat="43.969855765525814" lon="12.59286542718601"><ele>36.0</ele><time>2026-04-11T14:10:56.999Z</time></trkpt><trkpt lat="43.96977703860838" lon="12.592967139207095"><ele>36.0</ele><time>2026-04-11T14:10:57.999Z</time></trkpt><trkpt lat="43.96969189477458" lon="12.5930686934117"><ele>36.0</ele><time>2026-04-11T14:10:58.999Z</time></trkpt><trkpt lat="43.96961017092789" lon="12.593162338642262"><ele>36.0</ele><time>2026-04-11T14:10:59.999Z</time></trkpt><trkpt lat="43.96953237315121" lon="12.593244943241471"><ele>36.0</ele><time>2026-04-11T14:11:00.999Z</time></trkpt><trkpt lat="43.96946015342565" lon="12.593323105395292"><ele>36.0</ele><time>2026-04-11T14:11:01.999Z</time></trkpt><trkpt lat="43.969388271737145" lon="12.593407935624647"><ele>36.0</ele><time>2026-04-11T14:11:02.999Z</time></trkpt><trkpt lat="43.969321455372274" lon="12.593487583431935"><ele>36.0</ele><time>2026-04-11T14:11:03.999Z</time></trkpt><trkpt lat="43.969260367558164" lon="12.593565763455178"><ele>36.0</ele><time>2026-04-11T14:11:04.999Z</time></trkpt><trkpt lat="43.969195180517865" lon="12.593638724728418"><ele>36.0</ele><time>2026-04-11T14:11:05.999Z</time></trkpt><trkpt lat="43.96913190463472" lon="12.593715306239183"><ele>36.0</ele><time>2026-04-11T14:11:06.999Z</time></trkpt><trkpt lat="43.96907148636056" lon="12.593800718499347"><ele>36.166666666666664</ele><time>2026-04-11T14:11:07.999Z</time></trkpt><trkpt lat="43.969021115375725" lon="12.593887186383418"><ele>36.333333333333336</ele><time>2026-04-11T14:11:08.999Z</time></trkpt><trkpt lat="43.96897843896142" lon="12.593971135906273"><ele>36.5</ele><time>2026-04-11T14:11:09.999Z</time></trkpt><trkpt lat="43.96892917180142" lon="12.594075375748128"><ele>36.66666666666667</ele><time>2026-04-11T14:11:11.999Z</time></trkpt><trkpt lat="43.96890182189017" lon="12.594158520129628"><ele>36.833333333333336</ele><time>2026-04-11T14:11:13.999Z</time></trkpt><trkpt lat="43.96883774566288" lon="12.594228153477916"><ele>37.0</ele><time>2026-04-11T14:11:46.998Z</time></trkpt><trkpt lat="43.96891585967699" lon="12.59441874205978"><ele>37.0</ele><time>2026-04-11T14:12:19Z</time></trkpt><trkpt lat="43.968890769312864" lon="12.594525569154554"><ele>37.0</ele><time>2026-04-11T14:12:31.999Z</time></trkpt><trkpt lat="43.96894147942221" lon="12.59458843870214"><ele>37.0</ele><time>2026-04-11T14:13:22.999Z</time></trkpt><trkpt lat="43.96889896413625" lon="12.594513460418646"><ele>37.0</ele><time>2026-04-11T14:13:35.999Z</time></trkpt><trkpt lat="43.96887073014121" lon="12.594432833762149"><ele>37.0</ele><time>2026-04-11T14:22:16Z</time></trkpt><trkpt lat="43.96893238681082" lon="12.594398513168732"><ele>37.0</ele><time>2026-04-11T14:23:27.999Z</time></trkpt><trkpt lat="43.9689942703969" lon="12.594361229716073"><ele>37.0</ele><time>2026-04-11T14:23:37.999Z</time></trkpt><trkpt lat="43.968942167687786" lon="12.594414211377348"><ele>37.0</ele><time>2026-04-11T14:25:04Z</time></trkpt><trkpt lat="43.968896921670485" lon="12.594489703741118"><ele>37.0</ele><time>2026-04-11T14:25:09Z</time></trkpt><trkpt lat="43.96899158352512" lon="12.59464495143028"><ele>37.0</ele><time>2026-04-11T14:26:16.999Z</time></trkpt></trkseg></trk></gpx>